<?xml version="1.0" encoding="UTF-8"?>
<gpx version="1.1" creator="https://www.youtrack.es" xsi:schemaLocation="http://www.topografix.com/GPX/1/1 http://www.topografix.com/GPX/1/1/gpx.xsd http://www.garmin.com/xmlschemas/GpxExtensions/v3 http://www.garmin.com/xmlschemas/GpxExtensionsv3.xsd http://www.garmin.com/xmlschemas/TrackPointExtension/v1 http://www.garmin.com/xmlschemas/TrackPointExtensionv1.xsd" xmlns:gpxtpx="http://www.garmin.com/xmlschemas/TrackPointExtension/v1" xmlns:gpxx="http://www.garmin.com/xmlschemas/GpxExtensions/v3" xmlns:xsi="http://www.w3.org/2001/XMLSchema-instance">
  <metadata>
    <link href="https://www.youtrack.es">
      <text>YouTrack.es</text>
    </link>
    <time>2026-05-08T14:47:43Z</time>
  </metadata>
  <trk>
    <src>https://www.youtrack.es</src>
    <link href="https://www.youtrack.es/ruta/20556-getafe-sector-3-fuente-la-teja-torrejon-de-velasco-getafe-sector-3">
      <text>YouTrack.es</text>
    </link>
    <trkseg>
      <trkpt lat="40.29263" lon="-3.7580981">
        <ele>-20000.0</ele>
        <time>2021-03-24T16:12:04Z</time>
      </trkpt>
      <trkpt lat="40.29263" lon="-3.7580981">
        <ele>-20000.0</ele>
        <time>2021-03-24T16:12:05Z</time>
      </trkpt>
      <trkpt lat="40.29263" lon="-3.7580981">
        <ele>-20000.0</ele>
        <time>2021-03-24T16:12:06Z</time>
      </trkpt>
      <trkpt lat="40.29263" lon="-3.7580981">
        <ele>-20000.0</ele>
        <time>2021-03-24T16:12:07Z</time>
      </trkpt>
      <trkpt lat="40.29263" lon="-3.7580981">
        <ele>-20000.0</ele>
        <time>2021-03-24T16:12:08Z</time>
      </trkpt>
      <trkpt lat="40.29263" lon="-3.7580981">
        <ele>-20000.0</ele>
        <time>2021-03-24T16:12:09Z</time>
      </trkpt>
      <trkpt lat="40.292633" lon="-3.7580981">
        <ele>-20000.0</ele>
        <time>2021-03-24T16:12:10Z</time>
      </trkpt>
      <trkpt lat="40.292633" lon="-3.7580981">
        <ele>-20000.0</ele>
        <time>2021-03-24T16:12:11Z</time>
      </trkpt>
      <trkpt lat="40.292637" lon="-3.7580981">
        <ele>-20000.0</ele>
        <time>2021-03-24T16:12:12Z</time>
      </trkpt>
      <trkpt lat="40.292637" lon="-3.7580976">
        <ele>-20000.0</ele>
        <time>2021-03-24T16:12:13Z</time>
      </trkpt>
      <trkpt lat="40.29264" lon="-3.7580972">
        <ele>656.68</ele>
        <time>2021-03-24T16:12:14Z</time>
      </trkpt>
      <trkpt lat="40.292645" lon="-3.7580962">
        <ele>656.68</ele>
        <time>2021-03-24T16:12:15Z</time>
      </trkpt>
      <trkpt lat="40.29265" lon="-3.7580953">
        <ele>656.68</ele>
        <time>2021-03-24T16:12:16Z</time>
      </trkpt>
      <trkpt lat="40.292652" lon="-3.7580943">
        <ele>656.68</ele>
        <time>2021-03-24T16:12:17Z</time>
      </trkpt>
      <trkpt lat="40.292652" lon="-3.7580934">
        <ele>656.68</ele>
        <time>2021-03-24T16:12:18Z</time>
      </trkpt>
      <trkpt lat="40.292664" lon="-3.75809">
        <ele>656.68</ele>
        <time>2021-03-24T16:12:20Z</time>
      </trkpt>
      <trkpt lat="40.292667" lon="-3.7580884">
        <ele>656.68</ele>
        <time>2021-03-24T16:12:26Z</time>
      </trkpt>
      <trkpt lat="40.29267" lon="-3.7580817">
        <ele>656.68</ele>
        <time>2021-03-24T16:12:32Z</time>
      </trkpt>
      <trkpt lat="40.292675" lon="-3.7580783">
        <ele>656.68</ele>
        <time>2021-03-24T16:12:34Z</time>
      </trkpt>
      <trkpt lat="40.292675" lon="-3.7580733">
        <ele>656.68</ele>
        <time>2021-03-24T16:12:36Z</time>
      </trkpt>
      <trkpt lat="40.29267" lon="-3.7580583">
        <ele>656.68</ele>
        <time>2021-03-24T16:12:52Z</time>
      </trkpt>
      <trkpt lat="40.29267" lon="-3.7580516">
        <ele>656.68</ele>
        <time>2021-03-24T16:12:53Z</time>
      </trkpt>
      <trkpt lat="40.29267" lon="-3.7580364">
        <ele>656.68</ele>
        <time>2021-03-24T16:12:54Z</time>
      </trkpt>
      <trkpt lat="40.29267" lon="-3.758016">
        <ele>656.68</ele>
        <time>2021-03-24T16:12:55Z</time>
      </trkpt>
      <trkpt lat="40.29267" lon="-3.7579894">
        <ele>656.68</ele>
        <time>2021-03-24T16:12:56Z</time>
      </trkpt>
      <trkpt lat="40.292675" lon="-3.7579293">
        <ele>656.68</ele>
        <time>2021-03-24T16:12:58Z</time>
      </trkpt>
      <trkpt lat="40.292686" lon="-3.757863">
        <ele>656.68</ele>
        <time>2021-03-24T16:13:00Z</time>
      </trkpt>
      <trkpt lat="40.292706" lon="-3.7577941">
        <ele>656.68</ele>
        <time>2021-03-24T16:13:02Z</time>
      </trkpt>
      <trkpt lat="40.29272" lon="-3.7577398">
        <ele>656.68</ele>
        <time>2021-03-24T16:13:04Z</time>
      </trkpt>
      <trkpt lat="40.292747" lon="-3.7576277">
        <ele>656.68</ele>
        <time>2021-03-24T16:13:10Z</time>
      </trkpt>
      <trkpt lat="40.29277" lon="-3.7575257">
        <ele>656.68</ele>
        <time>2021-03-24T16:13:13Z</time>
      </trkpt>
      <trkpt lat="40.29277" lon="-3.7574477">
        <ele>656.68</ele>
        <time>2021-03-24T16:13:15Z</time>
      </trkpt>
      <trkpt lat="40.29274" lon="-3.7573793">
        <ele>656.68</ele>
        <time>2021-03-24T16:13:17Z</time>
      </trkpt>
      <trkpt lat="40.292675" lon="-3.7573187">
        <ele>656.68</ele>
        <time>2021-03-24T16:13:19Z</time>
      </trkpt>
      <trkpt lat="40.292587" lon="-3.7572455">
        <ele>656.68</ele>
        <time>2021-03-24T16:13:21Z</time>
      </trkpt>
      <trkpt lat="40.29254" lon="-3.7572057">
        <ele>656.68</ele>
        <time>2021-03-24T16:13:22Z</time>
      </trkpt>
      <trkpt lat="40.292492" lon="-3.7571676">
        <ele>656.68</ele>
        <time>2021-03-24T16:13:23Z</time>
      </trkpt>
      <trkpt lat="40.29244" lon="-3.7571316">
        <ele>656.68</ele>
        <time>2021-03-24T16:13:24Z</time>
      </trkpt>
      <trkpt lat="40.292385" lon="-3.7570987">
        <ele>656.68</ele>
        <time>2021-03-24T16:13:25Z</time>
      </trkpt>
      <trkpt lat="40.292328" lon="-3.757067">
        <ele>656.68</ele>
        <time>2021-03-24T16:13:26Z</time>
      </trkpt>
      <trkpt lat="40.292267" lon="-3.7570353">
        <ele>656.68</ele>
        <time>2021-03-24T16:13:27Z</time>
      </trkpt>
      <trkpt lat="40.292202" lon="-3.7570047">
        <ele>656.68</ele>
        <time>2021-03-24T16:13:28Z</time>
      </trkpt>
      <trkpt lat="40.292137" lon="-3.7569754">
        <ele>655.4</ele>
        <time>2021-03-24T16:13:29Z</time>
      </trkpt>
      <trkpt lat="40.29207" lon="-3.7569456">
        <ele>655.4</ele>
        <time>2021-03-24T16:13:30Z</time>
      </trkpt>
      <trkpt lat="40.292004" lon="-3.756915">
        <ele>655.4</ele>
        <time>2021-03-24T16:13:31Z</time>
      </trkpt>
      <trkpt lat="40.29193" lon="-3.756884">
        <ele>655.4</ele>
        <time>2021-03-24T16:13:32Z</time>
      </trkpt>
      <trkpt lat="40.291862" lon="-3.7568524">
        <ele>655.4</ele>
        <time>2021-03-24T16:13:33Z</time>
      </trkpt>
      <trkpt lat="40.29179" lon="-3.7568197">
        <ele>654.13</ele>
        <time>2021-03-24T16:13:34Z</time>
      </trkpt>
      <trkpt lat="40.291714" lon="-3.7567866">
        <ele>654.13</ele>
        <time>2021-03-24T16:13:35Z</time>
      </trkpt>
      <trkpt lat="40.29164" lon="-3.7567527">
        <ele>654.13</ele>
        <time>2021-03-24T16:13:36Z</time>
      </trkpt>
      <trkpt lat="40.291565" lon="-3.7567184">
        <ele>654.13</ele>
        <time>2021-03-24T16:13:37Z</time>
      </trkpt>
      <trkpt lat="40.29149" lon="-3.756683">
        <ele>652.95</ele>
        <time>2021-03-24T16:13:38Z</time>
      </trkpt>
      <trkpt lat="40.291412" lon="-3.7566483">
        <ele>652.95</ele>
        <time>2021-03-24T16:13:39Z</time>
      </trkpt>
      <trkpt lat="40.291332" lon="-3.756613">
        <ele>652.95</ele>
        <time>2021-03-24T16:13:40Z</time>
      </trkpt>
      <trkpt lat="40.291256" lon="-3.7565784">
        <ele>652.95</ele>
        <time>2021-03-24T16:13:41Z</time>
      </trkpt>
      <trkpt lat="40.291183" lon="-3.756546">
        <ele>651.68</ele>
        <time>2021-03-24T16:13:42Z</time>
      </trkpt>
      <trkpt lat="40.29111" lon="-3.7565153">
        <ele>651.68</ele>
        <time>2021-03-24T16:13:43Z</time>
      </trkpt>
      <trkpt lat="40.291042" lon="-3.7564905">
        <ele>651.68</ele>
        <time>2021-03-24T16:13:44Z</time>
      </trkpt>
      <trkpt lat="40.290977" lon="-3.7564688">
        <ele>651.68</ele>
        <time>2021-03-24T16:13:45Z</time>
      </trkpt>
      <trkpt lat="40.290916" lon="-3.7564416">
        <ele>650.4</ele>
        <time>2021-03-24T16:13:46Z</time>
      </trkpt>
      <trkpt lat="40.290867" lon="-3.7564068">
        <ele>650.4</ele>
        <time>2021-03-24T16:13:47Z</time>
      </trkpt>
      <trkpt lat="40.29083" lon="-3.75636">
        <ele>650.4</ele>
        <time>2021-03-24T16:13:48Z</time>
      </trkpt>
      <trkpt lat="40.2908" lon="-3.7563028">
        <ele>650.4</ele>
        <time>2021-03-24T16:13:49Z</time>
      </trkpt>
      <trkpt lat="40.29078" lon="-3.756235">
        <ele>650.4</ele>
        <time>2021-03-24T16:13:50Z</time>
      </trkpt>
      <trkpt lat="40.290775" lon="-3.75616">
        <ele>650.4</ele>
        <time>2021-03-24T16:13:51Z</time>
      </trkpt>
      <trkpt lat="40.290775" lon="-3.7560806">
        <ele>649.13</ele>
        <time>2021-03-24T16:13:52Z</time>
      </trkpt>
      <trkpt lat="40.290783" lon="-3.7559984">
        <ele>649.13</ele>
        <time>2021-03-24T16:13:53Z</time>
      </trkpt>
      <trkpt lat="40.290794" lon="-3.755916">
        <ele>649.13</ele>
        <time>2021-03-24T16:13:54Z</time>
      </trkpt>
      <trkpt lat="40.29081" lon="-3.7558324">
        <ele>649.13</ele>
        <time>2021-03-24T16:13:55Z</time>
      </trkpt>
      <trkpt lat="40.29083" lon="-3.7557502">
        <ele>649.13</ele>
        <time>2021-03-24T16:13:56Z</time>
      </trkpt>
      <trkpt lat="40.290844" lon="-3.755669">
        <ele>649.13</ele>
        <time>2021-03-24T16:13:57Z</time>
      </trkpt>
      <trkpt lat="40.29086" lon="-3.7555897">
        <ele>649.13</ele>
        <time>2021-03-24T16:13:58Z</time>
      </trkpt>
      <trkpt lat="40.29088" lon="-3.7555137">
        <ele>649.13</ele>
        <time>2021-03-24T16:13:59Z</time>
      </trkpt>
      <trkpt lat="40.290894" lon="-3.7554457">
        <ele>649.13</ele>
        <time>2021-03-24T16:14:00Z</time>
      </trkpt>
      <trkpt lat="40.290905" lon="-3.7553873">
        <ele>649.13</ele>
        <time>2021-03-24T16:14:01Z</time>
      </trkpt>
      <trkpt lat="40.290913" lon="-3.7552996">
        <ele>649.13</ele>
        <time>2021-03-24T16:14:03Z</time>
      </trkpt>
      <trkpt lat="40.290897" lon="-3.7552493">
        <ele>649.13</ele>
        <time>2021-03-24T16:14:05Z</time>
      </trkpt>
      <trkpt lat="40.29083" lon="-3.755197">
        <ele>649.13</ele>
        <time>2021-03-24T16:14:08Z</time>
      </trkpt>
      <trkpt lat="40.290745" lon="-3.7551568">
        <ele>649.13</ele>
        <time>2021-03-24T16:14:10Z</time>
      </trkpt>
      <trkpt lat="40.29064" lon="-3.7551107">
        <ele>647.95</ele>
        <time>2021-03-24T16:14:12Z</time>
      </trkpt>
      <trkpt lat="40.29059" lon="-3.7550862">
        <ele>647.95</ele>
        <time>2021-03-24T16:14:13Z</time>
      </trkpt>
      <trkpt lat="40.290527" lon="-3.7550604">
        <ele>647.95</ele>
        <time>2021-03-24T16:14:14Z</time>
      </trkpt>
      <trkpt lat="40.29047" lon="-3.755033">
        <ele>647.95</ele>
        <time>2021-03-24T16:14:15Z</time>
      </trkpt>
      <trkpt lat="40.29041" lon="-3.755003">
        <ele>647.95</ele>
        <time>2021-03-24T16:14:16Z</time>
      </trkpt>
      <trkpt lat="40.290348" lon="-3.7549713">
        <ele>647.95</ele>
        <time>2021-03-24T16:14:17Z</time>
      </trkpt>
      <trkpt lat="40.290287" lon="-3.754938">
        <ele>647.95</ele>
        <time>2021-03-24T16:14:18Z</time>
      </trkpt>
      <trkpt lat="40.290222" lon="-3.7549026">
        <ele>646.68</ele>
        <time>2021-03-24T16:14:19Z</time>
      </trkpt>
      <trkpt lat="40.29016" lon="-3.754864">
        <ele>646.68</ele>
        <time>2021-03-24T16:14:20Z</time>
      </trkpt>
      <trkpt lat="40.2901" lon="-3.7548227">
        <ele>646.68</ele>
        <time>2021-03-24T16:14:21Z</time>
      </trkpt>
      <trkpt lat="40.29004" lon="-3.7547808">
        <ele>646.68</ele>
        <time>2021-03-24T16:14:22Z</time>
      </trkpt>
      <trkpt lat="40.28998" lon="-3.7547374">
        <ele>646.68</ele>
        <time>2021-03-24T16:14:23Z</time>
      </trkpt>
      <trkpt lat="40.28993" lon="-3.75469">
        <ele>645.4</ele>
        <time>2021-03-24T16:14:24Z</time>
      </trkpt>
      <trkpt lat="40.289883" lon="-3.754637">
        <ele>645.4</ele>
        <time>2021-03-24T16:14:25Z</time>
      </trkpt>
      <trkpt lat="40.28985" lon="-3.7545803">
        <ele>645.4</ele>
        <time>2021-03-24T16:14:26Z</time>
      </trkpt>
      <trkpt lat="40.28982" lon="-3.7545197">
        <ele>645.4</ele>
        <time>2021-03-24T16:14:27Z</time>
      </trkpt>
      <trkpt lat="40.289803" lon="-3.754458">
        <ele>644.13</ele>
        <time>2021-03-24T16:14:28Z</time>
      </trkpt>
      <trkpt lat="40.289795" lon="-3.7543297">
        <ele>644.13</ele>
        <time>2021-03-24T16:14:30Z</time>
      </trkpt>
      <trkpt lat="40.28981" lon="-3.754265">
        <ele>644.13</ele>
        <time>2021-03-24T16:14:31Z</time>
      </trkpt>
      <trkpt lat="40.289867" lon="-3.754142">
        <ele>644.13</ele>
        <time>2021-03-24T16:14:33Z</time>
      </trkpt>
      <trkpt lat="40.28991" lon="-3.7540824">
        <ele>644.13</ele>
        <time>2021-03-24T16:14:34Z</time>
      </trkpt>
      <trkpt lat="40.289955" lon="-3.7540228">
        <ele>642.86</ele>
        <time>2021-03-24T16:14:35Z</time>
      </trkpt>
      <trkpt lat="40.290005" lon="-3.7539618">
        <ele>642.86</ele>
        <time>2021-03-24T16:14:36Z</time>
      </trkpt>
      <trkpt lat="40.290054" lon="-3.753901">
        <ele>642.86</ele>
        <time>2021-03-24T16:14:37Z</time>
      </trkpt>
      <trkpt lat="40.290108" lon="-3.75384">
        <ele>642.86</ele>
        <time>2021-03-24T16:14:38Z</time>
      </trkpt>
      <trkpt lat="40.29016" lon="-3.7537785">
        <ele>642.86</ele>
        <time>2021-03-24T16:14:39Z</time>
      </trkpt>
      <trkpt lat="40.290215" lon="-3.7537184">
        <ele>642.86</ele>
        <time>2021-03-24T16:14:40Z</time>
      </trkpt>
      <trkpt lat="40.290268" lon="-3.7536576">
        <ele>642.86</ele>
        <time>2021-03-24T16:14:41Z</time>
      </trkpt>
      <trkpt lat="40.29032" lon="-3.7535968">
        <ele>642.86</ele>
        <time>2021-03-24T16:14:42Z</time>
      </trkpt>
      <trkpt lat="40.29038" lon="-3.7535353">
        <ele>642.86</ele>
        <time>2021-03-24T16:14:43Z</time>
      </trkpt>
      <trkpt lat="40.290436" lon="-3.7534733">
        <ele>642.86</ele>
        <time>2021-03-24T16:14:44Z</time>
      </trkpt>
      <trkpt lat="40.290493" lon="-3.7534103">
        <ele>641.68</ele>
        <time>2021-03-24T16:14:45Z</time>
      </trkpt>
      <trkpt lat="40.290554" lon="-3.753346">
        <ele>641.68</ele>
        <time>2021-03-24T16:14:46Z</time>
      </trkpt>
      <trkpt lat="40.290615" lon="-3.7532809">
        <ele>641.68</ele>
        <time>2021-03-24T16:14:47Z</time>
      </trkpt>
      <trkpt lat="40.290672" lon="-3.7532163">
        <ele>641.68</ele>
        <time>2021-03-24T16:14:48Z</time>
      </trkpt>
      <trkpt lat="40.290733" lon="-3.7531524">
        <ele>641.68</ele>
        <time>2021-03-24T16:14:49Z</time>
      </trkpt>
      <trkpt lat="40.290787" lon="-3.7530897">
        <ele>641.68</ele>
        <time>2021-03-24T16:14:50Z</time>
      </trkpt>
      <trkpt lat="40.290836" lon="-3.753029">
        <ele>641.68</ele>
        <time>2021-03-24T16:14:51Z</time>
      </trkpt>
      <trkpt lat="40.290874" lon="-3.7529693">
        <ele>641.68</ele>
        <time>2021-03-24T16:14:52Z</time>
      </trkpt>
      <trkpt lat="40.2909" lon="-3.7529094">
        <ele>641.68</ele>
        <time>2021-03-24T16:14:53Z</time>
      </trkpt>
      <trkpt lat="40.290916" lon="-3.7528493">
        <ele>641.68</ele>
        <time>2021-03-24T16:14:54Z</time>
      </trkpt>
      <trkpt lat="40.2909" lon="-3.7526674">
        <ele>641.68</ele>
        <time>2021-03-24T16:14:57Z</time>
      </trkpt>
      <trkpt lat="40.29087" lon="-3.7526026">
        <ele>641.68</ele>
        <time>2021-03-24T16:14:58Z</time>
      </trkpt>
      <trkpt lat="40.290833" lon="-3.7525346">
        <ele>641.68</ele>
        <time>2021-03-24T16:14:59Z</time>
      </trkpt>
      <trkpt lat="40.29079" lon="-3.752463">
        <ele>641.68</ele>
        <time>2021-03-24T16:15:00Z</time>
      </trkpt>
      <trkpt lat="40.290745" lon="-3.7523882">
        <ele>641.68</ele>
        <time>2021-03-24T16:15:01Z</time>
      </trkpt>
      <trkpt lat="40.29069" lon="-3.752311">
        <ele>641.68</ele>
        <time>2021-03-24T16:15:02Z</time>
      </trkpt>
      <trkpt lat="40.290638" lon="-3.752232">
        <ele>641.68</ele>
        <time>2021-03-24T16:15:03Z</time>
      </trkpt>
      <trkpt lat="40.29058" lon="-3.7521503">
        <ele>641.68</ele>
        <time>2021-03-24T16:15:04Z</time>
      </trkpt>
      <trkpt lat="40.290524" lon="-3.752067">
        <ele>640.31</ele>
        <time>2021-03-24T16:15:05Z</time>
      </trkpt>
      <trkpt lat="40.290462" lon="-3.7519825">
        <ele>640.31</ele>
        <time>2021-03-24T16:15:06Z</time>
      </trkpt>
      <trkpt lat="40.29034" lon="-3.751815">
        <ele>640.31</ele>
        <time>2021-03-24T16:15:08Z</time>
      </trkpt>
      <trkpt lat="40.29028" lon="-3.7517254">
        <ele>640.31</ele>
        <time>2021-03-24T16:15:09Z</time>
      </trkpt>
      <trkpt lat="40.290215" lon="-3.7516341">
        <ele>640.31</ele>
        <time>2021-03-24T16:15:10Z</time>
      </trkpt>
      <trkpt lat="40.290154" lon="-3.7515433">
        <ele>640.31</ele>
        <time>2021-03-24T16:15:11Z</time>
      </trkpt>
      <trkpt lat="40.29009" lon="-3.7514524">
        <ele>639.04</ele>
        <time>2021-03-24T16:15:12Z</time>
      </trkpt>
      <trkpt lat="40.290028" lon="-3.7513623">
        <ele>639.04</ele>
        <time>2021-03-24T16:15:13Z</time>
      </trkpt>
      <trkpt lat="40.289963" lon="-3.7512717">
        <ele>639.04</ele>
        <time>2021-03-24T16:15:14Z</time>
      </trkpt>
      <trkpt lat="40.2899" lon="-3.751182">
        <ele>639.04</ele>
        <time>2021-03-24T16:15:15Z</time>
      </trkpt>
      <trkpt lat="40.289837" lon="-3.751092">
        <ele>639.04</ele>
        <time>2021-03-24T16:15:16Z</time>
      </trkpt>
      <trkpt lat="40.289776" lon="-3.7510014">
        <ele>639.04</ele>
        <time>2021-03-24T16:15:17Z</time>
      </trkpt>
      <trkpt lat="40.28971" lon="-3.7509108">
        <ele>639.04</ele>
        <time>2021-03-24T16:15:18Z</time>
      </trkpt>
      <trkpt lat="40.289654" lon="-3.7508264">
        <ele>637.86</ele>
        <time>2021-03-24T16:15:19Z</time>
      </trkpt>
      <trkpt lat="40.289593" lon="-3.750734">
        <ele>637.86</ele>
        <time>2021-03-24T16:15:20Z</time>
      </trkpt>
      <trkpt lat="40.289528" lon="-3.7506437">
        <ele>637.86</ele>
        <time>2021-03-24T16:15:21Z</time>
      </trkpt>
      <trkpt lat="40.289467" lon="-3.7505548">
        <ele>637.86</ele>
        <time>2021-03-24T16:15:22Z</time>
      </trkpt>
      <trkpt lat="40.289406" lon="-3.7504673">
        <ele>637.86</ele>
        <time>2021-03-24T16:15:23Z</time>
      </trkpt>
      <trkpt lat="40.289345" lon="-3.7503803">
        <ele>637.86</ele>
        <time>2021-03-24T16:15:24Z</time>
      </trkpt>
      <trkpt lat="40.28929" lon="-3.750299">
        <ele>637.86</ele>
        <time>2021-03-24T16:15:25Z</time>
      </trkpt>
      <trkpt lat="40.289234" lon="-3.7502124">
        <ele>636.68</ele>
        <time>2021-03-24T16:15:26Z</time>
      </trkpt>
      <trkpt lat="40.289177" lon="-3.750129">
        <ele>636.68</ele>
        <time>2021-03-24T16:15:27Z</time>
      </trkpt>
      <trkpt lat="40.289124" lon="-3.7500508">
        <ele>636.68</ele>
        <time>2021-03-24T16:15:28Z</time>
      </trkpt>
      <trkpt lat="40.289074" lon="-3.749983">
        <ele>636.68</ele>
        <time>2021-03-24T16:15:29Z</time>
      </trkpt>
      <trkpt lat="40.28903" lon="-3.749919">
        <ele>636.68</ele>
        <time>2021-03-24T16:15:30Z</time>
      </trkpt>
      <trkpt lat="40.288986" lon="-3.7498562">
        <ele>636.68</ele>
        <time>2021-03-24T16:15:31Z</time>
      </trkpt>
      <trkpt lat="40.288944" lon="-3.7498016">
        <ele>635.49</ele>
        <time>2021-03-24T16:15:32Z</time>
      </trkpt>
      <trkpt lat="40.28891" lon="-3.7497556">
        <ele>635.49</ele>
        <time>2021-03-24T16:15:33Z</time>
      </trkpt>
      <trkpt lat="40.288883" lon="-3.7497187">
        <ele>635.49</ele>
        <time>2021-03-24T16:15:34Z</time>
      </trkpt>
      <trkpt lat="40.288837" lon="-3.7496643">
        <ele>635.49</ele>
        <time>2021-03-24T16:15:36Z</time>
      </trkpt>
      <trkpt lat="40.28879" lon="-3.7496097">
        <ele>634.22</ele>
        <time>2021-03-24T16:15:39Z</time>
      </trkpt>
      <trkpt lat="40.28869" lon="-3.7495153">
        <ele>636.92</ele>
        <time>2021-03-24T16:16:04Z</time>
      </trkpt>
      <trkpt lat="40.288597" lon="-3.7494535">
        <ele>636.92</ele>
        <time>2021-03-24T16:16:07Z</time>
      </trkpt>
      <trkpt lat="40.288525" lon="-3.7493703">
        <ele>636.92</ele>
        <time>2021-03-24T16:16:09Z</time>
      </trkpt>
      <trkpt lat="40.28849" lon="-3.7493114">
        <ele>636.92</ele>
        <time>2021-03-24T16:16:10Z</time>
      </trkpt>
      <trkpt lat="40.288464" lon="-3.7492464">
        <ele>636.92</ele>
        <time>2021-03-24T16:16:11Z</time>
      </trkpt>
      <trkpt lat="40.28844" lon="-3.7491674">
        <ele>636.92</ele>
        <time>2021-03-24T16:16:12Z</time>
      </trkpt>
      <trkpt lat="40.28841" lon="-3.7490838">
        <ele>636.92</ele>
        <time>2021-03-24T16:16:13Z</time>
      </trkpt>
      <trkpt lat="40.28838" lon="-3.7489984">
        <ele>636.92</ele>
        <time>2021-03-24T16:16:14Z</time>
      </trkpt>
      <trkpt lat="40.28834" lon="-3.7489126">
        <ele>636.92</ele>
        <time>2021-03-24T16:16:15Z</time>
      </trkpt>
      <trkpt lat="40.2883" lon="-3.748827">
        <ele>636.92</ele>
        <time>2021-03-24T16:16:16Z</time>
      </trkpt>
      <trkpt lat="40.288254" lon="-3.7487462">
        <ele>636.92</ele>
        <time>2021-03-24T16:16:17Z</time>
      </trkpt>
      <trkpt lat="40.2882" lon="-3.748657">
        <ele>636.92</ele>
        <time>2021-03-24T16:16:18Z</time>
      </trkpt>
      <trkpt lat="40.288147" lon="-3.7485676">
        <ele>636.92</ele>
        <time>2021-03-24T16:16:19Z</time>
      </trkpt>
      <trkpt lat="40.288094" lon="-3.7484787">
        <ele>636.92</ele>
        <time>2021-03-24T16:16:20Z</time>
      </trkpt>
      <trkpt lat="40.288036" lon="-3.748389">
        <ele>636.92</ele>
        <time>2021-03-24T16:16:21Z</time>
      </trkpt>
      <trkpt lat="40.28798" lon="-3.7483">
        <ele>636.92</ele>
        <time>2021-03-24T16:16:22Z</time>
      </trkpt>
      <trkpt lat="40.28792" lon="-3.7482097">
        <ele>636.92</ele>
        <time>2021-03-24T16:16:23Z</time>
      </trkpt>
      <trkpt lat="40.287865" lon="-3.7481182">
        <ele>636.92</ele>
        <time>2021-03-24T16:16:24Z</time>
      </trkpt>
      <trkpt lat="40.287807" lon="-3.7480247">
        <ele>636.92</ele>
        <time>2021-03-24T16:16:25Z</time>
      </trkpt>
      <trkpt lat="40.28775" lon="-3.7479312">
        <ele>636.92</ele>
        <time>2021-03-24T16:16:26Z</time>
      </trkpt>
      <trkpt lat="40.28769" lon="-3.7478375">
        <ele>636.92</ele>
        <time>2021-03-24T16:16:27Z</time>
      </trkpt>
      <trkpt lat="40.287632" lon="-3.7477436">
        <ele>635.74</ele>
        <time>2021-03-24T16:16:28Z</time>
      </trkpt>
      <trkpt lat="40.287575" lon="-3.7476492">
        <ele>635.74</ele>
        <time>2021-03-24T16:16:29Z</time>
      </trkpt>
      <trkpt lat="40.287518" lon="-3.7475543">
        <ele>635.74</ele>
        <time>2021-03-24T16:16:30Z</time>
      </trkpt>
      <trkpt lat="40.287457" lon="-3.747459">
        <ele>635.74</ele>
        <time>2021-03-24T16:16:31Z</time>
      </trkpt>
      <trkpt lat="40.287403" lon="-3.7473636">
        <ele>635.74</ele>
        <time>2021-03-24T16:16:32Z</time>
      </trkpt>
      <trkpt lat="40.287346" lon="-3.7472684">
        <ele>635.74</ele>
        <time>2021-03-24T16:16:33Z</time>
      </trkpt>
      <trkpt lat="40.28729" lon="-3.7471735">
        <ele>634.56</ele>
        <time>2021-03-24T16:16:34Z</time>
      </trkpt>
      <trkpt lat="40.28723" lon="-3.7470791">
        <ele>634.56</ele>
        <time>2021-03-24T16:16:35Z</time>
      </trkpt>
      <trkpt lat="40.287174" lon="-3.7469842">
        <ele>634.56</ele>
        <time>2021-03-24T16:16:36Z</time>
      </trkpt>
      <trkpt lat="40.28712" lon="-3.7468894">
        <ele>634.56</ele>
        <time>2021-03-24T16:16:37Z</time>
      </trkpt>
      <trkpt lat="40.287067" lon="-3.7467954">
        <ele>634.56</ele>
        <time>2021-03-24T16:16:38Z</time>
      </trkpt>
      <trkpt lat="40.28701" lon="-3.7467024">
        <ele>634.56</ele>
        <time>2021-03-24T16:16:39Z</time>
      </trkpt>
      <trkpt lat="40.286957" lon="-3.7466097">
        <ele>634.56</ele>
        <time>2021-03-24T16:16:40Z</time>
      </trkpt>
      <trkpt lat="40.2869" lon="-3.7465184">
        <ele>634.56</ele>
        <time>2021-03-24T16:16:41Z</time>
      </trkpt>
      <trkpt lat="40.286842" lon="-3.7464273">
        <ele>634.56</ele>
        <time>2021-03-24T16:16:42Z</time>
      </trkpt>
      <trkpt lat="40.28679" lon="-3.7463362">
        <ele>634.56</ele>
        <time>2021-03-24T16:16:43Z</time>
      </trkpt>
      <trkpt lat="40.28673" lon="-3.746245">
        <ele>634.56</ele>
        <time>2021-03-24T16:16:44Z</time>
      </trkpt>
      <trkpt lat="40.28668" lon="-3.7461548">
        <ele>633.38</ele>
        <time>2021-03-24T16:16:45Z</time>
      </trkpt>
      <trkpt lat="40.286625" lon="-3.746065">
        <ele>633.38</ele>
        <time>2021-03-24T16:16:46Z</time>
      </trkpt>
      <trkpt lat="40.28657" lon="-3.745977">
        <ele>633.38</ele>
        <time>2021-03-24T16:16:47Z</time>
      </trkpt>
      <trkpt lat="40.28652" lon="-3.74589">
        <ele>633.38</ele>
        <time>2021-03-24T16:16:48Z</time>
      </trkpt>
      <trkpt lat="40.286465" lon="-3.745803">
        <ele>633.38</ele>
        <time>2021-03-24T16:16:49Z</time>
      </trkpt>
      <trkpt lat="40.28641" lon="-3.7457178">
        <ele>633.38</ele>
        <time>2021-03-24T16:16:50Z</time>
      </trkpt>
      <trkpt lat="40.286358" lon="-3.7456348">
        <ele>633.38</ele>
        <time>2021-03-24T16:16:51Z</time>
      </trkpt>
      <trkpt lat="40.286304" lon="-3.745553">
        <ele>633.38</ele>
        <time>2021-03-24T16:16:52Z</time>
      </trkpt>
      <trkpt lat="40.286255" lon="-3.745472">
        <ele>633.38</ele>
        <time>2021-03-24T16:16:53Z</time>
      </trkpt>
      <trkpt lat="40.286205" lon="-3.7453933">
        <ele>633.38</ele>
        <time>2021-03-24T16:16:54Z</time>
      </trkpt>
      <trkpt lat="40.286156" lon="-3.7453156">
        <ele>633.38</ele>
        <time>2021-03-24T16:16:55Z</time>
      </trkpt>
      <trkpt lat="40.286106" lon="-3.7452388">
        <ele>633.38</ele>
        <time>2021-03-24T16:16:56Z</time>
      </trkpt>
      <trkpt lat="40.28606" lon="-3.745163">
        <ele>634.65</ele>
        <time>2021-03-24T16:16:57Z</time>
      </trkpt>
      <trkpt lat="40.28601" lon="-3.7450871">
        <ele>634.65</ele>
        <time>2021-03-24T16:16:58Z</time>
      </trkpt>
      <trkpt lat="40.285965" lon="-3.745012">
        <ele>634.65</ele>
        <time>2021-03-24T16:16:59Z</time>
      </trkpt>
      <trkpt lat="40.28592" lon="-3.7449381">
        <ele>634.65</ele>
        <time>2021-03-24T16:17:00Z</time>
      </trkpt>
      <trkpt lat="40.285873" lon="-3.7448642">
        <ele>634.65</ele>
        <time>2021-03-24T16:17:01Z</time>
      </trkpt>
      <trkpt lat="40.285828" lon="-3.7447903">
        <ele>634.65</ele>
        <time>2021-03-24T16:17:02Z</time>
      </trkpt>
      <trkpt lat="40.285778" lon="-3.7447164">
        <ele>635.92</ele>
        <time>2021-03-24T16:17:03Z</time>
      </trkpt>
      <trkpt lat="40.285732" lon="-3.744642">
        <ele>635.92</ele>
        <time>2021-03-24T16:17:04Z</time>
      </trkpt>
      <trkpt lat="40.28569" lon="-3.7445667">
        <ele>635.92</ele>
        <time>2021-03-24T16:17:05Z</time>
      </trkpt>
      <trkpt lat="40.285645" lon="-3.7444916">
        <ele>635.92</ele>
        <time>2021-03-24T16:17:06Z</time>
      </trkpt>
      <trkpt lat="40.2856" lon="-3.7444172">
        <ele>635.92</ele>
        <time>2021-03-24T16:17:07Z</time>
      </trkpt>
      <trkpt lat="40.285553" lon="-3.7443419">
        <ele>635.92</ele>
        <time>2021-03-24T16:17:08Z</time>
      </trkpt>
      <trkpt lat="40.285507" lon="-3.7442646">
        <ele>635.92</ele>
        <time>2021-03-24T16:17:09Z</time>
      </trkpt>
      <trkpt lat="40.28546" lon="-3.7441857">
        <ele>635.92</ele>
        <time>2021-03-24T16:17:10Z</time>
      </trkpt>
      <trkpt lat="40.285416" lon="-3.7441049">
        <ele>635.92</ele>
        <time>2021-03-24T16:17:11Z</time>
      </trkpt>
      <trkpt lat="40.28537" lon="-3.744023">
        <ele>635.92</ele>
        <time>2021-03-24T16:17:12Z</time>
      </trkpt>
      <trkpt lat="40.28532" lon="-3.7439384">
        <ele>635.92</ele>
        <time>2021-03-24T16:17:13Z</time>
      </trkpt>
      <trkpt lat="40.285267" lon="-3.7438533">
        <ele>635.92</ele>
        <time>2021-03-24T16:17:14Z</time>
      </trkpt>
      <trkpt lat="40.285213" lon="-3.7437654">
        <ele>635.92</ele>
        <time>2021-03-24T16:17:15Z</time>
      </trkpt>
      <trkpt lat="40.28516" lon="-3.743676">
        <ele>635.92</ele>
        <time>2021-03-24T16:17:16Z</time>
      </trkpt>
      <trkpt lat="40.285103" lon="-3.7435834">
        <ele>635.92</ele>
        <time>2021-03-24T16:17:17Z</time>
      </trkpt>
      <trkpt lat="40.284985" lon="-3.7433927">
        <ele>635.92</ele>
        <time>2021-03-24T16:17:19Z</time>
      </trkpt>
      <trkpt lat="40.284924" lon="-3.7432966">
        <ele>634.56</ele>
        <time>2021-03-24T16:17:20Z</time>
      </trkpt>
      <trkpt lat="40.284863" lon="-3.743201">
        <ele>634.56</ele>
        <time>2021-03-24T16:17:21Z</time>
      </trkpt>
      <trkpt lat="40.28473" lon="-3.7430143">
        <ele>634.56</ele>
        <time>2021-03-24T16:17:23Z</time>
      </trkpt>
      <trkpt lat="40.28466" lon="-3.7429237">
        <ele>633.29</ele>
        <time>2021-03-24T16:17:24Z</time>
      </trkpt>
      <trkpt lat="40.284588" lon="-3.7428358">
        <ele>633.29</ele>
        <time>2021-03-24T16:17:25Z</time>
      </trkpt>
      <trkpt lat="40.28451" lon="-3.7427504">
        <ele>633.29</ele>
        <time>2021-03-24T16:17:26Z</time>
      </trkpt>
      <trkpt lat="40.284435" lon="-3.742666">
        <ele>632.1</ele>
        <time>2021-03-24T16:17:27Z</time>
      </trkpt>
      <trkpt lat="40.28436" lon="-3.742581">
        <ele>632.1</ele>
        <time>2021-03-24T16:17:28Z</time>
      </trkpt>
      <trkpt lat="40.284283" lon="-3.742496">
        <ele>632.1</ele>
        <time>2021-03-24T16:17:29Z</time>
      </trkpt>
      <trkpt lat="40.284203" lon="-3.7424107">
        <ele>630.83</ele>
        <time>2021-03-24T16:17:30Z</time>
      </trkpt>
      <trkpt lat="40.284126" lon="-3.7423236">
        <ele>630.83</ele>
        <time>2021-03-24T16:17:31Z</time>
      </trkpt>
      <trkpt lat="40.28405" lon="-3.7422373">
        <ele>630.83</ele>
        <time>2021-03-24T16:17:32Z</time>
      </trkpt>
      <trkpt lat="40.283974" lon="-3.742153">
        <ele>630.83</ele>
        <time>2021-03-24T16:17:33Z</time>
      </trkpt>
      <trkpt lat="40.283897" lon="-3.7420702">
        <ele>629.56</ele>
        <time>2021-03-24T16:17:34Z</time>
      </trkpt>
      <trkpt lat="40.28382" lon="-3.741988">
        <ele>629.56</ele>
        <time>2021-03-24T16:17:35Z</time>
      </trkpt>
      <trkpt lat="40.283745" lon="-3.7419066">
        <ele>629.56</ele>
        <time>2021-03-24T16:17:36Z</time>
      </trkpt>
      <trkpt lat="40.28367" lon="-3.7418263">
        <ele>629.56</ele>
        <time>2021-03-24T16:17:37Z</time>
      </trkpt>
      <trkpt lat="40.283596" lon="-3.7417452">
        <ele>628.19</ele>
        <time>2021-03-24T16:17:38Z</time>
      </trkpt>
      <trkpt lat="40.283524" lon="-3.7416644">
        <ele>628.19</ele>
        <time>2021-03-24T16:17:39Z</time>
      </trkpt>
      <trkpt lat="40.28345" lon="-3.7415826">
        <ele>628.19</ele>
        <time>2021-03-24T16:17:40Z</time>
      </trkpt>
      <trkpt lat="40.283382" lon="-3.741499">
        <ele>628.19</ele>
        <time>2021-03-24T16:17:41Z</time>
      </trkpt>
      <trkpt lat="40.283314" lon="-3.741414">
        <ele>628.19</ele>
        <time>2021-03-24T16:17:42Z</time>
      </trkpt>
      <trkpt lat="40.283245" lon="-3.7413297">
        <ele>628.19</ele>
        <time>2021-03-24T16:17:43Z</time>
      </trkpt>
      <trkpt lat="40.283173" lon="-3.7412467">
        <ele>626.92</ele>
        <time>2021-03-24T16:17:44Z</time>
      </trkpt>
      <trkpt lat="40.283104" lon="-3.7411659">
        <ele>626.92</ele>
        <time>2021-03-24T16:17:45Z</time>
      </trkpt>
      <trkpt lat="40.28303" lon="-3.7410874">
        <ele>626.92</ele>
        <time>2021-03-24T16:17:46Z</time>
      </trkpt>
      <trkpt lat="40.282955" lon="-3.7410116">
        <ele>626.92</ele>
        <time>2021-03-24T16:17:47Z</time>
      </trkpt>
      <trkpt lat="40.28288" lon="-3.7409387">
        <ele>626.92</ele>
        <time>2021-03-24T16:17:48Z</time>
      </trkpt>
      <trkpt lat="40.282803" lon="-3.7408667">
        <ele>626.92</ele>
        <time>2021-03-24T16:17:49Z</time>
      </trkpt>
      <trkpt lat="40.282726" lon="-3.7407956">
        <ele>626.92</ele>
        <time>2021-03-24T16:17:50Z</time>
      </trkpt>
      <trkpt lat="40.28265" lon="-3.740726">
        <ele>628.92</ele>
        <time>2021-03-24T16:17:51Z</time>
      </trkpt>
      <trkpt lat="40.282574" lon="-3.7406566">
        <ele>628.92</ele>
        <time>2021-03-24T16:17:52Z</time>
      </trkpt>
      <trkpt lat="40.282497" lon="-3.7405884">
        <ele>628.92</ele>
        <time>2021-03-24T16:17:53Z</time>
      </trkpt>
      <trkpt lat="40.28242" lon="-3.740521">
        <ele>628.92</ele>
        <time>2021-03-24T16:17:54Z</time>
      </trkpt>
      <trkpt lat="40.28235" lon="-3.7404542">
        <ele>628.92</ele>
        <time>2021-03-24T16:17:55Z</time>
      </trkpt>
      <trkpt lat="40.282276" lon="-3.7403874">
        <ele>628.92</ele>
        <time>2021-03-24T16:17:56Z</time>
      </trkpt>
      <trkpt lat="40.282204" lon="-3.7403216">
        <ele>628.92</ele>
        <time>2021-03-24T16:17:57Z</time>
      </trkpt>
      <trkpt lat="40.28213" lon="-3.740257">
        <ele>628.92</ele>
        <time>2021-03-24T16:17:58Z</time>
      </trkpt>
      <trkpt lat="40.28206" lon="-3.740193">
        <ele>628.92</ele>
        <time>2021-03-24T16:17:59Z</time>
      </trkpt>
      <trkpt lat="40.281845" lon="-3.7400017">
        <ele>627.74</ele>
        <time>2021-03-24T16:18:00Z</time>
      </trkpt>
      <trkpt lat="40.281826" lon="-3.7399867">
        <ele>627.74</ele>
        <time>2021-03-24T16:18:01Z</time>
      </trkpt>
      <trkpt lat="40.281742" lon="-3.7399118">
        <ele>627.74</ele>
        <time>2021-03-24T16:18:03Z</time>
      </trkpt>
      <trkpt lat="40.28169" lon="-3.7398596">
        <ele>627.74</ele>
        <time>2021-03-24T16:18:04Z</time>
      </trkpt>
      <trkpt lat="40.28163" lon="-3.7398007">
        <ele>627.74</ele>
        <time>2021-03-24T16:18:05Z</time>
      </trkpt>
      <trkpt lat="40.28157" lon="-3.7397354">
        <ele>627.74</ele>
        <time>2021-03-24T16:18:06Z</time>
      </trkpt>
      <trkpt lat="40.281517" lon="-3.7396643">
        <ele>627.74</ele>
        <time>2021-03-24T16:18:07Z</time>
      </trkpt>
      <trkpt lat="40.28146" lon="-3.7395864">
        <ele>627.74</ele>
        <time>2021-03-24T16:18:08Z</time>
      </trkpt>
      <trkpt lat="40.281406" lon="-3.7395024">
        <ele>626.56</ele>
        <time>2021-03-24T16:18:09Z</time>
      </trkpt>
      <trkpt lat="40.28136" lon="-3.739412">
        <ele>626.56</ele>
        <time>2021-03-24T16:18:10Z</time>
      </trkpt>
      <trkpt lat="40.281315" lon="-3.7393157">
        <ele>626.56</ele>
        <time>2021-03-24T16:18:11Z</time>
      </trkpt>
      <trkpt lat="40.28128" lon="-3.7392132">
        <ele>626.56</ele>
        <time>2021-03-24T16:18:12Z</time>
      </trkpt>
      <trkpt lat="40.281246" lon="-3.7391047">
        <ele>626.56</ele>
        <time>2021-03-24T16:18:13Z</time>
      </trkpt>
      <trkpt lat="40.281223" lon="-3.738991">
        <ele>626.56</ele>
        <time>2021-03-24T16:18:14Z</time>
      </trkpt>
      <trkpt lat="40.281204" lon="-3.738871">
        <ele>625.19</ele>
        <time>2021-03-24T16:18:15Z</time>
      </trkpt>
      <trkpt lat="40.28119" lon="-3.738745">
        <ele>625.19</ele>
        <time>2021-03-24T16:18:16Z</time>
      </trkpt>
      <trkpt lat="40.281174" lon="-3.738613">
        <ele>623.92</ele>
        <time>2021-03-24T16:18:17Z</time>
      </trkpt>
      <trkpt lat="40.281162" lon="-3.7384763">
        <ele>623.92</ele>
        <time>2021-03-24T16:18:18Z</time>
      </trkpt>
      <trkpt lat="40.28115" lon="-3.7383356">
        <ele>622.38</ele>
        <time>2021-03-24T16:18:19Z</time>
      </trkpt>
      <trkpt lat="40.281143" lon="-3.738195">
        <ele>622.38</ele>
        <time>2021-03-24T16:18:20Z</time>
      </trkpt>
      <trkpt lat="40.28113" lon="-3.738055">
        <ele>622.38</ele>
        <time>2021-03-24T16:18:21Z</time>
      </trkpt>
      <trkpt lat="40.28112" lon="-3.7379158">
        <ele>621.1</ele>
        <time>2021-03-24T16:18:22Z</time>
      </trkpt>
      <trkpt lat="40.281113" lon="-3.7377806">
        <ele>621.1</ele>
        <time>2021-03-24T16:18:23Z</time>
      </trkpt>
      <trkpt lat="40.281105" lon="-3.7376497">
        <ele>621.1</ele>
        <time>2021-03-24T16:18:24Z</time>
      </trkpt>
      <trkpt lat="40.281097" lon="-3.7375216">
        <ele>621.1</ele>
        <time>2021-03-24T16:18:25Z</time>
      </trkpt>
      <trkpt lat="40.281086" lon="-3.7373977">
        <ele>621.1</ele>
        <time>2021-03-24T16:18:26Z</time>
      </trkpt>
      <trkpt lat="40.28108" lon="-3.737278">
        <ele>621.1</ele>
        <time>2021-03-24T16:18:27Z</time>
      </trkpt>
      <trkpt lat="40.28107" lon="-3.7371638">
        <ele>621.1</ele>
        <time>2021-03-24T16:18:28Z</time>
      </trkpt>
      <trkpt lat="40.281063" lon="-3.7370524">
        <ele>622.65</ele>
        <time>2021-03-24T16:18:29Z</time>
      </trkpt>
      <trkpt lat="40.281055" lon="-3.736945">
        <ele>622.65</ele>
        <time>2021-03-24T16:18:30Z</time>
      </trkpt>
      <trkpt lat="40.28105" lon="-3.7368393">
        <ele>622.65</ele>
        <time>2021-03-24T16:18:31Z</time>
      </trkpt>
      <trkpt lat="40.28105" lon="-3.7367353">
        <ele>623.83</ele>
        <time>2021-03-24T16:18:32Z</time>
      </trkpt>
      <trkpt lat="40.281048" lon="-3.7366314">
        <ele>623.83</ele>
        <time>2021-03-24T16:18:33Z</time>
      </trkpt>
      <trkpt lat="40.281044" lon="-3.736528">
        <ele>623.83</ele>
        <time>2021-03-24T16:18:34Z</time>
      </trkpt>
      <trkpt lat="40.28104" lon="-3.7364242">
        <ele>623.83</ele>
        <time>2021-03-24T16:18:35Z</time>
      </trkpt>
      <trkpt lat="40.28104" lon="-3.73632">
        <ele>625.01</ele>
        <time>2021-03-24T16:18:36Z</time>
      </trkpt>
      <trkpt lat="40.28104" lon="-3.7362156">
        <ele>625.01</ele>
        <time>2021-03-24T16:18:37Z</time>
      </trkpt>
      <trkpt lat="40.28104" lon="-3.7361114">
        <ele>625.01</ele>
        <time>2021-03-24T16:18:38Z</time>
      </trkpt>
      <trkpt lat="40.281044" lon="-3.7360084">
        <ele>625.01</ele>
        <time>2021-03-24T16:18:39Z</time>
      </trkpt>
      <trkpt lat="40.281044" lon="-3.7359066">
        <ele>625.01</ele>
        <time>2021-03-24T16:18:40Z</time>
      </trkpt>
      <trkpt lat="40.281048" lon="-3.735807">
        <ele>625.01</ele>
        <time>2021-03-24T16:18:41Z</time>
      </trkpt>
      <trkpt lat="40.281048" lon="-3.7357082">
        <ele>625.01</ele>
        <time>2021-03-24T16:18:42Z</time>
      </trkpt>
      <trkpt lat="40.28105" lon="-3.73561">
        <ele>625.01</ele>
        <time>2021-03-24T16:18:43Z</time>
      </trkpt>
      <trkpt lat="40.281055" lon="-3.735511">
        <ele>625.01</ele>
        <time>2021-03-24T16:18:44Z</time>
      </trkpt>
      <trkpt lat="40.281055" lon="-3.7354126">
        <ele>625.01</ele>
        <time>2021-03-24T16:18:45Z</time>
      </trkpt>
      <trkpt lat="40.281055" lon="-3.7353137">
        <ele>625.01</ele>
        <time>2021-03-24T16:18:46Z</time>
      </trkpt>
      <trkpt lat="40.281055" lon="-3.7352147">
        <ele>625.01</ele>
        <time>2021-03-24T16:18:47Z</time>
      </trkpt>
      <trkpt lat="40.28106" lon="-3.7351153">
        <ele>625.01</ele>
        <time>2021-03-24T16:18:48Z</time>
      </trkpt>
      <trkpt lat="40.28106" lon="-3.735016">
        <ele>625.01</ele>
        <time>2021-03-24T16:18:49Z</time>
      </trkpt>
      <trkpt lat="40.281063" lon="-3.7349174">
        <ele>625.01</ele>
        <time>2021-03-24T16:18:50Z</time>
      </trkpt>
      <trkpt lat="40.281067" lon="-3.734818">
        <ele>625.01</ele>
        <time>2021-03-24T16:18:51Z</time>
      </trkpt>
      <trkpt lat="40.281075" lon="-3.7347193">
        <ele>625.01</ele>
        <time>2021-03-24T16:18:52Z</time>
      </trkpt>
      <trkpt lat="40.281086" lon="-3.7346206">
        <ele>625.01</ele>
        <time>2021-03-24T16:18:53Z</time>
      </trkpt>
      <trkpt lat="40.281097" lon="-3.7345223">
        <ele>625.01</ele>
        <time>2021-03-24T16:18:54Z</time>
      </trkpt>
      <trkpt lat="40.281113" lon="-3.7344236">
        <ele>625.01</ele>
        <time>2021-03-24T16:18:55Z</time>
      </trkpt>
      <trkpt lat="40.28112" lon="-3.7343247">
        <ele>625.01</ele>
        <time>2021-03-24T16:18:56Z</time>
      </trkpt>
      <trkpt lat="40.281128" lon="-3.7342253">
        <ele>625.01</ele>
        <time>2021-03-24T16:18:57Z</time>
      </trkpt>
      <trkpt lat="40.28113" lon="-3.7341268">
        <ele>625.01</ele>
        <time>2021-03-24T16:18:58Z</time>
      </trkpt>
      <trkpt lat="40.281136" lon="-3.7340295">
        <ele>625.01</ele>
        <time>2021-03-24T16:18:59Z</time>
      </trkpt>
      <trkpt lat="40.281136" lon="-3.7339342">
        <ele>625.01</ele>
        <time>2021-03-24T16:19:00Z</time>
      </trkpt>
      <trkpt lat="40.281136" lon="-3.7338402">
        <ele>625.01</ele>
        <time>2021-03-24T16:19:01Z</time>
      </trkpt>
      <trkpt lat="40.281136" lon="-3.7337484">
        <ele>625.01</ele>
        <time>2021-03-24T16:19:02Z</time>
      </trkpt>
      <trkpt lat="40.281136" lon="-3.7336586">
        <ele>625.01</ele>
        <time>2021-03-24T16:19:03Z</time>
      </trkpt>
      <trkpt lat="40.28113" lon="-3.7335703">
        <ele>625.01</ele>
        <time>2021-03-24T16:19:04Z</time>
      </trkpt>
      <trkpt lat="40.28113" lon="-3.733482">
        <ele>625.01</ele>
        <time>2021-03-24T16:19:05Z</time>
      </trkpt>
      <trkpt lat="40.281128" lon="-3.7333937">
        <ele>625.01</ele>
        <time>2021-03-24T16:19:06Z</time>
      </trkpt>
      <trkpt lat="40.281128" lon="-3.7333043">
        <ele>625.01</ele>
        <time>2021-03-24T16:19:07Z</time>
      </trkpt>
      <trkpt lat="40.281128" lon="-3.7332134">
        <ele>625.01</ele>
        <time>2021-03-24T16:19:08Z</time>
      </trkpt>
      <trkpt lat="40.281124" lon="-3.7331214">
        <ele>625.01</ele>
        <time>2021-03-24T16:19:09Z</time>
      </trkpt>
      <trkpt lat="40.281124" lon="-3.7330298">
        <ele>626.19</ele>
        <time>2021-03-24T16:19:10Z</time>
      </trkpt>
      <trkpt lat="40.281124" lon="-3.7329378">
        <ele>626.19</ele>
        <time>2021-03-24T16:19:11Z</time>
      </trkpt>
      <trkpt lat="40.281124" lon="-3.7328467">
        <ele>626.19</ele>
        <time>2021-03-24T16:19:12Z</time>
      </trkpt>
      <trkpt lat="40.281124" lon="-3.732757">
        <ele>626.19</ele>
        <time>2021-03-24T16:19:13Z</time>
      </trkpt>
      <trkpt lat="40.281124" lon="-3.732668">
        <ele>626.19</ele>
        <time>2021-03-24T16:19:14Z</time>
      </trkpt>
      <trkpt lat="40.281128" lon="-3.732579">
        <ele>626.19</ele>
        <time>2021-03-24T16:19:15Z</time>
      </trkpt>
      <trkpt lat="40.281128" lon="-3.7324896">
        <ele>626.19</ele>
        <time>2021-03-24T16:19:16Z</time>
      </trkpt>
      <trkpt lat="40.281136" lon="-3.7324007">
        <ele>626.19</ele>
        <time>2021-03-24T16:19:17Z</time>
      </trkpt>
      <trkpt lat="40.281147" lon="-3.732313">
        <ele>626.19</ele>
        <time>2021-03-24T16:19:18Z</time>
      </trkpt>
      <trkpt lat="40.28116" lon="-3.732226">
        <ele>626.19</ele>
        <time>2021-03-24T16:19:19Z</time>
      </trkpt>
      <trkpt lat="40.28117" lon="-3.73214">
        <ele>626.19</ele>
        <time>2021-03-24T16:19:20Z</time>
      </trkpt>
      <trkpt lat="40.28118" lon="-3.7320526">
        <ele>626.19</ele>
        <time>2021-03-24T16:19:21Z</time>
      </trkpt>
      <trkpt lat="40.28119" lon="-3.731965">
        <ele>626.19</ele>
        <time>2021-03-24T16:19:22Z</time>
      </trkpt>
      <trkpt lat="40.2812" lon="-3.7318773">
        <ele>626.19</ele>
        <time>2021-03-24T16:19:23Z</time>
      </trkpt>
      <trkpt lat="40.281204" lon="-3.7317908">
        <ele>626.19</ele>
        <time>2021-03-24T16:19:24Z</time>
      </trkpt>
      <trkpt lat="40.28121" lon="-3.7317052">
        <ele>626.19</ele>
        <time>2021-03-24T16:19:25Z</time>
      </trkpt>
      <trkpt lat="40.281216" lon="-3.731621">
        <ele>626.19</ele>
        <time>2021-03-24T16:19:26Z</time>
      </trkpt>
      <trkpt lat="40.28122" lon="-3.731536">
        <ele>626.19</ele>
        <time>2021-03-24T16:19:27Z</time>
      </trkpt>
      <trkpt lat="40.281223" lon="-3.7314487">
        <ele>626.19</ele>
        <time>2021-03-24T16:19:28Z</time>
      </trkpt>
      <trkpt lat="40.281227" lon="-3.731361">
        <ele>626.19</ele>
        <time>2021-03-24T16:19:29Z</time>
      </trkpt>
      <trkpt lat="40.281227" lon="-3.7312746">
        <ele>626.19</ele>
        <time>2021-03-24T16:19:30Z</time>
      </trkpt>
      <trkpt lat="40.281227" lon="-3.73119">
        <ele>626.19</ele>
        <time>2021-03-24T16:19:31Z</time>
      </trkpt>
      <trkpt lat="40.281223" lon="-3.7311063">
        <ele>626.19</ele>
        <time>2021-03-24T16:19:32Z</time>
      </trkpt>
      <trkpt lat="40.281223" lon="-3.7310257">
        <ele>626.19</ele>
        <time>2021-03-24T16:19:33Z</time>
      </trkpt>
      <trkpt lat="40.28122" lon="-3.7309468">
        <ele>626.19</ele>
        <time>2021-03-24T16:19:34Z</time>
      </trkpt>
      <trkpt lat="40.28122" lon="-3.7308705">
        <ele>626.19</ele>
        <time>2021-03-24T16:19:35Z</time>
      </trkpt>
      <trkpt lat="40.281216" lon="-3.7307932">
        <ele>626.19</ele>
        <time>2021-03-24T16:19:36Z</time>
      </trkpt>
      <trkpt lat="40.28121" lon="-3.7307158">
        <ele>625.01</ele>
        <time>2021-03-24T16:19:37Z</time>
      </trkpt>
      <trkpt lat="40.28121" lon="-3.7306376">
        <ele>625.01</ele>
        <time>2021-03-24T16:19:38Z</time>
      </trkpt>
      <trkpt lat="40.281208" lon="-3.7305572">
        <ele>625.01</ele>
        <time>2021-03-24T16:19:39Z</time>
      </trkpt>
      <trkpt lat="40.281208" lon="-3.7304754">
        <ele>625.01</ele>
        <time>2021-03-24T16:19:40Z</time>
      </trkpt>
      <trkpt lat="40.281208" lon="-3.7303922">
        <ele>625.01</ele>
        <time>2021-03-24T16:19:41Z</time>
      </trkpt>
      <trkpt lat="40.28121" lon="-3.7303076">
        <ele>625.01</ele>
        <time>2021-03-24T16:19:42Z</time>
      </trkpt>
      <trkpt lat="40.28121" lon="-3.7302217">
        <ele>625.01</ele>
        <time>2021-03-24T16:19:43Z</time>
      </trkpt>
      <trkpt lat="40.281216" lon="-3.7301347">
        <ele>625.01</ele>
        <time>2021-03-24T16:19:44Z</time>
      </trkpt>
      <trkpt lat="40.281223" lon="-3.7300477">
        <ele>625.01</ele>
        <time>2021-03-24T16:19:45Z</time>
      </trkpt>
      <trkpt lat="40.28123" lon="-3.7299638">
        <ele>625.01</ele>
        <time>2021-03-24T16:19:46Z</time>
      </trkpt>
      <trkpt lat="40.28124" lon="-3.729882">
        <ele>623.65</ele>
        <time>2021-03-24T16:19:47Z</time>
      </trkpt>
      <trkpt lat="40.281246" lon="-3.7298007">
        <ele>623.65</ele>
        <time>2021-03-24T16:19:48Z</time>
      </trkpt>
      <trkpt lat="40.281254" lon="-3.72972">
        <ele>623.65</ele>
        <time>2021-03-24T16:19:49Z</time>
      </trkpt>
      <trkpt lat="40.281258" lon="-3.7296407">
        <ele>623.65</ele>
        <time>2021-03-24T16:19:50Z</time>
      </trkpt>
      <trkpt lat="40.28126" lon="-3.7295623">
        <ele>617.9</ele>
        <time>2021-03-24T16:19:51Z</time>
      </trkpt>
      <trkpt lat="40.281265" lon="-3.7294827">
        <ele>616.45</ele>
        <time>2021-03-24T16:19:52Z</time>
      </trkpt>
      <trkpt lat="40.281265" lon="-3.7294004">
        <ele>616.45</ele>
        <time>2021-03-24T16:19:53Z</time>
      </trkpt>
      <trkpt lat="40.28126" lon="-3.7293158">
        <ele>616.45</ele>
        <time>2021-03-24T16:19:54Z</time>
      </trkpt>
      <trkpt lat="40.28126" lon="-3.7292302">
        <ele>616.45</ele>
        <time>2021-03-24T16:19:55Z</time>
      </trkpt>
      <trkpt lat="40.281258" lon="-3.7291431">
        <ele>615.26</ele>
        <time>2021-03-24T16:19:56Z</time>
      </trkpt>
      <trkpt lat="40.281254" lon="-3.729053">
        <ele>615.26</ele>
        <time>2021-03-24T16:19:57Z</time>
      </trkpt>
      <trkpt lat="40.281246" lon="-3.7289612">
        <ele>615.26</ele>
        <time>2021-03-24T16:19:58Z</time>
      </trkpt>
      <trkpt lat="40.281242" lon="-3.7288673">
        <ele>615.26</ele>
        <time>2021-03-24T16:19:59Z</time>
      </trkpt>
      <trkpt lat="40.281235" lon="-3.728772">
        <ele>615.26</ele>
        <time>2021-03-24T16:20:00Z</time>
      </trkpt>
      <trkpt lat="40.281223" lon="-3.728676">
        <ele>613.9</ele>
        <time>2021-03-24T16:20:01Z</time>
      </trkpt>
      <trkpt lat="40.281208" lon="-3.7285814">
        <ele>613.9</ele>
        <time>2021-03-24T16:20:02Z</time>
      </trkpt>
      <trkpt lat="40.281185" lon="-3.7284868">
        <ele>613.9</ele>
        <time>2021-03-24T16:20:03Z</time>
      </trkpt>
      <trkpt lat="40.281124" lon="-3.7283094">
        <ele>613.9</ele>
        <time>2021-03-24T16:20:05Z</time>
      </trkpt>
      <trkpt lat="40.281086" lon="-3.7282207">
        <ele>613.9</ele>
        <time>2021-03-24T16:20:06Z</time>
      </trkpt>
      <trkpt lat="40.281044" lon="-3.728137">
        <ele>612.72</ele>
        <time>2021-03-24T16:20:07Z</time>
      </trkpt>
      <trkpt lat="40.281" lon="-3.7280583">
        <ele>612.72</ele>
        <time>2021-03-24T16:20:08Z</time>
      </trkpt>
      <trkpt lat="40.280952" lon="-3.7279894">
        <ele>612.72</ele>
        <time>2021-03-24T16:20:09Z</time>
      </trkpt>
      <trkpt lat="40.280903" lon="-3.7279267">
        <ele>612.72</ele>
        <time>2021-03-24T16:20:10Z</time>
      </trkpt>
      <trkpt lat="40.28085" lon="-3.7278707">
        <ele>612.72</ele>
        <time>2021-03-24T16:20:11Z</time>
      </trkpt>
      <trkpt lat="40.280792" lon="-3.727816">
        <ele>612.72</ele>
        <time>2021-03-24T16:20:12Z</time>
      </trkpt>
      <trkpt lat="40.280743" lon="-3.7277653">
        <ele>612.72</ele>
        <time>2021-03-24T16:20:13Z</time>
      </trkpt>
      <trkpt lat="40.280693" lon="-3.7277153">
        <ele>612.72</ele>
        <time>2021-03-24T16:20:14Z</time>
      </trkpt>
      <trkpt lat="40.280647" lon="-3.7276638">
        <ele>612.72</ele>
        <time>2021-03-24T16:20:15Z</time>
      </trkpt>
      <trkpt lat="40.2806" lon="-3.7276106">
        <ele>611.54</ele>
        <time>2021-03-24T16:20:16Z</time>
      </trkpt>
      <trkpt lat="40.280556" lon="-3.727553">
        <ele>611.54</ele>
        <time>2021-03-24T16:20:17Z</time>
      </trkpt>
      <trkpt lat="40.280518" lon="-3.7274983">
        <ele>611.54</ele>
        <time>2021-03-24T16:20:18Z</time>
      </trkpt>
      <trkpt lat="40.28048" lon="-3.7274368">
        <ele>611.54</ele>
        <time>2021-03-24T16:20:19Z</time>
      </trkpt>
      <trkpt lat="40.28045" lon="-3.727373">
        <ele>611.54</ele>
        <time>2021-03-24T16:20:20Z</time>
      </trkpt>
      <trkpt lat="40.280422" lon="-3.7273083">
        <ele>611.54</ele>
        <time>2021-03-24T16:20:21Z</time>
      </trkpt>
      <trkpt lat="40.280396" lon="-3.7272463">
        <ele>611.54</ele>
        <time>2021-03-24T16:20:22Z</time>
      </trkpt>
      <trkpt lat="40.28037" lon="-3.7271876">
        <ele>611.54</ele>
        <time>2021-03-24T16:20:23Z</time>
      </trkpt>
      <trkpt lat="40.28034" lon="-3.727131">
        <ele>611.54</ele>
        <time>2021-03-24T16:20:24Z</time>
      </trkpt>
      <trkpt lat="40.280308" lon="-3.7270746">
        <ele>611.54</ele>
        <time>2021-03-24T16:20:25Z</time>
      </trkpt>
      <trkpt lat="40.28028" lon="-3.7270217">
        <ele>611.54</ele>
        <time>2021-03-24T16:20:26Z</time>
      </trkpt>
      <trkpt lat="40.28023" lon="-3.7269087">
        <ele>611.54</ele>
        <time>2021-03-24T16:20:28Z</time>
      </trkpt>
      <trkpt lat="40.280186" lon="-3.7268043">
        <ele>611.54</ele>
        <time>2021-03-24T16:20:30Z</time>
      </trkpt>
      <trkpt lat="40.280132" lon="-3.7267425">
        <ele>611.54</ele>
        <time>2021-03-24T16:20:32Z</time>
      </trkpt>
      <trkpt lat="40.28006" lon="-3.7267046">
        <ele>611.54</ele>
        <time>2021-03-24T16:20:34Z</time>
      </trkpt>
      <trkpt lat="40.279984" lon="-3.7266674">
        <ele>611.54</ele>
        <time>2021-03-24T16:20:36Z</time>
      </trkpt>
      <trkpt lat="40.279903" lon="-3.726624">
        <ele>611.54</ele>
        <time>2021-03-24T16:20:38Z</time>
      </trkpt>
      <trkpt lat="40.27982" lon="-3.7265742">
        <ele>611.54</ele>
        <time>2021-03-24T16:20:40Z</time>
      </trkpt>
      <trkpt lat="40.279728" lon="-3.726526">
        <ele>611.54</ele>
        <time>2021-03-24T16:20:42Z</time>
      </trkpt>
      <trkpt lat="40.279625" lon="-3.7264934">
        <ele>611.54</ele>
        <time>2021-03-24T16:20:44Z</time>
      </trkpt>
      <trkpt lat="40.27957" lon="-3.726483">
        <ele>611.54</ele>
        <time>2021-03-24T16:20:45Z</time>
      </trkpt>
      <trkpt lat="40.279522" lon="-3.726477">
        <ele>611.54</ele>
        <time>2021-03-24T16:20:46Z</time>
      </trkpt>
      <trkpt lat="40.279427" lon="-3.7264726">
        <ele>611.54</ele>
        <time>2021-03-24T16:20:48Z</time>
      </trkpt>
      <trkpt lat="40.27933" lon="-3.7264707">
        <ele>612.99</ele>
        <time>2021-03-24T16:20:50Z</time>
      </trkpt>
      <trkpt lat="40.279278" lon="-3.726468">
        <ele>612.99</ele>
        <time>2021-03-24T16:20:51Z</time>
      </trkpt>
      <trkpt lat="40.27918" lon="-3.726456">
        <ele>612.99</ele>
        <time>2021-03-24T16:20:53Z</time>
      </trkpt>
      <trkpt lat="40.279076" lon="-3.7264354">
        <ele>614.17</ele>
        <time>2021-03-24T16:20:55Z</time>
      </trkpt>
      <trkpt lat="40.279026" lon="-3.7264223">
        <ele>614.17</ele>
        <time>2021-03-24T16:20:56Z</time>
      </trkpt>
      <trkpt lat="40.278976" lon="-3.726408">
        <ele>614.17</ele>
        <time>2021-03-24T16:20:57Z</time>
      </trkpt>
      <trkpt lat="40.278873" lon="-3.7263772">
        <ele>614.17</ele>
        <time>2021-03-24T16:20:59Z</time>
      </trkpt>
      <trkpt lat="40.278816" lon="-3.72636">
        <ele>614.17</ele>
        <time>2021-03-24T16:21:00Z</time>
      </trkpt>
      <trkpt lat="40.27876" lon="-3.7263436">
        <ele>614.17</ele>
        <time>2021-03-24T16:21:01Z</time>
      </trkpt>
      <trkpt lat="40.2787" lon="-3.7263267">
        <ele>614.17</ele>
        <time>2021-03-24T16:21:02Z</time>
      </trkpt>
      <trkpt lat="40.278645" lon="-3.7263086">
        <ele>614.17</ele>
        <time>2021-03-24T16:21:03Z</time>
      </trkpt>
      <trkpt lat="40.278584" lon="-3.7262895">
        <ele>614.17</ele>
        <time>2021-03-24T16:21:04Z</time>
      </trkpt>
      <trkpt lat="40.278522" lon="-3.7262716">
        <ele>614.17</ele>
        <time>2021-03-24T16:21:05Z</time>
      </trkpt>
      <trkpt lat="40.278465" lon="-3.7262547">
        <ele>614.17</ele>
        <time>2021-03-24T16:21:06Z</time>
      </trkpt>
      <trkpt lat="40.278404" lon="-3.7262378">
        <ele>614.17</ele>
        <time>2021-03-24T16:21:07Z</time>
      </trkpt>
      <trkpt lat="40.278343" lon="-3.7262213">
        <ele>614.17</ele>
        <time>2021-03-24T16:21:08Z</time>
      </trkpt>
      <trkpt lat="40.278282" lon="-3.7262068">
        <ele>614.17</ele>
        <time>2021-03-24T16:21:09Z</time>
      </trkpt>
      <trkpt lat="40.27822" lon="-3.726193">
        <ele>614.17</ele>
        <time>2021-03-24T16:21:10Z</time>
      </trkpt>
      <trkpt lat="40.278164" lon="-3.7261796">
        <ele>614.17</ele>
        <time>2021-03-24T16:21:11Z</time>
      </trkpt>
      <trkpt lat="40.278103" lon="-3.7261646">
        <ele>614.17</ele>
        <time>2021-03-24T16:21:12Z</time>
      </trkpt>
      <trkpt lat="40.278046" lon="-3.726147">
        <ele>612.9</ele>
        <time>2021-03-24T16:21:13Z</time>
      </trkpt>
      <trkpt lat="40.277992" lon="-3.7261293">
        <ele>612.9</ele>
        <time>2021-03-24T16:21:14Z</time>
      </trkpt>
      <trkpt lat="40.277935" lon="-3.7261126">
        <ele>612.9</ele>
        <time>2021-03-24T16:21:15Z</time>
      </trkpt>
      <trkpt lat="40.277878" lon="-3.7260973">
        <ele>612.9</ele>
        <time>2021-03-24T16:21:16Z</time>
      </trkpt>
      <trkpt lat="40.27782" lon="-3.7260823">
        <ele>612.9</ele>
        <time>2021-03-24T16:21:17Z</time>
      </trkpt>
      <trkpt lat="40.27776" lon="-3.726065">
        <ele>612.9</ele>
        <time>2021-03-24T16:21:18Z</time>
      </trkpt>
      <trkpt lat="40.277702" lon="-3.7260454">
        <ele>612.9</ele>
        <time>2021-03-24T16:21:19Z</time>
      </trkpt>
      <trkpt lat="40.27764" lon="-3.7260234">
        <ele>612.9</ele>
        <time>2021-03-24T16:21:20Z</time>
      </trkpt>
      <trkpt lat="40.277584" lon="-3.7259996">
        <ele>612.9</ele>
        <time>2021-03-24T16:21:21Z</time>
      </trkpt>
      <trkpt lat="40.277527" lon="-3.7259743">
        <ele>612.9</ele>
        <time>2021-03-24T16:21:22Z</time>
      </trkpt>
      <trkpt lat="40.27747" lon="-3.725949">
        <ele>612.9</ele>
        <time>2021-03-24T16:21:23Z</time>
      </trkpt>
      <trkpt lat="40.277412" lon="-3.7259238">
        <ele>612.9</ele>
        <time>2021-03-24T16:21:24Z</time>
      </trkpt>
      <trkpt lat="40.277355" lon="-3.7258983">
        <ele>612.9</ele>
        <time>2021-03-24T16:21:25Z</time>
      </trkpt>
      <trkpt lat="40.2773" lon="-3.7258747">
        <ele>612.9</ele>
        <time>2021-03-24T16:21:26Z</time>
      </trkpt>
      <trkpt lat="40.27725" lon="-3.7258532">
        <ele>612.9</ele>
        <time>2021-03-24T16:21:27Z</time>
      </trkpt>
      <trkpt lat="40.2772" lon="-3.725834">
        <ele>612.9</ele>
        <time>2021-03-24T16:21:28Z</time>
      </trkpt>
      <trkpt lat="40.27715" lon="-3.7258162">
        <ele>612.9</ele>
        <time>2021-03-24T16:21:29Z</time>
      </trkpt>
      <trkpt lat="40.2771" lon="-3.725799">
        <ele>612.9</ele>
        <time>2021-03-24T16:21:30Z</time>
      </trkpt>
      <trkpt lat="40.277004" lon="-3.7257671">
        <ele>612.9</ele>
        <time>2021-03-24T16:21:32Z</time>
      </trkpt>
      <trkpt lat="40.27695" lon="-3.725754">
        <ele>612.9</ele>
        <time>2021-03-24T16:21:33Z</time>
      </trkpt>
      <trkpt lat="40.2769" lon="-3.7257442">
        <ele>611.72</ele>
        <time>2021-03-24T16:21:34Z</time>
      </trkpt>
      <trkpt lat="40.276848" lon="-3.7257373">
        <ele>611.72</ele>
        <time>2021-03-24T16:21:35Z</time>
      </trkpt>
      <trkpt lat="40.276745" lon="-3.725718">
        <ele>611.72</ele>
        <time>2021-03-24T16:21:37Z</time>
      </trkpt>
      <trkpt lat="40.2767" lon="-3.7256944">
        <ele>611.72</ele>
        <time>2021-03-24T16:21:38Z</time>
      </trkpt>
      <trkpt lat="40.276657" lon="-3.7256606">
        <ele>611.72</ele>
        <time>2021-03-24T16:21:39Z</time>
      </trkpt>
      <trkpt lat="40.276604" lon="-3.7255654">
        <ele>611.72</ele>
        <time>2021-03-24T16:21:41Z</time>
      </trkpt>
      <trkpt lat="40.276577" lon="-3.7254467">
        <ele>611.72</ele>
        <time>2021-03-24T16:21:43Z</time>
      </trkpt>
      <trkpt lat="40.27657" lon="-3.7253814">
        <ele>611.72</ele>
        <time>2021-03-24T16:21:44Z</time>
      </trkpt>
      <trkpt lat="40.276566" lon="-3.7252476">
        <ele>611.72</ele>
        <time>2021-03-24T16:21:46Z</time>
      </trkpt>
      <trkpt lat="40.27656" lon="-3.7251794">
        <ele>611.72</ele>
        <time>2021-03-24T16:21:47Z</time>
      </trkpt>
      <trkpt lat="40.27656" lon="-3.7250316">
        <ele>611.72</ele>
        <time>2021-03-24T16:21:49Z</time>
      </trkpt>
      <trkpt lat="40.276566" lon="-3.7249582">
        <ele>612.9</ele>
        <time>2021-03-24T16:21:50Z</time>
      </trkpt>
      <trkpt lat="40.276566" lon="-3.7248886">
        <ele>612.99</ele>
        <time>2021-03-24T16:21:51Z</time>
      </trkpt>
      <trkpt lat="40.276566" lon="-3.7248173">
        <ele>612.99</ele>
        <time>2021-03-24T16:21:52Z</time>
      </trkpt>
      <trkpt lat="40.276566" lon="-3.724745">
        <ele>612.99</ele>
        <time>2021-03-24T16:21:53Z</time>
      </trkpt>
      <trkpt lat="40.276566" lon="-3.7246683">
        <ele>612.99</ele>
        <time>2021-03-24T16:21:54Z</time>
      </trkpt>
      <trkpt lat="40.276566" lon="-3.7245224">
        <ele>612.99</ele>
        <time>2021-03-24T16:21:56Z</time>
      </trkpt>
      <trkpt lat="40.27657" lon="-3.7244518">
        <ele>612.99</ele>
        <time>2021-03-24T16:21:57Z</time>
      </trkpt>
      <trkpt lat="40.276566" lon="-3.7243774">
        <ele>614.26</ele>
        <time>2021-03-24T16:21:58Z</time>
      </trkpt>
      <trkpt lat="40.276554" lon="-3.7242367">
        <ele>614.26</ele>
        <time>2021-03-24T16:22:00Z</time>
      </trkpt>
      <trkpt lat="40.276543" lon="-3.7241704">
        <ele>614.26</ele>
        <time>2021-03-24T16:22:01Z</time>
      </trkpt>
      <trkpt lat="40.27653" lon="-3.7241113">
        <ele>615.62</ele>
        <time>2021-03-24T16:22:02Z</time>
      </trkpt>
      <trkpt lat="40.276505" lon="-3.7239888">
        <ele>615.62</ele>
        <time>2021-03-24T16:22:04Z</time>
      </trkpt>
      <trkpt lat="40.27649" lon="-3.723927">
        <ele>615.62</ele>
        <time>2021-03-24T16:22:05Z</time>
      </trkpt>
      <trkpt lat="40.276466" lon="-3.7238057">
        <ele>616.8</ele>
        <time>2021-03-24T16:22:07Z</time>
      </trkpt>
      <trkpt lat="40.27645" lon="-3.723685">
        <ele>616.8</ele>
        <time>2021-03-24T16:22:09Z</time>
      </trkpt>
      <trkpt lat="40.27645" lon="-3.7235577">
        <ele>616.8</ele>
        <time>2021-03-24T16:22:11Z</time>
      </trkpt>
      <trkpt lat="40.27645" lon="-3.723496">
        <ele>617.99</ele>
        <time>2021-03-24T16:22:12Z</time>
      </trkpt>
      <trkpt lat="40.276463" lon="-3.723369">
        <ele>617.99</ele>
        <time>2021-03-24T16:22:14Z</time>
      </trkpt>
      <trkpt lat="40.276474" lon="-3.7232327">
        <ele>617.99</ele>
        <time>2021-03-24T16:22:16Z</time>
      </trkpt>
      <trkpt lat="40.276485" lon="-3.7231627">
        <ele>617.99</ele>
        <time>2021-03-24T16:22:17Z</time>
      </trkpt>
      <trkpt lat="40.276493" lon="-3.723091">
        <ele>617.99</ele>
        <time>2021-03-24T16:22:18Z</time>
      </trkpt>
      <trkpt lat="40.2765" lon="-3.7230186">
        <ele>617.99</ele>
        <time>2021-03-24T16:22:19Z</time>
      </trkpt>
      <trkpt lat="40.27651" lon="-3.7229433">
        <ele>617.99</ele>
        <time>2021-03-24T16:22:20Z</time>
      </trkpt>
      <trkpt lat="40.276512" lon="-3.7228668">
        <ele>617.99</ele>
        <time>2021-03-24T16:22:21Z</time>
      </trkpt>
      <trkpt lat="40.276512" lon="-3.722788">
        <ele>617.99</ele>
        <time>2021-03-24T16:22:22Z</time>
      </trkpt>
      <trkpt lat="40.276512" lon="-3.7227077">
        <ele>617.99</ele>
        <time>2021-03-24T16:22:23Z</time>
      </trkpt>
      <trkpt lat="40.27651" lon="-3.722628">
        <ele>617.99</ele>
        <time>2021-03-24T16:22:24Z</time>
      </trkpt>
      <trkpt lat="40.276505" lon="-3.7225478">
        <ele>617.99</ele>
        <time>2021-03-24T16:22:25Z</time>
      </trkpt>
      <trkpt lat="40.2765" lon="-3.722467">
        <ele>617.99</ele>
        <time>2021-03-24T16:22:26Z</time>
      </trkpt>
      <trkpt lat="40.276493" lon="-3.722385">
        <ele>617.99</ele>
        <time>2021-03-24T16:22:27Z</time>
      </trkpt>
      <trkpt lat="40.27648" lon="-3.7223">
        <ele>617.99</ele>
        <time>2021-03-24T16:22:28Z</time>
      </trkpt>
      <trkpt lat="40.276474" lon="-3.722213">
        <ele>617.99</ele>
        <time>2021-03-24T16:22:29Z</time>
      </trkpt>
      <trkpt lat="40.276463" lon="-3.722124">
        <ele>617.99</ele>
        <time>2021-03-24T16:22:30Z</time>
      </trkpt>
      <trkpt lat="40.276447" lon="-3.722033">
        <ele>617.99</ele>
        <time>2021-03-24T16:22:31Z</time>
      </trkpt>
      <trkpt lat="40.276436" lon="-3.7219412">
        <ele>617.99</ele>
        <time>2021-03-24T16:22:32Z</time>
      </trkpt>
      <trkpt lat="40.276424" lon="-3.72185">
        <ele>617.99</ele>
        <time>2021-03-24T16:22:33Z</time>
      </trkpt>
      <trkpt lat="40.276413" lon="-3.7217598">
        <ele>617.99</ele>
        <time>2021-03-24T16:22:34Z</time>
      </trkpt>
      <trkpt lat="40.2764" lon="-3.7216687">
        <ele>616.8</ele>
        <time>2021-03-24T16:22:35Z</time>
      </trkpt>
      <trkpt lat="40.27639" lon="-3.7215776">
        <ele>616.8</ele>
        <time>2021-03-24T16:22:36Z</time>
      </trkpt>
      <trkpt lat="40.27638" lon="-3.721485">
        <ele>616.8</ele>
        <time>2021-03-24T16:22:37Z</time>
      </trkpt>
      <trkpt lat="40.276363" lon="-3.7213929">
        <ele>616.8</ele>
        <time>2021-03-24T16:22:38Z</time>
      </trkpt>
      <trkpt lat="40.276352" lon="-3.7213016">
        <ele>616.8</ele>
        <time>2021-03-24T16:22:39Z</time>
      </trkpt>
      <trkpt lat="40.27634" lon="-3.7212102">
        <ele>616.8</ele>
        <time>2021-03-24T16:22:40Z</time>
      </trkpt>
      <trkpt lat="40.27633" lon="-3.7211206">
        <ele>616.8</ele>
        <time>2021-03-24T16:22:41Z</time>
      </trkpt>
      <trkpt lat="40.276318" lon="-3.7210348">
        <ele>616.8</ele>
        <time>2021-03-24T16:22:42Z</time>
      </trkpt>
      <trkpt lat="40.27631" lon="-3.7209547">
        <ele>616.8</ele>
        <time>2021-03-24T16:22:43Z</time>
      </trkpt>
      <trkpt lat="40.276295" lon="-3.7208812">
        <ele>616.8</ele>
        <time>2021-03-24T16:22:44Z</time>
      </trkpt>
      <trkpt lat="40.276276" lon="-3.7208178">
        <ele>616.8</ele>
        <time>2021-03-24T16:22:45Z</time>
      </trkpt>
      <trkpt lat="40.276245" lon="-3.7207654">
        <ele>616.8</ele>
        <time>2021-03-24T16:22:46Z</time>
      </trkpt>
      <trkpt lat="40.276173" lon="-3.720691">
        <ele>616.8</ele>
        <time>2021-03-24T16:22:48Z</time>
      </trkpt>
      <trkpt lat="40.27613" lon="-3.7206614">
        <ele>616.8</ele>
        <time>2021-03-24T16:22:49Z</time>
      </trkpt>
      <trkpt lat="40.276035" lon="-3.720613">
        <ele>616.8</ele>
        <time>2021-03-24T16:22:51Z</time>
      </trkpt>
      <trkpt lat="40.275932" lon="-3.7205706">
        <ele>616.8</ele>
        <time>2021-03-24T16:22:53Z</time>
      </trkpt>
      <trkpt lat="40.275883" lon="-3.7205484">
        <ele>616.8</ele>
        <time>2021-03-24T16:22:54Z</time>
      </trkpt>
      <trkpt lat="40.27583" lon="-3.720524">
        <ele>616.8</ele>
        <time>2021-03-24T16:22:55Z</time>
      </trkpt>
      <trkpt lat="40.27578" lon="-3.7204967">
        <ele>616.8</ele>
        <time>2021-03-24T16:22:56Z</time>
      </trkpt>
      <trkpt lat="40.27573" lon="-3.7204642">
        <ele>616.8</ele>
        <time>2021-03-24T16:22:57Z</time>
      </trkpt>
      <trkpt lat="40.275684" lon="-3.7204273">
        <ele>616.8</ele>
        <time>2021-03-24T16:22:58Z</time>
      </trkpt>
      <trkpt lat="40.27564" lon="-3.7203844">
        <ele>616.8</ele>
        <time>2021-03-24T16:22:59Z</time>
      </trkpt>
      <trkpt lat="40.2756" lon="-3.7203352">
        <ele>616.8</ele>
        <time>2021-03-24T16:23:00Z</time>
      </trkpt>
      <trkpt lat="40.275566" lon="-3.72028">
        <ele>616.8</ele>
        <time>2021-03-24T16:23:01Z</time>
      </trkpt>
      <trkpt lat="40.275536" lon="-3.7202196">
        <ele>616.8</ele>
        <time>2021-03-24T16:23:02Z</time>
      </trkpt>
      <trkpt lat="40.275505" lon="-3.7201543">
        <ele>616.8</ele>
        <time>2021-03-24T16:23:03Z</time>
      </trkpt>
      <trkpt lat="40.275482" lon="-3.7200868">
        <ele>616.8</ele>
        <time>2021-03-24T16:23:04Z</time>
      </trkpt>
      <trkpt lat="40.27546" lon="-3.7200177">
        <ele>616.8</ele>
        <time>2021-03-24T16:23:05Z</time>
      </trkpt>
      <trkpt lat="40.27544" lon="-3.719947">
        <ele>616.8</ele>
        <time>2021-03-24T16:23:06Z</time>
      </trkpt>
      <trkpt lat="40.27542" lon="-3.7198756">
        <ele>616.8</ele>
        <time>2021-03-24T16:23:07Z</time>
      </trkpt>
      <trkpt lat="40.275402" lon="-3.7198026">
        <ele>616.8</ele>
        <time>2021-03-24T16:23:08Z</time>
      </trkpt>
      <trkpt lat="40.275387" lon="-3.719729">
        <ele>616.8</ele>
        <time>2021-03-24T16:23:09Z</time>
      </trkpt>
      <trkpt lat="40.27537" lon="-3.719655">
        <ele>616.8</ele>
        <time>2021-03-24T16:23:10Z</time>
      </trkpt>
      <trkpt lat="40.275356" lon="-3.71958">
        <ele>616.8</ele>
        <time>2021-03-24T16:23:11Z</time>
      </trkpt>
      <trkpt lat="40.275345" lon="-3.719504">
        <ele>616.8</ele>
        <time>2021-03-24T16:23:12Z</time>
      </trkpt>
      <trkpt lat="40.27533" lon="-3.7194276">
        <ele>616.8</ele>
        <time>2021-03-24T16:23:13Z</time>
      </trkpt>
      <trkpt lat="40.27532" lon="-3.719352">
        <ele>616.8</ele>
        <time>2021-03-24T16:23:14Z</time>
      </trkpt>
      <trkpt lat="40.27531" lon="-3.719276">
        <ele>616.8</ele>
        <time>2021-03-24T16:23:15Z</time>
      </trkpt>
      <trkpt lat="40.2753" lon="-3.719198">
        <ele>616.8</ele>
        <time>2021-03-24T16:23:16Z</time>
      </trkpt>
      <trkpt lat="40.275295" lon="-3.7191207">
        <ele>616.8</ele>
        <time>2021-03-24T16:23:17Z</time>
      </trkpt>
      <trkpt lat="40.275288" lon="-3.7190416">
        <ele>616.8</ele>
        <time>2021-03-24T16:23:18Z</time>
      </trkpt>
      <trkpt lat="40.275284" lon="-3.7189612">
        <ele>616.8</ele>
        <time>2021-03-24T16:23:19Z</time>
      </trkpt>
      <trkpt lat="40.27528" lon="-3.7188795">
        <ele>616.8</ele>
        <time>2021-03-24T16:23:20Z</time>
      </trkpt>
      <trkpt lat="40.275276" lon="-3.7187963">
        <ele>616.8</ele>
        <time>2021-03-24T16:23:21Z</time>
      </trkpt>
      <trkpt lat="40.275276" lon="-3.718713">
        <ele>616.8</ele>
        <time>2021-03-24T16:23:22Z</time>
      </trkpt>
      <trkpt lat="40.275276" lon="-3.7186284">
        <ele>616.8</ele>
        <time>2021-03-24T16:23:23Z</time>
      </trkpt>
      <trkpt lat="40.275272" lon="-3.718542">
        <ele>616.8</ele>
        <time>2021-03-24T16:23:24Z</time>
      </trkpt>
      <trkpt lat="40.275272" lon="-3.7184544">
        <ele>616.8</ele>
        <time>2021-03-24T16:23:25Z</time>
      </trkpt>
      <trkpt lat="40.275272" lon="-3.7183654">
        <ele>615.53</ele>
        <time>2021-03-24T16:23:26Z</time>
      </trkpt>
      <trkpt lat="40.275272" lon="-3.7182758">
        <ele>615.53</ele>
        <time>2021-03-24T16:23:27Z</time>
      </trkpt>
      <trkpt lat="40.275272" lon="-3.718184">
        <ele>615.53</ele>
        <time>2021-03-24T16:23:28Z</time>
      </trkpt>
      <trkpt lat="40.27527" lon="-3.7180896">
        <ele>615.53</ele>
        <time>2021-03-24T16:23:29Z</time>
      </trkpt>
      <trkpt lat="40.275265" lon="-3.717993">
        <ele>615.53</ele>
        <time>2021-03-24T16:23:30Z</time>
      </trkpt>
      <trkpt lat="40.27526" lon="-3.717894">
        <ele>614.17</ele>
        <time>2021-03-24T16:23:31Z</time>
      </trkpt>
      <trkpt lat="40.275253" lon="-3.7177932">
        <ele>614.17</ele>
        <time>2021-03-24T16:23:32Z</time>
      </trkpt>
      <trkpt lat="40.27525" lon="-3.7176902">
        <ele>614.17</ele>
        <time>2021-03-24T16:23:33Z</time>
      </trkpt>
      <trkpt lat="40.27524" lon="-3.7175863">
        <ele>612.8</ele>
        <time>2021-03-24T16:23:34Z</time>
      </trkpt>
      <trkpt lat="40.275238" lon="-3.7174742">
        <ele>612.8</ele>
        <time>2021-03-24T16:23:35Z</time>
      </trkpt>
      <trkpt lat="40.275234" lon="-3.7173636">
        <ele>612.8</ele>
        <time>2021-03-24T16:23:36Z</time>
      </trkpt>
      <trkpt lat="40.27523" lon="-3.7172542">
        <ele>612.8</ele>
        <time>2021-03-24T16:23:37Z</time>
      </trkpt>
      <trkpt lat="40.275223" lon="-3.7171543">
        <ele>612.8</ele>
        <time>2021-03-24T16:23:38Z</time>
      </trkpt>
      <trkpt lat="40.27521" lon="-3.717055">
        <ele>612.8</ele>
        <time>2021-03-24T16:23:39Z</time>
      </trkpt>
      <trkpt lat="40.275192" lon="-3.7169492">
        <ele>612.8</ele>
        <time>2021-03-24T16:23:40Z</time>
      </trkpt>
      <trkpt lat="40.275173" lon="-3.716846">
        <ele>612.8</ele>
        <time>2021-03-24T16:23:41Z</time>
      </trkpt>
      <trkpt lat="40.275154" lon="-3.7167478">
        <ele>612.8</ele>
        <time>2021-03-24T16:23:42Z</time>
      </trkpt>
      <trkpt lat="40.27514" lon="-3.716653">
        <ele>612.8</ele>
        <time>2021-03-24T16:23:43Z</time>
      </trkpt>
      <trkpt lat="40.275124" lon="-3.7165682">
        <ele>612.8</ele>
        <time>2021-03-24T16:23:44Z</time>
      </trkpt>
      <trkpt lat="40.275105" lon="-3.7164826">
        <ele>612.8</ele>
        <time>2021-03-24T16:23:45Z</time>
      </trkpt>
      <trkpt lat="40.275085" lon="-3.7164023">
        <ele>612.8</ele>
        <time>2021-03-24T16:23:46Z</time>
      </trkpt>
      <trkpt lat="40.275066" lon="-3.7163308">
        <ele>612.8</ele>
        <time>2021-03-24T16:23:47Z</time>
      </trkpt>
      <trkpt lat="40.275043" lon="-3.7162614">
        <ele>612.8</ele>
        <time>2021-03-24T16:23:48Z</time>
      </trkpt>
      <trkpt lat="40.275024" lon="-3.7161922">
        <ele>613.99</ele>
        <time>2021-03-24T16:23:49Z</time>
      </trkpt>
      <trkpt lat="40.275" lon="-3.716125">
        <ele>613.99</ele>
        <time>2021-03-24T16:23:50Z</time>
      </trkpt>
      <trkpt lat="40.27498" lon="-3.71606">
        <ele>613.92</ele>
        <time>2021-03-24T16:23:51Z</time>
      </trkpt>
      <trkpt lat="40.274952" lon="-3.715994">
        <ele>613.92</ele>
        <time>2021-03-24T16:23:52Z</time>
      </trkpt>
      <trkpt lat="40.274902" lon="-3.7158628">
        <ele>613.92</ele>
        <time>2021-03-24T16:23:54Z</time>
      </trkpt>
      <trkpt lat="40.274876" lon="-3.7157967">
        <ele>615.1</ele>
        <time>2021-03-24T16:23:55Z</time>
      </trkpt>
      <trkpt lat="40.27485" lon="-3.715731">
        <ele>615.1</ele>
        <time>2021-03-24T16:23:56Z</time>
      </trkpt>
      <trkpt lat="40.274822" lon="-3.7156656">
        <ele>615.1</ele>
        <time>2021-03-24T16:23:57Z</time>
      </trkpt>
      <trkpt lat="40.27479" lon="-3.7156003">
        <ele>615.1</ele>
        <time>2021-03-24T16:23:58Z</time>
      </trkpt>
      <trkpt lat="40.27476" lon="-3.715535">
        <ele>615.1</ele>
        <time>2021-03-24T16:23:59Z</time>
      </trkpt>
      <trkpt lat="40.274734" lon="-3.7154694">
        <ele>615.1</ele>
        <time>2021-03-24T16:24:00Z</time>
      </trkpt>
      <trkpt lat="40.2747" lon="-3.7154033">
        <ele>615.1</ele>
        <time>2021-03-24T16:24:01Z</time>
      </trkpt>
      <trkpt lat="40.27467" lon="-3.7153354">
        <ele>615.1</ele>
        <time>2021-03-24T16:24:02Z</time>
      </trkpt>
      <trkpt lat="40.27464" lon="-3.7152662">
        <ele>615.1</ele>
        <time>2021-03-24T16:24:03Z</time>
      </trkpt>
      <trkpt lat="40.274605" lon="-3.715197">
        <ele>615.1</ele>
        <time>2021-03-24T16:24:04Z</time>
      </trkpt>
      <trkpt lat="40.274574" lon="-3.7151275">
        <ele>615.1</ele>
        <time>2021-03-24T16:24:05Z</time>
      </trkpt>
      <trkpt lat="40.27454" lon="-3.7150583">
        <ele>615.1</ele>
        <time>2021-03-24T16:24:06Z</time>
      </trkpt>
      <trkpt lat="40.27451" lon="-3.7149882">
        <ele>615.1</ele>
        <time>2021-03-24T16:24:07Z</time>
      </trkpt>
      <trkpt lat="40.27448" lon="-3.7149184">
        <ele>615.1</ele>
        <time>2021-03-24T16:24:08Z</time>
      </trkpt>
      <trkpt lat="40.274445" lon="-3.7148476">
        <ele>615.1</ele>
        <time>2021-03-24T16:24:09Z</time>
      </trkpt>
      <trkpt lat="40.274414" lon="-3.7147768">
        <ele>615.1</ele>
        <time>2021-03-24T16:24:10Z</time>
      </trkpt>
      <trkpt lat="40.27438" lon="-3.7147067">
        <ele>615.1</ele>
        <time>2021-03-24T16:24:11Z</time>
      </trkpt>
      <trkpt lat="40.274345" lon="-3.714637">
        <ele>613.82</ele>
        <time>2021-03-24T16:24:12Z</time>
      </trkpt>
      <trkpt lat="40.274315" lon="-3.714568">
        <ele>613.82</ele>
        <time>2021-03-24T16:24:13Z</time>
      </trkpt>
      <trkpt lat="40.274284" lon="-3.714499">
        <ele>613.82</ele>
        <time>2021-03-24T16:24:14Z</time>
      </trkpt>
      <trkpt lat="40.27426" lon="-3.714428">
        <ele>613.82</ele>
        <time>2021-03-24T16:24:15Z</time>
      </trkpt>
      <trkpt lat="40.274246" lon="-3.7143533">
        <ele>612.64</ele>
        <time>2021-03-24T16:24:16Z</time>
      </trkpt>
      <trkpt lat="40.274242" lon="-3.714278">
        <ele>612.64</ele>
        <time>2021-03-24T16:24:17Z</time>
      </trkpt>
      <trkpt lat="40.274246" lon="-3.714206">
        <ele>612.64</ele>
        <time>2021-03-24T16:24:18Z</time>
      </trkpt>
      <trkpt lat="40.27426" lon="-3.7141373">
        <ele>612.64</ele>
        <time>2021-03-24T16:24:19Z</time>
      </trkpt>
      <trkpt lat="40.27429" lon="-3.7140741">
        <ele>611.19</ele>
        <time>2021-03-24T16:24:20Z</time>
      </trkpt>
      <trkpt lat="40.27432" lon="-3.7140193">
        <ele>611.19</ele>
        <time>2021-03-24T16:24:21Z</time>
      </trkpt>
      <trkpt lat="40.27441" lon="-3.7139497">
        <ele>611.19</ele>
        <time>2021-03-24T16:24:23Z</time>
      </trkpt>
      <trkpt lat="40.274467" lon="-3.713939">
        <ele>610.01</ele>
        <time>2021-03-24T16:24:24Z</time>
      </trkpt>
      <trkpt lat="40.27452" lon="-3.713944">
        <ele>610.01</ele>
        <time>2021-03-24T16:24:25Z</time>
      </trkpt>
      <trkpt lat="40.27458" lon="-3.7139628">
        <ele>610.01</ele>
        <time>2021-03-24T16:24:26Z</time>
      </trkpt>
      <trkpt lat="40.27463" lon="-3.7139952">
        <ele>610.01</ele>
        <time>2021-03-24T16:24:27Z</time>
      </trkpt>
      <trkpt lat="40.27468" lon="-3.7140384">
        <ele>610.01</ele>
        <time>2021-03-24T16:24:28Z</time>
      </trkpt>
      <trkpt lat="40.274727" lon="-3.7140903">
        <ele>610.01</ele>
        <time>2021-03-24T16:24:29Z</time>
      </trkpt>
      <trkpt lat="40.27477" lon="-3.7141492">
        <ele>610.01</ele>
        <time>2021-03-24T16:24:30Z</time>
      </trkpt>
      <trkpt lat="40.27481" lon="-3.714213">
        <ele>610.01</ele>
        <time>2021-03-24T16:24:31Z</time>
      </trkpt>
      <trkpt lat="40.27485" lon="-3.71428">
        <ele>610.01</ele>
        <time>2021-03-24T16:24:32Z</time>
      </trkpt>
      <trkpt lat="40.274883" lon="-3.7143552">
        <ele>610.01</ele>
        <time>2021-03-24T16:24:33Z</time>
      </trkpt>
      <trkpt lat="40.274918" lon="-3.7144308">
        <ele>610.01</ele>
        <time>2021-03-24T16:24:34Z</time>
      </trkpt>
      <trkpt lat="40.27495" lon="-3.7145052">
        <ele>610.01</ele>
        <time>2021-03-24T16:24:35Z</time>
      </trkpt>
      <trkpt lat="40.27498" lon="-3.7145782">
        <ele>610.01</ele>
        <time>2021-03-24T16:24:36Z</time>
      </trkpt>
      <trkpt lat="40.275" lon="-3.714646">
        <ele>610.01</ele>
        <time>2021-03-24T16:24:37Z</time>
      </trkpt>
      <trkpt lat="40.27503" lon="-3.714719">
        <ele>610.01</ele>
        <time>2021-03-24T16:24:38Z</time>
      </trkpt>
      <trkpt lat="40.275047" lon="-3.7147913">
        <ele>610.01</ele>
        <time>2021-03-24T16:24:39Z</time>
      </trkpt>
      <trkpt lat="40.275066" lon="-3.7148638">
        <ele>610.01</ele>
        <time>2021-03-24T16:24:40Z</time>
      </trkpt>
      <trkpt lat="40.27508" lon="-3.7149343">
        <ele>610.01</ele>
        <time>2021-03-24T16:24:41Z</time>
      </trkpt>
      <trkpt lat="40.275097" lon="-3.7150006">
        <ele>610.01</ele>
        <time>2021-03-24T16:24:42Z</time>
      </trkpt>
      <trkpt lat="40.275127" lon="-3.7151372">
        <ele>610.01</ele>
        <time>2021-03-24T16:24:44Z</time>
      </trkpt>
      <trkpt lat="40.27515" lon="-3.7152042">
        <ele>610.01</ele>
        <time>2021-03-24T16:24:45Z</time>
      </trkpt>
      <trkpt lat="40.275177" lon="-3.7152662">
        <ele>610.01</ele>
        <time>2021-03-24T16:24:46Z</time>
      </trkpt>
      <trkpt lat="40.275208" lon="-3.7153177">
        <ele>610.01</ele>
        <time>2021-03-24T16:24:47Z</time>
      </trkpt>
      <trkpt lat="40.275284" lon="-3.715392">
        <ele>610.01</ele>
        <time>2021-03-24T16:24:49Z</time>
      </trkpt>
      <trkpt lat="40.27536" lon="-3.7154114">
        <ele>610.01</ele>
        <time>2021-03-24T16:24:51Z</time>
      </trkpt>
      <trkpt lat="40.275417" lon="-3.7153783">
        <ele>610.01</ele>
        <time>2021-03-24T16:24:53Z</time>
      </trkpt>
      <trkpt lat="40.275433" lon="-3.7152963">
        <ele>610.01</ele>
        <time>2021-03-24T16:24:55Z</time>
      </trkpt>
      <trkpt lat="40.275417" lon="-3.7151954">
        <ele>610.01</ele>
        <time>2021-03-24T16:24:57Z</time>
      </trkpt>
      <trkpt lat="40.275383" lon="-3.715093">
        <ele>610.01</ele>
        <time>2021-03-24T16:24:59Z</time>
      </trkpt>
      <trkpt lat="40.275337" lon="-3.714979">
        <ele>610.01</ele>
        <time>2021-03-24T16:25:01Z</time>
      </trkpt>
      <trkpt lat="40.275295" lon="-3.714871">
        <ele>610.01</ele>
        <time>2021-03-24T16:25:03Z</time>
      </trkpt>
      <trkpt lat="40.275257" lon="-3.7147634">
        <ele>610.01</ele>
        <time>2021-03-24T16:25:05Z</time>
      </trkpt>
      <trkpt lat="40.275234" lon="-3.71471">
        <ele>610.01</ele>
        <time>2021-03-24T16:25:06Z</time>
      </trkpt>
      <trkpt lat="40.275192" lon="-3.7146034">
        <ele>611.46</ele>
        <time>2021-03-24T16:25:08Z</time>
      </trkpt>
      <trkpt lat="40.275146" lon="-3.714499">
        <ele>611.46</ele>
        <time>2021-03-24T16:25:10Z</time>
      </trkpt>
      <trkpt lat="40.275105" lon="-3.7143967">
        <ele>612.73</ele>
        <time>2021-03-24T16:25:12Z</time>
      </trkpt>
      <trkpt lat="40.27506" lon="-3.7142966">
        <ele>612.73</ele>
        <time>2021-03-24T16:25:14Z</time>
      </trkpt>
      <trkpt lat="40.275017" lon="-3.7141993">
        <ele>612.73</ele>
        <time>2021-03-24T16:25:16Z</time>
      </trkpt>
      <trkpt lat="40.274975" lon="-3.7141025">
        <ele>614.01</ele>
        <time>2021-03-24T16:25:18Z</time>
      </trkpt>
      <trkpt lat="40.274933" lon="-3.7140071">
        <ele>614.01</ele>
        <time>2021-03-24T16:25:20Z</time>
      </trkpt>
      <trkpt lat="40.27489" lon="-3.713909">
        <ele>615.28</ele>
        <time>2021-03-24T16:25:22Z</time>
      </trkpt>
      <trkpt lat="40.274853" lon="-3.713809">
        <ele>615.28</ele>
        <time>2021-03-24T16:25:24Z</time>
      </trkpt>
      <trkpt lat="40.274815" lon="-3.713712">
        <ele>615.28</ele>
        <time>2021-03-24T16:25:26Z</time>
      </trkpt>
      <trkpt lat="40.274773" lon="-3.713614">
        <ele>616.46</ele>
        <time>2021-03-24T16:25:28Z</time>
      </trkpt>
      <trkpt lat="40.274734" lon="-3.713513">
        <ele>616.46</ele>
        <time>2021-03-24T16:25:30Z</time>
      </trkpt>
      <trkpt lat="40.274696" lon="-3.7134058">
        <ele>616.46</ele>
        <time>2021-03-24T16:25:32Z</time>
      </trkpt>
      <trkpt lat="40.274662" lon="-3.7132914">
        <ele>616.46</ele>
        <time>2021-03-24T16:25:34Z</time>
      </trkpt>
      <trkpt lat="40.274628" lon="-3.7131739">
        <ele>616.46</ele>
        <time>2021-03-24T16:25:36Z</time>
      </trkpt>
      <trkpt lat="40.274593" lon="-3.7130532">
        <ele>616.46</ele>
        <time>2021-03-24T16:25:38Z</time>
      </trkpt>
      <trkpt lat="40.27458" lon="-3.7129967">
        <ele>616.46</ele>
        <time>2021-03-24T16:25:39Z</time>
      </trkpt>
      <trkpt lat="40.27454" lon="-3.7129047">
        <ele>616.46</ele>
        <time>2021-03-24T16:25:41Z</time>
      </trkpt>
      <trkpt lat="40.274498" lon="-3.7128587">
        <ele>616.46</ele>
        <time>2021-03-24T16:25:43Z</time>
      </trkpt>
      <trkpt lat="40.274437" lon="-3.712885">
        <ele>616.46</ele>
        <time>2021-03-24T16:25:46Z</time>
      </trkpt>
      <trkpt lat="40.274395" lon="-3.7129476">
        <ele>616.46</ele>
        <time>2021-03-24T16:25:48Z</time>
      </trkpt>
      <trkpt lat="40.274338" lon="-3.713031">
        <ele>616.46</ele>
        <time>2021-03-24T16:25:50Z</time>
      </trkpt>
      <trkpt lat="40.274265" lon="-3.7131264">
        <ele>615.95</ele>
        <time>2021-03-24T16:25:52Z</time>
      </trkpt>
      <trkpt lat="40.274166" lon="-3.7132347">
        <ele>614.41</ele>
        <time>2021-03-24T16:25:54Z</time>
      </trkpt>
      <trkpt lat="40.27411" lon="-3.713292">
        <ele>614.41</ele>
        <time>2021-03-24T16:25:55Z</time>
      </trkpt>
      <trkpt lat="40.27405" lon="-3.713346">
        <ele>614.41</ele>
        <time>2021-03-24T16:25:56Z</time>
      </trkpt>
      <trkpt lat="40.27399" lon="-3.7134013">
        <ele>613.04</ele>
        <time>2021-03-24T16:25:57Z</time>
      </trkpt>
      <trkpt lat="40.273933" lon="-3.7134569">
        <ele>613.04</ele>
        <time>2021-03-24T16:25:58Z</time>
      </trkpt>
      <trkpt lat="40.273872" lon="-3.7135105">
        <ele>613.04</ele>
        <time>2021-03-24T16:25:59Z</time>
      </trkpt>
      <trkpt lat="40.273815" lon="-3.7135653">
        <ele>613.04</ele>
        <time>2021-03-24T16:26:00Z</time>
      </trkpt>
      <trkpt lat="40.27376" lon="-3.713615">
        <ele>613.04</ele>
        <time>2021-03-24T16:26:01Z</time>
      </trkpt>
      <trkpt lat="40.27371" lon="-3.713668">
        <ele>613.04</ele>
        <time>2021-03-24T16:26:02Z</time>
      </trkpt>
      <trkpt lat="40.27366" lon="-3.7137167">
        <ele>613.04</ele>
        <time>2021-03-24T16:26:03Z</time>
      </trkpt>
      <trkpt lat="40.273617" lon="-3.7137663">
        <ele>613.04</ele>
        <time>2021-03-24T16:26:04Z</time>
      </trkpt>
      <trkpt lat="40.27357" lon="-3.7138135">
        <ele>613.04</ele>
        <time>2021-03-24T16:26:05Z</time>
      </trkpt>
      <trkpt lat="40.27349" lon="-3.7139049">
        <ele>613.04</ele>
        <time>2021-03-24T16:26:07Z</time>
      </trkpt>
      <trkpt lat="40.27341" lon="-3.7140043">
        <ele>613.04</ele>
        <time>2021-03-24T16:26:11Z</time>
      </trkpt>
      <trkpt lat="40.27338" lon="-3.714053">
        <ele>613.04</ele>
        <time>2021-03-24T16:26:12Z</time>
      </trkpt>
      <trkpt lat="40.273354" lon="-3.714126">
        <ele>613.04</ele>
        <time>2021-03-24T16:26:14Z</time>
      </trkpt>
      <trkpt lat="40.273304" lon="-3.7142017">
        <ele>613.04</ele>
        <time>2021-03-24T16:26:17Z</time>
      </trkpt>
      <trkpt lat="40.273243" lon="-3.7142537">
        <ele>613.04</ele>
        <time>2021-03-24T16:26:19Z</time>
      </trkpt>
      <trkpt lat="40.273163" lon="-3.7143102">
        <ele>613.04</ele>
        <time>2021-03-24T16:26:21Z</time>
      </trkpt>
      <trkpt lat="40.273075" lon="-3.7143664">
        <ele>613.04</ele>
        <time>2021-03-24T16:26:23Z</time>
      </trkpt>
      <trkpt lat="40.273033" lon="-3.7143936">
        <ele>613.04</ele>
        <time>2021-03-24T16:26:24Z</time>
      </trkpt>
      <trkpt lat="40.27294" lon="-3.714463">
        <ele>613.04</ele>
        <time>2021-03-24T16:26:26Z</time>
      </trkpt>
      <trkpt lat="40.272896" lon="-3.7145019">
        <ele>613.04</ele>
        <time>2021-03-24T16:26:27Z</time>
      </trkpt>
      <trkpt lat="40.27285" lon="-3.7145417">
        <ele>613.04</ele>
        <time>2021-03-24T16:26:28Z</time>
      </trkpt>
      <trkpt lat="40.272808" lon="-3.71458">
        <ele>613.04</ele>
        <time>2021-03-24T16:26:29Z</time>
      </trkpt>
      <trkpt lat="40.272766" lon="-3.71462">
        <ele>613.04</ele>
        <time>2021-03-24T16:26:30Z</time>
      </trkpt>
      <trkpt lat="40.272717" lon="-3.7146614">
        <ele>613.04</ele>
        <time>2021-03-24T16:26:31Z</time>
      </trkpt>
      <trkpt lat="40.272667" lon="-3.7146993">
        <ele>613.04</ele>
        <time>2021-03-24T16:26:32Z</time>
      </trkpt>
      <trkpt lat="40.27261" lon="-3.714739">
        <ele>613.04</ele>
        <time>2021-03-24T16:26:33Z</time>
      </trkpt>
      <trkpt lat="40.272556" lon="-3.7147772">
        <ele>613.04</ele>
        <time>2021-03-24T16:26:34Z</time>
      </trkpt>
      <trkpt lat="40.272503" lon="-3.7148182">
        <ele>613.04</ele>
        <time>2021-03-24T16:26:35Z</time>
      </trkpt>
      <trkpt lat="40.272453" lon="-3.714862">
        <ele>613.04</ele>
        <time>2021-03-24T16:26:36Z</time>
      </trkpt>
      <trkpt lat="40.272404" lon="-3.7149074">
        <ele>613.04</ele>
        <time>2021-03-24T16:26:37Z</time>
      </trkpt>
      <trkpt lat="40.272354" lon="-3.714955">
        <ele>613.04</ele>
        <time>2021-03-24T16:26:38Z</time>
      </trkpt>
      <trkpt lat="40.2723" lon="-3.7150097">
        <ele>613.04</ele>
        <time>2021-03-24T16:26:39Z</time>
      </trkpt>
      <trkpt lat="40.27225" lon="-3.7150607">
        <ele>613.04</ele>
        <time>2021-03-24T16:26:40Z</time>
      </trkpt>
      <trkpt lat="40.272198" lon="-3.7151136">
        <ele>613.04</ele>
        <time>2021-03-24T16:26:41Z</time>
      </trkpt>
      <trkpt lat="40.27215" lon="-3.7151632">
        <ele>613.04</ele>
        <time>2021-03-24T16:26:42Z</time>
      </trkpt>
      <trkpt lat="40.2721" lon="-3.7152116">
        <ele>613.04</ele>
        <time>2021-03-24T16:26:43Z</time>
      </trkpt>
      <trkpt lat="40.272053" lon="-3.7152576">
        <ele>613.04</ele>
        <time>2021-03-24T16:26:44Z</time>
      </trkpt>
      <trkpt lat="40.272003" lon="-3.715301">
        <ele>613.04</ele>
        <time>2021-03-24T16:26:45Z</time>
      </trkpt>
      <trkpt lat="40.271954" lon="-3.7153428">
        <ele>613.04</ele>
        <time>2021-03-24T16:26:46Z</time>
      </trkpt>
      <trkpt lat="40.271904" lon="-3.715385">
        <ele>613.04</ele>
        <time>2021-03-24T16:26:47Z</time>
      </trkpt>
      <trkpt lat="40.271854" lon="-3.715427">
        <ele>611.77</ele>
        <time>2021-03-24T16:26:48Z</time>
      </trkpt>
      <trkpt lat="40.27181" lon="-3.715471">
        <ele>611.77</ele>
        <time>2021-03-24T16:26:49Z</time>
      </trkpt>
      <trkpt lat="40.271767" lon="-3.715517">
        <ele>611.77</ele>
        <time>2021-03-24T16:26:50Z</time>
      </trkpt>
      <trkpt lat="40.271725" lon="-3.7155652">
        <ele>611.77</ele>
        <time>2021-03-24T16:26:51Z</time>
      </trkpt>
      <trkpt lat="40.271687" lon="-3.7156138">
        <ele>611.77</ele>
        <time>2021-03-24T16:26:52Z</time>
      </trkpt>
      <trkpt lat="40.271645" lon="-3.7156627">
        <ele>611.77</ele>
        <time>2021-03-24T16:26:53Z</time>
      </trkpt>
      <trkpt lat="40.271603" lon="-3.7157114">
        <ele>611.77</ele>
        <time>2021-03-24T16:26:54Z</time>
      </trkpt>
      <trkpt lat="40.27156" lon="-3.7157612">
        <ele>611.77</ele>
        <time>2021-03-24T16:26:55Z</time>
      </trkpt>
      <trkpt lat="40.27151" lon="-3.7158153">
        <ele>611.77</ele>
        <time>2021-03-24T16:26:56Z</time>
      </trkpt>
      <trkpt lat="40.271465" lon="-3.7158697">
        <ele>611.77</ele>
        <time>2021-03-24T16:26:57Z</time>
      </trkpt>
      <trkpt lat="40.271416" lon="-3.7159247">
        <ele>611.77</ele>
        <time>2021-03-24T16:26:58Z</time>
      </trkpt>
      <trkpt lat="40.27137" lon="-3.7159767">
        <ele>611.77</ele>
        <time>2021-03-24T16:26:59Z</time>
      </trkpt>
      <trkpt lat="40.27132" lon="-3.7160308">
        <ele>610.59</ele>
        <time>2021-03-24T16:27:00Z</time>
      </trkpt>
      <trkpt lat="40.271275" lon="-3.7160847">
        <ele>610.59</ele>
        <time>2021-03-24T16:27:01Z</time>
      </trkpt>
      <trkpt lat="40.271225" lon="-3.7161393">
        <ele>610.59</ele>
        <time>2021-03-24T16:27:02Z</time>
      </trkpt>
      <trkpt lat="40.271175" lon="-3.716194">
        <ele>610.59</ele>
        <time>2021-03-24T16:27:03Z</time>
      </trkpt>
      <trkpt lat="40.271122" lon="-3.7162492">
        <ele>610.59</ele>
        <time>2021-03-24T16:27:04Z</time>
      </trkpt>
      <trkpt lat="40.271072" lon="-3.7163045">
        <ele>610.59</ele>
        <time>2021-03-24T16:27:05Z</time>
      </trkpt>
      <trkpt lat="40.271023" lon="-3.71636">
        <ele>610.59</ele>
        <time>2021-03-24T16:27:06Z</time>
      </trkpt>
      <trkpt lat="40.27097" lon="-3.716415">
        <ele>610.59</ele>
        <time>2021-03-24T16:27:07Z</time>
      </trkpt>
      <trkpt lat="40.270916" lon="-3.7164714">
        <ele>609.41</ele>
        <time>2021-03-24T16:27:08Z</time>
      </trkpt>
      <trkpt lat="40.270866" lon="-3.7165287">
        <ele>609.41</ele>
        <time>2021-03-24T16:27:09Z</time>
      </trkpt>
      <trkpt lat="40.270817" lon="-3.7165878">
        <ele>609.41</ele>
        <time>2021-03-24T16:27:10Z</time>
      </trkpt>
      <trkpt lat="40.270763" lon="-3.716648">
        <ele>609.41</ele>
        <time>2021-03-24T16:27:11Z</time>
      </trkpt>
      <trkpt lat="40.270714" lon="-3.716709">
        <ele>609.41</ele>
        <time>2021-03-24T16:27:12Z</time>
      </trkpt>
      <trkpt lat="40.27066" lon="-3.7167747">
        <ele>609.41</ele>
        <time>2021-03-24T16:27:13Z</time>
      </trkpt>
      <trkpt lat="40.270607" lon="-3.7168348">
        <ele>609.41</ele>
        <time>2021-03-24T16:27:14Z</time>
      </trkpt>
      <trkpt lat="40.270557" lon="-3.716895">
        <ele>608.23</ele>
        <time>2021-03-24T16:27:15Z</time>
      </trkpt>
      <trkpt lat="40.270504" lon="-3.7169554">
        <ele>608.23</ele>
        <time>2021-03-24T16:27:16Z</time>
      </trkpt>
      <trkpt lat="40.27045" lon="-3.7170153">
        <ele>608.23</ele>
        <time>2021-03-24T16:27:17Z</time>
      </trkpt>
      <trkpt lat="40.270393" lon="-3.7170806">
        <ele>608.23</ele>
        <time>2021-03-24T16:27:18Z</time>
      </trkpt>
      <trkpt lat="40.270344" lon="-3.7171414">
        <ele>608.23</ele>
        <time>2021-03-24T16:27:19Z</time>
      </trkpt>
      <trkpt lat="40.27029" lon="-3.717202">
        <ele>608.23</ele>
        <time>2021-03-24T16:27:20Z</time>
      </trkpt>
      <trkpt lat="40.27024" lon="-3.7172637">
        <ele>608.23</ele>
        <time>2021-03-24T16:27:21Z</time>
      </trkpt>
      <trkpt lat="40.270187" lon="-3.7173254">
        <ele>608.23</ele>
        <time>2021-03-24T16:27:22Z</time>
      </trkpt>
      <trkpt lat="40.270134" lon="-3.717386">
        <ele>607.04</ele>
        <time>2021-03-24T16:27:23Z</time>
      </trkpt>
      <trkpt lat="40.270077" lon="-3.717446">
        <ele>607.04</ele>
        <time>2021-03-24T16:27:24Z</time>
      </trkpt>
      <trkpt lat="40.270023" lon="-3.717507">
        <ele>607.04</ele>
        <time>2021-03-24T16:27:25Z</time>
      </trkpt>
      <trkpt lat="40.26979" lon="-3.717765">
        <ele>607.04</ele>
        <time>2021-03-24T16:27:27Z</time>
      </trkpt>
      <trkpt lat="40.26978" lon="-3.7177763">
        <ele>607.04</ele>
        <time>2021-03-24T16:27:28Z</time>
      </trkpt>
      <trkpt lat="40.269688" lon="-3.717891">
        <ele>607.04</ele>
        <time>2021-03-24T16:27:31Z</time>
      </trkpt>
      <trkpt lat="40.26965" lon="-3.7179418">
        <ele>607.04</ele>
        <time>2021-03-24T16:27:32Z</time>
      </trkpt>
      <trkpt lat="40.269608" lon="-3.717995">
        <ele>607.04</ele>
        <time>2021-03-24T16:27:33Z</time>
      </trkpt>
      <trkpt lat="40.269566" lon="-3.7180476">
        <ele>607.04</ele>
        <time>2021-03-24T16:27:34Z</time>
      </trkpt>
      <trkpt lat="40.269524" lon="-3.718098">
        <ele>607.04</ele>
        <time>2021-03-24T16:27:35Z</time>
      </trkpt>
      <trkpt lat="40.26949" lon="-3.7181456">
        <ele>605.86</ele>
        <time>2021-03-24T16:27:36Z</time>
      </trkpt>
      <trkpt lat="40.269455" lon="-3.7181914">
        <ele>605.86</ele>
        <time>2021-03-24T16:27:37Z</time>
      </trkpt>
      <trkpt lat="40.269394" lon="-3.7182784">
        <ele>605.86</ele>
        <time>2021-03-24T16:27:39Z</time>
      </trkpt>
      <trkpt lat="40.26933" lon="-3.7183554">
        <ele>605.86</ele>
        <time>2021-03-24T16:27:41Z</time>
      </trkpt>
      <trkpt lat="40.26925" lon="-3.718429">
        <ele>604.68</ele>
        <time>2021-03-24T16:27:43Z</time>
      </trkpt>
      <trkpt lat="40.26921" lon="-3.718462">
        <ele>604.68</ele>
        <time>2021-03-24T16:27:44Z</time>
      </trkpt>
      <trkpt lat="40.269123" lon="-3.7185264">
        <ele>604.68</ele>
        <time>2021-03-24T16:27:46Z</time>
      </trkpt>
      <trkpt lat="40.269024" lon="-3.7185864">
        <ele>603.5</ele>
        <time>2021-03-24T16:27:48Z</time>
      </trkpt>
      <trkpt lat="40.26893" lon="-3.7186391">
        <ele>603.5</ele>
        <time>2021-03-24T16:27:50Z</time>
      </trkpt>
      <trkpt lat="40.268883" lon="-3.718664">
        <ele>603.5</ele>
        <time>2021-03-24T16:27:51Z</time>
      </trkpt>
      <trkpt lat="40.268787" lon="-3.718706">
        <ele>603.5</ele>
        <time>2021-03-24T16:27:53Z</time>
      </trkpt>
      <trkpt lat="40.268745" lon="-3.7187233">
        <ele>603.5</ele>
        <time>2021-03-24T16:27:54Z</time>
      </trkpt>
      <trkpt lat="40.268677" lon="-3.71875">
        <ele>603.5</ele>
        <time>2021-03-24T16:27:56Z</time>
      </trkpt>
      <trkpt lat="40.268597" lon="-3.7187781">
        <ele>603.5</ele>
        <time>2021-03-24T16:28:00Z</time>
      </trkpt>
      <trkpt lat="40.268578" lon="-3.718792">
        <ele>603.5</ele>
        <time>2021-03-24T16:28:04Z</time>
      </trkpt>
      <trkpt lat="40.268524" lon="-3.718824">
        <ele>602.32</ele>
        <time>2021-03-24T16:28:10Z</time>
      </trkpt>
      <trkpt lat="40.268467" lon="-3.718843">
        <ele>602.32</ele>
        <time>2021-03-24T16:28:15Z</time>
      </trkpt>
      <trkpt lat="40.2684" lon="-3.7188396">
        <ele>602.32</ele>
        <time>2021-03-24T16:28:18Z</time>
      </trkpt>
      <trkpt lat="40.268333" lon="-3.7188246">
        <ele>602.32</ele>
        <time>2021-03-24T16:28:20Z</time>
      </trkpt>
      <trkpt lat="40.26825" lon="-3.7188065">
        <ele>602.32</ele>
        <time>2021-03-24T16:28:22Z</time>
      </trkpt>
      <trkpt lat="40.268166" lon="-3.7187884">
        <ele>602.32</ele>
        <time>2021-03-24T16:28:24Z</time>
      </trkpt>
      <trkpt lat="40.26807" lon="-3.7187684">
        <ele>602.32</ele>
        <time>2021-03-24T16:28:26Z</time>
      </trkpt>
      <trkpt lat="40.26802" lon="-3.7187574">
        <ele>602.32</ele>
        <time>2021-03-24T16:28:27Z</time>
      </trkpt>
      <trkpt lat="40.267925" lon="-3.7187326">
        <ele>602.32</ele>
        <time>2021-03-24T16:28:29Z</time>
      </trkpt>
      <trkpt lat="40.267838" lon="-3.718702">
        <ele>602.32</ele>
        <time>2021-03-24T16:28:31Z</time>
      </trkpt>
      <trkpt lat="40.267754" lon="-3.7186656">
        <ele>602.32</ele>
        <time>2021-03-24T16:28:33Z</time>
      </trkpt>
      <trkpt lat="40.267673" lon="-3.718632">
        <ele>602.32</ele>
        <time>2021-03-24T16:28:35Z</time>
      </trkpt>
      <trkpt lat="40.267593" lon="-3.7186134">
        <ele>602.32</ele>
        <time>2021-03-24T16:28:37Z</time>
      </trkpt>
      <trkpt lat="40.267494" lon="-3.7185776">
        <ele>602.32</ele>
        <time>2021-03-24T16:28:40Z</time>
      </trkpt>
      <trkpt lat="40.26745" lon="-3.7185583">
        <ele>602.32</ele>
        <time>2021-03-24T16:28:41Z</time>
      </trkpt>
      <trkpt lat="40.267357" lon="-3.7185187">
        <ele>602.32</ele>
        <time>2021-03-24T16:28:43Z</time>
      </trkpt>
      <trkpt lat="40.26731" lon="-3.7184966">
        <ele>602.32</ele>
        <time>2021-03-24T16:28:44Z</time>
      </trkpt>
      <trkpt lat="40.267216" lon="-3.718444">
        <ele>602.32</ele>
        <time>2021-03-24T16:28:46Z</time>
      </trkpt>
      <trkpt lat="40.267124" lon="-3.7183735">
        <ele>602.32</ele>
        <time>2021-03-24T16:28:48Z</time>
      </trkpt>
      <trkpt lat="40.267082" lon="-3.718333">
        <ele>602.32</ele>
        <time>2021-03-24T16:28:49Z</time>
      </trkpt>
      <trkpt lat="40.26704" lon="-3.7182896">
        <ele>602.32</ele>
        <time>2021-03-24T16:28:50Z</time>
      </trkpt>
      <trkpt lat="40.267" lon="-3.7182457">
        <ele>602.32</ele>
        <time>2021-03-24T16:28:51Z</time>
      </trkpt>
      <trkpt lat="40.266956" lon="-3.7182038">
        <ele>602.32</ele>
        <time>2021-03-24T16:28:52Z</time>
      </trkpt>
      <trkpt lat="40.266922" lon="-3.718167">
        <ele>602.32</ele>
        <time>2021-03-24T16:28:53Z</time>
      </trkpt>
      <trkpt lat="40.266872" lon="-3.718111">
        <ele>602.32</ele>
        <time>2021-03-24T16:28:55Z</time>
      </trkpt>
      <trkpt lat="40.266796" lon="-3.7180364">
        <ele>603.28</ele>
        <time>2021-03-24T16:29:01Z</time>
      </trkpt>
      <trkpt lat="40.26674" lon="-3.717969">
        <ele>603.28</ele>
        <time>2021-03-24T16:29:04Z</time>
      </trkpt>
      <trkpt lat="40.26669" lon="-3.7179008">
        <ele>603.28</ele>
        <time>2021-03-24T16:29:06Z</time>
      </trkpt>
      <trkpt lat="40.266624" lon="-3.7178257">
        <ele>603.28</ele>
        <time>2021-03-24T16:29:08Z</time>
      </trkpt>
      <trkpt lat="40.26656" lon="-3.7177408">
        <ele>603.28</ele>
        <time>2021-03-24T16:29:10Z</time>
      </trkpt>
      <trkpt lat="40.266487" lon="-3.7176547">
        <ele>603.28</ele>
        <time>2021-03-24T16:29:12Z</time>
      </trkpt>
      <trkpt lat="40.266445" lon="-3.7176137">
        <ele>603.28</ele>
        <time>2021-03-24T16:29:13Z</time>
      </trkpt>
      <trkpt lat="40.266365" lon="-3.7175367">
        <ele>603.28</ele>
        <time>2021-03-24T16:29:15Z</time>
      </trkpt>
      <trkpt lat="40.266323" lon="-3.7174988">
        <ele>603.28</ele>
        <time>2021-03-24T16:29:16Z</time>
      </trkpt>
      <trkpt lat="40.266243" lon="-3.717423">
        <ele>603.28</ele>
        <time>2021-03-24T16:29:18Z</time>
      </trkpt>
      <trkpt lat="40.266174" lon="-3.7173593">
        <ele>603.28</ele>
        <time>2021-03-24T16:29:20Z</time>
      </trkpt>
      <trkpt lat="40.26611" lon="-3.717295">
        <ele>603.28</ele>
        <time>2021-03-24T16:29:24Z</time>
      </trkpt>
      <trkpt lat="40.266113" lon="-3.717308">
        <ele>603.28</ele>
        <time>2021-03-24T16:30:09Z</time>
      </trkpt>
      <trkpt lat="40.26605" lon="-3.717256">
        <ele>603.28</ele>
        <time>2021-03-24T16:30:17Z</time>
      </trkpt>
      <trkpt lat="40.265995" lon="-3.7172074">
        <ele>603.28</ele>
        <time>2021-03-24T16:30:19Z</time>
      </trkpt>
      <trkpt lat="40.265926" lon="-3.717149">
        <ele>603.28</ele>
        <time>2021-03-24T16:30:21Z</time>
      </trkpt>
      <trkpt lat="40.265846" lon="-3.717084">
        <ele>603.28</ele>
        <time>2021-03-24T16:30:23Z</time>
      </trkpt>
      <trkpt lat="40.265762" lon="-3.7170143">
        <ele>603.28</ele>
        <time>2021-03-24T16:30:25Z</time>
      </trkpt>
      <trkpt lat="40.265675" lon="-3.716936">
        <ele>603.28</ele>
        <time>2021-03-24T16:30:27Z</time>
      </trkpt>
      <trkpt lat="40.265633" lon="-3.7168937">
        <ele>603.28</ele>
        <time>2021-03-24T16:30:28Z</time>
      </trkpt>
      <trkpt lat="40.265587" lon="-3.7168503">
        <ele>603.28</ele>
        <time>2021-03-24T16:30:29Z</time>
      </trkpt>
      <trkpt lat="40.265503" lon="-3.7167628">
        <ele>604.46</ele>
        <time>2021-03-24T16:30:31Z</time>
      </trkpt>
      <trkpt lat="40.265457" lon="-3.7167203">
        <ele>604.46</ele>
        <time>2021-03-24T16:30:32Z</time>
      </trkpt>
      <trkpt lat="40.265415" lon="-3.7166786">
        <ele>604.46</ele>
        <time>2021-03-24T16:30:33Z</time>
      </trkpt>
      <trkpt lat="40.265327" lon="-3.716599">
        <ele>604.46</ele>
        <time>2021-03-24T16:30:35Z</time>
      </trkpt>
      <trkpt lat="40.265285" lon="-3.7165606">
        <ele>604.46</ele>
        <time>2021-03-24T16:30:36Z</time>
      </trkpt>
      <trkpt lat="40.26524" lon="-3.7165225">
        <ele>604.46</ele>
        <time>2021-03-24T16:30:37Z</time>
      </trkpt>
      <trkpt lat="40.265198" lon="-3.716485">
        <ele>604.46</ele>
        <time>2021-03-24T16:30:38Z</time>
      </trkpt>
      <trkpt lat="40.26514" lon="-3.7164354">
        <ele>604.46</ele>
        <time>2021-03-24T16:30:40Z</time>
      </trkpt>
      <trkpt lat="40.265087" lon="-3.7163897">
        <ele>604.46</ele>
        <time>2021-03-24T16:30:41Z</time>
      </trkpt>
      <trkpt lat="40.265034" lon="-3.716347">
        <ele>605.73</ele>
        <time>2021-03-24T16:30:42Z</time>
      </trkpt>
      <trkpt lat="40.264988" lon="-3.716304">
        <ele>605.73</ele>
        <time>2021-03-24T16:30:43Z</time>
      </trkpt>
      <trkpt lat="40.26494" lon="-3.7162614">
        <ele>605.73</ele>
        <time>2021-03-24T16:30:44Z</time>
      </trkpt>
      <trkpt lat="40.264896" lon="-3.7162175">
        <ele>605.73</ele>
        <time>2021-03-24T16:30:45Z</time>
      </trkpt>
      <trkpt lat="40.26485" lon="-3.7161736">
        <ele>605.73</ele>
        <time>2021-03-24T16:30:46Z</time>
      </trkpt>
      <trkpt lat="40.26481" lon="-3.71613">
        <ele>605.73</ele>
        <time>2021-03-24T16:30:47Z</time>
      </trkpt>
      <trkpt lat="40.264763" lon="-3.7160864">
        <ele>605.73</ele>
        <time>2021-03-24T16:30:48Z</time>
      </trkpt>
      <trkpt lat="40.26472" lon="-3.716043">
        <ele>605.73</ele>
        <time>2021-03-24T16:30:49Z</time>
      </trkpt>
      <trkpt lat="40.26468" lon="-3.7159991">
        <ele>607.01</ele>
        <time>2021-03-24T16:30:50Z</time>
      </trkpt>
      <trkpt lat="40.264633" lon="-3.7159557">
        <ele>607.01</ele>
        <time>2021-03-24T16:30:51Z</time>
      </trkpt>
      <trkpt lat="40.26459" lon="-3.715914">
        <ele>607.01</ele>
        <time>2021-03-24T16:30:52Z</time>
      </trkpt>
      <trkpt lat="40.26455" lon="-3.715873">
        <ele>607.01</ele>
        <time>2021-03-24T16:30:53Z</time>
      </trkpt>
      <trkpt lat="40.26446" lon="-3.7157946">
        <ele>607.01</ele>
        <time>2021-03-24T16:30:55Z</time>
      </trkpt>
      <trkpt lat="40.26442" lon="-3.7157578">
        <ele>608.28</ele>
        <time>2021-03-24T16:30:56Z</time>
      </trkpt>
      <trkpt lat="40.264378" lon="-3.7157216">
        <ele>608.28</ele>
        <time>2021-03-24T16:30:57Z</time>
      </trkpt>
      <trkpt lat="40.26429" lon="-3.7156522">
        <ele>608.28</ele>
        <time>2021-03-24T16:30:59Z</time>
      </trkpt>
      <trkpt lat="40.264244" lon="-3.715618">
        <ele>608.28</ele>
        <time>2021-03-24T16:31:00Z</time>
      </trkpt>
      <trkpt lat="40.264202" lon="-3.7155848">
        <ele>608.28</ele>
        <time>2021-03-24T16:31:01Z</time>
      </trkpt>
      <trkpt lat="40.26411" lon="-3.715519">
        <ele>609.55</ele>
        <time>2021-03-24T16:31:03Z</time>
      </trkpt>
      <trkpt lat="40.26407" lon="-3.715486">
        <ele>609.55</ele>
        <time>2021-03-24T16:31:04Z</time>
      </trkpt>
      <trkpt lat="40.263977" lon="-3.7154176">
        <ele>609.55</ele>
        <time>2021-03-24T16:31:06Z</time>
      </trkpt>
      <trkpt lat="40.263935" lon="-3.7153819">
        <ele>609.55</ele>
        <time>2021-03-24T16:31:07Z</time>
      </trkpt>
      <trkpt lat="40.263847" lon="-3.715309">
        <ele>609.55</ele>
        <time>2021-03-24T16:31:09Z</time>
      </trkpt>
      <trkpt lat="40.263805" lon="-3.7152715">
        <ele>609.55</ele>
        <time>2021-03-24T16:31:10Z</time>
      </trkpt>
      <trkpt lat="40.26376" lon="-3.7152328">
        <ele>609.55</ele>
        <time>2021-03-24T16:31:11Z</time>
      </trkpt>
      <trkpt lat="40.263676" lon="-3.7151566">
        <ele>609.55</ele>
        <time>2021-03-24T16:31:13Z</time>
      </trkpt>
      <trkpt lat="40.26363" lon="-3.7151191">
        <ele>609.55</ele>
        <time>2021-03-24T16:31:14Z</time>
      </trkpt>
      <trkpt lat="40.263588" lon="-3.71508">
        <ele>609.55</ele>
        <time>2021-03-24T16:31:15Z</time>
      </trkpt>
      <trkpt lat="40.263542" lon="-3.7150402">
        <ele>609.55</ele>
        <time>2021-03-24T16:31:16Z</time>
      </trkpt>
      <trkpt lat="40.2635" lon="-3.7150009">
        <ele>609.55</ele>
        <time>2021-03-24T16:31:17Z</time>
      </trkpt>
      <trkpt lat="40.263454" lon="-3.7149622">
        <ele>609.55</ele>
        <time>2021-03-24T16:31:18Z</time>
      </trkpt>
      <trkpt lat="40.26341" lon="-3.7149246">
        <ele>609.55</ele>
        <time>2021-03-24T16:31:19Z</time>
      </trkpt>
      <trkpt lat="40.263325" lon="-3.714847">
        <ele>609.55</ele>
        <time>2021-03-24T16:31:21Z</time>
      </trkpt>
      <trkpt lat="40.263283" lon="-3.7148097">
        <ele>609.55</ele>
        <time>2021-03-24T16:31:22Z</time>
      </trkpt>
      <trkpt lat="40.26324" lon="-3.7147717">
        <ele>609.55</ele>
        <time>2021-03-24T16:31:23Z</time>
      </trkpt>
      <trkpt lat="40.26316" lon="-3.714693">
        <ele>609.55</ele>
        <time>2021-03-24T16:31:25Z</time>
      </trkpt>
      <trkpt lat="40.26309" lon="-3.7146094">
        <ele>609.55</ele>
        <time>2021-03-24T16:31:27Z</time>
      </trkpt>
      <trkpt lat="40.263012" lon="-3.7145236">
        <ele>609.55</ele>
        <time>2021-03-24T16:31:29Z</time>
      </trkpt>
      <trkpt lat="40.26293" lon="-3.7144377">
        <ele>609.55</ele>
        <time>2021-03-24T16:31:31Z</time>
      </trkpt>
      <trkpt lat="40.26289" lon="-3.7143958">
        <ele>609.55</ele>
        <time>2021-03-24T16:31:32Z</time>
      </trkpt>
      <trkpt lat="40.26285" lon="-3.7143524">
        <ele>609.55</ele>
        <time>2021-03-24T16:31:33Z</time>
      </trkpt>
      <trkpt lat="40.26277" lon="-3.714259">
        <ele>609.55</ele>
        <time>2021-03-24T16:31:35Z</time>
      </trkpt>
      <trkpt lat="40.262733" lon="-3.71421">
        <ele>609.55</ele>
        <time>2021-03-24T16:31:36Z</time>
      </trkpt>
      <trkpt lat="40.262695" lon="-3.7141597">
        <ele>609.55</ele>
        <time>2021-03-24T16:31:37Z</time>
      </trkpt>
      <trkpt lat="40.262653" lon="-3.7141078">
        <ele>609.55</ele>
        <time>2021-03-24T16:31:38Z</time>
      </trkpt>
      <trkpt lat="40.262493" lon="-3.713895">
        <ele>609.55</ele>
        <time>2021-03-24T16:31:40Z</time>
      </trkpt>
      <trkpt lat="40.26248" lon="-3.7138813">
        <ele>609.55</ele>
        <time>2021-03-24T16:31:41Z</time>
      </trkpt>
      <trkpt lat="40.262394" lon="-3.7137756">
        <ele>609.55</ele>
        <time>2021-03-24T16:31:44Z</time>
      </trkpt>
      <trkpt lat="40.262314" lon="-3.713683">
        <ele>609.55</ele>
        <time>2021-03-24T16:31:46Z</time>
      </trkpt>
      <trkpt lat="40.262268" lon="-3.713635">
        <ele>609.55</ele>
        <time>2021-03-24T16:31:47Z</time>
      </trkpt>
      <trkpt lat="40.262222" lon="-3.7135866">
        <ele>609.55</ele>
        <time>2021-03-24T16:31:48Z</time>
      </trkpt>
      <trkpt lat="40.262177" lon="-3.713539">
        <ele>609.55</ele>
        <time>2021-03-24T16:31:49Z</time>
      </trkpt>
      <trkpt lat="40.26213" lon="-3.713493">
        <ele>609.55</ele>
        <time>2021-03-24T16:31:50Z</time>
      </trkpt>
      <trkpt lat="40.26208" lon="-3.7134476">
        <ele>609.55</ele>
        <time>2021-03-24T16:31:51Z</time>
      </trkpt>
      <trkpt lat="40.26203" lon="-3.713405">
        <ele>609.55</ele>
        <time>2021-03-24T16:31:52Z</time>
      </trkpt>
      <trkpt lat="40.261986" lon="-3.713363">
        <ele>609.55</ele>
        <time>2021-03-24T16:31:53Z</time>
      </trkpt>
      <trkpt lat="40.261936" lon="-3.7133217">
        <ele>609.55</ele>
        <time>2021-03-24T16:31:54Z</time>
      </trkpt>
      <trkpt lat="40.261887" lon="-3.7132792">
        <ele>609.55</ele>
        <time>2021-03-24T16:31:55Z</time>
      </trkpt>
      <trkpt lat="40.261837" lon="-3.713236">
        <ele>609.55</ele>
        <time>2021-03-24T16:31:56Z</time>
      </trkpt>
      <trkpt lat="40.26179" lon="-3.7131913">
        <ele>609.55</ele>
        <time>2021-03-24T16:31:57Z</time>
      </trkpt>
      <trkpt lat="40.261745" lon="-3.7131486">
        <ele>609.55</ele>
        <time>2021-03-24T16:31:58Z</time>
      </trkpt>
      <trkpt lat="40.2617" lon="-3.713108">
        <ele>609.55</ele>
        <time>2021-03-24T16:31:59Z</time>
      </trkpt>
      <trkpt lat="40.26165" lon="-3.713071">
        <ele>609.55</ele>
        <time>2021-03-24T16:32:00Z</time>
      </trkpt>
      <trkpt lat="40.261604" lon="-3.7130356">
        <ele>609.55</ele>
        <time>2021-03-24T16:32:01Z</time>
      </trkpt>
      <trkpt lat="40.261555" lon="-3.7130024">
        <ele>609.55</ele>
        <time>2021-03-24T16:32:02Z</time>
      </trkpt>
      <trkpt lat="40.261505" lon="-3.7129734">
        <ele>609.55</ele>
        <time>2021-03-24T16:32:03Z</time>
      </trkpt>
      <trkpt lat="40.261456" lon="-3.71295">
        <ele>609.55</ele>
        <time>2021-03-24T16:32:04Z</time>
      </trkpt>
      <trkpt lat="40.261402" lon="-3.7129285">
        <ele>609.55</ele>
        <time>2021-03-24T16:32:05Z</time>
      </trkpt>
      <trkpt lat="40.261353" lon="-3.7129076">
        <ele>609.55</ele>
        <time>2021-03-24T16:32:06Z</time>
      </trkpt>
      <trkpt lat="40.2613" lon="-3.7128878">
        <ele>609.55</ele>
        <time>2021-03-24T16:32:07Z</time>
      </trkpt>
      <trkpt lat="40.26125" lon="-3.7128694">
        <ele>610.73</ele>
        <time>2021-03-24T16:32:08Z</time>
      </trkpt>
      <trkpt lat="40.261196" lon="-3.7128513">
        <ele>610.73</ele>
        <time>2021-03-24T16:32:09Z</time>
      </trkpt>
      <trkpt lat="40.261143" lon="-3.7128303">
        <ele>610.73</ele>
        <time>2021-03-24T16:32:10Z</time>
      </trkpt>
      <trkpt lat="40.261093" lon="-3.712804">
        <ele>610.73</ele>
        <time>2021-03-24T16:32:11Z</time>
      </trkpt>
      <trkpt lat="40.261044" lon="-3.7127724">
        <ele>610.73</ele>
        <time>2021-03-24T16:32:12Z</time>
      </trkpt>
      <trkpt lat="40.260998" lon="-3.712735">
        <ele>610.73</ele>
        <time>2021-03-24T16:32:13Z</time>
      </trkpt>
      <trkpt lat="40.260956" lon="-3.7126923">
        <ele>605.15</ele>
        <time>2021-03-24T16:32:14Z</time>
      </trkpt>
      <trkpt lat="40.260918" lon="-3.712646">
        <ele>605.15</ele>
        <time>2021-03-24T16:32:15Z</time>
      </trkpt>
      <trkpt lat="40.26088" lon="-3.712597">
        <ele>605.15</ele>
        <time>2021-03-24T16:32:16Z</time>
      </trkpt>
      <trkpt lat="40.260845" lon="-3.7125454">
        <ele>603.87</ele>
        <time>2021-03-24T16:32:17Z</time>
      </trkpt>
      <trkpt lat="40.260807" lon="-3.7124927">
        <ele>603.87</ele>
        <time>2021-03-24T16:32:18Z</time>
      </trkpt>
      <trkpt lat="40.26077" lon="-3.712441">
        <ele>603.87</ele>
        <time>2021-03-24T16:32:19Z</time>
      </trkpt>
      <trkpt lat="40.260723" lon="-3.7123914">
        <ele>603.87</ele>
        <time>2021-03-24T16:32:20Z</time>
      </trkpt>
      <trkpt lat="40.26068" lon="-3.712344">
        <ele>603.87</ele>
        <time>2021-03-24T16:32:21Z</time>
      </trkpt>
      <trkpt lat="40.260635" lon="-3.7122977">
        <ele>603.87</ele>
        <time>2021-03-24T16:32:22Z</time>
      </trkpt>
      <trkpt lat="40.26059" lon="-3.712254">
        <ele>603.87</ele>
        <time>2021-03-24T16:32:23Z</time>
      </trkpt>
      <trkpt lat="40.260544" lon="-3.7122126">
        <ele>603.87</ele>
        <time>2021-03-24T16:32:24Z</time>
      </trkpt>
      <trkpt lat="40.260498" lon="-3.7121727">
        <ele>603.87</ele>
        <time>2021-03-24T16:32:25Z</time>
      </trkpt>
      <trkpt lat="40.26045" lon="-3.712135">
        <ele>603.87</ele>
        <time>2021-03-24T16:32:26Z</time>
      </trkpt>
      <trkpt lat="40.2604" lon="-3.7121017">
        <ele>603.87</ele>
        <time>2021-03-24T16:32:27Z</time>
      </trkpt>
      <trkpt lat="40.26035" lon="-3.7120726">
        <ele>603.87</ele>
        <time>2021-03-24T16:32:28Z</time>
      </trkpt>
      <trkpt lat="40.2603" lon="-3.712047">
        <ele>603.87</ele>
        <time>2021-03-24T16:32:29Z</time>
      </trkpt>
      <trkpt lat="40.260246" lon="-3.712025">
        <ele>603.87</ele>
        <time>2021-03-24T16:32:30Z</time>
      </trkpt>
      <trkpt lat="40.260193" lon="-3.712005">
        <ele>603.87</ele>
        <time>2021-03-24T16:32:31Z</time>
      </trkpt>
      <trkpt lat="40.26014" lon="-3.7119863">
        <ele>603.87</ele>
        <time>2021-03-24T16:32:32Z</time>
      </trkpt>
      <trkpt lat="40.260086" lon="-3.7119687">
        <ele>603.87</ele>
        <time>2021-03-24T16:32:33Z</time>
      </trkpt>
      <trkpt lat="40.260033" lon="-3.7119517">
        <ele>603.87</ele>
        <time>2021-03-24T16:32:34Z</time>
      </trkpt>
      <trkpt lat="40.259975" lon="-3.7119358">
        <ele>603.87</ele>
        <time>2021-03-24T16:32:35Z</time>
      </trkpt>
      <trkpt lat="40.259922" lon="-3.7119217">
        <ele>603.87</ele>
        <time>2021-03-24T16:32:36Z</time>
      </trkpt>
      <trkpt lat="40.259865" lon="-3.711907">
        <ele>603.87</ele>
        <time>2021-03-24T16:32:37Z</time>
      </trkpt>
      <trkpt lat="40.25981" lon="-3.711892">
        <ele>603.87</ele>
        <time>2021-03-24T16:32:38Z</time>
      </trkpt>
      <trkpt lat="40.259754" lon="-3.7118788">
        <ele>603.87</ele>
        <time>2021-03-24T16:32:39Z</time>
      </trkpt>
      <trkpt lat="40.2597" lon="-3.711868">
        <ele>603.87</ele>
        <time>2021-03-24T16:32:40Z</time>
      </trkpt>
      <trkpt lat="40.25965" lon="-3.711859">
        <ele>603.87</ele>
        <time>2021-03-24T16:32:41Z</time>
      </trkpt>
      <trkpt lat="40.259598" lon="-3.7118497">
        <ele>603.87</ele>
        <time>2021-03-24T16:32:42Z</time>
      </trkpt>
      <trkpt lat="40.25955" lon="-3.711837">
        <ele>603.87</ele>
        <time>2021-03-24T16:32:43Z</time>
      </trkpt>
      <trkpt lat="40.25946" lon="-3.711803">
        <ele>603.87</ele>
        <time>2021-03-24T16:32:45Z</time>
      </trkpt>
      <trkpt lat="40.259373" lon="-3.7117577">
        <ele>603.87</ele>
        <time>2021-03-24T16:32:47Z</time>
      </trkpt>
      <trkpt lat="40.259285" lon="-3.711711">
        <ele>603.87</ele>
        <time>2021-03-24T16:32:49Z</time>
      </trkpt>
      <trkpt lat="40.25924" lon="-3.711691">
        <ele>603.87</ele>
        <time>2021-03-24T16:32:50Z</time>
      </trkpt>
      <trkpt lat="40.259144" lon="-3.7116604">
        <ele>603.87</ele>
        <time>2021-03-24T16:32:52Z</time>
      </trkpt>
      <trkpt lat="40.259098" lon="-3.711651">
        <ele>603.87</ele>
        <time>2021-03-24T16:32:53Z</time>
      </trkpt>
      <trkpt lat="40.259" lon="-3.711637">
        <ele>603.87</ele>
        <time>2021-03-24T16:32:55Z</time>
      </trkpt>
      <trkpt lat="40.258904" lon="-3.7116249">
        <ele>603.87</ele>
        <time>2021-03-24T16:32:57Z</time>
      </trkpt>
      <trkpt lat="40.258858" lon="-3.711619">
        <ele>603.87</ele>
        <time>2021-03-24T16:32:58Z</time>
      </trkpt>
      <trkpt lat="40.25872" lon="-3.7116024">
        <ele>603.87</ele>
        <time>2021-03-24T16:33:01Z</time>
      </trkpt>
      <trkpt lat="40.25863" lon="-3.7115943">
        <ele>603.87</ele>
        <time>2021-03-24T16:33:03Z</time>
      </trkpt>
      <trkpt lat="40.258488" lon="-3.711584">
        <ele>603.87</ele>
        <time>2021-03-24T16:33:06Z</time>
      </trkpt>
      <trkpt lat="40.25839" lon="-3.7115757">
        <ele>603.87</ele>
        <time>2021-03-24T16:33:08Z</time>
      </trkpt>
      <trkpt lat="40.25834" lon="-3.71157">
        <ele>603.87</ele>
        <time>2021-03-24T16:33:09Z</time>
      </trkpt>
      <trkpt lat="40.25824" lon="-3.7115526">
        <ele>603.87</ele>
        <time>2021-03-24T16:33:11Z</time>
      </trkpt>
      <trkpt lat="40.25819" lon="-3.7115407">
        <ele>603.87</ele>
        <time>2021-03-24T16:33:12Z</time>
      </trkpt>
      <trkpt lat="40.258087" lon="-3.7115123">
        <ele>603.87</ele>
        <time>2021-03-24T16:33:14Z</time>
      </trkpt>
      <trkpt lat="40.258038" lon="-3.711495">
        <ele>603.87</ele>
        <time>2021-03-24T16:33:15Z</time>
      </trkpt>
      <trkpt lat="40.257984" lon="-3.711476">
        <ele>603.87</ele>
        <time>2021-03-24T16:33:16Z</time>
      </trkpt>
      <trkpt lat="40.25794" lon="-3.7114546">
        <ele>603.87</ele>
        <time>2021-03-24T16:33:17Z</time>
      </trkpt>
      <trkpt lat="40.257843" lon="-3.711412">
        <ele>603.87</ele>
        <time>2021-03-24T16:33:19Z</time>
      </trkpt>
      <trkpt lat="40.25776" lon="-3.7113764">
        <ele>603.87</ele>
        <time>2021-03-24T16:33:21Z</time>
      </trkpt>
      <trkpt lat="40.25769" lon="-3.7113574">
        <ele>603.87</ele>
        <time>2021-03-24T16:33:23Z</time>
      </trkpt>
      <trkpt lat="40.25764" lon="-3.7113497">
        <ele>603.87</ele>
        <time>2021-03-24T16:33:25Z</time>
      </trkpt>
      <trkpt lat="40.257595" lon="-3.71135">
        <ele>-20000.0</ele>
        <time>2021-03-24T16:34:59Z</time>
      </trkpt>
      <trkpt lat="40.257595" lon="-3.71135">
        <ele>-20000.0</ele>
        <time>2021-03-24T16:35:00Z</time>
      </trkpt>
      <trkpt lat="40.25759" lon="-3.71135">
        <ele>-20000.0</ele>
        <time>2021-03-24T16:35:01Z</time>
      </trkpt>
      <trkpt lat="40.25759" lon="-3.71135">
        <ele>-20000.0</ele>
        <time>2021-03-24T16:35:02Z</time>
      </trkpt>
      <trkpt lat="40.25758" lon="-3.7113476">
        <ele>-20000.0</ele>
        <time>2021-03-24T16:35:03Z</time>
      </trkpt>
      <trkpt lat="40.257565" lon="-3.711344">
        <ele>-20000.0</ele>
        <time>2021-03-24T16:35:04Z</time>
      </trkpt>
      <trkpt lat="40.257538" lon="-3.711339">
        <ele>-20000.0</ele>
        <time>2021-03-24T16:35:05Z</time>
      </trkpt>
      <trkpt lat="40.257507" lon="-3.7113338">
        <ele>-20000.0</ele>
        <time>2021-03-24T16:35:06Z</time>
      </trkpt>
      <trkpt lat="40.257473" lon="-3.7113292">
        <ele>-20000.0</ele>
        <time>2021-03-24T16:35:07Z</time>
      </trkpt>
      <trkpt lat="40.257397" lon="-3.71132">
        <ele>608.94</ele>
        <time>2021-03-24T16:35:09Z</time>
      </trkpt>
      <trkpt lat="40.25731" lon="-3.7113106">
        <ele>608.94</ele>
        <time>2021-03-24T16:35:11Z</time>
      </trkpt>
      <trkpt lat="40.25722" lon="-3.7113056">
        <ele>608.94</ele>
        <time>2021-03-24T16:35:13Z</time>
      </trkpt>
      <trkpt lat="40.257133" lon="-3.7113035">
        <ele>608.94</ele>
        <time>2021-03-24T16:35:15Z</time>
      </trkpt>
      <trkpt lat="40.25705" lon="-3.7113063">
        <ele>608.94</ele>
        <time>2021-03-24T16:35:17Z</time>
      </trkpt>
      <trkpt lat="40.25696" lon="-3.7113135">
        <ele>608.94</ele>
        <time>2021-03-24T16:35:19Z</time>
      </trkpt>
      <trkpt lat="40.256878" lon="-3.7113214">
        <ele>608.94</ele>
        <time>2021-03-24T16:35:21Z</time>
      </trkpt>
      <trkpt lat="40.256798" lon="-3.7113209">
        <ele>608.94</ele>
        <time>2021-03-24T16:35:23Z</time>
      </trkpt>
      <trkpt lat="40.256714" lon="-3.7113147">
        <ele>608.94</ele>
        <time>2021-03-24T16:35:25Z</time>
      </trkpt>
      <trkpt lat="40.256626" lon="-3.7113056">
        <ele>608.94</ele>
        <time>2021-03-24T16:35:27Z</time>
      </trkpt>
      <trkpt lat="40.256535" lon="-3.7112892">
        <ele>608.94</ele>
        <time>2021-03-24T16:35:29Z</time>
      </trkpt>
      <trkpt lat="40.256435" lon="-3.711271">
        <ele>608.94</ele>
        <time>2021-03-24T16:35:31Z</time>
      </trkpt>
      <trkpt lat="40.256332" lon="-3.7112606">
        <ele>608.94</ele>
        <time>2021-03-24T16:35:33Z</time>
      </trkpt>
      <trkpt lat="40.256275" lon="-3.71126">
        <ele>608.94</ele>
        <time>2021-03-24T16:35:34Z</time>
      </trkpt>
      <trkpt lat="40.256218" lon="-3.711262">
        <ele>608.94</ele>
        <time>2021-03-24T16:35:35Z</time>
      </trkpt>
      <trkpt lat="40.25616" lon="-3.7112653">
        <ele>608.94</ele>
        <time>2021-03-24T16:35:36Z</time>
      </trkpt>
      <trkpt lat="40.256104" lon="-3.711268">
        <ele>608.94</ele>
        <time>2021-03-24T16:35:37Z</time>
      </trkpt>
      <trkpt lat="40.256042" lon="-3.7112703">
        <ele>608.94</ele>
        <time>2021-03-24T16:35:38Z</time>
      </trkpt>
      <trkpt lat="40.25598" lon="-3.7112722">
        <ele>608.94</ele>
        <time>2021-03-24T16:35:39Z</time>
      </trkpt>
      <trkpt lat="40.25592" lon="-3.7112737">
        <ele>608.94</ele>
        <time>2021-03-24T16:35:40Z</time>
      </trkpt>
      <trkpt lat="40.25586" lon="-3.711275">
        <ele>608.94</ele>
        <time>2021-03-24T16:35:41Z</time>
      </trkpt>
      <trkpt lat="40.2558" lon="-3.711276">
        <ele>608.94</ele>
        <time>2021-03-24T16:35:42Z</time>
      </trkpt>
      <trkpt lat="40.255737" lon="-3.7112768">
        <ele>608.94</ele>
        <time>2021-03-24T16:35:43Z</time>
      </trkpt>
      <trkpt lat="40.255676" lon="-3.7112777">
        <ele>608.94</ele>
        <time>2021-03-24T16:35:44Z</time>
      </trkpt>
      <trkpt lat="40.25562" lon="-3.71128">
        <ele>608.94</ele>
        <time>2021-03-24T16:35:45Z</time>
      </trkpt>
      <trkpt lat="40.255566" lon="-3.711287">
        <ele>608.94</ele>
        <time>2021-03-24T16:35:46Z</time>
      </trkpt>
      <trkpt lat="40.25552" lon="-3.7113013">
        <ele>608.94</ele>
        <time>2021-03-24T16:35:47Z</time>
      </trkpt>
      <trkpt lat="40.255466" lon="-3.711355">
        <ele>608.94</ele>
        <time>2021-03-24T16:35:49Z</time>
      </trkpt>
      <trkpt lat="40.255447" lon="-3.7114322">
        <ele>608.94</ele>
        <time>2021-03-24T16:35:51Z</time>
      </trkpt>
      <trkpt lat="40.25543" lon="-3.7115173">
        <ele>608.94</ele>
        <time>2021-03-24T16:35:53Z</time>
      </trkpt>
      <trkpt lat="40.25539" lon="-3.71159">
        <ele>608.94</ele>
        <time>2021-03-24T16:35:55Z</time>
      </trkpt>
      <trkpt lat="40.255333" lon="-3.7116487">
        <ele>610.21</ele>
        <time>2021-03-24T16:35:57Z</time>
      </trkpt>
      <trkpt lat="40.25526" lon="-3.711689">
        <ele>610.21</ele>
        <time>2021-03-24T16:35:59Z</time>
      </trkpt>
      <trkpt lat="40.255177" lon="-3.7117124">
        <ele>610.21</ele>
        <time>2021-03-24T16:36:01Z</time>
      </trkpt>
      <trkpt lat="40.25508" lon="-3.7117267">
        <ele>610.21</ele>
        <time>2021-03-24T16:36:03Z</time>
      </trkpt>
      <trkpt lat="40.255035" lon="-3.7117293">
        <ele>610.21</ele>
        <time>2021-03-24T16:36:04Z</time>
      </trkpt>
      <trkpt lat="40.25493" lon="-3.7117302">
        <ele>610.21</ele>
        <time>2021-03-24T16:36:06Z</time>
      </trkpt>
      <trkpt lat="40.25482" lon="-3.71173">
        <ele>610.21</ele>
        <time>2021-03-24T16:36:08Z</time>
      </trkpt>
      <trkpt lat="40.25477" lon="-3.71173">
        <ele>610.21</ele>
        <time>2021-03-24T16:36:09Z</time>
      </trkpt>
      <trkpt lat="40.254715" lon="-3.7117293">
        <ele>610.21</ele>
        <time>2021-03-24T16:36:10Z</time>
      </trkpt>
      <trkpt lat="40.25466" lon="-3.7117283">
        <ele>610.21</ele>
        <time>2021-03-24T16:36:11Z</time>
      </trkpt>
      <trkpt lat="40.25461" lon="-3.7117276">
        <ele>610.21</ele>
        <time>2021-03-24T16:36:12Z</time>
      </trkpt>
      <trkpt lat="40.254555" lon="-3.7117267">
        <ele>610.21</ele>
        <time>2021-03-24T16:36:13Z</time>
      </trkpt>
      <trkpt lat="40.254505" lon="-3.7117267">
        <ele>610.21</ele>
        <time>2021-03-24T16:36:14Z</time>
      </trkpt>
      <trkpt lat="40.25445" lon="-3.7117262">
        <ele>610.21</ele>
        <time>2021-03-24T16:36:15Z</time>
      </trkpt>
      <trkpt lat="40.2544" lon="-3.7117248">
        <ele>610.21</ele>
        <time>2021-03-24T16:36:16Z</time>
      </trkpt>
      <trkpt lat="40.25434" lon="-3.7117236">
        <ele>610.21</ele>
        <time>2021-03-24T16:36:17Z</time>
      </trkpt>
      <trkpt lat="40.254288" lon="-3.7117221">
        <ele>610.21</ele>
        <time>2021-03-24T16:36:18Z</time>
      </trkpt>
      <trkpt lat="40.25423" lon="-3.711721">
        <ele>610.21</ele>
        <time>2021-03-24T16:36:19Z</time>
      </trkpt>
      <trkpt lat="40.254173" lon="-3.71172">
        <ele>610.21</ele>
        <time>2021-03-24T16:36:20Z</time>
      </trkpt>
      <trkpt lat="40.25412" lon="-3.7117193">
        <ele>610.21</ele>
        <time>2021-03-24T16:36:21Z</time>
      </trkpt>
      <trkpt lat="40.254063" lon="-3.711718">
        <ele>610.21</ele>
        <time>2021-03-24T16:36:22Z</time>
      </trkpt>
      <trkpt lat="40.254013" lon="-3.711716">
        <ele>610.21</ele>
        <time>2021-03-24T16:36:23Z</time>
      </trkpt>
      <trkpt lat="40.25391" lon="-3.7117107">
        <ele>610.21</ele>
        <time>2021-03-24T16:36:25Z</time>
      </trkpt>
      <trkpt lat="40.25386" lon="-3.7117088">
        <ele>610.21</ele>
        <time>2021-03-24T16:36:26Z</time>
      </trkpt>
      <trkpt lat="40.253757" lon="-3.7117076">
        <ele>610.21</ele>
        <time>2021-03-24T16:36:28Z</time>
      </trkpt>
      <trkpt lat="40.253704" lon="-3.711708">
        <ele>610.21</ele>
        <time>2021-03-24T16:36:29Z</time>
      </trkpt>
      <trkpt lat="40.253605" lon="-3.7117066">
        <ele>611.39</ele>
        <time>2021-03-24T16:36:31Z</time>
      </trkpt>
      <trkpt lat="40.2535" lon="-3.7117038">
        <ele>611.39</ele>
        <time>2021-03-24T16:36:33Z</time>
      </trkpt>
      <trkpt lat="40.253445" lon="-3.711701">
        <ele>611.39</ele>
        <time>2021-03-24T16:36:34Z</time>
      </trkpt>
      <trkpt lat="40.25339" lon="-3.7116988">
        <ele>611.39</ele>
        <time>2021-03-24T16:36:35Z</time>
      </trkpt>
      <trkpt lat="40.253334" lon="-3.7116969">
        <ele>611.39</ele>
        <time>2021-03-24T16:36:36Z</time>
      </trkpt>
      <trkpt lat="40.25322" lon="-3.711693">
        <ele>611.39</ele>
        <time>2021-03-24T16:36:38Z</time>
      </trkpt>
      <trkpt lat="40.253105" lon="-3.7116892">
        <ele>611.39</ele>
        <time>2021-03-24T16:36:40Z</time>
      </trkpt>
      <trkpt lat="40.253048" lon="-3.7116883">
        <ele>611.39</ele>
        <time>2021-03-24T16:36:41Z</time>
      </trkpt>
      <trkpt lat="40.25299" lon="-3.7116873">
        <ele>611.39</ele>
        <time>2021-03-24T16:36:42Z</time>
      </trkpt>
      <trkpt lat="40.25293" lon="-3.7116854">
        <ele>611.39</ele>
        <time>2021-03-24T16:36:43Z</time>
      </trkpt>
      <trkpt lat="40.252872" lon="-3.7116828">
        <ele>611.39</ele>
        <time>2021-03-24T16:36:44Z</time>
      </trkpt>
      <trkpt lat="40.252815" lon="-3.711681">
        <ele>611.39</ele>
        <time>2021-03-24T16:36:45Z</time>
      </trkpt>
      <trkpt lat="40.252754" lon="-3.7116785">
        <ele>611.39</ele>
        <time>2021-03-24T16:36:46Z</time>
      </trkpt>
      <trkpt lat="40.252697" lon="-3.711676">
        <ele>611.39</ele>
        <time>2021-03-24T16:36:47Z</time>
      </trkpt>
      <trkpt lat="40.25264" lon="-3.7116733">
        <ele>611.39</ele>
        <time>2021-03-24T16:36:48Z</time>
      </trkpt>
      <trkpt lat="40.252583" lon="-3.7116716">
        <ele>611.39</ele>
        <time>2021-03-24T16:36:49Z</time>
      </trkpt>
      <trkpt lat="40.252525" lon="-3.711671">
        <ele>611.39</ele>
        <time>2021-03-24T16:36:50Z</time>
      </trkpt>
      <trkpt lat="40.25247" lon="-3.7116702">
        <ele>611.39</ele>
        <time>2021-03-24T16:36:51Z</time>
      </trkpt>
      <trkpt lat="40.25241" lon="-3.7116706">
        <ele>611.39</ele>
        <time>2021-03-24T16:36:52Z</time>
      </trkpt>
      <trkpt lat="40.25235" lon="-3.7116714">
        <ele>611.39</ele>
        <time>2021-03-24T16:36:53Z</time>
      </trkpt>
      <trkpt lat="40.252293" lon="-3.7116714">
        <ele>611.39</ele>
        <time>2021-03-24T16:36:54Z</time>
      </trkpt>
      <trkpt lat="40.252235" lon="-3.7116704">
        <ele>611.39</ele>
        <time>2021-03-24T16:36:55Z</time>
      </trkpt>
      <trkpt lat="40.25218" lon="-3.7116692">
        <ele>611.39</ele>
        <time>2021-03-24T16:36:56Z</time>
      </trkpt>
      <trkpt lat="40.252117" lon="-3.7116683">
        <ele>611.39</ele>
        <time>2021-03-24T16:36:57Z</time>
      </trkpt>
      <trkpt lat="40.25206" lon="-3.7116673">
        <ele>611.39</ele>
        <time>2021-03-24T16:36:58Z</time>
      </trkpt>
      <trkpt lat="40.252003" lon="-3.7116654">
        <ele>611.39</ele>
        <time>2021-03-24T16:36:59Z</time>
      </trkpt>
      <trkpt lat="40.251945" lon="-3.711663">
        <ele>611.39</ele>
        <time>2021-03-24T16:37:00Z</time>
      </trkpt>
      <trkpt lat="40.251884" lon="-3.7116604">
        <ele>611.39</ele>
        <time>2021-03-24T16:37:01Z</time>
      </trkpt>
      <trkpt lat="40.251827" lon="-3.711658">
        <ele>611.39</ele>
        <time>2021-03-24T16:37:02Z</time>
      </trkpt>
      <trkpt lat="40.251766" lon="-3.7116554">
        <ele>611.39</ele>
        <time>2021-03-24T16:37:03Z</time>
      </trkpt>
      <trkpt lat="40.25171" lon="-3.7116532">
        <ele>611.39</ele>
        <time>2021-03-24T16:37:04Z</time>
      </trkpt>
      <trkpt lat="40.251648" lon="-3.7116501">
        <ele>611.39</ele>
        <time>2021-03-24T16:37:05Z</time>
      </trkpt>
      <trkpt lat="40.251587" lon="-3.711648">
        <ele>611.39</ele>
        <time>2021-03-24T16:37:06Z</time>
      </trkpt>
      <trkpt lat="40.251522" lon="-3.711646">
        <ele>611.39</ele>
        <time>2021-03-24T16:37:07Z</time>
      </trkpt>
      <trkpt lat="40.25146" lon="-3.711644">
        <ele>611.39</ele>
        <time>2021-03-24T16:37:08Z</time>
      </trkpt>
      <trkpt lat="40.2514" lon="-3.711643">
        <ele>608.92</ele>
        <time>2021-03-24T16:37:09Z</time>
      </trkpt>
      <trkpt lat="40.25134" lon="-3.711641">
        <ele>608.92</ele>
        <time>2021-03-24T16:37:10Z</time>
      </trkpt>
      <trkpt lat="40.251274" lon="-3.7116396">
        <ele>608.92</ele>
        <time>2021-03-24T16:37:11Z</time>
      </trkpt>
      <trkpt lat="40.251213" lon="-3.711637">
        <ele>608.92</ele>
        <time>2021-03-24T16:37:12Z</time>
      </trkpt>
      <trkpt lat="40.251152" lon="-3.7116346">
        <ele>608.92</ele>
        <time>2021-03-24T16:37:13Z</time>
      </trkpt>
      <trkpt lat="40.25109" lon="-3.711632">
        <ele>608.92</ele>
        <time>2021-03-24T16:37:14Z</time>
      </trkpt>
      <trkpt lat="40.251026" lon="-3.7116299">
        <ele>608.92</ele>
        <time>2021-03-24T16:37:15Z</time>
      </trkpt>
      <trkpt lat="40.250965" lon="-3.7116268">
        <ele>608.92</ele>
        <time>2021-03-24T16:37:16Z</time>
      </trkpt>
      <trkpt lat="40.2509" lon="-3.711624">
        <ele>608.92</ele>
        <time>2021-03-24T16:37:17Z</time>
      </trkpt>
      <trkpt lat="40.250835" lon="-3.7116218">
        <ele>608.92</ele>
        <time>2021-03-24T16:37:18Z</time>
      </trkpt>
      <trkpt lat="40.25077" lon="-3.7116196">
        <ele>608.92</ele>
        <time>2021-03-24T16:37:19Z</time>
      </trkpt>
      <trkpt lat="40.250706" lon="-3.7116163">
        <ele>608.92</ele>
        <time>2021-03-24T16:37:20Z</time>
      </trkpt>
      <trkpt lat="40.25064" lon="-3.7116127">
        <ele>608.92</ele>
        <time>2021-03-24T16:37:21Z</time>
      </trkpt>
      <trkpt lat="40.25058" lon="-3.7116103">
        <ele>608.92</ele>
        <time>2021-03-24T16:37:22Z</time>
      </trkpt>
      <trkpt lat="40.250515" lon="-3.7116086">
        <ele>608.92</ele>
        <time>2021-03-24T16:37:23Z</time>
      </trkpt>
      <trkpt lat="40.25045" lon="-3.7116067">
        <ele>608.92</ele>
        <time>2021-03-24T16:37:24Z</time>
      </trkpt>
      <trkpt lat="40.250385" lon="-3.711605">
        <ele>608.92</ele>
        <time>2021-03-24T16:37:25Z</time>
      </trkpt>
      <trkpt lat="40.25032" lon="-3.7116024">
        <ele>608.92</ele>
        <time>2021-03-24T16:37:26Z</time>
      </trkpt>
      <trkpt lat="40.25026" lon="-3.7115996">
        <ele>608.92</ele>
        <time>2021-03-24T16:37:27Z</time>
      </trkpt>
      <trkpt lat="40.2502" lon="-3.7115986">
        <ele>608.92</ele>
        <time>2021-03-24T16:37:28Z</time>
      </trkpt>
      <trkpt lat="40.250137" lon="-3.7115977">
        <ele>608.92</ele>
        <time>2021-03-24T16:37:29Z</time>
      </trkpt>
      <trkpt lat="40.250076" lon="-3.7115972">
        <ele>608.92</ele>
        <time>2021-03-24T16:37:30Z</time>
      </trkpt>
      <trkpt lat="40.25002" lon="-3.7115953">
        <ele>608.92</ele>
        <time>2021-03-24T16:37:31Z</time>
      </trkpt>
      <trkpt lat="40.249958" lon="-3.7115934">
        <ele>608.92</ele>
        <time>2021-03-24T16:37:32Z</time>
      </trkpt>
      <trkpt lat="40.249897" lon="-3.711591">
        <ele>608.92</ele>
        <time>2021-03-24T16:37:33Z</time>
      </trkpt>
      <trkpt lat="40.249836" lon="-3.711589">
        <ele>608.92</ele>
        <time>2021-03-24T16:37:34Z</time>
      </trkpt>
      <trkpt lat="40.249775" lon="-3.711587">
        <ele>608.92</ele>
        <time>2021-03-24T16:37:35Z</time>
      </trkpt>
      <trkpt lat="40.249714" lon="-3.7115862">
        <ele>608.92</ele>
        <time>2021-03-24T16:37:36Z</time>
      </trkpt>
      <trkpt lat="40.24965" lon="-3.7115853">
        <ele>608.92</ele>
        <time>2021-03-24T16:37:37Z</time>
      </trkpt>
      <trkpt lat="40.249588" lon="-3.711584">
        <ele>608.92</ele>
        <time>2021-03-24T16:37:38Z</time>
      </trkpt>
      <trkpt lat="40.249523" lon="-3.7115822">
        <ele>608.92</ele>
        <time>2021-03-24T16:37:39Z</time>
      </trkpt>
      <trkpt lat="40.24946" lon="-3.7115803">
        <ele>608.92</ele>
        <time>2021-03-24T16:37:40Z</time>
      </trkpt>
      <trkpt lat="40.249393" lon="-3.711578">
        <ele>608.92</ele>
        <time>2021-03-24T16:37:41Z</time>
      </trkpt>
      <trkpt lat="40.249325" lon="-3.7115753">
        <ele>608.92</ele>
        <time>2021-03-24T16:37:42Z</time>
      </trkpt>
      <trkpt lat="40.24926" lon="-3.7115724">
        <ele>608.92</ele>
        <time>2021-03-24T16:37:43Z</time>
      </trkpt>
      <trkpt lat="40.249195" lon="-3.71157">
        <ele>608.92</ele>
        <time>2021-03-24T16:37:44Z</time>
      </trkpt>
      <trkpt lat="40.249126" lon="-3.711567">
        <ele>608.92</ele>
        <time>2021-03-24T16:37:45Z</time>
      </trkpt>
      <trkpt lat="40.249058" lon="-3.7115648">
        <ele>608.92</ele>
        <time>2021-03-24T16:37:46Z</time>
      </trkpt>
      <trkpt lat="40.248993" lon="-3.711562">
        <ele>608.92</ele>
        <time>2021-03-24T16:37:47Z</time>
      </trkpt>
      <trkpt lat="40.248924" lon="-3.7115598">
        <ele>608.92</ele>
        <time>2021-03-24T16:37:48Z</time>
      </trkpt>
      <trkpt lat="40.24886" lon="-3.7115579">
        <ele>608.92</ele>
        <time>2021-03-24T16:37:49Z</time>
      </trkpt>
      <trkpt lat="40.24879" lon="-3.711556">
        <ele>608.92</ele>
        <time>2021-03-24T16:37:50Z</time>
      </trkpt>
      <trkpt lat="40.248722" lon="-3.7115536">
        <ele>608.92</ele>
        <time>2021-03-24T16:37:51Z</time>
      </trkpt>
      <trkpt lat="40.248653" lon="-3.7115524">
        <ele>608.92</ele>
        <time>2021-03-24T16:37:52Z</time>
      </trkpt>
      <trkpt lat="40.248585" lon="-3.711551">
        <ele>608.92</ele>
        <time>2021-03-24T16:37:53Z</time>
      </trkpt>
      <trkpt lat="40.248516" lon="-3.711549">
        <ele>608.92</ele>
        <time>2021-03-24T16:37:54Z</time>
      </trkpt>
      <trkpt lat="40.24845" lon="-3.7115476">
        <ele>608.92</ele>
        <time>2021-03-24T16:37:55Z</time>
      </trkpt>
      <trkpt lat="40.248383" lon="-3.7115467">
        <ele>608.92</ele>
        <time>2021-03-24T16:37:56Z</time>
      </trkpt>
      <trkpt lat="40.248318" lon="-3.7115457">
        <ele>608.92</ele>
        <time>2021-03-24T16:37:57Z</time>
      </trkpt>
      <trkpt lat="40.24825" lon="-3.7115443">
        <ele>608.92</ele>
        <time>2021-03-24T16:37:58Z</time>
      </trkpt>
      <trkpt lat="40.248184" lon="-3.7115426">
        <ele>608.92</ele>
        <time>2021-03-24T16:37:59Z</time>
      </trkpt>
      <trkpt lat="40.248116" lon="-3.7115407">
        <ele>608.92</ele>
        <time>2021-03-24T16:38:00Z</time>
      </trkpt>
      <trkpt lat="40.24805" lon="-3.7115383">
        <ele>608.92</ele>
        <time>2021-03-24T16:38:01Z</time>
      </trkpt>
      <trkpt lat="40.247986" lon="-3.7115355">
        <ele>608.92</ele>
        <time>2021-03-24T16:38:02Z</time>
      </trkpt>
      <trkpt lat="40.24792" lon="-3.7115338">
        <ele>608.92</ele>
        <time>2021-03-24T16:38:03Z</time>
      </trkpt>
      <trkpt lat="40.247856" lon="-3.7115326">
        <ele>608.92</ele>
        <time>2021-03-24T16:38:04Z</time>
      </trkpt>
      <trkpt lat="40.24779" lon="-3.711531">
        <ele>608.92</ele>
        <time>2021-03-24T16:38:05Z</time>
      </trkpt>
      <trkpt lat="40.247726" lon="-3.71153">
        <ele>608.92</ele>
        <time>2021-03-24T16:38:06Z</time>
      </trkpt>
      <trkpt lat="40.247665" lon="-3.7115293">
        <ele>608.92</ele>
        <time>2021-03-24T16:38:07Z</time>
      </trkpt>
      <trkpt lat="40.247604" lon="-3.7115273">
        <ele>608.92</ele>
        <time>2021-03-24T16:38:08Z</time>
      </trkpt>
      <trkpt lat="40.247543" lon="-3.7115252">
        <ele>608.92</ele>
        <time>2021-03-24T16:38:09Z</time>
      </trkpt>
      <trkpt lat="40.24748" lon="-3.7115223">
        <ele>608.92</ele>
        <time>2021-03-24T16:38:10Z</time>
      </trkpt>
      <trkpt lat="40.247417" lon="-3.7115192">
        <ele>608.92</ele>
        <time>2021-03-24T16:38:11Z</time>
      </trkpt>
      <trkpt lat="40.247356" lon="-3.711516">
        <ele>608.92</ele>
        <time>2021-03-24T16:38:12Z</time>
      </trkpt>
      <trkpt lat="40.24729" lon="-3.711514">
        <ele>608.92</ele>
        <time>2021-03-24T16:38:13Z</time>
      </trkpt>
      <trkpt lat="40.24723" lon="-3.7115126">
        <ele>608.92</ele>
        <time>2021-03-24T16:38:14Z</time>
      </trkpt>
      <trkpt lat="40.24717" lon="-3.7115102">
        <ele>608.92</ele>
        <time>2021-03-24T16:38:15Z</time>
      </trkpt>
      <trkpt lat="40.24711" lon="-3.7115066">
        <ele>608.92</ele>
        <time>2021-03-24T16:38:16Z</time>
      </trkpt>
      <trkpt lat="40.247047" lon="-3.7115014">
        <ele>608.92</ele>
        <time>2021-03-24T16:38:17Z</time>
      </trkpt>
      <trkpt lat="40.246983" lon="-3.7114947">
        <ele>608.92</ele>
        <time>2021-03-24T16:38:18Z</time>
      </trkpt>
      <trkpt lat="40.24692" lon="-3.7114854">
        <ele>608.92</ele>
        <time>2021-03-24T16:38:19Z</time>
      </trkpt>
      <trkpt lat="40.246857" lon="-3.711476">
        <ele>608.92</ele>
        <time>2021-03-24T16:38:20Z</time>
      </trkpt>
      <trkpt lat="40.246796" lon="-3.7114666">
        <ele>608.92</ele>
        <time>2021-03-24T16:38:21Z</time>
      </trkpt>
      <trkpt lat="40.24673" lon="-3.7114573">
        <ele>608.92</ele>
        <time>2021-03-24T16:38:22Z</time>
      </trkpt>
      <trkpt lat="40.24667" lon="-3.7114453">
        <ele>608.92</ele>
        <time>2021-03-24T16:38:23Z</time>
      </trkpt>
      <trkpt lat="40.246613" lon="-3.71143">
        <ele>608.92</ele>
        <time>2021-03-24T16:38:24Z</time>
      </trkpt>
      <trkpt lat="40.24655" lon="-3.7114093">
        <ele>608.92</ele>
        <time>2021-03-24T16:38:25Z</time>
      </trkpt>
      <trkpt lat="40.24649" lon="-3.7113802">
        <ele>608.92</ele>
        <time>2021-03-24T16:38:26Z</time>
      </trkpt>
      <trkpt lat="40.246437" lon="-3.711348">
        <ele>608.92</ele>
        <time>2021-03-24T16:38:27Z</time>
      </trkpt>
      <trkpt lat="40.246384" lon="-3.7113097">
        <ele>608.92</ele>
        <time>2021-03-24T16:38:28Z</time>
      </trkpt>
      <trkpt lat="40.246334" lon="-3.7112672">
        <ele>608.92</ele>
        <time>2021-03-24T16:38:29Z</time>
      </trkpt>
      <trkpt lat="40.24628" lon="-3.7112226">
        <ele>608.92</ele>
        <time>2021-03-24T16:38:30Z</time>
      </trkpt>
      <trkpt lat="40.24623" lon="-3.7111769">
        <ele>608.92</ele>
        <time>2021-03-24T16:38:31Z</time>
      </trkpt>
      <trkpt lat="40.24618" lon="-3.7111337">
        <ele>608.92</ele>
        <time>2021-03-24T16:38:32Z</time>
      </trkpt>
      <trkpt lat="40.24613" lon="-3.7110953">
        <ele>610.1</ele>
        <time>2021-03-24T16:38:33Z</time>
      </trkpt>
      <trkpt lat="40.246082" lon="-3.7110634">
        <ele>610.1</ele>
        <time>2021-03-24T16:38:34Z</time>
      </trkpt>
      <trkpt lat="40.246033" lon="-3.7110388">
        <ele>610.1</ele>
        <time>2021-03-24T16:38:35Z</time>
      </trkpt>
      <trkpt lat="40.245987" lon="-3.7110207">
        <ele>610.1</ele>
        <time>2021-03-24T16:38:36Z</time>
      </trkpt>
      <trkpt lat="40.24591" lon="-3.710998">
        <ele>610.1</ele>
        <time>2021-03-24T16:38:38Z</time>
      </trkpt>
      <trkpt lat="40.24585" lon="-3.7109866">
        <ele>610.1</ele>
        <time>2021-03-24T16:38:40Z</time>
      </trkpt>
      <trkpt lat="40.245796" lon="-3.710982">
        <ele>610.1</ele>
        <time>2021-03-24T16:38:42Z</time>
      </trkpt>
      <trkpt lat="40.245716" lon="-3.7109888">
        <ele>610.1</ele>
        <time>2021-03-24T16:38:45Z</time>
      </trkpt>
      <trkpt lat="40.245647" lon="-3.7109804">
        <ele>610.1</ele>
        <time>2021-03-24T16:38:47Z</time>
      </trkpt>
      <trkpt lat="40.245575" lon="-3.710941">
        <ele>610.1</ele>
        <time>2021-03-24T16:38:49Z</time>
      </trkpt>
      <trkpt lat="40.24549" lon="-3.7108877">
        <ele>610.1</ele>
        <time>2021-03-24T16:38:51Z</time>
      </trkpt>
      <trkpt lat="40.245396" lon="-3.7108324">
        <ele>610.1</ele>
        <time>2021-03-24T16:38:53Z</time>
      </trkpt>
      <trkpt lat="40.24534" lon="-3.7108037">
        <ele>610.1</ele>
        <time>2021-03-24T16:38:54Z</time>
      </trkpt>
      <trkpt lat="40.245285" lon="-3.7107751">
        <ele>610.1</ele>
        <time>2021-03-24T16:38:55Z</time>
      </trkpt>
      <trkpt lat="40.245228" lon="-3.7107453">
        <ele>610.1</ele>
        <time>2021-03-24T16:38:56Z</time>
      </trkpt>
      <trkpt lat="40.24517" lon="-3.7107162">
        <ele>610.1</ele>
        <time>2021-03-24T16:38:57Z</time>
      </trkpt>
      <trkpt lat="40.24511" lon="-3.7106864">
        <ele>610.1</ele>
        <time>2021-03-24T16:38:58Z</time>
      </trkpt>
      <trkpt lat="40.244984" lon="-3.7106252">
        <ele>610.1</ele>
        <time>2021-03-24T16:39:00Z</time>
      </trkpt>
      <trkpt lat="40.24492" lon="-3.7105966">
        <ele>610.1</ele>
        <time>2021-03-24T16:39:01Z</time>
      </trkpt>
      <trkpt lat="40.244858" lon="-3.7105694">
        <ele>610.1</ele>
        <time>2021-03-24T16:39:02Z</time>
      </trkpt>
      <trkpt lat="40.24479" lon="-3.710541">
        <ele>610.1</ele>
        <time>2021-03-24T16:39:03Z</time>
      </trkpt>
      <trkpt lat="40.244724" lon="-3.7105114">
        <ele>610.1</ele>
        <time>2021-03-24T16:39:04Z</time>
      </trkpt>
      <trkpt lat="40.24466" lon="-3.7104797">
        <ele>610.1</ele>
        <time>2021-03-24T16:39:05Z</time>
      </trkpt>
      <trkpt lat="40.244595" lon="-3.710448">
        <ele>610.1</ele>
        <time>2021-03-24T16:39:06Z</time>
      </trkpt>
      <trkpt lat="40.244526" lon="-3.7104173">
        <ele>610.1</ele>
        <time>2021-03-24T16:39:07Z</time>
      </trkpt>
      <trkpt lat="40.24439" lon="-3.7103596">
        <ele>611.1</ele>
        <time>2021-03-24T16:39:09Z</time>
      </trkpt>
      <trkpt lat="40.24432" lon="-3.7103314">
        <ele>611.1</ele>
        <time>2021-03-24T16:39:10Z</time>
      </trkpt>
      <trkpt lat="40.244255" lon="-3.710303">
        <ele>611.1</ele>
        <time>2021-03-24T16:39:11Z</time>
      </trkpt>
      <trkpt lat="40.244186" lon="-3.7102745">
        <ele>611.1</ele>
        <time>2021-03-24T16:39:12Z</time>
      </trkpt>
      <trkpt lat="40.24412" lon="-3.7102468">
        <ele>609.92</ele>
        <time>2021-03-24T16:39:13Z</time>
      </trkpt>
      <trkpt lat="40.24406" lon="-3.71022">
        <ele>609.92</ele>
        <time>2021-03-24T16:39:14Z</time>
      </trkpt>
      <trkpt lat="40.243996" lon="-3.7101946">
        <ele>609.92</ele>
        <time>2021-03-24T16:39:15Z</time>
      </trkpt>
      <trkpt lat="40.243935" lon="-3.7101734">
        <ele>609.92</ele>
        <time>2021-03-24T16:39:16Z</time>
      </trkpt>
      <trkpt lat="40.243877" lon="-3.7101588">
        <ele>609.92</ele>
        <time>2021-03-24T16:39:17Z</time>
      </trkpt>
      <trkpt lat="40.243824" lon="-3.7101524">
        <ele>609.92</ele>
        <time>2021-03-24T16:39:18Z</time>
      </trkpt>
      <trkpt lat="40.243767" lon="-3.7101517">
        <ele>609.92</ele>
        <time>2021-03-24T16:39:19Z</time>
      </trkpt>
      <trkpt lat="40.243717" lon="-3.7101548">
        <ele>609.92</ele>
        <time>2021-03-24T16:39:20Z</time>
      </trkpt>
      <trkpt lat="40.243675" lon="-3.710161">
        <ele>609.92</ele>
        <time>2021-03-24T16:39:21Z</time>
      </trkpt>
      <trkpt lat="40.243603" lon="-3.7101686">
        <ele>609.92</ele>
        <time>2021-03-24T16:39:23Z</time>
      </trkpt>
      <trkpt lat="40.243546" lon="-3.7101505">
        <ele>609.92</ele>
        <time>2021-03-24T16:39:25Z</time>
      </trkpt>
      <trkpt lat="40.2435" lon="-3.7100973">
        <ele>609.92</ele>
        <time>2021-03-24T16:39:27Z</time>
      </trkpt>
      <trkpt lat="40.24346" lon="-3.710007">
        <ele>609.92</ele>
        <time>2021-03-24T16:39:29Z</time>
      </trkpt>
      <trkpt lat="40.243435" lon="-3.7098923">
        <ele>609.92</ele>
        <time>2021-03-24T16:39:31Z</time>
      </trkpt>
      <trkpt lat="40.243416" lon="-3.70983">
        <ele>609.92</ele>
        <time>2021-03-24T16:39:32Z</time>
      </trkpt>
      <trkpt lat="40.24338" lon="-3.709733">
        <ele>609.92</ele>
        <time>2021-03-24T16:39:34Z</time>
      </trkpt>
      <trkpt lat="40.243324" lon="-3.7096887">
        <ele>609.92</ele>
        <time>2021-03-24T16:39:36Z</time>
      </trkpt>
      <trkpt lat="40.243244" lon="-3.7096922">
        <ele>609.92</ele>
        <time>2021-03-24T16:39:38Z</time>
      </trkpt>
      <trkpt lat="40.243145" lon="-3.709717">
        <ele>609.92</ele>
        <time>2021-03-24T16:39:40Z</time>
      </trkpt>
      <trkpt lat="40.24309" lon="-3.709736">
        <ele>609.92</ele>
        <time>2021-03-24T16:39:41Z</time>
      </trkpt>
      <trkpt lat="40.24304" lon="-3.7097588">
        <ele>609.92</ele>
        <time>2021-03-24T16:39:42Z</time>
      </trkpt>
      <trkpt lat="40.242985" lon="-3.7097814">
        <ele>609.92</ele>
        <time>2021-03-24T16:39:43Z</time>
      </trkpt>
      <trkpt lat="40.24293" lon="-3.7097964">
        <ele>609.92</ele>
        <time>2021-03-24T16:39:44Z</time>
      </trkpt>
      <trkpt lat="40.24288" lon="-3.709803">
        <ele>609.92</ele>
        <time>2021-03-24T16:39:45Z</time>
      </trkpt>
      <trkpt lat="40.24278" lon="-3.709785">
        <ele>609.92</ele>
        <time>2021-03-24T16:39:47Z</time>
      </trkpt>
      <trkpt lat="40.242733" lon="-3.7097626">
        <ele>609.92</ele>
        <time>2021-03-24T16:39:48Z</time>
      </trkpt>
      <trkpt lat="40.242638" lon="-3.7096972">
        <ele>611.1</ele>
        <time>2021-03-24T16:39:50Z</time>
      </trkpt>
      <trkpt lat="40.24259" lon="-3.7096567">
        <ele>611.1</ele>
        <time>2021-03-24T16:39:51Z</time>
      </trkpt>
      <trkpt lat="40.242546" lon="-3.7096145">
        <ele>611.1</ele>
        <time>2021-03-24T16:39:52Z</time>
      </trkpt>
      <trkpt lat="40.242496" lon="-3.709572">
        <ele>611.1</ele>
        <time>2021-03-24T16:39:53Z</time>
      </trkpt>
      <trkpt lat="40.24245" lon="-3.709529">
        <ele>611.1</ele>
        <time>2021-03-24T16:39:54Z</time>
      </trkpt>
      <trkpt lat="40.2424" lon="-3.7094867">
        <ele>611.1</ele>
        <time>2021-03-24T16:39:55Z</time>
      </trkpt>
      <trkpt lat="40.242355" lon="-3.7094457">
        <ele>611.1</ele>
        <time>2021-03-24T16:39:56Z</time>
      </trkpt>
      <trkpt lat="40.242306" lon="-3.7094038">
        <ele>611.1</ele>
        <time>2021-03-24T16:39:57Z</time>
      </trkpt>
      <trkpt lat="40.24226" lon="-3.709363">
        <ele>611.1</ele>
        <time>2021-03-24T16:39:58Z</time>
      </trkpt>
      <trkpt lat="40.24221" lon="-3.709323">
        <ele>611.1</ele>
        <time>2021-03-24T16:39:59Z</time>
      </trkpt>
      <trkpt lat="40.24216" lon="-3.709284">
        <ele>611.1</ele>
        <time>2021-03-24T16:40:00Z</time>
      </trkpt>
      <trkpt lat="40.242107" lon="-3.7092423">
        <ele>611.1</ele>
        <time>2021-03-24T16:40:01Z</time>
      </trkpt>
      <trkpt lat="40.242058" lon="-3.7092028">
        <ele>611.1</ele>
        <time>2021-03-24T16:40:02Z</time>
      </trkpt>
      <trkpt lat="40.242004" lon="-3.7091613">
        <ele>611.1</ele>
        <time>2021-03-24T16:40:03Z</time>
      </trkpt>
      <trkpt lat="40.24195" lon="-3.7091186">
        <ele>611.1</ele>
        <time>2021-03-24T16:40:04Z</time>
      </trkpt>
      <trkpt lat="40.241898" lon="-3.709077">
        <ele>611.1</ele>
        <time>2021-03-24T16:40:05Z</time>
      </trkpt>
      <trkpt lat="40.241844" lon="-3.7090366">
        <ele>611.1</ele>
        <time>2021-03-24T16:40:06Z</time>
      </trkpt>
      <trkpt lat="40.241787" lon="-3.708996">
        <ele>611.1</ele>
        <time>2021-03-24T16:40:07Z</time>
      </trkpt>
      <trkpt lat="40.24173" lon="-3.7089567">
        <ele>611.1</ele>
        <time>2021-03-24T16:40:08Z</time>
      </trkpt>
      <trkpt lat="40.241673" lon="-3.7089198">
        <ele>611.1</ele>
        <time>2021-03-24T16:40:09Z</time>
      </trkpt>
      <trkpt lat="40.241615" lon="-3.7088847">
        <ele>611.1</ele>
        <time>2021-03-24T16:40:10Z</time>
      </trkpt>
      <trkpt lat="40.24156" lon="-3.708852">
        <ele>611.1</ele>
        <time>2021-03-24T16:40:11Z</time>
      </trkpt>
      <trkpt lat="40.241505" lon="-3.7088234">
        <ele>611.1</ele>
        <time>2021-03-24T16:40:12Z</time>
      </trkpt>
      <trkpt lat="40.241447" lon="-3.7087953">
        <ele>611.1</ele>
        <time>2021-03-24T16:40:13Z</time>
      </trkpt>
      <trkpt lat="40.24139" lon="-3.70877">
        <ele>611.1</ele>
        <time>2021-03-24T16:40:14Z</time>
      </trkpt>
      <trkpt lat="40.241333" lon="-3.708748">
        <ele>611.1</ele>
        <time>2021-03-24T16:40:15Z</time>
      </trkpt>
      <trkpt lat="40.24128" lon="-3.708728">
        <ele>611.1</ele>
        <time>2021-03-24T16:40:16Z</time>
      </trkpt>
      <trkpt lat="40.24123" lon="-3.7087111">
        <ele>611.1</ele>
        <time>2021-03-24T16:40:17Z</time>
      </trkpt>
      <trkpt lat="40.241184" lon="-3.7086976">
        <ele>611.1</ele>
        <time>2021-03-24T16:40:18Z</time>
      </trkpt>
      <trkpt lat="40.241096" lon="-3.7086778">
        <ele>611.1</ele>
        <time>2021-03-24T16:40:20Z</time>
      </trkpt>
      <trkpt lat="40.241016" lon="-3.7086616">
        <ele>611.1</ele>
        <time>2021-03-24T16:40:22Z</time>
      </trkpt>
      <trkpt lat="40.240963" lon="-3.708641">
        <ele>611.1</ele>
        <time>2021-03-24T16:40:24Z</time>
      </trkpt>
      <trkpt lat="40.240963" lon="-3.7086496">
        <ele>609.92</ele>
        <time>2021-03-24T16:40:32Z</time>
      </trkpt>
      <trkpt lat="40.241024" lon="-3.7086813">
        <ele>609.92</ele>
        <time>2021-03-24T16:40:35Z</time>
      </trkpt>
      <trkpt lat="40.241096" lon="-3.7087173">
        <ele>609.92</ele>
        <time>2021-03-24T16:40:38Z</time>
      </trkpt>
      <trkpt lat="40.241158" lon="-3.708744">
        <ele>611.1</ele>
        <time>2021-03-24T16:40:40Z</time>
      </trkpt>
      <trkpt lat="40.241222" lon="-3.708773">
        <ele>611.1</ele>
        <time>2021-03-24T16:40:42Z</time>
      </trkpt>
      <trkpt lat="40.24129" lon="-3.708807">
        <ele>611.1</ele>
        <time>2021-03-24T16:40:44Z</time>
      </trkpt>
      <trkpt lat="40.241356" lon="-3.708844">
        <ele>612.28</ele>
        <time>2021-03-24T16:40:46Z</time>
      </trkpt>
      <trkpt lat="40.241436" lon="-3.7089047">
        <ele>612.28</ele>
        <time>2021-03-24T16:40:49Z</time>
      </trkpt>
      <trkpt lat="40.24147" lon="-3.7089484">
        <ele>612.28</ele>
        <time>2021-03-24T16:40:51Z</time>
      </trkpt>
      <trkpt lat="40.24148" lon="-3.7090223">
        <ele>613.74</ele>
        <time>2021-03-24T16:40:54Z</time>
      </trkpt>
      <trkpt lat="40.241447" lon="-3.7091033">
        <ele>613.74</ele>
        <time>2021-03-24T16:40:57Z</time>
      </trkpt>
      <trkpt lat="40.241405" lon="-3.7091727">
        <ele>613.74</ele>
        <time>2021-03-24T16:40:59Z</time>
      </trkpt>
      <trkpt lat="40.24136" lon="-3.7092466">
        <ele>614.92</ele>
        <time>2021-03-24T16:41:01Z</time>
      </trkpt>
      <trkpt lat="40.241325" lon="-3.7093158">
        <ele>614.92</ele>
        <time>2021-03-24T16:41:03Z</time>
      </trkpt>
      <trkpt lat="40.241272" lon="-3.7093468">
        <ele>614.92</ele>
        <time>2021-03-24T16:41:06Z</time>
      </trkpt>
      <trkpt lat="40.241177" lon="-3.709293">
        <ele>614.92</ele>
        <time>2021-03-24T16:41:09Z</time>
      </trkpt>
      <trkpt lat="40.241093" lon="-3.7092223">
        <ele>616.68</ele>
        <time>2021-03-24T16:41:11Z</time>
      </trkpt>
      <trkpt lat="40.240986" lon="-3.709132">
        <ele>616.68</ele>
        <time>2021-03-24T16:41:13Z</time>
      </trkpt>
      <trkpt lat="40.24093" lon="-3.7090826">
        <ele>616.68</ele>
        <time>2021-03-24T16:41:14Z</time>
      </trkpt>
      <trkpt lat="40.240868" lon="-3.7090306">
        <ele>615.23</ele>
        <time>2021-03-24T16:41:15Z</time>
      </trkpt>
      <trkpt lat="40.240807" lon="-3.708978">
        <ele>615.23</ele>
        <time>2021-03-24T16:41:16Z</time>
      </trkpt>
      <trkpt lat="40.240746" lon="-3.708925">
        <ele>615.23</ele>
        <time>2021-03-24T16:41:17Z</time>
      </trkpt>
      <trkpt lat="40.240685" lon="-3.7088726">
        <ele>615.23</ele>
        <time>2021-03-24T16:41:18Z</time>
      </trkpt>
      <trkpt lat="40.240623" lon="-3.7088206">
        <ele>615.23</ele>
        <time>2021-03-24T16:41:19Z</time>
      </trkpt>
      <trkpt lat="40.240566" lon="-3.7087703">
        <ele>615.23</ele>
        <time>2021-03-24T16:41:20Z</time>
      </trkpt>
      <trkpt lat="40.24051" lon="-3.7087202">
        <ele>614.05</ele>
        <time>2021-03-24T16:41:21Z</time>
      </trkpt>
      <trkpt lat="40.24045" lon="-3.7086697">
        <ele>614.05</ele>
        <time>2021-03-24T16:41:22Z</time>
      </trkpt>
      <trkpt lat="40.24039" lon="-3.7086196">
        <ele>614.05</ele>
        <time>2021-03-24T16:41:23Z</time>
      </trkpt>
      <trkpt lat="40.240337" lon="-3.708569">
        <ele>614.05</ele>
        <time>2021-03-24T16:41:24Z</time>
      </trkpt>
      <trkpt lat="40.24028" lon="-3.7085176">
        <ele>614.05</ele>
        <time>2021-03-24T16:41:25Z</time>
      </trkpt>
      <trkpt lat="40.240223" lon="-3.7084668">
        <ele>614.05</ele>
        <time>2021-03-24T16:41:26Z</time>
      </trkpt>
      <trkpt lat="40.240166" lon="-3.7084157">
        <ele>614.05</ele>
        <time>2021-03-24T16:41:27Z</time>
      </trkpt>
      <trkpt lat="40.24011" lon="-3.7083647">
        <ele>614.05</ele>
        <time>2021-03-24T16:41:28Z</time>
      </trkpt>
      <trkpt lat="40.240047" lon="-3.7083147">
        <ele>614.05</ele>
        <time>2021-03-24T16:41:29Z</time>
      </trkpt>
      <trkpt lat="40.239994" lon="-3.7082646">
        <ele>614.05</ele>
        <time>2021-03-24T16:41:30Z</time>
      </trkpt>
      <trkpt lat="40.239937" lon="-3.7082167">
        <ele>614.05</ele>
        <time>2021-03-24T16:41:31Z</time>
      </trkpt>
      <trkpt lat="40.239876" lon="-3.7081707">
        <ele>614.05</ele>
        <time>2021-03-24T16:41:32Z</time>
      </trkpt>
      <trkpt lat="40.239815" lon="-3.7081254">
        <ele>614.05</ele>
        <time>2021-03-24T16:41:33Z</time>
      </trkpt>
      <trkpt lat="40.239754" lon="-3.708081">
        <ele>614.05</ele>
        <time>2021-03-24T16:41:34Z</time>
      </trkpt>
      <trkpt lat="40.239693" lon="-3.708037">
        <ele>614.05</ele>
        <time>2021-03-24T16:41:35Z</time>
      </trkpt>
      <trkpt lat="40.23963" lon="-3.707992">
        <ele>614.05</ele>
        <time>2021-03-24T16:41:36Z</time>
      </trkpt>
      <trkpt lat="40.23957" lon="-3.7079458">
        <ele>614.05</ele>
        <time>2021-03-24T16:41:37Z</time>
      </trkpt>
      <trkpt lat="40.23951" lon="-3.7078996">
        <ele>614.05</ele>
        <time>2021-03-24T16:41:38Z</time>
      </trkpt>
      <trkpt lat="40.23945" lon="-3.7078545">
        <ele>614.05</ele>
        <time>2021-03-24T16:41:39Z</time>
      </trkpt>
      <trkpt lat="40.239388" lon="-3.7078097">
        <ele>614.05</ele>
        <time>2021-03-24T16:41:40Z</time>
      </trkpt>
      <trkpt lat="40.239326" lon="-3.7077644">
        <ele>614.05</ele>
        <time>2021-03-24T16:41:41Z</time>
      </trkpt>
      <trkpt lat="40.239265" lon="-3.7077196">
        <ele>614.05</ele>
        <time>2021-03-24T16:41:42Z</time>
      </trkpt>
      <trkpt lat="40.2392" lon="-3.707675">
        <ele>614.05</ele>
        <time>2021-03-24T16:41:43Z</time>
      </trkpt>
      <trkpt lat="40.23914" lon="-3.7076306">
        <ele>614.05</ele>
        <time>2021-03-24T16:41:44Z</time>
      </trkpt>
      <trkpt lat="40.239075" lon="-3.7075872">
        <ele>614.05</ele>
        <time>2021-03-24T16:41:45Z</time>
      </trkpt>
      <trkpt lat="40.23901" lon="-3.7075436">
        <ele>614.05</ele>
        <time>2021-03-24T16:41:46Z</time>
      </trkpt>
      <trkpt lat="40.238945" lon="-3.7074993">
        <ele>614.05</ele>
        <time>2021-03-24T16:41:47Z</time>
      </trkpt>
      <trkpt lat="40.238884" lon="-3.707454">
        <ele>614.05</ele>
        <time>2021-03-24T16:41:48Z</time>
      </trkpt>
      <trkpt lat="40.23882" lon="-3.7074084">
        <ele>614.05</ele>
        <time>2021-03-24T16:41:49Z</time>
      </trkpt>
      <trkpt lat="40.238758" lon="-3.7073627">
        <ele>614.05</ele>
        <time>2021-03-24T16:41:50Z</time>
      </trkpt>
      <trkpt lat="40.238693" lon="-3.7073164">
        <ele>614.05</ele>
        <time>2021-03-24T16:41:51Z</time>
      </trkpt>
      <trkpt lat="40.238632" lon="-3.7072713">
        <ele>614.05</ele>
        <time>2021-03-24T16:41:52Z</time>
      </trkpt>
      <trkpt lat="40.238575" lon="-3.7072248">
        <ele>614.05</ele>
        <time>2021-03-24T16:41:53Z</time>
      </trkpt>
      <trkpt lat="40.238518" lon="-3.7071772">
        <ele>614.05</ele>
        <time>2021-03-24T16:41:54Z</time>
      </trkpt>
      <trkpt lat="40.23846" lon="-3.7071283">
        <ele>614.05</ele>
        <time>2021-03-24T16:41:55Z</time>
      </trkpt>
      <trkpt lat="40.2384" lon="-3.7070787">
        <ele>614.05</ele>
        <time>2021-03-24T16:41:56Z</time>
      </trkpt>
      <trkpt lat="40.238342" lon="-3.7070284">
        <ele>614.05</ele>
        <time>2021-03-24T16:41:57Z</time>
      </trkpt>
      <trkpt lat="40.238285" lon="-3.7069793">
        <ele>614.05</ele>
        <time>2021-03-24T16:41:58Z</time>
      </trkpt>
      <trkpt lat="40.238224" lon="-3.7069297">
        <ele>614.05</ele>
        <time>2021-03-24T16:41:59Z</time>
      </trkpt>
      <trkpt lat="40.238167" lon="-3.7068796">
        <ele>614.05</ele>
        <time>2021-03-24T16:42:00Z</time>
      </trkpt>
      <trkpt lat="40.238106" lon="-3.706831">
        <ele>614.05</ele>
        <time>2021-03-24T16:42:01Z</time>
      </trkpt>
      <trkpt lat="40.23805" lon="-3.7067828">
        <ele>614.05</ele>
        <time>2021-03-24T16:42:02Z</time>
      </trkpt>
      <trkpt lat="40.237995" lon="-3.7067342">
        <ele>614.05</ele>
        <time>2021-03-24T16:42:03Z</time>
      </trkpt>
      <trkpt lat="40.237938" lon="-3.7066858">
        <ele>614.05</ele>
        <time>2021-03-24T16:42:04Z</time>
      </trkpt>
      <trkpt lat="40.237877" lon="-3.7066374">
        <ele>614.05</ele>
        <time>2021-03-24T16:42:05Z</time>
      </trkpt>
      <trkpt lat="40.23782" lon="-3.7065883">
        <ele>612.86</ele>
        <time>2021-03-24T16:42:06Z</time>
      </trkpt>
      <trkpt lat="40.237766" lon="-3.706539">
        <ele>612.86</ele>
        <time>2021-03-24T16:42:07Z</time>
      </trkpt>
      <trkpt lat="40.23771" lon="-3.7064886">
        <ele>612.86</ele>
        <time>2021-03-24T16:42:08Z</time>
      </trkpt>
      <trkpt lat="40.23766" lon="-3.7064364">
        <ele>612.86</ele>
        <time>2021-03-24T16:42:09Z</time>
      </trkpt>
      <trkpt lat="40.237606" lon="-3.7063835">
        <ele>612.86</ele>
        <time>2021-03-24T16:42:10Z</time>
      </trkpt>
      <trkpt lat="40.237556" lon="-3.7063277">
        <ele>612.86</ele>
        <time>2021-03-24T16:42:11Z</time>
      </trkpt>
      <trkpt lat="40.237503" lon="-3.706271">
        <ele>612.86</ele>
        <time>2021-03-24T16:42:12Z</time>
      </trkpt>
      <trkpt lat="40.237453" lon="-3.7062151">
        <ele>612.86</ele>
        <time>2021-03-24T16:42:13Z</time>
      </trkpt>
      <trkpt lat="40.2374" lon="-3.7061586">
        <ele>612.86</ele>
        <time>2021-03-24T16:42:14Z</time>
      </trkpt>
      <trkpt lat="40.23735" lon="-3.7061017">
        <ele>612.86</ele>
        <time>2021-03-24T16:42:15Z</time>
      </trkpt>
      <trkpt lat="40.237297" lon="-3.706044">
        <ele>612.86</ele>
        <time>2021-03-24T16:42:16Z</time>
      </trkpt>
      <trkpt lat="40.237247" lon="-3.7059844">
        <ele>612.86</ele>
        <time>2021-03-24T16:42:17Z</time>
      </trkpt>
      <trkpt lat="40.237194" lon="-3.7059243">
        <ele>612.86</ele>
        <time>2021-03-24T16:42:18Z</time>
      </trkpt>
      <trkpt lat="40.237144" lon="-3.705864">
        <ele>612.86</ele>
        <time>2021-03-24T16:42:19Z</time>
      </trkpt>
      <trkpt lat="40.237095" lon="-3.705804">
        <ele>612.86</ele>
        <time>2021-03-24T16:42:20Z</time>
      </trkpt>
      <trkpt lat="40.23704" lon="-3.705748">
        <ele>612.86</ele>
        <time>2021-03-24T16:42:21Z</time>
      </trkpt>
      <trkpt lat="40.236984" lon="-3.7056983">
        <ele>612.86</ele>
        <time>2021-03-24T16:42:22Z</time>
      </trkpt>
      <trkpt lat="40.236927" lon="-3.7056572">
        <ele>612.86</ele>
        <time>2021-03-24T16:42:23Z</time>
      </trkpt>
      <trkpt lat="40.236866" lon="-3.705627">
        <ele>612.86</ele>
        <time>2021-03-24T16:42:24Z</time>
      </trkpt>
      <trkpt lat="40.2368" lon="-3.7056086">
        <ele>612.86</ele>
        <time>2021-03-24T16:42:25Z</time>
      </trkpt>
      <trkpt lat="40.23674" lon="-3.7056012">
        <ele>612.86</ele>
        <time>2021-03-24T16:42:26Z</time>
      </trkpt>
      <trkpt lat="40.236675" lon="-3.7056026">
        <ele>612.86</ele>
        <time>2021-03-24T16:42:27Z</time>
      </trkpt>
      <trkpt lat="40.23661" lon="-3.7056077">
        <ele>612.86</ele>
        <time>2021-03-24T16:42:28Z</time>
      </trkpt>
      <trkpt lat="40.23655" lon="-3.70561">
        <ele>612.86</ele>
        <time>2021-03-24T16:42:29Z</time>
      </trkpt>
      <trkpt lat="40.236492" lon="-3.7056067">
        <ele>612.86</ele>
        <time>2021-03-24T16:42:30Z</time>
      </trkpt>
      <trkpt lat="40.236435" lon="-3.7055948">
        <ele>612.86</ele>
        <time>2021-03-24T16:42:31Z</time>
      </trkpt>
      <trkpt lat="40.236324" lon="-3.7055442">
        <ele>612.86</ele>
        <time>2021-03-24T16:42:33Z</time>
      </trkpt>
      <trkpt lat="40.23627" lon="-3.7055066">
        <ele>612.86</ele>
        <time>2021-03-24T16:42:34Z</time>
      </trkpt>
      <trkpt lat="40.23622" lon="-3.7054636">
        <ele>612.86</ele>
        <time>2021-03-24T16:42:35Z</time>
      </trkpt>
      <trkpt lat="40.23618" lon="-3.7054152">
        <ele>612.86</ele>
        <time>2021-03-24T16:42:36Z</time>
      </trkpt>
      <trkpt lat="40.236107" lon="-3.7053063">
        <ele>612.86</ele>
        <time>2021-03-24T16:42:38Z</time>
      </trkpt>
      <trkpt lat="40.236088" lon="-3.7052493">
        <ele>611.59</ele>
        <time>2021-03-24T16:42:39Z</time>
      </trkpt>
      <trkpt lat="40.236076" lon="-3.7051456">
        <ele>611.59</ele>
        <time>2021-03-24T16:42:41Z</time>
      </trkpt>
      <trkpt lat="40.2361" lon="-3.7050464">
        <ele>611.59</ele>
        <time>2021-03-24T16:42:43Z</time>
      </trkpt>
      <trkpt lat="40.23613" lon="-3.7049336">
        <ele>611.59</ele>
        <time>2021-03-24T16:42:45Z</time>
      </trkpt>
      <trkpt lat="40.23613" lon="-3.704813">
        <ele>611.59</ele>
        <time>2021-03-24T16:42:47Z</time>
      </trkpt>
      <trkpt lat="40.236088" lon="-3.704693">
        <ele>611.59</ele>
        <time>2021-03-24T16:42:49Z</time>
      </trkpt>
      <trkpt lat="40.23606" lon="-3.7046332">
        <ele>611.59</ele>
        <time>2021-03-24T16:42:50Z</time>
      </trkpt>
      <trkpt lat="40.235996" lon="-3.704515">
        <ele>611.59</ele>
        <time>2021-03-24T16:42:52Z</time>
      </trkpt>
      <trkpt lat="40.23596" lon="-3.7044544">
        <ele>611.59</ele>
        <time>2021-03-24T16:42:53Z</time>
      </trkpt>
      <trkpt lat="40.23592" lon="-3.7043986">
        <ele>611.59</ele>
        <time>2021-03-24T16:42:54Z</time>
      </trkpt>
      <trkpt lat="40.235878" lon="-3.7043426">
        <ele>611.59</ele>
        <time>2021-03-24T16:42:55Z</time>
      </trkpt>
      <trkpt lat="40.235836" lon="-3.7042873">
        <ele>611.59</ele>
        <time>2021-03-24T16:42:56Z</time>
      </trkpt>
      <trkpt lat="40.235794" lon="-3.7042308">
        <ele>611.59</ele>
        <time>2021-03-24T16:42:57Z</time>
      </trkpt>
      <trkpt lat="40.235744" lon="-3.7041693">
        <ele>611.59</ele>
        <time>2021-03-24T16:42:58Z</time>
      </trkpt>
      <trkpt lat="40.2357" lon="-3.704112">
        <ele>611.59</ele>
        <time>2021-03-24T16:42:59Z</time>
      </trkpt>
      <trkpt lat="40.235653" lon="-3.704054">
        <ele>611.59</ele>
        <time>2021-03-24T16:43:00Z</time>
      </trkpt>
      <trkpt lat="40.23561" lon="-3.7039936">
        <ele>611.59</ele>
        <time>2021-03-24T16:43:01Z</time>
      </trkpt>
      <trkpt lat="40.235565" lon="-3.7039316">
        <ele>611.59</ele>
        <time>2021-03-24T16:43:02Z</time>
      </trkpt>
      <trkpt lat="40.23552" lon="-3.7038684">
        <ele>611.59</ele>
        <time>2021-03-24T16:43:03Z</time>
      </trkpt>
      <trkpt lat="40.235474" lon="-3.7038047">
        <ele>611.59</ele>
        <time>2021-03-24T16:43:04Z</time>
      </trkpt>
      <trkpt lat="40.235428" lon="-3.7037406">
        <ele>610.41</ele>
        <time>2021-03-24T16:43:05Z</time>
      </trkpt>
      <trkpt lat="40.235382" lon="-3.7036777">
        <ele>610.41</ele>
        <time>2021-03-24T16:43:06Z</time>
      </trkpt>
      <trkpt lat="40.23534" lon="-3.7036178">
        <ele>610.41</ele>
        <time>2021-03-24T16:43:07Z</time>
      </trkpt>
      <trkpt lat="40.23529" lon="-3.7035606">
        <ele>610.41</ele>
        <time>2021-03-24T16:43:08Z</time>
      </trkpt>
      <trkpt lat="40.23524" lon="-3.703509">
        <ele>610.41</ele>
        <time>2021-03-24T16:43:09Z</time>
      </trkpt>
      <trkpt lat="40.23519" lon="-3.703463">
        <ele>607.88</ele>
        <time>2021-03-24T16:43:10Z</time>
      </trkpt>
      <trkpt lat="40.235138" lon="-3.703421">
        <ele>607.88</ele>
        <time>2021-03-24T16:43:11Z</time>
      </trkpt>
      <trkpt lat="40.23508" lon="-3.703384">
        <ele>607.88</ele>
        <time>2021-03-24T16:43:12Z</time>
      </trkpt>
      <trkpt lat="40.235027" lon="-3.7033494">
        <ele>607.88</ele>
        <time>2021-03-24T16:43:13Z</time>
      </trkpt>
      <trkpt lat="40.23497" lon="-3.703318">
        <ele>607.88</ele>
        <time>2021-03-24T16:43:14Z</time>
      </trkpt>
      <trkpt lat="40.234913" lon="-3.7032886">
        <ele>607.88</ele>
        <time>2021-03-24T16:43:15Z</time>
      </trkpt>
      <trkpt lat="40.23486" lon="-3.703261">
        <ele>607.88</ele>
        <time>2021-03-24T16:43:16Z</time>
      </trkpt>
      <trkpt lat="40.234806" lon="-3.7032337">
        <ele>607.88</ele>
        <time>2021-03-24T16:43:17Z</time>
      </trkpt>
      <trkpt lat="40.23475" lon="-3.703205">
        <ele>607.88</ele>
        <time>2021-03-24T16:43:18Z</time>
      </trkpt>
      <trkpt lat="40.2347" lon="-3.7031791">
        <ele>609.16</ele>
        <time>2021-03-24T16:43:19Z</time>
      </trkpt>
      <trkpt lat="40.234646" lon="-3.7031553">
        <ele>609.16</ele>
        <time>2021-03-24T16:43:20Z</time>
      </trkpt>
      <trkpt lat="40.234596" lon="-3.703136">
        <ele>609.16</ele>
        <time>2021-03-24T16:43:21Z</time>
      </trkpt>
      <trkpt lat="40.234547" lon="-3.7031202">
        <ele>609.16</ele>
        <time>2021-03-24T16:43:22Z</time>
      </trkpt>
      <trkpt lat="40.234493" lon="-3.703109">
        <ele>609.16</ele>
        <time>2021-03-24T16:43:23Z</time>
      </trkpt>
      <trkpt lat="40.234447" lon="-3.7031019">
        <ele>610.43</ele>
        <time>2021-03-24T16:43:24Z</time>
      </trkpt>
      <trkpt lat="40.234356" lon="-3.7030966">
        <ele>610.43</ele>
        <time>2021-03-24T16:43:26Z</time>
      </trkpt>
      <trkpt lat="40.234276" lon="-3.703105">
        <ele>610.43</ele>
        <time>2021-03-24T16:43:28Z</time>
      </trkpt>
      <trkpt lat="40.2342" lon="-3.703122">
        <ele>611.79</ele>
        <time>2021-03-24T16:43:30Z</time>
      </trkpt>
      <trkpt lat="40.23413" lon="-3.7031524">
        <ele>611.79</ele>
        <time>2021-03-24T16:43:32Z</time>
      </trkpt>
      <trkpt lat="40.23405" lon="-3.703207">
        <ele>611.79</ele>
        <time>2021-03-24T16:43:34Z</time>
      </trkpt>
      <trkpt lat="40.23401" lon="-3.7032437">
        <ele>611.79</ele>
        <time>2021-03-24T16:43:35Z</time>
      </trkpt>
      <trkpt lat="40.233913" lon="-3.7033334">
        <ele>611.79</ele>
        <time>2021-03-24T16:43:37Z</time>
      </trkpt>
      <trkpt lat="40.23386" lon="-3.7033873">
        <ele>611.79</ele>
        <time>2021-03-24T16:43:38Z</time>
      </trkpt>
      <trkpt lat="40.233807" lon="-3.703439">
        <ele>611.79</ele>
        <time>2021-03-24T16:43:39Z</time>
      </trkpt>
      <trkpt lat="40.233757" lon="-3.7034924">
        <ele>611.79</ele>
        <time>2021-03-24T16:43:40Z</time>
      </trkpt>
      <trkpt lat="40.233704" lon="-3.7035458">
        <ele>611.79</ele>
        <time>2021-03-24T16:43:41Z</time>
      </trkpt>
      <trkpt lat="40.23365" lon="-3.7036004">
        <ele>611.79</ele>
        <time>2021-03-24T16:43:42Z</time>
      </trkpt>
      <trkpt lat="40.233597" lon="-3.703655">
        <ele>610.61</ele>
        <time>2021-03-24T16:43:43Z</time>
      </trkpt>
      <trkpt lat="40.233543" lon="-3.7037094">
        <ele>610.61</ele>
        <time>2021-03-24T16:43:44Z</time>
      </trkpt>
      <trkpt lat="40.233494" lon="-3.7037632">
        <ele>610.61</ele>
        <time>2021-03-24T16:43:45Z</time>
      </trkpt>
      <trkpt lat="40.233444" lon="-3.703815">
        <ele>610.61</ele>
        <time>2021-03-24T16:43:46Z</time>
      </trkpt>
      <trkpt lat="40.23339" lon="-3.7038684">
        <ele>610.61</ele>
        <time>2021-03-24T16:43:47Z</time>
      </trkpt>
      <trkpt lat="40.23334" lon="-3.7039194">
        <ele>610.61</ele>
        <time>2021-03-24T16:43:48Z</time>
      </trkpt>
      <trkpt lat="40.233295" lon="-3.7039647">
        <ele>610.61</ele>
        <time>2021-03-24T16:43:49Z</time>
      </trkpt>
      <trkpt lat="40.23325" lon="-3.70401">
        <ele>610.61</ele>
        <time>2021-03-24T16:43:50Z</time>
      </trkpt>
      <trkpt lat="40.2332" lon="-3.7040534">
        <ele>610.61</ele>
        <time>2021-03-24T16:43:51Z</time>
      </trkpt>
      <trkpt lat="40.233154" lon="-3.7040966">
        <ele>610.61</ele>
        <time>2021-03-24T16:43:52Z</time>
      </trkpt>
      <trkpt lat="40.233105" lon="-3.704139">
        <ele>610.61</ele>
        <time>2021-03-24T16:43:53Z</time>
      </trkpt>
      <trkpt lat="40.233047" lon="-3.7041826">
        <ele>610.61</ele>
        <time>2021-03-24T16:43:54Z</time>
      </trkpt>
      <trkpt lat="40.232998" lon="-3.704221">
        <ele>610.61</ele>
        <time>2021-03-24T16:43:55Z</time>
      </trkpt>
      <trkpt lat="40.232944" lon="-3.7042584">
        <ele>610.61</ele>
        <time>2021-03-24T16:43:56Z</time>
      </trkpt>
      <trkpt lat="40.232887" lon="-3.704298">
        <ele>610.61</ele>
        <time>2021-03-24T16:43:57Z</time>
      </trkpt>
      <trkpt lat="40.23283" lon="-3.704337">
        <ele>610.61</ele>
        <time>2021-03-24T16:43:58Z</time>
      </trkpt>
      <trkpt lat="40.232773" lon="-3.704377">
        <ele>610.61</ele>
        <time>2021-03-24T16:43:59Z</time>
      </trkpt>
      <trkpt lat="40.232723" lon="-3.704415">
        <ele>610.61</ele>
        <time>2021-03-24T16:44:00Z</time>
      </trkpt>
      <trkpt lat="40.23267" lon="-3.7044563">
        <ele>610.61</ele>
        <time>2021-03-24T16:44:01Z</time>
      </trkpt>
      <trkpt lat="40.23262" lon="-3.7044988">
        <ele>610.61</ele>
        <time>2021-03-24T16:44:02Z</time>
      </trkpt>
      <trkpt lat="40.232563" lon="-3.7045426">
        <ele>610.61</ele>
        <time>2021-03-24T16:44:03Z</time>
      </trkpt>
      <trkpt lat="40.232506" lon="-3.7045844">
        <ele>610.61</ele>
        <time>2021-03-24T16:44:04Z</time>
      </trkpt>
      <trkpt lat="40.232452" lon="-3.7046244">
        <ele>610.61</ele>
        <time>2021-03-24T16:44:05Z</time>
      </trkpt>
      <trkpt lat="40.232395" lon="-3.7046633">
        <ele>610.61</ele>
        <time>2021-03-24T16:44:06Z</time>
      </trkpt>
      <trkpt lat="40.23234" lon="-3.7047017">
        <ele>610.61</ele>
        <time>2021-03-24T16:44:07Z</time>
      </trkpt>
      <trkpt lat="40.23229" lon="-3.704739">
        <ele>610.61</ele>
        <time>2021-03-24T16:44:08Z</time>
      </trkpt>
      <trkpt lat="40.232235" lon="-3.7047765">
        <ele>610.61</ele>
        <time>2021-03-24T16:44:09Z</time>
      </trkpt>
      <trkpt lat="40.23218" lon="-3.7048144">
        <ele>610.61</ele>
        <time>2021-03-24T16:44:10Z</time>
      </trkpt>
      <trkpt lat="40.23213" lon="-3.7048526">
        <ele>610.61</ele>
        <time>2021-03-24T16:44:11Z</time>
      </trkpt>
      <trkpt lat="40.232075" lon="-3.7048924">
        <ele>610.61</ele>
        <time>2021-03-24T16:44:12Z</time>
      </trkpt>
      <trkpt lat="40.231976" lon="-3.7049744">
        <ele>610.61</ele>
        <time>2021-03-24T16:44:14Z</time>
      </trkpt>
      <trkpt lat="40.231922" lon="-3.7050154">
        <ele>610.61</ele>
        <time>2021-03-24T16:44:15Z</time>
      </trkpt>
      <trkpt lat="40.231873" lon="-3.7050557">
        <ele>610.61</ele>
        <time>2021-03-24T16:44:16Z</time>
      </trkpt>
      <trkpt lat="40.231827" lon="-3.7050953">
        <ele>610.61</ele>
        <time>2021-03-24T16:44:17Z</time>
      </trkpt>
      <trkpt lat="40.231777" lon="-3.7051337">
        <ele>610.61</ele>
        <time>2021-03-24T16:44:18Z</time>
      </trkpt>
      <trkpt lat="40.231728" lon="-3.705173">
        <ele>610.61</ele>
        <time>2021-03-24T16:44:19Z</time>
      </trkpt>
      <trkpt lat="40.23168" lon="-3.7052095">
        <ele>610.61</ele>
        <time>2021-03-24T16:44:20Z</time>
      </trkpt>
      <trkpt lat="40.231632" lon="-3.7052495">
        <ele>610.61</ele>
        <time>2021-03-24T16:44:21Z</time>
      </trkpt>
      <trkpt lat="40.231583" lon="-3.7052886">
        <ele>610.61</ele>
        <time>2021-03-24T16:44:22Z</time>
      </trkpt>
      <trkpt lat="40.231537" lon="-3.7053277">
        <ele>610.61</ele>
        <time>2021-03-24T16:44:23Z</time>
      </trkpt>
      <trkpt lat="40.23149" lon="-3.7053638">
        <ele>610.61</ele>
        <time>2021-03-24T16:44:24Z</time>
      </trkpt>
      <trkpt lat="40.23144" lon="-3.7054036">
        <ele>610.61</ele>
        <time>2021-03-24T16:44:25Z</time>
      </trkpt>
      <trkpt lat="40.23139" lon="-3.7054427">
        <ele>610.61</ele>
        <time>2021-03-24T16:44:26Z</time>
      </trkpt>
      <trkpt lat="40.23134" lon="-3.705482">
        <ele>610.61</ele>
        <time>2021-03-24T16:44:27Z</time>
      </trkpt>
      <trkpt lat="40.23129" lon="-3.70552">
        <ele>610.61</ele>
        <time>2021-03-24T16:44:28Z</time>
      </trkpt>
      <trkpt lat="40.231236" lon="-3.7055588">
        <ele>610.61</ele>
        <time>2021-03-24T16:44:29Z</time>
      </trkpt>
      <trkpt lat="40.231186" lon="-3.7055938">
        <ele>610.61</ele>
        <time>2021-03-24T16:44:30Z</time>
      </trkpt>
      <trkpt lat="40.231133" lon="-3.705632">
        <ele>610.61</ele>
        <time>2021-03-24T16:44:31Z</time>
      </trkpt>
      <trkpt lat="40.23108" lon="-3.70567">
        <ele>610.61</ele>
        <time>2021-03-24T16:44:32Z</time>
      </trkpt>
      <trkpt lat="40.231026" lon="-3.7057076">
        <ele>610.61</ele>
        <time>2021-03-24T16:44:33Z</time>
      </trkpt>
      <trkpt lat="40.23097" lon="-3.7057457">
        <ele>610.61</ele>
        <time>2021-03-24T16:44:34Z</time>
      </trkpt>
      <trkpt lat="40.230915" lon="-3.7057827">
        <ele>610.61</ele>
        <time>2021-03-24T16:44:35Z</time>
      </trkpt>
      <trkpt lat="40.23086" lon="-3.7058187">
        <ele>610.61</ele>
        <time>2021-03-24T16:44:36Z</time>
      </trkpt>
      <trkpt lat="40.23081" lon="-3.7058542">
        <ele>610.61</ele>
        <time>2021-03-24T16:44:37Z</time>
      </trkpt>
      <trkpt lat="40.230755" lon="-3.7058892">
        <ele>610.61</ele>
        <time>2021-03-24T16:44:38Z</time>
      </trkpt>
      <trkpt lat="40.2307" lon="-3.7059243">
        <ele>610.61</ele>
        <time>2021-03-24T16:44:39Z</time>
      </trkpt>
      <trkpt lat="40.230648" lon="-3.7059598">
        <ele>610.61</ele>
        <time>2021-03-24T16:44:40Z</time>
      </trkpt>
      <trkpt lat="40.230595" lon="-3.705995">
        <ele>610.61</ele>
        <time>2021-03-24T16:44:41Z</time>
      </trkpt>
      <trkpt lat="40.230545" lon="-3.706031">
        <ele>610.61</ele>
        <time>2021-03-24T16:44:42Z</time>
      </trkpt>
      <trkpt lat="40.23049" lon="-3.7060683">
        <ele>610.61</ele>
        <time>2021-03-24T16:44:43Z</time>
      </trkpt>
      <trkpt lat="40.23044" lon="-3.7061048">
        <ele>610.61</ele>
        <time>2021-03-24T16:44:44Z</time>
      </trkpt>
      <trkpt lat="40.230385" lon="-3.7061412">
        <ele>610.61</ele>
        <time>2021-03-24T16:44:45Z</time>
      </trkpt>
      <trkpt lat="40.230335" lon="-3.706178">
        <ele>610.61</ele>
        <time>2021-03-24T16:44:46Z</time>
      </trkpt>
      <trkpt lat="40.23028" lon="-3.7062142">
        <ele>610.61</ele>
        <time>2021-03-24T16:44:47Z</time>
      </trkpt>
      <trkpt lat="40.23023" lon="-3.7062507">
        <ele>610.61</ele>
        <time>2021-03-24T16:44:48Z</time>
      </trkpt>
      <trkpt lat="40.23018" lon="-3.7062874">
        <ele>610.61</ele>
        <time>2021-03-24T16:44:49Z</time>
      </trkpt>
      <trkpt lat="40.230125" lon="-3.7063236">
        <ele>610.61</ele>
        <time>2021-03-24T16:44:50Z</time>
      </trkpt>
      <trkpt lat="40.230072" lon="-3.7063587">
        <ele>610.61</ele>
        <time>2021-03-24T16:44:51Z</time>
      </trkpt>
      <trkpt lat="40.23002" lon="-3.7063947">
        <ele>610.61</ele>
        <time>2021-03-24T16:44:52Z</time>
      </trkpt>
      <trkpt lat="40.22997" lon="-3.7064314">
        <ele>610.61</ele>
        <time>2021-03-24T16:44:53Z</time>
      </trkpt>
      <trkpt lat="40.229916" lon="-3.7064698">
        <ele>610.61</ele>
        <time>2021-03-24T16:44:54Z</time>
      </trkpt>
      <trkpt lat="40.229866" lon="-3.7065094">
        <ele>610.61</ele>
        <time>2021-03-24T16:44:55Z</time>
      </trkpt>
      <trkpt lat="40.229816" lon="-3.7065513">
        <ele>610.61</ele>
        <time>2021-03-24T16:44:56Z</time>
      </trkpt>
      <trkpt lat="40.229767" lon="-3.706594">
        <ele>610.61</ele>
        <time>2021-03-24T16:44:57Z</time>
      </trkpt>
      <trkpt lat="40.229717" lon="-3.706638">
        <ele>610.61</ele>
        <time>2021-03-24T16:44:58Z</time>
      </trkpt>
      <trkpt lat="40.229668" lon="-3.706683">
        <ele>610.61</ele>
        <time>2021-03-24T16:44:59Z</time>
      </trkpt>
      <trkpt lat="40.22962" lon="-3.7067282">
        <ele>610.61</ele>
        <time>2021-03-24T16:45:00Z</time>
      </trkpt>
      <trkpt lat="40.229576" lon="-3.7067747">
        <ele>610.61</ele>
        <time>2021-03-24T16:45:01Z</time>
      </trkpt>
      <trkpt lat="40.22953" lon="-3.7068224">
        <ele>610.61</ele>
        <time>2021-03-24T16:45:02Z</time>
      </trkpt>
      <trkpt lat="40.229485" lon="-3.70687">
        <ele>610.61</ele>
        <time>2021-03-24T16:45:03Z</time>
      </trkpt>
      <trkpt lat="40.22944" lon="-3.706918">
        <ele>610.61</ele>
        <time>2021-03-24T16:45:04Z</time>
      </trkpt>
      <trkpt lat="40.229393" lon="-3.7069657">
        <ele>610.61</ele>
        <time>2021-03-24T16:45:05Z</time>
      </trkpt>
      <trkpt lat="40.229347" lon="-3.7070124">
        <ele>610.61</ele>
        <time>2021-03-24T16:45:06Z</time>
      </trkpt>
      <trkpt lat="40.2293" lon="-3.7070587">
        <ele>610.61</ele>
        <time>2021-03-24T16:45:07Z</time>
      </trkpt>
      <trkpt lat="40.229256" lon="-3.7071033">
        <ele>610.61</ele>
        <time>2021-03-24T16:45:08Z</time>
      </trkpt>
      <trkpt lat="40.229206" lon="-3.7071466">
        <ele>610.61</ele>
        <time>2021-03-24T16:45:09Z</time>
      </trkpt>
      <trkpt lat="40.22916" lon="-3.707188">
        <ele>606.65</ele>
        <time>2021-03-24T16:45:10Z</time>
      </trkpt>
      <trkpt lat="40.22911" lon="-3.70723">
        <ele>606.65</ele>
        <time>2021-03-24T16:45:11Z</time>
      </trkpt>
      <trkpt lat="40.229065" lon="-3.7072716">
        <ele>606.65</ele>
        <time>2021-03-24T16:45:12Z</time>
      </trkpt>
      <trkpt lat="40.229015" lon="-3.707313">
        <ele>606.65</ele>
        <time>2021-03-24T16:45:13Z</time>
      </trkpt>
      <trkpt lat="40.22897" lon="-3.7073538">
        <ele>606.65</ele>
        <time>2021-03-24T16:45:14Z</time>
      </trkpt>
      <trkpt lat="40.22892" lon="-3.7073963">
        <ele>606.65</ele>
        <time>2021-03-24T16:45:15Z</time>
      </trkpt>
      <trkpt lat="40.22887" lon="-3.7074378">
        <ele>606.65</ele>
        <time>2021-03-24T16:45:16Z</time>
      </trkpt>
      <trkpt lat="40.228825" lon="-3.70748">
        <ele>606.65</ele>
        <time>2021-03-24T16:45:17Z</time>
      </trkpt>
      <trkpt lat="40.228775" lon="-3.7075222">
        <ele>606.65</ele>
        <time>2021-03-24T16:45:18Z</time>
      </trkpt>
      <trkpt lat="40.22873" lon="-3.7075646">
        <ele>606.65</ele>
        <time>2021-03-24T16:45:19Z</time>
      </trkpt>
      <trkpt lat="40.228683" lon="-3.707607">
        <ele>606.65</ele>
        <time>2021-03-24T16:45:20Z</time>
      </trkpt>
      <trkpt lat="40.228634" lon="-3.7076492">
        <ele>606.65</ele>
        <time>2021-03-24T16:45:21Z</time>
      </trkpt>
      <trkpt lat="40.228584" lon="-3.7076924">
        <ele>606.65</ele>
        <time>2021-03-24T16:45:22Z</time>
      </trkpt>
      <trkpt lat="40.22854" lon="-3.7077358">
        <ele>606.65</ele>
        <time>2021-03-24T16:45:23Z</time>
      </trkpt>
      <trkpt lat="40.22849" lon="-3.707779">
        <ele>606.65</ele>
        <time>2021-03-24T16:45:24Z</time>
      </trkpt>
      <trkpt lat="40.228443" lon="-3.7078214">
        <ele>606.65</ele>
        <time>2021-03-24T16:45:25Z</time>
      </trkpt>
      <trkpt lat="40.228394" lon="-3.707863">
        <ele>606.65</ele>
        <time>2021-03-24T16:45:26Z</time>
      </trkpt>
      <trkpt lat="40.228348" lon="-3.7079031">
        <ele>606.65</ele>
        <time>2021-03-24T16:45:27Z</time>
      </trkpt>
      <trkpt lat="40.228306" lon="-3.7079425">
        <ele>606.65</ele>
        <time>2021-03-24T16:45:28Z</time>
      </trkpt>
      <trkpt lat="40.22826" lon="-3.7079828">
        <ele>606.65</ele>
        <time>2021-03-24T16:45:29Z</time>
      </trkpt>
      <trkpt lat="40.228214" lon="-3.708022">
        <ele>606.65</ele>
        <time>2021-03-24T16:45:30Z</time>
      </trkpt>
      <trkpt lat="40.22817" lon="-3.7080617">
        <ele>606.65</ele>
        <time>2021-03-24T16:45:31Z</time>
      </trkpt>
      <trkpt lat="40.228127" lon="-3.708101">
        <ele>606.65</ele>
        <time>2021-03-24T16:45:32Z</time>
      </trkpt>
      <trkpt lat="40.22808" lon="-3.70814">
        <ele>607.83</ele>
        <time>2021-03-24T16:45:33Z</time>
      </trkpt>
      <trkpt lat="40.22804" lon="-3.7081792">
        <ele>607.83</ele>
        <time>2021-03-24T16:45:34Z</time>
      </trkpt>
      <trkpt lat="40.227955" lon="-3.7082586">
        <ele>607.83</ele>
        <time>2021-03-24T16:45:36Z</time>
      </trkpt>
      <trkpt lat="40.227913" lon="-3.7082975">
        <ele>607.83</ele>
        <time>2021-03-24T16:45:37Z</time>
      </trkpt>
      <trkpt lat="40.227833" lon="-3.7083757">
        <ele>607.83</ele>
        <time>2021-03-24T16:45:39Z</time>
      </trkpt>
      <trkpt lat="40.22779" lon="-3.7084153">
        <ele>607.83</ele>
        <time>2021-03-24T16:45:40Z</time>
      </trkpt>
      <trkpt lat="40.22771" lon="-3.7084954">
        <ele>607.83</ele>
        <time>2021-03-24T16:45:42Z</time>
      </trkpt>
      <trkpt lat="40.22767" lon="-3.7085357">
        <ele>607.83</ele>
        <time>2021-03-24T16:45:43Z</time>
      </trkpt>
      <trkpt lat="40.22759" lon="-3.708613">
        <ele>607.83</ele>
        <time>2021-03-24T16:45:45Z</time>
      </trkpt>
      <trkpt lat="40.22751" lon="-3.7086916">
        <ele>607.83</ele>
        <time>2021-03-24T16:45:47Z</time>
      </trkpt>
      <trkpt lat="40.227467" lon="-3.708732">
        <ele>607.83</ele>
        <time>2021-03-24T16:45:48Z</time>
      </trkpt>
      <trkpt lat="40.227386" lon="-3.7088144">
        <ele>607.83</ele>
        <time>2021-03-24T16:45:50Z</time>
      </trkpt>
      <trkpt lat="40.227345" lon="-3.7088556">
        <ele>607.83</ele>
        <time>2021-03-24T16:45:51Z</time>
      </trkpt>
      <trkpt lat="40.227264" lon="-3.708936">
        <ele>609.01</ele>
        <time>2021-03-24T16:45:53Z</time>
      </trkpt>
      <trkpt lat="40.227226" lon="-3.708976">
        <ele>609.01</ele>
        <time>2021-03-24T16:45:54Z</time>
      </trkpt>
      <trkpt lat="40.227146" lon="-3.7090576">
        <ele>609.01</ele>
        <time>2021-03-24T16:45:56Z</time>
      </trkpt>
      <trkpt lat="40.227066" lon="-3.709139">
        <ele>609.01</ele>
        <time>2021-03-24T16:45:58Z</time>
      </trkpt>
      <trkpt lat="40.227028" lon="-3.7091794">
        <ele>609.01</ele>
        <time>2021-03-24T16:45:59Z</time>
      </trkpt>
      <trkpt lat="40.22695" lon="-3.7092597">
        <ele>609.01</ele>
        <time>2021-03-24T16:46:01Z</time>
      </trkpt>
      <trkpt lat="40.226875" lon="-3.709339">
        <ele>610.28</ele>
        <time>2021-03-24T16:46:03Z</time>
      </trkpt>
      <trkpt lat="40.2268" lon="-3.709415">
        <ele>610.28</ele>
        <time>2021-03-24T16:46:05Z</time>
      </trkpt>
      <trkpt lat="40.226727" lon="-3.7094886">
        <ele>610.28</ele>
        <time>2021-03-24T16:46:07Z</time>
      </trkpt>
      <trkpt lat="40.226654" lon="-3.7095587">
        <ele>611.46</ele>
        <time>2021-03-24T16:46:09Z</time>
      </trkpt>
      <trkpt lat="40.226578" lon="-3.709624">
        <ele>611.46</ele>
        <time>2021-03-24T16:46:11Z</time>
      </trkpt>
      <trkpt lat="40.226498" lon="-3.7096865">
        <ele>611.46</ele>
        <time>2021-03-24T16:46:13Z</time>
      </trkpt>
      <trkpt lat="40.22637" lon="-3.7097783">
        <ele>611.46</ele>
        <time>2021-03-24T16:46:16Z</time>
      </trkpt>
      <trkpt lat="40.22628" lon="-3.7098362">
        <ele>611.46</ele>
        <time>2021-03-24T16:46:18Z</time>
      </trkpt>
      <trkpt lat="40.226192" lon="-3.7098923">
        <ele>611.46</ele>
        <time>2021-03-24T16:46:20Z</time>
      </trkpt>
      <trkpt lat="40.2261" lon="-3.709947">
        <ele>611.46</ele>
        <time>2021-03-24T16:46:22Z</time>
      </trkpt>
      <trkpt lat="40.22601" lon="-3.7099993">
        <ele>612.65</ele>
        <time>2021-03-24T16:46:24Z</time>
      </trkpt>
      <trkpt lat="40.225964" lon="-3.7100246">
        <ele>612.65</ele>
        <time>2021-03-24T16:46:25Z</time>
      </trkpt>
      <trkpt lat="40.22587" lon="-3.7100756">
        <ele>612.65</ele>
        <time>2021-03-24T16:46:27Z</time>
      </trkpt>
      <trkpt lat="40.225822" lon="-3.710101">
        <ele>612.65</ele>
        <time>2021-03-24T16:46:28Z</time>
      </trkpt>
      <trkpt lat="40.225723" lon="-3.7101538">
        <ele>612.65</ele>
        <time>2021-03-24T16:46:30Z</time>
      </trkpt>
      <trkpt lat="40.225677" lon="-3.71018">
        <ele>612.65</ele>
        <time>2021-03-24T16:46:31Z</time>
      </trkpt>
      <trkpt lat="40.225628" lon="-3.710207">
        <ele>612.65</ele>
        <time>2021-03-24T16:46:32Z</time>
      </trkpt>
      <trkpt lat="40.22553" lon="-3.7102604">
        <ele>612.65</ele>
        <time>2021-03-24T16:46:34Z</time>
      </trkpt>
      <trkpt lat="40.22548" lon="-3.7102873">
        <ele>612.65</ele>
        <time>2021-03-24T16:46:35Z</time>
      </trkpt>
      <trkpt lat="40.22543" lon="-3.7103143">
        <ele>612.65</ele>
        <time>2021-03-24T16:46:36Z</time>
      </trkpt>
      <trkpt lat="40.225376" lon="-3.7103412">
        <ele>612.65</ele>
        <time>2021-03-24T16:46:37Z</time>
      </trkpt>
      <trkpt lat="40.225327" lon="-3.710367">
        <ele>612.65</ele>
        <time>2021-03-24T16:46:38Z</time>
      </trkpt>
      <trkpt lat="40.22522" lon="-3.7104244">
        <ele>612.65</ele>
        <time>2021-03-24T16:46:40Z</time>
      </trkpt>
      <trkpt lat="40.225166" lon="-3.710453">
        <ele>612.65</ele>
        <time>2021-03-24T16:46:41Z</time>
      </trkpt>
      <trkpt lat="40.225113" lon="-3.710482">
        <ele>612.65</ele>
        <time>2021-03-24T16:46:42Z</time>
      </trkpt>
      <trkpt lat="40.22506" lon="-3.710512">
        <ele>612.65</ele>
        <time>2021-03-24T16:46:43Z</time>
      </trkpt>
      <trkpt lat="40.225002" lon="-3.710542">
        <ele>612.65</ele>
        <time>2021-03-24T16:46:44Z</time>
      </trkpt>
      <trkpt lat="40.22495" lon="-3.7105718">
        <ele>612.65</ele>
        <time>2021-03-24T16:46:45Z</time>
      </trkpt>
      <trkpt lat="40.22489" lon="-3.7106016">
        <ele>612.65</ele>
        <time>2021-03-24T16:46:46Z</time>
      </trkpt>
      <trkpt lat="40.22484" lon="-3.7106314">
        <ele>612.65</ele>
        <time>2021-03-24T16:46:47Z</time>
      </trkpt>
      <trkpt lat="40.224785" lon="-3.7106607">
        <ele>612.65</ele>
        <time>2021-03-24T16:46:48Z</time>
      </trkpt>
      <trkpt lat="40.224728" lon="-3.71069">
        <ele>612.65</ele>
        <time>2021-03-24T16:46:49Z</time>
      </trkpt>
      <trkpt lat="40.224674" lon="-3.710719">
        <ele>612.65</ele>
        <time>2021-03-24T16:46:50Z</time>
      </trkpt>
      <trkpt lat="40.22462" lon="-3.7107458">
        <ele>612.65</ele>
        <time>2021-03-24T16:46:51Z</time>
      </trkpt>
      <trkpt lat="40.22457" lon="-3.7107732">
        <ele>612.65</ele>
        <time>2021-03-24T16:46:52Z</time>
      </trkpt>
      <trkpt lat="40.224514" lon="-3.7108033">
        <ele>612.65</ele>
        <time>2021-03-24T16:46:53Z</time>
      </trkpt>
      <trkpt lat="40.22446" lon="-3.7108324">
        <ele>612.65</ele>
        <time>2021-03-24T16:46:54Z</time>
      </trkpt>
      <trkpt lat="40.224407" lon="-3.7108603">
        <ele>612.65</ele>
        <time>2021-03-24T16:46:55Z</time>
      </trkpt>
      <trkpt lat="40.224354" lon="-3.7108874">
        <ele>612.65</ele>
        <time>2021-03-24T16:46:56Z</time>
      </trkpt>
      <trkpt lat="40.2243" lon="-3.7109137">
        <ele>612.65</ele>
        <time>2021-03-24T16:46:57Z</time>
      </trkpt>
      <trkpt lat="40.224247" lon="-3.7109394">
        <ele>612.65</ele>
        <time>2021-03-24T16:46:58Z</time>
      </trkpt>
      <trkpt lat="40.224194" lon="-3.7109654">
        <ele>612.65</ele>
        <time>2021-03-24T16:46:59Z</time>
      </trkpt>
      <trkpt lat="40.224144" lon="-3.7109911">
        <ele>612.65</ele>
        <time>2021-03-24T16:47:00Z</time>
      </trkpt>
      <trkpt lat="40.22409" lon="-3.7110167">
        <ele>612.65</ele>
        <time>2021-03-24T16:47:01Z</time>
      </trkpt>
      <trkpt lat="40.22404" lon="-3.7110445">
        <ele>612.65</ele>
        <time>2021-03-24T16:47:02Z</time>
      </trkpt>
      <trkpt lat="40.22399" lon="-3.7110736">
        <ele>612.65</ele>
        <time>2021-03-24T16:47:03Z</time>
      </trkpt>
      <trkpt lat="40.223938" lon="-3.711103">
        <ele>613.83</ele>
        <time>2021-03-24T16:47:04Z</time>
      </trkpt>
      <trkpt lat="40.223892" lon="-3.711131">
        <ele>613.83</ele>
        <time>2021-03-24T16:47:05Z</time>
      </trkpt>
      <trkpt lat="40.223843" lon="-3.7111638">
        <ele>613.83</ele>
        <time>2021-03-24T16:47:06Z</time>
      </trkpt>
      <trkpt lat="40.223793" lon="-3.7111964">
        <ele>613.83</ele>
        <time>2021-03-24T16:47:07Z</time>
      </trkpt>
      <trkpt lat="40.22374" lon="-3.7112293">
        <ele>613.83</ele>
        <time>2021-03-24T16:47:08Z</time>
      </trkpt>
      <trkpt lat="40.223694" lon="-3.711261">
        <ele>613.83</ele>
        <time>2021-03-24T16:47:09Z</time>
      </trkpt>
      <trkpt lat="40.223648" lon="-3.7112944">
        <ele>611.7</ele>
        <time>2021-03-24T16:47:10Z</time>
      </trkpt>
      <trkpt lat="40.2236" lon="-3.7113316">
        <ele>611.7</ele>
        <time>2021-03-24T16:47:11Z</time>
      </trkpt>
      <trkpt lat="40.223553" lon="-3.7113686">
        <ele>611.7</ele>
        <time>2021-03-24T16:47:12Z</time>
      </trkpt>
      <trkpt lat="40.223503" lon="-3.711405">
        <ele>611.7</ele>
        <time>2021-03-24T16:47:13Z</time>
      </trkpt>
      <trkpt lat="40.223457" lon="-3.7114406">
        <ele>611.7</ele>
        <time>2021-03-24T16:47:14Z</time>
      </trkpt>
      <trkpt lat="40.223366" lon="-3.7115214">
        <ele>611.7</ele>
        <time>2021-03-24T16:47:16Z</time>
      </trkpt>
      <trkpt lat="40.22332" lon="-3.7115622">
        <ele>611.7</ele>
        <time>2021-03-24T16:47:17Z</time>
      </trkpt>
      <trkpt lat="40.223278" lon="-3.7116034">
        <ele>610.52</ele>
        <time>2021-03-24T16:47:18Z</time>
      </trkpt>
      <trkpt lat="40.223236" lon="-3.7116423">
        <ele>610.52</ele>
        <time>2021-03-24T16:47:19Z</time>
      </trkpt>
      <trkpt lat="40.223145" lon="-3.7117293">
        <ele>610.52</ele>
        <time>2021-03-24T16:47:21Z</time>
      </trkpt>
      <trkpt lat="40.223095" lon="-3.7117739">
        <ele>610.52</ele>
        <time>2021-03-24T16:47:22Z</time>
      </trkpt>
      <trkpt lat="40.223053" lon="-3.7118146">
        <ele>610.52</ele>
        <time>2021-03-24T16:47:23Z</time>
      </trkpt>
      <trkpt lat="40.222958" lon="-3.7118986">
        <ele>610.52</ele>
        <time>2021-03-24T16:47:25Z</time>
      </trkpt>
      <trkpt lat="40.222908" lon="-3.7119424">
        <ele>610.52</ele>
        <time>2021-03-24T16:47:26Z</time>
      </trkpt>
      <trkpt lat="40.22286" lon="-3.7119863">
        <ele>610.52</ele>
        <time>2021-03-24T16:47:27Z</time>
      </trkpt>
      <trkpt lat="40.222813" lon="-3.7120283">
        <ele>610.52</ele>
        <time>2021-03-24T16:47:28Z</time>
      </trkpt>
      <trkpt lat="40.222763" lon="-3.7120738">
        <ele>610.52</ele>
        <time>2021-03-24T16:47:29Z</time>
      </trkpt>
      <trkpt lat="40.222713" lon="-3.7121196">
        <ele>610.52</ele>
        <time>2021-03-24T16:47:30Z</time>
      </trkpt>
      <trkpt lat="40.222664" lon="-3.7121654">
        <ele>610.52</ele>
        <time>2021-03-24T16:47:31Z</time>
      </trkpt>
      <trkpt lat="40.222614" lon="-3.7122097">
        <ele>610.52</ele>
        <time>2021-03-24T16:47:32Z</time>
      </trkpt>
      <trkpt lat="40.22257" lon="-3.712255">
        <ele>610.52</ele>
        <time>2021-03-24T16:47:33Z</time>
      </trkpt>
      <trkpt lat="40.22252" lon="-3.7123053">
        <ele>610.52</ele>
        <time>2021-03-24T16:47:34Z</time>
      </trkpt>
      <trkpt lat="40.22247" lon="-3.712352">
        <ele>610.52</ele>
        <time>2021-03-24T16:47:35Z</time>
      </trkpt>
      <trkpt lat="40.222424" lon="-3.7124">
        <ele>610.52</ele>
        <time>2021-03-24T16:47:36Z</time>
      </trkpt>
      <trkpt lat="40.222374" lon="-3.712448">
        <ele>610.52</ele>
        <time>2021-03-24T16:47:37Z</time>
      </trkpt>
      <trkpt lat="40.222324" lon="-3.7124956">
        <ele>610.52</ele>
        <time>2021-03-24T16:47:38Z</time>
      </trkpt>
      <trkpt lat="40.22227" lon="-3.712545">
        <ele>610.52</ele>
        <time>2021-03-24T16:47:39Z</time>
      </trkpt>
      <trkpt lat="40.222218" lon="-3.7125926">
        <ele>610.52</ele>
        <time>2021-03-24T16:47:40Z</time>
      </trkpt>
      <trkpt lat="40.222168" lon="-3.7126377">
        <ele>610.52</ele>
        <time>2021-03-24T16:47:41Z</time>
      </trkpt>
      <trkpt lat="40.22212" lon="-3.7126784">
        <ele>610.52</ele>
        <time>2021-03-24T16:47:42Z</time>
      </trkpt>
      <trkpt lat="40.222065" lon="-3.7127204">
        <ele>610.52</ele>
        <time>2021-03-24T16:47:43Z</time>
      </trkpt>
      <trkpt lat="40.22201" lon="-3.7127616">
        <ele>610.52</ele>
        <time>2021-03-24T16:47:44Z</time>
      </trkpt>
      <trkpt lat="40.22196" lon="-3.7128026">
        <ele>610.52</ele>
        <time>2021-03-24T16:47:45Z</time>
      </trkpt>
      <trkpt lat="40.22191" lon="-3.712841">
        <ele>610.52</ele>
        <time>2021-03-24T16:47:46Z</time>
      </trkpt>
      <trkpt lat="40.22186" lon="-3.7128806">
        <ele>610.52</ele>
        <time>2021-03-24T16:47:47Z</time>
      </trkpt>
      <trkpt lat="40.221806" lon="-3.7129223">
        <ele>610.52</ele>
        <time>2021-03-24T16:47:48Z</time>
      </trkpt>
      <trkpt lat="40.221752" lon="-3.712963">
        <ele>609.34</ele>
        <time>2021-03-24T16:47:49Z</time>
      </trkpt>
      <trkpt lat="40.2217" lon="-3.713003">
        <ele>609.34</ele>
        <time>2021-03-24T16:47:50Z</time>
      </trkpt>
      <trkpt lat="40.22165" lon="-3.7130404">
        <ele>609.34</ele>
        <time>2021-03-24T16:47:51Z</time>
      </trkpt>
      <trkpt lat="40.221596" lon="-3.7130823">
        <ele>609.34</ele>
        <time>2021-03-24T16:47:52Z</time>
      </trkpt>
      <trkpt lat="40.221542" lon="-3.7131243">
        <ele>609.34</ele>
        <time>2021-03-24T16:47:53Z</time>
      </trkpt>
      <trkpt lat="40.22149" lon="-3.713166">
        <ele>609.34</ele>
        <time>2021-03-24T16:47:54Z</time>
      </trkpt>
      <trkpt lat="40.22144" lon="-3.7132053">
        <ele>609.34</ele>
        <time>2021-03-24T16:47:55Z</time>
      </trkpt>
      <trkpt lat="40.22139" lon="-3.7132459">
        <ele>609.34</ele>
        <time>2021-03-24T16:47:56Z</time>
      </trkpt>
      <trkpt lat="40.221336" lon="-3.71329">
        <ele>609.34</ele>
        <time>2021-03-24T16:47:57Z</time>
      </trkpt>
      <trkpt lat="40.22128" lon="-3.7133343">
        <ele>609.34</ele>
        <time>2021-03-24T16:47:58Z</time>
      </trkpt>
      <trkpt lat="40.22123" lon="-3.7133787">
        <ele>609.34</ele>
        <time>2021-03-24T16:47:59Z</time>
      </trkpt>
      <trkpt lat="40.221176" lon="-3.7134228">
        <ele>609.34</ele>
        <time>2021-03-24T16:48:00Z</time>
      </trkpt>
      <trkpt lat="40.22113" lon="-3.7134633">
        <ele>609.34</ele>
        <time>2021-03-24T16:48:01Z</time>
      </trkpt>
      <trkpt lat="40.22108" lon="-3.7135074">
        <ele>609.34</ele>
        <time>2021-03-24T16:48:02Z</time>
      </trkpt>
      <trkpt lat="40.221027" lon="-3.713552">
        <ele>609.34</ele>
        <time>2021-03-24T16:48:03Z</time>
      </trkpt>
      <trkpt lat="40.220978" lon="-3.7135975">
        <ele>609.34</ele>
        <time>2021-03-24T16:48:04Z</time>
      </trkpt>
      <trkpt lat="40.22093" lon="-3.713639">
        <ele>609.34</ele>
        <time>2021-03-24T16:48:05Z</time>
      </trkpt>
      <trkpt lat="40.22088" lon="-3.7136846">
        <ele>609.34</ele>
        <time>2021-03-24T16:48:06Z</time>
      </trkpt>
      <trkpt lat="40.220825" lon="-3.7137296">
        <ele>609.34</ele>
        <time>2021-03-24T16:48:07Z</time>
      </trkpt>
      <trkpt lat="40.22077" lon="-3.713773">
        <ele>609.34</ele>
        <time>2021-03-24T16:48:08Z</time>
      </trkpt>
      <trkpt lat="40.220673" lon="-3.713857">
        <ele>609.34</ele>
        <time>2021-03-24T16:48:10Z</time>
      </trkpt>
      <trkpt lat="40.22062" lon="-3.7139034">
        <ele>609.34</ele>
        <time>2021-03-24T16:48:11Z</time>
      </trkpt>
      <trkpt lat="40.22057" lon="-3.7139492">
        <ele>609.34</ele>
        <time>2021-03-24T16:48:12Z</time>
      </trkpt>
      <trkpt lat="40.220516" lon="-3.7139935">
        <ele>609.34</ele>
        <time>2021-03-24T16:48:13Z</time>
      </trkpt>
      <trkpt lat="40.22047" lon="-3.7140357">
        <ele>609.34</ele>
        <time>2021-03-24T16:48:14Z</time>
      </trkpt>
      <trkpt lat="40.220417" lon="-3.7140834">
        <ele>609.34</ele>
        <time>2021-03-24T16:48:15Z</time>
      </trkpt>
      <trkpt lat="40.220367" lon="-3.7141306">
        <ele>609.34</ele>
        <time>2021-03-24T16:48:16Z</time>
      </trkpt>
      <trkpt lat="40.220276" lon="-3.7142217">
        <ele>609.34</ele>
        <time>2021-03-24T16:48:18Z</time>
      </trkpt>
      <trkpt lat="40.22023" lon="-3.7142668">
        <ele>609.34</ele>
        <time>2021-03-24T16:48:19Z</time>
      </trkpt>
      <trkpt lat="40.22018" lon="-3.7143145">
        <ele>609.34</ele>
        <time>2021-03-24T16:48:20Z</time>
      </trkpt>
      <trkpt lat="40.22013" lon="-3.7143621">
        <ele>609.34</ele>
        <time>2021-03-24T16:48:21Z</time>
      </trkpt>
      <trkpt lat="40.220085" lon="-3.7144096">
        <ele>609.34</ele>
        <time>2021-03-24T16:48:22Z</time>
      </trkpt>
      <trkpt lat="40.220043" lon="-3.7144532">
        <ele>609.34</ele>
        <time>2021-03-24T16:48:23Z</time>
      </trkpt>
      <trkpt lat="40.219997" lon="-3.714499">
        <ele>609.34</ele>
        <time>2021-03-24T16:48:24Z</time>
      </trkpt>
      <trkpt lat="40.219948" lon="-3.7145486">
        <ele>609.34</ele>
        <time>2021-03-24T16:48:25Z</time>
      </trkpt>
      <trkpt lat="40.2199" lon="-3.7145972">
        <ele>609.34</ele>
        <time>2021-03-24T16:48:26Z</time>
      </trkpt>
      <trkpt lat="40.219852" lon="-3.7146463">
        <ele>609.34</ele>
        <time>2021-03-24T16:48:27Z</time>
      </trkpt>
      <trkpt lat="40.219807" lon="-3.7146926">
        <ele>609.34</ele>
        <time>2021-03-24T16:48:28Z</time>
      </trkpt>
      <trkpt lat="40.21976" lon="-3.7147381">
        <ele>609.34</ele>
        <time>2021-03-24T16:48:29Z</time>
      </trkpt>
      <trkpt lat="40.21971" lon="-3.7147877">
        <ele>609.34</ele>
        <time>2021-03-24T16:48:30Z</time>
      </trkpt>
      <trkpt lat="40.219666" lon="-3.7148354">
        <ele>609.34</ele>
        <time>2021-03-24T16:48:31Z</time>
      </trkpt>
      <trkpt lat="40.219616" lon="-3.7148793">
        <ele>609.34</ele>
        <time>2021-03-24T16:48:32Z</time>
      </trkpt>
      <trkpt lat="40.21957" lon="-3.7149236">
        <ele>609.34</ele>
        <time>2021-03-24T16:48:33Z</time>
      </trkpt>
      <trkpt lat="40.219517" lon="-3.7149718">
        <ele>609.34</ele>
        <time>2021-03-24T16:48:34Z</time>
      </trkpt>
      <trkpt lat="40.219463" lon="-3.715019">
        <ele>609.34</ele>
        <time>2021-03-24T16:48:35Z</time>
      </trkpt>
      <trkpt lat="40.219414" lon="-3.715065">
        <ele>609.34</ele>
        <time>2021-03-24T16:48:36Z</time>
      </trkpt>
      <trkpt lat="40.219368" lon="-3.715107">
        <ele>609.34</ele>
        <time>2021-03-24T16:48:37Z</time>
      </trkpt>
      <trkpt lat="40.21932" lon="-3.7151494">
        <ele>609.34</ele>
        <time>2021-03-24T16:48:38Z</time>
      </trkpt>
      <trkpt lat="40.219273" lon="-3.7151923">
        <ele>609.34</ele>
        <time>2021-03-24T16:48:39Z</time>
      </trkpt>
      <trkpt lat="40.219223" lon="-3.715235">
        <ele>609.34</ele>
        <time>2021-03-24T16:48:40Z</time>
      </trkpt>
      <trkpt lat="40.219173" lon="-3.7152786">
        <ele>609.34</ele>
        <time>2021-03-24T16:48:41Z</time>
      </trkpt>
      <trkpt lat="40.219128" lon="-3.715323">
        <ele>609.34</ele>
        <time>2021-03-24T16:48:42Z</time>
      </trkpt>
      <trkpt lat="40.219074" lon="-3.71537">
        <ele>609.34</ele>
        <time>2021-03-24T16:48:43Z</time>
      </trkpt>
      <trkpt lat="40.219025" lon="-3.7154155">
        <ele>609.34</ele>
        <time>2021-03-24T16:48:44Z</time>
      </trkpt>
      <trkpt lat="40.21897" lon="-3.7154577">
        <ele>609.34</ele>
        <time>2021-03-24T16:48:45Z</time>
      </trkpt>
      <trkpt lat="40.218925" lon="-3.715496">
        <ele>609.34</ele>
        <time>2021-03-24T16:48:46Z</time>
      </trkpt>
      <trkpt lat="40.218876" lon="-3.7155347">
        <ele>609.34</ele>
        <time>2021-03-24T16:48:47Z</time>
      </trkpt>
      <trkpt lat="40.218822" lon="-3.715576">
        <ele>609.34</ele>
        <time>2021-03-24T16:48:48Z</time>
      </trkpt>
      <trkpt lat="40.218773" lon="-3.7156162">
        <ele>609.34</ele>
        <time>2021-03-24T16:48:49Z</time>
      </trkpt>
      <trkpt lat="40.21872" lon="-3.715655">
        <ele>609.34</ele>
        <time>2021-03-24T16:48:50Z</time>
      </trkpt>
      <trkpt lat="40.21867" lon="-3.7156951">
        <ele>609.34</ele>
        <time>2021-03-24T16:48:51Z</time>
      </trkpt>
      <trkpt lat="40.218624" lon="-3.715736">
        <ele>609.34</ele>
        <time>2021-03-24T16:48:52Z</time>
      </trkpt>
      <trkpt lat="40.218575" lon="-3.7157776">
        <ele>609.34</ele>
        <time>2021-03-24T16:48:53Z</time>
      </trkpt>
      <trkpt lat="40.21853" lon="-3.7158186">
        <ele>609.34</ele>
        <time>2021-03-24T16:48:54Z</time>
      </trkpt>
      <trkpt lat="40.218483" lon="-3.715857">
        <ele>609.34</ele>
        <time>2021-03-24T16:48:55Z</time>
      </trkpt>
      <trkpt lat="40.218437" lon="-3.7158957">
        <ele>609.34</ele>
        <time>2021-03-24T16:48:56Z</time>
      </trkpt>
      <trkpt lat="40.218384" lon="-3.7159383">
        <ele>609.34</ele>
        <time>2021-03-24T16:48:57Z</time>
      </trkpt>
      <trkpt lat="40.218334" lon="-3.7159796">
        <ele>609.34</ele>
        <time>2021-03-24T16:48:58Z</time>
      </trkpt>
      <trkpt lat="40.218285" lon="-3.7160215">
        <ele>609.34</ele>
        <time>2021-03-24T16:48:59Z</time>
      </trkpt>
      <trkpt lat="40.21824" lon="-3.7160604">
        <ele>609.34</ele>
        <time>2021-03-24T16:49:00Z</time>
      </trkpt>
      <trkpt lat="40.218193" lon="-3.7161007">
        <ele>609.34</ele>
        <time>2021-03-24T16:49:01Z</time>
      </trkpt>
      <trkpt lat="40.218143" lon="-3.7161453">
        <ele>609.34</ele>
        <time>2021-03-24T16:49:02Z</time>
      </trkpt>
      <trkpt lat="40.218094" lon="-3.71619">
        <ele>609.34</ele>
        <time>2021-03-24T16:49:03Z</time>
      </trkpt>
      <trkpt lat="40.21805" lon="-3.716232">
        <ele>609.34</ele>
        <time>2021-03-24T16:49:04Z</time>
      </trkpt>
      <trkpt lat="40.218006" lon="-3.716276">
        <ele>609.34</ele>
        <time>2021-03-24T16:49:05Z</time>
      </trkpt>
      <trkpt lat="40.21796" lon="-3.7163236">
        <ele>609.34</ele>
        <time>2021-03-24T16:49:06Z</time>
      </trkpt>
      <trkpt lat="40.21791" lon="-3.7163723">
        <ele>609.34</ele>
        <time>2021-03-24T16:49:07Z</time>
      </trkpt>
      <trkpt lat="40.217865" lon="-3.716422">
        <ele>609.34</ele>
        <time>2021-03-24T16:49:08Z</time>
      </trkpt>
      <trkpt lat="40.217823" lon="-3.716469">
        <ele>609.34</ele>
        <time>2021-03-24T16:49:09Z</time>
      </trkpt>
      <trkpt lat="40.21778" lon="-3.7165174">
        <ele>613.05</ele>
        <time>2021-03-24T16:49:10Z</time>
      </trkpt>
      <trkpt lat="40.217735" lon="-3.71657">
        <ele>613.05</ele>
        <time>2021-03-24T16:49:11Z</time>
      </trkpt>
      <trkpt lat="40.21769" lon="-3.716623">
        <ele>613.05</ele>
        <time>2021-03-24T16:49:12Z</time>
      </trkpt>
      <trkpt lat="40.217648" lon="-3.7166724">
        <ele>613.05</ele>
        <time>2021-03-24T16:49:13Z</time>
      </trkpt>
      <trkpt lat="40.217606" lon="-3.7167222">
        <ele>613.05</ele>
        <time>2021-03-24T16:49:14Z</time>
      </trkpt>
      <trkpt lat="40.217564" lon="-3.7167773">
        <ele>613.05</ele>
        <time>2021-03-24T16:49:15Z</time>
      </trkpt>
      <trkpt lat="40.217518" lon="-3.7168317">
        <ele>613.05</ele>
        <time>2021-03-24T16:49:16Z</time>
      </trkpt>
      <trkpt lat="40.217476" lon="-3.7168853">
        <ele>613.05</ele>
        <time>2021-03-24T16:49:17Z</time>
      </trkpt>
      <trkpt lat="40.217438" lon="-3.7169363">
        <ele>613.05</ele>
        <time>2021-03-24T16:49:18Z</time>
      </trkpt>
      <trkpt lat="40.217396" lon="-3.7169886">
        <ele>613.05</ele>
        <time>2021-03-24T16:49:19Z</time>
      </trkpt>
      <trkpt lat="40.217354" lon="-3.7170455">
        <ele>613.05</ele>
        <time>2021-03-24T16:49:20Z</time>
      </trkpt>
      <trkpt lat="40.21731" lon="-3.7171013">
        <ele>613.05</ele>
        <time>2021-03-24T16:49:21Z</time>
      </trkpt>
      <trkpt lat="40.21727" lon="-3.717154">
        <ele>613.05</ele>
        <time>2021-03-24T16:49:22Z</time>
      </trkpt>
      <trkpt lat="40.21723" lon="-3.7172067">
        <ele>613.05</ele>
        <time>2021-03-24T16:49:23Z</time>
      </trkpt>
      <trkpt lat="40.21719" lon="-3.717259">
        <ele>613.05</ele>
        <time>2021-03-24T16:49:24Z</time>
      </trkpt>
      <trkpt lat="40.217148" lon="-3.717315">
        <ele>613.05</ele>
        <time>2021-03-24T16:49:25Z</time>
      </trkpt>
      <trkpt lat="40.217106" lon="-3.7173686">
        <ele>613.05</ele>
        <time>2021-03-24T16:49:26Z</time>
      </trkpt>
      <trkpt lat="40.217064" lon="-3.717421">
        <ele>613.05</ele>
        <time>2021-03-24T16:49:27Z</time>
      </trkpt>
      <trkpt lat="40.217026" lon="-3.7174692">
        <ele>613.05</ele>
        <time>2021-03-24T16:49:28Z</time>
      </trkpt>
      <trkpt lat="40.21695" lon="-3.7175658">
        <ele>613.05</ele>
        <time>2021-03-24T16:49:30Z</time>
      </trkpt>
      <trkpt lat="40.216908" lon="-3.7176173">
        <ele>613.05</ele>
        <time>2021-03-24T16:49:31Z</time>
      </trkpt>
      <trkpt lat="40.21687" lon="-3.7176647">
        <ele>613.05</ele>
        <time>2021-03-24T16:49:32Z</time>
      </trkpt>
      <trkpt lat="40.216827" lon="-3.7177124">
        <ele>613.05</ele>
        <time>2021-03-24T16:49:33Z</time>
      </trkpt>
      <trkpt lat="40.216785" lon="-3.717763">
        <ele>613.05</ele>
        <time>2021-03-24T16:49:34Z</time>
      </trkpt>
      <trkpt lat="40.216743" lon="-3.717812">
        <ele>613.05</ele>
        <time>2021-03-24T16:49:35Z</time>
      </trkpt>
      <trkpt lat="40.2167" lon="-3.7178597">
        <ele>613.05</ele>
        <time>2021-03-24T16:49:36Z</time>
      </trkpt>
      <trkpt lat="40.216663" lon="-3.7179043">
        <ele>613.05</ele>
        <time>2021-03-24T16:49:37Z</time>
      </trkpt>
      <trkpt lat="40.216625" lon="-3.717949">
        <ele>613.05</ele>
        <time>2021-03-24T16:49:38Z</time>
      </trkpt>
      <trkpt lat="40.216587" lon="-3.7179966">
        <ele>613.05</ele>
        <time>2021-03-24T16:49:39Z</time>
      </trkpt>
      <trkpt lat="40.21655" lon="-3.7180402">
        <ele>613.05</ele>
        <time>2021-03-24T16:49:40Z</time>
      </trkpt>
      <trkpt lat="40.21647" lon="-3.7181244">
        <ele>613.05</ele>
        <time>2021-03-24T16:49:42Z</time>
      </trkpt>
      <trkpt lat="40.21643" lon="-3.7181647">
        <ele>613.05</ele>
        <time>2021-03-24T16:49:43Z</time>
      </trkpt>
      <trkpt lat="40.216347" lon="-3.718252">
        <ele>613.05</ele>
        <time>2021-03-24T16:49:45Z</time>
      </trkpt>
      <trkpt lat="40.216312" lon="-3.7182918">
        <ele>613.05</ele>
        <time>2021-03-24T16:49:46Z</time>
      </trkpt>
      <trkpt lat="40.216236" lon="-3.7183788">
        <ele>613.05</ele>
        <time>2021-03-24T16:49:48Z</time>
      </trkpt>
      <trkpt lat="40.216194" lon="-3.7184236">
        <ele>613.05</ele>
        <time>2021-03-24T16:49:49Z</time>
      </trkpt>
      <trkpt lat="40.21612" lon="-3.7185073">
        <ele>613.05</ele>
        <time>2021-03-24T16:49:51Z</time>
      </trkpt>
      <trkpt lat="40.21605" lon="-3.7185917">
        <ele>613.05</ele>
        <time>2021-03-24T16:49:53Z</time>
      </trkpt>
      <trkpt lat="40.21601" lon="-3.7186363">
        <ele>613.05</ele>
        <time>2021-03-24T16:49:54Z</time>
      </trkpt>
      <trkpt lat="40.215973" lon="-3.7186804">
        <ele>613.05</ele>
        <time>2021-03-24T16:49:55Z</time>
      </trkpt>
      <trkpt lat="40.215908" lon="-3.7187636">
        <ele>614.23</ele>
        <time>2021-03-24T16:49:57Z</time>
      </trkpt>
      <trkpt lat="40.215836" lon="-3.7188542">
        <ele>614.23</ele>
        <time>2021-03-24T16:49:59Z</time>
      </trkpt>
      <trkpt lat="40.2158" lon="-3.718896">
        <ele>614.23</ele>
        <time>2021-03-24T16:50:00Z</time>
      </trkpt>
      <trkpt lat="40.21573" lon="-3.718986">
        <ele>614.23</ele>
        <time>2021-03-24T16:50:02Z</time>
      </trkpt>
      <trkpt lat="40.215694" lon="-3.7190294">
        <ele>614.23</ele>
        <time>2021-03-24T16:50:03Z</time>
      </trkpt>
      <trkpt lat="40.21563" lon="-3.7191174">
        <ele>614.23</ele>
        <time>2021-03-24T16:50:05Z</time>
      </trkpt>
      <trkpt lat="40.215595" lon="-3.7191622">
        <ele>614.23</ele>
        <time>2021-03-24T16:50:06Z</time>
      </trkpt>
      <trkpt lat="40.215527" lon="-3.7192616">
        <ele>614.23</ele>
        <time>2021-03-24T16:50:08Z</time>
      </trkpt>
      <trkpt lat="40.215496" lon="-3.7193093">
        <ele>614.23</ele>
        <time>2021-03-24T16:50:09Z</time>
      </trkpt>
      <trkpt lat="40.215405" lon="-3.719463">
        <ele>614.23</ele>
        <time>2021-03-24T16:50:12Z</time>
      </trkpt>
      <trkpt lat="40.215347" lon="-3.719573">
        <ele>614.23</ele>
        <time>2021-03-24T16:50:14Z</time>
      </trkpt>
      <trkpt lat="40.215324" lon="-3.719632">
        <ele>614.23</ele>
        <time>2021-03-24T16:50:15Z</time>
      </trkpt>
      <trkpt lat="40.215282" lon="-3.719759">
        <ele>614.23</ele>
        <time>2021-03-24T16:50:17Z</time>
      </trkpt>
      <trkpt lat="40.215267" lon="-3.7198222">
        <ele>614.23</ele>
        <time>2021-03-24T16:50:18Z</time>
      </trkpt>
      <trkpt lat="40.21523" lon="-3.7199523">
        <ele>614.23</ele>
        <time>2021-03-24T16:50:20Z</time>
      </trkpt>
      <trkpt lat="40.215206" lon="-3.720017">
        <ele>614.23</ele>
        <time>2021-03-24T16:50:21Z</time>
      </trkpt>
      <trkpt lat="40.215183" lon="-3.7200804">
        <ele>614.23</ele>
        <time>2021-03-24T16:50:22Z</time>
      </trkpt>
      <trkpt lat="40.215157" lon="-3.7201414">
        <ele>614.23</ele>
        <time>2021-03-24T16:50:23Z</time>
      </trkpt>
      <trkpt lat="40.21513" lon="-3.720201">
        <ele>614.23</ele>
        <time>2021-03-24T16:50:24Z</time>
      </trkpt>
      <trkpt lat="40.2151" lon="-3.7202604">
        <ele>614.23</ele>
        <time>2021-03-24T16:50:25Z</time>
      </trkpt>
      <trkpt lat="40.21507" lon="-3.720318">
        <ele>614.23</ele>
        <time>2021-03-24T16:50:26Z</time>
      </trkpt>
      <trkpt lat="40.21504" lon="-3.720375">
        <ele>614.23</ele>
        <time>2021-03-24T16:50:27Z</time>
      </trkpt>
      <trkpt lat="40.215008" lon="-3.7204313">
        <ele>614.23</ele>
        <time>2021-03-24T16:50:28Z</time>
      </trkpt>
      <trkpt lat="40.214973" lon="-3.7204854">
        <ele>614.23</ele>
        <time>2021-03-24T16:50:29Z</time>
      </trkpt>
      <trkpt lat="40.214935" lon="-3.7205377">
        <ele>614.23</ele>
        <time>2021-03-24T16:50:30Z</time>
      </trkpt>
      <trkpt lat="40.2149" lon="-3.7205887">
        <ele>614.23</ele>
        <time>2021-03-24T16:50:31Z</time>
      </trkpt>
      <trkpt lat="40.214863" lon="-3.7206385">
        <ele>614.23</ele>
        <time>2021-03-24T16:50:32Z</time>
      </trkpt>
      <trkpt lat="40.21482" lon="-3.7206872">
        <ele>613.05</ele>
        <time>2021-03-24T16:50:33Z</time>
      </trkpt>
      <trkpt lat="40.214783" lon="-3.7207344">
        <ele>613.05</ele>
        <time>2021-03-24T16:50:34Z</time>
      </trkpt>
      <trkpt lat="40.214737" lon="-3.7207828">
        <ele>613.05</ele>
        <time>2021-03-24T16:50:35Z</time>
      </trkpt>
      <trkpt lat="40.214695" lon="-3.720829">
        <ele>613.05</ele>
        <time>2021-03-24T16:50:36Z</time>
      </trkpt>
      <trkpt lat="40.21465" lon="-3.7208745">
        <ele>613.05</ele>
        <time>2021-03-24T16:50:37Z</time>
      </trkpt>
      <trkpt lat="40.21461" lon="-3.7209172">
        <ele>613.05</ele>
        <time>2021-03-24T16:50:38Z</time>
      </trkpt>
      <trkpt lat="40.21457" lon="-3.7209594">
        <ele>613.05</ele>
        <time>2021-03-24T16:50:39Z</time>
      </trkpt>
      <trkpt lat="40.21448" lon="-3.7210486">
        <ele>613.05</ele>
        <time>2021-03-24T16:50:41Z</time>
      </trkpt>
      <trkpt lat="40.214436" lon="-3.7210922">
        <ele>613.05</ele>
        <time>2021-03-24T16:50:42Z</time>
      </trkpt>
      <trkpt lat="40.214394" lon="-3.721131">
        <ele>613.05</ele>
        <time>2021-03-24T16:50:43Z</time>
      </trkpt>
      <trkpt lat="40.214348" lon="-3.721171">
        <ele>613.05</ele>
        <time>2021-03-24T16:50:44Z</time>
      </trkpt>
      <trkpt lat="40.214302" lon="-3.7212102">
        <ele>613.05</ele>
        <time>2021-03-24T16:50:45Z</time>
      </trkpt>
      <trkpt lat="40.214252" lon="-3.7212508">
        <ele>613.05</ele>
        <time>2021-03-24T16:50:46Z</time>
      </trkpt>
      <trkpt lat="40.21421" lon="-3.7212887">
        <ele>613.05</ele>
        <time>2021-03-24T16:50:47Z</time>
      </trkpt>
      <trkpt lat="40.21417" lon="-3.7213283">
        <ele>613.05</ele>
        <time>2021-03-24T16:50:48Z</time>
      </trkpt>
      <trkpt lat="40.214123" lon="-3.7213714">
        <ele>613.05</ele>
        <time>2021-03-24T16:50:49Z</time>
      </trkpt>
      <trkpt lat="40.21408" lon="-3.721412">
        <ele>613.05</ele>
        <time>2021-03-24T16:50:50Z</time>
      </trkpt>
      <trkpt lat="40.214035" lon="-3.721456">
        <ele>613.05</ele>
        <time>2021-03-24T16:50:51Z</time>
      </trkpt>
      <trkpt lat="40.213993" lon="-3.7214973">
        <ele>613.05</ele>
        <time>2021-03-24T16:50:52Z</time>
      </trkpt>
      <trkpt lat="40.21395" lon="-3.7215388">
        <ele>613.05</ele>
        <time>2021-03-24T16:50:53Z</time>
      </trkpt>
      <trkpt lat="40.21391" lon="-3.7215824">
        <ele>613.05</ele>
        <time>2021-03-24T16:50:54Z</time>
      </trkpt>
      <trkpt lat="40.213863" lon="-3.7216303">
        <ele>613.05</ele>
        <time>2021-03-24T16:50:55Z</time>
      </trkpt>
      <trkpt lat="40.21382" lon="-3.7216785">
        <ele>613.05</ele>
        <time>2021-03-24T16:50:56Z</time>
      </trkpt>
      <trkpt lat="40.213783" lon="-3.7217236">
        <ele>613.05</ele>
        <time>2021-03-24T16:50:57Z</time>
      </trkpt>
      <trkpt lat="40.21374" lon="-3.7217698">
        <ele>613.05</ele>
        <time>2021-03-24T16:50:58Z</time>
      </trkpt>
      <trkpt lat="40.213703" lon="-3.7218163">
        <ele>613.05</ele>
        <time>2021-03-24T16:50:59Z</time>
      </trkpt>
      <trkpt lat="40.21366" lon="-3.7218633">
        <ele>613.05</ele>
        <time>2021-03-24T16:51:00Z</time>
      </trkpt>
      <trkpt lat="40.213623" lon="-3.72191">
        <ele>611.87</ele>
        <time>2021-03-24T16:51:01Z</time>
      </trkpt>
      <trkpt lat="40.213543" lon="-3.722007">
        <ele>611.87</ele>
        <time>2021-03-24T16:51:03Z</time>
      </trkpt>
      <trkpt lat="40.213505" lon="-3.7220564">
        <ele>611.87</ele>
        <time>2021-03-24T16:51:04Z</time>
      </trkpt>
      <trkpt lat="40.213463" lon="-3.7221062">
        <ele>611.87</ele>
        <time>2021-03-24T16:51:05Z</time>
      </trkpt>
      <trkpt lat="40.213425" lon="-3.7221556">
        <ele>611.87</ele>
        <time>2021-03-24T16:51:06Z</time>
      </trkpt>
      <trkpt lat="40.213387" lon="-3.7222047">
        <ele>611.87</ele>
        <time>2021-03-24T16:51:07Z</time>
      </trkpt>
      <trkpt lat="40.213345" lon="-3.722257">
        <ele>611.87</ele>
        <time>2021-03-24T16:51:08Z</time>
      </trkpt>
      <trkpt lat="40.213306" lon="-3.7223043">
        <ele>611.87</ele>
        <time>2021-03-24T16:51:09Z</time>
      </trkpt>
      <trkpt lat="40.21327" lon="-3.7223547">
        <ele>611.24</ele>
        <time>2021-03-24T16:51:10Z</time>
      </trkpt>
      <trkpt lat="40.21323" lon="-3.7224014">
        <ele>611.24</ele>
        <time>2021-03-24T16:51:11Z</time>
      </trkpt>
      <trkpt lat="40.213192" lon="-3.7224483">
        <ele>611.24</ele>
        <time>2021-03-24T16:51:12Z</time>
      </trkpt>
      <trkpt lat="40.21311" lon="-3.7225473">
        <ele>611.24</ele>
        <time>2021-03-24T16:51:14Z</time>
      </trkpt>
      <trkpt lat="40.213074" lon="-3.7225964">
        <ele>611.24</ele>
        <time>2021-03-24T16:51:15Z</time>
      </trkpt>
      <trkpt lat="40.21304" lon="-3.7226417">
        <ele>611.24</ele>
        <time>2021-03-24T16:51:16Z</time>
      </trkpt>
      <trkpt lat="40.212963" lon="-3.7227373">
        <ele>611.24</ele>
        <time>2021-03-24T16:51:18Z</time>
      </trkpt>
      <trkpt lat="40.212925" lon="-3.7227848">
        <ele>611.24</ele>
        <time>2021-03-24T16:51:19Z</time>
      </trkpt>
      <trkpt lat="40.212887" lon="-3.7228317">
        <ele>611.24</ele>
        <time>2021-03-24T16:51:20Z</time>
      </trkpt>
      <trkpt lat="40.212852" lon="-3.722876">
        <ele>611.24</ele>
        <time>2021-03-24T16:51:21Z</time>
      </trkpt>
      <trkpt lat="40.21278" lon="-3.722971">
        <ele>611.24</ele>
        <time>2021-03-24T16:51:23Z</time>
      </trkpt>
      <trkpt lat="40.21274" lon="-3.72302">
        <ele>611.24</ele>
        <time>2021-03-24T16:51:24Z</time>
      </trkpt>
      <trkpt lat="40.212708" lon="-3.7230694">
        <ele>611.24</ele>
        <time>2021-03-24T16:51:25Z</time>
      </trkpt>
      <trkpt lat="40.212673" lon="-3.723115">
        <ele>611.24</ele>
        <time>2021-03-24T16:51:26Z</time>
      </trkpt>
      <trkpt lat="40.212605" lon="-3.7232103">
        <ele>611.24</ele>
        <time>2021-03-24T16:51:28Z</time>
      </trkpt>
      <trkpt lat="40.212536" lon="-3.723311">
        <ele>611.24</ele>
        <time>2021-03-24T16:51:30Z</time>
      </trkpt>
      <trkpt lat="40.212505" lon="-3.723361">
        <ele>611.24</ele>
        <time>2021-03-24T16:51:31Z</time>
      </trkpt>
      <trkpt lat="40.21247" lon="-3.7234123">
        <ele>611.24</ele>
        <time>2021-03-24T16:51:32Z</time>
      </trkpt>
      <trkpt lat="40.212402" lon="-3.7235167">
        <ele>611.24</ele>
        <time>2021-03-24T16:51:34Z</time>
      </trkpt>
      <trkpt lat="40.212368" lon="-3.7235713">
        <ele>611.24</ele>
        <time>2021-03-24T16:51:35Z</time>
      </trkpt>
      <trkpt lat="40.212334" lon="-3.7236252">
        <ele>611.24</ele>
        <time>2021-03-24T16:51:36Z</time>
      </trkpt>
      <trkpt lat="40.212303" lon="-3.7236748">
        <ele>611.24</ele>
        <time>2021-03-24T16:51:37Z</time>
      </trkpt>
      <trkpt lat="40.21224" lon="-3.7237864">
        <ele>611.24</ele>
        <time>2021-03-24T16:51:39Z</time>
      </trkpt>
      <trkpt lat="40.212208" lon="-3.723837">
        <ele>611.24</ele>
        <time>2021-03-24T16:51:40Z</time>
      </trkpt>
      <trkpt lat="40.212177" lon="-3.7238889">
        <ele>611.24</ele>
        <time>2021-03-24T16:51:41Z</time>
      </trkpt>
      <trkpt lat="40.212112" lon="-3.7240026">
        <ele>611.24</ele>
        <time>2021-03-24T16:51:43Z</time>
      </trkpt>
      <trkpt lat="40.212074" lon="-3.724061">
        <ele>611.24</ele>
        <time>2021-03-24T16:51:44Z</time>
      </trkpt>
      <trkpt lat="40.212044" lon="-3.724116">
        <ele>612.43</ele>
        <time>2021-03-24T16:51:45Z</time>
      </trkpt>
      <trkpt lat="40.212013" lon="-3.724168">
        <ele>612.43</ele>
        <time>2021-03-24T16:51:46Z</time>
      </trkpt>
      <trkpt lat="40.211945" lon="-3.7242668">
        <ele>612.43</ele>
        <time>2021-03-24T16:51:48Z</time>
      </trkpt>
      <trkpt lat="40.21191" lon="-3.724312">
        <ele>612.43</ele>
        <time>2021-03-24T16:51:49Z</time>
      </trkpt>
      <trkpt lat="40.211823" lon="-3.724403">
        <ele>612.43</ele>
        <time>2021-03-24T16:51:51Z</time>
      </trkpt>
      <trkpt lat="40.211777" lon="-3.7244453">
        <ele>612.43</ele>
        <time>2021-03-24T16:51:52Z</time>
      </trkpt>
      <trkpt lat="40.211727" lon="-3.7244859">
        <ele>612.43</ele>
        <time>2021-03-24T16:51:53Z</time>
      </trkpt>
      <trkpt lat="40.211685" lon="-3.7245224">
        <ele>612.43</ele>
        <time>2021-03-24T16:51:54Z</time>
      </trkpt>
      <trkpt lat="40.211636" lon="-3.7245574">
        <ele>612.43</ele>
        <time>2021-03-24T16:51:55Z</time>
      </trkpt>
      <trkpt lat="40.211582" lon="-3.7245953">
        <ele>612.43</ele>
        <time>2021-03-24T16:51:56Z</time>
      </trkpt>
      <trkpt lat="40.211533" lon="-3.7246323">
        <ele>612.43</ele>
        <time>2021-03-24T16:51:57Z</time>
      </trkpt>
      <trkpt lat="40.21148" lon="-3.7246683">
        <ele>612.43</ele>
        <time>2021-03-24T16:51:58Z</time>
      </trkpt>
      <trkpt lat="40.21143" lon="-3.7247007">
        <ele>612.43</ele>
        <time>2021-03-24T16:51:59Z</time>
      </trkpt>
      <trkpt lat="40.21138" lon="-3.7247334">
        <ele>612.43</ele>
        <time>2021-03-24T16:52:00Z</time>
      </trkpt>
      <trkpt lat="40.211327" lon="-3.7247677">
        <ele>612.43</ele>
        <time>2021-03-24T16:52:01Z</time>
      </trkpt>
      <trkpt lat="40.211273" lon="-3.7248006">
        <ele>612.43</ele>
        <time>2021-03-24T16:52:02Z</time>
      </trkpt>
      <trkpt lat="40.211216" lon="-3.7248333">
        <ele>612.43</ele>
        <time>2021-03-24T16:52:03Z</time>
      </trkpt>
      <trkpt lat="40.211166" lon="-3.7248633">
        <ele>612.43</ele>
        <time>2021-03-24T16:52:04Z</time>
      </trkpt>
      <trkpt lat="40.211113" lon="-3.724895">
        <ele>612.43</ele>
        <time>2021-03-24T16:52:05Z</time>
      </trkpt>
      <trkpt lat="40.211056" lon="-3.724925">
        <ele>612.43</ele>
        <time>2021-03-24T16:52:06Z</time>
      </trkpt>
      <trkpt lat="40.211002" lon="-3.724955">
        <ele>612.43</ele>
        <time>2021-03-24T16:52:07Z</time>
      </trkpt>
      <trkpt lat="40.21095" lon="-3.7249825">
        <ele>612.43</ele>
        <time>2021-03-24T16:52:08Z</time>
      </trkpt>
      <trkpt lat="40.210896" lon="-3.7250097">
        <ele>612.43</ele>
        <time>2021-03-24T16:52:09Z</time>
      </trkpt>
      <trkpt lat="40.210842" lon="-3.7250364">
        <ele>612.43</ele>
        <time>2021-03-24T16:52:10Z</time>
      </trkpt>
      <trkpt lat="40.210785" lon="-3.7250633">
        <ele>612.43</ele>
        <time>2021-03-24T16:52:11Z</time>
      </trkpt>
      <trkpt lat="40.210728" lon="-3.72509">
        <ele>612.43</ele>
        <time>2021-03-24T16:52:12Z</time>
      </trkpt>
      <trkpt lat="40.210674" lon="-3.7251174">
        <ele>612.43</ele>
        <time>2021-03-24T16:52:13Z</time>
      </trkpt>
      <trkpt lat="40.210617" lon="-3.7251444">
        <ele>612.43</ele>
        <time>2021-03-24T16:52:14Z</time>
      </trkpt>
      <trkpt lat="40.21056" lon="-3.7251716">
        <ele>612.43</ele>
        <time>2021-03-24T16:52:15Z</time>
      </trkpt>
      <trkpt lat="40.2105" lon="-3.7252007">
        <ele>612.43</ele>
        <time>2021-03-24T16:52:16Z</time>
      </trkpt>
      <trkpt lat="40.210438" lon="-3.725228">
        <ele>612.43</ele>
        <time>2021-03-24T16:52:17Z</time>
      </trkpt>
      <trkpt lat="40.210384" lon="-3.725254">
        <ele>612.43</ele>
        <time>2021-03-24T16:52:18Z</time>
      </trkpt>
      <trkpt lat="40.21033" lon="-3.72528">
        <ele>612.43</ele>
        <time>2021-03-24T16:52:19Z</time>
      </trkpt>
      <trkpt lat="40.21027" lon="-3.725308">
        <ele>612.43</ele>
        <time>2021-03-24T16:52:20Z</time>
      </trkpt>
      <trkpt lat="40.210213" lon="-3.7253346">
        <ele>612.43</ele>
        <time>2021-03-24T16:52:21Z</time>
      </trkpt>
      <trkpt lat="40.210155" lon="-3.7253616">
        <ele>612.43</ele>
        <time>2021-03-24T16:52:22Z</time>
      </trkpt>
      <trkpt lat="40.210102" lon="-3.725386">
        <ele>612.43</ele>
        <time>2021-03-24T16:52:23Z</time>
      </trkpt>
      <trkpt lat="40.21005" lon="-3.725412">
        <ele>612.43</ele>
        <time>2021-03-24T16:52:24Z</time>
      </trkpt>
      <trkpt lat="40.20999" lon="-3.7254403">
        <ele>612.43</ele>
        <time>2021-03-24T16:52:25Z</time>
      </trkpt>
      <trkpt lat="40.209938" lon="-3.725468">
        <ele>612.43</ele>
        <time>2021-03-24T16:52:26Z</time>
      </trkpt>
      <trkpt lat="40.209885" lon="-3.7254927">
        <ele>612.43</ele>
        <time>2021-03-24T16:52:27Z</time>
      </trkpt>
      <trkpt lat="40.20983" lon="-3.725518">
        <ele>612.43</ele>
        <time>2021-03-24T16:52:28Z</time>
      </trkpt>
      <trkpt lat="40.209774" lon="-3.725545">
        <ele>612.43</ele>
        <time>2021-03-24T16:52:29Z</time>
      </trkpt>
      <trkpt lat="40.209717" lon="-3.7255716">
        <ele>612.43</ele>
        <time>2021-03-24T16:52:30Z</time>
      </trkpt>
      <trkpt lat="40.20966" lon="-3.7255979">
        <ele>612.43</ele>
        <time>2021-03-24T16:52:31Z</time>
      </trkpt>
      <trkpt lat="40.20961" lon="-3.7256224">
        <ele>612.43</ele>
        <time>2021-03-24T16:52:32Z</time>
      </trkpt>
      <trkpt lat="40.209557" lon="-3.7256474">
        <ele>612.43</ele>
        <time>2021-03-24T16:52:33Z</time>
      </trkpt>
      <trkpt lat="40.2095" lon="-3.7256737">
        <ele>612.43</ele>
        <time>2021-03-24T16:52:34Z</time>
      </trkpt>
      <trkpt lat="40.209446" lon="-3.7256994">
        <ele>611.24</ele>
        <time>2021-03-24T16:52:35Z</time>
      </trkpt>
      <trkpt lat="40.20939" lon="-3.7257257">
        <ele>611.24</ele>
        <time>2021-03-24T16:52:36Z</time>
      </trkpt>
      <trkpt lat="40.20934" lon="-3.7257507">
        <ele>611.24</ele>
        <time>2021-03-24T16:52:37Z</time>
      </trkpt>
      <trkpt lat="40.209286" lon="-3.725776">
        <ele>611.24</ele>
        <time>2021-03-24T16:52:38Z</time>
      </trkpt>
      <trkpt lat="40.209232" lon="-3.725804">
        <ele>611.24</ele>
        <time>2021-03-24T16:52:39Z</time>
      </trkpt>
      <trkpt lat="40.209175" lon="-3.7258317">
        <ele>611.24</ele>
        <time>2021-03-24T16:52:40Z</time>
      </trkpt>
      <trkpt lat="40.209126" lon="-3.7258584">
        <ele>611.24</ele>
        <time>2021-03-24T16:52:41Z</time>
      </trkpt>
      <trkpt lat="40.209076" lon="-3.7258863">
        <ele>611.24</ele>
        <time>2021-03-24T16:52:42Z</time>
      </trkpt>
      <trkpt lat="40.209023" lon="-3.7259173">
        <ele>611.24</ele>
        <time>2021-03-24T16:52:43Z</time>
      </trkpt>
      <trkpt lat="40.20897" lon="-3.7259486">
        <ele>611.24</ele>
        <time>2021-03-24T16:52:44Z</time>
      </trkpt>
      <trkpt lat="40.20892" lon="-3.725979">
        <ele>611.24</ele>
        <time>2021-03-24T16:52:45Z</time>
      </trkpt>
      <trkpt lat="40.208866" lon="-3.7260113">
        <ele>611.24</ele>
        <time>2021-03-24T16:52:46Z</time>
      </trkpt>
      <trkpt lat="40.208817" lon="-3.7260413">
        <ele>611.24</ele>
        <time>2021-03-24T16:52:47Z</time>
      </trkpt>
      <trkpt lat="40.208714" lon="-3.7261086">
        <ele>611.24</ele>
        <time>2021-03-24T16:52:49Z</time>
      </trkpt>
      <trkpt lat="40.20866" lon="-3.7261424">
        <ele>611.24</ele>
        <time>2021-03-24T16:52:50Z</time>
      </trkpt>
      <trkpt lat="40.208614" lon="-3.7261744">
        <ele>611.24</ele>
        <time>2021-03-24T16:52:51Z</time>
      </trkpt>
      <trkpt lat="40.20856" lon="-3.7262092">
        <ele>611.24</ele>
        <time>2021-03-24T16:52:52Z</time>
      </trkpt>
      <trkpt lat="40.20846" lon="-3.726274">
        <ele>611.24</ele>
        <time>2021-03-24T16:52:54Z</time>
      </trkpt>
      <trkpt lat="40.208416" lon="-3.7263055">
        <ele>611.24</ele>
        <time>2021-03-24T16:52:55Z</time>
      </trkpt>
      <trkpt lat="40.20832" lon="-3.7263703">
        <ele>611.24</ele>
        <time>2021-03-24T16:52:57Z</time>
      </trkpt>
      <trkpt lat="40.20827" lon="-3.7264032">
        <ele>611.24</ele>
        <time>2021-03-24T16:52:58Z</time>
      </trkpt>
      <trkpt lat="40.208218" lon="-3.7264395">
        <ele>611.24</ele>
        <time>2021-03-24T16:52:59Z</time>
      </trkpt>
      <trkpt lat="40.208168" lon="-3.7264743">
        <ele>611.24</ele>
        <time>2021-03-24T16:53:00Z</time>
      </trkpt>
      <trkpt lat="40.20812" lon="-3.726508">
        <ele>611.24</ele>
        <time>2021-03-24T16:53:01Z</time>
      </trkpt>
      <trkpt lat="40.20807" lon="-3.726544">
        <ele>611.24</ele>
        <time>2021-03-24T16:53:02Z</time>
      </trkpt>
      <trkpt lat="40.208015" lon="-3.72658">
        <ele>611.24</ele>
        <time>2021-03-24T16:53:03Z</time>
      </trkpt>
      <trkpt lat="40.207966" lon="-3.7266135">
        <ele>611.24</ele>
        <time>2021-03-24T16:53:04Z</time>
      </trkpt>
      <trkpt lat="40.207916" lon="-3.7266476">
        <ele>611.24</ele>
        <time>2021-03-24T16:53:05Z</time>
      </trkpt>
      <trkpt lat="40.207867" lon="-3.7266836">
        <ele>611.24</ele>
        <time>2021-03-24T16:53:06Z</time>
      </trkpt>
      <trkpt lat="40.207817" lon="-3.7267225">
        <ele>611.24</ele>
        <time>2021-03-24T16:53:07Z</time>
      </trkpt>
      <trkpt lat="40.207764" lon="-3.7267618">
        <ele>611.24</ele>
        <time>2021-03-24T16:53:08Z</time>
      </trkpt>
      <trkpt lat="40.207714" lon="-3.7268016">
        <ele>611.24</ele>
        <time>2021-03-24T16:53:09Z</time>
      </trkpt>
      <trkpt lat="40.207664" lon="-3.726839">
        <ele>608.0</ele>
        <time>2021-03-24T16:53:10Z</time>
      </trkpt>
      <trkpt lat="40.207615" lon="-3.7268796">
        <ele>608.0</ele>
        <time>2021-03-24T16:53:11Z</time>
      </trkpt>
      <trkpt lat="40.207565" lon="-3.7269206">
        <ele>608.0</ele>
        <time>2021-03-24T16:53:12Z</time>
      </trkpt>
      <trkpt lat="40.20751" lon="-3.7269614">
        <ele>608.0</ele>
        <time>2021-03-24T16:53:13Z</time>
      </trkpt>
      <trkpt lat="40.207466" lon="-3.7270002">
        <ele>608.0</ele>
        <time>2021-03-24T16:53:14Z</time>
      </trkpt>
      <trkpt lat="40.20742" lon="-3.7270405">
        <ele>608.0</ele>
        <time>2021-03-24T16:53:15Z</time>
      </trkpt>
      <trkpt lat="40.207367" lon="-3.727084">
        <ele>608.0</ele>
        <time>2021-03-24T16:53:16Z</time>
      </trkpt>
      <trkpt lat="40.20732" lon="-3.7271247">
        <ele>608.0</ele>
        <time>2021-03-24T16:53:17Z</time>
      </trkpt>
      <trkpt lat="40.207268" lon="-3.727169">
        <ele>609.19</ele>
        <time>2021-03-24T16:53:18Z</time>
      </trkpt>
      <trkpt lat="40.20722" lon="-3.7272103">
        <ele>609.19</ele>
        <time>2021-03-24T16:53:19Z</time>
      </trkpt>
      <trkpt lat="40.207172" lon="-3.7272513">
        <ele>609.19</ele>
        <time>2021-03-24T16:53:20Z</time>
      </trkpt>
      <trkpt lat="40.207123" lon="-3.7272916">
        <ele>609.19</ele>
        <time>2021-03-24T16:53:21Z</time>
      </trkpt>
      <trkpt lat="40.207073" lon="-3.7273338">
        <ele>609.19</ele>
        <time>2021-03-24T16:53:22Z</time>
      </trkpt>
      <trkpt lat="40.207024" lon="-3.727374">
        <ele>609.19</ele>
        <time>2021-03-24T16:53:23Z</time>
      </trkpt>
      <trkpt lat="40.206978" lon="-3.7274108">
        <ele>609.19</ele>
        <time>2021-03-24T16:53:24Z</time>
      </trkpt>
      <trkpt lat="40.206924" lon="-3.7274482">
        <ele>609.19</ele>
        <time>2021-03-24T16:53:25Z</time>
      </trkpt>
      <trkpt lat="40.20688" lon="-3.7274847">
        <ele>609.19</ele>
        <time>2021-03-24T16:53:26Z</time>
      </trkpt>
      <trkpt lat="40.20683" lon="-3.7275202">
        <ele>609.19</ele>
        <time>2021-03-24T16:53:27Z</time>
      </trkpt>
      <trkpt lat="40.206783" lon="-3.727553">
        <ele>609.19</ele>
        <time>2021-03-24T16:53:28Z</time>
      </trkpt>
      <trkpt lat="40.206738" lon="-3.727586">
        <ele>609.19</ele>
        <time>2021-03-24T16:53:29Z</time>
      </trkpt>
      <trkpt lat="40.20664" lon="-3.7276556">
        <ele>609.19</ele>
        <time>2021-03-24T16:53:31Z</time>
      </trkpt>
      <trkpt lat="40.20659" lon="-3.7276895">
        <ele>609.19</ele>
        <time>2021-03-24T16:53:32Z</time>
      </trkpt>
      <trkpt lat="40.20654" lon="-3.7277203">
        <ele>609.19</ele>
        <time>2021-03-24T16:53:33Z</time>
      </trkpt>
      <trkpt lat="40.20649" lon="-3.7277508">
        <ele>609.19</ele>
        <time>2021-03-24T16:53:34Z</time>
      </trkpt>
      <trkpt lat="40.20644" lon="-3.7277806">
        <ele>609.19</ele>
        <time>2021-03-24T16:53:35Z</time>
      </trkpt>
      <trkpt lat="40.20639" lon="-3.7278101">
        <ele>609.19</ele>
        <time>2021-03-24T16:53:36Z</time>
      </trkpt>
      <trkpt lat="40.206337" lon="-3.7278414">
        <ele>609.19</ele>
        <time>2021-03-24T16:53:37Z</time>
      </trkpt>
      <trkpt lat="40.206287" lon="-3.727869">
        <ele>609.19</ele>
        <time>2021-03-24T16:53:38Z</time>
      </trkpt>
      <trkpt lat="40.206238" lon="-3.7278957">
        <ele>609.19</ele>
        <time>2021-03-24T16:53:39Z</time>
      </trkpt>
      <trkpt lat="40.20619" lon="-3.7279215">
        <ele>609.19</ele>
        <time>2021-03-24T16:53:40Z</time>
      </trkpt>
      <trkpt lat="40.206135" lon="-3.727949">
        <ele>609.19</ele>
        <time>2021-03-24T16:53:41Z</time>
      </trkpt>
      <trkpt lat="40.20608" lon="-3.7279754">
        <ele>609.19</ele>
        <time>2021-03-24T16:53:42Z</time>
      </trkpt>
      <trkpt lat="40.20603" lon="-3.728">
        <ele>609.19</ele>
        <time>2021-03-24T16:53:43Z</time>
      </trkpt>
      <trkpt lat="40.205982" lon="-3.7280242">
        <ele>609.19</ele>
        <time>2021-03-24T16:53:44Z</time>
      </trkpt>
      <trkpt lat="40.20593" lon="-3.7280505">
        <ele>609.19</ele>
        <time>2021-03-24T16:53:45Z</time>
      </trkpt>
      <trkpt lat="40.205875" lon="-3.7280767">
        <ele>609.19</ele>
        <time>2021-03-24T16:53:46Z</time>
      </trkpt>
      <trkpt lat="40.205826" lon="-3.7281008">
        <ele>609.19</ele>
        <time>2021-03-24T16:53:47Z</time>
      </trkpt>
      <trkpt lat="40.205776" lon="-3.7281244">
        <ele>609.19</ele>
        <time>2021-03-24T16:53:48Z</time>
      </trkpt>
      <trkpt lat="40.205727" lon="-3.7281477">
        <ele>609.19</ele>
        <time>2021-03-24T16:53:49Z</time>
      </trkpt>
      <trkpt lat="40.205673" lon="-3.7281744">
        <ele>609.19</ele>
        <time>2021-03-24T16:53:50Z</time>
      </trkpt>
      <trkpt lat="40.20562" lon="-3.7281997">
        <ele>609.19</ele>
        <time>2021-03-24T16:53:51Z</time>
      </trkpt>
      <trkpt lat="40.20557" lon="-3.7282226">
        <ele>609.19</ele>
        <time>2021-03-24T16:53:52Z</time>
      </trkpt>
      <trkpt lat="40.20552" lon="-3.7282457">
        <ele>609.19</ele>
        <time>2021-03-24T16:53:53Z</time>
      </trkpt>
      <trkpt lat="40.205463" lon="-3.7282693">
        <ele>609.19</ele>
        <time>2021-03-24T16:53:54Z</time>
      </trkpt>
      <trkpt lat="40.205414" lon="-3.7282908">
        <ele>609.19</ele>
        <time>2021-03-24T16:53:55Z</time>
      </trkpt>
      <trkpt lat="40.20536" lon="-3.7283146">
        <ele>609.19</ele>
        <time>2021-03-24T16:53:56Z</time>
      </trkpt>
      <trkpt lat="40.20531" lon="-3.7283366">
        <ele>609.19</ele>
        <time>2021-03-24T16:53:57Z</time>
      </trkpt>
      <trkpt lat="40.205204" lon="-3.728383">
        <ele>609.19</ele>
        <time>2021-03-24T16:53:59Z</time>
      </trkpt>
      <trkpt lat="40.20515" lon="-3.7284052">
        <ele>609.19</ele>
        <time>2021-03-24T16:54:00Z</time>
      </trkpt>
      <trkpt lat="40.2051" lon="-3.7284274">
        <ele>609.19</ele>
        <time>2021-03-24T16:54:01Z</time>
      </trkpt>
      <trkpt lat="40.20505" lon="-3.728448">
        <ele>609.19</ele>
        <time>2021-03-24T16:54:02Z</time>
      </trkpt>
      <trkpt lat="40.205" lon="-3.7284694">
        <ele>609.19</ele>
        <time>2021-03-24T16:54:03Z</time>
      </trkpt>
      <trkpt lat="40.20489" lon="-3.728516">
        <ele>609.19</ele>
        <time>2021-03-24T16:54:05Z</time>
      </trkpt>
      <trkpt lat="40.20484" lon="-3.7285368">
        <ele>609.19</ele>
        <time>2021-03-24T16:54:06Z</time>
      </trkpt>
      <trkpt lat="40.204792" lon="-3.7285588">
        <ele>609.19</ele>
        <time>2021-03-24T16:54:07Z</time>
      </trkpt>
      <trkpt lat="40.20474" lon="-3.7285814">
        <ele>609.19</ele>
        <time>2021-03-24T16:54:08Z</time>
      </trkpt>
      <trkpt lat="40.204685" lon="-3.728604">
        <ele>609.19</ele>
        <time>2021-03-24T16:54:09Z</time>
      </trkpt>
      <trkpt lat="40.204636" lon="-3.7286263">
        <ele>609.19</ele>
        <time>2021-03-24T16:54:10Z</time>
      </trkpt>
      <trkpt lat="40.204586" lon="-3.7286494">
        <ele>609.19</ele>
        <time>2021-03-24T16:54:11Z</time>
      </trkpt>
      <trkpt lat="40.204536" lon="-3.7286723">
        <ele>609.19</ele>
        <time>2021-03-24T16:54:12Z</time>
      </trkpt>
      <trkpt lat="40.204483" lon="-3.7286963">
        <ele>609.19</ele>
        <time>2021-03-24T16:54:13Z</time>
      </trkpt>
      <trkpt lat="40.204433" lon="-3.7287188">
        <ele>609.19</ele>
        <time>2021-03-24T16:54:14Z</time>
      </trkpt>
      <trkpt lat="40.204388" lon="-3.7287393">
        <ele>609.19</ele>
        <time>2021-03-24T16:54:15Z</time>
      </trkpt>
      <trkpt lat="40.20429" lon="-3.7287834">
        <ele>609.19</ele>
        <time>2021-03-24T16:54:17Z</time>
      </trkpt>
      <trkpt lat="40.20424" lon="-3.728805">
        <ele>609.19</ele>
        <time>2021-03-24T16:54:18Z</time>
      </trkpt>
      <trkpt lat="40.20419" lon="-3.7288268">
        <ele>609.19</ele>
        <time>2021-03-24T16:54:19Z</time>
      </trkpt>
      <trkpt lat="40.204136" lon="-3.728848">
        <ele>609.19</ele>
        <time>2021-03-24T16:54:20Z</time>
      </trkpt>
      <trkpt lat="40.204082" lon="-3.7288682">
        <ele>609.19</ele>
        <time>2021-03-24T16:54:21Z</time>
      </trkpt>
      <trkpt lat="40.20403" lon="-3.7288897">
        <ele>609.19</ele>
        <time>2021-03-24T16:54:22Z</time>
      </trkpt>
      <trkpt lat="40.20397" lon="-3.72891">
        <ele>609.19</ele>
        <time>2021-03-24T16:54:23Z</time>
      </trkpt>
      <trkpt lat="40.203915" lon="-3.7289305">
        <ele>609.19</ele>
        <time>2021-03-24T16:54:24Z</time>
      </trkpt>
      <trkpt lat="40.20386" lon="-3.72895">
        <ele>609.19</ele>
        <time>2021-03-24T16:54:25Z</time>
      </trkpt>
      <trkpt lat="40.203804" lon="-3.7289712">
        <ele>609.19</ele>
        <time>2021-03-24T16:54:26Z</time>
      </trkpt>
      <trkpt lat="40.20375" lon="-3.728991">
        <ele>609.19</ele>
        <time>2021-03-24T16:54:27Z</time>
      </trkpt>
      <trkpt lat="40.20369" lon="-3.7290127">
        <ele>609.19</ele>
        <time>2021-03-24T16:54:28Z</time>
      </trkpt>
      <trkpt lat="40.203632" lon="-3.729032">
        <ele>609.19</ele>
        <time>2021-03-24T16:54:29Z</time>
      </trkpt>
      <trkpt lat="40.20358" lon="-3.729051">
        <ele>609.19</ele>
        <time>2021-03-24T16:54:30Z</time>
      </trkpt>
      <trkpt lat="40.203518" lon="-3.7290714">
        <ele>609.19</ele>
        <time>2021-03-24T16:54:31Z</time>
      </trkpt>
      <trkpt lat="40.203465" lon="-3.72909">
        <ele>609.19</ele>
        <time>2021-03-24T16:54:32Z</time>
      </trkpt>
      <trkpt lat="40.20341" lon="-3.7291086">
        <ele>607.91</ele>
        <time>2021-03-24T16:54:33Z</time>
      </trkpt>
      <trkpt lat="40.20335" lon="-3.7291286">
        <ele>607.91</ele>
        <time>2021-03-24T16:54:34Z</time>
      </trkpt>
      <trkpt lat="40.203297" lon="-3.729147">
        <ele>607.91</ele>
        <time>2021-03-24T16:54:35Z</time>
      </trkpt>
      <trkpt lat="40.203236" lon="-3.7291677">
        <ele>607.91</ele>
        <time>2021-03-24T16:54:36Z</time>
      </trkpt>
      <trkpt lat="40.203175" lon="-3.7291873">
        <ele>607.91</ele>
        <time>2021-03-24T16:54:37Z</time>
      </trkpt>
      <trkpt lat="40.203117" lon="-3.729207">
        <ele>607.91</ele>
        <time>2021-03-24T16:54:38Z</time>
      </trkpt>
      <trkpt lat="40.20306" lon="-3.7292242">
        <ele>607.91</ele>
        <time>2021-03-24T16:54:39Z</time>
      </trkpt>
      <trkpt lat="40.203" lon="-3.7292423">
        <ele>607.91</ele>
        <time>2021-03-24T16:54:40Z</time>
      </trkpt>
      <trkpt lat="40.202938" lon="-3.7292588">
        <ele>607.91</ele>
        <time>2021-03-24T16:54:41Z</time>
      </trkpt>
      <trkpt lat="40.20288" lon="-3.7292736">
        <ele>607.91</ele>
        <time>2021-03-24T16:54:42Z</time>
      </trkpt>
      <trkpt lat="40.20282" lon="-3.7292871">
        <ele>607.91</ele>
        <time>2021-03-24T16:54:43Z</time>
      </trkpt>
      <trkpt lat="40.202763" lon="-3.7292993">
        <ele>606.73</ele>
        <time>2021-03-24T16:54:44Z</time>
      </trkpt>
      <trkpt lat="40.2027" lon="-3.7293117">
        <ele>606.73</ele>
        <time>2021-03-24T16:54:45Z</time>
      </trkpt>
      <trkpt lat="40.20264" lon="-3.7293246">
        <ele>606.73</ele>
        <time>2021-03-24T16:54:46Z</time>
      </trkpt>
      <trkpt lat="40.202583" lon="-3.7293363">
        <ele>606.73</ele>
        <time>2021-03-24T16:54:47Z</time>
      </trkpt>
      <trkpt lat="40.20253" lon="-3.729348">
        <ele>606.73</ele>
        <time>2021-03-24T16:54:48Z</time>
      </trkpt>
      <trkpt lat="40.202473" lon="-3.72936">
        <ele>606.73</ele>
        <time>2021-03-24T16:54:49Z</time>
      </trkpt>
      <trkpt lat="40.20241" lon="-3.7293723">
        <ele>606.73</ele>
        <time>2021-03-24T16:54:50Z</time>
      </trkpt>
      <trkpt lat="40.202354" lon="-3.7293835">
        <ele>606.73</ele>
        <time>2021-03-24T16:54:51Z</time>
      </trkpt>
      <trkpt lat="40.202297" lon="-3.7293947">
        <ele>606.73</ele>
        <time>2021-03-24T16:54:52Z</time>
      </trkpt>
      <trkpt lat="40.20224" lon="-3.7294044">
        <ele>606.73</ele>
        <time>2021-03-24T16:54:53Z</time>
      </trkpt>
      <trkpt lat="40.202187" lon="-3.729413">
        <ele>606.73</ele>
        <time>2021-03-24T16:54:54Z</time>
      </trkpt>
      <trkpt lat="40.20213" lon="-3.7294223">
        <ele>606.73</ele>
        <time>2021-03-24T16:54:55Z</time>
      </trkpt>
      <trkpt lat="40.202072" lon="-3.7294314">
        <ele>606.73</ele>
        <time>2021-03-24T16:54:56Z</time>
      </trkpt>
      <trkpt lat="40.202015" lon="-3.7294407">
        <ele>606.73</ele>
        <time>2021-03-24T16:54:57Z</time>
      </trkpt>
      <trkpt lat="40.201904" lon="-3.7294576">
        <ele>606.73</ele>
        <time>2021-03-24T16:54:59Z</time>
      </trkpt>
      <trkpt lat="40.20185" lon="-3.7294667">
        <ele>606.73</ele>
        <time>2021-03-24T16:55:00Z</time>
      </trkpt>
      <trkpt lat="40.201794" lon="-3.7294757">
        <ele>606.73</ele>
        <time>2021-03-24T16:55:01Z</time>
      </trkpt>
      <trkpt lat="40.201736" lon="-3.729485">
        <ele>606.73</ele>
        <time>2021-03-24T16:55:02Z</time>
      </trkpt>
      <trkpt lat="40.20168" lon="-3.729494">
        <ele>606.73</ele>
        <time>2021-03-24T16:55:03Z</time>
      </trkpt>
      <trkpt lat="40.201622" lon="-3.729501">
        <ele>607.91</ele>
        <time>2021-03-24T16:55:04Z</time>
      </trkpt>
      <trkpt lat="40.201565" lon="-3.7295084">
        <ele>607.91</ele>
        <time>2021-03-24T16:55:05Z</time>
      </trkpt>
      <trkpt lat="40.201508" lon="-3.7295153">
        <ele>607.91</ele>
        <time>2021-03-24T16:55:06Z</time>
      </trkpt>
      <trkpt lat="40.201397" lon="-3.7295313">
        <ele>607.91</ele>
        <time>2021-03-24T16:55:08Z</time>
      </trkpt>
      <trkpt lat="40.20134" lon="-3.729541">
        <ele>607.91</ele>
        <time>2021-03-24T16:55:09Z</time>
      </trkpt>
      <trkpt lat="40.20128" lon="-3.729551">
        <ele>607.62</ele>
        <time>2021-03-24T16:55:10Z</time>
      </trkpt>
      <trkpt lat="40.20122" lon="-3.7295609">
        <ele>607.62</ele>
        <time>2021-03-24T16:55:11Z</time>
      </trkpt>
      <trkpt lat="40.201168" lon="-3.729571">
        <ele>607.62</ele>
        <time>2021-03-24T16:55:12Z</time>
      </trkpt>
      <trkpt lat="40.201107" lon="-3.729582">
        <ele>607.62</ele>
        <time>2021-03-24T16:55:13Z</time>
      </trkpt>
      <trkpt lat="40.201054" lon="-3.7295923">
        <ele>607.62</ele>
        <time>2021-03-24T16:55:14Z</time>
      </trkpt>
      <trkpt lat="40.200996" lon="-3.7296042">
        <ele>607.62</ele>
        <time>2021-03-24T16:55:15Z</time>
      </trkpt>
      <trkpt lat="40.20094" lon="-3.7296157">
        <ele>607.62</ele>
        <time>2021-03-24T16:55:16Z</time>
      </trkpt>
      <trkpt lat="40.200886" lon="-3.729628">
        <ele>607.62</ele>
        <time>2021-03-24T16:55:17Z</time>
      </trkpt>
      <trkpt lat="40.200825" lon="-3.7296417">
        <ele>607.62</ele>
        <time>2021-03-24T16:55:18Z</time>
      </trkpt>
      <trkpt lat="40.200764" lon="-3.7296553">
        <ele>607.62</ele>
        <time>2021-03-24T16:55:19Z</time>
      </trkpt>
      <trkpt lat="40.20071" lon="-3.7296684">
        <ele>607.62</ele>
        <time>2021-03-24T16:55:20Z</time>
      </trkpt>
      <trkpt lat="40.200653" lon="-3.7296824">
        <ele>607.62</ele>
        <time>2021-03-24T16:55:21Z</time>
      </trkpt>
      <trkpt lat="40.200596" lon="-3.7296968">
        <ele>607.62</ele>
        <time>2021-03-24T16:55:22Z</time>
      </trkpt>
      <trkpt lat="40.20054" lon="-3.7297113">
        <ele>607.62</ele>
        <time>2021-03-24T16:55:23Z</time>
      </trkpt>
      <trkpt lat="40.200478" lon="-3.7297282">
        <ele>607.62</ele>
        <time>2021-03-24T16:55:24Z</time>
      </trkpt>
      <trkpt lat="40.200417" lon="-3.7297454">
        <ele>607.62</ele>
        <time>2021-03-24T16:55:25Z</time>
      </trkpt>
      <trkpt lat="40.20036" lon="-3.729761">
        <ele>607.62</ele>
        <time>2021-03-24T16:55:26Z</time>
      </trkpt>
      <trkpt lat="40.2003" lon="-3.7297788">
        <ele>607.62</ele>
        <time>2021-03-24T16:55:27Z</time>
      </trkpt>
      <trkpt lat="40.200237" lon="-3.729797">
        <ele>607.62</ele>
        <time>2021-03-24T16:55:28Z</time>
      </trkpt>
      <trkpt lat="40.20018" lon="-3.729816">
        <ele>607.62</ele>
        <time>2021-03-24T16:55:29Z</time>
      </trkpt>
      <trkpt lat="40.200123" lon="-3.7298346">
        <ele>607.62</ele>
        <time>2021-03-24T16:55:30Z</time>
      </trkpt>
      <trkpt lat="40.200066" lon="-3.729855">
        <ele>607.62</ele>
        <time>2021-03-24T16:55:31Z</time>
      </trkpt>
      <trkpt lat="40.2" lon="-3.7298796">
        <ele>607.62</ele>
        <time>2021-03-24T16:55:32Z</time>
      </trkpt>
      <trkpt lat="40.19994" lon="-3.7299063">
        <ele>607.62</ele>
        <time>2021-03-24T16:55:33Z</time>
      </trkpt>
      <trkpt lat="40.199875" lon="-3.729935">
        <ele>607.62</ele>
        <time>2021-03-24T16:55:34Z</time>
      </trkpt>
      <trkpt lat="40.199818" lon="-3.7299643">
        <ele>607.62</ele>
        <time>2021-03-24T16:55:35Z</time>
      </trkpt>
      <trkpt lat="40.19976" lon="-3.7299984">
        <ele>607.62</ele>
        <time>2021-03-24T16:55:36Z</time>
      </trkpt>
      <trkpt lat="40.199696" lon="-3.73004">
        <ele>607.62</ele>
        <time>2021-03-24T16:55:37Z</time>
      </trkpt>
      <trkpt lat="40.19963" lon="-3.730084">
        <ele>606.35</ele>
        <time>2021-03-24T16:55:38Z</time>
      </trkpt>
      <trkpt lat="40.19957" lon="-3.7301307">
        <ele>606.35</ele>
        <time>2021-03-24T16:55:39Z</time>
      </trkpt>
      <trkpt lat="40.19951" lon="-3.7301743">
        <ele>606.35</ele>
        <time>2021-03-24T16:55:40Z</time>
      </trkpt>
      <trkpt lat="40.19945" lon="-3.73022">
        <ele>606.35</ele>
        <time>2021-03-24T16:55:41Z</time>
      </trkpt>
      <trkpt lat="40.199387" lon="-3.7302663">
        <ele>606.35</ele>
        <time>2021-03-24T16:55:42Z</time>
      </trkpt>
      <trkpt lat="40.199326" lon="-3.73031">
        <ele>606.35</ele>
        <time>2021-03-24T16:55:43Z</time>
      </trkpt>
      <trkpt lat="40.199257" lon="-3.7303505">
        <ele>606.35</ele>
        <time>2021-03-24T16:55:44Z</time>
      </trkpt>
      <trkpt lat="40.199192" lon="-3.730387">
        <ele>605.08</ele>
        <time>2021-03-24T16:55:45Z</time>
      </trkpt>
      <trkpt lat="40.199123" lon="-3.7304184">
        <ele>605.08</ele>
        <time>2021-03-24T16:55:46Z</time>
      </trkpt>
      <trkpt lat="40.199055" lon="-3.7304473">
        <ele>605.08</ele>
        <time>2021-03-24T16:55:47Z</time>
      </trkpt>
      <trkpt lat="40.19898" lon="-3.730477">
        <ele>605.08</ele>
        <time>2021-03-24T16:55:48Z</time>
      </trkpt>
      <trkpt lat="40.19891" lon="-3.7305048">
        <ele>605.08</ele>
        <time>2021-03-24T16:55:49Z</time>
      </trkpt>
      <trkpt lat="40.198845" lon="-3.7305334">
        <ele>605.08</ele>
        <time>2021-03-24T16:55:50Z</time>
      </trkpt>
      <trkpt lat="40.19878" lon="-3.7305655">
        <ele>603.89</ele>
        <time>2021-03-24T16:55:51Z</time>
      </trkpt>
      <trkpt lat="40.198715" lon="-3.7306058">
        <ele>603.89</ele>
        <time>2021-03-24T16:55:52Z</time>
      </trkpt>
      <trkpt lat="40.198658" lon="-3.7306535">
        <ele>603.89</ele>
        <time>2021-03-24T16:55:53Z</time>
      </trkpt>
      <trkpt lat="40.19861" lon="-3.7307096">
        <ele>603.89</ele>
        <time>2021-03-24T16:55:54Z</time>
      </trkpt>
      <trkpt lat="40.198566" lon="-3.7307694">
        <ele>603.89</ele>
        <time>2021-03-24T16:55:55Z</time>
      </trkpt>
      <trkpt lat="40.198536" lon="-3.730839">
        <ele>602.71</ele>
        <time>2021-03-24T16:55:56Z</time>
      </trkpt>
      <trkpt lat="40.198513" lon="-3.7309144">
        <ele>602.71</ele>
        <time>2021-03-24T16:55:57Z</time>
      </trkpt>
      <trkpt lat="40.19849" lon="-3.7309985">
        <ele>602.71</ele>
        <time>2021-03-24T16:55:58Z</time>
      </trkpt>
      <trkpt lat="40.19847" lon="-3.7310786">
        <ele>602.71</ele>
        <time>2021-03-24T16:55:59Z</time>
      </trkpt>
      <trkpt lat="40.198456" lon="-3.7311609">
        <ele>602.71</ele>
        <time>2021-03-24T16:56:00Z</time>
      </trkpt>
      <trkpt lat="40.19844" lon="-3.7312436">
        <ele>602.71</ele>
        <time>2021-03-24T16:56:01Z</time>
      </trkpt>
      <trkpt lat="40.19843" lon="-3.7313263">
        <ele>602.71</ele>
        <time>2021-03-24T16:56:02Z</time>
      </trkpt>
      <trkpt lat="40.198418" lon="-3.7314093">
        <ele>602.71</ele>
        <time>2021-03-24T16:56:03Z</time>
      </trkpt>
      <trkpt lat="40.198406" lon="-3.7314928">
        <ele>602.71</ele>
        <time>2021-03-24T16:56:04Z</time>
      </trkpt>
      <trkpt lat="40.19839" lon="-3.7315776">
        <ele>602.71</ele>
        <time>2021-03-24T16:56:05Z</time>
      </trkpt>
      <trkpt lat="40.19838" lon="-3.7316666">
        <ele>602.71</ele>
        <time>2021-03-24T16:56:06Z</time>
      </trkpt>
      <trkpt lat="40.198368" lon="-3.7317538">
        <ele>601.53</ele>
        <time>2021-03-24T16:56:07Z</time>
      </trkpt>
      <trkpt lat="40.198357" lon="-3.7318404">
        <ele>601.53</ele>
        <time>2021-03-24T16:56:08Z</time>
      </trkpt>
      <trkpt lat="40.19835" lon="-3.7319202">
        <ele>601.53</ele>
        <time>2021-03-24T16:56:09Z</time>
      </trkpt>
      <trkpt lat="40.198338" lon="-3.7320035">
        <ele>601.53</ele>
        <time>2021-03-24T16:56:10Z</time>
      </trkpt>
      <trkpt lat="40.198322" lon="-3.73209">
        <ele>601.53</ele>
        <time>2021-03-24T16:56:11Z</time>
      </trkpt>
      <trkpt lat="40.19831" lon="-3.7321737">
        <ele>601.53</ele>
        <time>2021-03-24T16:56:12Z</time>
      </trkpt>
      <trkpt lat="40.1983" lon="-3.73225">
        <ele>601.53</ele>
        <time>2021-03-24T16:56:13Z</time>
      </trkpt>
      <trkpt lat="40.198288" lon="-3.7323296">
        <ele>601.53</ele>
        <time>2021-03-24T16:56:14Z</time>
      </trkpt>
      <trkpt lat="40.198273" lon="-3.732415">
        <ele>601.53</ele>
        <time>2021-03-24T16:56:15Z</time>
      </trkpt>
      <trkpt lat="40.19825" lon="-3.7324986">
        <ele>601.53</ele>
        <time>2021-03-24T16:56:16Z</time>
      </trkpt>
      <trkpt lat="40.198227" lon="-3.73258">
        <ele>601.53</ele>
        <time>2021-03-24T16:56:17Z</time>
      </trkpt>
      <trkpt lat="40.198204" lon="-3.7326548">
        <ele>601.53</ele>
        <time>2021-03-24T16:56:18Z</time>
      </trkpt>
      <trkpt lat="40.19818" lon="-3.732731">
        <ele>601.53</ele>
        <time>2021-03-24T16:56:19Z</time>
      </trkpt>
      <trkpt lat="40.198154" lon="-3.7328143">
        <ele>601.53</ele>
        <time>2021-03-24T16:56:20Z</time>
      </trkpt>
      <trkpt lat="40.19813" lon="-3.732897">
        <ele>601.53</ele>
        <time>2021-03-24T16:56:21Z</time>
      </trkpt>
      <trkpt lat="40.19811" lon="-3.7329774">
        <ele>601.53</ele>
        <time>2021-03-24T16:56:22Z</time>
      </trkpt>
      <trkpt lat="40.19809" lon="-3.7330523">
        <ele>601.53</ele>
        <time>2021-03-24T16:56:23Z</time>
      </trkpt>
      <trkpt lat="40.198067" lon="-3.7331293">
        <ele>601.53</ele>
        <time>2021-03-24T16:56:24Z</time>
      </trkpt>
      <trkpt lat="40.198048" lon="-3.7332094">
        <ele>601.53</ele>
        <time>2021-03-24T16:56:25Z</time>
      </trkpt>
      <trkpt lat="40.19802" lon="-3.7332897">
        <ele>601.53</ele>
        <time>2021-03-24T16:56:26Z</time>
      </trkpt>
      <trkpt lat="40.197998" lon="-3.7333724">
        <ele>601.53</ele>
        <time>2021-03-24T16:56:27Z</time>
      </trkpt>
      <trkpt lat="40.197975" lon="-3.733453">
        <ele>601.53</ele>
        <time>2021-03-24T16:56:28Z</time>
      </trkpt>
      <trkpt lat="40.19795" lon="-3.7335324">
        <ele>601.53</ele>
        <time>2021-03-24T16:56:29Z</time>
      </trkpt>
      <trkpt lat="40.19792" lon="-3.7336097">
        <ele>601.53</ele>
        <time>2021-03-24T16:56:30Z</time>
      </trkpt>
      <trkpt lat="40.197895" lon="-3.7336924">
        <ele>601.53</ele>
        <time>2021-03-24T16:56:31Z</time>
      </trkpt>
      <trkpt lat="40.197865" lon="-3.7337732">
        <ele>601.53</ele>
        <time>2021-03-24T16:56:32Z</time>
      </trkpt>
      <trkpt lat="40.197838" lon="-3.733848">
        <ele>601.53</ele>
        <time>2021-03-24T16:56:33Z</time>
      </trkpt>
      <trkpt lat="40.19781" lon="-3.7339225">
        <ele>601.53</ele>
        <time>2021-03-24T16:56:34Z</time>
      </trkpt>
      <trkpt lat="40.197784" lon="-3.734001">
        <ele>601.53</ele>
        <time>2021-03-24T16:56:35Z</time>
      </trkpt>
      <trkpt lat="40.197758" lon="-3.7340717">
        <ele>601.53</ele>
        <time>2021-03-24T16:56:36Z</time>
      </trkpt>
      <trkpt lat="40.197735" lon="-3.7341413">
        <ele>601.53</ele>
        <time>2021-03-24T16:56:37Z</time>
      </trkpt>
      <trkpt lat="40.19771" lon="-3.734212">
        <ele>601.53</ele>
        <time>2021-03-24T16:56:38Z</time>
      </trkpt>
      <trkpt lat="40.197685" lon="-3.734286">
        <ele>601.53</ele>
        <time>2021-03-24T16:56:39Z</time>
      </trkpt>
      <trkpt lat="40.19766" lon="-3.7343583">
        <ele>601.53</ele>
        <time>2021-03-24T16:56:40Z</time>
      </trkpt>
      <trkpt lat="40.197636" lon="-3.73443">
        <ele>601.53</ele>
        <time>2021-03-24T16:56:41Z</time>
      </trkpt>
      <trkpt lat="40.197617" lon="-3.734495">
        <ele>602.8</ele>
        <time>2021-03-24T16:56:42Z</time>
      </trkpt>
      <trkpt lat="40.19757" lon="-3.7346284">
        <ele>602.8</ele>
        <time>2021-03-24T16:56:44Z</time>
      </trkpt>
      <trkpt lat="40.19755" lon="-3.734696">
        <ele>602.8</ele>
        <time>2021-03-24T16:56:45Z</time>
      </trkpt>
      <trkpt lat="40.197533" lon="-3.734764">
        <ele>602.8</ele>
        <time>2021-03-24T16:56:46Z</time>
      </trkpt>
      <trkpt lat="40.19751" lon="-3.734832">
        <ele>602.8</ele>
        <time>2021-03-24T16:56:47Z</time>
      </trkpt>
      <trkpt lat="40.19749" lon="-3.7348998">
        <ele>602.8</ele>
        <time>2021-03-24T16:56:48Z</time>
      </trkpt>
      <trkpt lat="40.197468" lon="-3.7349713">
        <ele>603.98</ele>
        <time>2021-03-24T16:56:49Z</time>
      </trkpt>
      <trkpt lat="40.197445" lon="-3.735037">
        <ele>603.98</ele>
        <time>2021-03-24T16:56:50Z</time>
      </trkpt>
      <trkpt lat="40.197422" lon="-3.7351022">
        <ele>603.98</ele>
        <time>2021-03-24T16:56:51Z</time>
      </trkpt>
      <trkpt lat="40.1974" lon="-3.7351673">
        <ele>603.98</ele>
        <time>2021-03-24T16:56:52Z</time>
      </trkpt>
      <trkpt lat="40.19738" lon="-3.7352326">
        <ele>603.98</ele>
        <time>2021-03-24T16:56:53Z</time>
      </trkpt>
      <trkpt lat="40.197357" lon="-3.7353017">
        <ele>603.98</ele>
        <time>2021-03-24T16:56:54Z</time>
      </trkpt>
      <trkpt lat="40.19731" lon="-3.7354333">
        <ele>603.98</ele>
        <time>2021-03-24T16:56:56Z</time>
      </trkpt>
      <trkpt lat="40.197292" lon="-3.7354927">
        <ele>603.98</ele>
        <time>2021-03-24T16:56:57Z</time>
      </trkpt>
      <trkpt lat="40.197273" lon="-3.7355576">
        <ele>603.98</ele>
        <time>2021-03-24T16:56:58Z</time>
      </trkpt>
      <trkpt lat="40.197254" lon="-3.7356207">
        <ele>603.98</ele>
        <time>2021-03-24T16:56:59Z</time>
      </trkpt>
      <trkpt lat="40.197216" lon="-3.7357376">
        <ele>603.98</ele>
        <time>2021-03-24T16:57:01Z</time>
      </trkpt>
      <trkpt lat="40.197178" lon="-3.7358527">
        <ele>603.98</ele>
        <time>2021-03-24T16:57:03Z</time>
      </trkpt>
      <trkpt lat="40.197144" lon="-3.7359667">
        <ele>603.98</ele>
        <time>2021-03-24T16:57:05Z</time>
      </trkpt>
      <trkpt lat="40.19711" lon="-3.736087">
        <ele>603.98</ele>
        <time>2021-03-24T16:57:07Z</time>
      </trkpt>
      <trkpt lat="40.197094" lon="-3.7361465">
        <ele>603.98</ele>
        <time>2021-03-24T16:57:08Z</time>
      </trkpt>
      <trkpt lat="40.197083" lon="-3.7362096">
        <ele>603.98</ele>
        <time>2021-03-24T16:57:09Z</time>
      </trkpt>
      <trkpt lat="40.19706" lon="-3.736332">
        <ele>608.22</ele>
        <time>2021-03-24T16:57:11Z</time>
      </trkpt>
      <trkpt lat="40.19704" lon="-3.736454">
        <ele>608.22</ele>
        <time>2021-03-24T16:57:13Z</time>
      </trkpt>
      <trkpt lat="40.197018" lon="-3.7365723">
        <ele>608.22</ele>
        <time>2021-03-24T16:57:15Z</time>
      </trkpt>
      <trkpt lat="40.19699" lon="-3.7366934">
        <ele>608.22</ele>
        <time>2021-03-24T16:57:17Z</time>
      </trkpt>
      <trkpt lat="40.196976" lon="-3.7367547">
        <ele>608.22</ele>
        <time>2021-03-24T16:57:18Z</time>
      </trkpt>
      <trkpt lat="40.196938" lon="-3.7368734">
        <ele>608.22</ele>
        <time>2021-03-24T16:57:20Z</time>
      </trkpt>
      <trkpt lat="40.196896" lon="-3.7369914">
        <ele>608.22</ele>
        <time>2021-03-24T16:57:22Z</time>
      </trkpt>
      <trkpt lat="40.196873" lon="-3.7370496">
        <ele>608.22</ele>
        <time>2021-03-24T16:57:23Z</time>
      </trkpt>
      <trkpt lat="40.19685" lon="-3.7371066">
        <ele>608.22</ele>
        <time>2021-03-24T16:57:24Z</time>
      </trkpt>
      <trkpt lat="40.196793" lon="-3.7372162">
        <ele>609.4</ele>
        <time>2021-03-24T16:57:26Z</time>
      </trkpt>
      <trkpt lat="40.19673" lon="-3.7373164">
        <ele>609.4</ele>
        <time>2021-03-24T16:57:29Z</time>
      </trkpt>
      <trkpt lat="40.196667" lon="-3.7374113">
        <ele>609.4</ele>
        <time>2021-03-24T16:57:30Z</time>
      </trkpt>
      <trkpt lat="40.196606" lon="-3.7374966">
        <ele>609.4</ele>
        <time>2021-03-24T16:57:32Z</time>
      </trkpt>
      <trkpt lat="40.19654" lon="-3.737576">
        <ele>609.4</ele>
        <time>2021-03-24T16:57:34Z</time>
      </trkpt>
      <trkpt lat="40.196465" lon="-3.737658">
        <ele>609.4</ele>
        <time>2021-03-24T16:57:36Z</time>
      </trkpt>
      <trkpt lat="40.19643" lon="-3.7376955">
        <ele>609.4</ele>
        <time>2021-03-24T16:57:37Z</time>
      </trkpt>
      <trkpt lat="40.196358" lon="-3.737768">
        <ele>610.68</ele>
        <time>2021-03-24T16:57:39Z</time>
      </trkpt>
      <trkpt lat="40.196278" lon="-3.737831">
        <ele>610.68</ele>
        <time>2021-03-24T16:57:41Z</time>
      </trkpt>
      <trkpt lat="40.19619" lon="-3.7378857">
        <ele>610.68</ele>
        <time>2021-03-24T16:57:43Z</time>
      </trkpt>
      <trkpt lat="40.19611" lon="-3.7379367">
        <ele>610.68</ele>
        <time>2021-03-24T16:57:45Z</time>
      </trkpt>
      <trkpt lat="40.196026" lon="-3.7380004">
        <ele>610.68</ele>
        <time>2021-03-24T16:57:47Z</time>
      </trkpt>
      <trkpt lat="40.195957" lon="-3.7380714">
        <ele>610.68</ele>
        <time>2021-03-24T16:57:49Z</time>
      </trkpt>
      <trkpt lat="40.195892" lon="-3.7381487">
        <ele>610.68</ele>
        <time>2021-03-24T16:57:51Z</time>
      </trkpt>
      <trkpt lat="40.195835" lon="-3.73823">
        <ele>610.68</ele>
        <time>2021-03-24T16:57:53Z</time>
      </trkpt>
      <trkpt lat="40.195778" lon="-3.7383146">
        <ele>610.68</ele>
        <time>2021-03-24T16:57:55Z</time>
      </trkpt>
      <trkpt lat="40.19573" lon="-3.738409">
        <ele>610.68</ele>
        <time>2021-03-24T16:57:57Z</time>
      </trkpt>
      <trkpt lat="40.19568" lon="-3.738514">
        <ele>610.68</ele>
        <time>2021-03-24T16:57:59Z</time>
      </trkpt>
      <trkpt lat="40.195656" lon="-3.7385705">
        <ele>610.68</ele>
        <time>2021-03-24T16:58:00Z</time>
      </trkpt>
      <trkpt lat="40.195595" lon="-3.738691">
        <ele>610.68</ele>
        <time>2021-03-24T16:58:02Z</time>
      </trkpt>
      <trkpt lat="40.195557" lon="-3.7387516">
        <ele>610.68</ele>
        <time>2021-03-24T16:58:03Z</time>
      </trkpt>
      <trkpt lat="40.195526" lon="-3.738805">
        <ele>610.68</ele>
        <time>2021-03-24T16:58:04Z</time>
      </trkpt>
      <trkpt lat="40.195488" lon="-3.7388625">
        <ele>610.68</ele>
        <time>2021-03-24T16:58:05Z</time>
      </trkpt>
      <trkpt lat="40.19545" lon="-3.738919">
        <ele>610.68</ele>
        <time>2021-03-24T16:58:06Z</time>
      </trkpt>
      <trkpt lat="40.195415" lon="-3.738971">
        <ele>610.68</ele>
        <time>2021-03-24T16:58:07Z</time>
      </trkpt>
      <trkpt lat="40.195335" lon="-3.7390754">
        <ele>609.4</ele>
        <time>2021-03-24T16:58:09Z</time>
      </trkpt>
      <trkpt lat="40.195293" lon="-3.739132">
        <ele>609.4</ele>
        <time>2021-03-24T16:58:10Z</time>
      </trkpt>
      <trkpt lat="40.195248" lon="-3.7391858">
        <ele>609.4</ele>
        <time>2021-03-24T16:58:11Z</time>
      </trkpt>
      <trkpt lat="40.195206" lon="-3.7392387">
        <ele>609.4</ele>
        <time>2021-03-24T16:58:12Z</time>
      </trkpt>
      <trkpt lat="40.195168" lon="-3.7392862">
        <ele>609.4</ele>
        <time>2021-03-24T16:58:13Z</time>
      </trkpt>
      <trkpt lat="40.195126" lon="-3.7393334">
        <ele>609.4</ele>
        <time>2021-03-24T16:58:14Z</time>
      </trkpt>
      <trkpt lat="40.195084" lon="-3.739382">
        <ele>608.13</ele>
        <time>2021-03-24T16:58:15Z</time>
      </trkpt>
      <trkpt lat="40.195038" lon="-3.7394288">
        <ele>608.13</ele>
        <time>2021-03-24T16:58:16Z</time>
      </trkpt>
      <trkpt lat="40.194996" lon="-3.7394714">
        <ele>608.13</ele>
        <time>2021-03-24T16:58:17Z</time>
      </trkpt>
      <trkpt lat="40.19491" lon="-3.7395537">
        <ele>608.13</ele>
        <time>2021-03-24T16:58:19Z</time>
      </trkpt>
      <trkpt lat="40.194862" lon="-3.7395923">
        <ele>608.13</ele>
        <time>2021-03-24T16:58:20Z</time>
      </trkpt>
      <trkpt lat="40.194817" lon="-3.7396328">
        <ele>608.13</ele>
        <time>2021-03-24T16:58:21Z</time>
      </trkpt>
      <trkpt lat="40.194775" lon="-3.7396715">
        <ele>608.13</ele>
        <time>2021-03-24T16:58:22Z</time>
      </trkpt>
      <trkpt lat="40.194687" lon="-3.7397535">
        <ele>608.13</ele>
        <time>2021-03-24T16:58:24Z</time>
      </trkpt>
      <trkpt lat="40.19464" lon="-3.739796">
        <ele>608.13</ele>
        <time>2021-03-24T16:58:25Z</time>
      </trkpt>
      <trkpt lat="40.194603" lon="-3.7398357">
        <ele>608.13</ele>
        <time>2021-03-24T16:58:26Z</time>
      </trkpt>
      <trkpt lat="40.194523" lon="-3.739919">
        <ele>608.13</ele>
        <time>2021-03-24T16:58:28Z</time>
      </trkpt>
      <trkpt lat="40.194443" lon="-3.7400057">
        <ele>608.13</ele>
        <time>2021-03-24T16:58:30Z</time>
      </trkpt>
      <trkpt lat="40.194405" lon="-3.7400477">
        <ele>608.13</ele>
        <time>2021-03-24T16:58:31Z</time>
      </trkpt>
      <trkpt lat="40.194366" lon="-3.740086">
        <ele>608.13</ele>
        <time>2021-03-24T16:58:32Z</time>
      </trkpt>
      <trkpt lat="40.19429" lon="-3.7401636">
        <ele>608.13</ele>
        <time>2021-03-24T16:58:34Z</time>
      </trkpt>
      <trkpt lat="40.19425" lon="-3.7402058">
        <ele>608.13</ele>
        <time>2021-03-24T16:58:35Z</time>
      </trkpt>
      <trkpt lat="40.194176" lon="-3.7402847">
        <ele>609.4</ele>
        <time>2021-03-24T16:58:37Z</time>
      </trkpt>
      <trkpt lat="40.194103" lon="-3.7403617">
        <ele>609.4</ele>
        <time>2021-03-24T16:58:39Z</time>
      </trkpt>
      <trkpt lat="40.19404" lon="-3.740432">
        <ele>609.4</ele>
        <time>2021-03-24T16:58:41Z</time>
      </trkpt>
      <trkpt lat="40.193985" lon="-3.740492">
        <ele>610.59</ele>
        <time>2021-03-24T16:58:43Z</time>
      </trkpt>
      <trkpt lat="40.193924" lon="-3.7405567">
        <ele>610.59</ele>
        <time>2021-03-24T16:58:45Z</time>
      </trkpt>
      <trkpt lat="40.193867" lon="-3.7406166">
        <ele>610.59</ele>
        <time>2021-03-24T16:58:47Z</time>
      </trkpt>
      <trkpt lat="40.19381" lon="-3.740674">
        <ele>612.04</ele>
        <time>2021-03-24T16:58:49Z</time>
      </trkpt>
      <trkpt lat="40.193756" lon="-3.740727">
        <ele>613.22</ele>
        <time>2021-03-24T16:58:51Z</time>
      </trkpt>
      <trkpt lat="40.193703" lon="-3.7407858">
        <ele>613.22</ele>
        <time>2021-03-24T16:58:53Z</time>
      </trkpt>
      <trkpt lat="40.193645" lon="-3.7408483">
        <ele>613.22</ele>
        <time>2021-03-24T16:58:55Z</time>
      </trkpt>
      <trkpt lat="40.193596" lon="-3.7409103">
        <ele>614.5</ele>
        <time>2021-03-24T16:58:57Z</time>
      </trkpt>
      <trkpt lat="40.193542" lon="-3.7409763">
        <ele>614.5</ele>
        <time>2021-03-24T16:58:59Z</time>
      </trkpt>
      <trkpt lat="40.193485" lon="-3.7410388">
        <ele>615.77</ele>
        <time>2021-03-24T16:59:01Z</time>
      </trkpt>
      <trkpt lat="40.19343" lon="-3.741101">
        <ele>615.77</ele>
        <time>2021-03-24T16:59:03Z</time>
      </trkpt>
      <trkpt lat="40.19338" lon="-3.741172">
        <ele>616.95</ele>
        <time>2021-03-24T16:59:05Z</time>
      </trkpt>
      <trkpt lat="40.19333" lon="-3.7412503">
        <ele>616.95</ele>
        <time>2021-03-24T16:59:07Z</time>
      </trkpt>
      <trkpt lat="40.193275" lon="-3.7413282">
        <ele>616.95</ele>
        <time>2021-03-24T16:59:09Z</time>
      </trkpt>
      <trkpt lat="40.19322" lon="-3.7414076">
        <ele>613.37</ele>
        <time>2021-03-24T16:59:11Z</time>
      </trkpt>
      <trkpt lat="40.19316" lon="-3.7414906">
        <ele>613.37</ele>
        <time>2021-03-24T16:59:13Z</time>
      </trkpt>
      <trkpt lat="40.193108" lon="-3.7415752">
        <ele>613.37</ele>
        <time>2021-03-24T16:59:15Z</time>
      </trkpt>
      <trkpt lat="40.19305" lon="-3.7416537">
        <ele>613.37</ele>
        <time>2021-03-24T16:59:17Z</time>
      </trkpt>
      <trkpt lat="40.192993" lon="-3.7417252">
        <ele>613.37</ele>
        <time>2021-03-24T16:59:19Z</time>
      </trkpt>
      <trkpt lat="40.192924" lon="-3.7417865">
        <ele>613.37</ele>
        <time>2021-03-24T16:59:21Z</time>
      </trkpt>
      <trkpt lat="40.192844" lon="-3.7418196">
        <ele>613.37</ele>
        <time>2021-03-24T16:59:23Z</time>
      </trkpt>
      <trkpt lat="40.192753" lon="-3.7418127">
        <ele>613.37</ele>
        <time>2021-03-24T16:59:25Z</time>
      </trkpt>
      <trkpt lat="40.19265" lon="-3.741771">
        <ele>612.01</ele>
        <time>2021-03-24T16:59:27Z</time>
      </trkpt>
      <trkpt lat="40.192593" lon="-3.7417376">
        <ele>612.01</ele>
        <time>2021-03-24T16:59:28Z</time>
      </trkpt>
      <trkpt lat="40.192535" lon="-3.741698">
        <ele>612.01</ele>
        <time>2021-03-24T16:59:29Z</time>
      </trkpt>
      <trkpt lat="40.19248" lon="-3.7416513">
        <ele>612.01</ele>
        <time>2021-03-24T16:59:30Z</time>
      </trkpt>
      <trkpt lat="40.19242" lon="-3.7416012">
        <ele>610.64</ele>
        <time>2021-03-24T16:59:31Z</time>
      </trkpt>
      <trkpt lat="40.192356" lon="-3.7415404">
        <ele>610.64</ele>
        <time>2021-03-24T16:59:32Z</time>
      </trkpt>
      <trkpt lat="40.192295" lon="-3.741475">
        <ele>610.64</ele>
        <time>2021-03-24T16:59:33Z</time>
      </trkpt>
      <trkpt lat="40.192226" lon="-3.7414057">
        <ele>609.1</ele>
        <time>2021-03-24T16:59:34Z</time>
      </trkpt>
      <trkpt lat="40.19216" lon="-3.7413328">
        <ele>609.1</ele>
        <time>2021-03-24T16:59:35Z</time>
      </trkpt>
      <trkpt lat="40.192093" lon="-3.7412548">
        <ele>609.1</ele>
        <time>2021-03-24T16:59:36Z</time>
      </trkpt>
      <trkpt lat="40.192024" lon="-3.741173">
        <ele>607.46</ele>
        <time>2021-03-24T16:59:37Z</time>
      </trkpt>
      <trkpt lat="40.191956" lon="-3.7410889">
        <ele>607.46</ele>
        <time>2021-03-24T16:59:38Z</time>
      </trkpt>
      <trkpt lat="40.191887" lon="-3.7409997">
        <ele>606.19</ele>
        <time>2021-03-24T16:59:39Z</time>
      </trkpt>
      <trkpt lat="40.191822" lon="-3.7409046">
        <ele>606.19</ele>
        <time>2021-03-24T16:59:40Z</time>
      </trkpt>
      <trkpt lat="40.191757" lon="-3.740804">
        <ele>604.91</ele>
        <time>2021-03-24T16:59:41Z</time>
      </trkpt>
      <trkpt lat="40.191696" lon="-3.7406993">
        <ele>604.91</ele>
        <time>2021-03-24T16:59:42Z</time>
      </trkpt>
      <trkpt lat="40.191635" lon="-3.7405903">
        <ele>603.55</ele>
        <time>2021-03-24T16:59:43Z</time>
      </trkpt>
      <trkpt lat="40.19158" lon="-3.7404773">
        <ele>603.55</ele>
        <time>2021-03-24T16:59:44Z</time>
      </trkpt>
      <trkpt lat="40.19153" lon="-3.7403626">
        <ele>602.37</ele>
        <time>2021-03-24T16:59:45Z</time>
      </trkpt>
      <trkpt lat="40.19148" lon="-3.7402444">
        <ele>602.37</ele>
        <time>2021-03-24T16:59:46Z</time>
      </trkpt>
      <trkpt lat="40.191433" lon="-3.7401257">
        <ele>602.37</ele>
        <time>2021-03-24T16:59:47Z</time>
      </trkpt>
      <trkpt lat="40.191387" lon="-3.7400084">
        <ele>600.82</ele>
        <time>2021-03-24T16:59:48Z</time>
      </trkpt>
      <trkpt lat="40.191338" lon="-3.7398934">
        <ele>600.82</ele>
        <time>2021-03-24T16:59:49Z</time>
      </trkpt>
      <trkpt lat="40.191284" lon="-3.7397833">
        <ele>600.82</ele>
        <time>2021-03-24T16:59:50Z</time>
      </trkpt>
      <trkpt lat="40.191235" lon="-3.7396762">
        <ele>600.82</ele>
        <time>2021-03-24T16:59:51Z</time>
      </trkpt>
      <trkpt lat="40.19118" lon="-3.739572">
        <ele>599.55</ele>
        <time>2021-03-24T16:59:52Z</time>
      </trkpt>
      <trkpt lat="40.191128" lon="-3.7394717">
        <ele>599.55</ele>
        <time>2021-03-24T16:59:53Z</time>
      </trkpt>
      <trkpt lat="40.191074" lon="-3.739375">
        <ele>599.55</ele>
        <time>2021-03-24T16:59:54Z</time>
      </trkpt>
      <trkpt lat="40.191017" lon="-3.7392797">
        <ele>599.55</ele>
        <time>2021-03-24T16:59:55Z</time>
      </trkpt>
      <trkpt lat="40.190964" lon="-3.7391853">
        <ele>599.55</ele>
        <time>2021-03-24T16:59:56Z</time>
      </trkpt>
      <trkpt lat="40.19091" lon="-3.7390926">
        <ele>599.55</ele>
        <time>2021-03-24T16:59:57Z</time>
      </trkpt>
      <trkpt lat="40.190853" lon="-3.7390025">
        <ele>599.55</ele>
        <time>2021-03-24T16:59:58Z</time>
      </trkpt>
      <trkpt lat="40.1908" lon="-3.738915">
        <ele>599.55</ele>
        <time>2021-03-24T16:59:59Z</time>
      </trkpt>
      <trkpt lat="40.19074" lon="-3.738829">
        <ele>599.55</ele>
        <time>2021-03-24T17:00:00Z</time>
      </trkpt>
      <trkpt lat="40.19068" lon="-3.738745">
        <ele>599.55</ele>
        <time>2021-03-24T17:00:01Z</time>
      </trkpt>
      <trkpt lat="40.19062" lon="-3.7386637">
        <ele>599.55</ele>
        <time>2021-03-24T17:00:02Z</time>
      </trkpt>
      <trkpt lat="40.190556" lon="-3.7385836">
        <ele>599.55</ele>
        <time>2021-03-24T17:00:03Z</time>
      </trkpt>
      <trkpt lat="40.190495" lon="-3.7385046">
        <ele>598.37</ele>
        <time>2021-03-24T17:00:04Z</time>
      </trkpt>
      <trkpt lat="40.190437" lon="-3.7384295">
        <ele>598.37</ele>
        <time>2021-03-24T17:00:05Z</time>
      </trkpt>
      <trkpt lat="40.190376" lon="-3.7383575">
        <ele>598.37</ele>
        <time>2021-03-24T17:00:06Z</time>
      </trkpt>
      <trkpt lat="40.19032" lon="-3.7382903">
        <ele>598.37</ele>
        <time>2021-03-24T17:00:07Z</time>
      </trkpt>
      <trkpt lat="40.190266" lon="-3.738229">
        <ele>598.37</ele>
        <time>2021-03-24T17:00:08Z</time>
      </trkpt>
      <trkpt lat="40.190212" lon="-3.7381763">
        <ele>598.37</ele>
        <time>2021-03-24T17:00:09Z</time>
      </trkpt>
      <trkpt lat="40.190163" lon="-3.7381327">
        <ele>598.37</ele>
        <time>2021-03-24T17:00:10Z</time>
      </trkpt>
      <trkpt lat="40.190113" lon="-3.7381027">
        <ele>598.37</ele>
        <time>2021-03-24T17:00:11Z</time>
      </trkpt>
      <trkpt lat="40.190067" lon="-3.7380903">
        <ele>598.37</ele>
        <time>2021-03-24T17:00:12Z</time>
      </trkpt>
      <trkpt lat="40.189987" lon="-3.738112">
        <ele>598.37</ele>
        <time>2021-03-24T17:00:14Z</time>
      </trkpt>
      <trkpt lat="40.18992" lon="-3.7381847">
        <ele>598.37</ele>
        <time>2021-03-24T17:00:16Z</time>
      </trkpt>
      <trkpt lat="40.18986" lon="-3.7382865">
        <ele>598.37</ele>
        <time>2021-03-24T17:00:18Z</time>
      </trkpt>
      <trkpt lat="40.189835" lon="-3.738345">
        <ele>598.37</ele>
        <time>2021-03-24T17:00:19Z</time>
      </trkpt>
      <trkpt lat="40.189804" lon="-3.7384067">
        <ele>598.37</ele>
        <time>2021-03-24T17:00:20Z</time>
      </trkpt>
      <trkpt lat="40.189777" lon="-3.7384717">
        <ele>598.37</ele>
        <time>2021-03-24T17:00:21Z</time>
      </trkpt>
      <trkpt lat="40.18975" lon="-3.7385392">
        <ele>598.37</ele>
        <time>2021-03-24T17:00:22Z</time>
      </trkpt>
      <trkpt lat="40.189724" lon="-3.7386093">
        <ele>598.37</ele>
        <time>2021-03-24T17:00:23Z</time>
      </trkpt>
      <trkpt lat="40.189693" lon="-3.7386806">
        <ele>598.37</ele>
        <time>2021-03-24T17:00:24Z</time>
      </trkpt>
      <trkpt lat="40.189667" lon="-3.738752">
        <ele>598.37</ele>
        <time>2021-03-24T17:00:25Z</time>
      </trkpt>
      <trkpt lat="40.189636" lon="-3.7388256">
        <ele>598.37</ele>
        <time>2021-03-24T17:00:26Z</time>
      </trkpt>
      <trkpt lat="40.189606" lon="-3.7389">
        <ele>598.37</ele>
        <time>2021-03-24T17:00:27Z</time>
      </trkpt>
      <trkpt lat="40.189575" lon="-3.7389739">
        <ele>598.37</ele>
        <time>2021-03-24T17:00:28Z</time>
      </trkpt>
      <trkpt lat="40.189545" lon="-3.7390468">
        <ele>598.37</ele>
        <time>2021-03-24T17:00:29Z</time>
      </trkpt>
      <trkpt lat="40.18951" lon="-3.7391183">
        <ele>598.37</ele>
        <time>2021-03-24T17:00:30Z</time>
      </trkpt>
      <trkpt lat="40.18948" lon="-3.739188">
        <ele>598.37</ele>
        <time>2021-03-24T17:00:31Z</time>
      </trkpt>
      <trkpt lat="40.189445" lon="-3.7392569">
        <ele>598.37</ele>
        <time>2021-03-24T17:00:32Z</time>
      </trkpt>
      <trkpt lat="40.18941" lon="-3.7393236">
        <ele>598.37</ele>
        <time>2021-03-24T17:00:33Z</time>
      </trkpt>
      <trkpt lat="40.18938" lon="-3.7393878">
        <ele>598.37</ele>
        <time>2021-03-24T17:00:34Z</time>
      </trkpt>
      <trkpt lat="40.189342" lon="-3.7394514">
        <ele>598.37</ele>
        <time>2021-03-24T17:00:35Z</time>
      </trkpt>
      <trkpt lat="40.18931" lon="-3.7395144">
        <ele>598.37</ele>
        <time>2021-03-24T17:00:36Z</time>
      </trkpt>
      <trkpt lat="40.18927" lon="-3.7395756">
        <ele>598.37</ele>
        <time>2021-03-24T17:00:37Z</time>
      </trkpt>
      <trkpt lat="40.189228" lon="-3.739636">
        <ele>598.37</ele>
        <time>2021-03-24T17:00:38Z</time>
      </trkpt>
      <trkpt lat="40.189186" lon="-3.7396936">
        <ele>598.37</ele>
        <time>2021-03-24T17:00:39Z</time>
      </trkpt>
      <trkpt lat="40.189144" lon="-3.7397497">
        <ele>598.37</ele>
        <time>2021-03-24T17:00:40Z</time>
      </trkpt>
      <trkpt lat="40.189102" lon="-3.7398043">
        <ele>598.37</ele>
        <time>2021-03-24T17:00:41Z</time>
      </trkpt>
      <trkpt lat="40.189053" lon="-3.739854">
        <ele>598.37</ele>
        <time>2021-03-24T17:00:42Z</time>
      </trkpt>
      <trkpt lat="40.189007" lon="-3.7398996">
        <ele>598.37</ele>
        <time>2021-03-24T17:00:43Z</time>
      </trkpt>
      <trkpt lat="40.188953" lon="-3.73994">
        <ele>598.37</ele>
        <time>2021-03-24T17:00:44Z</time>
      </trkpt>
      <trkpt lat="40.188904" lon="-3.739975">
        <ele>598.37</ele>
        <time>2021-03-24T17:00:45Z</time>
      </trkpt>
      <trkpt lat="40.188847" lon="-3.740003">
        <ele>598.37</ele>
        <time>2021-03-24T17:00:46Z</time>
      </trkpt>
      <trkpt lat="40.188793" lon="-3.7400255">
        <ele>598.37</ele>
        <time>2021-03-24T17:00:47Z</time>
      </trkpt>
      <trkpt lat="40.18874" lon="-3.740043">
        <ele>598.37</ele>
        <time>2021-03-24T17:00:48Z</time>
      </trkpt>
      <trkpt lat="40.188683" lon="-3.7400556">
        <ele>598.37</ele>
        <time>2021-03-24T17:00:49Z</time>
      </trkpt>
      <trkpt lat="40.18863" lon="-3.740064">
        <ele>598.37</ele>
        <time>2021-03-24T17:00:50Z</time>
      </trkpt>
      <trkpt lat="40.188572" lon="-3.7400694">
        <ele>598.37</ele>
        <time>2021-03-24T17:00:51Z</time>
      </trkpt>
      <trkpt lat="40.188515" lon="-3.7400708">
        <ele>598.37</ele>
        <time>2021-03-24T17:00:52Z</time>
      </trkpt>
      <trkpt lat="40.18846" lon="-3.7400699">
        <ele>598.37</ele>
        <time>2021-03-24T17:00:53Z</time>
      </trkpt>
      <trkpt lat="40.188404" lon="-3.7400668">
        <ele>598.37</ele>
        <time>2021-03-24T17:00:54Z</time>
      </trkpt>
      <trkpt lat="40.188347" lon="-3.740062">
        <ele>598.37</ele>
        <time>2021-03-24T17:00:55Z</time>
      </trkpt>
      <trkpt lat="40.18829" lon="-3.740056">
        <ele>598.37</ele>
        <time>2021-03-24T17:00:56Z</time>
      </trkpt>
      <trkpt lat="40.18823" lon="-3.740049">
        <ele>598.37</ele>
        <time>2021-03-24T17:00:57Z</time>
      </trkpt>
      <trkpt lat="40.188168" lon="-3.7400415">
        <ele>598.37</ele>
        <time>2021-03-24T17:00:58Z</time>
      </trkpt>
      <trkpt lat="40.18811" lon="-3.7400346">
        <ele>598.37</ele>
        <time>2021-03-24T17:00:59Z</time>
      </trkpt>
      <trkpt lat="40.188046" lon="-3.740026">
        <ele>598.37</ele>
        <time>2021-03-24T17:01:00Z</time>
      </trkpt>
      <trkpt lat="40.18798" lon="-3.740018">
        <ele>598.37</ele>
        <time>2021-03-24T17:01:01Z</time>
      </trkpt>
      <trkpt lat="40.18792" lon="-3.740011">
        <ele>598.37</ele>
        <time>2021-03-24T17:01:02Z</time>
      </trkpt>
      <trkpt lat="40.187855" lon="-3.740005">
        <ele>598.37</ele>
        <time>2021-03-24T17:01:03Z</time>
      </trkpt>
      <trkpt lat="40.18779" lon="-3.74">
        <ele>598.37</ele>
        <time>2021-03-24T17:01:04Z</time>
      </trkpt>
      <trkpt lat="40.187725" lon="-3.739996">
        <ele>598.37</ele>
        <time>2021-03-24T17:01:05Z</time>
      </trkpt>
      <trkpt lat="40.18766" lon="-3.739992">
        <ele>598.37</ele>
        <time>2021-03-24T17:01:06Z</time>
      </trkpt>
      <trkpt lat="40.1876" lon="-3.7399898">
        <ele>598.37</ele>
        <time>2021-03-24T17:01:07Z</time>
      </trkpt>
      <trkpt lat="40.187534" lon="-3.7399895">
        <ele>598.37</ele>
        <time>2021-03-24T17:01:08Z</time>
      </trkpt>
      <trkpt lat="40.18747" lon="-3.739991">
        <ele>598.37</ele>
        <time>2021-03-24T17:01:09Z</time>
      </trkpt>
      <trkpt lat="40.18741" lon="-3.7399948">
        <ele>605.42</ele>
        <time>2021-03-24T17:01:10Z</time>
      </trkpt>
      <trkpt lat="40.187344" lon="-3.7400002">
        <ele>605.42</ele>
        <time>2021-03-24T17:01:11Z</time>
      </trkpt>
      <trkpt lat="40.18728" lon="-3.74001">
        <ele>605.42</ele>
        <time>2021-03-24T17:01:12Z</time>
      </trkpt>
      <trkpt lat="40.187218" lon="-3.7400217">
        <ele>605.42</ele>
        <time>2021-03-24T17:01:13Z</time>
      </trkpt>
      <trkpt lat="40.187157" lon="-3.7400346">
        <ele>605.42</ele>
        <time>2021-03-24T17:01:14Z</time>
      </trkpt>
      <trkpt lat="40.1871" lon="-3.7400496">
        <ele>605.42</ele>
        <time>2021-03-24T17:01:15Z</time>
      </trkpt>
      <trkpt lat="40.18704" lon="-3.7400653">
        <ele>605.42</ele>
        <time>2021-03-24T17:01:16Z</time>
      </trkpt>
      <trkpt lat="40.18698" lon="-3.740081">
        <ele>605.42</ele>
        <time>2021-03-24T17:01:17Z</time>
      </trkpt>
      <trkpt lat="40.186924" lon="-3.740097">
        <ele>605.42</ele>
        <time>2021-03-24T17:01:18Z</time>
      </trkpt>
      <trkpt lat="40.186867" lon="-3.7401133">
        <ele>605.42</ele>
        <time>2021-03-24T17:01:19Z</time>
      </trkpt>
      <trkpt lat="40.186813" lon="-3.7401307">
        <ele>605.42</ele>
        <time>2021-03-24T17:01:20Z</time>
      </trkpt>
      <trkpt lat="40.186756" lon="-3.7401476">
        <ele>605.42</ele>
        <time>2021-03-24T17:01:21Z</time>
      </trkpt>
      <trkpt lat="40.186703" lon="-3.7401648">
        <ele>605.42</ele>
        <time>2021-03-24T17:01:22Z</time>
      </trkpt>
      <trkpt lat="40.18665" lon="-3.7401824">
        <ele>605.42</ele>
        <time>2021-03-24T17:01:23Z</time>
      </trkpt>
      <trkpt lat="40.186596" lon="-3.740199">
        <ele>605.42</ele>
        <time>2021-03-24T17:01:24Z</time>
      </trkpt>
      <trkpt lat="40.186543" lon="-3.7402148">
        <ele>605.42</ele>
        <time>2021-03-24T17:01:25Z</time>
      </trkpt>
      <trkpt lat="40.186493" lon="-3.7402303">
        <ele>605.42</ele>
        <time>2021-03-24T17:01:26Z</time>
      </trkpt>
      <trkpt lat="40.186394" lon="-3.7402604">
        <ele>605.42</ele>
        <time>2021-03-24T17:01:28Z</time>
      </trkpt>
      <trkpt lat="40.186344" lon="-3.7402766">
        <ele>605.42</ele>
        <time>2021-03-24T17:01:29Z</time>
      </trkpt>
      <trkpt lat="40.186253" lon="-3.740315">
        <ele>605.42</ele>
        <time>2021-03-24T17:01:31Z</time>
      </trkpt>
      <trkpt lat="40.186157" lon="-3.7403626">
        <ele>605.42</ele>
        <time>2021-03-24T17:01:33Z</time>
      </trkpt>
      <trkpt lat="40.186066" lon="-3.740422">
        <ele>605.42</ele>
        <time>2021-03-24T17:01:35Z</time>
      </trkpt>
      <trkpt lat="40.186016" lon="-3.7404563">
        <ele>605.42</ele>
        <time>2021-03-24T17:01:36Z</time>
      </trkpt>
      <trkpt lat="40.18597" lon="-3.7404938">
        <ele>605.42</ele>
        <time>2021-03-24T17:01:37Z</time>
      </trkpt>
      <trkpt lat="40.185925" lon="-3.740532">
        <ele>605.42</ele>
        <time>2021-03-24T17:01:38Z</time>
      </trkpt>
      <trkpt lat="40.18588" lon="-3.7405698">
        <ele>605.42</ele>
        <time>2021-03-24T17:01:39Z</time>
      </trkpt>
      <trkpt lat="40.18583" lon="-3.740608">
        <ele>605.42</ele>
        <time>2021-03-24T17:01:40Z</time>
      </trkpt>
      <trkpt lat="40.18578" lon="-3.7406456">
        <ele>605.42</ele>
        <time>2021-03-24T17:01:41Z</time>
      </trkpt>
      <trkpt lat="40.18573" lon="-3.7406826">
        <ele>605.42</ele>
        <time>2021-03-24T17:01:42Z</time>
      </trkpt>
      <trkpt lat="40.18563" lon="-3.7407556">
        <ele>605.42</ele>
        <time>2021-03-24T17:01:44Z</time>
      </trkpt>
      <trkpt lat="40.185577" lon="-3.740792">
        <ele>605.42</ele>
        <time>2021-03-24T17:01:45Z</time>
      </trkpt>
      <trkpt lat="40.185524" lon="-3.7408283">
        <ele>605.42</ele>
        <time>2021-03-24T17:01:46Z</time>
      </trkpt>
      <trkpt lat="40.18547" lon="-3.7408648">
        <ele>605.42</ele>
        <time>2021-03-24T17:01:47Z</time>
      </trkpt>
      <trkpt lat="40.185417" lon="-3.7409024">
        <ele>605.42</ele>
        <time>2021-03-24T17:01:48Z</time>
      </trkpt>
      <trkpt lat="40.18531" lon="-3.740984">
        <ele>605.42</ele>
        <time>2021-03-24T17:01:50Z</time>
      </trkpt>
      <trkpt lat="40.185257" lon="-3.741027">
        <ele>605.42</ele>
        <time>2021-03-24T17:01:51Z</time>
      </trkpt>
      <trkpt lat="40.185204" lon="-3.741072">
        <ele>605.42</ele>
        <time>2021-03-24T17:01:52Z</time>
      </trkpt>
      <trkpt lat="40.18515" lon="-3.7411191">
        <ele>605.42</ele>
        <time>2021-03-24T17:01:53Z</time>
      </trkpt>
      <trkpt lat="40.185047" lon="-3.7412167">
        <ele>605.42</ele>
        <time>2021-03-24T17:01:55Z</time>
      </trkpt>
      <trkpt lat="40.184998" lon="-3.741267">
        <ele>605.42</ele>
        <time>2021-03-24T17:01:56Z</time>
      </trkpt>
      <trkpt lat="40.184944" lon="-3.741318">
        <ele>605.42</ele>
        <time>2021-03-24T17:01:57Z</time>
      </trkpt>
      <trkpt lat="40.1849" lon="-3.74137">
        <ele>605.42</ele>
        <time>2021-03-24T17:01:58Z</time>
      </trkpt>
      <trkpt lat="40.18485" lon="-3.7414224">
        <ele>605.42</ele>
        <time>2021-03-24T17:01:59Z</time>
      </trkpt>
      <trkpt lat="40.1848" lon="-3.741475">
        <ele>605.42</ele>
        <time>2021-03-24T17:02:00Z</time>
      </trkpt>
      <trkpt lat="40.184753" lon="-3.741528">
        <ele>605.42</ele>
        <time>2021-03-24T17:02:01Z</time>
      </trkpt>
      <trkpt lat="40.184708" lon="-3.7415812">
        <ele>605.42</ele>
        <time>2021-03-24T17:02:02Z</time>
      </trkpt>
      <trkpt lat="40.18466" lon="-3.7416341">
        <ele>605.42</ele>
        <time>2021-03-24T17:02:03Z</time>
      </trkpt>
      <trkpt lat="40.184616" lon="-3.7416873">
        <ele>605.42</ele>
        <time>2021-03-24T17:02:04Z</time>
      </trkpt>
      <trkpt lat="40.18457" lon="-3.7417414">
        <ele>605.42</ele>
        <time>2021-03-24T17:02:05Z</time>
      </trkpt>
      <trkpt lat="40.18453" lon="-3.7417953">
        <ele>605.42</ele>
        <time>2021-03-24T17:02:06Z</time>
      </trkpt>
      <trkpt lat="40.184483" lon="-3.74185">
        <ele>605.42</ele>
        <time>2021-03-24T17:02:07Z</time>
      </trkpt>
      <trkpt lat="40.184437" lon="-3.7419071">
        <ele>605.42</ele>
        <time>2021-03-24T17:02:08Z</time>
      </trkpt>
      <trkpt lat="40.184395" lon="-3.741959">
        <ele>605.42</ele>
        <time>2021-03-24T17:02:09Z</time>
      </trkpt>
      <trkpt lat="40.184357" lon="-3.742009">
        <ele>605.42</ele>
        <time>2021-03-24T17:02:10Z</time>
      </trkpt>
      <trkpt lat="40.18432" lon="-3.7420557">
        <ele>605.42</ele>
        <time>2021-03-24T17:02:11Z</time>
      </trkpt>
      <trkpt lat="40.18428" lon="-3.7421002">
        <ele>605.42</ele>
        <time>2021-03-24T17:02:12Z</time>
      </trkpt>
      <trkpt lat="40.1842" lon="-3.742182">
        <ele>605.42</ele>
        <time>2021-03-24T17:02:14Z</time>
      </trkpt>
      <trkpt lat="40.18416" lon="-3.7422194">
        <ele>605.42</ele>
        <time>2021-03-24T17:02:15Z</time>
      </trkpt>
      <trkpt lat="40.18408" lon="-3.74229">
        <ele>605.42</ele>
        <time>2021-03-24T17:02:17Z</time>
      </trkpt>
      <trkpt lat="40.184" lon="-3.7423604">
        <ele>605.42</ele>
        <time>2021-03-24T17:02:19Z</time>
      </trkpt>
      <trkpt lat="40.18393" lon="-3.7424324">
        <ele>606.69</ele>
        <time>2021-03-24T17:02:21Z</time>
      </trkpt>
      <trkpt lat="40.18386" lon="-3.742508">
        <ele>606.69</ele>
        <time>2021-03-24T17:02:23Z</time>
      </trkpt>
      <trkpt lat="40.183796" lon="-3.742581">
        <ele>606.69</ele>
        <time>2021-03-24T17:02:25Z</time>
      </trkpt>
      <trkpt lat="40.183743" lon="-3.742637">
        <ele>606.69</ele>
        <time>2021-03-24T17:02:27Z</time>
      </trkpt>
      <trkpt lat="40.183704" lon="-3.7426753">
        <ele>607.87</ele>
        <time>2021-03-24T17:02:29Z</time>
      </trkpt>
      <trkpt lat="40.18366" lon="-3.7427254">
        <ele>607.87</ele>
        <time>2021-03-24T17:02:54Z</time>
      </trkpt>
      <trkpt lat="40.183598" lon="-3.74281">
        <ele>607.87</ele>
        <time>2021-03-24T17:02:57Z</time>
      </trkpt>
      <trkpt lat="40.183537" lon="-3.7428942">
        <ele>607.87</ele>
        <time>2021-03-24T17:02:59Z</time>
      </trkpt>
      <trkpt lat="40.183464" lon="-3.7429886">
        <ele>607.87</ele>
        <time>2021-03-24T17:03:01Z</time>
      </trkpt>
      <trkpt lat="40.183426" lon="-3.7430382">
        <ele>607.87</ele>
        <time>2021-03-24T17:03:02Z</time>
      </trkpt>
      <trkpt lat="40.18338" lon="-3.74309">
        <ele>607.87</ele>
        <time>2021-03-24T17:03:03Z</time>
      </trkpt>
      <trkpt lat="40.18334" lon="-3.7431448">
        <ele>607.87</ele>
        <time>2021-03-24T17:03:04Z</time>
      </trkpt>
      <trkpt lat="40.18329" lon="-3.7431996">
        <ele>607.87</ele>
        <time>2021-03-24T17:03:05Z</time>
      </trkpt>
      <trkpt lat="40.183243" lon="-3.743256">
        <ele>607.87</ele>
        <time>2021-03-24T17:03:06Z</time>
      </trkpt>
      <trkpt lat="40.183193" lon="-3.743313">
        <ele>607.87</ele>
        <time>2021-03-24T17:03:07Z</time>
      </trkpt>
      <trkpt lat="40.183144" lon="-3.7433698">
        <ele>606.51</ele>
        <time>2021-03-24T17:03:08Z</time>
      </trkpt>
      <trkpt lat="40.18309" lon="-3.7434273">
        <ele>606.51</ele>
        <time>2021-03-24T17:03:09Z</time>
      </trkpt>
      <trkpt lat="40.183037" lon="-3.7434857">
        <ele>606.51</ele>
        <time>2021-03-24T17:03:10Z</time>
      </trkpt>
      <trkpt lat="40.182983" lon="-3.7435443">
        <ele>606.51</ele>
        <time>2021-03-24T17:03:11Z</time>
      </trkpt>
      <trkpt lat="40.18293" lon="-3.743604">
        <ele>606.51</ele>
        <time>2021-03-24T17:03:12Z</time>
      </trkpt>
      <trkpt lat="40.182877" lon="-3.7436638">
        <ele>606.51</ele>
        <time>2021-03-24T17:03:13Z</time>
      </trkpt>
      <trkpt lat="40.18282" lon="-3.743724">
        <ele>606.51</ele>
        <time>2021-03-24T17:03:14Z</time>
      </trkpt>
      <trkpt lat="40.182762" lon="-3.7437844">
        <ele>605.14</ele>
        <time>2021-03-24T17:03:15Z</time>
      </trkpt>
      <trkpt lat="40.182705" lon="-3.7438457">
        <ele>605.14</ele>
        <time>2021-03-24T17:03:16Z</time>
      </trkpt>
      <trkpt lat="40.18265" lon="-3.743906">
        <ele>605.14</ele>
        <time>2021-03-24T17:03:17Z</time>
      </trkpt>
      <trkpt lat="40.182594" lon="-3.7439673">
        <ele>605.14</ele>
        <time>2021-03-24T17:03:18Z</time>
      </trkpt>
      <trkpt lat="40.18254" lon="-3.74403">
        <ele>605.14</ele>
        <time>2021-03-24T17:03:19Z</time>
      </trkpt>
      <trkpt lat="40.182487" lon="-3.7440937">
        <ele>603.96</ele>
        <time>2021-03-24T17:03:20Z</time>
      </trkpt>
      <trkpt lat="40.182438" lon="-3.7441587">
        <ele>603.96</ele>
        <time>2021-03-24T17:03:21Z</time>
      </trkpt>
      <trkpt lat="40.182384" lon="-3.7442236">
        <ele>603.96</ele>
        <time>2021-03-24T17:03:22Z</time>
      </trkpt>
      <trkpt lat="40.182335" lon="-3.7442873">
        <ele>603.96</ele>
        <time>2021-03-24T17:03:23Z</time>
      </trkpt>
      <trkpt lat="40.182285" lon="-3.7443504">
        <ele>595.84</ele>
        <time>2021-03-24T17:03:24Z</time>
      </trkpt>
      <trkpt lat="40.182182" lon="-3.7444737">
        <ele>595.84</ele>
        <time>2021-03-24T17:03:26Z</time>
      </trkpt>
      <trkpt lat="40.182133" lon="-3.7445338">
        <ele>595.84</ele>
        <time>2021-03-24T17:03:27Z</time>
      </trkpt>
      <trkpt lat="40.18208" lon="-3.744592">
        <ele>595.84</ele>
        <time>2021-03-24T17:03:28Z</time>
      </trkpt>
      <trkpt lat="40.18203" lon="-3.744648">
        <ele>595.84</ele>
        <time>2021-03-24T17:03:29Z</time>
      </trkpt>
      <trkpt lat="40.181976" lon="-3.7447023">
        <ele>595.84</ele>
        <time>2021-03-24T17:03:30Z</time>
      </trkpt>
      <trkpt lat="40.18192" lon="-3.7447557">
        <ele>595.84</ele>
        <time>2021-03-24T17:03:31Z</time>
      </trkpt>
      <trkpt lat="40.181866" lon="-3.744808">
        <ele>595.84</ele>
        <time>2021-03-24T17:03:32Z</time>
      </trkpt>
      <trkpt lat="40.18181" lon="-3.7448583">
        <ele>595.84</ele>
        <time>2021-03-24T17:03:33Z</time>
      </trkpt>
      <trkpt lat="40.181694" lon="-3.7449543">
        <ele>595.84</ele>
        <time>2021-03-24T17:03:35Z</time>
      </trkpt>
      <trkpt lat="40.181637" lon="-3.7450004">
        <ele>595.84</ele>
        <time>2021-03-24T17:03:36Z</time>
      </trkpt>
      <trkpt lat="40.18158" lon="-3.7450457">
        <ele>595.84</ele>
        <time>2021-03-24T17:03:37Z</time>
      </trkpt>
      <trkpt lat="40.181526" lon="-3.74509">
        <ele>595.84</ele>
        <time>2021-03-24T17:03:38Z</time>
      </trkpt>
      <trkpt lat="40.18147" lon="-3.745135">
        <ele>595.84</ele>
        <time>2021-03-24T17:03:39Z</time>
      </trkpt>
      <trkpt lat="40.181416" lon="-3.745179">
        <ele>595.84</ele>
        <time>2021-03-24T17:03:40Z</time>
      </trkpt>
      <trkpt lat="40.18136" lon="-3.745223">
        <ele>595.84</ele>
        <time>2021-03-24T17:03:41Z</time>
      </trkpt>
      <trkpt lat="40.181305" lon="-3.7452645">
        <ele>595.84</ele>
        <time>2021-03-24T17:03:42Z</time>
      </trkpt>
      <trkpt lat="40.18125" lon="-3.7453">
        <ele>595.84</ele>
        <time>2021-03-24T17:03:43Z</time>
      </trkpt>
      <trkpt lat="40.1812" lon="-3.7453275">
        <ele>595.84</ele>
        <time>2021-03-24T17:03:44Z</time>
      </trkpt>
      <trkpt lat="40.18115" lon="-3.745344">
        <ele>595.84</ele>
        <time>2021-03-24T17:03:45Z</time>
      </trkpt>
      <trkpt lat="40.181057" lon="-3.7453444">
        <ele>595.84</ele>
        <time>2021-03-24T17:03:47Z</time>
      </trkpt>
      <trkpt lat="40.180977" lon="-3.74531">
        <ele>595.84</ele>
        <time>2021-03-24T17:03:49Z</time>
      </trkpt>
      <trkpt lat="40.1809" lon="-3.7452607">
        <ele>597.02</ele>
        <time>2021-03-24T17:03:51Z</time>
      </trkpt>
      <trkpt lat="40.18082" lon="-3.7452037">
        <ele>597.02</ele>
        <time>2021-03-24T17:03:53Z</time>
      </trkpt>
      <trkpt lat="40.180748" lon="-3.7451448">
        <ele>597.02</ele>
        <time>2021-03-24T17:03:55Z</time>
      </trkpt>
      <trkpt lat="40.180664" lon="-3.7450871">
        <ele>597.02</ele>
        <time>2021-03-24T17:03:57Z</time>
      </trkpt>
      <trkpt lat="40.180584" lon="-3.7450294">
        <ele>597.02</ele>
        <time>2021-03-24T17:03:59Z</time>
      </trkpt>
      <trkpt lat="40.180542" lon="-3.744998">
        <ele>597.02</ele>
        <time>2021-03-24T17:04:00Z</time>
      </trkpt>
      <trkpt lat="40.18046" lon="-3.744936">
        <ele>598.2</ele>
        <time>2021-03-24T17:04:02Z</time>
      </trkpt>
      <trkpt lat="40.18038" lon="-3.7448723">
        <ele>598.2</ele>
        <time>2021-03-24T17:04:04Z</time>
      </trkpt>
      <trkpt lat="40.180305" lon="-3.744806">
        <ele>598.2</ele>
        <time>2021-03-24T17:04:06Z</time>
      </trkpt>
      <trkpt lat="40.180225" lon="-3.7447374">
        <ele>598.2</ele>
        <time>2021-03-24T17:04:08Z</time>
      </trkpt>
      <trkpt lat="40.18015" lon="-3.7446682">
        <ele>598.2</ele>
        <time>2021-03-24T17:04:10Z</time>
      </trkpt>
      <trkpt lat="40.180065" lon="-3.7445996">
        <ele>598.2</ele>
        <time>2021-03-24T17:04:12Z</time>
      </trkpt>
      <trkpt lat="40.179985" lon="-3.7445307">
        <ele>599.38</ele>
        <time>2021-03-24T17:04:14Z</time>
      </trkpt>
      <trkpt lat="40.179905" lon="-3.7444587">
        <ele>599.38</ele>
        <time>2021-03-24T17:04:16Z</time>
      </trkpt>
      <trkpt lat="40.179825" lon="-3.7443867">
        <ele>599.38</ele>
        <time>2021-03-24T17:04:18Z</time>
      </trkpt>
      <trkpt lat="40.179787" lon="-3.7443504">
        <ele>599.38</ele>
        <time>2021-03-24T17:04:19Z</time>
      </trkpt>
      <trkpt lat="40.179707" lon="-3.7442784">
        <ele>599.38</ele>
        <time>2021-03-24T17:04:21Z</time>
      </trkpt>
      <trkpt lat="40.17963" lon="-3.7442071">
        <ele>599.38</ele>
        <time>2021-03-24T17:04:23Z</time>
      </trkpt>
      <trkpt lat="40.17959" lon="-3.7441707">
        <ele>599.38</ele>
        <time>2021-03-24T17:04:24Z</time>
      </trkpt>
      <trkpt lat="40.179512" lon="-3.7440987">
        <ele>600.56</ele>
        <time>2021-03-24T17:04:26Z</time>
      </trkpt>
      <trkpt lat="40.17944" lon="-3.7440248">
        <ele>600.56</ele>
        <time>2021-03-24T17:04:28Z</time>
      </trkpt>
      <trkpt lat="40.1794" lon="-3.7439883">
        <ele>600.56</ele>
        <time>2021-03-24T17:04:29Z</time>
      </trkpt>
      <trkpt lat="40.179325" lon="-3.7439156">
        <ele>600.56</ele>
        <time>2021-03-24T17:04:31Z</time>
      </trkpt>
      <trkpt lat="40.179245" lon="-3.7438476">
        <ele>600.56</ele>
        <time>2021-03-24T17:04:33Z</time>
      </trkpt>
      <trkpt lat="40.17917" lon="-3.7437763">
        <ele>600.56</ele>
        <time>2021-03-24T17:04:35Z</time>
      </trkpt>
      <trkpt lat="40.179096" lon="-3.7436986">
        <ele>600.56</ele>
        <time>2021-03-24T17:04:37Z</time>
      </trkpt>
      <trkpt lat="40.17906" lon="-3.7436569">
        <ele>600.56</ele>
        <time>2021-03-24T17:04:38Z</time>
      </trkpt>
      <trkpt lat="40.178993" lon="-3.743576">
        <ele>601.75</ele>
        <time>2021-03-24T17:04:40Z</time>
      </trkpt>
      <trkpt lat="40.178913" lon="-3.7435017">
        <ele>601.75</ele>
        <time>2021-03-24T17:04:42Z</time>
      </trkpt>
      <trkpt lat="40.178837" lon="-3.743435">
        <ele>601.75</ele>
        <time>2021-03-24T17:04:44Z</time>
      </trkpt>
      <trkpt lat="40.17876" lon="-3.7433677">
        <ele>601.75</ele>
        <time>2021-03-24T17:04:46Z</time>
      </trkpt>
      <trkpt lat="40.178684" lon="-3.7432992">
        <ele>601.75</ele>
        <time>2021-03-24T17:04:48Z</time>
      </trkpt>
      <trkpt lat="40.178608" lon="-3.743228">
        <ele>602.93</ele>
        <time>2021-03-24T17:04:50Z</time>
      </trkpt>
      <trkpt lat="40.178535" lon="-3.7431583">
        <ele>602.93</ele>
        <time>2021-03-24T17:04:52Z</time>
      </trkpt>
      <trkpt lat="40.17846" lon="-3.743087">
        <ele>602.93</ele>
        <time>2021-03-24T17:04:54Z</time>
      </trkpt>
      <trkpt lat="40.17842" lon="-3.7430506">
        <ele>602.93</ele>
        <time>2021-03-24T17:04:55Z</time>
      </trkpt>
      <trkpt lat="40.178345" lon="-3.7429807">
        <ele>602.93</ele>
        <time>2021-03-24T17:04:57Z</time>
      </trkpt>
      <trkpt lat="40.17827" lon="-3.7429097">
        <ele>602.93</ele>
        <time>2021-03-24T17:04:59Z</time>
      </trkpt>
      <trkpt lat="40.17823" lon="-3.742873">
        <ele>602.93</ele>
        <time>2021-03-24T17:05:00Z</time>
      </trkpt>
      <trkpt lat="40.178158" lon="-3.7427979">
        <ele>602.93</ele>
        <time>2021-03-24T17:05:02Z</time>
      </trkpt>
      <trkpt lat="40.17808" lon="-3.742717">
        <ele>604.11</ele>
        <time>2021-03-24T17:05:04Z</time>
      </trkpt>
      <trkpt lat="40.178005" lon="-3.7426403">
        <ele>604.11</ele>
        <time>2021-03-24T17:05:06Z</time>
      </trkpt>
      <trkpt lat="40.17797" lon="-3.7426047">
        <ele>604.11</ele>
        <time>2021-03-24T17:05:07Z</time>
      </trkpt>
      <trkpt lat="40.177895" lon="-3.7425225">
        <ele>604.11</ele>
        <time>2021-03-24T17:05:09Z</time>
      </trkpt>
      <trkpt lat="40.177856" lon="-3.7424817">
        <ele>604.11</ele>
        <time>2021-03-24T17:05:10Z</time>
      </trkpt>
      <trkpt lat="40.177784" lon="-3.7424057">
        <ele>604.11</ele>
        <time>2021-03-24T17:05:12Z</time>
      </trkpt>
      <trkpt lat="40.17771" lon="-3.742325">
        <ele>604.11</ele>
        <time>2021-03-24T17:05:14Z</time>
      </trkpt>
      <trkpt lat="40.177643" lon="-3.742248">
        <ele>604.11</ele>
        <time>2021-03-24T17:05:16Z</time>
      </trkpt>
      <trkpt lat="40.177567" lon="-3.7421653">
        <ele>605.29</ele>
        <time>2021-03-24T17:05:18Z</time>
      </trkpt>
      <trkpt lat="40.177498" lon="-3.7420874">
        <ele>605.29</ele>
        <time>2021-03-24T17:05:20Z</time>
      </trkpt>
      <trkpt lat="40.177425" lon="-3.7420096">
        <ele>605.29</ele>
        <time>2021-03-24T17:05:22Z</time>
      </trkpt>
      <trkpt lat="40.177357" lon="-3.7419274">
        <ele>605.94</ele>
        <time>2021-03-24T17:05:24Z</time>
      </trkpt>
      <trkpt lat="40.177254" lon="-3.7418108">
        <ele>607.12</ele>
        <time>2021-03-24T17:05:27Z</time>
      </trkpt>
      <trkpt lat="40.177177" lon="-3.7417383">
        <ele>607.12</ele>
        <time>2021-03-24T17:05:29Z</time>
      </trkpt>
      <trkpt lat="40.177105" lon="-3.7416594">
        <ele>607.12</ele>
        <time>2021-03-24T17:05:31Z</time>
      </trkpt>
      <trkpt lat="40.177032" lon="-3.7415757">
        <ele>607.12</ele>
        <time>2021-03-24T17:05:33Z</time>
      </trkpt>
      <trkpt lat="40.177" lon="-3.7415307">
        <ele>607.12</ele>
        <time>2021-03-24T17:05:34Z</time>
      </trkpt>
      <trkpt lat="40.176888" lon="-3.7413988">
        <ele>607.12</ele>
        <time>2021-03-24T17:05:37Z</time>
      </trkpt>
      <trkpt lat="40.176807" lon="-3.7413085">
        <ele>607.12</ele>
        <time>2021-03-24T17:05:39Z</time>
      </trkpt>
      <trkpt lat="40.176735" lon="-3.7412198">
        <ele>607.12</ele>
        <time>2021-03-24T17:05:41Z</time>
      </trkpt>
      <trkpt lat="40.176697" lon="-3.7411757">
        <ele>607.12</ele>
        <time>2021-03-24T17:05:42Z</time>
      </trkpt>
      <trkpt lat="40.17662" lon="-3.74108">
        <ele>607.12</ele>
        <time>2021-03-24T17:05:44Z</time>
      </trkpt>
      <trkpt lat="40.176582" lon="-3.741033">
        <ele>607.12</ele>
        <time>2021-03-24T17:05:45Z</time>
      </trkpt>
      <trkpt lat="40.176514" lon="-3.7409406">
        <ele>607.12</ele>
        <time>2021-03-24T17:05:47Z</time>
      </trkpt>
      <trkpt lat="40.176445" lon="-3.7408454">
        <ele>607.12</ele>
        <time>2021-03-24T17:05:49Z</time>
      </trkpt>
      <trkpt lat="40.17641" lon="-3.7407975">
        <ele>607.12</ele>
        <time>2021-03-24T17:05:50Z</time>
      </trkpt>
      <trkpt lat="40.176342" lon="-3.740705">
        <ele>607.12</ele>
        <time>2021-03-24T17:05:52Z</time>
      </trkpt>
      <trkpt lat="40.17627" lon="-3.740601">
        <ele>607.12</ele>
        <time>2021-03-24T17:05:54Z</time>
      </trkpt>
      <trkpt lat="40.17623" lon="-3.740552">
        <ele>607.12</ele>
        <time>2021-03-24T17:05:55Z</time>
      </trkpt>
      <trkpt lat="40.176193" lon="-3.7405016">
        <ele>607.12</ele>
        <time>2021-03-24T17:05:56Z</time>
      </trkpt>
      <trkpt lat="40.17616" lon="-3.740452">
        <ele>607.12</ele>
        <time>2021-03-24T17:05:57Z</time>
      </trkpt>
      <trkpt lat="40.176117" lon="-3.7403991">
        <ele>607.12</ele>
        <time>2021-03-24T17:05:58Z</time>
      </trkpt>
      <trkpt lat="40.176075" lon="-3.7403457">
        <ele>607.12</ele>
        <time>2021-03-24T17:05:59Z</time>
      </trkpt>
      <trkpt lat="40.176037" lon="-3.740292">
        <ele>607.12</ele>
        <time>2021-03-24T17:06:00Z</time>
      </trkpt>
      <trkpt lat="40.175995" lon="-3.74024">
        <ele>607.12</ele>
        <time>2021-03-24T17:06:01Z</time>
      </trkpt>
      <trkpt lat="40.175953" lon="-3.740189">
        <ele>607.12</ele>
        <time>2021-03-24T17:06:02Z</time>
      </trkpt>
      <trkpt lat="40.17591" lon="-3.7401388">
        <ele>607.12</ele>
        <time>2021-03-24T17:06:03Z</time>
      </trkpt>
      <trkpt lat="40.175873" lon="-3.740089">
        <ele>607.12</ele>
        <time>2021-03-24T17:06:04Z</time>
      </trkpt>
      <trkpt lat="40.17583" lon="-3.74004">
        <ele>607.12</ele>
        <time>2021-03-24T17:06:05Z</time>
      </trkpt>
      <trkpt lat="40.17579" lon="-3.7399924">
        <ele>607.12</ele>
        <time>2021-03-24T17:06:06Z</time>
      </trkpt>
      <trkpt lat="40.175755" lon="-3.7399492">
        <ele>607.12</ele>
        <time>2021-03-24T17:06:07Z</time>
      </trkpt>
      <trkpt lat="40.175713" lon="-3.7399025">
        <ele>607.12</ele>
        <time>2021-03-24T17:06:08Z</time>
      </trkpt>
      <trkpt lat="40.17567" lon="-3.7398567">
        <ele>607.12</ele>
        <time>2021-03-24T17:06:09Z</time>
      </trkpt>
      <trkpt lat="40.175632" lon="-3.7398114">
        <ele>607.12</ele>
        <time>2021-03-24T17:06:10Z</time>
      </trkpt>
      <trkpt lat="40.1756" lon="-3.739768">
        <ele>607.12</ele>
        <time>2021-03-24T17:06:11Z</time>
      </trkpt>
      <trkpt lat="40.175518" lon="-3.7396743">
        <ele>607.12</ele>
        <time>2021-03-24T17:06:13Z</time>
      </trkpt>
      <trkpt lat="40.17548" lon="-3.7396276">
        <ele>607.12</ele>
        <time>2021-03-24T17:06:14Z</time>
      </trkpt>
      <trkpt lat="40.17544" lon="-3.7395813">
        <ele>607.12</ele>
        <time>2021-03-24T17:06:15Z</time>
      </trkpt>
      <trkpt lat="40.175404" lon="-3.73954">
        <ele>608.49</ele>
        <time>2021-03-24T17:06:16Z</time>
      </trkpt>
      <trkpt lat="40.175327" lon="-3.739455">
        <ele>608.49</ele>
        <time>2021-03-24T17:06:18Z</time>
      </trkpt>
      <trkpt lat="40.17529" lon="-3.739411">
        <ele>608.49</ele>
        <time>2021-03-24T17:06:19Z</time>
      </trkpt>
      <trkpt lat="40.175255" lon="-3.7393677">
        <ele>608.49</ele>
        <time>2021-03-24T17:06:20Z</time>
      </trkpt>
      <trkpt lat="40.175186" lon="-3.7392817">
        <ele>608.49</ele>
        <time>2021-03-24T17:06:22Z</time>
      </trkpt>
      <trkpt lat="40.175117" lon="-3.739199">
        <ele>609.67</ele>
        <time>2021-03-24T17:06:24Z</time>
      </trkpt>
      <trkpt lat="40.17505" lon="-3.739117">
        <ele>609.67</ele>
        <time>2021-03-24T17:06:26Z</time>
      </trkpt>
      <trkpt lat="40.174988" lon="-3.7390397">
        <ele>609.67</ele>
        <time>2021-03-24T17:06:28Z</time>
      </trkpt>
      <trkpt lat="40.17492" lon="-3.7389567">
        <ele>610.85</ele>
        <time>2021-03-24T17:06:30Z</time>
      </trkpt>
      <trkpt lat="40.17486" lon="-3.7388775">
        <ele>610.85</ele>
        <time>2021-03-24T17:06:32Z</time>
      </trkpt>
      <trkpt lat="40.174797" lon="-3.7387967">
        <ele>610.85</ele>
        <time>2021-03-24T17:06:34Z</time>
      </trkpt>
      <trkpt lat="40.174732" lon="-3.7387154">
        <ele>610.85</ele>
        <time>2021-03-24T17:06:36Z</time>
      </trkpt>
      <trkpt lat="40.174664" lon="-3.7386382">
        <ele>612.03</ele>
        <time>2021-03-24T17:06:38Z</time>
      </trkpt>
      <trkpt lat="40.174595" lon="-3.7385592">
        <ele>612.03</ele>
        <time>2021-03-24T17:06:40Z</time>
      </trkpt>
      <trkpt lat="40.17456" lon="-3.738518">
        <ele>612.03</ele>
        <time>2021-03-24T17:06:41Z</time>
      </trkpt>
      <trkpt lat="40.17449" lon="-3.7384357">
        <ele>612.03</ele>
        <time>2021-03-24T17:06:43Z</time>
      </trkpt>
      <trkpt lat="40.174423" lon="-3.7383556">
        <ele>612.03</ele>
        <time>2021-03-24T17:06:45Z</time>
      </trkpt>
      <trkpt lat="40.174355" lon="-3.7382762">
        <ele>613.21</ele>
        <time>2021-03-24T17:06:47Z</time>
      </trkpt>
      <trkpt lat="40.174294" lon="-3.7381973">
        <ele>613.21</ele>
        <time>2021-03-24T17:06:49Z</time>
      </trkpt>
      <trkpt lat="40.174225" lon="-3.73812">
        <ele>613.21</ele>
        <time>2021-03-24T17:06:51Z</time>
      </trkpt>
      <trkpt lat="40.174164" lon="-3.7380424">
        <ele>613.21</ele>
        <time>2021-03-24T17:06:53Z</time>
      </trkpt>
      <trkpt lat="40.17409" lon="-3.737952">
        <ele>613.21</ele>
        <time>2021-03-24T17:06:55Z</time>
      </trkpt>
      <trkpt lat="40.174057" lon="-3.7379043">
        <ele>613.21</ele>
        <time>2021-03-24T17:06:56Z</time>
      </trkpt>
      <trkpt lat="40.173985" lon="-3.7378087">
        <ele>613.21</ele>
        <time>2021-03-24T17:06:58Z</time>
      </trkpt>
      <trkpt lat="40.17395" lon="-3.737761">
        <ele>613.21</ele>
        <time>2021-03-24T17:06:59Z</time>
      </trkpt>
      <trkpt lat="40.173878" lon="-3.7376647">
        <ele>613.21</ele>
        <time>2021-03-24T17:07:01Z</time>
      </trkpt>
      <trkpt lat="40.173843" lon="-3.7376175">
        <ele>613.21</ele>
        <time>2021-03-24T17:07:02Z</time>
      </trkpt>
      <trkpt lat="40.17377" lon="-3.7375257">
        <ele>613.21</ele>
        <time>2021-03-24T17:07:04Z</time>
      </trkpt>
      <trkpt lat="40.17373" lon="-3.7374706">
        <ele>613.21</ele>
        <time>2021-03-24T17:07:05Z</time>
      </trkpt>
      <trkpt lat="40.17369" lon="-3.7374153">
        <ele>613.21</ele>
        <time>2021-03-24T17:07:06Z</time>
      </trkpt>
      <trkpt lat="40.173656" lon="-3.7373588">
        <ele>613.21</ele>
        <time>2021-03-24T17:07:07Z</time>
      </trkpt>
      <trkpt lat="40.173622" lon="-3.7373064">
        <ele>613.21</ele>
        <time>2021-03-24T17:07:08Z</time>
      </trkpt>
      <trkpt lat="40.173557" lon="-3.7372007">
        <ele>613.21</ele>
        <time>2021-03-24T17:07:10Z</time>
      </trkpt>
      <trkpt lat="40.17353" lon="-3.7371588">
        <ele>613.21</ele>
        <time>2021-03-24T17:07:11Z</time>
      </trkpt>
      <trkpt lat="40.173492" lon="-3.7371">
        <ele>613.21</ele>
        <time>2021-03-24T17:07:13Z</time>
      </trkpt>
      <trkpt lat="40.17347" lon="-3.737029">
        <ele>619.15</ele>
        <time>2021-03-24T17:07:40Z</time>
      </trkpt>
      <trkpt lat="40.173428" lon="-3.7369788">
        <ele>619.15</ele>
        <time>2021-03-24T17:07:44Z</time>
      </trkpt>
      <trkpt lat="40.173367" lon="-3.7369354">
        <ele>619.15</ele>
        <time>2021-03-24T17:09:41Z</time>
      </trkpt>
      <trkpt lat="40.173313" lon="-3.7368875">
        <ele>619.15</ele>
        <time>2021-03-24T17:09:44Z</time>
      </trkpt>
      <trkpt lat="40.173264" lon="-3.736845">
        <ele>620.52</ele>
        <time>2021-03-24T17:09:46Z</time>
      </trkpt>
      <trkpt lat="40.173214" lon="-3.736795">
        <ele>620.52</ele>
        <time>2021-03-24T17:09:48Z</time>
      </trkpt>
      <trkpt lat="40.173164" lon="-3.7367406">
        <ele>620.52</ele>
        <time>2021-03-24T17:09:50Z</time>
      </trkpt>
      <trkpt lat="40.173115" lon="-3.7366798">
        <ele>620.52</ele>
        <time>2021-03-24T17:09:52Z</time>
      </trkpt>
      <trkpt lat="40.173065" lon="-3.736621">
        <ele>621.7</ele>
        <time>2021-03-24T17:09:54Z</time>
      </trkpt>
      <trkpt lat="40.173016" lon="-3.7365596">
        <ele>621.7</ele>
        <time>2021-03-24T17:09:56Z</time>
      </trkpt>
      <trkpt lat="40.172966" lon="-3.7365026">
        <ele>621.7</ele>
        <time>2021-03-24T17:09:58Z</time>
      </trkpt>
      <trkpt lat="40.17292" lon="-3.7364423">
        <ele>622.88</ele>
        <time>2021-03-24T17:10:00Z</time>
      </trkpt>
      <trkpt lat="40.172867" lon="-3.736377">
        <ele>622.88</ele>
        <time>2021-03-24T17:10:02Z</time>
      </trkpt>
      <trkpt lat="40.17281" lon="-3.7363086">
        <ele>622.88</ele>
        <time>2021-03-24T17:10:04Z</time>
      </trkpt>
      <trkpt lat="40.17276" lon="-3.7362428">
        <ele>622.88</ele>
        <time>2021-03-24T17:10:06Z</time>
      </trkpt>
      <trkpt lat="40.172707" lon="-3.7361777">
        <ele>622.88</ele>
        <time>2021-03-24T17:10:08Z</time>
      </trkpt>
      <trkpt lat="40.172596" lon="-3.7360384">
        <ele>624.06</ele>
        <time>2021-03-24T17:10:10Z</time>
      </trkpt>
      <trkpt lat="40.17259" lon="-3.73603">
        <ele>624.06</ele>
        <time>2021-03-24T17:10:11Z</time>
      </trkpt>
      <trkpt lat="40.172527" lon="-3.7359579">
        <ele>624.06</ele>
        <time>2021-03-24T17:10:14Z</time>
      </trkpt>
      <trkpt lat="40.172474" lon="-3.735888">
        <ele>624.06</ele>
        <time>2021-03-24T17:10:16Z</time>
      </trkpt>
      <trkpt lat="40.172413" lon="-3.735811">
        <ele>624.06</ele>
        <time>2021-03-24T17:10:18Z</time>
      </trkpt>
      <trkpt lat="40.17235" lon="-3.7357306">
        <ele>624.06</ele>
        <time>2021-03-24T17:10:20Z</time>
      </trkpt>
      <trkpt lat="40.17229" lon="-3.7356503">
        <ele>624.06</ele>
        <time>2021-03-24T17:10:22Z</time>
      </trkpt>
      <trkpt lat="40.172222" lon="-3.7355692">
        <ele>624.06</ele>
        <time>2021-03-24T17:10:24Z</time>
      </trkpt>
      <trkpt lat="40.172157" lon="-3.7354856">
        <ele>624.06</ele>
        <time>2021-03-24T17:10:26Z</time>
      </trkpt>
      <trkpt lat="40.17209" lon="-3.7353973">
        <ele>624.06</ele>
        <time>2021-03-24T17:10:28Z</time>
      </trkpt>
      <trkpt lat="40.172024" lon="-3.7353094">
        <ele>624.06</ele>
        <time>2021-03-24T17:10:30Z</time>
      </trkpt>
      <trkpt lat="40.17196" lon="-3.7352188">
        <ele>624.06</ele>
        <time>2021-03-24T17:10:32Z</time>
      </trkpt>
      <trkpt lat="40.171894" lon="-3.7351294">
        <ele>624.06</ele>
        <time>2021-03-24T17:10:34Z</time>
      </trkpt>
      <trkpt lat="40.17183" lon="-3.735038">
        <ele>625.24</ele>
        <time>2021-03-24T17:10:36Z</time>
      </trkpt>
      <trkpt lat="40.17176" lon="-3.7349484">
        <ele>625.24</ele>
        <time>2021-03-24T17:10:38Z</time>
      </trkpt>
      <trkpt lat="40.171688" lon="-3.734864">
        <ele>625.24</ele>
        <time>2021-03-24T17:10:40Z</time>
      </trkpt>
      <trkpt lat="40.171616" lon="-3.734779">
        <ele>625.24</ele>
        <time>2021-03-24T17:10:42Z</time>
      </trkpt>
      <trkpt lat="40.171543" lon="-3.7346945">
        <ele>625.24</ele>
        <time>2021-03-24T17:10:44Z</time>
      </trkpt>
      <trkpt lat="40.17148" lon="-3.7346094">
        <ele>625.24</ele>
        <time>2021-03-24T17:10:46Z</time>
      </trkpt>
      <trkpt lat="40.171413" lon="-3.7345204">
        <ele>625.24</ele>
        <time>2021-03-24T17:10:48Z</time>
      </trkpt>
      <trkpt lat="40.171352" lon="-3.734427">
        <ele>625.24</ele>
        <time>2021-03-24T17:10:50Z</time>
      </trkpt>
      <trkpt lat="40.17132" lon="-3.7343786">
        <ele>626.43</ele>
        <time>2021-03-24T17:10:51Z</time>
      </trkpt>
      <trkpt lat="40.17126" lon="-3.734285">
        <ele>626.43</ele>
        <time>2021-03-24T17:10:53Z</time>
      </trkpt>
      <trkpt lat="40.171192" lon="-3.7342012">
        <ele>626.43</ele>
        <time>2021-03-24T17:10:55Z</time>
      </trkpt>
      <trkpt lat="40.171127" lon="-3.734115">
        <ele>626.43</ele>
        <time>2021-03-24T17:10:57Z</time>
      </trkpt>
      <trkpt lat="40.17106" lon="-3.7340286">
        <ele>626.43</ele>
        <time>2021-03-24T17:10:59Z</time>
      </trkpt>
      <trkpt lat="40.17103" lon="-3.7339847">
        <ele>626.43</ele>
        <time>2021-03-24T17:11:00Z</time>
      </trkpt>
      <trkpt lat="40.170967" lon="-3.733897">
        <ele>627.61</ele>
        <time>2021-03-24T17:11:02Z</time>
      </trkpt>
      <trkpt lat="40.17091" lon="-3.7338073">
        <ele>627.61</ele>
        <time>2021-03-24T17:11:04Z</time>
      </trkpt>
      <trkpt lat="40.170853" lon="-3.7337158">
        <ele>627.61</ele>
        <time>2021-03-24T17:11:06Z</time>
      </trkpt>
      <trkpt lat="40.170795" lon="-3.7336257">
        <ele>627.61</ele>
        <time>2021-03-24T17:11:08Z</time>
      </trkpt>
      <trkpt lat="40.17074" lon="-3.7335362">
        <ele>627.61</ele>
        <time>2021-03-24T17:11:10Z</time>
      </trkpt>
      <trkpt lat="40.17068" lon="-3.7334456">
        <ele>627.61</ele>
        <time>2021-03-24T17:11:12Z</time>
      </trkpt>
      <trkpt lat="40.170624" lon="-3.7333574">
        <ele>627.61</ele>
        <time>2021-03-24T17:11:14Z</time>
      </trkpt>
      <trkpt lat="40.170567" lon="-3.7332714">
        <ele>628.88</ele>
        <time>2021-03-24T17:11:16Z</time>
      </trkpt>
      <trkpt lat="40.170506" lon="-3.733185">
        <ele>628.88</ele>
        <time>2021-03-24T17:11:18Z</time>
      </trkpt>
      <trkpt lat="40.170444" lon="-3.7330992">
        <ele>628.88</ele>
        <time>2021-03-24T17:11:20Z</time>
      </trkpt>
      <trkpt lat="40.17038" lon="-3.733015">
        <ele>628.88</ele>
        <time>2021-03-24T17:11:22Z</time>
      </trkpt>
      <trkpt lat="40.170315" lon="-3.7329326">
        <ele>628.88</ele>
        <time>2021-03-24T17:11:24Z</time>
      </trkpt>
      <trkpt lat="40.170246" lon="-3.7328486">
        <ele>628.88</ele>
        <time>2021-03-24T17:11:26Z</time>
      </trkpt>
      <trkpt lat="40.170177" lon="-3.7327623">
        <ele>628.88</ele>
        <time>2021-03-24T17:11:28Z</time>
      </trkpt>
      <trkpt lat="40.170105" lon="-3.7326727">
        <ele>628.88</ele>
        <time>2021-03-24T17:11:30Z</time>
      </trkpt>
      <trkpt lat="40.17004" lon="-3.732584">
        <ele>628.88</ele>
        <time>2021-03-24T17:11:32Z</time>
      </trkpt>
      <trkpt lat="40.16998" lon="-3.732499">
        <ele>629.81</ele>
        <time>2021-03-24T17:11:34Z</time>
      </trkpt>
      <trkpt lat="40.169926" lon="-3.7324266">
        <ele>629.81</ele>
        <time>2021-03-24T17:11:36Z</time>
      </trkpt>
      <trkpt lat="40.169865" lon="-3.7323697">
        <ele>629.81</ele>
        <time>2021-03-24T17:11:38Z</time>
      </trkpt>
      <trkpt lat="40.169796" lon="-3.7323306">
        <ele>629.81</ele>
        <time>2021-03-24T17:11:40Z</time>
      </trkpt>
      <trkpt lat="40.169716" lon="-3.732299">
        <ele>629.81</ele>
        <time>2021-03-24T17:11:42Z</time>
      </trkpt>
      <trkpt lat="40.16964" lon="-3.732257">
        <ele>629.81</ele>
        <time>2021-03-24T17:11:44Z</time>
      </trkpt>
      <trkpt lat="40.169563" lon="-3.732197">
        <ele>629.81</ele>
        <time>2021-03-24T17:11:46Z</time>
      </trkpt>
      <trkpt lat="40.169495" lon="-3.732126">
        <ele>629.81</ele>
        <time>2021-03-24T17:11:48Z</time>
      </trkpt>
      <trkpt lat="40.16943" lon="-3.732047">
        <ele>630.99</ele>
        <time>2021-03-24T17:11:50Z</time>
      </trkpt>
      <trkpt lat="40.169365" lon="-3.731967">
        <ele>630.99</ele>
        <time>2021-03-24T17:11:52Z</time>
      </trkpt>
      <trkpt lat="40.1693" lon="-3.731887">
        <ele>630.99</ele>
        <time>2021-03-24T17:11:54Z</time>
      </trkpt>
      <trkpt lat="40.169235" lon="-3.731806">
        <ele>630.99</ele>
        <time>2021-03-24T17:11:56Z</time>
      </trkpt>
      <trkpt lat="40.169167" lon="-3.731721">
        <ele>630.99</ele>
        <time>2021-03-24T17:11:58Z</time>
      </trkpt>
      <trkpt lat="40.169098" lon="-3.7316327">
        <ele>630.99</ele>
        <time>2021-03-24T17:12:00Z</time>
      </trkpt>
      <trkpt lat="40.169064" lon="-3.731588">
        <ele>630.99</ele>
        <time>2021-03-24T17:12:01Z</time>
      </trkpt>
      <trkpt lat="40.169" lon="-3.7314994">
        <ele>630.99</ele>
        <time>2021-03-24T17:12:03Z</time>
      </trkpt>
      <trkpt lat="40.168964" lon="-3.731456">
        <ele>632.17</ele>
        <time>2021-03-24T17:12:04Z</time>
      </trkpt>
      <trkpt lat="40.168896" lon="-3.731368">
        <ele>632.17</ele>
        <time>2021-03-24T17:12:06Z</time>
      </trkpt>
      <trkpt lat="40.16886" lon="-3.731324">
        <ele>632.17</ele>
        <time>2021-03-24T17:12:07Z</time>
      </trkpt>
      <trkpt lat="40.16879" lon="-3.7312357">
        <ele>632.17</ele>
        <time>2021-03-24T17:12:09Z</time>
      </trkpt>
      <trkpt lat="40.168755" lon="-3.7311926">
        <ele>632.17</ele>
        <time>2021-03-24T17:12:10Z</time>
      </trkpt>
      <trkpt lat="40.168682" lon="-3.7311018">
        <ele>632.17</ele>
        <time>2021-03-24T17:12:12Z</time>
      </trkpt>
      <trkpt lat="40.168644" lon="-3.7310567">
        <ele>632.17</ele>
        <time>2021-03-24T17:12:13Z</time>
      </trkpt>
      <trkpt lat="40.168575" lon="-3.7309701">
        <ele>632.17</ele>
        <time>2021-03-24T17:12:15Z</time>
      </trkpt>
      <trkpt lat="40.16854" lon="-3.7309265">
        <ele>632.17</ele>
        <time>2021-03-24T17:12:16Z</time>
      </trkpt>
      <trkpt lat="40.168472" lon="-3.7308438">
        <ele>633.36</ele>
        <time>2021-03-24T17:12:18Z</time>
      </trkpt>
      <trkpt lat="40.1684" lon="-3.7307527">
        <ele>633.36</ele>
        <time>2021-03-24T17:12:20Z</time>
      </trkpt>
      <trkpt lat="40.16833" lon="-3.730665">
        <ele>633.36</ele>
        <time>2021-03-24T17:12:22Z</time>
      </trkpt>
      <trkpt lat="40.168266" lon="-3.730584">
        <ele>633.36</ele>
        <time>2021-03-24T17:12:24Z</time>
      </trkpt>
      <trkpt lat="40.168198" lon="-3.7304955">
        <ele>633.36</ele>
        <time>2021-03-24T17:12:26Z</time>
      </trkpt>
      <trkpt lat="40.16813" lon="-3.7304075">
        <ele>634.72</ele>
        <time>2021-03-24T17:12:28Z</time>
      </trkpt>
      <trkpt lat="40.168064" lon="-3.7303216">
        <ele>634.72</ele>
        <time>2021-03-24T17:12:30Z</time>
      </trkpt>
      <trkpt lat="40.168034" lon="-3.7302775">
        <ele>634.72</ele>
        <time>2021-03-24T17:12:31Z</time>
      </trkpt>
      <trkpt lat="40.16797" lon="-3.730192">
        <ele>634.72</ele>
        <time>2021-03-24T17:12:33Z</time>
      </trkpt>
      <trkpt lat="40.1679" lon="-3.7301013">
        <ele>634.72</ele>
        <time>2021-03-24T17:12:35Z</time>
      </trkpt>
      <trkpt lat="40.167828" lon="-3.7300143">
        <ele>635.99</ele>
        <time>2021-03-24T17:12:37Z</time>
      </trkpt>
      <trkpt lat="40.167755" lon="-3.729925">
        <ele>635.99</ele>
        <time>2021-03-24T17:12:39Z</time>
      </trkpt>
      <trkpt lat="40.16772" lon="-3.7298796">
        <ele>635.99</ele>
        <time>2021-03-24T17:12:40Z</time>
      </trkpt>
      <trkpt lat="40.167652" lon="-3.729792">
        <ele>635.99</ele>
        <time>2021-03-24T17:12:42Z</time>
      </trkpt>
      <trkpt lat="40.167583" lon="-3.7297044">
        <ele>635.99</ele>
        <time>2021-03-24T17:12:44Z</time>
      </trkpt>
      <trkpt lat="40.16755" lon="-3.7296636">
        <ele>635.99</ele>
        <time>2021-03-24T17:12:45Z</time>
      </trkpt>
      <trkpt lat="40.167484" lon="-3.729581">
        <ele>635.99</ele>
        <time>2021-03-24T17:12:47Z</time>
      </trkpt>
      <trkpt lat="40.167416" lon="-3.7294986">
        <ele>635.99</ele>
        <time>2021-03-24T17:12:49Z</time>
      </trkpt>
      <trkpt lat="40.16735" lon="-3.7294176">
        <ele>635.99</ele>
        <time>2021-03-24T17:12:51Z</time>
      </trkpt>
      <trkpt lat="40.167282" lon="-3.729355">
        <ele>635.99</ele>
        <time>2021-03-24T17:12:53Z</time>
      </trkpt>
      <trkpt lat="40.167217" lon="-3.7293308">
        <ele>635.99</ele>
        <time>2021-03-24T17:12:55Z</time>
      </trkpt>
      <trkpt lat="40.16714" lon="-3.7293186">
        <ele>635.99</ele>
        <time>2021-03-24T17:12:58Z</time>
      </trkpt>
      <trkpt lat="40.166733" lon="-3.7298868">
        <ele>635.99</ele>
        <time>2021-03-24T17:13:10Z</time>
      </trkpt>
      <trkpt lat="40.166725" lon="-3.729898">
        <ele>635.99</ele>
        <time>2021-03-24T17:13:11Z</time>
      </trkpt>
      <trkpt lat="40.166637" lon="-3.7299867">
        <ele>635.99</ele>
        <time>2021-03-24T17:13:14Z</time>
      </trkpt>
      <trkpt lat="40.166546" lon="-3.7300687">
        <ele>635.99</ele>
        <time>2021-03-24T17:13:16Z</time>
      </trkpt>
      <trkpt lat="40.166504" lon="-3.7301042">
        <ele>635.99</ele>
        <time>2021-03-24T17:13:17Z</time>
      </trkpt>
      <trkpt lat="40.166416" lon="-3.7301795">
        <ele>635.99</ele>
        <time>2021-03-24T17:13:19Z</time>
      </trkpt>
      <trkpt lat="40.166378" lon="-3.730214">
        <ele>635.99</ele>
        <time>2021-03-24T17:13:20Z</time>
      </trkpt>
      <trkpt lat="40.166306" lon="-3.7302856">
        <ele>635.99</ele>
        <time>2021-03-24T17:13:22Z</time>
      </trkpt>
      <trkpt lat="40.16623" lon="-3.7303495">
        <ele>635.99</ele>
        <time>2021-03-24T17:13:24Z</time>
      </trkpt>
      <trkpt lat="40.16615" lon="-3.730406">
        <ele>635.99</ele>
        <time>2021-03-24T17:13:26Z</time>
      </trkpt>
      <trkpt lat="40.166073" lon="-3.730464">
        <ele>635.99</ele>
        <time>2021-03-24T17:13:28Z</time>
      </trkpt>
      <trkpt lat="40.165997" lon="-3.730523">
        <ele>635.99</ele>
        <time>2021-03-24T17:13:30Z</time>
      </trkpt>
      <trkpt lat="40.16592" lon="-3.730582">
        <ele>635.99</ele>
        <time>2021-03-24T17:13:32Z</time>
      </trkpt>
      <trkpt lat="40.165848" lon="-3.730636">
        <ele>635.99</ele>
        <time>2021-03-24T17:13:34Z</time>
      </trkpt>
      <trkpt lat="40.16577" lon="-3.7306826">
        <ele>635.99</ele>
        <time>2021-03-24T17:13:36Z</time>
      </trkpt>
      <trkpt lat="40.16569" lon="-3.7307227">
        <ele>635.99</ele>
        <time>2021-03-24T17:13:38Z</time>
      </trkpt>
      <trkpt lat="40.165615" lon="-3.7307584">
        <ele>637.26</ele>
        <time>2021-03-24T17:13:40Z</time>
      </trkpt>
      <trkpt lat="40.16554" lon="-3.7307975">
        <ele>637.26</ele>
        <time>2021-03-24T17:13:42Z</time>
      </trkpt>
      <trkpt lat="40.165466" lon="-3.7308457">
        <ele>637.26</ele>
        <time>2021-03-24T17:13:44Z</time>
      </trkpt>
      <trkpt lat="40.165398" lon="-3.7309">
        <ele>638.45</ele>
        <time>2021-03-24T17:13:46Z</time>
      </trkpt>
      <trkpt lat="40.16533" lon="-3.7309587">
        <ele>638.45</ele>
        <time>2021-03-24T17:13:48Z</time>
      </trkpt>
      <trkpt lat="40.165257" lon="-3.7310197">
        <ele>638.45</ele>
        <time>2021-03-24T17:13:50Z</time>
      </trkpt>
      <trkpt lat="40.165184" lon="-3.7310827">
        <ele>638.45</ele>
        <time>2021-03-24T17:13:52Z</time>
      </trkpt>
      <trkpt lat="40.165115" lon="-3.731145">
        <ele>639.63</ele>
        <time>2021-03-24T17:13:54Z</time>
      </trkpt>
      <trkpt lat="40.165047" lon="-3.7312064">
        <ele>639.63</ele>
        <time>2021-03-24T17:13:56Z</time>
      </trkpt>
      <trkpt lat="40.164978" lon="-3.7312663">
        <ele>639.63</ele>
        <time>2021-03-24T17:13:58Z</time>
      </trkpt>
      <trkpt lat="40.164913" lon="-3.7313244">
        <ele>639.63</ele>
        <time>2021-03-24T17:14:00Z</time>
      </trkpt>
      <trkpt lat="40.164852" lon="-3.7313783">
        <ele>640.9</ele>
        <time>2021-03-24T17:14:02Z</time>
      </trkpt>
      <trkpt lat="40.16479" lon="-3.7314303">
        <ele>640.9</ele>
        <time>2021-03-24T17:14:04Z</time>
      </trkpt>
      <trkpt lat="40.16473" lon="-3.731476">
        <ele>640.9</ele>
        <time>2021-03-24T17:14:06Z</time>
      </trkpt>
      <trkpt lat="40.16467" lon="-3.731512">
        <ele>640.9</ele>
        <time>2021-03-24T17:14:08Z</time>
      </trkpt>
      <trkpt lat="40.164597" lon="-3.731542">
        <ele>640.9</ele>
        <time>2021-03-24T17:14:10Z</time>
      </trkpt>
      <trkpt lat="40.164513" lon="-3.7315798">
        <ele>640.9</ele>
        <time>2021-03-24T17:14:12Z</time>
      </trkpt>
      <trkpt lat="40.164417" lon="-3.7316406">
        <ele>640.9</ele>
        <time>2021-03-24T17:14:14Z</time>
      </trkpt>
      <trkpt lat="40.164368" lon="-3.7316809">
        <ele>640.9</ele>
        <time>2021-03-24T17:14:15Z</time>
      </trkpt>
      <trkpt lat="40.164314" lon="-3.7317276">
        <ele>640.9</ele>
        <time>2021-03-24T17:14:16Z</time>
      </trkpt>
      <trkpt lat="40.164257" lon="-3.731779">
        <ele>639.54</ele>
        <time>2021-03-24T17:14:17Z</time>
      </trkpt>
      <trkpt lat="40.164204" lon="-3.7318308">
        <ele>639.54</ele>
        <time>2021-03-24T17:14:18Z</time>
      </trkpt>
      <trkpt lat="40.16415" lon="-3.7318804">
        <ele>639.54</ele>
        <time>2021-03-24T17:14:19Z</time>
      </trkpt>
      <trkpt lat="40.164097" lon="-3.7319272">
        <ele>637.9</ele>
        <time>2021-03-24T17:14:20Z</time>
      </trkpt>
      <trkpt lat="40.16399" lon="-3.7320101">
        <ele>636.72</ele>
        <time>2021-03-24T17:14:22Z</time>
      </trkpt>
      <trkpt lat="40.16394" lon="-3.7320416">
        <ele>636.72</ele>
        <time>2021-03-24T17:14:23Z</time>
      </trkpt>
      <trkpt lat="40.163887" lon="-3.7320623">
        <ele>636.72</ele>
        <time>2021-03-24T17:14:24Z</time>
      </trkpt>
      <trkpt lat="40.163837" lon="-3.732072">
        <ele>636.72</ele>
        <time>2021-03-24T17:14:25Z</time>
      </trkpt>
      <trkpt lat="40.163742" lon="-3.732061">
        <ele>635.36</ele>
        <time>2021-03-24T17:14:27Z</time>
      </trkpt>
      <trkpt lat="40.163696" lon="-3.7320487">
        <ele>635.36</ele>
        <time>2021-03-24T17:14:28Z</time>
      </trkpt>
      <trkpt lat="40.16361" lon="-3.7320235">
        <ele>635.36</ele>
        <time>2021-03-24T17:14:30Z</time>
      </trkpt>
      <trkpt lat="40.16352" lon="-3.732">
        <ele>635.36</ele>
        <time>2021-03-24T17:14:32Z</time>
      </trkpt>
      <trkpt lat="40.163433" lon="-3.7319746">
        <ele>635.36</ele>
        <time>2021-03-24T17:14:34Z</time>
      </trkpt>
      <trkpt lat="40.163345" lon="-3.731946">
        <ele>635.36</ele>
        <time>2021-03-24T17:14:36Z</time>
      </trkpt>
      <trkpt lat="40.16326" lon="-3.731904">
        <ele>635.36</ele>
        <time>2021-03-24T17:14:38Z</time>
      </trkpt>
      <trkpt lat="40.16318" lon="-3.73186">
        <ele>635.36</ele>
        <time>2021-03-24T17:14:40Z</time>
      </trkpt>
      <trkpt lat="40.1631" lon="-3.731823">
        <ele>635.36</ele>
        <time>2021-03-24T17:14:42Z</time>
      </trkpt>
      <trkpt lat="40.16302" lon="-3.7317894">
        <ele>636.63</ele>
        <time>2021-03-24T17:14:44Z</time>
      </trkpt>
      <trkpt lat="40.16294" lon="-3.7317607">
        <ele>636.63</ele>
        <time>2021-03-24T17:14:46Z</time>
      </trkpt>
      <trkpt lat="40.16287" lon="-3.7317345">
        <ele>636.63</ele>
        <time>2021-03-24T17:14:48Z</time>
      </trkpt>
      <trkpt lat="40.1628" lon="-3.731709">
        <ele>636.63</ele>
        <time>2021-03-24T17:14:50Z</time>
      </trkpt>
      <trkpt lat="40.16274" lon="-3.7316847">
        <ele>637.9</ele>
        <time>2021-03-24T17:14:52Z</time>
      </trkpt>
      <trkpt lat="40.162678" lon="-3.7316637">
        <ele>637.9</ele>
        <time>2021-03-24T17:14:54Z</time>
      </trkpt>
      <trkpt lat="40.16262" lon="-3.7316487">
        <ele>639.08</ele>
        <time>2021-03-24T17:14:56Z</time>
      </trkpt>
      <trkpt lat="40.162567" lon="-3.7316337">
        <ele>639.08</ele>
        <time>2021-03-24T17:14:58Z</time>
      </trkpt>
      <trkpt lat="40.16253" lon="-3.731602">
        <ele>640.36</ele>
        <time>2021-03-24T17:15:00Z</time>
      </trkpt>
      <trkpt lat="40.162487" lon="-3.731549">
        <ele>640.36</ele>
        <time>2021-03-24T17:15:02Z</time>
      </trkpt>
      <trkpt lat="40.162445" lon="-3.731491">
        <ele>640.36</ele>
        <time>2021-03-24T17:15:04Z</time>
      </trkpt>
      <trkpt lat="40.162407" lon="-3.7314274">
        <ele>641.54</ele>
        <time>2021-03-24T17:15:06Z</time>
      </trkpt>
      <trkpt lat="40.16236" lon="-3.731376">
        <ele>641.54</ele>
        <time>2021-03-24T17:15:08Z</time>
      </trkpt>
      <trkpt lat="40.1623" lon="-3.7313747">
        <ele>641.54</ele>
        <time>2021-03-24T17:15:10Z</time>
      </trkpt>
      <trkpt lat="40.162228" lon="-3.7314253">
        <ele>641.54</ele>
        <time>2021-03-24T17:15:12Z</time>
      </trkpt>
      <trkpt lat="40.16215" lon="-3.731497">
        <ele>641.54</ele>
        <time>2021-03-24T17:15:14Z</time>
      </trkpt>
      <trkpt lat="40.16211" lon="-3.7315366">
        <ele>641.54</ele>
        <time>2021-03-24T17:15:15Z</time>
      </trkpt>
      <trkpt lat="40.162025" lon="-3.731622">
        <ele>641.54</ele>
        <time>2021-03-24T17:15:17Z</time>
      </trkpt>
      <trkpt lat="40.161983" lon="-3.7316663">
        <ele>641.54</ele>
        <time>2021-03-24T17:15:18Z</time>
      </trkpt>
      <trkpt lat="40.16194" lon="-3.7317104">
        <ele>641.54</ele>
        <time>2021-03-24T17:15:19Z</time>
      </trkpt>
      <trkpt lat="40.1619" lon="-3.7317538">
        <ele>640.36</ele>
        <time>2021-03-24T17:15:20Z</time>
      </trkpt>
      <trkpt lat="40.161854" lon="-3.7317936">
        <ele>640.36</ele>
        <time>2021-03-24T17:15:21Z</time>
      </trkpt>
      <trkpt lat="40.161804" lon="-3.7318285">
        <ele>640.36</ele>
        <time>2021-03-24T17:15:22Z</time>
      </trkpt>
      <trkpt lat="40.16176" lon="-3.73186">
        <ele>640.36</ele>
        <time>2021-03-24T17:15:23Z</time>
      </trkpt>
      <trkpt lat="40.161713" lon="-3.7318873">
        <ele>640.36</ele>
        <time>2021-03-24T17:15:24Z</time>
      </trkpt>
      <trkpt lat="40.161667" lon="-3.7319133">
        <ele>640.36</ele>
        <time>2021-03-24T17:15:25Z</time>
      </trkpt>
      <trkpt lat="40.161575" lon="-3.7319577">
        <ele>640.36</ele>
        <time>2021-03-24T17:15:27Z</time>
      </trkpt>
      <trkpt lat="40.161488" lon="-3.731996">
        <ele>640.36</ele>
        <time>2021-03-24T17:15:29Z</time>
      </trkpt>
      <trkpt lat="40.1614" lon="-3.7320316">
        <ele>640.36</ele>
        <time>2021-03-24T17:15:31Z</time>
      </trkpt>
      <trkpt lat="40.161354" lon="-3.732047">
        <ele>640.36</ele>
        <time>2021-03-24T17:15:32Z</time>
      </trkpt>
      <trkpt lat="40.16127" lon="-3.732071">
        <ele>640.36</ele>
        <time>2021-03-24T17:15:34Z</time>
      </trkpt>
      <trkpt lat="40.161186" lon="-3.7320857">
        <ele>641.54</ele>
        <time>2021-03-24T17:15:36Z</time>
      </trkpt>
      <trkpt lat="40.161102" lon="-3.732097">
        <ele>641.54</ele>
        <time>2021-03-24T17:15:38Z</time>
      </trkpt>
      <trkpt lat="40.161022" lon="-3.7321074">
        <ele>641.54</ele>
        <time>2021-03-24T17:15:40Z</time>
      </trkpt>
      <trkpt lat="40.16094" lon="-3.7321208">
        <ele>641.54</ele>
        <time>2021-03-24T17:15:42Z</time>
      </trkpt>
      <trkpt lat="40.160854" lon="-3.7321382">
        <ele>642.72</ele>
        <time>2021-03-24T17:15:44Z</time>
      </trkpt>
      <trkpt lat="40.160774" lon="-3.7321684">
        <ele>642.72</ele>
        <time>2021-03-24T17:15:46Z</time>
      </trkpt>
      <trkpt lat="40.160694" lon="-3.732219">
        <ele>642.72</ele>
        <time>2021-03-24T17:15:48Z</time>
      </trkpt>
      <trkpt lat="40.160614" lon="-3.7322826">
        <ele>642.72</ele>
        <time>2021-03-24T17:15:50Z</time>
      </trkpt>
      <trkpt lat="40.160538" lon="-3.7323499">
        <ele>642.72</ele>
        <time>2021-03-24T17:15:52Z</time>
      </trkpt>
      <trkpt lat="40.160496" lon="-3.7323837">
        <ele>642.72</ele>
        <time>2021-03-24T17:15:53Z</time>
      </trkpt>
      <trkpt lat="40.16042" lon="-3.7324464">
        <ele>642.72</ele>
        <time>2021-03-24T17:15:55Z</time>
      </trkpt>
      <trkpt lat="40.160336" lon="-3.7325027">
        <ele>642.72</ele>
        <time>2021-03-24T17:15:57Z</time>
      </trkpt>
      <trkpt lat="40.16029" lon="-3.7325273">
        <ele>642.72</ele>
        <time>2021-03-24T17:15:58Z</time>
      </trkpt>
      <trkpt lat="40.16019" lon="-3.7325747">
        <ele>642.72</ele>
        <time>2021-03-24T17:16:00Z</time>
      </trkpt>
      <trkpt lat="40.16014" lon="-3.7325988">
        <ele>642.72</ele>
        <time>2021-03-24T17:16:01Z</time>
      </trkpt>
      <trkpt lat="40.160088" lon="-3.7326233">
        <ele>642.72</ele>
        <time>2021-03-24T17:16:02Z</time>
      </trkpt>
      <trkpt lat="40.16003" lon="-3.7326498">
        <ele>642.72</ele>
        <time>2021-03-24T17:16:03Z</time>
      </trkpt>
      <trkpt lat="40.159927" lon="-3.7327027">
        <ele>642.72</ele>
        <time>2021-03-24T17:16:05Z</time>
      </trkpt>
      <trkpt lat="40.159874" lon="-3.7327328">
        <ele>642.72</ele>
        <time>2021-03-24T17:16:06Z</time>
      </trkpt>
      <trkpt lat="40.15983" lon="-3.7327623">
        <ele>642.72</ele>
        <time>2021-03-24T17:16:07Z</time>
      </trkpt>
      <trkpt lat="40.15978" lon="-3.7327914">
        <ele>642.72</ele>
        <time>2021-03-24T17:16:08Z</time>
      </trkpt>
      <trkpt lat="40.159733" lon="-3.7328203">
        <ele>642.72</ele>
        <time>2021-03-24T17:16:09Z</time>
      </trkpt>
      <trkpt lat="40.159683" lon="-3.7328486">
        <ele>642.72</ele>
        <time>2021-03-24T17:16:10Z</time>
      </trkpt>
      <trkpt lat="40.159634" lon="-3.732877">
        <ele>642.72</ele>
        <time>2021-03-24T17:16:11Z</time>
      </trkpt>
      <trkpt lat="40.159588" lon="-3.7329047">
        <ele>642.72</ele>
        <time>2021-03-24T17:16:12Z</time>
      </trkpt>
      <trkpt lat="40.15954" lon="-3.732933">
        <ele>642.72</ele>
        <time>2021-03-24T17:16:13Z</time>
      </trkpt>
      <trkpt lat="40.159443" lon="-3.7329924">
        <ele>642.72</ele>
        <time>2021-03-24T17:16:15Z</time>
      </trkpt>
      <trkpt lat="40.159397" lon="-3.733022">
        <ele>642.72</ele>
        <time>2021-03-24T17:16:16Z</time>
      </trkpt>
      <trkpt lat="40.159344" lon="-3.7330542">
        <ele>642.72</ele>
        <time>2021-03-24T17:16:17Z</time>
      </trkpt>
      <trkpt lat="40.159298" lon="-3.7330844">
        <ele>642.72</ele>
        <time>2021-03-24T17:16:18Z</time>
      </trkpt>
      <trkpt lat="40.15925" lon="-3.7331154">
        <ele>642.72</ele>
        <time>2021-03-24T17:16:19Z</time>
      </trkpt>
      <trkpt lat="40.159203" lon="-3.7331476">
        <ele>642.72</ele>
        <time>2021-03-24T17:16:20Z</time>
      </trkpt>
      <trkpt lat="40.159153" lon="-3.7331812">
        <ele>642.72</ele>
        <time>2021-03-24T17:16:21Z</time>
      </trkpt>
      <trkpt lat="40.159107" lon="-3.733215">
        <ele>642.72</ele>
        <time>2021-03-24T17:16:22Z</time>
      </trkpt>
      <trkpt lat="40.159058" lon="-3.733253">
        <ele>642.72</ele>
        <time>2021-03-24T17:16:23Z</time>
      </trkpt>
      <trkpt lat="40.15901" lon="-3.7332897">
        <ele>642.72</ele>
        <time>2021-03-24T17:16:24Z</time>
      </trkpt>
      <trkpt lat="40.158962" lon="-3.7333314">
        <ele>642.72</ele>
        <time>2021-03-24T17:16:25Z</time>
      </trkpt>
      <trkpt lat="40.158913" lon="-3.7333748">
        <ele>642.72</ele>
        <time>2021-03-24T17:16:26Z</time>
      </trkpt>
      <trkpt lat="40.158867" lon="-3.7334156">
        <ele>641.54</ele>
        <time>2021-03-24T17:16:27Z</time>
      </trkpt>
      <trkpt lat="40.158817" lon="-3.7334573">
        <ele>641.54</ele>
        <time>2021-03-24T17:16:28Z</time>
      </trkpt>
      <trkpt lat="40.15877" lon="-3.7335002">
        <ele>641.54</ele>
        <time>2021-03-24T17:16:29Z</time>
      </trkpt>
      <trkpt lat="40.158722" lon="-3.7335434">
        <ele>641.54</ele>
        <time>2021-03-24T17:16:30Z</time>
      </trkpt>
      <trkpt lat="40.158665" lon="-3.7335896">
        <ele>641.54</ele>
        <time>2021-03-24T17:16:31Z</time>
      </trkpt>
      <trkpt lat="40.158607" lon="-3.7336364">
        <ele>641.54</ele>
        <time>2021-03-24T17:16:32Z</time>
      </trkpt>
      <trkpt lat="40.15855" lon="-3.7336836">
        <ele>640.36</ele>
        <time>2021-03-24T17:16:33Z</time>
      </trkpt>
      <trkpt lat="40.158493" lon="-3.7337306">
        <ele>640.36</ele>
        <time>2021-03-24T17:16:34Z</time>
      </trkpt>
      <trkpt lat="40.158436" lon="-3.7337751">
        <ele>640.36</ele>
        <time>2021-03-24T17:16:35Z</time>
      </trkpt>
      <trkpt lat="40.158375" lon="-3.7338238">
        <ele>640.36</ele>
        <time>2021-03-24T17:16:36Z</time>
      </trkpt>
      <trkpt lat="40.158314" lon="-3.733871">
        <ele>638.9</ele>
        <time>2021-03-24T17:16:37Z</time>
      </trkpt>
      <trkpt lat="40.15825" lon="-3.733915">
        <ele>638.9</ele>
        <time>2021-03-24T17:16:38Z</time>
      </trkpt>
      <trkpt lat="40.158184" lon="-3.7339556">
        <ele>638.9</ele>
        <time>2021-03-24T17:16:39Z</time>
      </trkpt>
      <trkpt lat="40.158123" lon="-3.7339911">
        <ele>637.45</ele>
        <time>2021-03-24T17:16:40Z</time>
      </trkpt>
      <trkpt lat="40.158054" lon="-3.7340295">
        <ele>637.45</ele>
        <time>2021-03-24T17:16:41Z</time>
      </trkpt>
      <trkpt lat="40.157993" lon="-3.734066">
        <ele>637.45</ele>
        <time>2021-03-24T17:16:42Z</time>
      </trkpt>
      <trkpt lat="40.15793" lon="-3.7341027">
        <ele>635.81</ele>
        <time>2021-03-24T17:16:43Z</time>
      </trkpt>
      <trkpt lat="40.15786" lon="-3.734138">
        <ele>635.81</ele>
        <time>2021-03-24T17:16:44Z</time>
      </trkpt>
      <trkpt lat="40.157787" lon="-3.73417">
        <ele>635.81</ele>
        <time>2021-03-24T17:16:45Z</time>
      </trkpt>
      <trkpt lat="40.15772" lon="-3.7341964">
        <ele>634.26</ele>
        <time>2021-03-24T17:16:46Z</time>
      </trkpt>
      <trkpt lat="40.157642" lon="-3.7342212">
        <ele>634.26</ele>
        <time>2021-03-24T17:16:47Z</time>
      </trkpt>
      <trkpt lat="40.157574" lon="-3.734244">
        <ele>634.26</ele>
        <time>2021-03-24T17:16:48Z</time>
      </trkpt>
      <trkpt lat="40.1575" lon="-3.734267">
        <ele>634.26</ele>
        <time>2021-03-24T17:16:49Z</time>
      </trkpt>
      <trkpt lat="40.15743" lon="-3.7342916">
        <ele>632.81</ele>
        <time>2021-03-24T17:16:50Z</time>
      </trkpt>
      <trkpt lat="40.157356" lon="-3.7343185">
        <ele>632.81</ele>
        <time>2021-03-24T17:16:51Z</time>
      </trkpt>
      <trkpt lat="40.15728" lon="-3.73435">
        <ele>632.81</ele>
        <time>2021-03-24T17:16:52Z</time>
      </trkpt>
      <trkpt lat="40.15721" lon="-3.7343812">
        <ele>632.81</ele>
        <time>2021-03-24T17:16:53Z</time>
      </trkpt>
      <trkpt lat="40.157143" lon="-3.734413">
        <ele>631.63</ele>
        <time>2021-03-24T17:16:54Z</time>
      </trkpt>
      <trkpt lat="40.157074" lon="-3.7344453">
        <ele>631.63</ele>
        <time>2021-03-24T17:16:55Z</time>
      </trkpt>
      <trkpt lat="40.157005" lon="-3.734478">
        <ele>631.63</ele>
        <time>2021-03-24T17:16:56Z</time>
      </trkpt>
      <trkpt lat="40.15694" lon="-3.7345123">
        <ele>631.63</ele>
        <time>2021-03-24T17:16:57Z</time>
      </trkpt>
      <trkpt lat="40.15688" lon="-3.734547">
        <ele>631.63</ele>
        <time>2021-03-24T17:16:58Z</time>
      </trkpt>
      <trkpt lat="40.15682" lon="-3.7345834">
        <ele>631.63</ele>
        <time>2021-03-24T17:16:59Z</time>
      </trkpt>
      <trkpt lat="40.156765" lon="-3.7346244">
        <ele>631.63</ele>
        <time>2021-03-24T17:17:00Z</time>
      </trkpt>
      <trkpt lat="40.156715" lon="-3.7346702">
        <ele>631.63</ele>
        <time>2021-03-24T17:17:01Z</time>
      </trkpt>
      <trkpt lat="40.156673" lon="-3.7347174">
        <ele>631.63</ele>
        <time>2021-03-24T17:17:02Z</time>
      </trkpt>
      <trkpt lat="40.156647" lon="-3.734768">
        <ele>631.63</ele>
        <time>2021-03-24T17:17:03Z</time>
      </trkpt>
      <trkpt lat="40.156635" lon="-3.7348797">
        <ele>630.45</ele>
        <time>2021-03-24T17:17:05Z</time>
      </trkpt>
      <trkpt lat="40.156662" lon="-3.7350004">
        <ele>630.45</ele>
        <time>2021-03-24T17:17:07Z</time>
      </trkpt>
      <trkpt lat="40.156677" lon="-3.7350647">
        <ele>630.45</ele>
        <time>2021-03-24T17:17:08Z</time>
      </trkpt>
      <trkpt lat="40.156696" lon="-3.7352">
        <ele>627.47</ele>
        <time>2021-03-24T17:17:10Z</time>
      </trkpt>
      <trkpt lat="40.156704" lon="-3.7352695">
        <ele>627.47</ele>
        <time>2021-03-24T17:17:11Z</time>
      </trkpt>
      <trkpt lat="40.156715" lon="-3.7353394">
        <ele>627.47</ele>
        <time>2021-03-24T17:17:12Z</time>
      </trkpt>
      <trkpt lat="40.156727" lon="-3.7354095">
        <ele>626.29</ele>
        <time>2021-03-24T17:17:13Z</time>
      </trkpt>
      <trkpt lat="40.15674" lon="-3.735479">
        <ele>626.29</ele>
        <time>2021-03-24T17:17:14Z</time>
      </trkpt>
      <trkpt lat="40.15675" lon="-3.7355483">
        <ele>626.29</ele>
        <time>2021-03-24T17:17:15Z</time>
      </trkpt>
      <trkpt lat="40.156765" lon="-3.7356176">
        <ele>626.29</ele>
        <time>2021-03-24T17:17:16Z</time>
      </trkpt>
      <trkpt lat="40.156788" lon="-3.7356853">
        <ele>626.29</ele>
        <time>2021-03-24T17:17:17Z</time>
      </trkpt>
      <trkpt lat="40.15681" lon="-3.7357526">
        <ele>625.02</ele>
        <time>2021-03-24T17:17:18Z</time>
      </trkpt>
      <trkpt lat="40.156837" lon="-3.735819">
        <ele>625.02</ele>
        <time>2021-03-24T17:17:19Z</time>
      </trkpt>
      <trkpt lat="40.156868" lon="-3.735885">
        <ele>625.02</ele>
        <time>2021-03-24T17:17:20Z</time>
      </trkpt>
      <trkpt lat="40.1569" lon="-3.7359498">
        <ele>625.02</ele>
        <time>2021-03-24T17:17:21Z</time>
      </trkpt>
      <trkpt lat="40.156933" lon="-3.7360153">
        <ele>625.02</ele>
        <time>2021-03-24T17:17:22Z</time>
      </trkpt>
      <trkpt lat="40.156963" lon="-3.7360818">
        <ele>625.02</ele>
        <time>2021-03-24T17:17:23Z</time>
      </trkpt>
      <trkpt lat="40.15699" lon="-3.736149">
        <ele>625.02</ele>
        <time>2021-03-24T17:17:24Z</time>
      </trkpt>
      <trkpt lat="40.15702" lon="-3.7362154">
        <ele>623.75</ele>
        <time>2021-03-24T17:17:25Z</time>
      </trkpt>
      <trkpt lat="40.15705" lon="-3.7362823">
        <ele>623.75</ele>
        <time>2021-03-24T17:17:26Z</time>
      </trkpt>
      <trkpt lat="40.15708" lon="-3.7363474">
        <ele>623.75</ele>
        <time>2021-03-24T17:17:27Z</time>
      </trkpt>
      <trkpt lat="40.15712" lon="-3.73641">
        <ele>623.75</ele>
        <time>2021-03-24T17:17:28Z</time>
      </trkpt>
      <trkpt lat="40.157158" lon="-3.736469">
        <ele>623.75</ele>
        <time>2021-03-24T17:17:29Z</time>
      </trkpt>
      <trkpt lat="40.157204" lon="-3.7365265">
        <ele>623.75</ele>
        <time>2021-03-24T17:17:30Z</time>
      </trkpt>
      <trkpt lat="40.15725" lon="-3.7365804">
        <ele>623.75</ele>
        <time>2021-03-24T17:17:31Z</time>
      </trkpt>
      <trkpt lat="40.157295" lon="-3.7366326">
        <ele>623.75</ele>
        <time>2021-03-24T17:17:32Z</time>
      </trkpt>
      <trkpt lat="40.15735" lon="-3.7366827">
        <ele>622.47</ele>
        <time>2021-03-24T17:17:33Z</time>
      </trkpt>
      <trkpt lat="40.1574" lon="-3.7367303">
        <ele>622.47</ele>
        <time>2021-03-24T17:17:34Z</time>
      </trkpt>
      <trkpt lat="40.157455" lon="-3.736775">
        <ele>622.47</ele>
        <time>2021-03-24T17:17:35Z</time>
      </trkpt>
      <trkpt lat="40.15751" lon="-3.736815">
        <ele>622.47</ele>
        <time>2021-03-24T17:17:36Z</time>
      </trkpt>
      <trkpt lat="40.157566" lon="-3.7368503">
        <ele>622.47</ele>
        <time>2021-03-24T17:17:37Z</time>
      </trkpt>
      <trkpt lat="40.157623" lon="-3.736884">
        <ele>622.47</ele>
        <time>2021-03-24T17:17:38Z</time>
      </trkpt>
      <trkpt lat="40.15768" lon="-3.7369177">
        <ele>622.47</ele>
        <time>2021-03-24T17:17:39Z</time>
      </trkpt>
      <trkpt lat="40.157738" lon="-3.7369506">
        <ele>622.47</ele>
        <time>2021-03-24T17:17:40Z</time>
      </trkpt>
      <trkpt lat="40.157795" lon="-3.7369819">
        <ele>621.2</ele>
        <time>2021-03-24T17:17:41Z</time>
      </trkpt>
      <trkpt lat="40.157856" lon="-3.7370114">
        <ele>621.2</ele>
        <time>2021-03-24T17:17:42Z</time>
      </trkpt>
      <trkpt lat="40.157913" lon="-3.7370427">
        <ele>621.2</ele>
        <time>2021-03-24T17:17:43Z</time>
      </trkpt>
      <trkpt lat="40.15797" lon="-3.7370772">
        <ele>621.2</ele>
        <time>2021-03-24T17:17:44Z</time>
      </trkpt>
      <trkpt lat="40.158085" lon="-3.737159">
        <ele>621.2</ele>
        <time>2021-03-24T17:17:46Z</time>
      </trkpt>
      <trkpt lat="40.158142" lon="-3.7372046">
        <ele>621.2</ele>
        <time>2021-03-24T17:17:47Z</time>
      </trkpt>
      <trkpt lat="40.158253" lon="-3.7373052">
        <ele>621.2</ele>
        <time>2021-03-24T17:17:49Z</time>
      </trkpt>
      <trkpt lat="40.158306" lon="-3.7373593">
        <ele>621.2</ele>
        <time>2021-03-24T17:17:50Z</time>
      </trkpt>
      <trkpt lat="40.15836" lon="-3.7374122">
        <ele>621.2</ele>
        <time>2021-03-24T17:17:51Z</time>
      </trkpt>
      <trkpt lat="40.158417" lon="-3.737464">
        <ele>621.2</ele>
        <time>2021-03-24T17:17:52Z</time>
      </trkpt>
      <trkpt lat="40.15847" lon="-3.737513">
        <ele>620.02</ele>
        <time>2021-03-24T17:17:53Z</time>
      </trkpt>
      <trkpt lat="40.15853" lon="-3.7375576">
        <ele>620.02</ele>
        <time>2021-03-24T17:17:54Z</time>
      </trkpt>
      <trkpt lat="40.15859" lon="-3.7375972">
        <ele>620.02</ele>
        <time>2021-03-24T17:17:55Z</time>
      </trkpt>
      <trkpt lat="40.15865" lon="-3.7376313">
        <ele>620.02</ele>
        <time>2021-03-24T17:17:56Z</time>
      </trkpt>
      <trkpt lat="40.15871" lon="-3.7376604">
        <ele>620.02</ele>
        <time>2021-03-24T17:17:57Z</time>
      </trkpt>
      <trkpt lat="40.15877" lon="-3.7376857">
        <ele>620.02</ele>
        <time>2021-03-24T17:17:58Z</time>
      </trkpt>
      <trkpt lat="40.15883" lon="-3.7377098">
        <ele>620.02</ele>
        <time>2021-03-24T17:17:59Z</time>
      </trkpt>
      <trkpt lat="40.15889" lon="-3.7377334">
        <ele>620.02</ele>
        <time>2021-03-24T17:18:00Z</time>
      </trkpt>
      <trkpt lat="40.158947" lon="-3.7377563">
        <ele>620.02</ele>
        <time>2021-03-24T17:18:01Z</time>
      </trkpt>
      <trkpt lat="40.159004" lon="-3.737778">
        <ele>620.02</ele>
        <time>2021-03-24T17:18:02Z</time>
      </trkpt>
      <trkpt lat="40.15906" lon="-3.737799">
        <ele>620.02</ele>
        <time>2021-03-24T17:18:03Z</time>
      </trkpt>
      <trkpt lat="40.15912" lon="-3.7378204">
        <ele>620.02</ele>
        <time>2021-03-24T17:18:04Z</time>
      </trkpt>
      <trkpt lat="40.159176" lon="-3.7378447">
        <ele>620.02</ele>
        <time>2021-03-24T17:18:05Z</time>
      </trkpt>
      <trkpt lat="40.159233" lon="-3.7378724">
        <ele>620.02</ele>
        <time>2021-03-24T17:18:06Z</time>
      </trkpt>
      <trkpt lat="40.15929" lon="-3.7379003">
        <ele>620.02</ele>
        <time>2021-03-24T17:18:07Z</time>
      </trkpt>
      <trkpt lat="40.159348" lon="-3.7379293">
        <ele>620.02</ele>
        <time>2021-03-24T17:18:08Z</time>
      </trkpt>
      <trkpt lat="40.159405" lon="-3.7379591">
        <ele>620.02</ele>
        <time>2021-03-24T17:18:09Z</time>
      </trkpt>
      <trkpt lat="40.15946" lon="-3.7379894">
        <ele>620.02</ele>
        <time>2021-03-24T17:18:10Z</time>
      </trkpt>
      <trkpt lat="40.159515" lon="-3.738021">
        <ele>620.02</ele>
        <time>2021-03-24T17:18:11Z</time>
      </trkpt>
      <trkpt lat="40.159573" lon="-3.738052">
        <ele>620.02</ele>
        <time>2021-03-24T17:18:12Z</time>
      </trkpt>
      <trkpt lat="40.159626" lon="-3.7380846">
        <ele>620.02</ele>
        <time>2021-03-24T17:18:13Z</time>
      </trkpt>
      <trkpt lat="40.159683" lon="-3.7381182">
        <ele>620.02</ele>
        <time>2021-03-24T17:18:14Z</time>
      </trkpt>
      <trkpt lat="40.15974" lon="-3.7381527">
        <ele>620.02</ele>
        <time>2021-03-24T17:18:15Z</time>
      </trkpt>
      <trkpt lat="40.159794" lon="-3.7381873">
        <ele>620.02</ele>
        <time>2021-03-24T17:18:16Z</time>
      </trkpt>
      <trkpt lat="40.15985" lon="-3.7382224">
        <ele>620.02</ele>
        <time>2021-03-24T17:18:17Z</time>
      </trkpt>
      <trkpt lat="40.159904" lon="-3.738257">
        <ele>620.02</ele>
        <time>2021-03-24T17:18:18Z</time>
      </trkpt>
      <trkpt lat="40.159958" lon="-3.7382922">
        <ele>620.02</ele>
        <time>2021-03-24T17:18:19Z</time>
      </trkpt>
      <trkpt lat="40.16001" lon="-3.7383287">
        <ele>620.02</ele>
        <time>2021-03-24T17:18:20Z</time>
      </trkpt>
      <trkpt lat="40.160065" lon="-3.7383666">
        <ele>620.02</ele>
        <time>2021-03-24T17:18:21Z</time>
      </trkpt>
      <trkpt lat="40.160114" lon="-3.7384071">
        <ele>620.02</ele>
        <time>2021-03-24T17:18:22Z</time>
      </trkpt>
      <trkpt lat="40.16016" lon="-3.7384489">
        <ele>620.02</ele>
        <time>2021-03-24T17:18:23Z</time>
      </trkpt>
      <trkpt lat="40.160206" lon="-3.7384923">
        <ele>620.02</ele>
        <time>2021-03-24T17:18:24Z</time>
      </trkpt>
      <trkpt lat="40.16025" lon="-3.7385356">
        <ele>620.02</ele>
        <time>2021-03-24T17:18:25Z</time>
      </trkpt>
      <trkpt lat="40.160294" lon="-3.7385798">
        <ele>620.02</ele>
        <time>2021-03-24T17:18:26Z</time>
      </trkpt>
      <trkpt lat="40.16033" lon="-3.738626">
        <ele>620.02</ele>
        <time>2021-03-24T17:18:27Z</time>
      </trkpt>
      <trkpt lat="40.160374" lon="-3.738673">
        <ele>621.2</ele>
        <time>2021-03-24T17:18:28Z</time>
      </trkpt>
      <trkpt lat="40.16041" lon="-3.7387216">
        <ele>621.2</ele>
        <time>2021-03-24T17:18:29Z</time>
      </trkpt>
      <trkpt lat="40.16045" lon="-3.738772">
        <ele>621.2</ele>
        <time>2021-03-24T17:18:30Z</time>
      </trkpt>
      <trkpt lat="40.160484" lon="-3.7388237">
        <ele>621.2</ele>
        <time>2021-03-24T17:18:31Z</time>
      </trkpt>
      <trkpt lat="40.160522" lon="-3.7388766">
        <ele>621.2</ele>
        <time>2021-03-24T17:18:32Z</time>
      </trkpt>
      <trkpt lat="40.160564" lon="-3.7389305">
        <ele>621.2</ele>
        <time>2021-03-24T17:18:33Z</time>
      </trkpt>
      <trkpt lat="40.160603" lon="-3.738986">
        <ele>621.2</ele>
        <time>2021-03-24T17:18:34Z</time>
      </trkpt>
      <trkpt lat="40.160645" lon="-3.7390409">
        <ele>621.2</ele>
        <time>2021-03-24T17:18:35Z</time>
      </trkpt>
      <trkpt lat="40.160683" lon="-3.739096">
        <ele>621.2</ele>
        <time>2021-03-24T17:18:36Z</time>
      </trkpt>
      <trkpt lat="40.160725" lon="-3.7391493">
        <ele>621.2</ele>
        <time>2021-03-24T17:18:37Z</time>
      </trkpt>
      <trkpt lat="40.160767" lon="-3.739203">
        <ele>621.2</ele>
        <time>2021-03-24T17:18:38Z</time>
      </trkpt>
      <trkpt lat="40.16081" lon="-3.739254">
        <ele>621.2</ele>
        <time>2021-03-24T17:18:39Z</time>
      </trkpt>
      <trkpt lat="40.16085" lon="-3.7393055">
        <ele>621.2</ele>
        <time>2021-03-24T17:18:40Z</time>
      </trkpt>
      <trkpt lat="40.16089" lon="-3.7393572">
        <ele>621.2</ele>
        <time>2021-03-24T17:18:41Z</time>
      </trkpt>
      <trkpt lat="40.16093" lon="-3.7394097">
        <ele>621.2</ele>
        <time>2021-03-24T17:18:42Z</time>
      </trkpt>
      <trkpt lat="40.160973" lon="-3.7394617">
        <ele>621.2</ele>
        <time>2021-03-24T17:18:43Z</time>
      </trkpt>
      <trkpt lat="40.161015" lon="-3.7395134">
        <ele>621.2</ele>
        <time>2021-03-24T17:18:44Z</time>
      </trkpt>
      <trkpt lat="40.16106" lon="-3.7395606">
        <ele>621.2</ele>
        <time>2021-03-24T17:18:45Z</time>
      </trkpt>
      <trkpt lat="40.161106" lon="-3.7396038">
        <ele>621.2</ele>
        <time>2021-03-24T17:18:46Z</time>
      </trkpt>
      <trkpt lat="40.161148" lon="-3.739643">
        <ele>621.2</ele>
        <time>2021-03-24T17:18:47Z</time>
      </trkpt>
      <trkpt lat="40.161194" lon="-3.7396836">
        <ele>621.2</ele>
        <time>2021-03-24T17:18:48Z</time>
      </trkpt>
      <trkpt lat="40.161243" lon="-3.7397292">
        <ele>621.2</ele>
        <time>2021-03-24T17:18:49Z</time>
      </trkpt>
      <trkpt lat="40.161285" lon="-3.739774">
        <ele>621.2</ele>
        <time>2021-03-24T17:18:50Z</time>
      </trkpt>
      <trkpt lat="40.161327" lon="-3.7398198">
        <ele>621.2</ele>
        <time>2021-03-24T17:18:51Z</time>
      </trkpt>
      <trkpt lat="40.161373" lon="-3.739865">
        <ele>621.2</ele>
        <time>2021-03-24T17:18:52Z</time>
      </trkpt>
      <trkpt lat="40.16142" lon="-3.739911">
        <ele>621.2</ele>
        <time>2021-03-24T17:18:53Z</time>
      </trkpt>
      <trkpt lat="40.161465" lon="-3.7399573">
        <ele>621.2</ele>
        <time>2021-03-24T17:18:54Z</time>
      </trkpt>
      <trkpt lat="40.16151" lon="-3.7400036">
        <ele>621.2</ele>
        <time>2021-03-24T17:18:55Z</time>
      </trkpt>
      <trkpt lat="40.161556" lon="-3.7400503">
        <ele>621.2</ele>
        <time>2021-03-24T17:18:56Z</time>
      </trkpt>
      <trkpt lat="40.161602" lon="-3.7400966">
        <ele>621.2</ele>
        <time>2021-03-24T17:18:57Z</time>
      </trkpt>
      <trkpt lat="40.161648" lon="-3.740143">
        <ele>621.2</ele>
        <time>2021-03-24T17:18:58Z</time>
      </trkpt>
      <trkpt lat="40.161694" lon="-3.74019">
        <ele>621.2</ele>
        <time>2021-03-24T17:18:59Z</time>
      </trkpt>
      <trkpt lat="40.16174" lon="-3.7402382">
        <ele>620.02</ele>
        <time>2021-03-24T17:19:00Z</time>
      </trkpt>
      <trkpt lat="40.161785" lon="-3.7402873">
        <ele>620.02</ele>
        <time>2021-03-24T17:19:01Z</time>
      </trkpt>
      <trkpt lat="40.16183" lon="-3.7403383">
        <ele>620.02</ele>
        <time>2021-03-24T17:19:02Z</time>
      </trkpt>
      <trkpt lat="40.16188" lon="-3.7403936">
        <ele>620.02</ele>
        <time>2021-03-24T17:19:03Z</time>
      </trkpt>
      <trkpt lat="40.16193" lon="-3.7404492">
        <ele>620.02</ele>
        <time>2021-03-24T17:19:04Z</time>
      </trkpt>
      <trkpt lat="40.16198" lon="-3.7405066">
        <ele>620.02</ele>
        <time>2021-03-24T17:19:05Z</time>
      </trkpt>
      <trkpt lat="40.16203" lon="-3.7405646">
        <ele>620.02</ele>
        <time>2021-03-24T17:19:06Z</time>
      </trkpt>
      <trkpt lat="40.162083" lon="-3.740624">
        <ele>620.02</ele>
        <time>2021-03-24T17:19:07Z</time>
      </trkpt>
      <trkpt lat="40.162136" lon="-3.7406852">
        <ele>620.02</ele>
        <time>2021-03-24T17:19:08Z</time>
      </trkpt>
      <trkpt lat="40.162193" lon="-3.740746">
        <ele>618.02</ele>
        <time>2021-03-24T17:19:09Z</time>
      </trkpt>
      <trkpt lat="40.162247" lon="-3.740808">
        <ele>616.75</ele>
        <time>2021-03-24T17:19:10Z</time>
      </trkpt>
      <trkpt lat="40.1623" lon="-3.740871">
        <ele>616.75</ele>
        <time>2021-03-24T17:19:11Z</time>
      </trkpt>
      <trkpt lat="40.162354" lon="-3.740935">
        <ele>616.75</ele>
        <time>2021-03-24T17:19:12Z</time>
      </trkpt>
      <trkpt lat="40.16241" lon="-3.7409995">
        <ele>616.75</ele>
        <time>2021-03-24T17:19:13Z</time>
      </trkpt>
      <trkpt lat="40.162464" lon="-3.7410653">
        <ele>616.75</ele>
        <time>2021-03-24T17:19:14Z</time>
      </trkpt>
      <trkpt lat="40.16252" lon="-3.7411323">
        <ele>616.75</ele>
        <time>2021-03-24T17:19:15Z</time>
      </trkpt>
      <trkpt lat="40.162575" lon="-3.741201">
        <ele>616.75</ele>
        <time>2021-03-24T17:19:16Z</time>
      </trkpt>
      <trkpt lat="40.162624" lon="-3.741266">
        <ele>616.75</ele>
        <time>2021-03-24T17:19:17Z</time>
      </trkpt>
      <trkpt lat="40.162674" lon="-3.741333">
        <ele>616.75</ele>
        <time>2021-03-24T17:19:18Z</time>
      </trkpt>
      <trkpt lat="40.162724" lon="-3.741402">
        <ele>615.57</ele>
        <time>2021-03-24T17:19:19Z</time>
      </trkpt>
      <trkpt lat="40.162773" lon="-3.7414718">
        <ele>615.57</ele>
        <time>2021-03-24T17:19:20Z</time>
      </trkpt>
      <trkpt lat="40.16282" lon="-3.741542">
        <ele>615.57</ele>
        <time>2021-03-24T17:19:21Z</time>
      </trkpt>
      <trkpt lat="40.162865" lon="-3.741613">
        <ele>615.57</ele>
        <time>2021-03-24T17:19:22Z</time>
      </trkpt>
      <trkpt lat="40.16291" lon="-3.7416837">
        <ele>615.57</ele>
        <time>2021-03-24T17:19:23Z</time>
      </trkpt>
      <trkpt lat="40.162952" lon="-3.7417526">
        <ele>615.57</ele>
        <time>2021-03-24T17:19:24Z</time>
      </trkpt>
      <trkpt lat="40.162994" lon="-3.7418206">
        <ele>615.57</ele>
        <time>2021-03-24T17:19:25Z</time>
      </trkpt>
      <trkpt lat="40.163036" lon="-3.741887">
        <ele>614.29</ele>
        <time>2021-03-24T17:19:26Z</time>
      </trkpt>
      <trkpt lat="40.16308" lon="-3.7419524">
        <ele>614.29</ele>
        <time>2021-03-24T17:19:27Z</time>
      </trkpt>
      <trkpt lat="40.163116" lon="-3.7420166">
        <ele>614.29</ele>
        <time>2021-03-24T17:19:28Z</time>
      </trkpt>
      <trkpt lat="40.163155" lon="-3.742079">
        <ele>614.29</ele>
        <time>2021-03-24T17:19:29Z</time>
      </trkpt>
      <trkpt lat="40.163197" lon="-3.742142">
        <ele>614.29</ele>
        <time>2021-03-24T17:19:30Z</time>
      </trkpt>
      <trkpt lat="40.16323" lon="-3.742198">
        <ele>614.29</ele>
        <time>2021-03-24T17:19:31Z</time>
      </trkpt>
      <trkpt lat="40.16326" lon="-3.7422535">
        <ele>614.29</ele>
        <time>2021-03-24T17:19:32Z</time>
      </trkpt>
      <trkpt lat="40.163292" lon="-3.74231">
        <ele>614.29</ele>
        <time>2021-03-24T17:19:33Z</time>
      </trkpt>
      <trkpt lat="40.163322" lon="-3.742363">
        <ele>614.29</ele>
        <time>2021-03-24T17:19:34Z</time>
      </trkpt>
      <trkpt lat="40.16335" lon="-3.7424107">
        <ele>613.11</ele>
        <time>2021-03-24T17:19:35Z</time>
      </trkpt>
      <trkpt lat="40.163437" lon="-3.7425425">
        <ele>613.11</ele>
        <time>2021-03-24T17:19:38Z</time>
      </trkpt>
      <trkpt lat="40.163498" lon="-3.7426307">
        <ele>613.11</ele>
        <time>2021-03-24T17:19:40Z</time>
      </trkpt>
      <trkpt lat="40.16356" lon="-3.7427166">
        <ele>613.11</ele>
        <time>2021-03-24T17:19:42Z</time>
      </trkpt>
      <trkpt lat="40.163616" lon="-3.7428007">
        <ele>613.11</ele>
        <time>2021-03-24T17:19:44Z</time>
      </trkpt>
      <trkpt lat="40.163673" lon="-3.7428854">
        <ele>613.11</ele>
        <time>2021-03-24T17:19:46Z</time>
      </trkpt>
      <trkpt lat="40.16373" lon="-3.7429686">
        <ele>613.11</ele>
        <time>2021-03-24T17:19:48Z</time>
      </trkpt>
      <trkpt lat="40.163795" lon="-3.7430477">
        <ele>613.11</ele>
        <time>2021-03-24T17:19:50Z</time>
      </trkpt>
      <trkpt lat="40.163857" lon="-3.7431355">
        <ele>613.11</ele>
        <time>2021-03-24T17:19:52Z</time>
      </trkpt>
      <trkpt lat="40.16389" lon="-3.7431836">
        <ele>613.11</ele>
        <time>2021-03-24T17:19:53Z</time>
      </trkpt>
      <trkpt lat="40.163963" lon="-3.7432857">
        <ele>611.93</ele>
        <time>2021-03-24T17:19:55Z</time>
      </trkpt>
      <trkpt lat="40.164" lon="-3.7433403">
        <ele>611.93</ele>
        <time>2021-03-24T17:19:56Z</time>
      </trkpt>
      <trkpt lat="40.16404" lon="-3.7433982">
        <ele>611.93</ele>
        <time>2021-03-24T17:19:57Z</time>
      </trkpt>
      <trkpt lat="40.164074" lon="-3.7434592">
        <ele>611.93</ele>
        <time>2021-03-24T17:19:58Z</time>
      </trkpt>
      <trkpt lat="40.164112" lon="-3.743524">
        <ele>611.93</ele>
        <time>2021-03-24T17:19:59Z</time>
      </trkpt>
      <trkpt lat="40.164146" lon="-3.743593">
        <ele>611.93</ele>
        <time>2021-03-24T17:20:00Z</time>
      </trkpt>
      <trkpt lat="40.164185" lon="-3.743664">
        <ele>610.75</ele>
        <time>2021-03-24T17:20:01Z</time>
      </trkpt>
      <trkpt lat="40.16422" lon="-3.743737">
        <ele>610.75</ele>
        <time>2021-03-24T17:20:02Z</time>
      </trkpt>
      <trkpt lat="40.164257" lon="-3.743811">
        <ele>610.75</ele>
        <time>2021-03-24T17:20:03Z</time>
      </trkpt>
      <trkpt lat="40.16429" lon="-3.7438874">
        <ele>610.75</ele>
        <time>2021-03-24T17:20:04Z</time>
      </trkpt>
      <trkpt lat="40.16433" lon="-3.743965">
        <ele>610.75</ele>
        <time>2021-03-24T17:20:05Z</time>
      </trkpt>
      <trkpt lat="40.164364" lon="-3.7440422">
        <ele>609.39</ele>
        <time>2021-03-24T17:20:06Z</time>
      </trkpt>
      <trkpt lat="40.1644" lon="-3.7441204">
        <ele>609.39</ele>
        <time>2021-03-24T17:20:07Z</time>
      </trkpt>
      <trkpt lat="40.164433" lon="-3.7441978">
        <ele>609.39</ele>
        <time>2021-03-24T17:20:08Z</time>
      </trkpt>
      <trkpt lat="40.16447" lon="-3.744275">
        <ele>609.39</ele>
        <time>2021-03-24T17:20:09Z</time>
      </trkpt>
      <trkpt lat="40.16451" lon="-3.7443523">
        <ele>609.39</ele>
        <time>2021-03-24T17:20:10Z</time>
      </trkpt>
      <trkpt lat="40.164543" lon="-3.7444303">
        <ele>609.39</ele>
        <time>2021-03-24T17:20:11Z</time>
      </trkpt>
      <trkpt lat="40.164577" lon="-3.7445092">
        <ele>608.11</ele>
        <time>2021-03-24T17:20:12Z</time>
      </trkpt>
      <trkpt lat="40.164616" lon="-3.744588">
        <ele>608.11</ele>
        <time>2021-03-24T17:20:13Z</time>
      </trkpt>
      <trkpt lat="40.164654" lon="-3.7446663">
        <ele>608.11</ele>
        <time>2021-03-24T17:20:14Z</time>
      </trkpt>
      <trkpt lat="40.164692" lon="-3.7447417">
        <ele>608.11</ele>
        <time>2021-03-24T17:20:15Z</time>
      </trkpt>
      <trkpt lat="40.164738" lon="-3.7448144">
        <ele>608.11</ele>
        <time>2021-03-24T17:20:16Z</time>
      </trkpt>
      <trkpt lat="40.164783" lon="-3.7448826">
        <ele>608.11</ele>
        <time>2021-03-24T17:20:17Z</time>
      </trkpt>
      <trkpt lat="40.164837" lon="-3.7449474">
        <ele>606.93</ele>
        <time>2021-03-24T17:20:18Z</time>
      </trkpt>
      <trkpt lat="40.164886" lon="-3.7450092">
        <ele>606.93</ele>
        <time>2021-03-24T17:20:19Z</time>
      </trkpt>
      <trkpt lat="40.16494" lon="-3.7450686">
        <ele>606.93</ele>
        <time>2021-03-24T17:20:20Z</time>
      </trkpt>
      <trkpt lat="40.164993" lon="-3.7451258">
        <ele>606.93</ele>
        <time>2021-03-24T17:20:21Z</time>
      </trkpt>
      <trkpt lat="40.16505" lon="-3.7451813">
        <ele>606.93</ele>
        <time>2021-03-24T17:20:22Z</time>
      </trkpt>
      <trkpt lat="40.165108" lon="-3.745235">
        <ele>606.93</ele>
        <time>2021-03-24T17:20:23Z</time>
      </trkpt>
      <trkpt lat="40.16517" lon="-3.7452836">
        <ele>606.93</ele>
        <time>2021-03-24T17:20:24Z</time>
      </trkpt>
      <trkpt lat="40.16523" lon="-3.745327">
        <ele>605.66</ele>
        <time>2021-03-24T17:20:25Z</time>
      </trkpt>
      <trkpt lat="40.165295" lon="-3.745365">
        <ele>605.66</ele>
        <time>2021-03-24T17:20:26Z</time>
      </trkpt>
      <trkpt lat="40.165363" lon="-3.7453954">
        <ele>605.66</ele>
        <time>2021-03-24T17:20:27Z</time>
      </trkpt>
      <trkpt lat="40.165432" lon="-3.7454224">
        <ele>605.66</ele>
        <time>2021-03-24T17:20:28Z</time>
      </trkpt>
      <trkpt lat="40.1655" lon="-3.745444">
        <ele>605.66</ele>
        <time>2021-03-24T17:20:29Z</time>
      </trkpt>
      <trkpt lat="40.165573" lon="-3.7454636">
        <ele>605.66</ele>
        <time>2021-03-24T17:20:30Z</time>
      </trkpt>
      <trkpt lat="40.165646" lon="-3.7454815">
        <ele>605.66</ele>
        <time>2021-03-24T17:20:31Z</time>
      </trkpt>
      <trkpt lat="40.165714" lon="-3.745498">
        <ele>604.48</ele>
        <time>2021-03-24T17:20:32Z</time>
      </trkpt>
      <trkpt lat="40.165787" lon="-3.745514">
        <ele>604.48</ele>
        <time>2021-03-24T17:20:33Z</time>
      </trkpt>
      <trkpt lat="40.165855" lon="-3.7455292">
        <ele>604.48</ele>
        <time>2021-03-24T17:20:34Z</time>
      </trkpt>
      <trkpt lat="40.165928" lon="-3.7455444">
        <ele>604.48</ele>
        <time>2021-03-24T17:20:35Z</time>
      </trkpt>
      <trkpt lat="40.165997" lon="-3.7455597">
        <ele>604.48</ele>
        <time>2021-03-24T17:20:36Z</time>
      </trkpt>
      <trkpt lat="40.16607" lon="-3.7455757">
        <ele>604.48</ele>
        <time>2021-03-24T17:20:37Z</time>
      </trkpt>
      <trkpt lat="40.166134" lon="-3.7455916">
        <ele>604.48</ele>
        <time>2021-03-24T17:20:38Z</time>
      </trkpt>
      <trkpt lat="40.166203" lon="-3.7456093">
        <ele>604.48</ele>
        <time>2021-03-24T17:20:39Z</time>
      </trkpt>
      <trkpt lat="40.16627" lon="-3.745628">
        <ele>604.48</ele>
        <time>2021-03-24T17:20:40Z</time>
      </trkpt>
      <trkpt lat="40.16634" lon="-3.7456493">
        <ele>604.48</ele>
        <time>2021-03-24T17:20:41Z</time>
      </trkpt>
      <trkpt lat="40.166405" lon="-3.7456722">
        <ele>604.48</ele>
        <time>2021-03-24T17:20:42Z</time>
      </trkpt>
      <trkpt lat="40.16647" lon="-3.7456973">
        <ele>604.48</ele>
        <time>2021-03-24T17:20:43Z</time>
      </trkpt>
      <trkpt lat="40.166534" lon="-3.7457228">
        <ele>604.48</ele>
        <time>2021-03-24T17:20:44Z</time>
      </trkpt>
      <trkpt lat="40.1666" lon="-3.7457488">
        <ele>604.48</ele>
        <time>2021-03-24T17:20:45Z</time>
      </trkpt>
      <trkpt lat="40.166664" lon="-3.745774">
        <ele>604.48</ele>
        <time>2021-03-24T17:20:46Z</time>
      </trkpt>
      <trkpt lat="40.166733" lon="-3.7457993">
        <ele>604.48</ele>
        <time>2021-03-24T17:20:47Z</time>
      </trkpt>
      <trkpt lat="40.166798" lon="-3.7458246">
        <ele>604.48</ele>
        <time>2021-03-24T17:20:48Z</time>
      </trkpt>
      <trkpt lat="40.166862" lon="-3.7458503">
        <ele>604.48</ele>
        <time>2021-03-24T17:20:49Z</time>
      </trkpt>
      <trkpt lat="40.166927" lon="-3.745875">
        <ele>604.48</ele>
        <time>2021-03-24T17:20:50Z</time>
      </trkpt>
      <trkpt lat="40.166992" lon="-3.7459013">
        <ele>604.48</ele>
        <time>2021-03-24T17:20:51Z</time>
      </trkpt>
      <trkpt lat="40.16705" lon="-3.74593">
        <ele>604.48</ele>
        <time>2021-03-24T17:20:52Z</time>
      </trkpt>
      <trkpt lat="40.16711" lon="-3.745959">
        <ele>604.48</ele>
        <time>2021-03-24T17:20:53Z</time>
      </trkpt>
      <trkpt lat="40.167164" lon="-3.7459874">
        <ele>604.48</ele>
        <time>2021-03-24T17:20:54Z</time>
      </trkpt>
      <trkpt lat="40.167217" lon="-3.7460148">
        <ele>604.48</ele>
        <time>2021-03-24T17:20:55Z</time>
      </trkpt>
      <trkpt lat="40.167267" lon="-3.7460403">
        <ele>604.48</ele>
        <time>2021-03-24T17:20:56Z</time>
      </trkpt>
      <trkpt lat="40.167316" lon="-3.7460663">
        <ele>604.48</ele>
        <time>2021-03-24T17:20:57Z</time>
      </trkpt>
      <trkpt lat="40.16737" lon="-3.7460907">
        <ele>604.48</ele>
        <time>2021-03-24T17:20:58Z</time>
      </trkpt>
      <trkpt lat="40.167416" lon="-3.746116">
        <ele>604.48</ele>
        <time>2021-03-24T17:20:59Z</time>
      </trkpt>
      <trkpt lat="40.167465" lon="-3.7461407">
        <ele>604.48</ele>
        <time>2021-03-24T17:21:00Z</time>
      </trkpt>
      <trkpt lat="40.167553" lon="-3.7461996">
        <ele>605.75</ele>
        <time>2021-03-24T17:21:02Z</time>
      </trkpt>
      <trkpt lat="40.1676" lon="-3.746235">
        <ele>605.75</ele>
        <time>2021-03-24T17:21:03Z</time>
      </trkpt>
      <trkpt lat="40.167683" lon="-3.7463048">
        <ele>605.75</ele>
        <time>2021-03-24T17:21:05Z</time>
      </trkpt>
      <trkpt lat="40.16775" lon="-3.7463613">
        <ele>605.75</ele>
        <time>2021-03-24T17:21:07Z</time>
      </trkpt>
      <trkpt lat="40.167816" lon="-3.746406">
        <ele>605.21</ele>
        <time>2021-03-24T17:21:09Z</time>
      </trkpt>
      <trkpt lat="40.167873" lon="-3.7464385">
        <ele>605.21</ele>
        <time>2021-03-24T17:21:11Z</time>
      </trkpt>
      <trkpt lat="40.16793" lon="-3.7464619">
        <ele>605.21</ele>
        <time>2021-03-24T17:21:13Z</time>
      </trkpt>
      <trkpt lat="40.167995" lon="-3.746481">
        <ele>605.21</ele>
        <time>2021-03-24T17:21:15Z</time>
      </trkpt>
      <trkpt lat="40.168076" lon="-3.746492">
        <ele>605.21</ele>
        <time>2021-03-24T17:21:17Z</time>
      </trkpt>
      <trkpt lat="40.168167" lon="-3.7464986">
        <ele>603.85</ele>
        <time>2021-03-24T17:21:19Z</time>
      </trkpt>
      <trkpt lat="40.16827" lon="-3.746505">
        <ele>603.85</ele>
        <time>2021-03-24T17:21:21Z</time>
      </trkpt>
      <trkpt lat="40.16838" lon="-3.7465167">
        <ele>603.85</ele>
        <time>2021-03-24T17:21:23Z</time>
      </trkpt>
      <trkpt lat="40.168434" lon="-3.746526">
        <ele>602.67</ele>
        <time>2021-03-24T17:21:24Z</time>
      </trkpt>
      <trkpt lat="40.16849" lon="-3.7465386">
        <ele>602.67</ele>
        <time>2021-03-24T17:21:25Z</time>
      </trkpt>
      <trkpt lat="40.168545" lon="-3.746552">
        <ele>602.67</ele>
        <time>2021-03-24T17:21:26Z</time>
      </trkpt>
      <trkpt lat="40.1686" lon="-3.746568">
        <ele>602.67</ele>
        <time>2021-03-24T17:21:27Z</time>
      </trkpt>
      <trkpt lat="40.16865" lon="-3.7465882">
        <ele>602.67</ele>
        <time>2021-03-24T17:21:28Z</time>
      </trkpt>
      <trkpt lat="40.1687" lon="-3.746611">
        <ele>602.67</ele>
        <time>2021-03-24T17:21:29Z</time>
      </trkpt>
      <trkpt lat="40.168747" lon="-3.7466393">
        <ele>602.67</ele>
        <time>2021-03-24T17:21:30Z</time>
      </trkpt>
      <trkpt lat="40.1688" lon="-3.7466743">
        <ele>602.67</ele>
        <time>2021-03-24T17:21:31Z</time>
      </trkpt>
      <trkpt lat="40.168846" lon="-3.74671">
        <ele>601.4</ele>
        <time>2021-03-24T17:21:32Z</time>
      </trkpt>
      <trkpt lat="40.168896" lon="-3.74675">
        <ele>601.4</ele>
        <time>2021-03-24T17:21:33Z</time>
      </trkpt>
      <trkpt lat="40.168945" lon="-3.746793">
        <ele>601.4</ele>
        <time>2021-03-24T17:21:34Z</time>
      </trkpt>
      <trkpt lat="40.169" lon="-3.7468412">
        <ele>601.4</ele>
        <time>2021-03-24T17:21:35Z</time>
      </trkpt>
      <trkpt lat="40.169044" lon="-3.746886">
        <ele>601.4</ele>
        <time>2021-03-24T17:21:36Z</time>
      </trkpt>
      <trkpt lat="40.169094" lon="-3.7469351">
        <ele>601.4</ele>
        <time>2021-03-24T17:21:37Z</time>
      </trkpt>
      <trkpt lat="40.16914" lon="-3.746979">
        <ele>601.4</ele>
        <time>2021-03-24T17:21:38Z</time>
      </trkpt>
      <trkpt lat="40.169186" lon="-3.7470236">
        <ele>601.4</ele>
        <time>2021-03-24T17:21:39Z</time>
      </trkpt>
      <trkpt lat="40.16923" lon="-3.747072">
        <ele>601.4</ele>
        <time>2021-03-24T17:21:40Z</time>
      </trkpt>
      <trkpt lat="40.169273" lon="-3.74712">
        <ele>601.4</ele>
        <time>2021-03-24T17:21:41Z</time>
      </trkpt>
      <trkpt lat="40.169315" lon="-3.7471633">
        <ele>601.4</ele>
        <time>2021-03-24T17:21:42Z</time>
      </trkpt>
      <trkpt lat="40.16939" lon="-3.7472467">
        <ele>601.4</ele>
        <time>2021-03-24T17:21:44Z</time>
      </trkpt>
      <trkpt lat="40.169464" lon="-3.7473266">
        <ele>601.4</ele>
        <time>2021-03-24T17:21:46Z</time>
      </trkpt>
      <trkpt lat="40.169544" lon="-3.7474017">
        <ele>601.4</ele>
        <time>2021-03-24T17:21:48Z</time>
      </trkpt>
      <trkpt lat="40.169586" lon="-3.7474332">
        <ele>601.4</ele>
        <time>2021-03-24T17:21:49Z</time>
      </trkpt>
      <trkpt lat="40.16967" lon="-3.747494">
        <ele>601.4</ele>
        <time>2021-03-24T17:21:51Z</time>
      </trkpt>
      <trkpt lat="40.169796" lon="-3.7475772">
        <ele>601.4</ele>
        <time>2021-03-24T17:21:54Z</time>
      </trkpt>
      <trkpt lat="40.169876" lon="-3.7476296">
        <ele>601.4</ele>
        <time>2021-03-24T17:21:56Z</time>
      </trkpt>
      <trkpt lat="40.169918" lon="-3.747656">
        <ele>601.4</ele>
        <time>2021-03-24T17:21:57Z</time>
      </trkpt>
      <trkpt lat="40.17" lon="-3.7477047">
        <ele>601.4</ele>
        <time>2021-03-24T17:21:59Z</time>
      </trkpt>
      <trkpt lat="40.17006" lon="-3.7477367">
        <ele>601.4</ele>
        <time>2021-03-24T17:22:01Z</time>
      </trkpt>
      <trkpt lat="40.170113" lon="-3.7477624">
        <ele>601.4</ele>
        <time>2021-03-24T17:22:03Z</time>
      </trkpt>
      <trkpt lat="40.170174" lon="-3.7477853">
        <ele>601.4</ele>
        <time>2021-03-24T17:22:05Z</time>
      </trkpt>
      <trkpt lat="40.170246" lon="-3.7478034">
        <ele>601.4</ele>
        <time>2021-03-24T17:22:07Z</time>
      </trkpt>
      <trkpt lat="40.170334" lon="-3.7478204">
        <ele>601.4</ele>
        <time>2021-03-24T17:22:09Z</time>
      </trkpt>
      <trkpt lat="40.17038" lon="-3.7478287">
        <ele>601.4</ele>
        <time>2021-03-24T17:22:10Z</time>
      </trkpt>
      <trkpt lat="40.170486" lon="-3.747848">
        <ele>601.4</ele>
        <time>2021-03-24T17:22:12Z</time>
      </trkpt>
      <trkpt lat="40.17054" lon="-3.7478623">
        <ele>601.4</ele>
        <time>2021-03-24T17:22:13Z</time>
      </trkpt>
      <trkpt lat="40.170593" lon="-3.747878">
        <ele>601.4</ele>
        <time>2021-03-24T17:22:14Z</time>
      </trkpt>
      <trkpt lat="40.17065" lon="-3.7479002">
        <ele>601.4</ele>
        <time>2021-03-24T17:22:15Z</time>
      </trkpt>
      <trkpt lat="40.170704" lon="-3.7479267">
        <ele>601.4</ele>
        <time>2021-03-24T17:22:16Z</time>
      </trkpt>
      <trkpt lat="40.17076" lon="-3.747954">
        <ele>601.4</ele>
        <time>2021-03-24T17:22:17Z</time>
      </trkpt>
      <trkpt lat="40.170815" lon="-3.747982">
        <ele>601.4</ele>
        <time>2021-03-24T17:22:18Z</time>
      </trkpt>
      <trkpt lat="40.170868" lon="-3.748014">
        <ele>601.4</ele>
        <time>2021-03-24T17:22:19Z</time>
      </trkpt>
      <trkpt lat="40.17092" lon="-3.7480452">
        <ele>601.4</ele>
        <time>2021-03-24T17:22:20Z</time>
      </trkpt>
      <trkpt lat="40.170975" lon="-3.7480774">
        <ele>601.4</ele>
        <time>2021-03-24T17:22:21Z</time>
      </trkpt>
      <trkpt lat="40.17103" lon="-3.748108">
        <ele>601.4</ele>
        <time>2021-03-24T17:22:22Z</time>
      </trkpt>
      <trkpt lat="40.171078" lon="-3.7481396">
        <ele>600.12</ele>
        <time>2021-03-24T17:22:23Z</time>
      </trkpt>
      <trkpt lat="40.17113" lon="-3.7481747">
        <ele>600.12</ele>
        <time>2021-03-24T17:22:24Z</time>
      </trkpt>
      <trkpt lat="40.171185" lon="-3.7482126">
        <ele>600.12</ele>
        <time>2021-03-24T17:22:25Z</time>
      </trkpt>
      <trkpt lat="40.17124" lon="-3.7482533">
        <ele>600.12</ele>
        <time>2021-03-24T17:22:26Z</time>
      </trkpt>
      <trkpt lat="40.1713" lon="-3.7482972">
        <ele>600.12</ele>
        <time>2021-03-24T17:22:27Z</time>
      </trkpt>
      <trkpt lat="40.171356" lon="-3.7483487">
        <ele>600.12</ele>
        <time>2021-03-24T17:22:28Z</time>
      </trkpt>
      <trkpt lat="40.171413" lon="-3.7484016">
        <ele>600.12</ele>
        <time>2021-03-24T17:22:29Z</time>
      </trkpt>
      <trkpt lat="40.171467" lon="-3.7484558">
        <ele>600.12</ele>
        <time>2021-03-24T17:22:30Z</time>
      </trkpt>
      <trkpt lat="40.17152" lon="-3.7485108">
        <ele>600.12</ele>
        <time>2021-03-24T17:22:31Z</time>
      </trkpt>
      <trkpt lat="40.171574" lon="-3.7485647">
        <ele>600.12</ele>
        <time>2021-03-24T17:22:32Z</time>
      </trkpt>
      <trkpt lat="40.171623" lon="-3.748616">
        <ele>600.12</ele>
        <time>2021-03-24T17:22:33Z</time>
      </trkpt>
      <trkpt lat="40.17168" lon="-3.7486646">
        <ele>600.12</ele>
        <time>2021-03-24T17:22:34Z</time>
      </trkpt>
      <trkpt lat="40.171734" lon="-3.7487106">
        <ele>600.12</ele>
        <time>2021-03-24T17:22:35Z</time>
      </trkpt>
      <trkpt lat="40.17179" lon="-3.7487535">
        <ele>600.12</ele>
        <time>2021-03-24T17:22:36Z</time>
      </trkpt>
      <trkpt lat="40.171852" lon="-3.7487957">
        <ele>600.12</ele>
        <time>2021-03-24T17:22:37Z</time>
      </trkpt>
      <trkpt lat="40.171913" lon="-3.7488368">
        <ele>600.12</ele>
        <time>2021-03-24T17:22:38Z</time>
      </trkpt>
      <trkpt lat="40.171967" lon="-3.7488747">
        <ele>600.12</ele>
        <time>2021-03-24T17:22:39Z</time>
      </trkpt>
      <trkpt lat="40.17202" lon="-3.7489123">
        <ele>600.12</ele>
        <time>2021-03-24T17:22:40Z</time>
      </trkpt>
      <trkpt lat="40.172073" lon="-3.7489505">
        <ele>600.12</ele>
        <time>2021-03-24T17:22:41Z</time>
      </trkpt>
      <trkpt lat="40.17213" lon="-3.7489917">
        <ele>600.12</ele>
        <time>2021-03-24T17:22:42Z</time>
      </trkpt>
      <trkpt lat="40.17218" lon="-3.7490327">
        <ele>600.12</ele>
        <time>2021-03-24T17:22:43Z</time>
      </trkpt>
      <trkpt lat="40.17223" lon="-3.7490704">
        <ele>600.12</ele>
        <time>2021-03-24T17:22:44Z</time>
      </trkpt>
      <trkpt lat="40.172276" lon="-3.7491097">
        <ele>600.12</ele>
        <time>2021-03-24T17:22:45Z</time>
      </trkpt>
      <trkpt lat="40.17232" lon="-3.7491524">
        <ele>600.12</ele>
        <time>2021-03-24T17:22:46Z</time>
      </trkpt>
      <trkpt lat="40.172367" lon="-3.749195">
        <ele>600.12</ele>
        <time>2021-03-24T17:22:47Z</time>
      </trkpt>
      <trkpt lat="40.17241" lon="-3.7492387">
        <ele>600.12</ele>
        <time>2021-03-24T17:22:48Z</time>
      </trkpt>
      <trkpt lat="40.172447" lon="-3.7492812">
        <ele>600.12</ele>
        <time>2021-03-24T17:22:49Z</time>
      </trkpt>
      <trkpt lat="40.172523" lon="-3.7493765">
        <ele>600.12</ele>
        <time>2021-03-24T17:22:51Z</time>
      </trkpt>
      <trkpt lat="40.17256" lon="-3.7494287">
        <ele>601.3</ele>
        <time>2021-03-24T17:22:52Z</time>
      </trkpt>
      <trkpt lat="40.1726" lon="-3.749483">
        <ele>601.3</ele>
        <time>2021-03-24T17:22:53Z</time>
      </trkpt>
      <trkpt lat="40.172634" lon="-3.7495396">
        <ele>601.3</ele>
        <time>2021-03-24T17:22:54Z</time>
      </trkpt>
      <trkpt lat="40.17267" lon="-3.7495966">
        <ele>601.3</ele>
        <time>2021-03-24T17:22:55Z</time>
      </trkpt>
      <trkpt lat="40.172707" lon="-3.7496533">
        <ele>601.3</ele>
        <time>2021-03-24T17:22:56Z</time>
      </trkpt>
      <trkpt lat="40.17274" lon="-3.74971">
        <ele>601.3</ele>
        <time>2021-03-24T17:22:57Z</time>
      </trkpt>
      <trkpt lat="40.17278" lon="-3.7497673">
        <ele>601.3</ele>
        <time>2021-03-24T17:22:58Z</time>
      </trkpt>
      <trkpt lat="40.172813" lon="-3.749825">
        <ele>601.3</ele>
        <time>2021-03-24T17:22:59Z</time>
      </trkpt>
      <trkpt lat="40.17285" lon="-3.7498834">
        <ele>601.3</ele>
        <time>2021-03-24T17:23:00Z</time>
      </trkpt>
      <trkpt lat="40.172886" lon="-3.749943">
        <ele>601.3</ele>
        <time>2021-03-24T17:23:01Z</time>
      </trkpt>
      <trkpt lat="40.17292" lon="-3.7500026">
        <ele>601.3</ele>
        <time>2021-03-24T17:23:02Z</time>
      </trkpt>
      <trkpt lat="40.172955" lon="-3.7500672">
        <ele>601.3</ele>
        <time>2021-03-24T17:23:03Z</time>
      </trkpt>
      <trkpt lat="40.17299" lon="-3.7501268">
        <ele>601.3</ele>
        <time>2021-03-24T17:23:04Z</time>
      </trkpt>
      <trkpt lat="40.173023" lon="-3.7501917">
        <ele>601.3</ele>
        <time>2021-03-24T17:23:05Z</time>
      </trkpt>
      <trkpt lat="40.17306" lon="-3.750256">
        <ele>601.3</ele>
        <time>2021-03-24T17:23:06Z</time>
      </trkpt>
      <trkpt lat="40.1731" lon="-3.75032">
        <ele>601.3</ele>
        <time>2021-03-24T17:23:07Z</time>
      </trkpt>
      <trkpt lat="40.173134" lon="-3.7503808">
        <ele>601.3</ele>
        <time>2021-03-24T17:23:08Z</time>
      </trkpt>
      <trkpt lat="40.17317" lon="-3.750444">
        <ele>600.01</ele>
        <time>2021-03-24T17:23:09Z</time>
      </trkpt>
      <trkpt lat="40.173203" lon="-3.750515">
        <ele>600.01</ele>
        <time>2021-03-24T17:23:10Z</time>
      </trkpt>
      <trkpt lat="40.173237" lon="-3.7505853">
        <ele>600.01</ele>
        <time>2021-03-24T17:23:11Z</time>
      </trkpt>
      <trkpt lat="40.173267" lon="-3.750648">
        <ele>600.01</ele>
        <time>2021-03-24T17:23:12Z</time>
      </trkpt>
      <trkpt lat="40.173298" lon="-3.7507098">
        <ele>600.01</ele>
        <time>2021-03-24T17:23:13Z</time>
      </trkpt>
      <trkpt lat="40.173332" lon="-3.7507684">
        <ele>600.01</ele>
        <time>2021-03-24T17:23:14Z</time>
      </trkpt>
      <trkpt lat="40.173367" lon="-3.7508266">
        <ele>600.01</ele>
        <time>2021-03-24T17:23:15Z</time>
      </trkpt>
      <trkpt lat="40.173397" lon="-3.7508812">
        <ele>600.01</ele>
        <time>2021-03-24T17:23:16Z</time>
      </trkpt>
      <trkpt lat="40.173428" lon="-3.7509308">
        <ele>600.01</ele>
        <time>2021-03-24T17:23:17Z</time>
      </trkpt>
      <trkpt lat="40.17349" lon="-3.751035">
        <ele>600.01</ele>
        <time>2021-03-24T17:23:19Z</time>
      </trkpt>
      <trkpt lat="40.17352" lon="-3.7510855">
        <ele>601.46</ele>
        <time>2021-03-24T17:23:20Z</time>
      </trkpt>
      <trkpt lat="40.173573" lon="-3.75118">
        <ele>601.46</ele>
        <time>2021-03-24T17:23:22Z</time>
      </trkpt>
      <trkpt lat="40.173622" lon="-3.7512867">
        <ele>601.46</ele>
        <time>2021-03-24T17:23:24Z</time>
      </trkpt>
      <trkpt lat="40.17365" lon="-3.751337">
        <ele>602.73</ele>
        <time>2021-03-24T17:23:25Z</time>
      </trkpt>
      <trkpt lat="40.1737" lon="-3.7514417">
        <ele>602.73</ele>
        <time>2021-03-24T17:23:27Z</time>
      </trkpt>
      <trkpt lat="40.173748" lon="-3.7515514">
        <ele>602.73</ele>
        <time>2021-03-24T17:23:29Z</time>
      </trkpt>
      <trkpt lat="40.173794" lon="-3.7516575">
        <ele>604.01</ele>
        <time>2021-03-24T17:23:31Z</time>
      </trkpt>
      <trkpt lat="40.173817" lon="-3.7517114">
        <ele>604.01</ele>
        <time>2021-03-24T17:23:32Z</time>
      </trkpt>
      <trkpt lat="40.173866" lon="-3.7518227">
        <ele>604.01</ele>
        <time>2021-03-24T17:23:34Z</time>
      </trkpt>
      <trkpt lat="40.17391" lon="-3.7519178">
        <ele>605.19</ele>
        <time>2021-03-24T17:23:36Z</time>
      </trkpt>
      <trkpt lat="40.173946" lon="-3.7520163">
        <ele>605.19</ele>
        <time>2021-03-24T17:23:38Z</time>
      </trkpt>
      <trkpt lat="40.17398" lon="-3.7521095">
        <ele>605.19</ele>
        <time>2021-03-24T17:23:40Z</time>
      </trkpt>
      <trkpt lat="40.174015" lon="-3.7522004">
        <ele>605.19</ele>
        <time>2021-03-24T17:23:42Z</time>
      </trkpt>
      <trkpt lat="40.17405" lon="-3.752291">
        <ele>605.19</ele>
        <time>2021-03-24T17:23:44Z</time>
      </trkpt>
      <trkpt lat="40.174084" lon="-3.7523873">
        <ele>605.19</ele>
        <time>2021-03-24T17:23:46Z</time>
      </trkpt>
      <trkpt lat="40.17412" lon="-3.7524924">
        <ele>605.19</ele>
        <time>2021-03-24T17:23:48Z</time>
      </trkpt>
      <trkpt lat="40.174164" lon="-3.7526057">
        <ele>605.19</ele>
        <time>2021-03-24T17:23:50Z</time>
      </trkpt>
      <trkpt lat="40.17421" lon="-3.7527223">
        <ele>605.19</ele>
        <time>2021-03-24T17:23:52Z</time>
      </trkpt>
      <trkpt lat="40.174232" lon="-3.752786">
        <ele>605.19</ele>
        <time>2021-03-24T17:23:53Z</time>
      </trkpt>
      <trkpt lat="40.174255" lon="-3.7528524">
        <ele>605.19</ele>
        <time>2021-03-24T17:23:54Z</time>
      </trkpt>
      <trkpt lat="40.174282" lon="-3.7529209">
        <ele>605.19</ele>
        <time>2021-03-24T17:23:55Z</time>
      </trkpt>
      <trkpt lat="40.17431" lon="-3.7529964">
        <ele>604.01</ele>
        <time>2021-03-24T17:23:56Z</time>
      </trkpt>
      <trkpt lat="40.174343" lon="-3.753073">
        <ele>604.01</ele>
        <time>2021-03-24T17:23:57Z</time>
      </trkpt>
      <trkpt lat="40.17437" lon="-3.7531466">
        <ele>604.01</ele>
        <time>2021-03-24T17:23:58Z</time>
      </trkpt>
      <trkpt lat="40.174404" lon="-3.753228">
        <ele>604.01</ele>
        <time>2021-03-24T17:23:59Z</time>
      </trkpt>
      <trkpt lat="40.17444" lon="-3.7533057">
        <ele>602.64</ele>
        <time>2021-03-24T17:24:00Z</time>
      </trkpt>
      <trkpt lat="40.174477" lon="-3.753387">
        <ele>602.64</ele>
        <time>2021-03-24T17:24:01Z</time>
      </trkpt>
      <trkpt lat="40.174515" lon="-3.7534707">
        <ele>602.64</ele>
        <time>2021-03-24T17:24:02Z</time>
      </trkpt>
      <trkpt lat="40.174557" lon="-3.7535572">
        <ele>601.19</ele>
        <time>2021-03-24T17:24:03Z</time>
      </trkpt>
      <trkpt lat="40.1746" lon="-3.7536428">
        <ele>601.19</ele>
        <time>2021-03-24T17:24:04Z</time>
      </trkpt>
      <trkpt lat="40.17465" lon="-3.7537353">
        <ele>600.01</ele>
        <time>2021-03-24T17:24:05Z</time>
      </trkpt>
      <trkpt lat="40.174694" lon="-3.753821">
        <ele>600.01</ele>
        <time>2021-03-24T17:24:06Z</time>
      </trkpt>
      <trkpt lat="40.1748" lon="-3.7540026">
        <ele>598.82</ele>
        <time>2021-03-24T17:24:08Z</time>
      </trkpt>
      <trkpt lat="40.17485" lon="-3.7540905">
        <ele>598.82</ele>
        <time>2021-03-24T17:24:09Z</time>
      </trkpt>
      <trkpt lat="40.174908" lon="-3.7541823">
        <ele>597.1</ele>
        <time>2021-03-24T17:24:10Z</time>
      </trkpt>
      <trkpt lat="40.17496" lon="-3.7542772">
        <ele>597.1</ele>
        <time>2021-03-24T17:24:11Z</time>
      </trkpt>
      <trkpt lat="40.175014" lon="-3.7543747">
        <ele>595.73</ele>
        <time>2021-03-24T17:24:12Z</time>
      </trkpt>
      <trkpt lat="40.17513" lon="-3.7545817">
        <ele>594.55</ele>
        <time>2021-03-24T17:24:14Z</time>
      </trkpt>
      <trkpt lat="40.175186" lon="-3.7546844">
        <ele>594.55</ele>
        <time>2021-03-24T17:24:15Z</time>
      </trkpt>
      <trkpt lat="40.175243" lon="-3.754788">
        <ele>593.28</ele>
        <time>2021-03-24T17:24:16Z</time>
      </trkpt>
      <trkpt lat="40.175358" lon="-3.754994">
        <ele>593.28</ele>
        <time>2021-03-24T17:24:18Z</time>
      </trkpt>
      <trkpt lat="40.175415" lon="-3.755096">
        <ele>591.91</ele>
        <time>2021-03-24T17:24:19Z</time>
      </trkpt>
      <trkpt lat="40.175472" lon="-3.7551956">
        <ele>591.91</ele>
        <time>2021-03-24T17:24:20Z</time>
      </trkpt>
      <trkpt lat="40.175533" lon="-3.755291">
        <ele>591.91</ele>
        <time>2021-03-24T17:24:21Z</time>
      </trkpt>
      <trkpt lat="40.1756" lon="-3.7553804">
        <ele>590.73</ele>
        <time>2021-03-24T17:24:22Z</time>
      </trkpt>
      <trkpt lat="40.175667" lon="-3.755464">
        <ele>590.73</ele>
        <time>2021-03-24T17:24:23Z</time>
      </trkpt>
      <trkpt lat="40.17574" lon="-3.755544">
        <ele>590.73</ele>
        <time>2021-03-24T17:24:24Z</time>
      </trkpt>
      <trkpt lat="40.175808" lon="-3.7556133">
        <ele>590.73</ele>
        <time>2021-03-24T17:24:25Z</time>
      </trkpt>
      <trkpt lat="40.17588" lon="-3.7556784">
        <ele>589.46</ele>
        <time>2021-03-24T17:24:26Z</time>
      </trkpt>
      <trkpt lat="40.175957" lon="-3.7557423">
        <ele>589.46</ele>
        <time>2021-03-24T17:24:27Z</time>
      </trkpt>
      <trkpt lat="40.176033" lon="-3.755803">
        <ele>589.46</ele>
        <time>2021-03-24T17:24:28Z</time>
      </trkpt>
      <trkpt lat="40.176105" lon="-3.755857">
        <ele>589.46</ele>
        <time>2021-03-24T17:24:29Z</time>
      </trkpt>
      <trkpt lat="40.176178" lon="-3.755911">
        <ele>589.46</ele>
        <time>2021-03-24T17:24:30Z</time>
      </trkpt>
      <trkpt lat="40.17625" lon="-3.7559648">
        <ele>589.46</ele>
        <time>2021-03-24T17:24:31Z</time>
      </trkpt>
      <trkpt lat="40.17632" lon="-3.756019">
        <ele>589.46</ele>
        <time>2021-03-24T17:24:32Z</time>
      </trkpt>
      <trkpt lat="40.176395" lon="-3.756077">
        <ele>589.46</ele>
        <time>2021-03-24T17:24:33Z</time>
      </trkpt>
      <trkpt lat="40.176464" lon="-3.7561314">
        <ele>588.28</ele>
        <time>2021-03-24T17:24:34Z</time>
      </trkpt>
      <trkpt lat="40.176533" lon="-3.756187">
        <ele>588.28</ele>
        <time>2021-03-24T17:24:35Z</time>
      </trkpt>
      <trkpt lat="40.176605" lon="-3.7562459">
        <ele>588.28</ele>
        <time>2021-03-24T17:24:36Z</time>
      </trkpt>
      <trkpt lat="40.17668" lon="-3.7563033">
        <ele>588.28</ele>
        <time>2021-03-24T17:24:37Z</time>
      </trkpt>
      <trkpt lat="40.176746" lon="-3.7563562">
        <ele>588.28</ele>
        <time>2021-03-24T17:24:38Z</time>
      </trkpt>
      <trkpt lat="40.176815" lon="-3.7564092">
        <ele>588.28</ele>
        <time>2021-03-24T17:24:39Z</time>
      </trkpt>
      <trkpt lat="40.176884" lon="-3.7564638">
        <ele>588.28</ele>
        <time>2021-03-24T17:24:40Z</time>
      </trkpt>
      <trkpt lat="40.176956" lon="-3.7565227">
        <ele>588.28</ele>
        <time>2021-03-24T17:24:41Z</time>
      </trkpt>
      <trkpt lat="40.177025" lon="-3.75658">
        <ele>588.28</ele>
        <time>2021-03-24T17:24:42Z</time>
      </trkpt>
      <trkpt lat="40.17709" lon="-3.756634">
        <ele>588.28</ele>
        <time>2021-03-24T17:24:43Z</time>
      </trkpt>
      <trkpt lat="40.17715" lon="-3.7566967">
        <ele>588.28</ele>
        <time>2021-03-24T17:24:44Z</time>
      </trkpt>
      <trkpt lat="40.177208" lon="-3.756764">
        <ele>588.28</ele>
        <time>2021-03-24T17:24:45Z</time>
      </trkpt>
      <trkpt lat="40.177258" lon="-3.756831">
        <ele>588.28</ele>
        <time>2021-03-24T17:24:46Z</time>
      </trkpt>
      <trkpt lat="40.177303" lon="-3.7569034">
        <ele>588.28</ele>
        <time>2021-03-24T17:24:47Z</time>
      </trkpt>
      <trkpt lat="40.177345" lon="-3.75698">
        <ele>588.28</ele>
        <time>2021-03-24T17:24:48Z</time>
      </trkpt>
      <trkpt lat="40.177383" lon="-3.75706">
        <ele>588.28</ele>
        <time>2021-03-24T17:24:49Z</time>
      </trkpt>
      <trkpt lat="40.17742" lon="-3.7571492">
        <ele>588.28</ele>
        <time>2021-03-24T17:24:50Z</time>
      </trkpt>
      <trkpt lat="40.177452" lon="-3.757232">
        <ele>588.28</ele>
        <time>2021-03-24T17:24:51Z</time>
      </trkpt>
      <trkpt lat="40.177486" lon="-3.7573156">
        <ele>588.28</ele>
        <time>2021-03-24T17:24:52Z</time>
      </trkpt>
      <trkpt lat="40.177517" lon="-3.7574003">
        <ele>588.28</ele>
        <time>2021-03-24T17:24:53Z</time>
      </trkpt>
      <trkpt lat="40.177544" lon="-3.757486">
        <ele>588.28</ele>
        <time>2021-03-24T17:24:54Z</time>
      </trkpt>
      <trkpt lat="40.17757" lon="-3.7575712">
        <ele>588.28</ele>
        <time>2021-03-24T17:24:55Z</time>
      </trkpt>
      <trkpt lat="40.177597" lon="-3.7576573">
        <ele>588.28</ele>
        <time>2021-03-24T17:24:56Z</time>
      </trkpt>
      <trkpt lat="40.17762" lon="-3.7577426">
        <ele>588.28</ele>
        <time>2021-03-24T17:24:57Z</time>
      </trkpt>
      <trkpt lat="40.177643" lon="-3.7578287">
        <ele>588.28</ele>
        <time>2021-03-24T17:24:58Z</time>
      </trkpt>
      <trkpt lat="40.17766" lon="-3.7579148">
        <ele>588.28</ele>
        <time>2021-03-24T17:24:59Z</time>
      </trkpt>
      <trkpt lat="40.17768" lon="-3.7580013">
        <ele>588.28</ele>
        <time>2021-03-24T17:25:00Z</time>
      </trkpt>
      <trkpt lat="40.1777" lon="-3.7580867">
        <ele>588.28</ele>
        <time>2021-03-24T17:25:01Z</time>
      </trkpt>
      <trkpt lat="40.177715" lon="-3.7581732">
        <ele>588.28</ele>
        <time>2021-03-24T17:25:02Z</time>
      </trkpt>
      <trkpt lat="40.17773" lon="-3.7582586">
        <ele>588.28</ele>
        <time>2021-03-24T17:25:03Z</time>
      </trkpt>
      <trkpt lat="40.177746" lon="-3.7583516">
        <ele>588.28</ele>
        <time>2021-03-24T17:25:04Z</time>
      </trkpt>
      <trkpt lat="40.17776" lon="-3.758437">
        <ele>588.28</ele>
        <time>2021-03-24T17:25:05Z</time>
      </trkpt>
      <trkpt lat="40.177773" lon="-3.758523">
        <ele>588.28</ele>
        <time>2021-03-24T17:25:06Z</time>
      </trkpt>
      <trkpt lat="40.177788" lon="-3.7586093">
        <ele>588.28</ele>
        <time>2021-03-24T17:25:07Z</time>
      </trkpt>
      <trkpt lat="40.177803" lon="-3.758697">
        <ele>588.28</ele>
        <time>2021-03-24T17:25:08Z</time>
      </trkpt>
      <trkpt lat="40.17782" lon="-3.7587898">
        <ele>588.28</ele>
        <time>2021-03-24T17:25:09Z</time>
      </trkpt>
      <trkpt lat="40.177834" lon="-3.7588806">
        <ele>588.28</ele>
        <time>2021-03-24T17:25:10Z</time>
      </trkpt>
      <trkpt lat="40.177853" lon="-3.758964">
        <ele>588.28</ele>
        <time>2021-03-24T17:25:11Z</time>
      </trkpt>
      <trkpt lat="40.177868" lon="-3.7590482">
        <ele>588.28</ele>
        <time>2021-03-24T17:25:12Z</time>
      </trkpt>
      <trkpt lat="40.177887" lon="-3.7591314">
        <ele>588.28</ele>
        <time>2021-03-24T17:25:13Z</time>
      </trkpt>
      <trkpt lat="40.177906" lon="-3.7592194">
        <ele>588.28</ele>
        <time>2021-03-24T17:25:14Z</time>
      </trkpt>
      <trkpt lat="40.177925" lon="-3.759305">
        <ele>588.28</ele>
        <time>2021-03-24T17:25:15Z</time>
      </trkpt>
      <trkpt lat="40.177948" lon="-3.759383">
        <ele>588.28</ele>
        <time>2021-03-24T17:25:16Z</time>
      </trkpt>
      <trkpt lat="40.17797" lon="-3.7594657">
        <ele>588.28</ele>
        <time>2021-03-24T17:25:17Z</time>
      </trkpt>
      <trkpt lat="40.177994" lon="-3.7595446">
        <ele>588.28</ele>
        <time>2021-03-24T17:25:18Z</time>
      </trkpt>
      <trkpt lat="40.17802" lon="-3.7596219">
        <ele>588.28</ele>
        <time>2021-03-24T17:25:19Z</time>
      </trkpt>
      <trkpt lat="40.178047" lon="-3.7596977">
        <ele>588.28</ele>
        <time>2021-03-24T17:25:20Z</time>
      </trkpt>
      <trkpt lat="40.17807" lon="-3.759772">
        <ele>588.28</ele>
        <time>2021-03-24T17:25:21Z</time>
      </trkpt>
      <trkpt lat="40.178097" lon="-3.7598464">
        <ele>588.28</ele>
        <time>2021-03-24T17:25:22Z</time>
      </trkpt>
      <trkpt lat="40.17812" lon="-3.7599196">
        <ele>588.28</ele>
        <time>2021-03-24T17:25:23Z</time>
      </trkpt>
      <trkpt lat="40.178146" lon="-3.7599907">
        <ele>588.28</ele>
        <time>2021-03-24T17:25:24Z</time>
      </trkpt>
      <trkpt lat="40.178173" lon="-3.760061">
        <ele>588.28</ele>
        <time>2021-03-24T17:25:25Z</time>
      </trkpt>
      <trkpt lat="40.1782" lon="-3.76013">
        <ele>588.28</ele>
        <time>2021-03-24T17:25:26Z</time>
      </trkpt>
      <trkpt lat="40.178226" lon="-3.7601979">
        <ele>588.28</ele>
        <time>2021-03-24T17:25:27Z</time>
      </trkpt>
      <trkpt lat="40.178253" lon="-3.760264">
        <ele>588.28</ele>
        <time>2021-03-24T17:25:28Z</time>
      </trkpt>
      <trkpt lat="40.178276" lon="-3.7603247">
        <ele>588.28</ele>
        <time>2021-03-24T17:25:29Z</time>
      </trkpt>
      <trkpt lat="40.178303" lon="-3.7603917">
        <ele>588.28</ele>
        <time>2021-03-24T17:25:30Z</time>
      </trkpt>
      <trkpt lat="40.17833" lon="-3.7604566">
        <ele>588.28</ele>
        <time>2021-03-24T17:25:31Z</time>
      </trkpt>
      <trkpt lat="40.178356" lon="-3.7605207">
        <ele>588.28</ele>
        <time>2021-03-24T17:25:32Z</time>
      </trkpt>
      <trkpt lat="40.178383" lon="-3.7605836">
        <ele>588.28</ele>
        <time>2021-03-24T17:25:33Z</time>
      </trkpt>
      <trkpt lat="40.17841" lon="-3.7606428">
        <ele>588.28</ele>
        <time>2021-03-24T17:25:34Z</time>
      </trkpt>
      <trkpt lat="40.178436" lon="-3.760708">
        <ele>588.28</ele>
        <time>2021-03-24T17:25:35Z</time>
      </trkpt>
      <trkpt lat="40.178463" lon="-3.7607694">
        <ele>588.28</ele>
        <time>2021-03-24T17:25:36Z</time>
      </trkpt>
      <trkpt lat="40.178486" lon="-3.7608323">
        <ele>588.28</ele>
        <time>2021-03-24T17:25:37Z</time>
      </trkpt>
      <trkpt lat="40.178513" lon="-3.760897">
        <ele>588.28</ele>
        <time>2021-03-24T17:25:38Z</time>
      </trkpt>
      <trkpt lat="40.17854" lon="-3.7609673">
        <ele>588.28</ele>
        <time>2021-03-24T17:25:39Z</time>
      </trkpt>
      <trkpt lat="40.178566" lon="-3.7610388">
        <ele>588.28</ele>
        <time>2021-03-24T17:25:40Z</time>
      </trkpt>
      <trkpt lat="40.17859" lon="-3.7611108">
        <ele>588.28</ele>
        <time>2021-03-24T17:25:41Z</time>
      </trkpt>
      <trkpt lat="40.178608" lon="-3.761179">
        <ele>588.28</ele>
        <time>2021-03-24T17:25:42Z</time>
      </trkpt>
      <trkpt lat="40.178627" lon="-3.761249">
        <ele>588.28</ele>
        <time>2021-03-24T17:25:43Z</time>
      </trkpt>
      <trkpt lat="40.17865" lon="-3.761321">
        <ele>588.28</ele>
        <time>2021-03-24T17:25:44Z</time>
      </trkpt>
      <trkpt lat="40.17867" lon="-3.761398">
        <ele>588.28</ele>
        <time>2021-03-24T17:25:45Z</time>
      </trkpt>
      <trkpt lat="40.178684" lon="-3.7614746">
        <ele>588.28</ele>
        <time>2021-03-24T17:25:46Z</time>
      </trkpt>
      <trkpt lat="40.1787" lon="-3.7615457">
        <ele>589.46</ele>
        <time>2021-03-24T17:25:47Z</time>
      </trkpt>
      <trkpt lat="40.17871" lon="-3.761617">
        <ele>589.46</ele>
        <time>2021-03-24T17:25:48Z</time>
      </trkpt>
      <trkpt lat="40.178722" lon="-3.761693">
        <ele>589.46</ele>
        <time>2021-03-24T17:25:49Z</time>
      </trkpt>
      <trkpt lat="40.178734" lon="-3.7617683">
        <ele>589.46</ele>
        <time>2021-03-24T17:25:50Z</time>
      </trkpt>
      <trkpt lat="40.17875" lon="-3.7618413">
        <ele>589.46</ele>
        <time>2021-03-24T17:25:51Z</time>
      </trkpt>
      <trkpt lat="40.17876" lon="-3.761913">
        <ele>589.46</ele>
        <time>2021-03-24T17:25:52Z</time>
      </trkpt>
      <trkpt lat="40.178772" lon="-3.7619836">
        <ele>589.46</ele>
        <time>2021-03-24T17:25:53Z</time>
      </trkpt>
      <trkpt lat="40.178787" lon="-3.7620544">
        <ele>589.46</ele>
        <time>2021-03-24T17:25:54Z</time>
      </trkpt>
      <trkpt lat="40.178802" lon="-3.762125">
        <ele>589.46</ele>
        <time>2021-03-24T17:25:55Z</time>
      </trkpt>
      <trkpt lat="40.178814" lon="-3.7621918">
        <ele>589.46</ele>
        <time>2021-03-24T17:25:56Z</time>
      </trkpt>
      <trkpt lat="40.17883" lon="-3.7622597">
        <ele>589.46</ele>
        <time>2021-03-24T17:25:57Z</time>
      </trkpt>
      <trkpt lat="40.17884" lon="-3.7623339">
        <ele>589.46</ele>
        <time>2021-03-24T17:25:58Z</time>
      </trkpt>
      <trkpt lat="40.178852" lon="-3.7624073">
        <ele>589.46</ele>
        <time>2021-03-24T17:25:59Z</time>
      </trkpt>
      <trkpt lat="40.178867" lon="-3.7624803">
        <ele>589.46</ele>
        <time>2021-03-24T17:26:00Z</time>
      </trkpt>
      <trkpt lat="40.178883" lon="-3.7625523">
        <ele>589.46</ele>
        <time>2021-03-24T17:26:01Z</time>
      </trkpt>
      <trkpt lat="40.178898" lon="-3.762624">
        <ele>589.46</ele>
        <time>2021-03-24T17:26:02Z</time>
      </trkpt>
      <trkpt lat="40.178913" lon="-3.7626953">
        <ele>589.46</ele>
        <time>2021-03-24T17:26:03Z</time>
      </trkpt>
      <trkpt lat="40.17893" lon="-3.7627668">
        <ele>589.46</ele>
        <time>2021-03-24T17:26:04Z</time>
      </trkpt>
      <trkpt lat="40.17894" lon="-3.7628376">
        <ele>589.46</ele>
        <time>2021-03-24T17:26:05Z</time>
      </trkpt>
      <trkpt lat="40.178955" lon="-3.7629035">
        <ele>589.46</ele>
        <time>2021-03-24T17:26:06Z</time>
      </trkpt>
      <trkpt lat="40.178967" lon="-3.7629745">
        <ele>589.46</ele>
        <time>2021-03-24T17:26:07Z</time>
      </trkpt>
      <trkpt lat="40.17898" lon="-3.763045">
        <ele>589.46</ele>
        <time>2021-03-24T17:26:08Z</time>
      </trkpt>
      <trkpt lat="40.178997" lon="-3.763115">
        <ele>590.4</ele>
        <time>2021-03-24T17:26:09Z</time>
      </trkpt>
      <trkpt lat="40.17901" lon="-3.7631836">
        <ele>590.4</ele>
        <time>2021-03-24T17:26:10Z</time>
      </trkpt>
      <trkpt lat="40.179028" lon="-3.7632513">
        <ele>590.4</ele>
        <time>2021-03-24T17:26:11Z</time>
      </trkpt>
      <trkpt lat="40.179043" lon="-3.7633173">
        <ele>590.4</ele>
        <time>2021-03-24T17:26:12Z</time>
      </trkpt>
      <trkpt lat="40.17906" lon="-3.7633824">
        <ele>590.4</ele>
        <time>2021-03-24T17:26:13Z</time>
      </trkpt>
      <trkpt lat="40.179077" lon="-3.7634404">
        <ele>590.4</ele>
        <time>2021-03-24T17:26:14Z</time>
      </trkpt>
      <trkpt lat="40.17912" lon="-3.76356">
        <ele>590.4</ele>
        <time>2021-03-24T17:26:16Z</time>
      </trkpt>
      <trkpt lat="40.17914" lon="-3.7636154">
        <ele>590.4</ele>
        <time>2021-03-24T17:26:17Z</time>
      </trkpt>
      <trkpt lat="40.179184" lon="-3.763726">
        <ele>590.4</ele>
        <time>2021-03-24T17:26:19Z</time>
      </trkpt>
      <trkpt lat="40.179207" lon="-3.7637858">
        <ele>590.4</ele>
        <time>2021-03-24T17:26:20Z</time>
      </trkpt>
      <trkpt lat="40.17926" lon="-3.763904">
        <ele>590.4</ele>
        <time>2021-03-24T17:26:22Z</time>
      </trkpt>
      <trkpt lat="40.179287" lon="-3.763958">
        <ele>590.4</ele>
        <time>2021-03-24T17:26:23Z</time>
      </trkpt>
      <trkpt lat="40.17934" lon="-3.764072">
        <ele>590.4</ele>
        <time>2021-03-24T17:26:25Z</time>
      </trkpt>
      <trkpt lat="40.179367" lon="-3.7641287">
        <ele>590.4</ele>
        <time>2021-03-24T17:26:26Z</time>
      </trkpt>
      <trkpt lat="40.179417" lon="-3.764245">
        <ele>590.4</ele>
        <time>2021-03-24T17:26:28Z</time>
      </trkpt>
      <trkpt lat="40.17944" lon="-3.7643046">
        <ele>590.4</ele>
        <time>2021-03-24T17:26:29Z</time>
      </trkpt>
      <trkpt lat="40.17948" lon="-3.764426">
        <ele>590.4</ele>
        <time>2021-03-24T17:26:31Z</time>
      </trkpt>
      <trkpt lat="40.179504" lon="-3.764489">
        <ele>590.4</ele>
        <time>2021-03-24T17:26:32Z</time>
      </trkpt>
      <trkpt lat="40.179527" lon="-3.764556">
        <ele>590.4</ele>
        <time>2021-03-24T17:26:33Z</time>
      </trkpt>
      <trkpt lat="40.17955" lon="-3.7646217">
        <ele>590.4</ele>
        <time>2021-03-24T17:26:34Z</time>
      </trkpt>
      <trkpt lat="40.17957" lon="-3.7646873">
        <ele>590.4</ele>
        <time>2021-03-24T17:26:35Z</time>
      </trkpt>
      <trkpt lat="40.179585" lon="-3.7647486">
        <ele>590.4</ele>
        <time>2021-03-24T17:26:36Z</time>
      </trkpt>
      <trkpt lat="40.1796" lon="-3.7648108">
        <ele>590.4</ele>
        <time>2021-03-24T17:26:37Z</time>
      </trkpt>
      <trkpt lat="40.179626" lon="-3.7649434">
        <ele>590.4</ele>
        <time>2021-03-24T17:26:39Z</time>
      </trkpt>
      <trkpt lat="40.17964" lon="-3.7650073">
        <ele>590.4</ele>
        <time>2021-03-24T17:26:40Z</time>
      </trkpt>
      <trkpt lat="40.179657" lon="-3.765072">
        <ele>590.4</ele>
        <time>2021-03-24T17:26:41Z</time>
      </trkpt>
      <trkpt lat="40.179688" lon="-3.76521">
        <ele>591.58</ele>
        <time>2021-03-24T17:26:43Z</time>
      </trkpt>
      <trkpt lat="40.179703" lon="-3.7652774">
        <ele>591.58</ele>
        <time>2021-03-24T17:26:44Z</time>
      </trkpt>
      <trkpt lat="40.179718" lon="-3.7653396">
        <ele>591.58</ele>
        <time>2021-03-24T17:26:45Z</time>
      </trkpt>
      <trkpt lat="40.17975" lon="-3.7654743">
        <ele>591.58</ele>
        <time>2021-03-24T17:26:47Z</time>
      </trkpt>
      <trkpt lat="40.179764" lon="-3.76554">
        <ele>591.58</ele>
        <time>2021-03-24T17:26:48Z</time>
      </trkpt>
      <trkpt lat="40.17978" lon="-3.7656016">
        <ele>591.58</ele>
        <time>2021-03-24T17:26:49Z</time>
      </trkpt>
      <trkpt lat="40.179806" lon="-3.765733">
        <ele>591.58</ele>
        <time>2021-03-24T17:26:51Z</time>
      </trkpt>
      <trkpt lat="40.17982" lon="-3.7658002">
        <ele>591.58</ele>
        <time>2021-03-24T17:26:52Z</time>
      </trkpt>
      <trkpt lat="40.179836" lon="-3.765867">
        <ele>591.58</ele>
        <time>2021-03-24T17:26:53Z</time>
      </trkpt>
      <trkpt lat="40.17985" lon="-3.7659326">
        <ele>591.58</ele>
        <time>2021-03-24T17:26:54Z</time>
      </trkpt>
      <trkpt lat="40.179867" lon="-3.7659976">
        <ele>591.58</ele>
        <time>2021-03-24T17:26:55Z</time>
      </trkpt>
      <trkpt lat="40.179886" lon="-3.7660635">
        <ele>591.58</ele>
        <time>2021-03-24T17:26:56Z</time>
      </trkpt>
      <trkpt lat="40.179905" lon="-3.7661276">
        <ele>591.58</ele>
        <time>2021-03-24T17:26:57Z</time>
      </trkpt>
      <trkpt lat="40.17992" lon="-3.766187">
        <ele>591.58</ele>
        <time>2021-03-24T17:26:58Z</time>
      </trkpt>
      <trkpt lat="40.179966" lon="-3.7663136">
        <ele>591.58</ele>
        <time>2021-03-24T17:27:00Z</time>
      </trkpt>
      <trkpt lat="40.179993" lon="-3.7663753">
        <ele>591.58</ele>
        <time>2021-03-24T17:27:01Z</time>
      </trkpt>
      <trkpt lat="40.18002" lon="-3.7664366">
        <ele>591.58</ele>
        <time>2021-03-24T17:27:02Z</time>
      </trkpt>
      <trkpt lat="40.180046" lon="-3.766497">
        <ele>591.58</ele>
        <time>2021-03-24T17:27:03Z</time>
      </trkpt>
      <trkpt lat="40.180077" lon="-3.7665582">
        <ele>591.58</ele>
        <time>2021-03-24T17:27:04Z</time>
      </trkpt>
      <trkpt lat="40.180107" lon="-3.7666183">
        <ele>591.58</ele>
        <time>2021-03-24T17:27:05Z</time>
      </trkpt>
      <trkpt lat="40.180138" lon="-3.766677">
        <ele>591.58</ele>
        <time>2021-03-24T17:27:06Z</time>
      </trkpt>
      <trkpt lat="40.180164" lon="-3.7667336">
        <ele>591.58</ele>
        <time>2021-03-24T17:27:07Z</time>
      </trkpt>
      <trkpt lat="40.18019" lon="-3.7667923">
        <ele>591.58</ele>
        <time>2021-03-24T17:27:08Z</time>
      </trkpt>
      <trkpt lat="40.180218" lon="-3.76685">
        <ele>591.58</ele>
        <time>2021-03-24T17:27:09Z</time>
      </trkpt>
      <trkpt lat="40.180267" lon="-3.7669628">
        <ele>591.58</ele>
        <time>2021-03-24T17:27:11Z</time>
      </trkpt>
      <trkpt lat="40.180294" lon="-3.7670202">
        <ele>591.58</ele>
        <time>2021-03-24T17:27:12Z</time>
      </trkpt>
      <trkpt lat="40.180355" lon="-3.767145">
        <ele>591.58</ele>
        <time>2021-03-24T17:27:14Z</time>
      </trkpt>
      <trkpt lat="40.180386" lon="-3.7672067">
        <ele>591.58</ele>
        <time>2021-03-24T17:27:15Z</time>
      </trkpt>
      <trkpt lat="40.18041" lon="-3.767262">
        <ele>591.58</ele>
        <time>2021-03-24T17:27:16Z</time>
      </trkpt>
      <trkpt lat="40.18044" lon="-3.7673244">
        <ele>591.58</ele>
        <time>2021-03-24T17:27:17Z</time>
      </trkpt>
      <trkpt lat="40.180466" lon="-3.7673867">
        <ele>591.58</ele>
        <time>2021-03-24T17:27:18Z</time>
      </trkpt>
      <trkpt lat="40.180492" lon="-3.7674465">
        <ele>591.58</ele>
        <time>2021-03-24T17:27:19Z</time>
      </trkpt>
      <trkpt lat="40.180523" lon="-3.767506">
        <ele>591.58</ele>
        <time>2021-03-24T17:27:20Z</time>
      </trkpt>
      <trkpt lat="40.18055" lon="-3.767561">
        <ele>592.77</ele>
        <time>2021-03-24T17:27:21Z</time>
      </trkpt>
      <trkpt lat="40.18061" lon="-3.7676785">
        <ele>592.77</ele>
        <time>2021-03-24T17:27:23Z</time>
      </trkpt>
      <trkpt lat="40.18064" lon="-3.767737">
        <ele>592.77</ele>
        <time>2021-03-24T17:27:24Z</time>
      </trkpt>
      <trkpt lat="40.180668" lon="-3.7677922">
        <ele>592.77</ele>
        <time>2021-03-24T17:27:25Z</time>
      </trkpt>
      <trkpt lat="40.180695" lon="-3.7678506">
        <ele>592.77</ele>
        <time>2021-03-24T17:27:26Z</time>
      </trkpt>
      <trkpt lat="40.18072" lon="-3.7679105">
        <ele>592.77</ele>
        <time>2021-03-24T17:27:27Z</time>
      </trkpt>
      <trkpt lat="40.180748" lon="-3.7679713">
        <ele>592.77</ele>
        <time>2021-03-24T17:27:28Z</time>
      </trkpt>
      <trkpt lat="40.180775" lon="-3.7680335">
        <ele>592.77</ele>
        <time>2021-03-24T17:27:29Z</time>
      </trkpt>
      <trkpt lat="40.180798" lon="-3.7680962">
        <ele>592.77</ele>
        <time>2021-03-24T17:27:30Z</time>
      </trkpt>
      <trkpt lat="40.18082" lon="-3.7681587">
        <ele>592.77</ele>
        <time>2021-03-24T17:27:31Z</time>
      </trkpt>
      <trkpt lat="40.180843" lon="-3.7682214">
        <ele>592.77</ele>
        <time>2021-03-24T17:27:32Z</time>
      </trkpt>
      <trkpt lat="40.18087" lon="-3.7682886">
        <ele>592.77</ele>
        <time>2021-03-24T17:27:33Z</time>
      </trkpt>
      <trkpt lat="40.18089" lon="-3.7683506">
        <ele>592.77</ele>
        <time>2021-03-24T17:27:34Z</time>
      </trkpt>
      <trkpt lat="40.180916" lon="-3.7684183">
        <ele>592.77</ele>
        <time>2021-03-24T17:27:35Z</time>
      </trkpt>
      <trkpt lat="40.180935" lon="-3.768485">
        <ele>592.77</ele>
        <time>2021-03-24T17:27:36Z</time>
      </trkpt>
      <trkpt lat="40.180958" lon="-3.768552">
        <ele>592.77</ele>
        <time>2021-03-24T17:27:37Z</time>
      </trkpt>
      <trkpt lat="40.180977" lon="-3.7686152">
        <ele>592.77</ele>
        <time>2021-03-24T17:27:38Z</time>
      </trkpt>
      <trkpt lat="40.180996" lon="-3.7686803">
        <ele>592.77</ele>
        <time>2021-03-24T17:27:39Z</time>
      </trkpt>
      <trkpt lat="40.181015" lon="-3.7687502">
        <ele>592.77</ele>
        <time>2021-03-24T17:27:40Z</time>
      </trkpt>
      <trkpt lat="40.181034" lon="-3.7688186">
        <ele>592.77</ele>
        <time>2021-03-24T17:27:41Z</time>
      </trkpt>
      <trkpt lat="40.181053" lon="-3.768887">
        <ele>592.77</ele>
        <time>2021-03-24T17:27:42Z</time>
      </trkpt>
      <trkpt lat="40.181076" lon="-3.7689497">
        <ele>592.77</ele>
        <time>2021-03-24T17:27:43Z</time>
      </trkpt>
      <trkpt lat="40.181095" lon="-3.7690172">
        <ele>592.77</ele>
        <time>2021-03-24T17:27:44Z</time>
      </trkpt>
      <trkpt lat="40.181114" lon="-3.7690806">
        <ele>592.77</ele>
        <time>2021-03-24T17:27:45Z</time>
      </trkpt>
      <trkpt lat="40.181133" lon="-3.7691445">
        <ele>592.77</ele>
        <time>2021-03-24T17:27:46Z</time>
      </trkpt>
      <trkpt lat="40.181156" lon="-3.7692094">
        <ele>592.77</ele>
        <time>2021-03-24T17:27:47Z</time>
      </trkpt>
      <trkpt lat="40.181175" lon="-3.7692733">
        <ele>593.95</ele>
        <time>2021-03-24T17:27:48Z</time>
      </trkpt>
      <trkpt lat="40.181194" lon="-3.7693424">
        <ele>593.95</ele>
        <time>2021-03-24T17:27:49Z</time>
      </trkpt>
      <trkpt lat="40.181217" lon="-3.7694097">
        <ele>593.95</ele>
        <time>2021-03-24T17:27:50Z</time>
      </trkpt>
      <trkpt lat="40.18124" lon="-3.7694764">
        <ele>593.95</ele>
        <time>2021-03-24T17:27:51Z</time>
      </trkpt>
      <trkpt lat="40.18126" lon="-3.7695386">
        <ele>593.95</ele>
        <time>2021-03-24T17:27:52Z</time>
      </trkpt>
      <trkpt lat="40.181286" lon="-3.7696064">
        <ele>593.95</ele>
        <time>2021-03-24T17:27:53Z</time>
      </trkpt>
      <trkpt lat="40.18131" lon="-3.7696726">
        <ele>593.95</ele>
        <time>2021-03-24T17:27:54Z</time>
      </trkpt>
      <trkpt lat="40.181335" lon="-3.769736">
        <ele>593.95</ele>
        <time>2021-03-24T17:27:55Z</time>
      </trkpt>
      <trkpt lat="40.181362" lon="-3.7697935">
        <ele>593.95</ele>
        <time>2021-03-24T17:27:56Z</time>
      </trkpt>
      <trkpt lat="40.181393" lon="-3.769854">
        <ele>593.95</ele>
        <time>2021-03-24T17:27:57Z</time>
      </trkpt>
      <trkpt lat="40.181427" lon="-3.7699118">
        <ele>593.95</ele>
        <time>2021-03-24T17:27:58Z</time>
      </trkpt>
      <trkpt lat="40.181458" lon="-3.769968">
        <ele>593.95</ele>
        <time>2021-03-24T17:27:59Z</time>
      </trkpt>
      <trkpt lat="40.181496" lon="-3.7700217">
        <ele>593.95</ele>
        <time>2021-03-24T17:28:00Z</time>
      </trkpt>
      <trkpt lat="40.18153" lon="-3.7700703">
        <ele>593.95</ele>
        <time>2021-03-24T17:28:01Z</time>
      </trkpt>
      <trkpt lat="40.18157" lon="-3.7701209">
        <ele>593.95</ele>
        <time>2021-03-24T17:28:02Z</time>
      </trkpt>
      <trkpt lat="40.18161" lon="-3.7701705">
        <ele>593.95</ele>
        <time>2021-03-24T17:28:03Z</time>
      </trkpt>
      <trkpt lat="40.18165" lon="-3.770219">
        <ele>593.95</ele>
        <time>2021-03-24T17:28:04Z</time>
      </trkpt>
      <trkpt lat="40.181686" lon="-3.7702644">
        <ele>593.95</ele>
        <time>2021-03-24T17:28:05Z</time>
      </trkpt>
      <trkpt lat="40.181725" lon="-3.7703102">
        <ele>593.95</ele>
        <time>2021-03-24T17:28:06Z</time>
      </trkpt>
      <trkpt lat="40.181767" lon="-3.7703588">
        <ele>593.95</ele>
        <time>2021-03-24T17:28:07Z</time>
      </trkpt>
      <trkpt lat="40.18181" lon="-3.7704055">
        <ele>593.95</ele>
        <time>2021-03-24T17:28:08Z</time>
      </trkpt>
      <trkpt lat="40.18185" lon="-3.7704523">
        <ele>594.09</ele>
        <time>2021-03-24T17:28:09Z</time>
      </trkpt>
      <trkpt lat="40.181892" lon="-3.7704957">
        <ele>594.09</ele>
        <time>2021-03-24T17:28:10Z</time>
      </trkpt>
      <trkpt lat="40.18193" lon="-3.7705402">
        <ele>594.09</ele>
        <time>2021-03-24T17:28:11Z</time>
      </trkpt>
      <trkpt lat="40.181973" lon="-3.770585">
        <ele>595.27</ele>
        <time>2021-03-24T17:28:12Z</time>
      </trkpt>
      <trkpt lat="40.18201" lon="-3.7706304">
        <ele>595.27</ele>
        <time>2021-03-24T17:28:13Z</time>
      </trkpt>
      <trkpt lat="40.18209" lon="-3.7707248">
        <ele>595.27</ele>
        <time>2021-03-24T17:28:15Z</time>
      </trkpt>
      <trkpt lat="40.18213" lon="-3.7707736">
        <ele>595.27</ele>
        <time>2021-03-24T17:28:16Z</time>
      </trkpt>
      <trkpt lat="40.18217" lon="-3.7708263">
        <ele>595.27</ele>
        <time>2021-03-24T17:28:17Z</time>
      </trkpt>
      <trkpt lat="40.182213" lon="-3.770875">
        <ele>595.27</ele>
        <time>2021-03-24T17:28:18Z</time>
      </trkpt>
      <trkpt lat="40.18225" lon="-3.7709177">
        <ele>595.27</ele>
        <time>2021-03-24T17:28:19Z</time>
      </trkpt>
      <trkpt lat="40.182293" lon="-3.7709644">
        <ele>595.27</ele>
        <time>2021-03-24T17:28:20Z</time>
      </trkpt>
      <trkpt lat="40.182335" lon="-3.7710097">
        <ele>595.27</ele>
        <time>2021-03-24T17:28:21Z</time>
      </trkpt>
      <trkpt lat="40.18238" lon="-3.7710536">
        <ele>595.27</ele>
        <time>2021-03-24T17:28:22Z</time>
      </trkpt>
      <trkpt lat="40.18242" lon="-3.771093">
        <ele>595.27</ele>
        <time>2021-03-24T17:28:23Z</time>
      </trkpt>
      <trkpt lat="40.18246" lon="-3.7711344">
        <ele>595.27</ele>
        <time>2021-03-24T17:28:24Z</time>
      </trkpt>
      <trkpt lat="40.18254" lon="-3.771212">
        <ele>595.27</ele>
        <time>2021-03-24T17:28:26Z</time>
      </trkpt>
      <trkpt lat="40.182602" lon="-3.7712896">
        <ele>595.27</ele>
        <time>2021-03-24T17:28:28Z</time>
      </trkpt>
      <trkpt lat="40.182667" lon="-3.771374">
        <ele>595.27</ele>
        <time>2021-03-24T17:28:30Z</time>
      </trkpt>
      <trkpt lat="40.182735" lon="-3.7714596">
        <ele>595.27</ele>
        <time>2021-03-24T17:28:32Z</time>
      </trkpt>
      <trkpt lat="40.18281" lon="-3.7715433">
        <ele>595.27</ele>
        <time>2021-03-24T17:28:34Z</time>
      </trkpt>
      <trkpt lat="40.182854" lon="-3.7715843">
        <ele>595.27</ele>
        <time>2021-03-24T17:28:35Z</time>
      </trkpt>
      <trkpt lat="40.182896" lon="-3.771625">
        <ele>595.27</ele>
        <time>2021-03-24T17:28:36Z</time>
      </trkpt>
      <trkpt lat="40.18294" lon="-3.7716658">
        <ele>595.27</ele>
        <time>2021-03-24T17:28:37Z</time>
      </trkpt>
      <trkpt lat="40.182983" lon="-3.7717078">
        <ele>595.27</ele>
        <time>2021-03-24T17:28:38Z</time>
      </trkpt>
      <trkpt lat="40.18307" lon="-3.7717907">
        <ele>595.27</ele>
        <time>2021-03-24T17:28:40Z</time>
      </trkpt>
      <trkpt lat="40.183113" lon="-3.771833">
        <ele>595.27</ele>
        <time>2021-03-24T17:28:41Z</time>
      </trkpt>
      <trkpt lat="40.18315" lon="-3.7718723">
        <ele>595.27</ele>
        <time>2021-03-24T17:28:42Z</time>
      </trkpt>
      <trkpt lat="40.183197" lon="-3.771915">
        <ele>595.27</ele>
        <time>2021-03-24T17:28:43Z</time>
      </trkpt>
      <trkpt lat="40.183292" lon="-3.7719922">
        <ele>595.27</ele>
        <time>2021-03-24T17:28:45Z</time>
      </trkpt>
      <trkpt lat="40.18334" lon="-3.7720268">
        <ele>595.27</ele>
        <time>2021-03-24T17:28:46Z</time>
      </trkpt>
      <trkpt lat="40.183384" lon="-3.77206">
        <ele>595.27</ele>
        <time>2021-03-24T17:28:47Z</time>
      </trkpt>
      <trkpt lat="40.183475" lon="-3.7721407">
        <ele>595.27</ele>
        <time>2021-03-24T17:28:49Z</time>
      </trkpt>
      <trkpt lat="40.183517" lon="-3.7721837">
        <ele>595.27</ele>
        <time>2021-03-24T17:28:50Z</time>
      </trkpt>
      <trkpt lat="40.183556" lon="-3.7722256">
        <ele>595.27</ele>
        <time>2021-03-24T17:28:51Z</time>
      </trkpt>
      <trkpt lat="40.1836" lon="-3.7722723">
        <ele>596.45</ele>
        <time>2021-03-24T17:28:52Z</time>
      </trkpt>
      <trkpt lat="40.183647" lon="-3.7723176">
        <ele>596.45</ele>
        <time>2021-03-24T17:28:53Z</time>
      </trkpt>
      <trkpt lat="40.183693" lon="-3.7723613">
        <ele>596.45</ele>
        <time>2021-03-24T17:28:54Z</time>
      </trkpt>
      <trkpt lat="40.18374" lon="-3.7724028">
        <ele>596.45</ele>
        <time>2021-03-24T17:28:55Z</time>
      </trkpt>
      <trkpt lat="40.183784" lon="-3.7724433">
        <ele>596.45</ele>
        <time>2021-03-24T17:28:56Z</time>
      </trkpt>
      <trkpt lat="40.18383" lon="-3.7724826">
        <ele>596.45</ele>
        <time>2021-03-24T17:28:57Z</time>
      </trkpt>
      <trkpt lat="40.183872" lon="-3.772521">
        <ele>596.45</ele>
        <time>2021-03-24T17:28:58Z</time>
      </trkpt>
      <trkpt lat="40.183956" lon="-3.7725897">
        <ele>596.45</ele>
        <time>2021-03-24T17:29:00Z</time>
      </trkpt>
      <trkpt lat="40.184036" lon="-3.7726624">
        <ele>596.45</ele>
        <time>2021-03-24T17:29:02Z</time>
      </trkpt>
      <trkpt lat="40.18411" lon="-3.7727253">
        <ele>596.45</ele>
        <time>2021-03-24T17:29:04Z</time>
      </trkpt>
      <trkpt lat="40.184185" lon="-3.77278">
        <ele>596.45</ele>
        <time>2021-03-24T17:29:06Z</time>
      </trkpt>
      <trkpt lat="40.184254" lon="-3.7728367">
        <ele>596.45</ele>
        <time>2021-03-24T17:29:08Z</time>
      </trkpt>
      <trkpt lat="40.184322" lon="-3.7728975">
        <ele>596.45</ele>
        <time>2021-03-24T17:29:10Z</time>
      </trkpt>
      <trkpt lat="40.18439" lon="-3.772955">
        <ele>596.45</ele>
        <time>2021-03-24T17:29:12Z</time>
      </trkpt>
      <trkpt lat="40.18446" lon="-3.7730086">
        <ele>596.45</ele>
        <time>2021-03-24T17:29:14Z</time>
      </trkpt>
      <trkpt lat="40.184525" lon="-3.7730522">
        <ele>596.45</ele>
        <time>2021-03-24T17:29:16Z</time>
      </trkpt>
      <trkpt lat="40.184593" lon="-3.77309">
        <ele>596.45</ele>
        <time>2021-03-24T17:29:18Z</time>
      </trkpt>
      <trkpt lat="40.184658" lon="-3.77313">
        <ele>596.45</ele>
        <time>2021-03-24T17:29:20Z</time>
      </trkpt>
      <trkpt lat="40.184723" lon="-3.7731802">
        <ele>596.45</ele>
        <time>2021-03-24T17:29:22Z</time>
      </trkpt>
      <trkpt lat="40.184788" lon="-3.7732363">
        <ele>596.45</ele>
        <time>2021-03-24T17:29:24Z</time>
      </trkpt>
      <trkpt lat="40.184853" lon="-3.7732868">
        <ele>596.45</ele>
        <time>2021-03-24T17:29:26Z</time>
      </trkpt>
      <trkpt lat="40.184917" lon="-3.7733305">
        <ele>596.45</ele>
        <time>2021-03-24T17:29:28Z</time>
      </trkpt>
      <trkpt lat="40.18498" lon="-3.773371">
        <ele>596.45</ele>
        <time>2021-03-24T17:29:30Z</time>
      </trkpt>
      <trkpt lat="40.18504" lon="-3.7734056">
        <ele>596.45</ele>
        <time>2021-03-24T17:29:32Z</time>
      </trkpt>
      <trkpt lat="40.1851" lon="-3.773442">
        <ele>596.45</ele>
        <time>2021-03-24T17:29:34Z</time>
      </trkpt>
      <trkpt lat="40.185154" lon="-3.7734785">
        <ele>596.45</ele>
        <time>2021-03-24T17:29:36Z</time>
      </trkpt>
      <trkpt lat="40.18521" lon="-3.773515">
        <ele>596.45</ele>
        <time>2021-03-24T17:29:38Z</time>
      </trkpt>
      <trkpt lat="40.185276" lon="-3.7735462">
        <ele>596.45</ele>
        <time>2021-03-24T17:29:40Z</time>
      </trkpt>
      <trkpt lat="40.185356" lon="-3.7735767">
        <ele>596.45</ele>
        <time>2021-03-24T17:29:42Z</time>
      </trkpt>
      <trkpt lat="40.185436" lon="-3.773605">
        <ele>596.45</ele>
        <time>2021-03-24T17:29:44Z</time>
      </trkpt>
      <trkpt lat="40.185524" lon="-3.7736313">
        <ele>596.45</ele>
        <time>2021-03-24T17:29:46Z</time>
      </trkpt>
      <trkpt lat="40.185616" lon="-3.7736568">
        <ele>596.45</ele>
        <time>2021-03-24T17:29:48Z</time>
      </trkpt>
      <trkpt lat="40.185707" lon="-3.7736773">
        <ele>596.45</ele>
        <time>2021-03-24T17:29:50Z</time>
      </trkpt>
      <trkpt lat="40.185802" lon="-3.773691">
        <ele>596.45</ele>
        <time>2021-03-24T17:29:52Z</time>
      </trkpt>
      <trkpt lat="40.18585" lon="-3.7736948">
        <ele>596.45</ele>
        <time>2021-03-24T17:29:53Z</time>
      </trkpt>
      <trkpt lat="40.18594" lon="-3.7736993">
        <ele>596.45</ele>
        <time>2021-03-24T17:29:55Z</time>
      </trkpt>
      <trkpt lat="40.186035" lon="-3.7737045">
        <ele>596.45</ele>
        <time>2021-03-24T17:29:57Z</time>
      </trkpt>
      <trkpt lat="40.186077" lon="-3.7737067">
        <ele>596.45</ele>
        <time>2021-03-24T17:29:58Z</time>
      </trkpt>
      <trkpt lat="40.186165" lon="-3.7737076">
        <ele>597.73</ele>
        <time>2021-03-24T17:30:00Z</time>
      </trkpt>
      <trkpt lat="40.186237" lon="-3.7737167">
        <ele>597.73</ele>
        <time>2021-03-24T17:30:02Z</time>
      </trkpt>
      <trkpt lat="40.1863" lon="-3.7737377">
        <ele>597.73</ele>
        <time>2021-03-24T17:30:04Z</time>
      </trkpt>
      <trkpt lat="40.186348" lon="-3.7737796">
        <ele>597.73</ele>
        <time>2021-03-24T17:30:06Z</time>
      </trkpt>
      <trkpt lat="40.186382" lon="-3.7738464">
        <ele>598.91</ele>
        <time>2021-03-24T17:30:08Z</time>
      </trkpt>
      <trkpt lat="40.186398" lon="-3.7739372">
        <ele>599.06</ele>
        <time>2021-03-24T17:30:10Z</time>
      </trkpt>
      <trkpt lat="40.1864" lon="-3.7740397">
        <ele>599.06</ele>
        <time>2021-03-24T17:30:12Z</time>
      </trkpt>
      <trkpt lat="40.186394" lon="-3.774158">
        <ele>599.06</ele>
        <time>2021-03-24T17:30:14Z</time>
      </trkpt>
      <trkpt lat="40.186398" lon="-3.7742753">
        <ele>599.06</ele>
        <time>2021-03-24T17:30:16Z</time>
      </trkpt>
      <trkpt lat="40.18643" lon="-3.7743764">
        <ele>599.06</ele>
        <time>2021-03-24T17:30:18Z</time>
      </trkpt>
      <trkpt lat="40.186485" lon="-3.7744544">
        <ele>599.06</ele>
        <time>2021-03-24T17:30:20Z</time>
      </trkpt>
      <trkpt lat="40.186554" lon="-3.7745156">
        <ele>599.06</ele>
        <time>2021-03-24T17:30:22Z</time>
      </trkpt>
      <trkpt lat="40.18663" lon="-3.774574">
        <ele>599.06</ele>
        <time>2021-03-24T17:30:24Z</time>
      </trkpt>
      <trkpt lat="40.186707" lon="-3.7746246">
        <ele>599.06</ele>
        <time>2021-03-24T17:30:26Z</time>
      </trkpt>
      <trkpt lat="40.18677" lon="-3.7746713">
        <ele>599.06</ele>
        <time>2021-03-24T17:30:28Z</time>
      </trkpt>
      <trkpt lat="40.18683" lon="-3.7747145">
        <ele>600.24</ele>
        <time>2021-03-24T17:30:30Z</time>
      </trkpt>
      <trkpt lat="40.186897" lon="-3.774756">
        <ele>600.24</ele>
        <time>2021-03-24T17:30:32Z</time>
      </trkpt>
      <trkpt lat="40.18697" lon="-3.7747984">
        <ele>600.24</ele>
        <time>2021-03-24T17:30:34Z</time>
      </trkpt>
      <trkpt lat="40.187084" lon="-3.7748523">
        <ele>600.24</ele>
        <time>2021-03-24T17:30:37Z</time>
      </trkpt>
      <trkpt lat="40.18716" lon="-3.7748842">
        <ele>601.43</ele>
        <time>2021-03-24T17:30:39Z</time>
      </trkpt>
      <trkpt lat="40.187244" lon="-3.774923">
        <ele>601.43</ele>
        <time>2021-03-24T17:30:41Z</time>
      </trkpt>
      <trkpt lat="40.187325" lon="-3.774963">
        <ele>601.43</ele>
        <time>2021-03-24T17:30:43Z</time>
      </trkpt>
      <trkpt lat="40.187405" lon="-3.7750034">
        <ele>602.7</ele>
        <time>2021-03-24T17:30:45Z</time>
      </trkpt>
      <trkpt lat="40.18749" lon="-3.7750413">
        <ele>602.7</ele>
        <time>2021-03-24T17:30:47Z</time>
      </trkpt>
      <trkpt lat="40.187572" lon="-3.7750754">
        <ele>602.7</ele>
        <time>2021-03-24T17:30:49Z</time>
      </trkpt>
      <trkpt lat="40.187653" lon="-3.7751086">
        <ele>603.88</ele>
        <time>2021-03-24T17:30:51Z</time>
      </trkpt>
      <trkpt lat="40.187733" lon="-3.7751434">
        <ele>603.88</ele>
        <time>2021-03-24T17:30:53Z</time>
      </trkpt>
      <trkpt lat="40.187817" lon="-3.7751818">
        <ele>603.88</ele>
        <time>2021-03-24T17:30:55Z</time>
      </trkpt>
      <trkpt lat="40.187893" lon="-3.7752223">
        <ele>605.15</ele>
        <time>2021-03-24T17:30:57Z</time>
      </trkpt>
      <trkpt lat="40.187977" lon="-3.7752652">
        <ele>605.15</ele>
        <time>2021-03-24T17:30:59Z</time>
      </trkpt>
      <trkpt lat="40.18806" lon="-3.7753108">
        <ele>606.34</ele>
        <time>2021-03-24T17:31:01Z</time>
      </trkpt>
      <trkpt lat="40.188137" lon="-3.7753541">
        <ele>606.34</ele>
        <time>2021-03-24T17:31:03Z</time>
      </trkpt>
      <trkpt lat="40.188217" lon="-3.775399">
        <ele>606.34</ele>
        <time>2021-03-24T17:31:05Z</time>
      </trkpt>
      <trkpt lat="40.188286" lon="-3.7754474">
        <ele>606.34</ele>
        <time>2021-03-24T17:31:07Z</time>
      </trkpt>
      <trkpt lat="40.18836" lon="-3.7754953">
        <ele>606.34</ele>
        <time>2021-03-24T17:31:09Z</time>
      </trkpt>
      <trkpt lat="40.188435" lon="-3.7755373">
        <ele>606.34</ele>
        <time>2021-03-24T17:31:11Z</time>
      </trkpt>
      <trkpt lat="40.18851" lon="-3.7755728">
        <ele>607.52</ele>
        <time>2021-03-24T17:31:13Z</time>
      </trkpt>
      <trkpt lat="40.18858" lon="-3.775616">
        <ele>607.52</ele>
        <time>2021-03-24T17:31:15Z</time>
      </trkpt>
      <trkpt lat="40.18865" lon="-3.7756753">
        <ele>607.52</ele>
        <time>2021-03-24T17:31:17Z</time>
      </trkpt>
      <trkpt lat="40.188713" lon="-3.775736">
        <ele>607.52</ele>
        <time>2021-03-24T17:31:19Z</time>
      </trkpt>
      <trkpt lat="40.188774" lon="-3.7757964">
        <ele>607.52</ele>
        <time>2021-03-24T17:31:21Z</time>
      </trkpt>
      <trkpt lat="40.188843" lon="-3.775865">
        <ele>608.7</ele>
        <time>2021-03-24T17:31:23Z</time>
      </trkpt>
      <trkpt lat="40.188908" lon="-3.775932">
        <ele>608.7</ele>
        <time>2021-03-24T17:31:25Z</time>
      </trkpt>
      <trkpt lat="40.188984" lon="-3.7760046">
        <ele>608.7</ele>
        <time>2021-03-24T17:31:27Z</time>
      </trkpt>
      <trkpt lat="40.189056" lon="-3.7760777">
        <ele>608.7</ele>
        <time>2021-03-24T17:31:29Z</time>
      </trkpt>
      <trkpt lat="40.18909" lon="-3.7761126">
        <ele>608.7</ele>
        <time>2021-03-24T17:31:30Z</time>
      </trkpt>
      <trkpt lat="40.18916" lon="-3.7761865">
        <ele>608.7</ele>
        <time>2021-03-24T17:31:32Z</time>
      </trkpt>
      <trkpt lat="40.189228" lon="-3.7762513">
        <ele>608.7</ele>
        <time>2021-03-24T17:31:34Z</time>
      </trkpt>
      <trkpt lat="40.189297" lon="-3.7763164">
        <ele>608.7</ele>
        <time>2021-03-24T17:31:36Z</time>
      </trkpt>
      <trkpt lat="40.18936" lon="-3.776383">
        <ele>608.7</ele>
        <time>2021-03-24T17:31:38Z</time>
      </trkpt>
      <trkpt lat="40.18942" lon="-3.7764573">
        <ele>608.7</ele>
        <time>2021-03-24T17:31:40Z</time>
      </trkpt>
      <trkpt lat="40.189472" lon="-3.776528">
        <ele>608.7</ele>
        <time>2021-03-24T17:31:42Z</time>
      </trkpt>
      <trkpt lat="40.189526" lon="-3.7765646">
        <ele>608.7</ele>
        <time>2021-03-24T17:31:44Z</time>
      </trkpt>
      <trkpt lat="40.18959" lon="-3.776564">
        <ele>608.7</ele>
        <time>2021-03-24T17:31:46Z</time>
      </trkpt>
      <trkpt lat="40.18965" lon="-3.7765753">
        <ele>608.7</ele>
        <time>2021-03-24T17:31:48Z</time>
      </trkpt>
      <trkpt lat="40.18972" lon="-3.7766132">
        <ele>608.7</ele>
        <time>2021-03-24T17:31:50Z</time>
      </trkpt>
      <trkpt lat="40.189793" lon="-3.776661">
        <ele>608.7</ele>
        <time>2021-03-24T17:31:52Z</time>
      </trkpt>
      <trkpt lat="40.189873" lon="-3.7767177">
        <ele>608.7</ele>
        <time>2021-03-24T17:31:54Z</time>
      </trkpt>
      <trkpt lat="40.18995" lon="-3.776776">
        <ele>608.7</ele>
        <time>2021-03-24T17:31:56Z</time>
      </trkpt>
      <trkpt lat="40.190025" lon="-3.7768424">
        <ele>608.7</ele>
        <time>2021-03-24T17:31:58Z</time>
      </trkpt>
      <trkpt lat="40.190094" lon="-3.7769022">
        <ele>608.7</ele>
        <time>2021-03-24T17:32:00Z</time>
      </trkpt>
      <trkpt lat="40.190155" lon="-3.776957">
        <ele>608.7</ele>
        <time>2021-03-24T17:32:02Z</time>
      </trkpt>
      <trkpt lat="40.190216" lon="-3.776994">
        <ele>608.7</ele>
        <time>2021-03-24T17:32:04Z</time>
      </trkpt>
      <trkpt lat="40.190285" lon="-3.7770054">
        <ele>608.7</ele>
        <time>2021-03-24T17:32:06Z</time>
      </trkpt>
      <trkpt lat="40.190357" lon="-3.7770104">
        <ele>608.7</ele>
        <time>2021-03-24T17:32:08Z</time>
      </trkpt>
      <trkpt lat="40.190437" lon="-3.777011">
        <ele>610.85</ele>
        <time>2021-03-24T17:32:10Z</time>
      </trkpt>
      <trkpt lat="40.190517" lon="-3.77701">
        <ele>610.85</ele>
        <time>2021-03-24T17:32:12Z</time>
      </trkpt>
      <trkpt lat="40.19059" lon="-3.7770214">
        <ele>610.85</ele>
        <time>2021-03-24T17:32:14Z</time>
      </trkpt>
      <trkpt lat="40.190636" lon="-3.7770674">
        <ele>610.85</ele>
        <time>2021-03-24T17:32:16Z</time>
      </trkpt>
      <trkpt lat="40.19066" lon="-3.7771413">
        <ele>610.85</ele>
        <time>2021-03-24T17:32:18Z</time>
      </trkpt>
      <trkpt lat="40.19066" lon="-3.7772427">
        <ele>610.85</ele>
        <time>2021-03-24T17:32:20Z</time>
      </trkpt>
      <trkpt lat="40.19065" lon="-3.7773514">
        <ele>610.85</ele>
        <time>2021-03-24T17:32:22Z</time>
      </trkpt>
      <trkpt lat="40.190655" lon="-3.777472">
        <ele>610.85</ele>
        <time>2021-03-24T17:32:24Z</time>
      </trkpt>
      <trkpt lat="40.190666" lon="-3.777601">
        <ele>610.85</ele>
        <time>2021-03-24T17:32:26Z</time>
      </trkpt>
      <trkpt lat="40.190685" lon="-3.7777302">
        <ele>610.85</ele>
        <time>2021-03-24T17:32:28Z</time>
      </trkpt>
      <trkpt lat="40.190697" lon="-3.7777996">
        <ele>610.85</ele>
        <time>2021-03-24T17:32:29Z</time>
      </trkpt>
      <trkpt lat="40.190704" lon="-3.7778707">
        <ele>610.85</ele>
        <time>2021-03-24T17:32:30Z</time>
      </trkpt>
      <trkpt lat="40.190716" lon="-3.777939">
        <ele>610.85</ele>
        <time>2021-03-24T17:32:31Z</time>
      </trkpt>
      <trkpt lat="40.190735" lon="-3.778079">
        <ele>610.85</ele>
        <time>2021-03-24T17:32:33Z</time>
      </trkpt>
      <trkpt lat="40.190746" lon="-3.7781453">
        <ele>609.66</ele>
        <time>2021-03-24T17:32:34Z</time>
      </trkpt>
      <trkpt lat="40.190754" lon="-3.7782097">
        <ele>609.66</ele>
        <time>2021-03-24T17:32:35Z</time>
      </trkpt>
      <trkpt lat="40.190773" lon="-3.7783372">
        <ele>609.66</ele>
        <time>2021-03-24T17:32:37Z</time>
      </trkpt>
      <trkpt lat="40.19079" lon="-3.7784593">
        <ele>609.66</ele>
        <time>2021-03-24T17:32:39Z</time>
      </trkpt>
      <trkpt lat="40.190807" lon="-3.778573">
        <ele>609.66</ele>
        <time>2021-03-24T17:32:41Z</time>
      </trkpt>
      <trkpt lat="40.19086" lon="-3.7786634">
        <ele>608.48</ele>
        <time>2021-03-24T17:32:43Z</time>
      </trkpt>
      <trkpt lat="40.190926" lon="-3.7787354">
        <ele>608.48</ele>
        <time>2021-03-24T17:32:45Z</time>
      </trkpt>
      <trkpt lat="40.190994" lon="-3.778808">
        <ele>608.48</ele>
        <time>2021-03-24T17:32:47Z</time>
      </trkpt>
      <trkpt lat="40.191074" lon="-3.778884">
        <ele>608.48</ele>
        <time>2021-03-24T17:32:49Z</time>
      </trkpt>
      <trkpt lat="40.19111" lon="-3.778918">
        <ele>608.48</ele>
        <time>2021-03-24T17:32:50Z</time>
      </trkpt>
      <trkpt lat="40.19118" lon="-3.7789853">
        <ele>608.48</ele>
        <time>2021-03-24T17:32:52Z</time>
      </trkpt>
      <trkpt lat="40.191254" lon="-3.7790556">
        <ele>608.48</ele>
        <time>2021-03-24T17:32:54Z</time>
      </trkpt>
      <trkpt lat="40.191326" lon="-3.7791252">
        <ele>608.48</ele>
        <time>2021-03-24T17:32:56Z</time>
      </trkpt>
      <trkpt lat="40.191406" lon="-3.7791953">
        <ele>608.48</ele>
        <time>2021-03-24T17:32:58Z</time>
      </trkpt>
      <trkpt lat="40.191486" lon="-3.7792652">
        <ele>608.48</ele>
        <time>2021-03-24T17:33:00Z</time>
      </trkpt>
      <trkpt lat="40.191578" lon="-3.7793403">
        <ele>609.66</ele>
        <time>2021-03-24T17:33:02Z</time>
      </trkpt>
      <trkpt lat="40.191624" lon="-3.7793767">
        <ele>609.66</ele>
        <time>2021-03-24T17:33:03Z</time>
      </trkpt>
      <trkpt lat="40.191666" lon="-3.7794106">
        <ele>609.66</ele>
        <time>2021-03-24T17:33:04Z</time>
      </trkpt>
      <trkpt lat="40.19171" lon="-3.7794442">
        <ele>609.66</ele>
        <time>2021-03-24T17:33:05Z</time>
      </trkpt>
      <trkpt lat="40.191803" lon="-3.7795153">
        <ele>609.66</ele>
        <time>2021-03-24T17:33:07Z</time>
      </trkpt>
      <trkpt lat="40.19185" lon="-3.7795503">
        <ele>609.66</ele>
        <time>2021-03-24T17:33:08Z</time>
      </trkpt>
      <trkpt lat="40.191895" lon="-3.779585">
        <ele>609.66</ele>
        <time>2021-03-24T17:33:09Z</time>
      </trkpt>
      <trkpt lat="40.19194" lon="-3.7796183">
        <ele>609.66</ele>
        <time>2021-03-24T17:33:10Z</time>
      </trkpt>
      <trkpt lat="40.191982" lon="-3.7796535">
        <ele>609.66</ele>
        <time>2021-03-24T17:33:11Z</time>
      </trkpt>
      <trkpt lat="40.192024" lon="-3.779694">
        <ele>609.66</ele>
        <time>2021-03-24T17:33:12Z</time>
      </trkpt>
      <trkpt lat="40.192078" lon="-3.7797873">
        <ele>609.66</ele>
        <time>2021-03-24T17:33:14Z</time>
      </trkpt>
      <trkpt lat="40.192104" lon="-3.779886">
        <ele>610.85</ele>
        <time>2021-03-24T17:33:16Z</time>
      </trkpt>
      <trkpt lat="40.19212" lon="-3.779976">
        <ele>610.85</ele>
        <time>2021-03-24T17:33:18Z</time>
      </trkpt>
      <trkpt lat="40.192142" lon="-3.7800484">
        <ele>610.85</ele>
        <time>2021-03-24T17:33:20Z</time>
      </trkpt>
      <trkpt lat="40.192184" lon="-3.780095">
        <ele>610.85</ele>
        <time>2021-03-24T17:33:22Z</time>
      </trkpt>
      <trkpt lat="40.192245" lon="-3.7801204">
        <ele>610.85</ele>
        <time>2021-03-24T17:33:24Z</time>
      </trkpt>
      <trkpt lat="40.192326" lon="-3.7801344">
        <ele>610.85</ele>
        <time>2021-03-24T17:33:26Z</time>
      </trkpt>
      <trkpt lat="40.192417" lon="-3.7801466">
        <ele>610.85</ele>
        <time>2021-03-24T17:33:28Z</time>
      </trkpt>
      <trkpt lat="40.19251" lon="-3.780155">
        <ele>610.85</ele>
        <time>2021-03-24T17:33:30Z</time>
      </trkpt>
      <trkpt lat="40.192604" lon="-3.78016">
        <ele>610.85</ele>
        <time>2021-03-24T17:33:32Z</time>
      </trkpt>
      <trkpt lat="40.192703" lon="-3.7801564">
        <ele>610.85</ele>
        <time>2021-03-24T17:33:34Z</time>
      </trkpt>
      <trkpt lat="40.192753" lon="-3.7801507">
        <ele>610.85</ele>
        <time>2021-03-24T17:33:35Z</time>
      </trkpt>
      <trkpt lat="40.192852" lon="-3.780132">
        <ele>610.85</ele>
        <time>2021-03-24T17:33:37Z</time>
      </trkpt>
      <trkpt lat="40.1929" lon="-3.7801204">
        <ele>610.85</ele>
        <time>2021-03-24T17:33:38Z</time>
      </trkpt>
      <trkpt lat="40.192997" lon="-3.7800963">
        <ele>610.85</ele>
        <time>2021-03-24T17:33:40Z</time>
      </trkpt>
      <trkpt lat="40.1931" lon="-3.7800767">
        <ele>610.85</ele>
        <time>2021-03-24T17:33:42Z</time>
      </trkpt>
      <trkpt lat="40.19315" lon="-3.7800674">
        <ele>610.85</ele>
        <time>2021-03-24T17:33:43Z</time>
      </trkpt>
      <trkpt lat="40.193253" lon="-3.7800498">
        <ele>610.85</ele>
        <time>2021-03-24T17:33:45Z</time>
      </trkpt>
      <trkpt lat="40.193302" lon="-3.7800417">
        <ele>610.85</ele>
        <time>2021-03-24T17:33:46Z</time>
      </trkpt>
      <trkpt lat="40.193405" lon="-3.7800267">
        <ele>610.85</ele>
        <time>2021-03-24T17:33:48Z</time>
      </trkpt>
      <trkpt lat="40.193462" lon="-3.7800183">
        <ele>610.85</ele>
        <time>2021-03-24T17:33:49Z</time>
      </trkpt>
      <trkpt lat="40.193512" lon="-3.7800114">
        <ele>610.85</ele>
        <time>2021-03-24T17:33:50Z</time>
      </trkpt>
      <trkpt lat="40.19356" lon="-3.7800057">
        <ele>610.85</ele>
        <time>2021-03-24T17:33:51Z</time>
      </trkpt>
      <trkpt lat="40.193665" lon="-3.779995">
        <ele>610.85</ele>
        <time>2021-03-24T17:33:53Z</time>
      </trkpt>
      <trkpt lat="40.193707" lon="-3.779989">
        <ele>610.85</ele>
        <time>2021-03-24T17:33:54Z</time>
      </trkpt>
      <trkpt lat="40.193806" lon="-3.779975">
        <ele>610.85</ele>
        <time>2021-03-24T17:33:56Z</time>
      </trkpt>
      <trkpt lat="40.19391" lon="-3.779958">
        <ele>610.85</ele>
        <time>2021-03-24T17:33:58Z</time>
      </trkpt>
      <trkpt lat="40.193962" lon="-3.7799494">
        <ele>610.85</ele>
        <time>2021-03-24T17:33:59Z</time>
      </trkpt>
      <trkpt lat="40.194016" lon="-3.7799404">
        <ele>612.03</ele>
        <time>2021-03-24T17:34:00Z</time>
      </trkpt>
      <trkpt lat="40.194122" lon="-3.779924">
        <ele>612.03</ele>
        <time>2021-03-24T17:34:02Z</time>
      </trkpt>
      <trkpt lat="40.19418" lon="-3.779915">
        <ele>612.03</ele>
        <time>2021-03-24T17:34:03Z</time>
      </trkpt>
      <trkpt lat="40.194233" lon="-3.779907">
        <ele>612.03</ele>
        <time>2021-03-24T17:34:04Z</time>
      </trkpt>
      <trkpt lat="40.194286" lon="-3.779898">
        <ele>612.03</ele>
        <time>2021-03-24T17:34:05Z</time>
      </trkpt>
      <trkpt lat="40.19434" lon="-3.7798893">
        <ele>612.03</ele>
        <time>2021-03-24T17:34:06Z</time>
      </trkpt>
      <trkpt lat="40.194393" lon="-3.7798796">
        <ele>612.03</ele>
        <time>2021-03-24T17:34:07Z</time>
      </trkpt>
      <trkpt lat="40.194447" lon="-3.77987">
        <ele>612.03</ele>
        <time>2021-03-24T17:34:08Z</time>
      </trkpt>
      <trkpt lat="40.19455" lon="-3.779849">
        <ele>611.66</ele>
        <time>2021-03-24T17:34:10Z</time>
      </trkpt>
      <trkpt lat="40.1946" lon="-3.7798378">
        <ele>611.66</ele>
        <time>2021-03-24T17:34:11Z</time>
      </trkpt>
      <trkpt lat="40.19465" lon="-3.7798266">
        <ele>611.66</ele>
        <time>2021-03-24T17:34:12Z</time>
      </trkpt>
      <trkpt lat="40.19475" lon="-3.7798042">
        <ele>612.84</ele>
        <time>2021-03-24T17:34:14Z</time>
      </trkpt>
      <trkpt lat="40.1948" lon="-3.7797935">
        <ele>612.84</ele>
        <time>2021-03-24T17:34:15Z</time>
      </trkpt>
      <trkpt lat="40.194904" lon="-3.779771">
        <ele>612.84</ele>
        <time>2021-03-24T17:34:17Z</time>
      </trkpt>
      <trkpt lat="40.19495" lon="-3.7797596">
        <ele>612.84</ele>
        <time>2021-03-24T17:34:18Z</time>
      </trkpt>
      <trkpt lat="40.19505" lon="-3.7797346">
        <ele>612.84</ele>
        <time>2021-03-24T17:34:20Z</time>
      </trkpt>
      <trkpt lat="40.19515" lon="-3.779705">
        <ele>612.84</ele>
        <time>2021-03-24T17:34:22Z</time>
      </trkpt>
      <trkpt lat="40.195198" lon="-3.779688">
        <ele>612.84</ele>
        <time>2021-03-24T17:34:23Z</time>
      </trkpt>
      <trkpt lat="40.195293" lon="-3.7796493">
        <ele>612.84</ele>
        <time>2021-03-24T17:34:25Z</time>
      </trkpt>
      <trkpt lat="40.195343" lon="-3.7796302">
        <ele>612.84</ele>
        <time>2021-03-24T17:34:26Z</time>
      </trkpt>
      <trkpt lat="40.19542" lon="-3.7795994">
        <ele>612.84</ele>
        <time>2021-03-24T17:34:28Z</time>
      </trkpt>
      <trkpt lat="40.195465" lon="-3.7795815">
        <ele>612.84</ele>
        <time>2021-03-24T17:34:30Z</time>
      </trkpt>
      <trkpt lat="40.195457" lon="-3.7795975">
        <ele>612.84</ele>
        <time>2021-03-24T17:34:39Z</time>
      </trkpt>
      <trkpt lat="40.195393" lon="-3.7796326">
        <ele>612.84</ele>
        <time>2021-03-24T17:34:42Z</time>
      </trkpt>
      <trkpt lat="40.195324" lon="-3.7796626">
        <ele>614.02</ele>
        <time>2021-03-24T17:34:44Z</time>
      </trkpt>
      <trkpt lat="40.19524" lon="-3.7796886">
        <ele>614.02</ele>
        <time>2021-03-24T17:34:46Z</time>
      </trkpt>
      <trkpt lat="40.19515" lon="-3.7797117">
        <ele>614.02</ele>
        <time>2021-03-24T17:34:48Z</time>
      </trkpt>
      <trkpt lat="40.1951" lon="-3.7797225">
        <ele>614.02</ele>
        <time>2021-03-24T17:34:49Z</time>
      </trkpt>
      <trkpt lat="40.195004" lon="-3.779742">
        <ele>614.02</ele>
        <time>2021-03-24T17:34:51Z</time>
      </trkpt>
      <trkpt lat="40.194954" lon="-3.7797508">
        <ele>614.02</ele>
        <time>2021-03-24T17:34:52Z</time>
      </trkpt>
      <trkpt lat="40.19486" lon="-3.7797697">
        <ele>614.02</ele>
        <time>2021-03-24T17:34:54Z</time>
      </trkpt>
      <trkpt lat="40.194767" lon="-3.779798">
        <ele>614.02</ele>
        <time>2021-03-24T17:34:56Z</time>
      </trkpt>
      <trkpt lat="40.19473" lon="-3.7798219">
        <ele>614.02</ele>
        <time>2021-03-24T17:34:57Z</time>
      </trkpt>
      <trkpt lat="40.19467" lon="-3.7798836">
        <ele>614.02</ele>
        <time>2021-03-24T17:34:59Z</time>
      </trkpt>
      <trkpt lat="40.194645" lon="-3.7799613">
        <ele>614.02</ele>
        <time>2021-03-24T17:35:01Z</time>
      </trkpt>
      <trkpt lat="40.194633" lon="-3.7800586">
        <ele>614.02</ele>
        <time>2021-03-24T17:35:03Z</time>
      </trkpt>
      <trkpt lat="40.19464" lon="-3.7801623">
        <ele>614.02</ele>
        <time>2021-03-24T17:35:05Z</time>
      </trkpt>
      <trkpt lat="40.19466" lon="-3.780273">
        <ele>614.02</ele>
        <time>2021-03-24T17:35:07Z</time>
      </trkpt>
      <trkpt lat="40.194695" lon="-3.7803793">
        <ele>614.02</ele>
        <time>2021-03-24T17:35:09Z</time>
      </trkpt>
      <trkpt lat="40.19474" lon="-3.7804775">
        <ele>614.02</ele>
        <time>2021-03-24T17:35:11Z</time>
      </trkpt>
      <trkpt lat="40.19479" lon="-3.7805696">
        <ele>614.02</ele>
        <time>2021-03-24T17:35:13Z</time>
      </trkpt>
      <trkpt lat="40.19485" lon="-3.780665">
        <ele>614.02</ele>
        <time>2021-03-24T17:35:15Z</time>
      </trkpt>
      <trkpt lat="40.19488" lon="-3.7807086">
        <ele>614.02</ele>
        <time>2021-03-24T17:35:16Z</time>
      </trkpt>
      <trkpt lat="40.194942" lon="-3.780802">
        <ele>614.02</ele>
        <time>2021-03-24T17:35:18Z</time>
      </trkpt>
      <trkpt lat="40.195007" lon="-3.780895">
        <ele>614.02</ele>
        <time>2021-03-24T17:35:20Z</time>
      </trkpt>
      <trkpt lat="40.19507" lon="-3.7809896">
        <ele>614.02</ele>
        <time>2021-03-24T17:35:22Z</time>
      </trkpt>
      <trkpt lat="40.195133" lon="-3.7810934">
        <ele>614.02</ele>
        <time>2021-03-24T17:35:24Z</time>
      </trkpt>
      <trkpt lat="40.195164" lon="-3.781142">
        <ele>614.02</ele>
        <time>2021-03-24T17:35:25Z</time>
      </trkpt>
      <trkpt lat="40.19523" lon="-3.7812448">
        <ele>614.02</ele>
        <time>2021-03-24T17:35:27Z</time>
      </trkpt>
      <trkpt lat="40.195263" lon="-3.781297">
        <ele>614.02</ele>
        <time>2021-03-24T17:35:28Z</time>
      </trkpt>
      <trkpt lat="40.195297" lon="-3.7813463">
        <ele>614.02</ele>
        <time>2021-03-24T17:35:29Z</time>
      </trkpt>
      <trkpt lat="40.19533" lon="-3.781396">
        <ele>614.02</ele>
        <time>2021-03-24T17:35:30Z</time>
      </trkpt>
      <trkpt lat="40.195362" lon="-3.781446">
        <ele>614.02</ele>
        <time>2021-03-24T17:35:31Z</time>
      </trkpt>
      <trkpt lat="40.195427" lon="-3.7815526">
        <ele>614.02</ele>
        <time>2021-03-24T17:35:33Z</time>
      </trkpt>
      <trkpt lat="40.19546" lon="-3.7816072">
        <ele>614.02</ele>
        <time>2021-03-24T17:35:34Z</time>
      </trkpt>
      <trkpt lat="40.195496" lon="-3.7816617">
        <ele>614.02</ele>
        <time>2021-03-24T17:35:35Z</time>
      </trkpt>
      <trkpt lat="40.195526" lon="-3.7817156">
        <ele>614.02</ele>
        <time>2021-03-24T17:35:36Z</time>
      </trkpt>
      <trkpt lat="40.19559" lon="-3.7818303">
        <ele>614.02</ele>
        <time>2021-03-24T17:35:38Z</time>
      </trkpt>
      <trkpt lat="40.19562" lon="-3.7818828">
        <ele>614.02</ele>
        <time>2021-03-24T17:35:39Z</time>
      </trkpt>
      <trkpt lat="40.195686" lon="-3.781991">
        <ele>614.02</ele>
        <time>2021-03-24T17:35:41Z</time>
      </trkpt>
      <trkpt lat="40.19572" lon="-3.782043">
        <ele>614.02</ele>
        <time>2021-03-24T17:35:42Z</time>
      </trkpt>
      <trkpt lat="40.195755" lon="-3.782093">
        <ele>614.02</ele>
        <time>2021-03-24T17:35:43Z</time>
      </trkpt>
      <trkpt lat="40.195793" lon="-3.7821393">
        <ele>614.02</ele>
        <time>2021-03-24T17:35:44Z</time>
      </trkpt>
      <trkpt lat="40.195885" lon="-3.7822254">
        <ele>615.2</ele>
        <time>2021-03-24T17:35:46Z</time>
      </trkpt>
      <trkpt lat="40.195927" lon="-3.78226">
        <ele>615.2</ele>
        <time>2021-03-24T17:35:47Z</time>
      </trkpt>
      <trkpt lat="40.19601" lon="-3.7823198">
        <ele>615.2</ele>
        <time>2021-03-24T17:35:49Z</time>
      </trkpt>
      <trkpt lat="40.196106" lon="-3.7823713">
        <ele>615.2</ele>
        <time>2021-03-24T17:35:51Z</time>
      </trkpt>
      <trkpt lat="40.196198" lon="-3.782418">
        <ele>615.2</ele>
        <time>2021-03-24T17:35:53Z</time>
      </trkpt>
      <trkpt lat="40.19629" lon="-3.782465">
        <ele>615.2</ele>
        <time>2021-03-24T17:35:55Z</time>
      </trkpt>
      <trkpt lat="40.196377" lon="-3.7825143">
        <ele>615.2</ele>
        <time>2021-03-24T17:35:57Z</time>
      </trkpt>
      <trkpt lat="40.196426" lon="-3.782542">
        <ele>615.2</ele>
        <time>2021-03-24T17:35:58Z</time>
      </trkpt>
      <trkpt lat="40.196472" lon="-3.7825696">
        <ele>615.2</ele>
        <time>2021-03-24T17:35:59Z</time>
      </trkpt>
      <trkpt lat="40.196518" lon="-3.7825978">
        <ele>615.2</ele>
        <time>2021-03-24T17:36:00Z</time>
      </trkpt>
      <trkpt lat="40.196606" lon="-3.782652">
        <ele>615.2</ele>
        <time>2021-03-24T17:36:02Z</time>
      </trkpt>
      <trkpt lat="40.19665" lon="-3.782682">
        <ele>616.48</ele>
        <time>2021-03-24T17:36:03Z</time>
      </trkpt>
      <trkpt lat="40.19674" lon="-3.782741">
        <ele>616.48</ele>
        <time>2021-03-24T17:36:05Z</time>
      </trkpt>
      <trkpt lat="40.19678" lon="-3.782771">
        <ele>616.48</ele>
        <time>2021-03-24T17:36:06Z</time>
      </trkpt>
      <trkpt lat="40.19687" lon="-3.7828379">
        <ele>616.48</ele>
        <time>2021-03-24T17:36:08Z</time>
      </trkpt>
      <trkpt lat="40.196953" lon="-3.7829034">
        <ele>611.77</ele>
        <time>2021-03-24T17:36:10Z</time>
      </trkpt>
      <trkpt lat="40.197037" lon="-3.7829697">
        <ele>612.95</ele>
        <time>2021-03-24T17:36:12Z</time>
      </trkpt>
      <trkpt lat="40.19708" lon="-3.7830036">
        <ele>612.95</ele>
        <time>2021-03-24T17:36:13Z</time>
      </trkpt>
      <trkpt lat="40.197117" lon="-3.7830358">
        <ele>612.95</ele>
        <time>2021-03-24T17:36:14Z</time>
      </trkpt>
      <trkpt lat="40.197197" lon="-3.783101">
        <ele>612.95</ele>
        <time>2021-03-24T17:36:16Z</time>
      </trkpt>
      <trkpt lat="40.197285" lon="-3.7831733">
        <ele>612.95</ele>
        <time>2021-03-24T17:36:18Z</time>
      </trkpt>
      <trkpt lat="40.19736" lon="-3.7832425">
        <ele>612.95</ele>
        <time>2021-03-24T17:36:20Z</time>
      </trkpt>
      <trkpt lat="40.19745" lon="-3.7833164">
        <ele>614.13</ele>
        <time>2021-03-24T17:36:22Z</time>
      </trkpt>
      <trkpt lat="40.197533" lon="-3.7833855">
        <ele>614.13</ele>
        <time>2021-03-24T17:36:24Z</time>
      </trkpt>
      <trkpt lat="40.19758" lon="-3.7834196">
        <ele>614.13</ele>
        <time>2021-03-24T17:36:25Z</time>
      </trkpt>
      <trkpt lat="40.19767" lon="-3.7834816">
        <ele>614.13</ele>
        <time>2021-03-24T17:36:27Z</time>
      </trkpt>
      <trkpt lat="40.197716" lon="-3.783509">
        <ele>614.13</ele>
        <time>2021-03-24T17:36:28Z</time>
      </trkpt>
      <trkpt lat="40.197803" lon="-3.783561">
        <ele>614.13</ele>
        <time>2021-03-24T17:36:30Z</time>
      </trkpt>
      <trkpt lat="40.1979" lon="-3.7836006">
        <ele>614.13</ele>
        <time>2021-03-24T17:36:32Z</time>
      </trkpt>
      <trkpt lat="40.198" lon="-3.783634">
        <ele>614.13</ele>
        <time>2021-03-24T17:36:34Z</time>
      </trkpt>
      <trkpt lat="40.198055" lon="-3.783649">
        <ele>614.13</ele>
        <time>2021-03-24T17:36:35Z</time>
      </trkpt>
      <trkpt lat="40.19811" lon="-3.7836623">
        <ele>614.13</ele>
        <time>2021-03-24T17:36:36Z</time>
      </trkpt>
      <trkpt lat="40.198162" lon="-3.7836745">
        <ele>614.13</ele>
        <time>2021-03-24T17:36:37Z</time>
      </trkpt>
      <trkpt lat="40.19822" lon="-3.7836864">
        <ele>614.13</ele>
        <time>2021-03-24T17:36:38Z</time>
      </trkpt>
      <trkpt lat="40.19828" lon="-3.7836976">
        <ele>614.13</ele>
        <time>2021-03-24T17:36:39Z</time>
      </trkpt>
      <trkpt lat="40.19835" lon="-3.783709">
        <ele>614.13</ele>
        <time>2021-03-24T17:36:40Z</time>
      </trkpt>
      <trkpt lat="40.19841" lon="-3.7837183">
        <ele>614.13</ele>
        <time>2021-03-24T17:36:41Z</time>
      </trkpt>
      <trkpt lat="40.198475" lon="-3.783727">
        <ele>614.13</ele>
        <time>2021-03-24T17:36:42Z</time>
      </trkpt>
      <trkpt lat="40.198544" lon="-3.7837348">
        <ele>614.13</ele>
        <time>2021-03-24T17:36:43Z</time>
      </trkpt>
      <trkpt lat="40.198612" lon="-3.7837412">
        <ele>614.13</ele>
        <time>2021-03-24T17:36:44Z</time>
      </trkpt>
      <trkpt lat="40.198673" lon="-3.7837462">
        <ele>614.13</ele>
        <time>2021-03-24T17:36:45Z</time>
      </trkpt>
      <trkpt lat="40.19874" lon="-3.7837508">
        <ele>614.13</ele>
        <time>2021-03-24T17:36:46Z</time>
      </trkpt>
      <trkpt lat="40.198803" lon="-3.7837543">
        <ele>614.13</ele>
        <time>2021-03-24T17:36:47Z</time>
      </trkpt>
      <trkpt lat="40.198868" lon="-3.7837577">
        <ele>614.13</ele>
        <time>2021-03-24T17:36:48Z</time>
      </trkpt>
      <trkpt lat="40.198936" lon="-3.78376">
        <ele>614.13</ele>
        <time>2021-03-24T17:36:49Z</time>
      </trkpt>
      <trkpt lat="40.199" lon="-3.7837605">
        <ele>614.13</ele>
        <time>2021-03-24T17:36:50Z</time>
      </trkpt>
      <trkpt lat="40.199066" lon="-3.7837596">
        <ele>614.13</ele>
        <time>2021-03-24T17:36:51Z</time>
      </trkpt>
      <trkpt lat="40.19914" lon="-3.7837577">
        <ele>614.13</ele>
        <time>2021-03-24T17:36:52Z</time>
      </trkpt>
      <trkpt lat="40.199207" lon="-3.7837543">
        <ele>614.13</ele>
        <time>2021-03-24T17:36:53Z</time>
      </trkpt>
      <trkpt lat="40.199276" lon="-3.7837493">
        <ele>614.13</ele>
        <time>2021-03-24T17:36:54Z</time>
      </trkpt>
      <trkpt lat="40.19934" lon="-3.783746">
        <ele>614.13</ele>
        <time>2021-03-24T17:36:55Z</time>
      </trkpt>
      <trkpt lat="40.199406" lon="-3.7837417">
        <ele>614.13</ele>
        <time>2021-03-24T17:36:56Z</time>
      </trkpt>
      <trkpt lat="40.19947" lon="-3.7837377">
        <ele>614.13</ele>
        <time>2021-03-24T17:36:57Z</time>
      </trkpt>
      <trkpt lat="40.199535" lon="-3.783733">
        <ele>614.13</ele>
        <time>2021-03-24T17:36:58Z</time>
      </trkpt>
      <trkpt lat="40.199604" lon="-3.783728">
        <ele>614.13</ele>
        <time>2021-03-24T17:36:59Z</time>
      </trkpt>
      <trkpt lat="40.19967" lon="-3.7837236">
        <ele>614.13</ele>
        <time>2021-03-24T17:37:00Z</time>
      </trkpt>
      <trkpt lat="40.199738" lon="-3.7837188">
        <ele>614.13</ele>
        <time>2021-03-24T17:37:01Z</time>
      </trkpt>
      <trkpt lat="40.19981" lon="-3.7837124">
        <ele>614.13</ele>
        <time>2021-03-24T17:37:02Z</time>
      </trkpt>
      <trkpt lat="40.199875" lon="-3.7837067">
        <ele>614.13</ele>
        <time>2021-03-24T17:37:03Z</time>
      </trkpt>
      <trkpt lat="40.19994" lon="-3.7837007">
        <ele>614.13</ele>
        <time>2021-03-24T17:37:04Z</time>
      </trkpt>
      <trkpt lat="40.200005" lon="-3.7836936">
        <ele>614.13</ele>
        <time>2021-03-24T17:37:05Z</time>
      </trkpt>
      <trkpt lat="40.200077" lon="-3.7836876">
        <ele>614.13</ele>
        <time>2021-03-24T17:37:06Z</time>
      </trkpt>
      <trkpt lat="40.20015" lon="-3.7836823">
        <ele>614.13</ele>
        <time>2021-03-24T17:37:07Z</time>
      </trkpt>
      <trkpt lat="40.200214" lon="-3.7836773">
        <ele>614.13</ele>
        <time>2021-03-24T17:37:08Z</time>
      </trkpt>
      <trkpt lat="40.20028" lon="-3.7836723">
        <ele>614.13</ele>
        <time>2021-03-24T17:37:09Z</time>
      </trkpt>
      <trkpt lat="40.200348" lon="-3.7836657">
        <ele>614.13</ele>
        <time>2021-03-24T17:37:10Z</time>
      </trkpt>
      <trkpt lat="40.20042" lon="-3.7836583">
        <ele>614.13</ele>
        <time>2021-03-24T17:37:11Z</time>
      </trkpt>
      <trkpt lat="40.20049" lon="-3.783651">
        <ele>614.13</ele>
        <time>2021-03-24T17:37:12Z</time>
      </trkpt>
      <trkpt lat="40.200554" lon="-3.7836454">
        <ele>614.13</ele>
        <time>2021-03-24T17:37:13Z</time>
      </trkpt>
      <trkpt lat="40.20062" lon="-3.78364">
        <ele>614.13</ele>
        <time>2021-03-24T17:37:14Z</time>
      </trkpt>
      <trkpt lat="40.20069" lon="-3.7836347">
        <ele>614.13</ele>
        <time>2021-03-24T17:37:15Z</time>
      </trkpt>
      <trkpt lat="40.20076" lon="-3.7836294">
        <ele>614.13</ele>
        <time>2021-03-24T17:37:16Z</time>
      </trkpt>
      <trkpt lat="40.200825" lon="-3.7836244">
        <ele>614.13</ele>
        <time>2021-03-24T17:37:17Z</time>
      </trkpt>
      <trkpt lat="40.20089" lon="-3.7836206">
        <ele>614.13</ele>
        <time>2021-03-24T17:37:18Z</time>
      </trkpt>
      <trkpt lat="40.200954" lon="-3.7836163">
        <ele>614.13</ele>
        <time>2021-03-24T17:37:19Z</time>
      </trkpt>
      <trkpt lat="40.201027" lon="-3.7836113">
        <ele>614.13</ele>
        <time>2021-03-24T17:37:20Z</time>
      </trkpt>
      <trkpt lat="40.20109" lon="-3.783607">
        <ele>614.13</ele>
        <time>2021-03-24T17:37:21Z</time>
      </trkpt>
      <trkpt lat="40.201157" lon="-3.783602">
        <ele>614.13</ele>
        <time>2021-03-24T17:37:22Z</time>
      </trkpt>
      <trkpt lat="40.20122" lon="-3.7835972">
        <ele>614.13</ele>
        <time>2021-03-24T17:37:23Z</time>
      </trkpt>
      <trkpt lat="40.20129" lon="-3.7835927">
        <ele>614.13</ele>
        <time>2021-03-24T17:37:24Z</time>
      </trkpt>
      <trkpt lat="40.20136" lon="-3.783589">
        <ele>614.13</ele>
        <time>2021-03-24T17:37:25Z</time>
      </trkpt>
      <trkpt lat="40.20142" lon="-3.783587">
        <ele>614.13</ele>
        <time>2021-03-24T17:37:26Z</time>
      </trkpt>
      <trkpt lat="40.201485" lon="-3.783585">
        <ele>614.13</ele>
        <time>2021-03-24T17:37:27Z</time>
      </trkpt>
      <trkpt lat="40.201553" lon="-3.7835817">
        <ele>615.32</ele>
        <time>2021-03-24T17:37:28Z</time>
      </trkpt>
      <trkpt lat="40.201622" lon="-3.7835767">
        <ele>615.32</ele>
        <time>2021-03-24T17:37:29Z</time>
      </trkpt>
      <trkpt lat="40.201687" lon="-3.7835734">
        <ele>615.32</ele>
        <time>2021-03-24T17:37:30Z</time>
      </trkpt>
      <trkpt lat="40.20175" lon="-3.7835734">
        <ele>615.32</ele>
        <time>2021-03-24T17:37:31Z</time>
      </trkpt>
      <trkpt lat="40.20182" lon="-3.7835777">
        <ele>615.32</ele>
        <time>2021-03-24T17:37:32Z</time>
      </trkpt>
      <trkpt lat="40.201885" lon="-3.7835853">
        <ele>615.32</ele>
        <time>2021-03-24T17:37:33Z</time>
      </trkpt>
      <trkpt lat="40.201946" lon="-3.783595">
        <ele>615.32</ele>
        <time>2021-03-24T17:37:34Z</time>
      </trkpt>
      <trkpt lat="40.202007" lon="-3.7836087">
        <ele>615.32</ele>
        <time>2021-03-24T17:37:35Z</time>
      </trkpt>
      <trkpt lat="40.20207" lon="-3.7836254">
        <ele>615.32</ele>
        <time>2021-03-24T17:37:36Z</time>
      </trkpt>
      <trkpt lat="40.202133" lon="-3.783645">
        <ele>615.32</ele>
        <time>2021-03-24T17:37:37Z</time>
      </trkpt>
      <trkpt lat="40.202198" lon="-3.783668">
        <ele>615.32</ele>
        <time>2021-03-24T17:37:38Z</time>
      </trkpt>
      <trkpt lat="40.202263" lon="-3.783693">
        <ele>615.32</ele>
        <time>2021-03-24T17:37:39Z</time>
      </trkpt>
      <trkpt lat="40.202324" lon="-3.783717">
        <ele>615.32</ele>
        <time>2021-03-24T17:37:40Z</time>
      </trkpt>
      <trkpt lat="40.20238" lon="-3.7837422">
        <ele>615.32</ele>
        <time>2021-03-24T17:37:41Z</time>
      </trkpt>
      <trkpt lat="40.202442" lon="-3.783769">
        <ele>615.32</ele>
        <time>2021-03-24T17:37:42Z</time>
      </trkpt>
      <trkpt lat="40.202503" lon="-3.7837994">
        <ele>615.32</ele>
        <time>2021-03-24T17:37:43Z</time>
      </trkpt>
      <trkpt lat="40.20256" lon="-3.7838273">
        <ele>615.32</ele>
        <time>2021-03-24T17:37:44Z</time>
      </trkpt>
      <trkpt lat="40.202618" lon="-3.783856">
        <ele>615.32</ele>
        <time>2021-03-24T17:37:45Z</time>
      </trkpt>
      <trkpt lat="40.20268" lon="-3.783889">
        <ele>615.32</ele>
        <time>2021-03-24T17:37:46Z</time>
      </trkpt>
      <trkpt lat="40.202744" lon="-3.7839236">
        <ele>615.32</ele>
        <time>2021-03-24T17:37:47Z</time>
      </trkpt>
      <trkpt lat="40.2028" lon="-3.7839594">
        <ele>615.32</ele>
        <time>2021-03-24T17:37:48Z</time>
      </trkpt>
      <trkpt lat="40.202858" lon="-3.7839947">
        <ele>615.32</ele>
        <time>2021-03-24T17:37:49Z</time>
      </trkpt>
      <trkpt lat="40.20292" lon="-3.784035">
        <ele>615.32</ele>
        <time>2021-03-24T17:37:50Z</time>
      </trkpt>
      <trkpt lat="40.202976" lon="-3.7840765">
        <ele>615.32</ele>
        <time>2021-03-24T17:37:51Z</time>
      </trkpt>
      <trkpt lat="40.203033" lon="-3.7841163">
        <ele>615.32</ele>
        <time>2021-03-24T17:37:52Z</time>
      </trkpt>
      <trkpt lat="40.203087" lon="-3.7841566">
        <ele>615.32</ele>
        <time>2021-03-24T17:37:53Z</time>
      </trkpt>
      <trkpt lat="40.203148" lon="-3.7841988">
        <ele>615.32</ele>
        <time>2021-03-24T17:37:54Z</time>
      </trkpt>
      <trkpt lat="40.203205" lon="-3.7842407">
        <ele>615.32</ele>
        <time>2021-03-24T17:37:55Z</time>
      </trkpt>
      <trkpt lat="40.203266" lon="-3.7842858">
        <ele>615.32</ele>
        <time>2021-03-24T17:37:56Z</time>
      </trkpt>
      <trkpt lat="40.20332" lon="-3.7843323">
        <ele>615.32</ele>
        <time>2021-03-24T17:37:57Z</time>
      </trkpt>
      <trkpt lat="40.20337" lon="-3.78438">
        <ele>615.32</ele>
        <time>2021-03-24T17:37:58Z</time>
      </trkpt>
      <trkpt lat="40.203415" lon="-3.7844367">
        <ele>615.32</ele>
        <time>2021-03-24T17:37:59Z</time>
      </trkpt>
      <trkpt lat="40.203453" lon="-3.7844994">
        <ele>615.32</ele>
        <time>2021-03-24T17:38:00Z</time>
      </trkpt>
      <trkpt lat="40.203484" lon="-3.7845623">
        <ele>615.32</ele>
        <time>2021-03-24T17:38:01Z</time>
      </trkpt>
      <trkpt lat="40.203518" lon="-3.784704">
        <ele>615.32</ele>
        <time>2021-03-24T17:38:03Z</time>
      </trkpt>
      <trkpt lat="40.203526" lon="-3.7847786">
        <ele>615.32</ele>
        <time>2021-03-24T17:38:04Z</time>
      </trkpt>
      <trkpt lat="40.203518" lon="-3.7848566">
        <ele>615.32</ele>
        <time>2021-03-24T17:38:05Z</time>
      </trkpt>
      <trkpt lat="40.203487" lon="-3.7849972">
        <ele>615.32</ele>
        <time>2021-03-24T17:38:07Z</time>
      </trkpt>
      <trkpt lat="40.203465" lon="-3.7850683">
        <ele>615.32</ele>
        <time>2021-03-24T17:38:08Z</time>
      </trkpt>
      <trkpt lat="40.20344" lon="-3.785132">
        <ele>617.11</ele>
        <time>2021-03-24T17:38:09Z</time>
      </trkpt>
      <trkpt lat="40.20342" lon="-3.785197">
        <ele>617.11</ele>
        <time>2021-03-24T17:38:10Z</time>
      </trkpt>
      <trkpt lat="40.203392" lon="-3.7852623">
        <ele>617.11</ele>
        <time>2021-03-24T17:38:11Z</time>
      </trkpt>
      <trkpt lat="40.203365" lon="-3.7853277">
        <ele>617.11</ele>
        <time>2021-03-24T17:38:12Z</time>
      </trkpt>
      <trkpt lat="40.203342" lon="-3.7853932">
        <ele>617.11</ele>
        <time>2021-03-24T17:38:13Z</time>
      </trkpt>
      <trkpt lat="40.203316" lon="-3.7854593">
        <ele>617.11</ele>
        <time>2021-03-24T17:38:14Z</time>
      </trkpt>
      <trkpt lat="40.203293" lon="-3.7855253">
        <ele>617.11</ele>
        <time>2021-03-24T17:38:15Z</time>
      </trkpt>
      <trkpt lat="40.20327" lon="-3.7855914">
        <ele>617.11</ele>
        <time>2021-03-24T17:38:16Z</time>
      </trkpt>
      <trkpt lat="40.203247" lon="-3.785657">
        <ele>617.11</ele>
        <time>2021-03-24T17:38:17Z</time>
      </trkpt>
      <trkpt lat="40.203224" lon="-3.7857223">
        <ele>617.11</ele>
        <time>2021-03-24T17:38:18Z</time>
      </trkpt>
      <trkpt lat="40.203197" lon="-3.7857912">
        <ele>618.29</ele>
        <time>2021-03-24T17:38:19Z</time>
      </trkpt>
      <trkpt lat="40.20317" lon="-3.7858558">
        <ele>618.29</ele>
        <time>2021-03-24T17:38:20Z</time>
      </trkpt>
      <trkpt lat="40.20315" lon="-3.7859137">
        <ele>618.29</ele>
        <time>2021-03-24T17:38:21Z</time>
      </trkpt>
      <trkpt lat="40.20313" lon="-3.78597">
        <ele>618.29</ele>
        <time>2021-03-24T17:38:22Z</time>
      </trkpt>
      <trkpt lat="40.203094" lon="-3.78608">
        <ele>618.29</ele>
        <time>2021-03-24T17:38:24Z</time>
      </trkpt>
      <trkpt lat="40.20306" lon="-3.786185">
        <ele>618.29</ele>
        <time>2021-03-24T17:38:26Z</time>
      </trkpt>
      <trkpt lat="40.203026" lon="-3.7863057">
        <ele>618.29</ele>
        <time>2021-03-24T17:38:28Z</time>
      </trkpt>
      <trkpt lat="40.203007" lon="-3.786367">
        <ele>618.29</ele>
        <time>2021-03-24T17:38:29Z</time>
      </trkpt>
      <trkpt lat="40.202965" lon="-3.7864854">
        <ele>619.56</ele>
        <time>2021-03-24T17:38:31Z</time>
      </trkpt>
      <trkpt lat="40.202915" lon="-3.786604">
        <ele>619.56</ele>
        <time>2021-03-24T17:38:33Z</time>
      </trkpt>
      <trkpt lat="40.202892" lon="-3.7866578">
        <ele>619.56</ele>
        <time>2021-03-24T17:38:34Z</time>
      </trkpt>
      <trkpt lat="40.202847" lon="-3.7867723">
        <ele>619.56</ele>
        <time>2021-03-24T17:38:36Z</time>
      </trkpt>
      <trkpt lat="40.202824" lon="-3.7868302">
        <ele>619.56</ele>
        <time>2021-03-24T17:38:37Z</time>
      </trkpt>
      <trkpt lat="40.202797" lon="-3.7868867">
        <ele>619.56</ele>
        <time>2021-03-24T17:38:38Z</time>
      </trkpt>
      <trkpt lat="40.20275" lon="-3.786992">
        <ele>619.56</ele>
        <time>2021-03-24T17:38:40Z</time>
      </trkpt>
      <trkpt lat="40.202732" lon="-3.787045">
        <ele>619.56</ele>
        <time>2021-03-24T17:38:41Z</time>
      </trkpt>
      <trkpt lat="40.202682" lon="-3.7871535">
        <ele>619.56</ele>
        <time>2021-03-24T17:38:43Z</time>
      </trkpt>
      <trkpt lat="40.20263" lon="-3.7872596">
        <ele>619.56</ele>
        <time>2021-03-24T17:38:45Z</time>
      </trkpt>
      <trkpt lat="40.202576" lon="-3.787372">
        <ele>619.56</ele>
        <time>2021-03-24T17:38:47Z</time>
      </trkpt>
      <trkpt lat="40.20255" lon="-3.7874293">
        <ele>619.56</ele>
        <time>2021-03-24T17:38:48Z</time>
      </trkpt>
      <trkpt lat="40.202507" lon="-3.7875419">
        <ele>619.56</ele>
        <time>2021-03-24T17:38:50Z</time>
      </trkpt>
      <trkpt lat="40.202484" lon="-3.7876027">
        <ele>619.56</ele>
        <time>2021-03-24T17:38:51Z</time>
      </trkpt>
      <trkpt lat="40.202465" lon="-3.787662">
        <ele>619.56</ele>
        <time>2021-03-24T17:38:52Z</time>
      </trkpt>
      <trkpt lat="40.202423" lon="-3.787773">
        <ele>619.56</ele>
        <time>2021-03-24T17:38:54Z</time>
      </trkpt>
      <trkpt lat="40.2024" lon="-3.787832">
        <ele>619.56</ele>
        <time>2021-03-24T17:38:55Z</time>
      </trkpt>
      <trkpt lat="40.20236" lon="-3.7879412">
        <ele>619.56</ele>
        <time>2021-03-24T17:38:57Z</time>
      </trkpt>
      <trkpt lat="40.202316" lon="-3.7880464">
        <ele>619.56</ele>
        <time>2021-03-24T17:38:59Z</time>
      </trkpt>
      <trkpt lat="40.202282" lon="-3.788146">
        <ele>620.84</ele>
        <time>2021-03-24T17:39:01Z</time>
      </trkpt>
      <trkpt lat="40.20225" lon="-3.788233">
        <ele>620.84</ele>
        <time>2021-03-24T17:39:03Z</time>
      </trkpt>
      <trkpt lat="40.202217" lon="-3.788324">
        <ele>620.84</ele>
        <time>2021-03-24T17:39:05Z</time>
      </trkpt>
      <trkpt lat="40.202183" lon="-3.7884073">
        <ele>622.02</ele>
        <time>2021-03-24T17:39:07Z</time>
      </trkpt>
      <trkpt lat="40.202152" lon="-3.7884948">
        <ele>622.02</ele>
        <time>2021-03-24T17:39:09Z</time>
      </trkpt>
      <trkpt lat="40.20212" lon="-3.7885818">
        <ele>623.38</ele>
        <time>2021-03-24T17:39:11Z</time>
      </trkpt>
      <trkpt lat="40.20209" lon="-3.7886722">
        <ele>623.38</ele>
        <time>2021-03-24T17:39:13Z</time>
      </trkpt>
      <trkpt lat="40.202065" lon="-3.7887673">
        <ele>623.38</ele>
        <time>2021-03-24T17:39:15Z</time>
      </trkpt>
      <trkpt lat="40.20204" lon="-3.7888596">
        <ele>624.66</ele>
        <time>2021-03-24T17:39:17Z</time>
      </trkpt>
      <trkpt lat="40.202015" lon="-3.7889524">
        <ele>624.66</ele>
        <time>2021-03-24T17:39:19Z</time>
      </trkpt>
      <trkpt lat="40.20199" lon="-3.7890382">
        <ele>625.84</ele>
        <time>2021-03-24T17:39:21Z</time>
      </trkpt>
      <trkpt lat="40.201965" lon="-3.7891276">
        <ele>625.84</ele>
        <time>2021-03-24T17:39:23Z</time>
      </trkpt>
      <trkpt lat="40.201946" lon="-3.7892103">
        <ele>627.02</ele>
        <time>2021-03-24T17:39:25Z</time>
      </trkpt>
      <trkpt lat="40.201923" lon="-3.789294">
        <ele>627.02</ele>
        <time>2021-03-24T17:39:27Z</time>
      </trkpt>
      <trkpt lat="40.2019" lon="-3.7893791">
        <ele>627.02</ele>
        <time>2021-03-24T17:39:29Z</time>
      </trkpt>
      <trkpt lat="40.201874" lon="-3.789473">
        <ele>627.02</ele>
        <time>2021-03-24T17:39:31Z</time>
      </trkpt>
      <trkpt lat="40.201843" lon="-3.7895727">
        <ele>627.02</ele>
        <time>2021-03-24T17:39:33Z</time>
      </trkpt>
      <trkpt lat="40.20181" lon="-3.789668">
        <ele>627.02</ele>
        <time>2021-03-24T17:39:35Z</time>
      </trkpt>
      <trkpt lat="40.20177" lon="-3.7897766">
        <ele>627.02</ele>
        <time>2021-03-24T17:39:37Z</time>
      </trkpt>
      <trkpt lat="40.201733" lon="-3.7898903">
        <ele>627.02</ele>
        <time>2021-03-24T17:39:39Z</time>
      </trkpt>
      <trkpt lat="40.201706" lon="-3.7899566">
        <ele>627.02</ele>
        <time>2021-03-24T17:39:40Z</time>
      </trkpt>
      <trkpt lat="40.20168" lon="-3.7900236">
        <ele>627.02</ele>
        <time>2021-03-24T17:39:41Z</time>
      </trkpt>
      <trkpt lat="40.201653" lon="-3.7900922">
        <ele>627.02</ele>
        <time>2021-03-24T17:39:42Z</time>
      </trkpt>
      <trkpt lat="40.201622" lon="-3.7901564">
        <ele>627.02</ele>
        <time>2021-03-24T17:39:43Z</time>
      </trkpt>
      <trkpt lat="40.201588" lon="-3.7902226">
        <ele>625.56</ele>
        <time>2021-03-24T17:39:44Z</time>
      </trkpt>
      <trkpt lat="40.20155" lon="-3.7902932">
        <ele>625.56</ele>
        <time>2021-03-24T17:39:45Z</time>
      </trkpt>
      <trkpt lat="40.20151" lon="-3.7903602">
        <ele>625.56</ele>
        <time>2021-03-24T17:39:46Z</time>
      </trkpt>
      <trkpt lat="40.20148" lon="-3.7904227">
        <ele>625.56</ele>
        <time>2021-03-24T17:39:47Z</time>
      </trkpt>
      <trkpt lat="40.201458" lon="-3.7904756">
        <ele>624.38</ele>
        <time>2021-03-24T17:39:48Z</time>
      </trkpt>
      <trkpt lat="40.20144" lon="-3.790564">
        <ele>624.38</ele>
        <time>2021-03-24T17:39:50Z</time>
      </trkpt>
      <trkpt lat="40.201454" lon="-3.7906067">
        <ele>623.02</ele>
        <time>2021-03-24T17:39:52Z</time>
      </trkpt>
      <trkpt lat="40.201515" lon="-3.790564">
        <ele>621.84</ele>
        <time>2021-03-24T17:39:55Z</time>
      </trkpt>
      <trkpt lat="40.201565" lon="-3.7904944">
        <ele>621.84</ele>
        <time>2021-03-24T17:39:57Z</time>
      </trkpt>
      <trkpt lat="40.201664" lon="-3.7903852">
        <ele>621.84</ele>
        <time>2021-03-24T17:40:00Z</time>
      </trkpt>
      <trkpt lat="40.201748" lon="-3.7903564">
        <ele>621.84</ele>
        <time>2021-03-24T17:40:02Z</time>
      </trkpt>
      <trkpt lat="40.201843" lon="-3.790372">
        <ele>621.84</ele>
        <time>2021-03-24T17:40:04Z</time>
      </trkpt>
      <trkpt lat="40.20194" lon="-3.790411">
        <ele>621.84</ele>
        <time>2021-03-24T17:40:06Z</time>
      </trkpt>
      <trkpt lat="40.202087" lon="-3.790486">
        <ele>617.8</ele>
        <time>2021-03-24T17:40:09Z</time>
      </trkpt>
      <trkpt lat="40.202137" lon="-3.7905092">
        <ele>617.8</ele>
        <time>2021-03-24T17:40:10Z</time>
      </trkpt>
      <trkpt lat="40.20219" lon="-3.7905304">
        <ele>617.8</ele>
        <time>2021-03-24T17:40:11Z</time>
      </trkpt>
      <trkpt lat="40.20224" lon="-3.7905524">
        <ele>617.8</ele>
        <time>2021-03-24T17:40:12Z</time>
      </trkpt>
      <trkpt lat="40.202293" lon="-3.790576">
        <ele>617.8</ele>
        <time>2021-03-24T17:40:13Z</time>
      </trkpt>
      <trkpt lat="40.202347" lon="-3.790602">
        <ele>617.8</ele>
        <time>2021-03-24T17:40:14Z</time>
      </trkpt>
      <trkpt lat="40.2024" lon="-3.790629">
        <ele>617.8</ele>
        <time>2021-03-24T17:40:15Z</time>
      </trkpt>
      <trkpt lat="40.202454" lon="-3.7906582">
        <ele>617.8</ele>
        <time>2021-03-24T17:40:16Z</time>
      </trkpt>
      <trkpt lat="40.202507" lon="-3.7906883">
        <ele>617.8</ele>
        <time>2021-03-24T17:40:17Z</time>
      </trkpt>
      <trkpt lat="40.20256" lon="-3.7907183">
        <ele>617.8</ele>
        <time>2021-03-24T17:40:18Z</time>
      </trkpt>
      <trkpt lat="40.202618" lon="-3.790751">
        <ele>617.8</ele>
        <time>2021-03-24T17:40:19Z</time>
      </trkpt>
      <trkpt lat="40.20267" lon="-3.7907846">
        <ele>617.8</ele>
        <time>2021-03-24T17:40:20Z</time>
      </trkpt>
      <trkpt lat="40.20272" lon="-3.7908163">
        <ele>617.8</ele>
        <time>2021-03-24T17:40:21Z</time>
      </trkpt>
      <trkpt lat="40.20277" lon="-3.7908506">
        <ele>617.8</ele>
        <time>2021-03-24T17:40:22Z</time>
      </trkpt>
      <trkpt lat="40.202824" lon="-3.7908874">
        <ele>617.8</ele>
        <time>2021-03-24T17:40:23Z</time>
      </trkpt>
      <trkpt lat="40.202873" lon="-3.790924">
        <ele>617.8</ele>
        <time>2021-03-24T17:40:24Z</time>
      </trkpt>
      <trkpt lat="40.202923" lon="-3.790961">
        <ele>617.8</ele>
        <time>2021-03-24T17:40:25Z</time>
      </trkpt>
      <trkpt lat="40.20297" lon="-3.7909966">
        <ele>617.8</ele>
        <time>2021-03-24T17:40:26Z</time>
      </trkpt>
      <trkpt lat="40.20302" lon="-3.7910326">
        <ele>617.8</ele>
        <time>2021-03-24T17:40:27Z</time>
      </trkpt>
      <trkpt lat="40.203064" lon="-3.791069">
        <ele>617.8</ele>
        <time>2021-03-24T17:40:28Z</time>
      </trkpt>
      <trkpt lat="40.20311" lon="-3.7911062">
        <ele>617.8</ele>
        <time>2021-03-24T17:40:29Z</time>
      </trkpt>
      <trkpt lat="40.20316" lon="-3.7911456">
        <ele>617.8</ele>
        <time>2021-03-24T17:40:30Z</time>
      </trkpt>
      <trkpt lat="40.20321" lon="-3.7911873">
        <ele>617.8</ele>
        <time>2021-03-24T17:40:31Z</time>
      </trkpt>
      <trkpt lat="40.20326" lon="-3.791229">
        <ele>617.8</ele>
        <time>2021-03-24T17:40:32Z</time>
      </trkpt>
      <trkpt lat="40.20331" lon="-3.7912714">
        <ele>617.8</ele>
        <time>2021-03-24T17:40:33Z</time>
      </trkpt>
      <trkpt lat="40.203358" lon="-3.7913132">
        <ele>617.8</ele>
        <time>2021-03-24T17:40:34Z</time>
      </trkpt>
      <trkpt lat="40.20341" lon="-3.7913527">
        <ele>617.8</ele>
        <time>2021-03-24T17:40:35Z</time>
      </trkpt>
      <trkpt lat="40.203465" lon="-3.7913907">
        <ele>617.8</ele>
        <time>2021-03-24T17:40:36Z</time>
      </trkpt>
      <trkpt lat="40.203518" lon="-3.791429">
        <ele>617.8</ele>
        <time>2021-03-24T17:40:37Z</time>
      </trkpt>
      <trkpt lat="40.20357" lon="-3.7914674">
        <ele>617.8</ele>
        <time>2021-03-24T17:40:38Z</time>
      </trkpt>
      <trkpt lat="40.203625" lon="-3.7915058">
        <ele>617.8</ele>
        <time>2021-03-24T17:40:39Z</time>
      </trkpt>
      <trkpt lat="40.203674" lon="-3.791545">
        <ele>617.8</ele>
        <time>2021-03-24T17:40:40Z</time>
      </trkpt>
      <trkpt lat="40.203728" lon="-3.7915838">
        <ele>617.8</ele>
        <time>2021-03-24T17:40:41Z</time>
      </trkpt>
      <trkpt lat="40.20378" lon="-3.7916214">
        <ele>617.8</ele>
        <time>2021-03-24T17:40:42Z</time>
      </trkpt>
      <trkpt lat="40.20383" lon="-3.791658">
        <ele>617.8</ele>
        <time>2021-03-24T17:40:43Z</time>
      </trkpt>
      <trkpt lat="40.20388" lon="-3.7916946">
        <ele>617.8</ele>
        <time>2021-03-24T17:40:44Z</time>
      </trkpt>
      <trkpt lat="40.203934" lon="-3.791731">
        <ele>617.8</ele>
        <time>2021-03-24T17:40:45Z</time>
      </trkpt>
      <trkpt lat="40.203983" lon="-3.791769">
        <ele>617.8</ele>
        <time>2021-03-24T17:40:46Z</time>
      </trkpt>
      <trkpt lat="40.204033" lon="-3.791806">
        <ele>617.8</ele>
        <time>2021-03-24T17:40:47Z</time>
      </trkpt>
      <trkpt lat="40.204082" lon="-3.79184">
        <ele>617.8</ele>
        <time>2021-03-24T17:40:48Z</time>
      </trkpt>
      <trkpt lat="40.204132" lon="-3.79187">
        <ele>617.8</ele>
        <time>2021-03-24T17:40:49Z</time>
      </trkpt>
      <trkpt lat="40.204185" lon="-3.7918966">
        <ele>617.8</ele>
        <time>2021-03-24T17:40:50Z</time>
      </trkpt>
      <trkpt lat="40.20424" lon="-3.7919207">
        <ele>617.8</ele>
        <time>2021-03-24T17:40:51Z</time>
      </trkpt>
      <trkpt lat="40.204292" lon="-3.7919416">
        <ele>617.8</ele>
        <time>2021-03-24T17:40:52Z</time>
      </trkpt>
      <trkpt lat="40.204346" lon="-3.791962">
        <ele>617.8</ele>
        <time>2021-03-24T17:40:53Z</time>
      </trkpt>
      <trkpt lat="40.204403" lon="-3.7919812">
        <ele>617.8</ele>
        <time>2021-03-24T17:40:54Z</time>
      </trkpt>
      <trkpt lat="40.204456" lon="-3.7919986">
        <ele>617.8</ele>
        <time>2021-03-24T17:40:55Z</time>
      </trkpt>
      <trkpt lat="40.204514" lon="-3.7920163">
        <ele>617.8</ele>
        <time>2021-03-24T17:40:56Z</time>
      </trkpt>
      <trkpt lat="40.20457" lon="-3.7920332">
        <ele>617.8</ele>
        <time>2021-03-24T17:40:57Z</time>
      </trkpt>
      <trkpt lat="40.204624" lon="-3.7920496">
        <ele>617.8</ele>
        <time>2021-03-24T17:40:58Z</time>
      </trkpt>
      <trkpt lat="40.20468" lon="-3.7920663">
        <ele>617.8</ele>
        <time>2021-03-24T17:40:59Z</time>
      </trkpt>
      <trkpt lat="40.20474" lon="-3.7920818">
        <ele>617.8</ele>
        <time>2021-03-24T17:41:00Z</time>
      </trkpt>
      <trkpt lat="40.204796" lon="-3.7920966">
        <ele>617.8</ele>
        <time>2021-03-24T17:41:01Z</time>
      </trkpt>
      <trkpt lat="40.204853" lon="-3.7921104">
        <ele>617.8</ele>
        <time>2021-03-24T17:41:02Z</time>
      </trkpt>
      <trkpt lat="40.204906" lon="-3.7921252">
        <ele>617.8</ele>
        <time>2021-03-24T17:41:03Z</time>
      </trkpt>
      <trkpt lat="40.20496" lon="-3.7921398">
        <ele>617.8</ele>
        <time>2021-03-24T17:41:04Z</time>
      </trkpt>
      <trkpt lat="40.20501" lon="-3.7921557">
        <ele>617.8</ele>
        <time>2021-03-24T17:41:05Z</time>
      </trkpt>
      <trkpt lat="40.205063" lon="-3.792172">
        <ele>617.8</ele>
        <time>2021-03-24T17:41:06Z</time>
      </trkpt>
      <trkpt lat="40.205116" lon="-3.7921875">
        <ele>617.8</ele>
        <time>2021-03-24T17:41:07Z</time>
      </trkpt>
      <trkpt lat="40.205166" lon="-3.7922034">
        <ele>617.8</ele>
        <time>2021-03-24T17:41:08Z</time>
      </trkpt>
      <trkpt lat="40.20522" lon="-3.7922206">
        <ele>617.8</ele>
        <time>2021-03-24T17:41:09Z</time>
      </trkpt>
      <trkpt lat="40.205322" lon="-3.792259">
        <ele>617.8</ele>
        <time>2021-03-24T17:41:11Z</time>
      </trkpt>
      <trkpt lat="40.20537" lon="-3.7922804">
        <ele>619.07</ele>
        <time>2021-03-24T17:41:12Z</time>
      </trkpt>
      <trkpt lat="40.20542" lon="-3.7923036">
        <ele>619.07</ele>
        <time>2021-03-24T17:41:13Z</time>
      </trkpt>
      <trkpt lat="40.20547" lon="-3.7923276">
        <ele>619.07</ele>
        <time>2021-03-24T17:41:14Z</time>
      </trkpt>
      <trkpt lat="40.20552" lon="-3.792353">
        <ele>619.07</ele>
        <time>2021-03-24T17:41:15Z</time>
      </trkpt>
      <trkpt lat="40.20557" lon="-3.7923796">
        <ele>619.07</ele>
        <time>2021-03-24T17:41:16Z</time>
      </trkpt>
      <trkpt lat="40.205624" lon="-3.7924078">
        <ele>619.07</ele>
        <time>2021-03-24T17:41:17Z</time>
      </trkpt>
      <trkpt lat="40.205673" lon="-3.7924354">
        <ele>619.07</ele>
        <time>2021-03-24T17:41:18Z</time>
      </trkpt>
      <trkpt lat="40.205723" lon="-3.7924643">
        <ele>619.07</ele>
        <time>2021-03-24T17:41:19Z</time>
      </trkpt>
      <trkpt lat="40.205772" lon="-3.792494">
        <ele>619.07</ele>
        <time>2021-03-24T17:41:20Z</time>
      </trkpt>
      <trkpt lat="40.205822" lon="-3.7925246">
        <ele>619.07</ele>
        <time>2021-03-24T17:41:21Z</time>
      </trkpt>
      <trkpt lat="40.20587" lon="-3.792555">
        <ele>619.07</ele>
        <time>2021-03-24T17:41:22Z</time>
      </trkpt>
      <trkpt lat="40.20592" lon="-3.7925866">
        <ele>619.07</ele>
        <time>2021-03-24T17:41:23Z</time>
      </trkpt>
      <trkpt lat="40.20597" lon="-3.792619">
        <ele>619.07</ele>
        <time>2021-03-24T17:41:24Z</time>
      </trkpt>
      <trkpt lat="40.206017" lon="-3.7926514">
        <ele>619.07</ele>
        <time>2021-03-24T17:41:25Z</time>
      </trkpt>
      <trkpt lat="40.206066" lon="-3.792684">
        <ele>619.07</ele>
        <time>2021-03-24T17:41:26Z</time>
      </trkpt>
      <trkpt lat="40.206116" lon="-3.7927172">
        <ele>619.07</ele>
        <time>2021-03-24T17:41:27Z</time>
      </trkpt>
      <trkpt lat="40.20616" lon="-3.7927513">
        <ele>619.07</ele>
        <time>2021-03-24T17:41:28Z</time>
      </trkpt>
      <trkpt lat="40.20621" lon="-3.7927861">
        <ele>620.25</ele>
        <time>2021-03-24T17:41:29Z</time>
      </trkpt>
      <trkpt lat="40.20626" lon="-3.7928202">
        <ele>620.25</ele>
        <time>2021-03-24T17:41:30Z</time>
      </trkpt>
      <trkpt lat="40.206306" lon="-3.7928534">
        <ele>620.25</ele>
        <time>2021-03-24T17:41:31Z</time>
      </trkpt>
      <trkpt lat="40.206356" lon="-3.7928858">
        <ele>620.25</ele>
        <time>2021-03-24T17:41:32Z</time>
      </trkpt>
      <trkpt lat="40.206406" lon="-3.7929194">
        <ele>620.25</ele>
        <time>2021-03-24T17:41:33Z</time>
      </trkpt>
      <trkpt lat="40.206455" lon="-3.7929497">
        <ele>620.25</ele>
        <time>2021-03-24T17:41:34Z</time>
      </trkpt>
      <trkpt lat="40.20651" lon="-3.792984">
        <ele>620.25</ele>
        <time>2021-03-24T17:41:35Z</time>
      </trkpt>
      <trkpt lat="40.20656" lon="-3.7930183">
        <ele>620.25</ele>
        <time>2021-03-24T17:41:36Z</time>
      </trkpt>
      <trkpt lat="40.206608" lon="-3.7930496">
        <ele>620.25</ele>
        <time>2021-03-24T17:41:37Z</time>
      </trkpt>
      <trkpt lat="40.206703" lon="-3.793115">
        <ele>620.25</ele>
        <time>2021-03-24T17:41:39Z</time>
      </trkpt>
      <trkpt lat="40.206757" lon="-3.7931476">
        <ele>620.25</ele>
        <time>2021-03-24T17:41:40Z</time>
      </trkpt>
      <trkpt lat="40.20681" lon="-3.7931783">
        <ele>620.25</ele>
        <time>2021-03-24T17:41:41Z</time>
      </trkpt>
      <trkpt lat="40.20686" lon="-3.7932076">
        <ele>620.25</ele>
        <time>2021-03-24T17:41:42Z</time>
      </trkpt>
      <trkpt lat="40.20691" lon="-3.7932353">
        <ele>620.25</ele>
        <time>2021-03-24T17:41:43Z</time>
      </trkpt>
      <trkpt lat="40.206963" lon="-3.7932634">
        <ele>620.25</ele>
        <time>2021-03-24T17:41:44Z</time>
      </trkpt>
      <trkpt lat="40.207016" lon="-3.7932942">
        <ele>620.25</ele>
        <time>2021-03-24T17:41:45Z</time>
      </trkpt>
      <trkpt lat="40.20707" lon="-3.7933242">
        <ele>620.25</ele>
        <time>2021-03-24T17:41:46Z</time>
      </trkpt>
      <trkpt lat="40.207123" lon="-3.793355">
        <ele>620.25</ele>
        <time>2021-03-24T17:41:47Z</time>
      </trkpt>
      <trkpt lat="40.207172" lon="-3.793384">
        <ele>620.25</ele>
        <time>2021-03-24T17:41:48Z</time>
      </trkpt>
      <trkpt lat="40.20723" lon="-3.793415">
        <ele>620.25</ele>
        <time>2021-03-24T17:41:49Z</time>
      </trkpt>
      <trkpt lat="40.207283" lon="-3.793445">
        <ele>620.25</ele>
        <time>2021-03-24T17:41:50Z</time>
      </trkpt>
      <trkpt lat="40.207333" lon="-3.7934732">
        <ele>620.25</ele>
        <time>2021-03-24T17:41:51Z</time>
      </trkpt>
      <trkpt lat="40.207382" lon="-3.7934978">
        <ele>620.25</ele>
        <time>2021-03-24T17:41:52Z</time>
      </trkpt>
      <trkpt lat="40.207428" lon="-3.7935236">
        <ele>620.25</ele>
        <time>2021-03-24T17:41:53Z</time>
      </trkpt>
      <trkpt lat="40.207485" lon="-3.7935524">
        <ele>620.25</ele>
        <time>2021-03-24T17:41:54Z</time>
      </trkpt>
      <trkpt lat="40.20754" lon="-3.793581">
        <ele>620.25</ele>
        <time>2021-03-24T17:41:55Z</time>
      </trkpt>
      <trkpt lat="40.20759" lon="-3.793608">
        <ele>620.25</ele>
        <time>2021-03-24T17:41:56Z</time>
      </trkpt>
      <trkpt lat="40.207638" lon="-3.793636">
        <ele>620.25</ele>
        <time>2021-03-24T17:41:57Z</time>
      </trkpt>
      <trkpt lat="40.207687" lon="-3.793664">
        <ele>620.25</ele>
        <time>2021-03-24T17:41:58Z</time>
      </trkpt>
      <trkpt lat="40.207737" lon="-3.7936926">
        <ele>620.25</ele>
        <time>2021-03-24T17:41:59Z</time>
      </trkpt>
      <trkpt lat="40.207787" lon="-3.793723">
        <ele>620.25</ele>
        <time>2021-03-24T17:42:00Z</time>
      </trkpt>
      <trkpt lat="40.207836" lon="-3.7937546">
        <ele>620.25</ele>
        <time>2021-03-24T17:42:01Z</time>
      </trkpt>
      <trkpt lat="40.207886" lon="-3.793784">
        <ele>620.25</ele>
        <time>2021-03-24T17:42:02Z</time>
      </trkpt>
      <trkpt lat="40.20793" lon="-3.7938151">
        <ele>620.25</ele>
        <time>2021-03-24T17:42:03Z</time>
      </trkpt>
      <trkpt lat="40.207985" lon="-3.7938473">
        <ele>620.25</ele>
        <time>2021-03-24T17:42:04Z</time>
      </trkpt>
      <trkpt lat="40.20804" lon="-3.7938783">
        <ele>621.43</ele>
        <time>2021-03-24T17:42:05Z</time>
      </trkpt>
      <trkpt lat="40.20809" lon="-3.793909">
        <ele>621.43</ele>
        <time>2021-03-24T17:42:06Z</time>
      </trkpt>
      <trkpt lat="40.208138" lon="-3.7939377">
        <ele>621.43</ele>
        <time>2021-03-24T17:42:07Z</time>
      </trkpt>
      <trkpt lat="40.208187" lon="-3.7939663">
        <ele>621.43</ele>
        <time>2021-03-24T17:42:08Z</time>
      </trkpt>
      <trkpt lat="40.208233" lon="-3.7940018">
        <ele>626.34</ele>
        <time>2021-03-24T17:42:09Z</time>
      </trkpt>
      <trkpt lat="40.208282" lon="-3.794038">
        <ele>626.34</ele>
        <time>2021-03-24T17:42:10Z</time>
      </trkpt>
      <trkpt lat="40.208324" lon="-3.7940738">
        <ele>626.34</ele>
        <time>2021-03-24T17:42:11Z</time>
      </trkpt>
      <trkpt lat="40.208366" lon="-3.794107">
        <ele>626.34</ele>
        <time>2021-03-24T17:42:12Z</time>
      </trkpt>
      <trkpt lat="40.208447" lon="-3.7941613">
        <ele>627.61</ele>
        <time>2021-03-24T17:42:14Z</time>
      </trkpt>
      <trkpt lat="40.208523" lon="-3.7941985">
        <ele>627.61</ele>
        <time>2021-03-24T17:42:16Z</time>
      </trkpt>
      <trkpt lat="40.20859" lon="-3.7942462">
        <ele>627.61</ele>
        <time>2021-03-24T17:42:18Z</time>
      </trkpt>
      <trkpt lat="40.20865" lon="-3.7943146">
        <ele>628.88</ele>
        <time>2021-03-24T17:42:20Z</time>
      </trkpt>
      <trkpt lat="40.208702" lon="-3.794389">
        <ele>628.88</ele>
        <time>2021-03-24T17:42:22Z</time>
      </trkpt>
      <trkpt lat="40.208763" lon="-3.794453">
        <ele>628.88</ele>
        <time>2021-03-24T17:42:24Z</time>
      </trkpt>
      <trkpt lat="40.208824" lon="-3.7945056">
        <ele>630.06</ele>
        <time>2021-03-24T17:42:26Z</time>
      </trkpt>
      <trkpt lat="40.20891" lon="-3.7945776">
        <ele>630.06</ele>
        <time>2021-03-24T17:42:29Z</time>
      </trkpt>
      <trkpt lat="40.20896" lon="-3.7946253">
        <ele>630.06</ele>
        <time>2021-03-24T17:42:31Z</time>
      </trkpt>
      <trkpt lat="40.209015" lon="-3.7946713">
        <ele>630.06</ele>
        <time>2021-03-24T17:42:33Z</time>
      </trkpt>
      <trkpt lat="40.20907" lon="-3.7947166">
        <ele>631.43</ele>
        <time>2021-03-24T17:42:35Z</time>
      </trkpt>
      <trkpt lat="40.209126" lon="-3.794759">
        <ele>631.43</ele>
        <time>2021-03-24T17:42:37Z</time>
      </trkpt>
      <trkpt lat="40.209183" lon="-3.7948046">
        <ele>631.43</ele>
        <time>2021-03-24T17:42:39Z</time>
      </trkpt>
      <trkpt lat="40.209244" lon="-3.7948523">
        <ele>632.61</ele>
        <time>2021-03-24T17:42:41Z</time>
      </trkpt>
      <trkpt lat="40.2093" lon="-3.7949004">
        <ele>632.61</ele>
        <time>2021-03-24T17:42:43Z</time>
      </trkpt>
      <trkpt lat="40.209362" lon="-3.79495">
        <ele>632.61</ele>
        <time>2021-03-24T17:42:45Z</time>
      </trkpt>
      <trkpt lat="40.20942" lon="-3.7950044">
        <ele>632.61</ele>
        <time>2021-03-24T17:42:47Z</time>
      </trkpt>
      <trkpt lat="40.209473" lon="-3.795064">
        <ele>633.88</ele>
        <time>2021-03-24T17:42:49Z</time>
      </trkpt>
      <trkpt lat="40.20953" lon="-3.795123">
        <ele>633.88</ele>
        <time>2021-03-24T17:42:51Z</time>
      </trkpt>
      <trkpt lat="40.209587" lon="-3.7951834">
        <ele>633.88</ele>
        <time>2021-03-24T17:42:53Z</time>
      </trkpt>
      <trkpt lat="40.209644" lon="-3.7952473">
        <ele>633.88</ele>
        <time>2021-03-24T17:42:55Z</time>
      </trkpt>
      <trkpt lat="40.209694" lon="-3.7953176">
        <ele>633.88</ele>
        <time>2021-03-24T17:42:57Z</time>
      </trkpt>
      <trkpt lat="40.209743" lon="-3.7953913">
        <ele>633.88</ele>
        <time>2021-03-24T17:42:59Z</time>
      </trkpt>
      <trkpt lat="40.2098" lon="-3.7954617">
        <ele>633.88</ele>
        <time>2021-03-24T17:43:01Z</time>
      </trkpt>
      <trkpt lat="40.209858" lon="-3.7955317">
        <ele>633.88</ele>
        <time>2021-03-24T17:43:03Z</time>
      </trkpt>
      <trkpt lat="40.209915" lon="-3.7956023">
        <ele>633.88</ele>
        <time>2021-03-24T17:43:05Z</time>
      </trkpt>
      <trkpt lat="40.209976" lon="-3.7956753">
        <ele>635.06</ele>
        <time>2021-03-24T17:43:07Z</time>
      </trkpt>
      <trkpt lat="40.210068" lon="-3.7957819">
        <ele>635.06</ele>
        <time>2021-03-24T17:43:10Z</time>
      </trkpt>
      <trkpt lat="40.210136" lon="-3.7958457">
        <ele>635.06</ele>
        <time>2021-03-24T17:43:12Z</time>
      </trkpt>
      <trkpt lat="40.21021" lon="-3.7959087">
        <ele>635.06</ele>
        <time>2021-03-24T17:43:14Z</time>
      </trkpt>
      <trkpt lat="40.21028" lon="-3.7959726">
        <ele>635.06</ele>
        <time>2021-03-24T17:43:16Z</time>
      </trkpt>
      <trkpt lat="40.210354" lon="-3.7960405">
        <ele>635.06</ele>
        <time>2021-03-24T17:43:18Z</time>
      </trkpt>
      <trkpt lat="40.21042" lon="-3.7961166">
        <ele>635.06</ele>
        <time>2021-03-24T17:43:20Z</time>
      </trkpt>
      <trkpt lat="40.210484" lon="-3.796191">
        <ele>635.06</ele>
        <time>2021-03-24T17:43:22Z</time>
      </trkpt>
      <trkpt lat="40.21055" lon="-3.796261">
        <ele>635.06</ele>
        <time>2021-03-24T17:43:24Z</time>
      </trkpt>
      <trkpt lat="40.21062" lon="-3.7963262">
        <ele>635.06</ele>
        <time>2021-03-24T17:43:26Z</time>
      </trkpt>
      <trkpt lat="40.210697" lon="-3.7963917">
        <ele>635.06</ele>
        <time>2021-03-24T17:43:28Z</time>
      </trkpt>
      <trkpt lat="40.210773" lon="-3.7964551">
        <ele>635.06</ele>
        <time>2021-03-24T17:43:30Z</time>
      </trkpt>
      <trkpt lat="40.21085" lon="-3.7965152">
        <ele>635.06</ele>
        <time>2021-03-24T17:43:32Z</time>
      </trkpt>
      <trkpt lat="40.210926" lon="-3.7965758">
        <ele>635.06</ele>
        <time>2021-03-24T17:43:34Z</time>
      </trkpt>
      <trkpt lat="40.211002" lon="-3.7966366">
        <ele>635.06</ele>
        <time>2021-03-24T17:43:36Z</time>
      </trkpt>
      <trkpt lat="40.21108" lon="-3.7966976">
        <ele>635.06</ele>
        <time>2021-03-24T17:43:38Z</time>
      </trkpt>
      <trkpt lat="40.21116" lon="-3.7967596">
        <ele>635.06</ele>
        <time>2021-03-24T17:43:40Z</time>
      </trkpt>
      <trkpt lat="40.211235" lon="-3.7968214">
        <ele>635.06</ele>
        <time>2021-03-24T17:43:42Z</time>
      </trkpt>
      <trkpt lat="40.211304" lon="-3.7968826">
        <ele>635.06</ele>
        <time>2021-03-24T17:43:44Z</time>
      </trkpt>
      <trkpt lat="40.21138" lon="-3.7969444">
        <ele>635.06</ele>
        <time>2021-03-24T17:43:46Z</time>
      </trkpt>
      <trkpt lat="40.211452" lon="-3.7970057">
        <ele>635.06</ele>
        <time>2021-03-24T17:43:48Z</time>
      </trkpt>
      <trkpt lat="40.211533" lon="-3.797067">
        <ele>635.06</ele>
        <time>2021-03-24T17:43:50Z</time>
      </trkpt>
      <trkpt lat="40.211613" lon="-3.7971277">
        <ele>636.25</ele>
        <time>2021-03-24T17:43:52Z</time>
      </trkpt>
      <trkpt lat="40.21169" lon="-3.7971888">
        <ele>636.25</ele>
        <time>2021-03-24T17:43:54Z</time>
      </trkpt>
      <trkpt lat="40.21177" lon="-3.797249">
        <ele>636.25</ele>
        <time>2021-03-24T17:43:56Z</time>
      </trkpt>
      <trkpt lat="40.21185" lon="-3.7973094">
        <ele>636.25</ele>
        <time>2021-03-24T17:43:58Z</time>
      </trkpt>
      <trkpt lat="40.211933" lon="-3.7973657">
        <ele>636.25</ele>
        <time>2021-03-24T17:44:00Z</time>
      </trkpt>
      <trkpt lat="40.21197" lon="-3.797392">
        <ele>636.25</ele>
        <time>2021-03-24T17:44:01Z</time>
      </trkpt>
      <trkpt lat="40.21205" lon="-3.7974474">
        <ele>636.25</ele>
        <time>2021-03-24T17:44:03Z</time>
      </trkpt>
      <trkpt lat="40.21213" lon="-3.7975073">
        <ele>636.25</ele>
        <time>2021-03-24T17:44:05Z</time>
      </trkpt>
      <trkpt lat="40.21217" lon="-3.7975368">
        <ele>636.25</ele>
        <time>2021-03-24T17:44:06Z</time>
      </trkpt>
      <trkpt lat="40.212246" lon="-3.7976027">
        <ele>636.25</ele>
        <time>2021-03-24T17:44:08Z</time>
      </trkpt>
      <trkpt lat="40.212322" lon="-3.7976756">
        <ele>635.49</ele>
        <time>2021-03-24T17:44:10Z</time>
      </trkpt>
      <trkpt lat="40.212364" lon="-3.797712">
        <ele>635.49</ele>
        <time>2021-03-24T17:44:11Z</time>
      </trkpt>
      <trkpt lat="40.212444" lon="-3.7977803">
        <ele>635.49</ele>
        <time>2021-03-24T17:44:13Z</time>
      </trkpt>
      <trkpt lat="40.212532" lon="-3.7978544">
        <ele>635.49</ele>
        <time>2021-03-24T17:44:15Z</time>
      </trkpt>
      <trkpt lat="40.212574" lon="-3.7978926">
        <ele>635.49</ele>
        <time>2021-03-24T17:44:16Z</time>
      </trkpt>
      <trkpt lat="40.21262" lon="-3.797929">
        <ele>635.49</ele>
        <time>2021-03-24T17:44:17Z</time>
      </trkpt>
      <trkpt lat="40.212666" lon="-3.7979617">
        <ele>635.49</ele>
        <time>2021-03-24T17:44:18Z</time>
      </trkpt>
      <trkpt lat="40.21271" lon="-3.797995">
        <ele>635.49</ele>
        <time>2021-03-24T17:44:19Z</time>
      </trkpt>
      <trkpt lat="40.212757" lon="-3.7980278">
        <ele>635.49</ele>
        <time>2021-03-24T17:44:20Z</time>
      </trkpt>
      <trkpt lat="40.212803" lon="-3.798061">
        <ele>635.49</ele>
        <time>2021-03-24T17:44:21Z</time>
      </trkpt>
      <trkpt lat="40.21289" lon="-3.7981207">
        <ele>635.49</ele>
        <time>2021-03-24T17:44:23Z</time>
      </trkpt>
      <trkpt lat="40.212982" lon="-3.7981834">
        <ele>635.49</ele>
        <time>2021-03-24T17:44:25Z</time>
      </trkpt>
      <trkpt lat="40.213028" lon="-3.7982147">
        <ele>635.49</ele>
        <time>2021-03-24T17:44:26Z</time>
      </trkpt>
      <trkpt lat="40.213116" lon="-3.7982697">
        <ele>635.49</ele>
        <time>2021-03-24T17:44:28Z</time>
      </trkpt>
      <trkpt lat="40.213207" lon="-3.7983289">
        <ele>635.49</ele>
        <time>2021-03-24T17:44:30Z</time>
      </trkpt>
      <trkpt lat="40.21325" lon="-3.798357">
        <ele>635.49</ele>
        <time>2021-03-24T17:44:31Z</time>
      </trkpt>
      <trkpt lat="40.213337" lon="-3.798419">
        <ele>636.67</ele>
        <time>2021-03-24T17:44:33Z</time>
      </trkpt>
      <trkpt lat="40.213383" lon="-3.7984514">
        <ele>636.67</ele>
        <time>2021-03-24T17:44:34Z</time>
      </trkpt>
      <trkpt lat="40.213425" lon="-3.7984836">
        <ele>636.67</ele>
        <time>2021-03-24T17:44:35Z</time>
      </trkpt>
      <trkpt lat="40.213505" lon="-3.798543">
        <ele>636.67</ele>
        <time>2021-03-24T17:44:37Z</time>
      </trkpt>
      <trkpt lat="40.213593" lon="-3.7986093">
        <ele>636.67</ele>
        <time>2021-03-24T17:44:39Z</time>
      </trkpt>
      <trkpt lat="40.213634" lon="-3.798643">
        <ele>636.67</ele>
        <time>2021-03-24T17:44:40Z</time>
      </trkpt>
      <trkpt lat="40.21372" lon="-3.7987068">
        <ele>636.67</ele>
        <time>2021-03-24T17:44:42Z</time>
      </trkpt>
      <trkpt lat="40.213757" lon="-3.7987373">
        <ele>637.85</ele>
        <time>2021-03-24T17:44:43Z</time>
      </trkpt>
      <trkpt lat="40.213837" lon="-3.7987974">
        <ele>637.85</ele>
        <time>2021-03-24T17:44:45Z</time>
      </trkpt>
      <trkpt lat="40.213917" lon="-3.798856">
        <ele>637.85</ele>
        <time>2021-03-24T17:44:47Z</time>
      </trkpt>
      <trkpt lat="40.214" lon="-3.7989166">
        <ele>637.85</ele>
        <time>2021-03-24T17:44:49Z</time>
      </trkpt>
      <trkpt lat="40.21408" lon="-3.798972">
        <ele>637.85</ele>
        <time>2021-03-24T17:44:51Z</time>
      </trkpt>
      <trkpt lat="40.21417" lon="-3.79902">
        <ele>637.85</ele>
        <time>2021-03-24T17:44:53Z</time>
      </trkpt>
      <trkpt lat="40.21425" lon="-3.7990673">
        <ele>637.85</ele>
        <time>2021-03-24T17:44:55Z</time>
      </trkpt>
      <trkpt lat="40.214333" lon="-3.799121">
        <ele>637.85</ele>
        <time>2021-03-24T17:44:57Z</time>
      </trkpt>
      <trkpt lat="40.214417" lon="-3.7991862">
        <ele>637.85</ele>
        <time>2021-03-24T17:44:59Z</time>
      </trkpt>
      <trkpt lat="40.214455" lon="-3.7992196">
        <ele>637.85</ele>
        <time>2021-03-24T17:45:00Z</time>
      </trkpt>
      <trkpt lat="40.21453" lon="-3.7992988">
        <ele>637.85</ele>
        <time>2021-03-24T17:45:02Z</time>
      </trkpt>
      <trkpt lat="40.21457" lon="-3.7993417">
        <ele>637.85</ele>
        <time>2021-03-24T17:45:03Z</time>
      </trkpt>
      <trkpt lat="40.214645" lon="-3.7994323">
        <ele>637.85</ele>
        <time>2021-03-24T17:45:05Z</time>
      </trkpt>
      <trkpt lat="40.214684" lon="-3.7994816">
        <ele>637.85</ele>
        <time>2021-03-24T17:45:06Z</time>
      </trkpt>
      <trkpt lat="40.21472" lon="-3.7995312">
        <ele>637.85</ele>
        <time>2021-03-24T17:45:07Z</time>
      </trkpt>
      <trkpt lat="40.21476" lon="-3.79958">
        <ele>637.85</ele>
        <time>2021-03-24T17:45:08Z</time>
      </trkpt>
      <trkpt lat="40.2148" lon="-3.7996287">
        <ele>637.85</ele>
        <time>2021-03-24T17:45:09Z</time>
      </trkpt>
      <trkpt lat="40.21488" lon="-3.7997205">
        <ele>637.85</ele>
        <time>2021-03-24T17:45:11Z</time>
      </trkpt>
      <trkpt lat="40.214924" lon="-3.7997673">
        <ele>637.85</ele>
        <time>2021-03-24T17:45:12Z</time>
      </trkpt>
      <trkpt lat="40.214966" lon="-3.799814">
        <ele>637.85</ele>
        <time>2021-03-24T17:45:13Z</time>
      </trkpt>
      <trkpt lat="40.215008" lon="-3.7998598">
        <ele>637.85</ele>
        <time>2021-03-24T17:45:14Z</time>
      </trkpt>
      <trkpt lat="40.215096" lon="-3.7999427">
        <ele>637.85</ele>
        <time>2021-03-24T17:45:16Z</time>
      </trkpt>
      <trkpt lat="40.21514" lon="-3.7999837">
        <ele>637.85</ele>
        <time>2021-03-24T17:45:17Z</time>
      </trkpt>
      <trkpt lat="40.215187" lon="-3.800024">
        <ele>637.85</ele>
        <time>2021-03-24T17:45:18Z</time>
      </trkpt>
      <trkpt lat="40.215233" lon="-3.8000627">
        <ele>637.85</ele>
        <time>2021-03-24T17:45:19Z</time>
      </trkpt>
      <trkpt lat="40.21528" lon="-3.8000996">
        <ele>637.85</ele>
        <time>2021-03-24T17:45:20Z</time>
      </trkpt>
      <trkpt lat="40.215324" lon="-3.8001342">
        <ele>637.85</ele>
        <time>2021-03-24T17:45:21Z</time>
      </trkpt>
      <trkpt lat="40.215374" lon="-3.800167">
        <ele>637.85</ele>
        <time>2021-03-24T17:45:22Z</time>
      </trkpt>
      <trkpt lat="40.215466" lon="-3.8002286">
        <ele>637.85</ele>
        <time>2021-03-24T17:45:24Z</time>
      </trkpt>
      <trkpt lat="40.21551" lon="-3.800259">
        <ele>637.85</ele>
        <time>2021-03-24T17:45:25Z</time>
      </trkpt>
      <trkpt lat="40.215557" lon="-3.8002903">
        <ele>637.85</ele>
        <time>2021-03-24T17:45:26Z</time>
      </trkpt>
      <trkpt lat="40.215645" lon="-3.800354">
        <ele>637.85</ele>
        <time>2021-03-24T17:45:28Z</time>
      </trkpt>
      <trkpt lat="40.215687" lon="-3.8003886">
        <ele>637.85</ele>
        <time>2021-03-24T17:45:29Z</time>
      </trkpt>
      <trkpt lat="40.21578" lon="-3.8004596">
        <ele>637.85</ele>
        <time>2021-03-24T17:45:31Z</time>
      </trkpt>
      <trkpt lat="40.21582" lon="-3.800498">
        <ele>637.85</ele>
        <time>2021-03-24T17:45:32Z</time>
      </trkpt>
      <trkpt lat="40.215862" lon="-3.8005366">
        <ele>637.85</ele>
        <time>2021-03-24T17:45:33Z</time>
      </trkpt>
      <trkpt lat="40.215908" lon="-3.800577">
        <ele>637.85</ele>
        <time>2021-03-24T17:45:34Z</time>
      </trkpt>
      <trkpt lat="40.21595" lon="-3.8006172">
        <ele>637.85</ele>
        <time>2021-03-24T17:45:35Z</time>
      </trkpt>
      <trkpt lat="40.216038" lon="-3.8006976">
        <ele>637.85</ele>
        <time>2021-03-24T17:45:37Z</time>
      </trkpt>
      <trkpt lat="40.21608" lon="-3.8007355">
        <ele>637.85</ele>
        <time>2021-03-24T17:45:38Z</time>
      </trkpt>
      <trkpt lat="40.216125" lon="-3.8007762">
        <ele>637.85</ele>
        <time>2021-03-24T17:45:39Z</time>
      </trkpt>
      <trkpt lat="40.21617" lon="-3.8008173">
        <ele>637.85</ele>
        <time>2021-03-24T17:45:40Z</time>
      </trkpt>
      <trkpt lat="40.21622" lon="-3.800858">
        <ele>637.85</ele>
        <time>2021-03-24T17:45:41Z</time>
      </trkpt>
      <trkpt lat="40.216267" lon="-3.8008976">
        <ele>637.85</ele>
        <time>2021-03-24T17:45:42Z</time>
      </trkpt>
      <trkpt lat="40.216316" lon="-3.8009381">
        <ele>637.85</ele>
        <time>2021-03-24T17:45:43Z</time>
      </trkpt>
      <trkpt lat="40.216366" lon="-3.8009787">
        <ele>637.85</ele>
        <time>2021-03-24T17:45:44Z</time>
      </trkpt>
      <trkpt lat="40.216415" lon="-3.8010194">
        <ele>637.85</ele>
        <time>2021-03-24T17:45:45Z</time>
      </trkpt>
      <trkpt lat="40.21647" lon="-3.8010592">
        <ele>637.85</ele>
        <time>2021-03-24T17:45:46Z</time>
      </trkpt>
      <trkpt lat="40.216522" lon="-3.8010983">
        <ele>637.85</ele>
        <time>2021-03-24T17:45:47Z</time>
      </trkpt>
      <trkpt lat="40.216576" lon="-3.801137">
        <ele>637.85</ele>
        <time>2021-03-24T17:45:48Z</time>
      </trkpt>
      <trkpt lat="40.21663" lon="-3.8011756">
        <ele>637.85</ele>
        <time>2021-03-24T17:45:49Z</time>
      </trkpt>
      <trkpt lat="40.216682" lon="-3.801216">
        <ele>637.85</ele>
        <time>2021-03-24T17:45:50Z</time>
      </trkpt>
      <trkpt lat="40.216736" lon="-3.8012576">
        <ele>637.85</ele>
        <time>2021-03-24T17:45:51Z</time>
      </trkpt>
      <trkpt lat="40.21679" lon="-3.8013">
        <ele>637.85</ele>
        <time>2021-03-24T17:45:52Z</time>
      </trkpt>
      <trkpt lat="40.216843" lon="-3.8013434">
        <ele>637.85</ele>
        <time>2021-03-24T17:45:53Z</time>
      </trkpt>
      <trkpt lat="40.216892" lon="-3.8013864">
        <ele>637.85</ele>
        <time>2021-03-24T17:45:54Z</time>
      </trkpt>
      <trkpt lat="40.216946" lon="-3.8014276">
        <ele>637.85</ele>
        <time>2021-03-24T17:45:55Z</time>
      </trkpt>
      <trkpt lat="40.216995" lon="-3.8014655">
        <ele>637.85</ele>
        <time>2021-03-24T17:45:56Z</time>
      </trkpt>
      <trkpt lat="40.21705" lon="-3.801504">
        <ele>637.85</ele>
        <time>2021-03-24T17:45:57Z</time>
      </trkpt>
      <trkpt lat="40.217102" lon="-3.801541">
        <ele>637.85</ele>
        <time>2021-03-24T17:45:58Z</time>
      </trkpt>
      <trkpt lat="40.217155" lon="-3.8015776">
        <ele>637.85</ele>
        <time>2021-03-24T17:45:59Z</time>
      </trkpt>
      <trkpt lat="40.217205" lon="-3.8016114">
        <ele>637.85</ele>
        <time>2021-03-24T17:46:00Z</time>
      </trkpt>
      <trkpt lat="40.21726" lon="-3.8016477">
        <ele>637.85</ele>
        <time>2021-03-24T17:46:01Z</time>
      </trkpt>
      <trkpt lat="40.21731" lon="-3.801683">
        <ele>637.85</ele>
        <time>2021-03-24T17:46:02Z</time>
      </trkpt>
      <trkpt lat="40.217365" lon="-3.8017166">
        <ele>637.85</ele>
        <time>2021-03-24T17:46:03Z</time>
      </trkpt>
      <trkpt lat="40.21742" lon="-3.8017488">
        <ele>637.85</ele>
        <time>2021-03-24T17:46:04Z</time>
      </trkpt>
      <trkpt lat="40.217472" lon="-3.8017807">
        <ele>637.85</ele>
        <time>2021-03-24T17:46:05Z</time>
      </trkpt>
      <trkpt lat="40.217525" lon="-3.8018134">
        <ele>637.85</ele>
        <time>2021-03-24T17:46:06Z</time>
      </trkpt>
      <trkpt lat="40.217575" lon="-3.801847">
        <ele>637.85</ele>
        <time>2021-03-24T17:46:07Z</time>
      </trkpt>
      <trkpt lat="40.21763" lon="-3.801882">
        <ele>637.85</ele>
        <time>2021-03-24T17:46:08Z</time>
      </trkpt>
      <trkpt lat="40.217674" lon="-3.8019133">
        <ele>638.64</ele>
        <time>2021-03-24T17:46:09Z</time>
      </trkpt>
      <trkpt lat="40.217724" lon="-3.8019447">
        <ele>638.64</ele>
        <time>2021-03-24T17:46:10Z</time>
      </trkpt>
      <trkpt lat="40.217777" lon="-3.8019753">
        <ele>638.64</ele>
        <time>2021-03-24T17:46:11Z</time>
      </trkpt>
      <trkpt lat="40.217827" lon="-3.802004">
        <ele>638.64</ele>
        <time>2021-03-24T17:46:12Z</time>
      </trkpt>
      <trkpt lat="40.217876" lon="-3.8020308">
        <ele>638.64</ele>
        <time>2021-03-24T17:46:13Z</time>
      </trkpt>
      <trkpt lat="40.217976" lon="-3.8020847">
        <ele>638.64</ele>
        <time>2021-03-24T17:46:15Z</time>
      </trkpt>
      <trkpt lat="40.218025" lon="-3.8021111">
        <ele>638.64</ele>
        <time>2021-03-24T17:46:16Z</time>
      </trkpt>
      <trkpt lat="40.218075" lon="-3.8021383">
        <ele>638.64</ele>
        <time>2021-03-24T17:46:17Z</time>
      </trkpt>
      <trkpt lat="40.218124" lon="-3.802166">
        <ele>638.64</ele>
        <time>2021-03-24T17:46:18Z</time>
      </trkpt>
      <trkpt lat="40.218178" lon="-3.8021946">
        <ele>638.64</ele>
        <time>2021-03-24T17:46:19Z</time>
      </trkpt>
      <trkpt lat="40.218227" lon="-3.8022237">
        <ele>638.64</ele>
        <time>2021-03-24T17:46:20Z</time>
      </trkpt>
      <trkpt lat="40.21828" lon="-3.802253">
        <ele>638.64</ele>
        <time>2021-03-24T17:46:21Z</time>
      </trkpt>
      <trkpt lat="40.21833" lon="-3.8022826">
        <ele>638.64</ele>
        <time>2021-03-24T17:46:22Z</time>
      </trkpt>
      <trkpt lat="40.21838" lon="-3.8023124">
        <ele>638.64</ele>
        <time>2021-03-24T17:46:23Z</time>
      </trkpt>
      <trkpt lat="40.21843" lon="-3.8023422">
        <ele>638.64</ele>
        <time>2021-03-24T17:46:24Z</time>
      </trkpt>
      <trkpt lat="40.21848" lon="-3.8023708">
        <ele>638.64</ele>
        <time>2021-03-24T17:46:25Z</time>
      </trkpt>
      <trkpt lat="40.218533" lon="-3.8023994">
        <ele>638.64</ele>
        <time>2021-03-24T17:46:26Z</time>
      </trkpt>
      <trkpt lat="40.218582" lon="-3.8024287">
        <ele>638.64</ele>
        <time>2021-03-24T17:46:27Z</time>
      </trkpt>
      <trkpt lat="40.21863" lon="-3.8024573">
        <ele>638.64</ele>
        <time>2021-03-24T17:46:28Z</time>
      </trkpt>
      <trkpt lat="40.21868" lon="-3.8024862">
        <ele>638.64</ele>
        <time>2021-03-24T17:46:29Z</time>
      </trkpt>
      <trkpt lat="40.218727" lon="-3.8025157">
        <ele>638.64</ele>
        <time>2021-03-24T17:46:30Z</time>
      </trkpt>
      <trkpt lat="40.218777" lon="-3.802546">
        <ele>638.64</ele>
        <time>2021-03-24T17:46:31Z</time>
      </trkpt>
      <trkpt lat="40.218822" lon="-3.8025763">
        <ele>638.64</ele>
        <time>2021-03-24T17:46:32Z</time>
      </trkpt>
      <trkpt lat="40.218872" lon="-3.8026073">
        <ele>638.64</ele>
        <time>2021-03-24T17:46:33Z</time>
      </trkpt>
      <trkpt lat="40.218918" lon="-3.8026392">
        <ele>638.64</ele>
        <time>2021-03-24T17:46:34Z</time>
      </trkpt>
      <trkpt lat="40.218967" lon="-3.8026724">
        <ele>638.64</ele>
        <time>2021-03-24T17:46:35Z</time>
      </trkpt>
      <trkpt lat="40.219063" lon="-3.802737">
        <ele>638.64</ele>
        <time>2021-03-24T17:46:37Z</time>
      </trkpt>
      <trkpt lat="40.21911" lon="-3.8027687">
        <ele>638.64</ele>
        <time>2021-03-24T17:46:38Z</time>
      </trkpt>
      <trkpt lat="40.21916" lon="-3.8027997">
        <ele>638.64</ele>
        <time>2021-03-24T17:46:39Z</time>
      </trkpt>
      <trkpt lat="40.219208" lon="-3.80283">
        <ele>638.64</ele>
        <time>2021-03-24T17:46:40Z</time>
      </trkpt>
      <trkpt lat="40.219257" lon="-3.8028607">
        <ele>638.64</ele>
        <time>2021-03-24T17:46:41Z</time>
      </trkpt>
      <trkpt lat="40.219307" lon="-3.8028917">
        <ele>638.64</ele>
        <time>2021-03-24T17:46:42Z</time>
      </trkpt>
      <trkpt lat="40.21936" lon="-3.802923">
        <ele>638.64</ele>
        <time>2021-03-24T17:46:43Z</time>
      </trkpt>
      <trkpt lat="40.219414" lon="-3.8029523">
        <ele>638.64</ele>
        <time>2021-03-24T17:46:44Z</time>
      </trkpt>
      <trkpt lat="40.219467" lon="-3.8029828">
        <ele>638.64</ele>
        <time>2021-03-24T17:46:45Z</time>
      </trkpt>
      <trkpt lat="40.21952" lon="-3.8030114">
        <ele>638.64</ele>
        <time>2021-03-24T17:46:46Z</time>
      </trkpt>
      <trkpt lat="40.219574" lon="-3.8030398">
        <ele>638.64</ele>
        <time>2021-03-24T17:46:47Z</time>
      </trkpt>
      <trkpt lat="40.219624" lon="-3.8030684">
        <ele>638.64</ele>
        <time>2021-03-24T17:46:48Z</time>
      </trkpt>
      <trkpt lat="40.219673" lon="-3.8030965">
        <ele>638.64</ele>
        <time>2021-03-24T17:46:49Z</time>
      </trkpt>
      <trkpt lat="40.219727" lon="-3.803126">
        <ele>638.64</ele>
        <time>2021-03-24T17:46:50Z</time>
      </trkpt>
      <trkpt lat="40.219776" lon="-3.8031564">
        <ele>638.64</ele>
        <time>2021-03-24T17:46:51Z</time>
      </trkpt>
      <trkpt lat="40.219826" lon="-3.803189">
        <ele>638.64</ele>
        <time>2021-03-24T17:46:52Z</time>
      </trkpt>
      <trkpt lat="40.219875" lon="-3.8032222">
        <ele>638.64</ele>
        <time>2021-03-24T17:46:53Z</time>
      </trkpt>
      <trkpt lat="40.21992" lon="-3.803257">
        <ele>638.64</ele>
        <time>2021-03-24T17:46:54Z</time>
      </trkpt>
      <trkpt lat="40.219967" lon="-3.8032942">
        <ele>638.64</ele>
        <time>2021-03-24T17:46:55Z</time>
      </trkpt>
      <trkpt lat="40.220013" lon="-3.803332">
        <ele>638.64</ele>
        <time>2021-03-24T17:46:56Z</time>
      </trkpt>
      <trkpt lat="40.22006" lon="-3.80337">
        <ele>638.64</ele>
        <time>2021-03-24T17:46:57Z</time>
      </trkpt>
      <trkpt lat="40.220104" lon="-3.8034067">
        <ele>638.64</ele>
        <time>2021-03-24T17:46:58Z</time>
      </trkpt>
      <trkpt lat="40.22015" lon="-3.803442">
        <ele>638.64</ele>
        <time>2021-03-24T17:46:59Z</time>
      </trkpt>
      <trkpt lat="40.220196" lon="-3.8034747">
        <ele>638.64</ele>
        <time>2021-03-24T17:47:00Z</time>
      </trkpt>
      <trkpt lat="40.22024" lon="-3.8035061">
        <ele>638.64</ele>
        <time>2021-03-24T17:47:01Z</time>
      </trkpt>
      <trkpt lat="40.220337" lon="-3.8035674">
        <ele>638.64</ele>
        <time>2021-03-24T17:47:03Z</time>
      </trkpt>
      <trkpt lat="40.220383" lon="-3.8035953">
        <ele>639.83</ele>
        <time>2021-03-24T17:47:04Z</time>
      </trkpt>
      <trkpt lat="40.22043" lon="-3.8036215">
        <ele>639.83</ele>
        <time>2021-03-24T17:47:05Z</time>
      </trkpt>
      <trkpt lat="40.220516" lon="-3.8036692">
        <ele>639.83</ele>
        <time>2021-03-24T17:47:07Z</time>
      </trkpt>
      <trkpt lat="40.22056" lon="-3.8036926">
        <ele>639.83</ele>
        <time>2021-03-24T17:47:08Z</time>
      </trkpt>
      <trkpt lat="40.220646" lon="-3.8037395">
        <ele>639.83</ele>
        <time>2021-03-24T17:47:10Z</time>
      </trkpt>
      <trkpt lat="40.220734" lon="-3.803787">
        <ele>639.83</ele>
        <time>2021-03-24T17:47:12Z</time>
      </trkpt>
      <trkpt lat="40.220818" lon="-3.8038347">
        <ele>639.83</ele>
        <time>2021-03-24T17:47:14Z</time>
      </trkpt>
      <trkpt lat="40.2209" lon="-3.803881">
        <ele>639.83</ele>
        <time>2021-03-24T17:47:16Z</time>
      </trkpt>
      <trkpt lat="40.22099" lon="-3.803926">
        <ele>639.83</ele>
        <time>2021-03-24T17:47:18Z</time>
      </trkpt>
      <trkpt lat="40.22108" lon="-3.803966">
        <ele>639.83</ele>
        <time>2021-03-24T17:47:20Z</time>
      </trkpt>
      <trkpt lat="40.221172" lon="-3.8040018">
        <ele>639.83</ele>
        <time>2021-03-24T17:47:22Z</time>
      </trkpt>
      <trkpt lat="40.22126" lon="-3.8040407">
        <ele>639.83</ele>
        <time>2021-03-24T17:47:24Z</time>
      </trkpt>
      <trkpt lat="40.22135" lon="-3.8040812">
        <ele>639.83</ele>
        <time>2021-03-24T17:47:26Z</time>
      </trkpt>
      <trkpt lat="40.22145" lon="-3.8041234">
        <ele>639.83</ele>
        <time>2021-03-24T17:47:28Z</time>
      </trkpt>
      <trkpt lat="40.221497" lon="-3.8041434">
        <ele>639.83</ele>
        <time>2021-03-24T17:47:29Z</time>
      </trkpt>
      <trkpt lat="40.221592" lon="-3.8041883">
        <ele>639.83</ele>
        <time>2021-03-24T17:47:31Z</time>
      </trkpt>
      <trkpt lat="40.22169" lon="-3.8042316">
        <ele>639.83</ele>
        <time>2021-03-24T17:47:33Z</time>
      </trkpt>
      <trkpt lat="40.22174" lon="-3.8042524">
        <ele>639.83</ele>
        <time>2021-03-24T17:47:34Z</time>
      </trkpt>
      <trkpt lat="40.221786" lon="-3.8042743">
        <ele>639.83</ele>
        <time>2021-03-24T17:47:35Z</time>
      </trkpt>
      <trkpt lat="40.221886" lon="-3.8043244">
        <ele>639.83</ele>
        <time>2021-03-24T17:47:37Z</time>
      </trkpt>
      <trkpt lat="40.22193" lon="-3.8043497">
        <ele>639.83</ele>
        <time>2021-03-24T17:47:38Z</time>
      </trkpt>
      <trkpt lat="40.221977" lon="-3.804374">
        <ele>639.83</ele>
        <time>2021-03-24T17:47:39Z</time>
      </trkpt>
      <trkpt lat="40.222076" lon="-3.804425">
        <ele>639.83</ele>
        <time>2021-03-24T17:47:41Z</time>
      </trkpt>
      <trkpt lat="40.222122" lon="-3.8044524">
        <ele>639.83</ele>
        <time>2021-03-24T17:47:42Z</time>
      </trkpt>
      <trkpt lat="40.22217" lon="-3.8044803">
        <ele>639.83</ele>
        <time>2021-03-24T17:47:43Z</time>
      </trkpt>
      <trkpt lat="40.222267" lon="-3.8045404">
        <ele>639.83</ele>
        <time>2021-03-24T17:47:45Z</time>
      </trkpt>
      <trkpt lat="40.222313" lon="-3.8045726">
        <ele>639.83</ele>
        <time>2021-03-24T17:47:46Z</time>
      </trkpt>
      <trkpt lat="40.2224" lon="-3.804639">
        <ele>639.83</ele>
        <time>2021-03-24T17:47:48Z</time>
      </trkpt>
      <trkpt lat="40.222485" lon="-3.8047097">
        <ele>639.83</ele>
        <time>2021-03-24T17:47:50Z</time>
      </trkpt>
      <trkpt lat="40.222523" lon="-3.8047476">
        <ele>639.83</ele>
        <time>2021-03-24T17:47:51Z</time>
      </trkpt>
      <trkpt lat="40.222607" lon="-3.8048217">
        <ele>639.83</ele>
        <time>2021-03-24T17:47:53Z</time>
      </trkpt>
      <trkpt lat="40.2227" lon="-3.8048954">
        <ele>639.83</ele>
        <time>2021-03-24T17:47:55Z</time>
      </trkpt>
      <trkpt lat="40.222744" lon="-3.8049304">
        <ele>639.83</ele>
        <time>2021-03-24T17:47:56Z</time>
      </trkpt>
      <trkpt lat="40.222794" lon="-3.804966">
        <ele>639.83</ele>
        <time>2021-03-24T17:47:57Z</time>
      </trkpt>
      <trkpt lat="40.22284" lon="-3.805002">
        <ele>639.83</ele>
        <time>2021-03-24T17:47:58Z</time>
      </trkpt>
      <trkpt lat="40.222885" lon="-3.8050387">
        <ele>639.83</ele>
        <time>2021-03-24T17:47:59Z</time>
      </trkpt>
      <trkpt lat="40.222927" lon="-3.8050745">
        <ele>639.83</ele>
        <time>2021-03-24T17:48:00Z</time>
      </trkpt>
      <trkpt lat="40.223015" lon="-3.805148">
        <ele>639.83</ele>
        <time>2021-03-24T17:48:02Z</time>
      </trkpt>
      <trkpt lat="40.223103" lon="-3.8052235">
        <ele>639.83</ele>
        <time>2021-03-24T17:48:04Z</time>
      </trkpt>
      <trkpt lat="40.223145" lon="-3.805261">
        <ele>639.83</ele>
        <time>2021-03-24T17:48:05Z</time>
      </trkpt>
      <trkpt lat="40.223186" lon="-3.8052967">
        <ele>639.83</ele>
        <time>2021-03-24T17:48:06Z</time>
      </trkpt>
      <trkpt lat="40.223278" lon="-3.8053563">
        <ele>639.83</ele>
        <time>2021-03-24T17:48:08Z</time>
      </trkpt>
      <trkpt lat="40.22337" lon="-3.805408">
        <ele>642.24</ele>
        <time>2021-03-24T17:48:10Z</time>
      </trkpt>
      <trkpt lat="40.223415" lon="-3.8054333">
        <ele>642.24</ele>
        <time>2021-03-24T17:48:11Z</time>
      </trkpt>
      <trkpt lat="40.223507" lon="-3.8054886">
        <ele>642.24</ele>
        <time>2021-03-24T17:48:13Z</time>
      </trkpt>
      <trkpt lat="40.223557" lon="-3.8055177">
        <ele>642.24</ele>
        <time>2021-03-24T17:48:14Z</time>
      </trkpt>
      <trkpt lat="40.22365" lon="-3.8055828">
        <ele>642.24</ele>
        <time>2021-03-24T17:48:16Z</time>
      </trkpt>
      <trkpt lat="40.223698" lon="-3.80562">
        <ele>642.24</ele>
        <time>2021-03-24T17:48:17Z</time>
      </trkpt>
      <trkpt lat="40.223743" lon="-3.8056583">
        <ele>642.24</ele>
        <time>2021-03-24T17:48:18Z</time>
      </trkpt>
      <trkpt lat="40.22379" lon="-3.8056962">
        <ele>642.24</ele>
        <time>2021-03-24T17:48:19Z</time>
      </trkpt>
      <trkpt lat="40.22384" lon="-3.8057344">
        <ele>642.24</ele>
        <time>2021-03-24T17:48:20Z</time>
      </trkpt>
      <trkpt lat="40.22389" lon="-3.80577">
        <ele>642.24</ele>
        <time>2021-03-24T17:48:21Z</time>
      </trkpt>
      <trkpt lat="40.223938" lon="-3.8058052">
        <ele>642.24</ele>
        <time>2021-03-24T17:48:22Z</time>
      </trkpt>
      <trkpt lat="40.22399" lon="-3.8058383">
        <ele>642.24</ele>
        <time>2021-03-24T17:48:23Z</time>
      </trkpt>
      <trkpt lat="40.22404" lon="-3.8058684">
        <ele>642.24</ele>
        <time>2021-03-24T17:48:24Z</time>
      </trkpt>
      <trkpt lat="40.224094" lon="-3.8058922">
        <ele>642.24</ele>
        <time>2021-03-24T17:48:25Z</time>
      </trkpt>
      <trkpt lat="40.224148" lon="-3.8059084">
        <ele>642.24</ele>
        <time>2021-03-24T17:48:26Z</time>
      </trkpt>
      <trkpt lat="40.224205" lon="-3.8059187">
        <ele>642.24</ele>
        <time>2021-03-24T17:48:27Z</time>
      </trkpt>
      <trkpt lat="40.224262" lon="-3.8059268">
        <ele>642.24</ele>
        <time>2021-03-24T17:48:28Z</time>
      </trkpt>
      <trkpt lat="40.224316" lon="-3.805936">
        <ele>642.24</ele>
        <time>2021-03-24T17:48:29Z</time>
      </trkpt>
      <trkpt lat="40.22437" lon="-3.8059497">
        <ele>642.24</ele>
        <time>2021-03-24T17:48:30Z</time>
      </trkpt>
      <trkpt lat="40.22442" lon="-3.8059683">
        <ele>642.24</ele>
        <time>2021-03-24T17:48:31Z</time>
      </trkpt>
      <trkpt lat="40.224472" lon="-3.8059914">
        <ele>642.24</ele>
        <time>2021-03-24T17:48:32Z</time>
      </trkpt>
      <trkpt lat="40.22452" lon="-3.8060184">
        <ele>642.24</ele>
        <time>2021-03-24T17:48:33Z</time>
      </trkpt>
      <trkpt lat="40.224567" lon="-3.8060486">
        <ele>642.24</ele>
        <time>2021-03-24T17:48:34Z</time>
      </trkpt>
      <trkpt lat="40.224613" lon="-3.806082">
        <ele>642.24</ele>
        <time>2021-03-24T17:48:35Z</time>
      </trkpt>
      <trkpt lat="40.22466" lon="-3.8061156">
        <ele>642.24</ele>
        <time>2021-03-24T17:48:36Z</time>
      </trkpt>
      <trkpt lat="40.22471" lon="-3.806148">
        <ele>642.24</ele>
        <time>2021-03-24T17:48:37Z</time>
      </trkpt>
      <trkpt lat="40.224754" lon="-3.8061802">
        <ele>642.24</ele>
        <time>2021-03-24T17:48:38Z</time>
      </trkpt>
      <trkpt lat="40.224804" lon="-3.8062103">
        <ele>642.24</ele>
        <time>2021-03-24T17:48:39Z</time>
      </trkpt>
      <trkpt lat="40.224854" lon="-3.8062396">
        <ele>642.24</ele>
        <time>2021-03-24T17:48:40Z</time>
      </trkpt>
      <trkpt lat="40.22495" lon="-3.8062887">
        <ele>642.24</ele>
        <time>2021-03-24T17:48:42Z</time>
      </trkpt>
      <trkpt lat="40.225" lon="-3.8063083">
        <ele>642.24</ele>
        <time>2021-03-24T17:48:43Z</time>
      </trkpt>
      <trkpt lat="40.225048" lon="-3.8063266">
        <ele>642.24</ele>
        <time>2021-03-24T17:48:44Z</time>
      </trkpt>
      <trkpt lat="40.225098" lon="-3.806344">
        <ele>642.24</ele>
        <time>2021-03-24T17:48:45Z</time>
      </trkpt>
      <trkpt lat="40.225204" lon="-3.8063781">
        <ele>642.24</ele>
        <time>2021-03-24T17:48:47Z</time>
      </trkpt>
      <trkpt lat="40.225258" lon="-3.8063924">
        <ele>642.24</ele>
        <time>2021-03-24T17:48:48Z</time>
      </trkpt>
      <trkpt lat="40.225365" lon="-3.8064158">
        <ele>642.24</ele>
        <time>2021-03-24T17:48:50Z</time>
      </trkpt>
      <trkpt lat="40.22542" lon="-3.8064249">
        <ele>642.24</ele>
        <time>2021-03-24T17:48:51Z</time>
      </trkpt>
      <trkpt lat="40.225475" lon="-3.806435">
        <ele>642.24</ele>
        <time>2021-03-24T17:48:52Z</time>
      </trkpt>
      <trkpt lat="40.22553" lon="-3.8064473">
        <ele>642.24</ele>
        <time>2021-03-24T17:48:53Z</time>
      </trkpt>
      <trkpt lat="40.225582" lon="-3.8064613">
        <ele>642.24</ele>
        <time>2021-03-24T17:48:54Z</time>
      </trkpt>
      <trkpt lat="40.225636" lon="-3.806477">
        <ele>642.24</ele>
        <time>2021-03-24T17:48:55Z</time>
      </trkpt>
      <trkpt lat="40.22569" lon="-3.806496">
        <ele>642.24</ele>
        <time>2021-03-24T17:48:56Z</time>
      </trkpt>
      <trkpt lat="40.225742" lon="-3.8065183">
        <ele>642.24</ele>
        <time>2021-03-24T17:48:57Z</time>
      </trkpt>
      <trkpt lat="40.225796" lon="-3.8065445">
        <ele>642.24</ele>
        <time>2021-03-24T17:48:58Z</time>
      </trkpt>
      <trkpt lat="40.225845" lon="-3.806573">
        <ele>642.24</ele>
        <time>2021-03-24T17:48:59Z</time>
      </trkpt>
      <trkpt lat="40.225895" lon="-3.8066025">
        <ele>642.24</ele>
        <time>2021-03-24T17:49:00Z</time>
      </trkpt>
      <trkpt lat="40.22595" lon="-3.8066323">
        <ele>642.24</ele>
        <time>2021-03-24T17:49:01Z</time>
      </trkpt>
      <trkpt lat="40.225998" lon="-3.8066604">
        <ele>642.24</ele>
        <time>2021-03-24T17:49:02Z</time>
      </trkpt>
      <trkpt lat="40.22605" lon="-3.8066862">
        <ele>642.24</ele>
        <time>2021-03-24T17:49:03Z</time>
      </trkpt>
      <trkpt lat="40.226105" lon="-3.8067098">
        <ele>642.24</ele>
        <time>2021-03-24T17:49:04Z</time>
      </trkpt>
      <trkpt lat="40.226154" lon="-3.806733">
        <ele>642.24</ele>
        <time>2021-03-24T17:49:05Z</time>
      </trkpt>
      <trkpt lat="40.226208" lon="-3.8067563">
        <ele>642.24</ele>
        <time>2021-03-24T17:49:06Z</time>
      </trkpt>
      <trkpt lat="40.226257" lon="-3.8067796">
        <ele>642.24</ele>
        <time>2021-03-24T17:49:07Z</time>
      </trkpt>
      <trkpt lat="40.22631" lon="-3.8068023">
        <ele>642.24</ele>
        <time>2021-03-24T17:49:08Z</time>
      </trkpt>
      <trkpt lat="40.22636" lon="-3.8068264">
        <ele>642.24</ele>
        <time>2021-03-24T17:49:09Z</time>
      </trkpt>
      <trkpt lat="40.226418" lon="-3.806851">
        <ele>642.24</ele>
        <time>2021-03-24T17:49:10Z</time>
      </trkpt>
      <trkpt lat="40.226467" lon="-3.8068728">
        <ele>642.24</ele>
        <time>2021-03-24T17:49:11Z</time>
      </trkpt>
      <trkpt lat="40.22652" lon="-3.806896">
        <ele>642.24</ele>
        <time>2021-03-24T17:49:12Z</time>
      </trkpt>
      <trkpt lat="40.22657" lon="-3.8069196">
        <ele>642.24</ele>
        <time>2021-03-24T17:49:13Z</time>
      </trkpt>
      <trkpt lat="40.226624" lon="-3.8069427">
        <ele>642.24</ele>
        <time>2021-03-24T17:49:14Z</time>
      </trkpt>
      <trkpt lat="40.226677" lon="-3.8069644">
        <ele>642.24</ele>
        <time>2021-03-24T17:49:15Z</time>
      </trkpt>
      <trkpt lat="40.22673" lon="-3.806985">
        <ele>642.24</ele>
        <time>2021-03-24T17:49:16Z</time>
      </trkpt>
      <trkpt lat="40.226784" lon="-3.8070033">
        <ele>642.24</ele>
        <time>2021-03-24T17:49:17Z</time>
      </trkpt>
      <trkpt lat="40.22684" lon="-3.8070192">
        <ele>642.24</ele>
        <time>2021-03-24T17:49:18Z</time>
      </trkpt>
      <trkpt lat="40.226894" lon="-3.807032">
        <ele>642.24</ele>
        <time>2021-03-24T17:49:19Z</time>
      </trkpt>
      <trkpt lat="40.22695" lon="-3.8070421">
        <ele>642.24</ele>
        <time>2021-03-24T17:49:20Z</time>
      </trkpt>
      <trkpt lat="40.22701" lon="-3.8070514">
        <ele>642.24</ele>
        <time>2021-03-24T17:49:21Z</time>
      </trkpt>
      <trkpt lat="40.227066" lon="-3.8070598">
        <ele>642.24</ele>
        <time>2021-03-24T17:49:22Z</time>
      </trkpt>
      <trkpt lat="40.227123" lon="-3.8070667">
        <ele>642.24</ele>
        <time>2021-03-24T17:49:23Z</time>
      </trkpt>
      <trkpt lat="40.22718" lon="-3.8070734">
        <ele>642.24</ele>
        <time>2021-03-24T17:49:24Z</time>
      </trkpt>
      <trkpt lat="40.227238" lon="-3.8070793">
        <ele>642.24</ele>
        <time>2021-03-24T17:49:25Z</time>
      </trkpt>
      <trkpt lat="40.227295" lon="-3.807085">
        <ele>642.24</ele>
        <time>2021-03-24T17:49:26Z</time>
      </trkpt>
      <trkpt lat="40.227352" lon="-3.8070903">
        <ele>642.24</ele>
        <time>2021-03-24T17:49:27Z</time>
      </trkpt>
      <trkpt lat="40.227413" lon="-3.807095">
        <ele>642.24</ele>
        <time>2021-03-24T17:49:28Z</time>
      </trkpt>
      <trkpt lat="40.22747" lon="-3.8070982">
        <ele>642.24</ele>
        <time>2021-03-24T17:49:29Z</time>
      </trkpt>
      <trkpt lat="40.227528" lon="-3.8071">
        <ele>642.24</ele>
        <time>2021-03-24T17:49:30Z</time>
      </trkpt>
      <trkpt lat="40.22759" lon="-3.8071">
        <ele>642.24</ele>
        <time>2021-03-24T17:49:31Z</time>
      </trkpt>
      <trkpt lat="40.22765" lon="-3.8071">
        <ele>642.24</ele>
        <time>2021-03-24T17:49:32Z</time>
      </trkpt>
      <trkpt lat="40.22771" lon="-3.8071024">
        <ele>642.24</ele>
        <time>2021-03-24T17:49:33Z</time>
      </trkpt>
      <trkpt lat="40.227833" lon="-3.8071153">
        <ele>642.24</ele>
        <time>2021-03-24T17:49:35Z</time>
      </trkpt>
      <trkpt lat="40.22789" lon="-3.807126">
        <ele>643.42</ele>
        <time>2021-03-24T17:49:36Z</time>
      </trkpt>
      <trkpt lat="40.228004" lon="-3.8071556">
        <ele>643.42</ele>
        <time>2021-03-24T17:49:38Z</time>
      </trkpt>
      <trkpt lat="40.22806" lon="-3.807172">
        <ele>643.42</ele>
        <time>2021-03-24T17:49:39Z</time>
      </trkpt>
      <trkpt lat="40.22812" lon="-3.8071904">
        <ele>643.42</ele>
        <time>2021-03-24T17:49:40Z</time>
      </trkpt>
      <trkpt lat="40.228172" lon="-3.80721">
        <ele>643.42</ele>
        <time>2021-03-24T17:49:41Z</time>
      </trkpt>
      <trkpt lat="40.22823" lon="-3.8072307">
        <ele>643.42</ele>
        <time>2021-03-24T17:49:42Z</time>
      </trkpt>
      <trkpt lat="40.228283" lon="-3.807252">
        <ele>643.42</ele>
        <time>2021-03-24T17:49:43Z</time>
      </trkpt>
      <trkpt lat="40.228336" lon="-3.8072743">
        <ele>643.42</ele>
        <time>2021-03-24T17:49:44Z</time>
      </trkpt>
      <trkpt lat="40.228386" lon="-3.8072972">
        <ele>643.42</ele>
        <time>2021-03-24T17:49:45Z</time>
      </trkpt>
      <trkpt lat="40.228485" lon="-3.8073483">
        <ele>643.42</ele>
        <time>2021-03-24T17:49:47Z</time>
      </trkpt>
      <trkpt lat="40.22853" lon="-3.8073754">
        <ele>643.42</ele>
        <time>2021-03-24T17:49:48Z</time>
      </trkpt>
      <trkpt lat="40.228577" lon="-3.807404">
        <ele>643.42</ele>
        <time>2021-03-24T17:49:49Z</time>
      </trkpt>
      <trkpt lat="40.228622" lon="-3.807433">
        <ele>643.42</ele>
        <time>2021-03-24T17:49:50Z</time>
      </trkpt>
      <trkpt lat="40.228714" lon="-3.8074844">
        <ele>643.42</ele>
        <time>2021-03-24T17:49:52Z</time>
      </trkpt>
      <trkpt lat="40.228806" lon="-3.807517">
        <ele>643.42</ele>
        <time>2021-03-24T17:49:54Z</time>
      </trkpt>
      <trkpt lat="40.228897" lon="-3.8075237">
        <ele>643.42</ele>
        <time>2021-03-24T17:49:56Z</time>
      </trkpt>
      <trkpt lat="40.228996" lon="-3.8075264">
        <ele>644.6</ele>
        <time>2021-03-24T17:49:58Z</time>
      </trkpt>
      <trkpt lat="40.229042" lon="-3.807529">
        <ele>644.6</ele>
        <time>2021-03-24T17:49:59Z</time>
      </trkpt>
      <trkpt lat="40.229137" lon="-3.80754">
        <ele>644.6</ele>
        <time>2021-03-24T17:50:01Z</time>
      </trkpt>
      <trkpt lat="40.229187" lon="-3.8075488">
        <ele>644.6</ele>
        <time>2021-03-24T17:50:02Z</time>
      </trkpt>
      <trkpt lat="40.229282" lon="-3.80757">
        <ele>645.78</ele>
        <time>2021-03-24T17:50:04Z</time>
      </trkpt>
      <trkpt lat="40.22933" lon="-3.8075817">
        <ele>645.78</ele>
        <time>2021-03-24T17:50:05Z</time>
      </trkpt>
      <trkpt lat="40.229427" lon="-3.807602">
        <ele>645.78</ele>
        <time>2021-03-24T17:50:07Z</time>
      </trkpt>
      <trkpt lat="40.229527" lon="-3.8076138">
        <ele>645.68</ele>
        <time>2021-03-24T17:50:09Z</time>
      </trkpt>
      <trkpt lat="40.229576" lon="-3.8076162">
        <ele>645.68</ele>
        <time>2021-03-24T17:50:10Z</time>
      </trkpt>
      <trkpt lat="40.22968" lon="-3.807618">
        <ele>645.68</ele>
        <time>2021-03-24T17:50:12Z</time>
      </trkpt>
      <trkpt lat="40.22978" lon="-3.8076181">
        <ele>645.68</ele>
        <time>2021-03-24T17:50:14Z</time>
      </trkpt>
      <trkpt lat="40.229874" lon="-3.8076336">
        <ele>645.68</ele>
        <time>2021-03-24T17:50:16Z</time>
      </trkpt>
      <trkpt lat="40.22996" lon="-3.8076777">
        <ele>646.86</ele>
        <time>2021-03-24T17:50:18Z</time>
      </trkpt>
      <trkpt lat="40.230034" lon="-3.8077526">
        <ele>646.86</ele>
        <time>2021-03-24T17:50:20Z</time>
      </trkpt>
      <trkpt lat="40.23009" lon="-3.8078516">
        <ele>646.86</ele>
        <time>2021-03-24T17:50:22Z</time>
      </trkpt>
      <trkpt lat="40.23014" lon="-3.807962">
        <ele>646.86</ele>
        <time>2021-03-24T17:50:24Z</time>
      </trkpt>
      <trkpt lat="40.230194" lon="-3.8080692">
        <ele>646.86</ele>
        <time>2021-03-24T17:50:26Z</time>
      </trkpt>
      <trkpt lat="40.230263" lon="-3.8081553">
        <ele>646.86</ele>
        <time>2021-03-24T17:50:28Z</time>
      </trkpt>
      <trkpt lat="40.230347" lon="-3.8082">
        <ele>646.86</ele>
        <time>2021-03-24T17:50:30Z</time>
      </trkpt>
      <trkpt lat="40.230434" lon="-3.808202">
        <ele>646.86</ele>
        <time>2021-03-24T17:50:32Z</time>
      </trkpt>
      <trkpt lat="40.230526" lon="-3.8081684">
        <ele>646.86</ele>
        <time>2021-03-24T17:50:34Z</time>
      </trkpt>
      <trkpt lat="40.230663" lon="-3.80805">
        <ele>646.86</ele>
        <time>2021-03-24T17:50:39Z</time>
      </trkpt>
      <trkpt lat="40.230713" lon="-3.808003">
        <ele>646.86</ele>
        <time>2021-03-24T17:50:40Z</time>
      </trkpt>
      <trkpt lat="40.230755" lon="-3.8079646">
        <ele>646.86</ele>
        <time>2021-03-24T17:50:41Z</time>
      </trkpt>
      <trkpt lat="40.230793" lon="-3.807931">
        <ele>646.86</ele>
        <time>2021-03-24T17:50:42Z</time>
      </trkpt>
      <trkpt lat="40.230858" lon="-3.8078723">
        <ele>646.86</ele>
        <time>2021-03-24T17:50:44Z</time>
      </trkpt>
      <trkpt lat="40.230923" lon="-3.8078227">
        <ele>646.86</ele>
        <time>2021-03-24T17:50:46Z</time>
      </trkpt>
      <trkpt lat="40.230995" lon="-3.807778">
        <ele>646.86</ele>
        <time>2021-03-24T17:50:48Z</time>
      </trkpt>
      <trkpt lat="40.231075" lon="-3.8077393">
        <ele>646.86</ele>
        <time>2021-03-24T17:50:50Z</time>
      </trkpt>
      <trkpt lat="40.231163" lon="-3.8077111">
        <ele>646.86</ele>
        <time>2021-03-24T17:50:52Z</time>
      </trkpt>
      <trkpt lat="40.23126" lon="-3.8076944">
        <ele>646.86</ele>
        <time>2021-03-24T17:50:54Z</time>
      </trkpt>
      <trkpt lat="40.23131" lon="-3.807689">
        <ele>646.86</ele>
        <time>2021-03-24T17:50:55Z</time>
      </trkpt>
      <trkpt lat="40.231415" lon="-3.80768">
        <ele>646.86</ele>
        <time>2021-03-24T17:50:57Z</time>
      </trkpt>
      <trkpt lat="40.23147" lon="-3.8076756">
        <ele>646.86</ele>
        <time>2021-03-24T17:50:58Z</time>
      </trkpt>
      <trkpt lat="40.23152" lon="-3.8076718">
        <ele>646.86</ele>
        <time>2021-03-24T17:50:59Z</time>
      </trkpt>
      <trkpt lat="40.231575" lon="-3.8076684">
        <ele>646.86</ele>
        <time>2021-03-24T17:51:00Z</time>
      </trkpt>
      <trkpt lat="40.231632" lon="-3.8076658">
        <ele>646.86</ele>
        <time>2021-03-24T17:51:01Z</time>
      </trkpt>
      <trkpt lat="40.23169" lon="-3.8076646">
        <ele>646.86</ele>
        <time>2021-03-24T17:51:02Z</time>
      </trkpt>
      <trkpt lat="40.23175" lon="-3.8076625">
        <ele>646.86</ele>
        <time>2021-03-24T17:51:03Z</time>
      </trkpt>
      <trkpt lat="40.231815" lon="-3.807659">
        <ele>646.86</ele>
        <time>2021-03-24T17:51:04Z</time>
      </trkpt>
      <trkpt lat="40.231876" lon="-3.807656">
        <ele>646.86</ele>
        <time>2021-03-24T17:51:05Z</time>
      </trkpt>
      <trkpt lat="40.23194" lon="-3.8076544">
        <ele>646.86</ele>
        <time>2021-03-24T17:51:06Z</time>
      </trkpt>
      <trkpt lat="40.232002" lon="-3.8076556">
        <ele>646.86</ele>
        <time>2021-03-24T17:51:07Z</time>
      </trkpt>
      <trkpt lat="40.232067" lon="-3.807658">
        <ele>646.86</ele>
        <time>2021-03-24T17:51:08Z</time>
      </trkpt>
      <trkpt lat="40.232132" lon="-3.8076637">
        <ele>646.86</ele>
        <time>2021-03-24T17:51:09Z</time>
      </trkpt>
      <trkpt lat="40.232193" lon="-3.8076694">
        <ele>645.59</ele>
        <time>2021-03-24T17:51:10Z</time>
      </trkpt>
      <trkpt lat="40.232254" lon="-3.8076766">
        <ele>645.59</ele>
        <time>2021-03-24T17:51:11Z</time>
      </trkpt>
      <trkpt lat="40.23231" lon="-3.807684">
        <ele>645.59</ele>
        <time>2021-03-24T17:51:12Z</time>
      </trkpt>
      <trkpt lat="40.232372" lon="-3.80769">
        <ele>645.59</ele>
        <time>2021-03-24T17:51:13Z</time>
      </trkpt>
      <trkpt lat="40.232433" lon="-3.807699">
        <ele>645.59</ele>
        <time>2021-03-24T17:51:14Z</time>
      </trkpt>
      <trkpt lat="40.232487" lon="-3.8077092">
        <ele>645.59</ele>
        <time>2021-03-24T17:51:15Z</time>
      </trkpt>
      <trkpt lat="40.23254" lon="-3.8077214">
        <ele>645.59</ele>
        <time>2021-03-24T17:51:16Z</time>
      </trkpt>
      <trkpt lat="40.232597" lon="-3.807734">
        <ele>645.59</ele>
        <time>2021-03-24T17:51:17Z</time>
      </trkpt>
      <trkpt lat="40.23265" lon="-3.8077457">
        <ele>645.59</ele>
        <time>2021-03-24T17:51:18Z</time>
      </trkpt>
      <trkpt lat="40.232708" lon="-3.8077552">
        <ele>645.59</ele>
        <time>2021-03-24T17:51:19Z</time>
      </trkpt>
      <trkpt lat="40.232765" lon="-3.8077626">
        <ele>645.59</ele>
        <time>2021-03-24T17:51:20Z</time>
      </trkpt>
      <trkpt lat="40.232822" lon="-3.8077664">
        <ele>645.59</ele>
        <time>2021-03-24T17:51:21Z</time>
      </trkpt>
      <trkpt lat="40.23288" lon="-3.8077667">
        <ele>645.59</ele>
        <time>2021-03-24T17:51:22Z</time>
      </trkpt>
      <trkpt lat="40.232937" lon="-3.8077664">
        <ele>645.59</ele>
        <time>2021-03-24T17:51:23Z</time>
      </trkpt>
      <trkpt lat="40.23299" lon="-3.8077648">
        <ele>645.59</ele>
        <time>2021-03-24T17:51:24Z</time>
      </trkpt>
      <trkpt lat="40.233047" lon="-3.8077636">
        <ele>645.59</ele>
        <time>2021-03-24T17:51:25Z</time>
      </trkpt>
      <trkpt lat="40.233105" lon="-3.807765">
        <ele>645.59</ele>
        <time>2021-03-24T17:51:26Z</time>
      </trkpt>
      <trkpt lat="40.233162" lon="-3.8077693">
        <ele>645.59</ele>
        <time>2021-03-24T17:51:27Z</time>
      </trkpt>
      <trkpt lat="40.23328" lon="-3.8077893">
        <ele>645.59</ele>
        <time>2021-03-24T17:51:29Z</time>
      </trkpt>
      <trkpt lat="40.233337" lon="-3.807806">
        <ele>645.59</ele>
        <time>2021-03-24T17:51:30Z</time>
      </trkpt>
      <trkpt lat="40.23339" lon="-3.8078253">
        <ele>645.59</ele>
        <time>2021-03-24T17:51:31Z</time>
      </trkpt>
      <trkpt lat="40.233448" lon="-3.8078477">
        <ele>645.59</ele>
        <time>2021-03-24T17:51:32Z</time>
      </trkpt>
      <trkpt lat="40.23356" lon="-3.807899">
        <ele>645.59</ele>
        <time>2021-03-24T17:51:34Z</time>
      </trkpt>
      <trkpt lat="40.233612" lon="-3.8079262">
        <ele>645.59</ele>
        <time>2021-03-24T17:51:35Z</time>
      </trkpt>
      <trkpt lat="40.23366" lon="-3.8079545">
        <ele>645.59</ele>
        <time>2021-03-24T17:51:36Z</time>
      </trkpt>
      <trkpt lat="40.23371" lon="-3.8079836">
        <ele>645.59</ele>
        <time>2021-03-24T17:51:37Z</time>
      </trkpt>
      <trkpt lat="40.233765" lon="-3.8080153">
        <ele>645.59</ele>
        <time>2021-03-24T17:51:38Z</time>
      </trkpt>
      <trkpt lat="40.233814" lon="-3.808045">
        <ele>645.59</ele>
        <time>2021-03-24T17:51:39Z</time>
      </trkpt>
      <trkpt lat="40.233864" lon="-3.8080742">
        <ele>645.59</ele>
        <time>2021-03-24T17:51:40Z</time>
      </trkpt>
      <trkpt lat="40.233913" lon="-3.8081033">
        <ele>645.59</ele>
        <time>2021-03-24T17:51:41Z</time>
      </trkpt>
      <trkpt lat="40.233963" lon="-3.808134">
        <ele>645.59</ele>
        <time>2021-03-24T17:51:42Z</time>
      </trkpt>
      <trkpt lat="40.23401" lon="-3.8081665">
        <ele>646.86</ele>
        <time>2021-03-24T17:51:43Z</time>
      </trkpt>
      <trkpt lat="40.23406" lon="-3.808201">
        <ele>646.86</ele>
        <time>2021-03-24T17:51:44Z</time>
      </trkpt>
      <trkpt lat="40.234104" lon="-3.8082366">
        <ele>646.86</ele>
        <time>2021-03-24T17:51:45Z</time>
      </trkpt>
      <trkpt lat="40.234154" lon="-3.8082736">
        <ele>646.86</ele>
        <time>2021-03-24T17:51:46Z</time>
      </trkpt>
      <trkpt lat="40.2342" lon="-3.8083117">
        <ele>646.86</ele>
        <time>2021-03-24T17:51:47Z</time>
      </trkpt>
      <trkpt lat="40.23424" lon="-3.8083508">
        <ele>646.86</ele>
        <time>2021-03-24T17:51:48Z</time>
      </trkpt>
      <trkpt lat="40.234287" lon="-3.8083887">
        <ele>646.86</ele>
        <time>2021-03-24T17:51:49Z</time>
      </trkpt>
      <trkpt lat="40.234333" lon="-3.808426">
        <ele>648.05</ele>
        <time>2021-03-24T17:51:50Z</time>
      </trkpt>
      <trkpt lat="40.23438" lon="-3.808464">
        <ele>648.05</ele>
        <time>2021-03-24T17:51:51Z</time>
      </trkpt>
      <trkpt lat="40.23442" lon="-3.8085022">
        <ele>648.05</ele>
        <time>2021-03-24T17:51:52Z</time>
      </trkpt>
      <trkpt lat="40.234467" lon="-3.8085406">
        <ele>648.05</ele>
        <time>2021-03-24T17:51:53Z</time>
      </trkpt>
      <trkpt lat="40.23455" lon="-3.8086166">
        <ele>648.05</ele>
        <time>2021-03-24T17:51:55Z</time>
      </trkpt>
      <trkpt lat="40.234592" lon="-3.8086553">
        <ele>648.05</ele>
        <time>2021-03-24T17:51:56Z</time>
      </trkpt>
      <trkpt lat="40.234673" lon="-3.8087327">
        <ele>648.05</ele>
        <time>2021-03-24T17:51:58Z</time>
      </trkpt>
      <trkpt lat="40.234715" lon="-3.808771">
        <ele>649.23</ele>
        <time>2021-03-24T17:51:59Z</time>
      </trkpt>
      <trkpt lat="40.23479" lon="-3.8088484">
        <ele>649.23</ele>
        <time>2021-03-24T17:52:01Z</time>
      </trkpt>
      <trkpt lat="40.234867" lon="-3.8089232">
        <ele>649.23</ele>
        <time>2021-03-24T17:52:03Z</time>
      </trkpt>
      <trkpt lat="40.234905" lon="-3.808961">
        <ele>649.23</ele>
        <time>2021-03-24T17:52:04Z</time>
      </trkpt>
      <trkpt lat="40.234978" lon="-3.8090353">
        <ele>649.23</ele>
        <time>2021-03-24T17:52:06Z</time>
      </trkpt>
      <trkpt lat="40.23505" lon="-3.8091092">
        <ele>649.23</ele>
        <time>2021-03-24T17:52:08Z</time>
      </trkpt>
      <trkpt lat="40.23509" lon="-3.809147">
        <ele>649.23</ele>
        <time>2021-03-24T17:52:09Z</time>
      </trkpt>
      <trkpt lat="40.235165" lon="-3.809223">
        <ele>650.41</ele>
        <time>2021-03-24T17:52:11Z</time>
      </trkpt>
      <trkpt lat="40.235233" lon="-3.8093019">
        <ele>648.46</ele>
        <time>2021-03-24T17:52:13Z</time>
      </trkpt>
      <trkpt lat="40.235268" lon="-3.8093414">
        <ele>648.46</ele>
        <time>2021-03-24T17:52:14Z</time>
      </trkpt>
      <trkpt lat="40.23534" lon="-3.8094244">
        <ele>648.46</ele>
        <time>2021-03-24T17:52:16Z</time>
      </trkpt>
      <trkpt lat="40.235405" lon="-3.809509">
        <ele>648.46</ele>
        <time>2021-03-24T17:52:18Z</time>
      </trkpt>
      <trkpt lat="40.235435" lon="-3.809552">
        <ele>648.46</ele>
        <time>2021-03-24T17:52:19Z</time>
      </trkpt>
      <trkpt lat="40.2355" lon="-3.809639">
        <ele>648.46</ele>
        <time>2021-03-24T17:52:21Z</time>
      </trkpt>
      <trkpt lat="40.23557" lon="-3.809727">
        <ele>648.46</ele>
        <time>2021-03-24T17:52:23Z</time>
      </trkpt>
      <trkpt lat="40.23563" lon="-3.8098173">
        <ele>648.46</ele>
        <time>2021-03-24T17:52:25Z</time>
      </trkpt>
      <trkpt lat="40.23569" lon="-3.8099084">
        <ele>648.46</ele>
        <time>2021-03-24T17:52:27Z</time>
      </trkpt>
      <trkpt lat="40.235756" lon="-3.8099995">
        <ele>648.46</ele>
        <time>2021-03-24T17:52:29Z</time>
      </trkpt>
      <trkpt lat="40.23579" lon="-3.810045">
        <ele>648.46</ele>
        <time>2021-03-24T17:52:30Z</time>
      </trkpt>
      <trkpt lat="40.235855" lon="-3.810138">
        <ele>648.46</ele>
        <time>2021-03-24T17:52:32Z</time>
      </trkpt>
      <trkpt lat="40.23592" lon="-3.810232">
        <ele>648.46</ele>
        <time>2021-03-24T17:52:34Z</time>
      </trkpt>
      <trkpt lat="40.23595" lon="-3.8102794">
        <ele>648.46</ele>
        <time>2021-03-24T17:52:35Z</time>
      </trkpt>
      <trkpt lat="40.23601" lon="-3.8103757">
        <ele>648.46</ele>
        <time>2021-03-24T17:52:37Z</time>
      </trkpt>
      <trkpt lat="40.236042" lon="-3.810424">
        <ele>648.46</ele>
        <time>2021-03-24T17:52:38Z</time>
      </trkpt>
      <trkpt lat="40.2361" lon="-3.810518">
        <ele>649.64</ele>
        <time>2021-03-24T17:52:40Z</time>
      </trkpt>
      <trkpt lat="40.236145" lon="-3.8106012">
        <ele>649.64</ele>
        <time>2021-03-24T17:52:42Z</time>
      </trkpt>
      <trkpt lat="40.23618" lon="-3.8106737">
        <ele>649.64</ele>
        <time>2021-03-24T17:52:44Z</time>
      </trkpt>
      <trkpt lat="40.23621" lon="-3.8107357">
        <ele>649.64</ele>
        <time>2021-03-24T17:52:46Z</time>
      </trkpt>
      <trkpt lat="40.236237" lon="-3.8107893">
        <ele>650.92</ele>
        <time>2021-03-24T17:52:48Z</time>
      </trkpt>
      <trkpt lat="40.23627" lon="-3.8108647">
        <ele>650.92</ele>
        <time>2021-03-24T17:52:51Z</time>
      </trkpt>
      <trkpt lat="40.236294" lon="-3.8109446">
        <ele>652.1</ele>
        <time>2021-03-24T17:52:54Z</time>
      </trkpt>
      <trkpt lat="40.236313" lon="-3.8110282">
        <ele>652.1</ele>
        <time>2021-03-24T17:52:57Z</time>
      </trkpt>
      <trkpt lat="40.236324" lon="-3.8110852">
        <ele>653.46</ele>
        <time>2021-03-24T17:52:59Z</time>
      </trkpt>
      <trkpt lat="40.236343" lon="-3.8111696">
        <ele>653.46</ele>
        <time>2021-03-24T17:53:02Z</time>
      </trkpt>
      <trkpt lat="40.236366" lon="-3.811256">
        <ele>654.83</ele>
        <time>2021-03-24T17:53:05Z</time>
      </trkpt>
      <trkpt lat="40.236393" lon="-3.8113406">
        <ele>656.19</ele>
        <time>2021-03-24T17:53:08Z</time>
      </trkpt>
      <trkpt lat="40.236416" lon="-3.811425">
        <ele>656.19</ele>
        <time>2021-03-24T17:53:11Z</time>
      </trkpt>
      <trkpt lat="40.236446" lon="-3.8115084">
        <ele>657.37</ele>
        <time>2021-03-24T17:53:14Z</time>
      </trkpt>
      <trkpt lat="40.236485" lon="-3.8115904">
        <ele>657.37</ele>
        <time>2021-03-24T17:53:17Z</time>
      </trkpt>
      <trkpt lat="40.23652" lon="-3.8116512">
        <ele>657.37</ele>
        <time>2021-03-24T17:53:19Z</time>
      </trkpt>
      <trkpt lat="40.23656" lon="-3.8117146">
        <ele>657.37</ele>
        <time>2021-03-24T17:53:21Z</time>
      </trkpt>
      <trkpt lat="40.23662" lon="-3.8117754">
        <ele>657.37</ele>
        <time>2021-03-24T17:53:23Z</time>
      </trkpt>
      <trkpt lat="40.2367" lon="-3.811829">
        <ele>657.37</ele>
        <time>2021-03-24T17:53:25Z</time>
      </trkpt>
      <trkpt lat="40.236786" lon="-3.8118796">
        <ele>657.37</ele>
        <time>2021-03-24T17:53:27Z</time>
      </trkpt>
      <trkpt lat="40.23689" lon="-3.8119297">
        <ele>656.01</ele>
        <time>2021-03-24T17:53:29Z</time>
      </trkpt>
      <trkpt lat="40.236942" lon="-3.8119564">
        <ele>656.01</ele>
        <time>2021-03-24T17:53:30Z</time>
      </trkpt>
      <trkpt lat="40.236996" lon="-3.811985">
        <ele>656.01</ele>
        <time>2021-03-24T17:53:31Z</time>
      </trkpt>
      <trkpt lat="40.237045" lon="-3.8120153">
        <ele>654.64</ele>
        <time>2021-03-24T17:53:32Z</time>
      </trkpt>
      <trkpt lat="40.2371" lon="-3.8120503">
        <ele>654.64</ele>
        <time>2021-03-24T17:53:33Z</time>
      </trkpt>
      <trkpt lat="40.23715" lon="-3.8120873">
        <ele>654.64</ele>
        <time>2021-03-24T17:53:34Z</time>
      </trkpt>
      <trkpt lat="40.237236" lon="-3.8121657">
        <ele>653.19</ele>
        <time>2021-03-24T17:53:36Z</time>
      </trkpt>
      <trkpt lat="40.237274" lon="-3.8122044">
        <ele>653.19</ele>
        <time>2021-03-24T17:53:37Z</time>
      </trkpt>
      <trkpt lat="40.23731" lon="-3.8122404">
        <ele>653.19</ele>
        <time>2021-03-24T17:53:38Z</time>
      </trkpt>
      <trkpt lat="40.237366" lon="-3.812292">
        <ele>651.83</ele>
        <time>2021-03-24T17:53:40Z</time>
      </trkpt>
      <trkpt lat="40.237404" lon="-3.812311">
        <ele>651.83</ele>
        <time>2021-03-24T17:53:42Z</time>
      </trkpt>
      <trkpt lat="40.237427" lon="-3.8122745">
        <ele>650.55</ele>
        <time>2021-03-24T17:53:47Z</time>
      </trkpt>
      <trkpt lat="40.237392" lon="-3.8122013">
        <ele>650.55</ele>
        <time>2021-03-24T17:53:51Z</time>
      </trkpt>
      <trkpt lat="40.237335" lon="-3.8121305">
        <ele>650.55</ele>
        <time>2021-03-24T17:53:54Z</time>
      </trkpt>
      <trkpt lat="40.23729" lon="-3.8120806">
        <ele>650.55</ele>
        <time>2021-03-24T17:53:56Z</time>
      </trkpt>
      <trkpt lat="40.23724" lon="-3.8120303">
        <ele>650.55</ele>
        <time>2021-03-24T17:53:58Z</time>
      </trkpt>
      <trkpt lat="40.23719" lon="-3.8119824">
        <ele>650.55</ele>
        <time>2021-03-24T17:54:00Z</time>
      </trkpt>
      <trkpt lat="40.237144" lon="-3.8119457">
        <ele>650.55</ele>
        <time>2021-03-24T17:54:02Z</time>
      </trkpt>
      <trkpt lat="40.237076" lon="-3.8118932">
        <ele>650.55</ele>
        <time>2021-03-24T17:54:05Z</time>
      </trkpt>
      <trkpt lat="40.237034" lon="-3.811861">
        <ele>650.55</ele>
        <time>2021-03-24T17:54:07Z</time>
      </trkpt>
      <trkpt lat="40.23699" lon="-3.8118353">
        <ele>650.55</ele>
        <time>2021-03-24T17:54:09Z</time>
      </trkpt>
      <trkpt lat="40.236923" lon="-3.8117833">
        <ele>645.79</ele>
        <time>2021-03-24T17:54:12Z</time>
      </trkpt>
      <trkpt lat="40.236877" lon="-3.8117166">
        <ele>645.79</ele>
        <time>2021-03-24T17:54:14Z</time>
      </trkpt>
      <trkpt lat="40.23687" lon="-3.8116257">
        <ele>645.79</ele>
        <time>2021-03-24T17:54:16Z</time>
      </trkpt>
      <trkpt lat="40.236904" lon="-3.8115363">
        <ele>645.79</ele>
        <time>2021-03-24T17:54:18Z</time>
      </trkpt>
      <trkpt lat="40.236965" lon="-3.811457">
        <ele>645.79</ele>
        <time>2021-03-24T17:54:20Z</time>
      </trkpt>
      <trkpt lat="40.237038" lon="-3.8113847">
        <ele>645.79</ele>
        <time>2021-03-24T17:54:22Z</time>
      </trkpt>
      <trkpt lat="40.237125" lon="-3.8113186">
        <ele>645.79</ele>
        <time>2021-03-24T17:54:24Z</time>
      </trkpt>
      <trkpt lat="40.23717" lon="-3.811287">
        <ele>645.79</ele>
        <time>2021-03-24T17:54:25Z</time>
      </trkpt>
      <trkpt lat="40.237217" lon="-3.8112535">
        <ele>645.79</ele>
        <time>2021-03-24T17:54:26Z</time>
      </trkpt>
      <trkpt lat="40.237267" lon="-3.8112173">
        <ele>644.61</ele>
        <time>2021-03-24T17:54:27Z</time>
      </trkpt>
      <trkpt lat="40.237316" lon="-3.8111784">
        <ele>644.61</ele>
        <time>2021-03-24T17:54:28Z</time>
      </trkpt>
      <trkpt lat="40.237362" lon="-3.811139">
        <ele>644.61</ele>
        <time>2021-03-24T17:54:29Z</time>
      </trkpt>
      <trkpt lat="40.237408" lon="-3.8110983">
        <ele>644.61</ele>
        <time>2021-03-24T17:54:30Z</time>
      </trkpt>
      <trkpt lat="40.23745" lon="-3.811054">
        <ele>644.61</ele>
        <time>2021-03-24T17:54:31Z</time>
      </trkpt>
      <trkpt lat="40.23749" lon="-3.8110087">
        <ele>644.61</ele>
        <time>2021-03-24T17:54:32Z</time>
      </trkpt>
      <trkpt lat="40.237534" lon="-3.810961">
        <ele>644.61</ele>
        <time>2021-03-24T17:54:33Z</time>
      </trkpt>
      <trkpt lat="40.23757" lon="-3.8109124">
        <ele>644.61</ele>
        <time>2021-03-24T17:54:34Z</time>
      </trkpt>
      <trkpt lat="40.23761" lon="-3.810864">
        <ele>644.61</ele>
        <time>2021-03-24T17:54:35Z</time>
      </trkpt>
      <trkpt lat="40.237648" lon="-3.8108163">
        <ele>644.61</ele>
        <time>2021-03-24T17:54:36Z</time>
      </trkpt>
      <trkpt lat="40.237686" lon="-3.81077">
        <ele>644.61</ele>
        <time>2021-03-24T17:54:37Z</time>
      </trkpt>
      <trkpt lat="40.237762" lon="-3.8106828">
        <ele>644.61</ele>
        <time>2021-03-24T17:54:39Z</time>
      </trkpt>
      <trkpt lat="40.237804" lon="-3.8106434">
        <ele>644.61</ele>
        <time>2021-03-24T17:54:40Z</time>
      </trkpt>
      <trkpt lat="40.237885" lon="-3.8105705">
        <ele>644.61</ele>
        <time>2021-03-24T17:54:42Z</time>
      </trkpt>
      <trkpt lat="40.237965" lon="-3.8104963">
        <ele>644.61</ele>
        <time>2021-03-24T17:54:44Z</time>
      </trkpt>
      <trkpt lat="40.238003" lon="-3.8104587">
        <ele>645.97</ele>
        <time>2021-03-24T17:54:45Z</time>
      </trkpt>
      <trkpt lat="40.238045" lon="-3.8104212">
        <ele>645.97</ele>
        <time>2021-03-24T17:54:46Z</time>
      </trkpt>
      <trkpt lat="40.238125" lon="-3.8103461">
        <ele>645.97</ele>
        <time>2021-03-24T17:54:48Z</time>
      </trkpt>
      <trkpt lat="40.238163" lon="-3.8103087">
        <ele>645.97</ele>
        <time>2021-03-24T17:54:49Z</time>
      </trkpt>
      <trkpt lat="40.238243" lon="-3.8102362">
        <ele>647.34</ele>
        <time>2021-03-24T17:54:51Z</time>
      </trkpt>
      <trkpt lat="40.238316" lon="-3.8101678">
        <ele>647.34</ele>
        <time>2021-03-24T17:54:53Z</time>
      </trkpt>
      <trkpt lat="40.238388" lon="-3.8101034">
        <ele>648.52</ele>
        <time>2021-03-24T17:54:55Z</time>
      </trkpt>
      <trkpt lat="40.238457" lon="-3.8100402">
        <ele>648.52</ele>
        <time>2021-03-24T17:54:57Z</time>
      </trkpt>
      <trkpt lat="40.23853" lon="-3.8099794">
        <ele>648.52</ele>
        <time>2021-03-24T17:54:59Z</time>
      </trkpt>
      <trkpt lat="40.238605" lon="-3.8099174">
        <ele>648.52</ele>
        <time>2021-03-24T17:55:01Z</time>
      </trkpt>
      <trkpt lat="40.238678" lon="-3.8098524">
        <ele>648.52</ele>
        <time>2021-03-24T17:55:03Z</time>
      </trkpt>
      <trkpt lat="40.238747" lon="-3.8097825">
        <ele>648.52</ele>
        <time>2021-03-24T17:55:05Z</time>
      </trkpt>
      <trkpt lat="40.23881" lon="-3.8097074">
        <ele>648.52</ele>
        <time>2021-03-24T17:55:07Z</time>
      </trkpt>
      <trkpt lat="40.238873" lon="-3.8096292">
        <ele>648.52</ele>
        <time>2021-03-24T17:55:09Z</time>
      </trkpt>
      <trkpt lat="40.23894" lon="-3.809547">
        <ele>648.52</ele>
        <time>2021-03-24T17:55:11Z</time>
      </trkpt>
      <trkpt lat="40.238976" lon="-3.8095026">
        <ele>648.52</ele>
        <time>2021-03-24T17:55:12Z</time>
      </trkpt>
      <trkpt lat="40.239048" lon="-3.8094077">
        <ele>648.52</ele>
        <time>2021-03-24T17:55:14Z</time>
      </trkpt>
      <trkpt lat="40.23913" lon="-3.8093047">
        <ele>648.52</ele>
        <time>2021-03-24T17:55:16Z</time>
      </trkpt>
      <trkpt lat="40.23917" lon="-3.809249">
        <ele>648.52</ele>
        <time>2021-03-24T17:55:17Z</time>
      </trkpt>
      <trkpt lat="40.239212" lon="-3.8091896">
        <ele>648.52</ele>
        <time>2021-03-24T17:55:18Z</time>
      </trkpt>
      <trkpt lat="40.239258" lon="-3.809128">
        <ele>648.52</ele>
        <time>2021-03-24T17:55:19Z</time>
      </trkpt>
      <trkpt lat="40.239304" lon="-3.8090637">
        <ele>647.34</ele>
        <time>2021-03-24T17:55:20Z</time>
      </trkpt>
      <trkpt lat="40.23935" lon="-3.8089974">
        <ele>647.34</ele>
        <time>2021-03-24T17:55:21Z</time>
      </trkpt>
      <trkpt lat="40.2394" lon="-3.8089302">
        <ele>647.34</ele>
        <time>2021-03-24T17:55:22Z</time>
      </trkpt>
      <trkpt lat="40.23945" lon="-3.8088624">
        <ele>647.34</ele>
        <time>2021-03-24T17:55:23Z</time>
      </trkpt>
      <trkpt lat="40.2395" lon="-3.808794">
        <ele>647.34</ele>
        <time>2021-03-24T17:55:24Z</time>
      </trkpt>
      <trkpt lat="40.239548" lon="-3.8087254">
        <ele>646.15</ele>
        <time>2021-03-24T17:55:25Z</time>
      </trkpt>
      <trkpt lat="40.239597" lon="-3.8086557">
        <ele>646.15</ele>
        <time>2021-03-24T17:55:26Z</time>
      </trkpt>
      <trkpt lat="40.239643" lon="-3.8085852">
        <ele>646.15</ele>
        <time>2021-03-24T17:55:27Z</time>
      </trkpt>
      <trkpt lat="40.239693" lon="-3.8085153">
        <ele>646.15</ele>
        <time>2021-03-24T17:55:28Z</time>
      </trkpt>
      <trkpt lat="40.239742" lon="-3.8084464">
        <ele>646.15</ele>
        <time>2021-03-24T17:55:29Z</time>
      </trkpt>
      <trkpt lat="40.23979" lon="-3.808379">
        <ele>646.15</ele>
        <time>2021-03-24T17:55:30Z</time>
      </trkpt>
      <trkpt lat="40.239838" lon="-3.8083134">
        <ele>646.15</ele>
        <time>2021-03-24T17:55:31Z</time>
      </trkpt>
      <trkpt lat="40.239887" lon="-3.808247">
        <ele>646.15</ele>
        <time>2021-03-24T17:55:32Z</time>
      </trkpt>
      <trkpt lat="40.239937" lon="-3.8081796">
        <ele>644.88</ele>
        <time>2021-03-24T17:55:33Z</time>
      </trkpt>
      <trkpt lat="40.239986" lon="-3.8081114">
        <ele>644.88</ele>
        <time>2021-03-24T17:55:34Z</time>
      </trkpt>
      <trkpt lat="40.240036" lon="-3.8080418">
        <ele>644.88</ele>
        <time>2021-03-24T17:55:35Z</time>
      </trkpt>
      <trkpt lat="40.24008" lon="-3.8079724">
        <ele>644.88</ele>
        <time>2021-03-24T17:55:36Z</time>
      </trkpt>
      <trkpt lat="40.24013" lon="-3.8079028">
        <ele>644.88</ele>
        <time>2021-03-24T17:55:37Z</time>
      </trkpt>
      <trkpt lat="40.240177" lon="-3.8078332">
        <ele>644.88</ele>
        <time>2021-03-24T17:55:38Z</time>
      </trkpt>
      <trkpt lat="40.240227" lon="-3.807763">
        <ele>643.61</ele>
        <time>2021-03-24T17:55:39Z</time>
      </trkpt>
      <trkpt lat="40.240276" lon="-3.807693">
        <ele>643.61</ele>
        <time>2021-03-24T17:55:40Z</time>
      </trkpt>
      <trkpt lat="40.240326" lon="-3.8076227">
        <ele>643.61</ele>
        <time>2021-03-24T17:55:41Z</time>
      </trkpt>
      <trkpt lat="40.240425" lon="-3.807481">
        <ele>643.61</ele>
        <time>2021-03-24T17:55:43Z</time>
      </trkpt>
      <trkpt lat="40.240475" lon="-3.80741">
        <ele>642.34</ele>
        <time>2021-03-24T17:55:44Z</time>
      </trkpt>
      <trkpt lat="40.24052" lon="-3.8073394">
        <ele>642.34</ele>
        <time>2021-03-24T17:55:45Z</time>
      </trkpt>
      <trkpt lat="40.240562" lon="-3.8072708">
        <ele>642.34</ele>
        <time>2021-03-24T17:55:46Z</time>
      </trkpt>
      <trkpt lat="40.240654" lon="-3.8071363">
        <ele>642.34</ele>
        <time>2021-03-24T17:55:48Z</time>
      </trkpt>
      <trkpt lat="40.240696" lon="-3.8070784">
        <ele>640.88</ele>
        <time>2021-03-24T17:55:49Z</time>
      </trkpt>
      <trkpt lat="40.240738" lon="-3.8070252">
        <ele>640.88</ele>
        <time>2021-03-24T17:55:50Z</time>
      </trkpt>
      <trkpt lat="40.240776" lon="-3.8069794">
        <ele>640.88</ele>
        <time>2021-03-24T17:55:51Z</time>
      </trkpt>
      <trkpt lat="40.240818" lon="-3.806942">
        <ele>640.88</ele>
        <time>2021-03-24T17:55:52Z</time>
      </trkpt>
      <trkpt lat="40.240887" lon="-3.8068874">
        <ele>639.61</ele>
        <time>2021-03-24T17:55:54Z</time>
      </trkpt>
      <trkpt lat="40.240944" lon="-3.8068457">
        <ele>639.61</ele>
        <time>2021-03-24T17:55:56Z</time>
      </trkpt>
      <trkpt lat="40.240982" lon="-3.8068073">
        <ele>638.43</ele>
        <time>2021-03-24T17:55:58Z</time>
      </trkpt>
      <trkpt lat="40.241016" lon="-3.8067353">
        <ele>638.43</ele>
        <time>2021-03-24T17:56:01Z</time>
      </trkpt>
      <trkpt lat="40.241035" lon="-3.806637">
        <ele>638.43</ele>
        <time>2021-03-24T17:56:04Z</time>
      </trkpt>
      <trkpt lat="40.241055" lon="-3.8065617">
        <ele>638.43</ele>
        <time>2021-03-24T17:56:06Z</time>
      </trkpt>
      <trkpt lat="40.241077" lon="-3.8064883">
        <ele>638.43</ele>
        <time>2021-03-24T17:56:08Z</time>
      </trkpt>
      <trkpt lat="40.241108" lon="-3.8064167">
        <ele>638.43</ele>
        <time>2021-03-24T17:56:10Z</time>
      </trkpt>
      <trkpt lat="40.24114" lon="-3.806348">
        <ele>642.37</ele>
        <time>2021-03-24T17:56:12Z</time>
      </trkpt>
      <trkpt lat="40.24117" lon="-3.8062713">
        <ele>642.37</ele>
        <time>2021-03-24T17:56:14Z</time>
      </trkpt>
      <trkpt lat="40.2412" lon="-3.8061988">
        <ele>642.37</ele>
        <time>2021-03-24T17:56:16Z</time>
      </trkpt>
      <trkpt lat="40.241234" lon="-3.8061256">
        <ele>642.37</ele>
        <time>2021-03-24T17:56:18Z</time>
      </trkpt>
      <trkpt lat="40.24127" lon="-3.8060508">
        <ele>643.64</ele>
        <time>2021-03-24T17:56:20Z</time>
      </trkpt>
      <trkpt lat="40.241302" lon="-3.8059766">
        <ele>643.64</ele>
        <time>2021-03-24T17:56:22Z</time>
      </trkpt>
      <trkpt lat="40.24134" lon="-3.8059053">
        <ele>643.64</ele>
        <time>2021-03-24T17:56:24Z</time>
      </trkpt>
      <trkpt lat="40.24138" lon="-3.8058374">
        <ele>644.82</ele>
        <time>2021-03-24T17:56:26Z</time>
      </trkpt>
      <trkpt lat="40.241417" lon="-3.8057659">
        <ele>644.82</ele>
        <time>2021-03-24T17:56:28Z</time>
      </trkpt>
      <trkpt lat="40.241455" lon="-3.8056977">
        <ele>644.82</ele>
        <time>2021-03-24T17:56:30Z</time>
      </trkpt>
      <trkpt lat="40.241493" lon="-3.8056314">
        <ele>646.09</ele>
        <time>2021-03-24T17:56:32Z</time>
      </trkpt>
      <trkpt lat="40.24153" lon="-3.8055696">
        <ele>646.09</ele>
        <time>2021-03-24T17:56:34Z</time>
      </trkpt>
      <trkpt lat="40.24157" lon="-3.8055093">
        <ele>646.09</ele>
        <time>2021-03-24T17:56:36Z</time>
      </trkpt>
      <trkpt lat="40.241604" lon="-3.80545">
        <ele>647.28</ele>
        <time>2021-03-24T17:56:38Z</time>
      </trkpt>
      <trkpt lat="40.241642" lon="-3.8053932">
        <ele>647.28</ele>
        <time>2021-03-24T17:56:40Z</time>
      </trkpt>
      <trkpt lat="40.241676" lon="-3.8053424">
        <ele>647.28</ele>
        <time>2021-03-24T17:56:42Z</time>
      </trkpt>
      <trkpt lat="40.241726" lon="-3.805272">
        <ele>648.64</ele>
        <time>2021-03-24T17:56:45Z</time>
      </trkpt>
      <trkpt lat="40.24177" lon="-3.8052053">
        <ele>649.91</ele>
        <time>2021-03-24T17:56:48Z</time>
      </trkpt>
      <trkpt lat="40.241817" lon="-3.8051324">
        <ele>649.91</ele>
        <time>2021-03-24T17:56:51Z</time>
      </trkpt>
      <trkpt lat="40.241863" lon="-3.8050594">
        <ele>651.28</ele>
        <time>2021-03-24T17:56:54Z</time>
      </trkpt>
      <trkpt lat="40.241898" lon="-3.805004">
        <ele>651.28</ele>
        <time>2021-03-24T17:56:56Z</time>
      </trkpt>
      <trkpt lat="40.241936" lon="-3.8049457">
        <ele>651.28</ele>
        <time>2021-03-24T17:56:58Z</time>
      </trkpt>
      <trkpt lat="40.241974" lon="-3.804886">
        <ele>652.46</ele>
        <time>2021-03-24T17:57:00Z</time>
      </trkpt>
      <trkpt lat="40.24201" lon="-3.804829">
        <ele>652.46</ele>
        <time>2021-03-24T17:57:02Z</time>
      </trkpt>
      <trkpt lat="40.242046" lon="-3.8047702">
        <ele>652.46</ele>
        <time>2021-03-24T17:57:04Z</time>
      </trkpt>
      <trkpt lat="40.24208" lon="-3.8047132">
        <ele>653.64</ele>
        <time>2021-03-24T17:57:06Z</time>
      </trkpt>
      <trkpt lat="40.242123" lon="-3.804625">
        <ele>653.64</ele>
        <time>2021-03-24T17:57:09Z</time>
      </trkpt>
      <trkpt lat="40.242157" lon="-3.8045633">
        <ele>653.64</ele>
        <time>2021-03-24T17:57:11Z</time>
      </trkpt>
      <trkpt lat="40.242188" lon="-3.8044963">
        <ele>653.64</ele>
        <time>2021-03-24T17:57:13Z</time>
      </trkpt>
      <trkpt lat="40.24222" lon="-3.8044267">
        <ele>653.64</ele>
        <time>2021-03-24T17:57:15Z</time>
      </trkpt>
      <trkpt lat="40.242256" lon="-3.8043537">
        <ele>654.82</ele>
        <time>2021-03-24T17:57:17Z</time>
      </trkpt>
      <trkpt lat="40.24229" lon="-3.8042817">
        <ele>654.82</ele>
        <time>2021-03-24T17:57:19Z</time>
      </trkpt>
      <trkpt lat="40.24233" lon="-3.8042006">
        <ele>654.82</ele>
        <time>2021-03-24T17:57:21Z</time>
      </trkpt>
      <trkpt lat="40.242363" lon="-3.8041167">
        <ele>654.82</ele>
        <time>2021-03-24T17:57:23Z</time>
      </trkpt>
      <trkpt lat="40.2424" lon="-3.8040223">
        <ele>654.82</ele>
        <time>2021-03-24T17:57:25Z</time>
      </trkpt>
      <trkpt lat="40.242447" lon="-3.8039198">
        <ele>654.82</ele>
        <time>2021-03-24T17:57:27Z</time>
      </trkpt>
      <trkpt lat="40.242493" lon="-3.8038142">
        <ele>654.82</ele>
        <time>2021-03-24T17:57:29Z</time>
      </trkpt>
      <trkpt lat="40.24254" lon="-3.8036964">
        <ele>654.82</ele>
        <time>2021-03-24T17:57:31Z</time>
      </trkpt>
      <trkpt lat="40.242573" lon="-3.8036165">
        <ele>654.82</ele>
        <time>2021-03-24T17:57:33Z</time>
      </trkpt>
      <trkpt lat="40.2426" lon="-3.8035476">
        <ele>654.82</ele>
        <time>2021-03-24T17:57:34Z</time>
      </trkpt>
      <trkpt lat="40.24263" lon="-3.803476">
        <ele>654.82</ele>
        <time>2021-03-24T17:57:35Z</time>
      </trkpt>
      <trkpt lat="40.24266" lon="-3.8034074">
        <ele>654.82</ele>
        <time>2021-03-24T17:57:36Z</time>
      </trkpt>
      <trkpt lat="40.242687" lon="-3.8033404">
        <ele>653.64</ele>
        <time>2021-03-24T17:57:37Z</time>
      </trkpt>
      <trkpt lat="40.242714" lon="-3.803279">
        <ele>653.64</ele>
        <time>2021-03-24T17:57:38Z</time>
      </trkpt>
      <trkpt lat="40.24274" lon="-3.803213">
        <ele>653.64</ele>
        <time>2021-03-24T17:57:39Z</time>
      </trkpt>
      <trkpt lat="40.24277" lon="-3.8031466">
        <ele>653.64</ele>
        <time>2021-03-24T17:57:40Z</time>
      </trkpt>
      <trkpt lat="40.242798" lon="-3.8030815">
        <ele>653.64</ele>
        <time>2021-03-24T17:57:41Z</time>
      </trkpt>
      <trkpt lat="40.242825" lon="-3.8030207">
        <ele>653.64</ele>
        <time>2021-03-24T17:57:42Z</time>
      </trkpt>
      <trkpt lat="40.24285" lon="-3.8029585">
        <ele>653.64</ele>
        <time>2021-03-24T17:57:43Z</time>
      </trkpt>
      <trkpt lat="40.24288" lon="-3.8028898">
        <ele>653.64</ele>
        <time>2021-03-24T17:57:44Z</time>
      </trkpt>
      <trkpt lat="40.242912" lon="-3.8028233">
        <ele>653.64</ele>
        <time>2021-03-24T17:57:45Z</time>
      </trkpt>
      <trkpt lat="40.242943" lon="-3.8027577">
        <ele>653.64</ele>
        <time>2021-03-24T17:57:46Z</time>
      </trkpt>
      <trkpt lat="40.242973" lon="-3.802697">
        <ele>653.64</ele>
        <time>2021-03-24T17:57:47Z</time>
      </trkpt>
      <trkpt lat="40.243004" lon="-3.802632">
        <ele>653.64</ele>
        <time>2021-03-24T17:57:48Z</time>
      </trkpt>
      <trkpt lat="40.243034" lon="-3.8025684">
        <ele>653.64</ele>
        <time>2021-03-24T17:57:49Z</time>
      </trkpt>
      <trkpt lat="40.243065" lon="-3.802506">
        <ele>653.64</ele>
        <time>2021-03-24T17:57:50Z</time>
      </trkpt>
      <trkpt lat="40.24309" lon="-3.8024447">
        <ele>653.64</ele>
        <time>2021-03-24T17:57:51Z</time>
      </trkpt>
      <trkpt lat="40.24315" lon="-3.8023286">
        <ele>653.64</ele>
        <time>2021-03-24T17:57:53Z</time>
      </trkpt>
      <trkpt lat="40.24318" lon="-3.8022692">
        <ele>653.64</ele>
        <time>2021-03-24T17:57:54Z</time>
      </trkpt>
      <trkpt lat="40.24321" lon="-3.802209">
        <ele>653.64</ele>
        <time>2021-03-24T17:57:55Z</time>
      </trkpt>
      <trkpt lat="40.243237" lon="-3.8021529">
        <ele>653.64</ele>
        <time>2021-03-24T17:57:56Z</time>
      </trkpt>
      <trkpt lat="40.243263" lon="-3.802092">
        <ele>653.64</ele>
        <time>2021-03-24T17:57:57Z</time>
      </trkpt>
      <trkpt lat="40.24329" lon="-3.8020318">
        <ele>653.64</ele>
        <time>2021-03-24T17:57:58Z</time>
      </trkpt>
      <trkpt lat="40.24334" lon="-3.8019154">
        <ele>653.64</ele>
        <time>2021-03-24T17:58:00Z</time>
      </trkpt>
      <trkpt lat="40.24337" lon="-3.801861">
        <ele>653.64</ele>
        <time>2021-03-24T17:58:01Z</time>
      </trkpt>
      <trkpt lat="40.243397" lon="-3.8018093">
        <ele>653.64</ele>
        <time>2021-03-24T17:58:02Z</time>
      </trkpt>
      <trkpt lat="40.243458" lon="-3.8017097">
        <ele>653.64</ele>
        <time>2021-03-24T17:58:04Z</time>
      </trkpt>
      <trkpt lat="40.24351" lon="-3.8016012">
        <ele>653.64</ele>
        <time>2021-03-24T17:58:06Z</time>
      </trkpt>
      <trkpt lat="40.243534" lon="-3.801543">
        <ele>653.64</ele>
        <time>2021-03-24T17:58:07Z</time>
      </trkpt>
      <trkpt lat="40.243576" lon="-3.801425">
        <ele>653.64</ele>
        <time>2021-03-24T17:58:09Z</time>
      </trkpt>
      <trkpt lat="40.24363" lon="-3.801306">
        <ele>653.64</ele>
        <time>2021-03-24T17:58:11Z</time>
      </trkpt>
      <trkpt lat="40.243664" lon="-3.8012452">
        <ele>653.64</ele>
        <time>2021-03-24T17:58:12Z</time>
      </trkpt>
      <trkpt lat="40.2437" lon="-3.8011827">
        <ele>649.12</ele>
        <time>2021-03-24T17:58:13Z</time>
      </trkpt>
      <trkpt lat="40.243732" lon="-3.801119">
        <ele>649.12</ele>
        <time>2021-03-24T17:58:14Z</time>
      </trkpt>
      <trkpt lat="40.243767" lon="-3.8010588">
        <ele>649.12</ele>
        <time>2021-03-24T17:58:15Z</time>
      </trkpt>
      <trkpt lat="40.24384" lon="-3.80092">
        <ele>649.12</ele>
        <time>2021-03-24T17:58:17Z</time>
      </trkpt>
      <trkpt lat="40.24387" lon="-3.800851">
        <ele>649.12</ele>
        <time>2021-03-24T17:58:18Z</time>
      </trkpt>
      <trkpt lat="40.2439" lon="-3.800785">
        <ele>649.12</ele>
        <time>2021-03-24T17:58:19Z</time>
      </trkpt>
      <trkpt lat="40.24393" lon="-3.8007226">
        <ele>649.12</ele>
        <time>2021-03-24T17:58:20Z</time>
      </trkpt>
      <trkpt lat="40.243958" lon="-3.8006635">
        <ele>649.12</ele>
        <time>2021-03-24T17:58:21Z</time>
      </trkpt>
      <trkpt lat="40.243984" lon="-3.8006055">
        <ele>649.12</ele>
        <time>2021-03-24T17:58:22Z</time>
      </trkpt>
      <trkpt lat="40.244007" lon="-3.8005517">
        <ele>649.12</ele>
        <time>2021-03-24T17:58:23Z</time>
      </trkpt>
      <trkpt lat="40.24406" lon="-3.8004377">
        <ele>650.48</ele>
        <time>2021-03-24T17:58:25Z</time>
      </trkpt>
      <trkpt lat="40.24411" lon="-3.8003244">
        <ele>650.48</ele>
        <time>2021-03-24T17:58:27Z</time>
      </trkpt>
      <trkpt lat="40.24416" lon="-3.8002124">
        <ele>650.48</ele>
        <time>2021-03-24T17:58:29Z</time>
      </trkpt>
      <trkpt lat="40.24421" lon="-3.8000946">
        <ele>650.48</ele>
        <time>2021-03-24T17:58:31Z</time>
      </trkpt>
      <trkpt lat="40.244236" lon="-3.800039">
        <ele>650.48</ele>
        <time>2021-03-24T17:58:32Z</time>
      </trkpt>
      <trkpt lat="40.24429" lon="-3.7999163">
        <ele>651.66</ele>
        <time>2021-03-24T17:58:34Z</time>
      </trkpt>
      <trkpt lat="40.244316" lon="-3.799855">
        <ele>651.66</ele>
        <time>2021-03-24T17:58:35Z</time>
      </trkpt>
      <trkpt lat="40.244347" lon="-3.7997947">
        <ele>651.66</ele>
        <time>2021-03-24T17:58:36Z</time>
      </trkpt>
      <trkpt lat="40.244373" lon="-3.7997377">
        <ele>651.66</ele>
        <time>2021-03-24T17:58:37Z</time>
      </trkpt>
      <trkpt lat="40.244434" lon="-3.7996128">
        <ele>651.66</ele>
        <time>2021-03-24T17:58:39Z</time>
      </trkpt>
      <trkpt lat="40.244465" lon="-3.799551">
        <ele>651.66</ele>
        <time>2021-03-24T17:58:40Z</time>
      </trkpt>
      <trkpt lat="40.244495" lon="-3.7994936">
        <ele>651.66</ele>
        <time>2021-03-24T17:58:41Z</time>
      </trkpt>
      <trkpt lat="40.244526" lon="-3.7994316">
        <ele>651.66</ele>
        <time>2021-03-24T17:58:42Z</time>
      </trkpt>
      <trkpt lat="40.244556" lon="-3.7993693">
        <ele>651.66</ele>
        <time>2021-03-24T17:58:43Z</time>
      </trkpt>
      <trkpt lat="40.24459" lon="-3.799307">
        <ele>651.66</ele>
        <time>2021-03-24T17:58:44Z</time>
      </trkpt>
      <trkpt lat="40.244617" lon="-3.799249">
        <ele>651.66</ele>
        <time>2021-03-24T17:58:45Z</time>
      </trkpt>
      <trkpt lat="40.244648" lon="-3.7991893">
        <ele>651.66</ele>
        <time>2021-03-24T17:58:46Z</time>
      </trkpt>
      <trkpt lat="40.24468" lon="-3.7991247">
        <ele>651.66</ele>
        <time>2021-03-24T17:58:47Z</time>
      </trkpt>
      <trkpt lat="40.244713" lon="-3.799061">
        <ele>651.66</ele>
        <time>2021-03-24T17:58:48Z</time>
      </trkpt>
      <trkpt lat="40.244743" lon="-3.7989974">
        <ele>651.66</ele>
        <time>2021-03-24T17:58:49Z</time>
      </trkpt>
      <trkpt lat="40.244774" lon="-3.7989373">
        <ele>651.66</ele>
        <time>2021-03-24T17:58:50Z</time>
      </trkpt>
      <trkpt lat="40.244804" lon="-3.798876">
        <ele>651.66</ele>
        <time>2021-03-24T17:58:51Z</time>
      </trkpt>
      <trkpt lat="40.24484" lon="-3.7988093">
        <ele>651.66</ele>
        <time>2021-03-24T17:58:52Z</time>
      </trkpt>
      <trkpt lat="40.24487" lon="-3.798744">
        <ele>651.66</ele>
        <time>2021-03-24T17:58:53Z</time>
      </trkpt>
      <trkpt lat="40.244904" lon="-3.7986794">
        <ele>652.85</ele>
        <time>2021-03-24T17:58:54Z</time>
      </trkpt>
      <trkpt lat="40.244934" lon="-3.7986193">
        <ele>652.85</ele>
        <time>2021-03-24T17:58:55Z</time>
      </trkpt>
      <trkpt lat="40.24497" lon="-3.7985556">
        <ele>652.85</ele>
        <time>2021-03-24T17:58:56Z</time>
      </trkpt>
      <trkpt lat="40.245003" lon="-3.798494">
        <ele>652.85</ele>
        <time>2021-03-24T17:58:57Z</time>
      </trkpt>
      <trkpt lat="40.245037" lon="-3.798434">
        <ele>652.85</ele>
        <time>2021-03-24T17:58:58Z</time>
      </trkpt>
      <trkpt lat="40.24507" lon="-3.7983732">
        <ele>652.85</ele>
        <time>2021-03-24T17:58:59Z</time>
      </trkpt>
      <trkpt lat="40.245106" lon="-3.798312">
        <ele>652.85</ele>
        <time>2021-03-24T17:59:00Z</time>
      </trkpt>
      <trkpt lat="40.245136" lon="-3.7982495">
        <ele>652.85</ele>
        <time>2021-03-24T17:59:01Z</time>
      </trkpt>
      <trkpt lat="40.245167" lon="-3.7981863">
        <ele>652.85</ele>
        <time>2021-03-24T17:59:02Z</time>
      </trkpt>
      <trkpt lat="40.245197" lon="-3.7981226">
        <ele>652.85</ele>
        <time>2021-03-24T17:59:03Z</time>
      </trkpt>
      <trkpt lat="40.245228" lon="-3.798062">
        <ele>652.85</ele>
        <time>2021-03-24T17:59:04Z</time>
      </trkpt>
      <trkpt lat="40.245262" lon="-3.797996">
        <ele>652.85</ele>
        <time>2021-03-24T17:59:05Z</time>
      </trkpt>
      <trkpt lat="40.245296" lon="-3.797932">
        <ele>652.85</ele>
        <time>2021-03-24T17:59:06Z</time>
      </trkpt>
      <trkpt lat="40.24533" lon="-3.7978683">
        <ele>652.85</ele>
        <time>2021-03-24T17:59:07Z</time>
      </trkpt>
      <trkpt lat="40.24536" lon="-3.7978096">
        <ele>652.85</ele>
        <time>2021-03-24T17:59:08Z</time>
      </trkpt>
      <trkpt lat="40.245396" lon="-3.7977498">
        <ele>652.85</ele>
        <time>2021-03-24T17:59:09Z</time>
      </trkpt>
      <trkpt lat="40.245434" lon="-3.7976828">
        <ele>652.85</ele>
        <time>2021-03-24T17:59:10Z</time>
      </trkpt>
      <trkpt lat="40.24547" lon="-3.7976148">
        <ele>652.85</ele>
        <time>2021-03-24T17:59:11Z</time>
      </trkpt>
      <trkpt lat="40.245502" lon="-3.797546">
        <ele>652.85</ele>
        <time>2021-03-24T17:59:12Z</time>
      </trkpt>
      <trkpt lat="40.245533" lon="-3.797482">
        <ele>652.85</ele>
        <time>2021-03-24T17:59:13Z</time>
      </trkpt>
      <trkpt lat="40.245567" lon="-3.7974124">
        <ele>652.85</ele>
        <time>2021-03-24T17:59:14Z</time>
      </trkpt>
      <trkpt lat="40.245598" lon="-3.7973456">
        <ele>652.85</ele>
        <time>2021-03-24T17:59:15Z</time>
      </trkpt>
      <trkpt lat="40.245632" lon="-3.7972803">
        <ele>652.85</ele>
        <time>2021-03-24T17:59:16Z</time>
      </trkpt>
      <trkpt lat="40.245663" lon="-3.7972164">
        <ele>654.03</ele>
        <time>2021-03-24T17:59:17Z</time>
      </trkpt>
      <trkpt lat="40.245693" lon="-3.7971532">
        <ele>654.03</ele>
        <time>2021-03-24T17:59:18Z</time>
      </trkpt>
      <trkpt lat="40.245728" lon="-3.7970917">
        <ele>654.03</ele>
        <time>2021-03-24T17:59:19Z</time>
      </trkpt>
      <trkpt lat="40.245758" lon="-3.7970333">
        <ele>654.03</ele>
        <time>2021-03-24T17:59:20Z</time>
      </trkpt>
      <trkpt lat="40.245792" lon="-3.7969794">
        <ele>654.03</ele>
        <time>2021-03-24T17:59:21Z</time>
      </trkpt>
      <trkpt lat="40.245827" lon="-3.7969346">
        <ele>654.03</ele>
        <time>2021-03-24T17:59:22Z</time>
      </trkpt>
      <trkpt lat="40.245872" lon="-3.796896">
        <ele>654.03</ele>
        <time>2021-03-24T17:59:23Z</time>
      </trkpt>
      <trkpt lat="40.245922" lon="-3.796866">
        <ele>654.03</ele>
        <time>2021-03-24T17:59:24Z</time>
      </trkpt>
      <trkpt lat="40.24602" lon="-3.7968273">
        <ele>654.03</ele>
        <time>2021-03-24T17:59:26Z</time>
      </trkpt>
      <trkpt lat="40.24607" lon="-3.796816">
        <ele>654.03</ele>
        <time>2021-03-24T17:59:27Z</time>
      </trkpt>
      <trkpt lat="40.24612" lon="-3.7968087">
        <ele>655.21</ele>
        <time>2021-03-24T17:59:28Z</time>
      </trkpt>
      <trkpt lat="40.24621" lon="-3.7967978">
        <ele>655.21</ele>
        <time>2021-03-24T17:59:30Z</time>
      </trkpt>
      <trkpt lat="40.246292" lon="-3.796791">
        <ele>655.21</ele>
        <time>2021-03-24T17:59:32Z</time>
      </trkpt>
      <trkpt lat="40.24638" lon="-3.7967868">
        <ele>656.57</ele>
        <time>2021-03-24T17:59:34Z</time>
      </trkpt>
      <trkpt lat="40.24646" lon="-3.7967815">
        <ele>656.57</ele>
        <time>2021-03-24T17:59:36Z</time>
      </trkpt>
      <trkpt lat="40.24653" lon="-3.7967577">
        <ele>656.57</ele>
        <time>2021-03-24T17:59:38Z</time>
      </trkpt>
      <trkpt lat="40.246563" lon="-3.7967143">
        <ele>656.57</ele>
        <time>2021-03-24T17:59:40Z</time>
      </trkpt>
      <trkpt lat="40.246563" lon="-3.7966194">
        <ele>656.57</ele>
        <time>2021-03-24T17:59:43Z</time>
      </trkpt>
      <trkpt lat="40.24654" lon="-3.7965455">
        <ele>657.75</ele>
        <time>2021-03-24T17:59:45Z</time>
      </trkpt>
      <trkpt lat="40.2465" lon="-3.79646">
        <ele>657.75</ele>
        <time>2021-03-24T17:59:47Z</time>
      </trkpt>
      <trkpt lat="40.24646" lon="-3.796376">
        <ele>657.75</ele>
        <time>2021-03-24T17:59:49Z</time>
      </trkpt>
      <trkpt lat="40.24642" lon="-3.7962947">
        <ele>657.75</ele>
        <time>2021-03-24T17:59:51Z</time>
      </trkpt>
      <trkpt lat="40.246384" lon="-3.796229">
        <ele>657.75</ele>
        <time>2021-03-24T17:59:53Z</time>
      </trkpt>
      <trkpt lat="40.24635" lon="-3.796173">
        <ele>657.75</ele>
        <time>2021-03-24T17:59:55Z</time>
      </trkpt>
      <trkpt lat="40.246323" lon="-3.7961144">
        <ele>657.75</ele>
        <time>2021-03-24T17:59:57Z</time>
      </trkpt>
      <trkpt lat="40.24631" lon="-3.7960353">
        <ele>657.75</ele>
        <time>2021-03-24T18:00:00Z</time>
      </trkpt>
      <trkpt lat="40.24633" lon="-3.795958">
        <ele>657.75</ele>
        <time>2021-03-24T18:00:03Z</time>
      </trkpt>
      <trkpt lat="40.246365" lon="-3.7958694">
        <ele>657.75</ele>
        <time>2021-03-24T18:00:06Z</time>
      </trkpt>
      <trkpt lat="40.24639" lon="-3.7958047">
        <ele>657.75</ele>
        <time>2021-03-24T18:00:08Z</time>
      </trkpt>
      <trkpt lat="40.246426" lon="-3.7957363">
        <ele>657.75</ele>
        <time>2021-03-24T18:00:10Z</time>
      </trkpt>
      <trkpt lat="40.24646" lon="-3.79567">
        <ele>657.75</ele>
        <time>2021-03-24T18:00:12Z</time>
      </trkpt>
      <trkpt lat="40.2465" lon="-3.7955976">
        <ele>660.66</ele>
        <time>2021-03-24T18:00:14Z</time>
      </trkpt>
      <trkpt lat="40.246555" lon="-3.79549">
        <ele>660.66</ele>
        <time>2021-03-24T18:00:17Z</time>
      </trkpt>
      <trkpt lat="40.246613" lon="-3.7953744">
        <ele>660.66</ele>
        <time>2021-03-24T18:00:20Z</time>
      </trkpt>
      <trkpt lat="40.24665" lon="-3.7952933">
        <ele>660.66</ele>
        <time>2021-03-24T18:00:22Z</time>
      </trkpt>
      <trkpt lat="40.24669" lon="-3.795208">
        <ele>660.66</ele>
        <time>2021-03-24T18:00:24Z</time>
      </trkpt>
      <trkpt lat="40.246727" lon="-3.795123">
        <ele>660.66</ele>
        <time>2021-03-24T18:00:26Z</time>
      </trkpt>
      <trkpt lat="40.24677" lon="-3.7950327">
        <ele>660.66</ele>
        <time>2021-03-24T18:00:28Z</time>
      </trkpt>
      <trkpt lat="40.24681" lon="-3.7949414">
        <ele>660.66</ele>
        <time>2021-03-24T18:00:30Z</time>
      </trkpt>
      <trkpt lat="40.246857" lon="-3.7948394">
        <ele>660.66</ele>
        <time>2021-03-24T18:00:32Z</time>
      </trkpt>
      <trkpt lat="40.246902" lon="-3.7947388">
        <ele>660.66</ele>
        <time>2021-03-24T18:00:34Z</time>
      </trkpt>
      <trkpt lat="40.246956" lon="-3.794628">
        <ele>660.66</ele>
        <time>2021-03-24T18:00:36Z</time>
      </trkpt>
      <trkpt lat="40.247005" lon="-3.794517">
        <ele>660.66</ele>
        <time>2021-03-24T18:00:38Z</time>
      </trkpt>
      <trkpt lat="40.247063" lon="-3.7944002">
        <ele>659.48</ele>
        <time>2021-03-24T18:00:40Z</time>
      </trkpt>
      <trkpt lat="40.247093" lon="-3.7943382">
        <ele>659.48</ele>
        <time>2021-03-24T18:00:41Z</time>
      </trkpt>
      <trkpt lat="40.247124" lon="-3.7942767">
        <ele>659.48</ele>
        <time>2021-03-24T18:00:42Z</time>
      </trkpt>
      <trkpt lat="40.247154" lon="-3.7942147">
        <ele>659.48</ele>
        <time>2021-03-24T18:00:43Z</time>
      </trkpt>
      <trkpt lat="40.24718" lon="-3.794153">
        <ele>659.48</ele>
        <time>2021-03-24T18:00:44Z</time>
      </trkpt>
      <trkpt lat="40.24721" lon="-3.794093">
        <ele>659.48</ele>
        <time>2021-03-24T18:00:45Z</time>
      </trkpt>
      <trkpt lat="40.24724" lon="-3.7940364">
        <ele>659.48</ele>
        <time>2021-03-24T18:00:46Z</time>
      </trkpt>
      <trkpt lat="40.247284" lon="-3.793941">
        <ele>658.3</ele>
        <time>2021-03-24T18:00:48Z</time>
      </trkpt>
      <trkpt lat="40.247326" lon="-3.7938473">
        <ele>658.3</ele>
        <time>2021-03-24T18:00:50Z</time>
      </trkpt>
      <trkpt lat="40.247364" lon="-3.7937605">
        <ele>658.3</ele>
        <time>2021-03-24T18:00:52Z</time>
      </trkpt>
      <trkpt lat="40.247402" lon="-3.793676">
        <ele>658.3</ele>
        <time>2021-03-24T18:00:54Z</time>
      </trkpt>
      <trkpt lat="40.247444" lon="-3.7935946">
        <ele>658.3</ele>
        <time>2021-03-24T18:00:56Z</time>
      </trkpt>
      <trkpt lat="40.247482" lon="-3.793515">
        <ele>658.3</ele>
        <time>2021-03-24T18:00:58Z</time>
      </trkpt>
      <trkpt lat="40.24752" lon="-3.7934444">
        <ele>658.3</ele>
        <time>2021-03-24T18:01:00Z</time>
      </trkpt>
      <trkpt lat="40.247547" lon="-3.7933917">
        <ele>657.12</ele>
        <time>2021-03-24T18:01:02Z</time>
      </trkpt>
      <trkpt lat="40.24759" lon="-3.7933369">
        <ele>657.12</ele>
        <time>2021-03-24T18:01:05Z</time>
      </trkpt>
      <trkpt lat="40.247627" lon="-3.7932844">
        <ele>657.12</ele>
        <time>2021-03-24T18:01:08Z</time>
      </trkpt>
      <trkpt lat="40.24767" lon="-3.7932143">
        <ele>657.12</ele>
        <time>2021-03-24T18:01:11Z</time>
      </trkpt>
      <trkpt lat="40.247692" lon="-3.793136">
        <ele>657.12</ele>
        <time>2021-03-24T18:01:14Z</time>
      </trkpt>
      <trkpt lat="40.24771" lon="-3.7930436">
        <ele>657.12</ele>
        <time>2021-03-24T18:01:17Z</time>
      </trkpt>
      <trkpt lat="40.24773" lon="-3.792985">
        <ele>657.12</ele>
        <time>2021-03-24T18:01:19Z</time>
      </trkpt>
      <trkpt lat="40.24777" lon="-3.7928824">
        <ele>657.12</ele>
        <time>2021-03-24T18:01:22Z</time>
      </trkpt>
      <trkpt lat="40.247795" lon="-3.7928145">
        <ele>657.12</ele>
        <time>2021-03-24T18:01:24Z</time>
      </trkpt>
      <trkpt lat="40.247833" lon="-3.79274">
        <ele>657.12</ele>
        <time>2021-03-24T18:01:26Z</time>
      </trkpt>
      <trkpt lat="40.24787" lon="-3.792666">
        <ele>657.12</ele>
        <time>2021-03-24T18:01:28Z</time>
      </trkpt>
      <trkpt lat="40.24791" lon="-3.7925897">
        <ele>657.12</ele>
        <time>2021-03-24T18:01:30Z</time>
      </trkpt>
      <trkpt lat="40.24795" lon="-3.7925096">
        <ele>657.12</ele>
        <time>2021-03-24T18:01:32Z</time>
      </trkpt>
      <trkpt lat="40.247993" lon="-3.792435">
        <ele>657.12</ele>
        <time>2021-03-24T18:01:34Z</time>
      </trkpt>
      <trkpt lat="40.248035" lon="-3.7923577">
        <ele>657.12</ele>
        <time>2021-03-24T18:01:36Z</time>
      </trkpt>
      <trkpt lat="40.24808" lon="-3.7922764">
        <ele>658.3</ele>
        <time>2021-03-24T18:01:38Z</time>
      </trkpt>
      <trkpt lat="40.248123" lon="-3.7921977">
        <ele>658.3</ele>
        <time>2021-03-24T18:01:40Z</time>
      </trkpt>
      <trkpt lat="40.24817" lon="-3.7921174">
        <ele>658.3</ele>
        <time>2021-03-24T18:01:42Z</time>
      </trkpt>
      <trkpt lat="40.24821" lon="-3.7920387">
        <ele>658.3</ele>
        <time>2021-03-24T18:01:44Z</time>
      </trkpt>
      <trkpt lat="40.248253" lon="-3.791962">
        <ele>658.3</ele>
        <time>2021-03-24T18:01:46Z</time>
      </trkpt>
      <trkpt lat="40.248295" lon="-3.791885">
        <ele>659.57</ele>
        <time>2021-03-24T18:01:48Z</time>
      </trkpt>
      <trkpt lat="40.248337" lon="-3.79181">
        <ele>659.57</ele>
        <time>2021-03-24T18:01:50Z</time>
      </trkpt>
      <trkpt lat="40.24838" lon="-3.7917347">
        <ele>659.57</ele>
        <time>2021-03-24T18:01:52Z</time>
      </trkpt>
      <trkpt lat="40.248425" lon="-3.7916563">
        <ele>660.84</ele>
        <time>2021-03-24T18:01:54Z</time>
      </trkpt>
      <trkpt lat="40.248466" lon="-3.7915838">
        <ele>660.84</ele>
        <time>2021-03-24T18:01:56Z</time>
      </trkpt>
      <trkpt lat="40.24851" lon="-3.7915137">
        <ele>660.84</ele>
        <time>2021-03-24T18:01:58Z</time>
      </trkpt>
      <trkpt lat="40.248547" lon="-3.7914426">
        <ele>660.84</ele>
        <time>2021-03-24T18:02:00Z</time>
      </trkpt>
      <trkpt lat="40.248585" lon="-3.791368">
        <ele>662.12</ele>
        <time>2021-03-24T18:02:02Z</time>
      </trkpt>
      <trkpt lat="40.248627" lon="-3.7912884">
        <ele>662.12</ele>
        <time>2021-03-24T18:02:04Z</time>
      </trkpt>
      <trkpt lat="40.248665" lon="-3.791209">
        <ele>662.12</ele>
        <time>2021-03-24T18:02:06Z</time>
      </trkpt>
      <trkpt lat="40.248707" lon="-3.791123">
        <ele>662.12</ele>
        <time>2021-03-24T18:02:08Z</time>
      </trkpt>
      <trkpt lat="40.248753" lon="-3.7910314">
        <ele>662.12</ele>
        <time>2021-03-24T18:02:10Z</time>
      </trkpt>
      <trkpt lat="40.248795" lon="-3.7909412">
        <ele>662.12</ele>
        <time>2021-03-24T18:02:12Z</time>
      </trkpt>
      <trkpt lat="40.24884" lon="-3.7908432">
        <ele>666.64</ele>
        <time>2021-03-24T18:02:14Z</time>
      </trkpt>
      <trkpt lat="40.248886" lon="-3.7907486">
        <ele>666.64</ele>
        <time>2021-03-24T18:02:16Z</time>
      </trkpt>
      <trkpt lat="40.248936" lon="-3.790649">
        <ele>666.64</ele>
        <time>2021-03-24T18:02:18Z</time>
      </trkpt>
      <trkpt lat="40.248985" lon="-3.7905514">
        <ele>666.64</ele>
        <time>2021-03-24T18:02:20Z</time>
      </trkpt>
      <trkpt lat="40.24904" lon="-3.7904556">
        <ele>666.64</ele>
        <time>2021-03-24T18:02:22Z</time>
      </trkpt>
      <trkpt lat="40.24909" lon="-3.7903624">
        <ele>666.64</ele>
        <time>2021-03-24T18:02:24Z</time>
      </trkpt>
      <trkpt lat="40.249184" lon="-3.7901666">
        <ele>666.64</ele>
        <time>2021-03-24T18:02:27Z</time>
      </trkpt>
      <trkpt lat="40.249237" lon="-3.7900674">
        <ele>666.64</ele>
        <time>2021-03-24T18:02:30Z</time>
      </trkpt>
      <trkpt lat="40.249283" lon="-3.7899728">
        <ele>666.64</ele>
        <time>2021-03-24T18:02:32Z</time>
      </trkpt>
      <trkpt lat="40.249336" lon="-3.789863">
        <ele>666.64</ele>
        <time>2021-03-24T18:02:34Z</time>
      </trkpt>
      <trkpt lat="40.249363" lon="-3.789809">
        <ele>666.64</ele>
        <time>2021-03-24T18:02:35Z</time>
      </trkpt>
      <trkpt lat="40.249416" lon="-3.7896943">
        <ele>666.64</ele>
        <time>2021-03-24T18:02:37Z</time>
      </trkpt>
      <trkpt lat="40.249447" lon="-3.7896345">
        <ele>665.46</ele>
        <time>2021-03-24T18:02:38Z</time>
      </trkpt>
      <trkpt lat="40.249474" lon="-3.7895746">
        <ele>665.46</ele>
        <time>2021-03-24T18:02:39Z</time>
      </trkpt>
      <trkpt lat="40.249504" lon="-3.7895153">
        <ele>665.46</ele>
        <time>2021-03-24T18:02:40Z</time>
      </trkpt>
      <trkpt lat="40.249535" lon="-3.789456">
        <ele>665.46</ele>
        <time>2021-03-24T18:02:41Z</time>
      </trkpt>
      <trkpt lat="40.249565" lon="-3.789396">
        <ele>665.46</ele>
        <time>2021-03-24T18:02:42Z</time>
      </trkpt>
      <trkpt lat="40.24959" lon="-3.789336">
        <ele>665.46</ele>
        <time>2021-03-24T18:02:43Z</time>
      </trkpt>
      <trkpt lat="40.249626" lon="-3.7892723">
        <ele>665.46</ele>
        <time>2021-03-24T18:02:44Z</time>
      </trkpt>
      <trkpt lat="40.249653" lon="-3.7892137">
        <ele>665.46</ele>
        <time>2021-03-24T18:02:45Z</time>
      </trkpt>
      <trkpt lat="40.24968" lon="-3.789151">
        <ele>665.46</ele>
        <time>2021-03-24T18:02:46Z</time>
      </trkpt>
      <trkpt lat="40.249706" lon="-3.7890906">
        <ele>665.46</ele>
        <time>2021-03-24T18:02:47Z</time>
      </trkpt>
      <trkpt lat="40.249733" lon="-3.7890356">
        <ele>665.46</ele>
        <time>2021-03-24T18:02:48Z</time>
      </trkpt>
      <trkpt lat="40.249786" lon="-3.7889247">
        <ele>665.46</ele>
        <time>2021-03-24T18:02:50Z</time>
      </trkpt>
      <trkpt lat="40.24984" lon="-3.788811">
        <ele>665.46</ele>
        <time>2021-03-24T18:02:52Z</time>
      </trkpt>
      <trkpt lat="40.249893" lon="-3.788698">
        <ele>665.46</ele>
        <time>2021-03-24T18:02:54Z</time>
      </trkpt>
      <trkpt lat="40.24992" lon="-3.7886412">
        <ele>664.28</ele>
        <time>2021-03-24T18:02:55Z</time>
      </trkpt>
      <trkpt lat="40.250004" lon="-3.7884653">
        <ele>664.28</ele>
        <time>2021-03-24T18:02:58Z</time>
      </trkpt>
      <trkpt lat="40.25003" lon="-3.7884037">
        <ele>664.28</ele>
        <time>2021-03-24T18:02:59Z</time>
      </trkpt>
      <trkpt lat="40.250057" lon="-3.7883427">
        <ele>664.28</ele>
        <time>2021-03-24T18:03:00Z</time>
      </trkpt>
      <trkpt lat="40.250088" lon="-3.7882802">
        <ele>664.28</ele>
        <time>2021-03-24T18:03:01Z</time>
      </trkpt>
      <trkpt lat="40.25012" lon="-3.7882137">
        <ele>664.28</ele>
        <time>2021-03-24T18:03:02Z</time>
      </trkpt>
      <trkpt lat="40.25015" lon="-3.7881474">
        <ele>664.28</ele>
        <time>2021-03-24T18:03:03Z</time>
      </trkpt>
      <trkpt lat="40.25018" lon="-3.7880864">
        <ele>664.28</ele>
        <time>2021-03-24T18:03:04Z</time>
      </trkpt>
      <trkpt lat="40.25021" lon="-3.7880254">
        <ele>663.1</ele>
        <time>2021-03-24T18:03:05Z</time>
      </trkpt>
      <trkpt lat="40.250263" lon="-3.7879124">
        <ele>663.1</ele>
        <time>2021-03-24T18:03:07Z</time>
      </trkpt>
      <trkpt lat="40.2503" lon="-3.78782">
        <ele>663.1</ele>
        <time>2021-03-24T18:03:09Z</time>
      </trkpt>
      <trkpt lat="40.25033" lon="-3.7877407">
        <ele>661.91</ele>
        <time>2021-03-24T18:03:11Z</time>
      </trkpt>
      <trkpt lat="40.250366" lon="-3.7876627">
        <ele>661.91</ele>
        <time>2021-03-24T18:03:13Z</time>
      </trkpt>
      <trkpt lat="40.2504" lon="-3.787584">
        <ele>661.91</ele>
        <time>2021-03-24T18:03:15Z</time>
      </trkpt>
      <trkpt lat="40.250446" lon="-3.7874973">
        <ele>661.91</ele>
        <time>2021-03-24T18:03:17Z</time>
      </trkpt>
      <trkpt lat="40.2505" lon="-3.7874057">
        <ele>661.91</ele>
        <time>2021-03-24T18:03:19Z</time>
      </trkpt>
      <trkpt lat="40.250557" lon="-3.7873068">
        <ele>660.73</ele>
        <time>2021-03-24T18:03:21Z</time>
      </trkpt>
      <trkpt lat="40.250618" lon="-3.787198">
        <ele>660.73</ele>
        <time>2021-03-24T18:03:23Z</time>
      </trkpt>
      <trkpt lat="40.250645" lon="-3.7871463">
        <ele>660.73</ele>
        <time>2021-03-24T18:03:24Z</time>
      </trkpt>
      <trkpt lat="40.250698" lon="-3.7870548">
        <ele>660.73</ele>
        <time>2021-03-24T18:03:26Z</time>
      </trkpt>
      <trkpt lat="40.250744" lon="-3.7869742">
        <ele>660.73</ele>
        <time>2021-03-24T18:03:28Z</time>
      </trkpt>
      <trkpt lat="40.250782" lon="-3.7869034">
        <ele>659.46</ele>
        <time>2021-03-24T18:03:30Z</time>
      </trkpt>
      <trkpt lat="40.25082" lon="-3.7868447">
        <ele>659.46</ele>
        <time>2021-03-24T18:03:32Z</time>
      </trkpt>
      <trkpt lat="40.25086" lon="-3.7867966">
        <ele>659.46</ele>
        <time>2021-03-24T18:03:34Z</time>
      </trkpt>
      <trkpt lat="40.250893" lon="-3.7867532">
        <ele>659.46</ele>
        <time>2021-03-24T18:03:36Z</time>
      </trkpt>
      <trkpt lat="40.25093" lon="-3.7866843">
        <ele>659.46</ele>
        <time>2021-03-24T18:03:39Z</time>
      </trkpt>
      <trkpt lat="40.250957" lon="-3.7866092">
        <ele>659.46</ele>
        <time>2021-03-24T18:03:42Z</time>
      </trkpt>
      <trkpt lat="40.250984" lon="-3.7865217">
        <ele>659.46</ele>
        <time>2021-03-24T18:03:45Z</time>
      </trkpt>
      <trkpt lat="40.25101" lon="-3.7864573">
        <ele>659.46</ele>
        <time>2021-03-24T18:03:47Z</time>
      </trkpt>
      <trkpt lat="40.251038" lon="-3.7863894">
        <ele>659.46</ele>
        <time>2021-03-24T18:03:49Z</time>
      </trkpt>
      <trkpt lat="40.25107" lon="-3.7863142">
        <ele>659.46</ele>
        <time>2021-03-24T18:03:51Z</time>
      </trkpt>
      <trkpt lat="40.251106" lon="-3.786237">
        <ele>659.46</ele>
        <time>2021-03-24T18:03:53Z</time>
      </trkpt>
      <trkpt lat="40.251144" lon="-3.786154">
        <ele>659.46</ele>
        <time>2021-03-24T18:03:55Z</time>
      </trkpt>
      <trkpt lat="40.251186" lon="-3.7860703">
        <ele>659.46</ele>
        <time>2021-03-24T18:03:57Z</time>
      </trkpt>
      <trkpt lat="40.251225" lon="-3.7859867">
        <ele>659.46</ele>
        <time>2021-03-24T18:03:59Z</time>
      </trkpt>
      <trkpt lat="40.251266" lon="-3.7858996">
        <ele>659.46</ele>
        <time>2021-03-24T18:04:01Z</time>
      </trkpt>
      <trkpt lat="40.251312" lon="-3.78581">
        <ele>659.46</ele>
        <time>2021-03-24T18:04:03Z</time>
      </trkpt>
      <trkpt lat="40.251358" lon="-3.7857203">
        <ele>659.46</ele>
        <time>2021-03-24T18:04:05Z</time>
      </trkpt>
      <trkpt lat="40.251404" lon="-3.785631">
        <ele>659.46</ele>
        <time>2021-03-24T18:04:07Z</time>
      </trkpt>
      <trkpt lat="40.25145" lon="-3.785544">
        <ele>659.46</ele>
        <time>2021-03-24T18:04:09Z</time>
      </trkpt>
      <trkpt lat="40.25149" lon="-3.7854617">
        <ele>659.46</ele>
        <time>2021-03-24T18:04:11Z</time>
      </trkpt>
      <trkpt lat="40.251526" lon="-3.7853878">
        <ele>659.46</ele>
        <time>2021-03-24T18:04:13Z</time>
      </trkpt>
      <trkpt lat="40.251545" lon="-3.7853284">
        <ele>661.89</ele>
        <time>2021-03-24T18:04:15Z</time>
      </trkpt>
      <trkpt lat="40.251564" lon="-3.7852778">
        <ele>661.89</ele>
        <time>2021-03-24T18:04:17Z</time>
      </trkpt>
      <trkpt lat="40.25159" lon="-3.7852137">
        <ele>661.89</ele>
        <time>2021-03-24T18:04:20Z</time>
      </trkpt>
      <trkpt lat="40.25162" lon="-3.7851527">
        <ele>661.89</ele>
        <time>2021-03-24T18:04:23Z</time>
      </trkpt>
      <trkpt lat="40.251663" lon="-3.78509">
        <ele>661.89</ele>
        <time>2021-03-24T18:04:26Z</time>
      </trkpt>
      <trkpt lat="40.2517" lon="-3.78502">
        <ele>661.89</ele>
        <time>2021-03-24T18:04:29Z</time>
      </trkpt>
      <trkpt lat="40.251736" lon="-3.7849333">
        <ele>661.89</ele>
        <time>2021-03-24T18:04:32Z</time>
      </trkpt>
      <trkpt lat="40.251766" lon="-3.7848682">
        <ele>661.89</ele>
        <time>2021-03-24T18:04:34Z</time>
      </trkpt>
      <trkpt lat="40.251793" lon="-3.7848005">
        <ele>661.89</ele>
        <time>2021-03-24T18:04:36Z</time>
      </trkpt>
      <trkpt lat="40.251823" lon="-3.7847335">
        <ele>661.89</ele>
        <time>2021-03-24T18:04:38Z</time>
      </trkpt>
      <trkpt lat="40.251854" lon="-3.7846646">
        <ele>661.89</ele>
        <time>2021-03-24T18:04:40Z</time>
      </trkpt>
      <trkpt lat="40.25189" lon="-3.784592">
        <ele>661.89</ele>
        <time>2021-03-24T18:04:42Z</time>
      </trkpt>
      <trkpt lat="40.251923" lon="-3.7845175">
        <ele>663.07</ele>
        <time>2021-03-24T18:04:44Z</time>
      </trkpt>
      <trkpt lat="40.25196" lon="-3.7844417">
        <ele>663.07</ele>
        <time>2021-03-24T18:04:46Z</time>
      </trkpt>
      <trkpt lat="40.252" lon="-3.7843657">
        <ele>663.07</ele>
        <time>2021-03-24T18:04:48Z</time>
      </trkpt>
      <trkpt lat="40.252037" lon="-3.784288">
        <ele>663.07</ele>
        <time>2021-03-24T18:04:50Z</time>
      </trkpt>
      <trkpt lat="40.25207" lon="-3.7842095">
        <ele>663.07</ele>
        <time>2021-03-24T18:04:52Z</time>
      </trkpt>
      <trkpt lat="40.2521" lon="-3.7841337">
        <ele>663.07</ele>
        <time>2021-03-24T18:04:54Z</time>
      </trkpt>
      <trkpt lat="40.252144" lon="-3.7840607">
        <ele>663.07</ele>
        <time>2021-03-24T18:04:56Z</time>
      </trkpt>
      <trkpt lat="40.252186" lon="-3.7839878">
        <ele>663.07</ele>
        <time>2021-03-24T18:04:58Z</time>
      </trkpt>
      <trkpt lat="40.252228" lon="-3.7839143">
        <ele>663.07</ele>
        <time>2021-03-24T18:05:00Z</time>
      </trkpt>
      <trkpt lat="40.252274" lon="-3.7838333">
        <ele>663.07</ele>
        <time>2021-03-24T18:05:02Z</time>
      </trkpt>
      <trkpt lat="40.252316" lon="-3.7837474">
        <ele>663.07</ele>
        <time>2021-03-24T18:05:04Z</time>
      </trkpt>
      <trkpt lat="40.25236" lon="-3.7836592">
        <ele>663.07</ele>
        <time>2021-03-24T18:05:06Z</time>
      </trkpt>
      <trkpt lat="40.252407" lon="-3.7835686">
        <ele>663.07</ele>
        <time>2021-03-24T18:05:08Z</time>
      </trkpt>
      <trkpt lat="40.252453" lon="-3.7834744">
        <ele>663.07</ele>
        <time>2021-03-24T18:05:10Z</time>
      </trkpt>
      <trkpt lat="40.2525" lon="-3.7833762">
        <ele>663.07</ele>
        <time>2021-03-24T18:05:12Z</time>
      </trkpt>
      <trkpt lat="40.25255" lon="-3.7832766">
        <ele>663.07</ele>
        <time>2021-03-24T18:05:14Z</time>
      </trkpt>
      <trkpt lat="40.252598" lon="-3.7831774">
        <ele>663.07</ele>
        <time>2021-03-24T18:05:16Z</time>
      </trkpt>
      <trkpt lat="40.25267" lon="-3.783031">
        <ele>663.07</ele>
        <time>2021-03-24T18:05:19Z</time>
      </trkpt>
      <trkpt lat="40.25272" lon="-3.782936">
        <ele>663.07</ele>
        <time>2021-03-24T18:05:21Z</time>
      </trkpt>
      <trkpt lat="40.25277" lon="-3.782845">
        <ele>663.07</ele>
        <time>2021-03-24T18:05:23Z</time>
      </trkpt>
      <trkpt lat="40.25282" lon="-3.7827547">
        <ele>663.07</ele>
        <time>2021-03-24T18:05:25Z</time>
      </trkpt>
      <trkpt lat="40.25286" lon="-3.7826633">
        <ele>663.07</ele>
        <time>2021-03-24T18:05:27Z</time>
      </trkpt>
      <trkpt lat="40.252907" lon="-3.7825687">
        <ele>663.07</ele>
        <time>2021-03-24T18:05:29Z</time>
      </trkpt>
      <trkpt lat="40.252953" lon="-3.782472">
        <ele>663.07</ele>
        <time>2021-03-24T18:05:31Z</time>
      </trkpt>
      <trkpt lat="40.253002" lon="-3.7823727">
        <ele>663.07</ele>
        <time>2021-03-24T18:05:33Z</time>
      </trkpt>
      <trkpt lat="40.25305" lon="-3.782268">
        <ele>663.07</ele>
        <time>2021-03-24T18:05:35Z</time>
      </trkpt>
      <trkpt lat="40.2531" lon="-3.7821612">
        <ele>663.07</ele>
        <time>2021-03-24T18:05:37Z</time>
      </trkpt>
      <trkpt lat="40.253128" lon="-3.7821066">
        <ele>663.07</ele>
        <time>2021-03-24T18:05:38Z</time>
      </trkpt>
      <trkpt lat="40.25318" lon="-3.7819977">
        <ele>663.07</ele>
        <time>2021-03-24T18:05:40Z</time>
      </trkpt>
      <trkpt lat="40.253235" lon="-3.781891">
        <ele>663.07</ele>
        <time>2021-03-24T18:05:42Z</time>
      </trkpt>
      <trkpt lat="40.25329" lon="-3.7817864">
        <ele>663.07</ele>
        <time>2021-03-24T18:05:44Z</time>
      </trkpt>
      <trkpt lat="40.25331" lon="-3.781736">
        <ele>661.89</ele>
        <time>2021-03-24T18:05:45Z</time>
      </trkpt>
      <trkpt lat="40.253357" lon="-3.7816358">
        <ele>661.89</ele>
        <time>2021-03-24T18:05:47Z</time>
      </trkpt>
      <trkpt lat="40.2534" lon="-3.7815437">
        <ele>661.89</ele>
        <time>2021-03-24T18:05:49Z</time>
      </trkpt>
      <trkpt lat="40.25344" lon="-3.78146">
        <ele>661.89</ele>
        <time>2021-03-24T18:05:51Z</time>
      </trkpt>
      <trkpt lat="40.253475" lon="-3.7813997">
        <ele>661.89</ele>
        <time>2021-03-24T18:05:53Z</time>
      </trkpt>
      <trkpt lat="40.25353" lon="-3.781341">
        <ele>661.89</ele>
        <time>2021-03-24T18:05:56Z</time>
      </trkpt>
      <trkpt lat="40.253582" lon="-3.7813044">
        <ele>660.71</ele>
        <time>2021-03-24T18:05:59Z</time>
      </trkpt>
      <trkpt lat="40.25363" lon="-3.7812817">
        <ele>660.71</ele>
        <time>2021-03-24T18:06:02Z</time>
      </trkpt>
      <trkpt lat="40.253693" lon="-3.7812634">
        <ele>660.71</ele>
        <time>2021-03-24T18:06:08Z</time>
      </trkpt>
      <trkpt lat="40.25373" lon="-3.7812452">
        <ele>658.14</ele>
        <time>2021-03-24T18:06:17Z</time>
      </trkpt>
      <trkpt lat="40.253773" lon="-3.7811975">
        <ele>658.14</ele>
        <time>2021-03-24T18:06:23Z</time>
      </trkpt>
      <trkpt lat="40.253803" lon="-3.7811406">
        <ele>658.14</ele>
        <time>2021-03-24T18:06:28Z</time>
      </trkpt>
      <trkpt lat="40.25382" lon="-3.7810647">
        <ele>658.14</ele>
        <time>2021-03-24T18:06:33Z</time>
      </trkpt>
      <trkpt lat="40.253826" lon="-3.780996">
        <ele>658.14</ele>
        <time>2021-03-24T18:06:37Z</time>
      </trkpt>
      <trkpt lat="40.253834" lon="-3.7809274">
        <ele>658.14</ele>
        <time>2021-03-24T18:06:41Z</time>
      </trkpt>
      <trkpt lat="40.253834" lon="-3.7808447">
        <ele>658.14</ele>
        <time>2021-03-24T18:06:46Z</time>
      </trkpt>
      <trkpt lat="40.253822" lon="-3.7807562">
        <ele>658.14</ele>
        <time>2021-03-24T18:06:52Z</time>
      </trkpt>
      <trkpt lat="40.25383" lon="-3.780661">
        <ele>658.14</ele>
        <time>2021-03-24T18:07:01Z</time>
      </trkpt>
      <trkpt lat="40.253872" lon="-3.7805822">
        <ele>658.14</ele>
        <time>2021-03-24T18:07:05Z</time>
      </trkpt>
      <trkpt lat="40.253906" lon="-3.780501">
        <ele>658.14</ele>
        <time>2021-03-24T18:07:08Z</time>
      </trkpt>
      <trkpt lat="40.253937" lon="-3.7804341">
        <ele>658.14</ele>
        <time>2021-03-24T18:07:10Z</time>
      </trkpt>
      <trkpt lat="40.253975" lon="-3.7803686">
        <ele>658.14</ele>
        <time>2021-03-24T18:07:12Z</time>
      </trkpt>
      <trkpt lat="40.254013" lon="-3.7802942">
        <ele>658.14</ele>
        <time>2021-03-24T18:07:14Z</time>
      </trkpt>
      <trkpt lat="40.254055" lon="-3.780216">
        <ele>658.14</ele>
        <time>2021-03-24T18:07:16Z</time>
      </trkpt>
      <trkpt lat="40.254097" lon="-3.7801356">
        <ele>658.14</ele>
        <time>2021-03-24T18:07:18Z</time>
      </trkpt>
      <trkpt lat="40.25414" lon="-3.780055">
        <ele>658.14</ele>
        <time>2021-03-24T18:07:20Z</time>
      </trkpt>
      <trkpt lat="40.25418" lon="-3.779974">
        <ele>658.14</ele>
        <time>2021-03-24T18:07:22Z</time>
      </trkpt>
      <trkpt lat="40.254227" lon="-3.7798858">
        <ele>658.14</ele>
        <time>2021-03-24T18:07:24Z</time>
      </trkpt>
      <trkpt lat="40.254276" lon="-3.7798026">
        <ele>658.14</ele>
        <time>2021-03-24T18:07:26Z</time>
      </trkpt>
      <trkpt lat="40.254326" lon="-3.7797182">
        <ele>658.14</ele>
        <time>2021-03-24T18:07:28Z</time>
      </trkpt>
      <trkpt lat="40.25437" lon="-3.7796292">
        <ele>658.14</ele>
        <time>2021-03-24T18:07:30Z</time>
      </trkpt>
      <trkpt lat="40.25442" lon="-3.779536">
        <ele>658.14</ele>
        <time>2021-03-24T18:07:32Z</time>
      </trkpt>
      <trkpt lat="40.25447" lon="-3.7794375">
        <ele>658.14</ele>
        <time>2021-03-24T18:07:34Z</time>
      </trkpt>
      <trkpt lat="40.254524" lon="-3.7793362">
        <ele>658.14</ele>
        <time>2021-03-24T18:07:36Z</time>
      </trkpt>
      <trkpt lat="40.25457" lon="-3.779235">
        <ele>658.14</ele>
        <time>2021-03-24T18:07:38Z</time>
      </trkpt>
      <trkpt lat="40.25462" lon="-3.7791345">
        <ele>658.14</ele>
        <time>2021-03-24T18:07:40Z</time>
      </trkpt>
      <trkpt lat="40.254673" lon="-3.7790234">
        <ele>658.14</ele>
        <time>2021-03-24T18:07:42Z</time>
      </trkpt>
      <trkpt lat="40.25472" lon="-3.7789166">
        <ele>658.14</ele>
        <time>2021-03-24T18:07:44Z</time>
      </trkpt>
      <trkpt lat="40.25477" lon="-3.7787998">
        <ele>656.87</ele>
        <time>2021-03-24T18:07:46Z</time>
      </trkpt>
      <trkpt lat="40.254795" lon="-3.778743">
        <ele>656.87</ele>
        <time>2021-03-24T18:07:47Z</time>
      </trkpt>
      <trkpt lat="40.25482" lon="-3.778685">
        <ele>656.87</ele>
        <time>2021-03-24T18:07:48Z</time>
      </trkpt>
      <trkpt lat="40.25485" lon="-3.778626">
        <ele>656.87</ele>
        <time>2021-03-24T18:07:49Z</time>
      </trkpt>
      <trkpt lat="40.254906" lon="-3.7785046">
        <ele>656.87</ele>
        <time>2021-03-24T18:07:51Z</time>
      </trkpt>
      <trkpt lat="40.254932" lon="-3.778443">
        <ele>656.87</ele>
        <time>2021-03-24T18:07:52Z</time>
      </trkpt>
      <trkpt lat="40.254963" lon="-3.7783828">
        <ele>656.87</ele>
        <time>2021-03-24T18:07:53Z</time>
      </trkpt>
      <trkpt lat="40.254993" lon="-3.7783234">
        <ele>656.87</ele>
        <time>2021-03-24T18:07:54Z</time>
      </trkpt>
      <trkpt lat="40.255028" lon="-3.7782602">
        <ele>656.87</ele>
        <time>2021-03-24T18:07:55Z</time>
      </trkpt>
      <trkpt lat="40.255054" lon="-3.7782016">
        <ele>656.87</ele>
        <time>2021-03-24T18:07:56Z</time>
      </trkpt>
      <trkpt lat="40.255085" lon="-3.7781427">
        <ele>655.68</ele>
        <time>2021-03-24T18:07:57Z</time>
      </trkpt>
      <trkpt lat="40.255116" lon="-3.7780783">
        <ele>655.68</ele>
        <time>2021-03-24T18:07:58Z</time>
      </trkpt>
      <trkpt lat="40.255146" lon="-3.7780194">
        <ele>655.68</ele>
        <time>2021-03-24T18:07:59Z</time>
      </trkpt>
      <trkpt lat="40.255177" lon="-3.7779562">
        <ele>655.68</ele>
        <time>2021-03-24T18:08:00Z</time>
      </trkpt>
      <trkpt lat="40.255203" lon="-3.7778966">
        <ele>655.68</ele>
        <time>2021-03-24T18:08:01Z</time>
      </trkpt>
      <trkpt lat="40.255234" lon="-3.7778356">
        <ele>655.68</ele>
        <time>2021-03-24T18:08:02Z</time>
      </trkpt>
      <trkpt lat="40.255264" lon="-3.777773">
        <ele>655.68</ele>
        <time>2021-03-24T18:08:03Z</time>
      </trkpt>
      <trkpt lat="40.2553" lon="-3.7777047">
        <ele>654.5</ele>
        <time>2021-03-24T18:08:04Z</time>
      </trkpt>
      <trkpt lat="40.255333" lon="-3.7776413">
        <ele>654.5</ele>
        <time>2021-03-24T18:08:05Z</time>
      </trkpt>
      <trkpt lat="40.255363" lon="-3.7775772">
        <ele>654.5</ele>
        <time>2021-03-24T18:08:06Z</time>
      </trkpt>
      <trkpt lat="40.2554" lon="-3.7775104">
        <ele>654.5</ele>
        <time>2021-03-24T18:08:07Z</time>
      </trkpt>
      <trkpt lat="40.255436" lon="-3.777447">
        <ele>653.14</ele>
        <time>2021-03-24T18:08:08Z</time>
      </trkpt>
      <trkpt lat="40.25547" lon="-3.7773886">
        <ele>653.14</ele>
        <time>2021-03-24T18:08:09Z</time>
      </trkpt>
      <trkpt lat="40.2555" lon="-3.777339">
        <ele>653.14</ele>
        <time>2021-03-24T18:08:10Z</time>
      </trkpt>
      <trkpt lat="40.25553" lon="-3.777295">
        <ele>653.14</ele>
        <time>2021-03-24T18:08:11Z</time>
      </trkpt>
      <trkpt lat="40.25558" lon="-3.7772233">
        <ele>651.77</ele>
        <time>2021-03-24T18:08:13Z</time>
      </trkpt>
      <trkpt lat="40.255615" lon="-3.7771778">
        <ele>651.77</ele>
        <time>2021-03-24T18:08:15Z</time>
      </trkpt>
      <trkpt lat="40.255642" lon="-3.7771068">
        <ele>652.28</ele>
        <time>2021-03-24T18:08:22Z</time>
      </trkpt>
      <trkpt lat="40.255672" lon="-3.777011">
        <ele>652.28</ele>
        <time>2021-03-24T18:08:30Z</time>
      </trkpt>
      <trkpt lat="40.255714" lon="-3.7769234">
        <ele>652.28</ele>
        <time>2021-03-24T18:08:33Z</time>
      </trkpt>
      <trkpt lat="40.255753" lon="-3.776853">
        <ele>652.28</ele>
        <time>2021-03-24T18:08:35Z</time>
      </trkpt>
      <trkpt lat="40.2558" lon="-3.7767732">
        <ele>652.28</ele>
        <time>2021-03-24T18:08:37Z</time>
      </trkpt>
      <trkpt lat="40.255848" lon="-3.7766874">
        <ele>652.28</ele>
        <time>2021-03-24T18:08:39Z</time>
      </trkpt>
      <trkpt lat="40.2559" lon="-3.7765937">
        <ele>652.28</ele>
        <time>2021-03-24T18:08:41Z</time>
      </trkpt>
      <trkpt lat="40.25596" lon="-3.7764978">
        <ele>652.28</ele>
        <time>2021-03-24T18:08:43Z</time>
      </trkpt>
      <trkpt lat="40.25599" lon="-3.7764478">
        <ele>651.1</ele>
        <time>2021-03-24T18:08:44Z</time>
      </trkpt>
      <trkpt lat="40.25605" lon="-3.7763445">
        <ele>651.1</ele>
        <time>2021-03-24T18:08:46Z</time>
      </trkpt>
      <trkpt lat="40.256115" lon="-3.7762496">
        <ele>651.1</ele>
        <time>2021-03-24T18:08:48Z</time>
      </trkpt>
      <trkpt lat="40.256172" lon="-3.7761743">
        <ele>651.1</ele>
        <time>2021-03-24T18:08:50Z</time>
      </trkpt>
      <trkpt lat="40.25623" lon="-3.7761">
        <ele>649.91</ele>
        <time>2021-03-24T18:08:53Z</time>
      </trkpt>
      <trkpt lat="40.256264" lon="-3.776024">
        <ele>649.91</ele>
        <time>2021-03-24T18:09:00Z</time>
      </trkpt>
      <trkpt lat="40.256298" lon="-3.775958">
        <ele>649.91</ele>
        <time>2021-03-24T18:09:08Z</time>
      </trkpt>
      <trkpt lat="40.25633" lon="-3.7758834">
        <ele>649.91</ele>
        <time>2021-03-24T18:09:11Z</time>
      </trkpt>
      <trkpt lat="40.256363" lon="-3.775814">
        <ele>649.91</ele>
        <time>2021-03-24T18:09:13Z</time>
      </trkpt>
      <trkpt lat="40.25641" lon="-3.775738">
        <ele>649.91</ele>
        <time>2021-03-24T18:09:15Z</time>
      </trkpt>
      <trkpt lat="40.256466" lon="-3.775653">
        <ele>649.91</ele>
        <time>2021-03-24T18:09:17Z</time>
      </trkpt>
      <trkpt lat="40.25652" lon="-3.7755623">
        <ele>649.91</ele>
        <time>2021-03-24T18:09:19Z</time>
      </trkpt>
      <trkpt lat="40.25657" lon="-3.7754707">
        <ele>649.91</ele>
        <time>2021-03-24T18:09:21Z</time>
      </trkpt>
      <trkpt lat="40.25661" lon="-3.7753804">
        <ele>649.91</ele>
        <time>2021-03-24T18:09:23Z</time>
      </trkpt>
      <trkpt lat="40.25666" lon="-3.775292">
        <ele>649.91</ele>
        <time>2021-03-24T18:09:25Z</time>
      </trkpt>
      <trkpt lat="40.256718" lon="-3.7752054">
        <ele>649.91</ele>
        <time>2021-03-24T18:09:27Z</time>
      </trkpt>
      <trkpt lat="40.25678" lon="-3.7751257">
        <ele>651.28</ele>
        <time>2021-03-24T18:09:29Z</time>
      </trkpt>
      <trkpt lat="40.25684" lon="-3.775053">
        <ele>651.28</ele>
        <time>2021-03-24T18:09:31Z</time>
      </trkpt>
      <trkpt lat="40.256893" lon="-3.774986">
        <ele>651.28</ele>
        <time>2021-03-24T18:09:33Z</time>
      </trkpt>
      <trkpt lat="40.25695" lon="-3.774915">
        <ele>652.55</ele>
        <time>2021-03-24T18:09:35Z</time>
      </trkpt>
      <trkpt lat="40.257008" lon="-3.774846">
        <ele>652.55</ele>
        <time>2021-03-24T18:09:37Z</time>
      </trkpt>
      <trkpt lat="40.257065" lon="-3.7747757">
        <ele>652.55</ele>
        <time>2021-03-24T18:09:39Z</time>
      </trkpt>
      <trkpt lat="40.257122" lon="-3.7747023">
        <ele>652.55</ele>
        <time>2021-03-24T18:09:41Z</time>
      </trkpt>
      <trkpt lat="40.257183" lon="-3.7746224">
        <ele>652.55</ele>
        <time>2021-03-24T18:09:43Z</time>
      </trkpt>
      <trkpt lat="40.25725" lon="-3.774532">
        <ele>652.55</ele>
        <time>2021-03-24T18:09:45Z</time>
      </trkpt>
      <trkpt lat="40.257317" lon="-3.7744358">
        <ele>652.55</ele>
        <time>2021-03-24T18:09:47Z</time>
      </trkpt>
      <trkpt lat="40.25739" lon="-3.7743354">
        <ele>652.55</ele>
        <time>2021-03-24T18:09:49Z</time>
      </trkpt>
      <trkpt lat="40.25743" lon="-3.7742856">
        <ele>652.55</ele>
        <time>2021-03-24T18:09:50Z</time>
      </trkpt>
      <trkpt lat="40.25748" lon="-3.7742436">
        <ele>652.55</ele>
        <time>2021-03-24T18:09:51Z</time>
      </trkpt>
      <trkpt lat="40.257534" lon="-3.7742114">
        <ele>652.55</ele>
        <time>2021-03-24T18:09:52Z</time>
      </trkpt>
      <trkpt lat="40.257595" lon="-3.7741892">
        <ele>652.55</ele>
        <time>2021-03-24T18:09:53Z</time>
      </trkpt>
      <trkpt lat="40.257652" lon="-3.774176">
        <ele>652.55</ele>
        <time>2021-03-24T18:09:54Z</time>
      </trkpt>
      <trkpt lat="40.25771" lon="-3.7741697">
        <ele>652.55</ele>
        <time>2021-03-24T18:09:55Z</time>
      </trkpt>
      <trkpt lat="40.257774" lon="-3.774168">
        <ele>652.55</ele>
        <time>2021-03-24T18:09:56Z</time>
      </trkpt>
      <trkpt lat="40.257835" lon="-3.774171">
        <ele>652.55</ele>
        <time>2021-03-24T18:09:57Z</time>
      </trkpt>
      <trkpt lat="40.257896" lon="-3.774179">
        <ele>651.37</ele>
        <time>2021-03-24T18:09:58Z</time>
      </trkpt>
      <trkpt lat="40.257954" lon="-3.7741892">
        <ele>651.37</ele>
        <time>2021-03-24T18:09:59Z</time>
      </trkpt>
      <trkpt lat="40.25801" lon="-3.7742043">
        <ele>651.37</ele>
        <time>2021-03-24T18:10:00Z</time>
      </trkpt>
      <trkpt lat="40.258076" lon="-3.7742236">
        <ele>651.37</ele>
        <time>2021-03-24T18:10:01Z</time>
      </trkpt>
      <trkpt lat="40.258137" lon="-3.774243">
        <ele>651.37</ele>
        <time>2021-03-24T18:10:02Z</time>
      </trkpt>
      <trkpt lat="40.258194" lon="-3.7742617">
        <ele>651.37</ele>
        <time>2021-03-24T18:10:03Z</time>
      </trkpt>
      <trkpt lat="40.25825" lon="-3.7742796">
        <ele>650.01</ele>
        <time>2021-03-24T18:10:04Z</time>
      </trkpt>
      <trkpt lat="40.258305" lon="-3.7742965">
        <ele>650.01</ele>
        <time>2021-03-24T18:10:05Z</time>
      </trkpt>
      <trkpt lat="40.258358" lon="-3.7743123">
        <ele>650.01</ele>
        <time>2021-03-24T18:10:06Z</time>
      </trkpt>
      <trkpt lat="40.258404" lon="-3.7743258">
        <ele>650.01</ele>
        <time>2021-03-24T18:10:07Z</time>
      </trkpt>
      <trkpt lat="40.258484" lon="-3.7743497">
        <ele>650.01</ele>
        <time>2021-03-24T18:10:09Z</time>
      </trkpt>
      <trkpt lat="40.258564" lon="-3.7743735">
        <ele>650.01</ele>
        <time>2021-03-24T18:10:11Z</time>
      </trkpt>
      <trkpt lat="40.25864" lon="-3.77439">
        <ele>648.82</ele>
        <time>2021-03-24T18:10:13Z</time>
      </trkpt>
      <trkpt lat="40.258698" lon="-3.7743819">
        <ele>648.82</ele>
        <time>2021-03-24T18:10:15Z</time>
      </trkpt>
      <trkpt lat="40.258717" lon="-3.7743282">
        <ele>648.82</ele>
        <time>2021-03-24T18:10:18Z</time>
      </trkpt>
      <trkpt lat="40.25866" lon="-3.7742586">
        <ele>648.82</ele>
        <time>2021-03-24T18:10:21Z</time>
      </trkpt>
      <trkpt lat="40.2586" lon="-3.774198">
        <ele>646.38</ele>
        <time>2021-03-24T18:10:23Z</time>
      </trkpt>
      <trkpt lat="40.258526" lon="-3.774135">
        <ele>646.38</ele>
        <time>2021-03-24T18:10:25Z</time>
      </trkpt>
      <trkpt lat="40.258446" lon="-3.7740746">
        <ele>646.38</ele>
        <time>2021-03-24T18:10:27Z</time>
      </trkpt>
      <trkpt lat="40.258366" lon="-3.7740157">
        <ele>646.38</ele>
        <time>2021-03-24T18:10:29Z</time>
      </trkpt>
      <trkpt lat="40.258324" lon="-3.7739882">
        <ele>646.38</ele>
        <time>2021-03-24T18:10:30Z</time>
      </trkpt>
      <trkpt lat="40.25824" lon="-3.7739344">
        <ele>646.38</ele>
        <time>2021-03-24T18:10:32Z</time>
      </trkpt>
      <trkpt lat="40.25816" lon="-3.77388">
        <ele>646.38</ele>
        <time>2021-03-24T18:10:34Z</time>
      </trkpt>
      <trkpt lat="40.258087" lon="-3.773818">
        <ele>646.38</ele>
        <time>2021-03-24T18:10:36Z</time>
      </trkpt>
      <trkpt lat="40.25803" lon="-3.7737339">
        <ele>646.38</ele>
        <time>2021-03-24T18:10:38Z</time>
      </trkpt>
      <trkpt lat="40.25801" lon="-3.7736347">
        <ele>646.38</ele>
        <time>2021-03-24T18:10:40Z</time>
      </trkpt>
      <trkpt lat="40.25803" lon="-3.7735274">
        <ele>646.38</ele>
        <time>2021-03-24T18:10:42Z</time>
      </trkpt>
      <trkpt lat="40.25808" lon="-3.7734308">
        <ele>646.38</ele>
        <time>2021-03-24T18:10:44Z</time>
      </trkpt>
      <trkpt lat="40.25815" lon="-3.773333">
        <ele>646.38</ele>
        <time>2021-03-24T18:10:46Z</time>
      </trkpt>
      <trkpt lat="40.25823" lon="-3.773235">
        <ele>646.38</ele>
        <time>2021-03-24T18:10:48Z</time>
      </trkpt>
      <trkpt lat="40.25827" lon="-3.7731886">
        <ele>646.38</ele>
        <time>2021-03-24T18:10:49Z</time>
      </trkpt>
      <trkpt lat="40.258316" lon="-3.7731364">
        <ele>646.38</ele>
        <time>2021-03-24T18:10:50Z</time>
      </trkpt>
      <trkpt lat="40.258408" lon="-3.7730317">
        <ele>646.38</ele>
        <time>2021-03-24T18:10:52Z</time>
      </trkpt>
      <trkpt lat="40.258453" lon="-3.772983">
        <ele>645.2</ele>
        <time>2021-03-24T18:10:53Z</time>
      </trkpt>
      <trkpt lat="40.25855" lon="-3.7728796">
        <ele>645.2</ele>
        <time>2021-03-24T18:10:55Z</time>
      </trkpt>
      <trkpt lat="40.2586" lon="-3.7728295">
        <ele>645.2</ele>
        <time>2021-03-24T18:10:56Z</time>
      </trkpt>
      <trkpt lat="40.258648" lon="-3.772779">
        <ele>645.2</ele>
        <time>2021-03-24T18:10:57Z</time>
      </trkpt>
      <trkpt lat="40.258698" lon="-3.772727">
        <ele>645.2</ele>
        <time>2021-03-24T18:10:58Z</time>
      </trkpt>
      <trkpt lat="40.25875" lon="-3.7726758">
        <ele>645.2</ele>
        <time>2021-03-24T18:10:59Z</time>
      </trkpt>
      <trkpt lat="40.258858" lon="-3.7725737">
        <ele>645.2</ele>
        <time>2021-03-24T18:11:01Z</time>
      </trkpt>
      <trkpt lat="40.258907" lon="-3.772526">
        <ele>645.2</ele>
        <time>2021-03-24T18:11:02Z</time>
      </trkpt>
      <trkpt lat="40.258965" lon="-3.7724748">
        <ele>645.2</ele>
        <time>2021-03-24T18:11:03Z</time>
      </trkpt>
      <trkpt lat="40.259018" lon="-3.7724247">
        <ele>645.2</ele>
        <time>2021-03-24T18:11:04Z</time>
      </trkpt>
      <trkpt lat="40.259075" lon="-3.772376">
        <ele>645.2</ele>
        <time>2021-03-24T18:11:05Z</time>
      </trkpt>
      <trkpt lat="40.25913" lon="-3.772328">
        <ele>645.2</ele>
        <time>2021-03-24T18:11:06Z</time>
      </trkpt>
      <trkpt lat="40.25918" lon="-3.7722807">
        <ele>645.2</ele>
        <time>2021-03-24T18:11:07Z</time>
      </trkpt>
      <trkpt lat="40.25923" lon="-3.772234">
        <ele>645.2</ele>
        <time>2021-03-24T18:11:08Z</time>
      </trkpt>
      <trkpt lat="40.259285" lon="-3.772187">
        <ele>645.2</ele>
        <time>2021-03-24T18:11:09Z</time>
      </trkpt>
      <trkpt lat="40.259335" lon="-3.7721424">
        <ele>645.2</ele>
        <time>2021-03-24T18:11:10Z</time>
      </trkpt>
      <trkpt lat="40.259388" lon="-3.7720957">
        <ele>645.2</ele>
        <time>2021-03-24T18:11:11Z</time>
      </trkpt>
      <trkpt lat="40.259445" lon="-3.772044">
        <ele>645.2</ele>
        <time>2021-03-24T18:11:12Z</time>
      </trkpt>
      <trkpt lat="40.259502" lon="-3.7719913">
        <ele>645.2</ele>
        <time>2021-03-24T18:11:13Z</time>
      </trkpt>
      <trkpt lat="40.25956" lon="-3.7719383">
        <ele>644.02</ele>
        <time>2021-03-24T18:11:14Z</time>
      </trkpt>
      <trkpt lat="40.259617" lon="-3.771889">
        <ele>644.02</ele>
        <time>2021-03-24T18:11:15Z</time>
      </trkpt>
      <trkpt lat="40.259678" lon="-3.771835">
        <ele>644.02</ele>
        <time>2021-03-24T18:11:16Z</time>
      </trkpt>
      <trkpt lat="40.259743" lon="-3.7717812">
        <ele>644.02</ele>
        <time>2021-03-24T18:11:17Z</time>
      </trkpt>
      <trkpt lat="40.259804" lon="-3.7717257">
        <ele>644.02</ele>
        <time>2021-03-24T18:11:18Z</time>
      </trkpt>
      <trkpt lat="40.25987" lon="-3.771671">
        <ele>642.66</ele>
        <time>2021-03-24T18:11:19Z</time>
      </trkpt>
      <trkpt lat="40.25993" lon="-3.7716177">
        <ele>642.66</ele>
        <time>2021-03-24T18:11:20Z</time>
      </trkpt>
      <trkpt lat="40.259995" lon="-3.7715657">
        <ele>642.66</ele>
        <time>2021-03-24T18:11:21Z</time>
      </trkpt>
      <trkpt lat="40.260056" lon="-3.7715147">
        <ele>642.66</ele>
        <time>2021-03-24T18:11:22Z</time>
      </trkpt>
      <trkpt lat="40.260113" lon="-3.771467">
        <ele>642.66</ele>
        <time>2021-03-24T18:11:23Z</time>
      </trkpt>
      <trkpt lat="40.26017" lon="-3.771417">
        <ele>642.66</ele>
        <time>2021-03-24T18:11:24Z</time>
      </trkpt>
      <trkpt lat="40.260235" lon="-3.7713616">
        <ele>642.66</ele>
        <time>2021-03-24T18:11:25Z</time>
      </trkpt>
      <trkpt lat="40.260365" lon="-3.7712476">
        <ele>641.38</ele>
        <time>2021-03-24T18:11:27Z</time>
      </trkpt>
      <trkpt lat="40.26043" lon="-3.7711935">
        <ele>641.38</ele>
        <time>2021-03-24T18:11:28Z</time>
      </trkpt>
      <trkpt lat="40.260498" lon="-3.7711365">
        <ele>640.2</ele>
        <time>2021-03-24T18:11:29Z</time>
      </trkpt>
      <trkpt lat="40.26057" lon="-3.7710757">
        <ele>640.2</ele>
        <time>2021-03-24T18:11:30Z</time>
      </trkpt>
      <trkpt lat="40.26065" lon="-3.771019">
        <ele>640.2</ele>
        <time>2021-03-24T18:11:31Z</time>
      </trkpt>
      <trkpt lat="40.26072" lon="-3.7709684">
        <ele>640.2</ele>
        <time>2021-03-24T18:11:32Z</time>
      </trkpt>
      <trkpt lat="40.26079" lon="-3.7709196">
        <ele>640.2</ele>
        <time>2021-03-24T18:11:33Z</time>
      </trkpt>
      <trkpt lat="40.260864" lon="-3.7708704">
        <ele>638.93</ele>
        <time>2021-03-24T18:11:34Z</time>
      </trkpt>
      <trkpt lat="40.260937" lon="-3.7708228">
        <ele>638.93</ele>
        <time>2021-03-24T18:11:35Z</time>
      </trkpt>
      <trkpt lat="40.261005" lon="-3.7707746">
        <ele>638.93</ele>
        <time>2021-03-24T18:11:36Z</time>
      </trkpt>
      <trkpt lat="40.26107" lon="-3.7707257">
        <ele>638.93</ele>
        <time>2021-03-24T18:11:37Z</time>
      </trkpt>
      <trkpt lat="40.261135" lon="-3.770675">
        <ele>638.93</ele>
        <time>2021-03-24T18:11:38Z</time>
      </trkpt>
      <trkpt lat="40.261196" lon="-3.7706246">
        <ele>638.93</ele>
        <time>2021-03-24T18:11:39Z</time>
      </trkpt>
      <trkpt lat="40.261257" lon="-3.7705743">
        <ele>637.38</ele>
        <time>2021-03-24T18:11:40Z</time>
      </trkpt>
      <trkpt lat="40.261314" lon="-3.7705252">
        <ele>637.38</ele>
        <time>2021-03-24T18:11:41Z</time>
      </trkpt>
      <trkpt lat="40.261368" lon="-3.7704794">
        <ele>637.38</ele>
        <time>2021-03-24T18:11:42Z</time>
      </trkpt>
      <trkpt lat="40.261433" lon="-3.7704318">
        <ele>635.84</ele>
        <time>2021-03-24T18:11:43Z</time>
      </trkpt>
      <trkpt lat="40.261494" lon="-3.7703865">
        <ele>635.84</ele>
        <time>2021-03-24T18:11:44Z</time>
      </trkpt>
      <trkpt lat="40.26156" lon="-3.7703466">
        <ele>634.66</ele>
        <time>2021-03-24T18:11:45Z</time>
      </trkpt>
      <trkpt lat="40.261616" lon="-3.7703123">
        <ele>634.66</ele>
        <time>2021-03-24T18:11:46Z</time>
      </trkpt>
      <trkpt lat="40.26168" lon="-3.770285">
        <ele>633.47</ele>
        <time>2021-03-24T18:11:47Z</time>
      </trkpt>
      <trkpt lat="40.261745" lon="-3.7702663">
        <ele>633.47</ele>
        <time>2021-03-24T18:11:48Z</time>
      </trkpt>
      <trkpt lat="40.26181" lon="-3.7702577">
        <ele>633.47</ele>
        <time>2021-03-24T18:11:49Z</time>
      </trkpt>
      <trkpt lat="40.261875" lon="-3.7702587">
        <ele>632.11</ele>
        <time>2021-03-24T18:11:50Z</time>
      </trkpt>
      <trkpt lat="40.261936" lon="-3.7702658">
        <ele>632.11</ele>
        <time>2021-03-24T18:11:51Z</time>
      </trkpt>
      <trkpt lat="40.262" lon="-3.770278">
        <ele>632.11</ele>
        <time>2021-03-24T18:11:52Z</time>
      </trkpt>
      <trkpt lat="40.26206" lon="-3.7702932">
        <ele>632.11</ele>
        <time>2021-03-24T18:11:53Z</time>
      </trkpt>
      <trkpt lat="40.26211" lon="-3.7703092">
        <ele>632.11</ele>
        <time>2021-03-24T18:11:54Z</time>
      </trkpt>
      <trkpt lat="40.262157" lon="-3.7703226">
        <ele>630.93</ele>
        <time>2021-03-24T18:11:55Z</time>
      </trkpt>
      <trkpt lat="40.262238" lon="-3.7703292">
        <ele>630.93</ele>
        <time>2021-03-24T18:11:57Z</time>
      </trkpt>
      <trkpt lat="40.262283" lon="-3.7703125">
        <ele>630.93</ele>
        <time>2021-03-24T18:11:59Z</time>
      </trkpt>
      <trkpt lat="40.262337" lon="-3.770279">
        <ele>630.93</ele>
        <time>2021-03-24T18:12:02Z</time>
      </trkpt>
      <trkpt lat="40.262383" lon="-3.770259">
        <ele>630.93</ele>
        <time>2021-03-24T18:12:05Z</time>
      </trkpt>
      <trkpt lat="40.262447" lon="-3.770256">
        <ele>630.93</ele>
        <time>2021-03-24T18:12:09Z</time>
      </trkpt>
      <trkpt lat="40.2625" lon="-3.770257">
        <ele>630.93</ele>
        <time>2021-03-24T18:12:13Z</time>
      </trkpt>
      <trkpt lat="40.262524" lon="-3.7703056">
        <ele>630.93</ele>
        <time>2021-03-24T18:12:17Z</time>
      </trkpt>
      <trkpt lat="40.262527" lon="-3.7703953">
        <ele>630.93</ele>
        <time>2021-03-24T18:12:20Z</time>
      </trkpt>
      <trkpt lat="40.262535" lon="-3.7704704">
        <ele>630.93</ele>
        <time>2021-03-24T18:12:22Z</time>
      </trkpt>
      <trkpt lat="40.262558" lon="-3.7705576">
        <ele>630.93</ele>
        <time>2021-03-24T18:12:24Z</time>
      </trkpt>
      <trkpt lat="40.262592" lon="-3.7706444">
        <ele>630.93</ele>
        <time>2021-03-24T18:12:26Z</time>
      </trkpt>
      <trkpt lat="40.262634" lon="-3.770749">
        <ele>630.93</ele>
        <time>2021-03-24T18:12:28Z</time>
      </trkpt>
      <trkpt lat="40.26268" lon="-3.7708588">
        <ele>632.11</ele>
        <time>2021-03-24T18:12:30Z</time>
      </trkpt>
      <trkpt lat="40.262722" lon="-3.7709653">
        <ele>632.11</ele>
        <time>2021-03-24T18:12:32Z</time>
      </trkpt>
      <trkpt lat="40.262768" lon="-3.771086">
        <ele>632.11</ele>
        <time>2021-03-24T18:12:34Z</time>
      </trkpt>
      <trkpt lat="40.26279" lon="-3.7711446">
        <ele>632.11</ele>
        <time>2021-03-24T18:12:35Z</time>
      </trkpt>
      <trkpt lat="40.262844" lon="-3.7712617">
        <ele>632.11</ele>
        <time>2021-03-24T18:12:37Z</time>
      </trkpt>
      <trkpt lat="40.26287" lon="-3.7713177">
        <ele>632.11</ele>
        <time>2021-03-24T18:12:38Z</time>
      </trkpt>
      <trkpt lat="40.2629" lon="-3.7713764">
        <ele>632.11</ele>
        <time>2021-03-24T18:12:39Z</time>
      </trkpt>
      <trkpt lat="40.262936" lon="-3.7714336">
        <ele>632.11</ele>
        <time>2021-03-24T18:12:40Z</time>
      </trkpt>
      <trkpt lat="40.262962" lon="-3.7714868">
        <ele>632.11</ele>
        <time>2021-03-24T18:12:41Z</time>
      </trkpt>
      <trkpt lat="40.263027" lon="-3.7715936">
        <ele>633.38</ele>
        <time>2021-03-24T18:12:43Z</time>
      </trkpt>
      <trkpt lat="40.26306" lon="-3.771646">
        <ele>633.38</ele>
        <time>2021-03-24T18:12:44Z</time>
      </trkpt>
      <trkpt lat="40.2631" lon="-3.7717013">
        <ele>633.38</ele>
        <time>2021-03-24T18:12:45Z</time>
      </trkpt>
      <trkpt lat="40.263134" lon="-3.771755">
        <ele>633.38</ele>
        <time>2021-03-24T18:12:46Z</time>
      </trkpt>
      <trkpt lat="40.26317" lon="-3.7718046">
        <ele>633.38</ele>
        <time>2021-03-24T18:12:47Z</time>
      </trkpt>
      <trkpt lat="40.2632" lon="-3.7718544">
        <ele>633.38</ele>
        <time>2021-03-24T18:12:48Z</time>
      </trkpt>
      <trkpt lat="40.263275" lon="-3.771961">
        <ele>634.56</ele>
        <time>2021-03-24T18:12:50Z</time>
      </trkpt>
      <trkpt lat="40.263306" lon="-3.7720103">
        <ele>634.56</ele>
        <time>2021-03-24T18:12:51Z</time>
      </trkpt>
      <trkpt lat="40.26334" lon="-3.772061">
        <ele>634.56</ele>
        <time>2021-03-24T18:12:52Z</time>
      </trkpt>
      <trkpt lat="40.26341" lon="-3.7721667">
        <ele>634.56</ele>
        <time>2021-03-24T18:12:54Z</time>
      </trkpt>
      <trkpt lat="40.263443" lon="-3.77222">
        <ele>634.56</ele>
        <time>2021-03-24T18:12:55Z</time>
      </trkpt>
      <trkpt lat="40.263474" lon="-3.7722723">
        <ele>635.84</ele>
        <time>2021-03-24T18:12:56Z</time>
      </trkpt>
      <trkpt lat="40.263504" lon="-3.7723212">
        <ele>635.84</ele>
        <time>2021-03-24T18:12:57Z</time>
      </trkpt>
      <trkpt lat="40.263577" lon="-3.7724223">
        <ele>635.84</ele>
        <time>2021-03-24T18:12:59Z</time>
      </trkpt>
      <trkpt lat="40.26361" lon="-3.7724707">
        <ele>635.84</ele>
        <time>2021-03-24T18:13:00Z</time>
      </trkpt>
      <trkpt lat="40.26365" lon="-3.7725143">
        <ele>635.84</ele>
        <time>2021-03-24T18:13:01Z</time>
      </trkpt>
      <trkpt lat="40.26373" lon="-3.7725873">
        <ele>635.84</ele>
        <time>2021-03-24T18:13:03Z</time>
      </trkpt>
      <trkpt lat="40.263813" lon="-3.7726448">
        <ele>637.11</ele>
        <time>2021-03-24T18:13:05Z</time>
      </trkpt>
      <trkpt lat="40.26391" lon="-3.772687">
        <ele>637.11</ele>
        <time>2021-03-24T18:13:07Z</time>
      </trkpt>
      <trkpt lat="40.263954" lon="-3.7727027">
        <ele>637.11</ele>
        <time>2021-03-24T18:13:08Z</time>
      </trkpt>
      <trkpt lat="40.26405" lon="-3.772727">
        <ele>637.11</ele>
        <time>2021-03-24T18:13:10Z</time>
      </trkpt>
      <trkpt lat="40.264153" lon="-3.7727478">
        <ele>637.11</ele>
        <time>2021-03-24T18:13:12Z</time>
      </trkpt>
      <trkpt lat="40.2642" lon="-3.7727566">
        <ele>637.11</ele>
        <time>2021-03-24T18:13:13Z</time>
      </trkpt>
      <trkpt lat="40.264297" lon="-3.7727773">
        <ele>637.11</ele>
        <time>2021-03-24T18:13:15Z</time>
      </trkpt>
      <trkpt lat="40.264347" lon="-3.772788">
        <ele>637.11</ele>
        <time>2021-03-24T18:13:16Z</time>
      </trkpt>
      <trkpt lat="40.264397" lon="-3.7727997">
        <ele>637.11</ele>
        <time>2021-03-24T18:13:17Z</time>
      </trkpt>
      <trkpt lat="40.264496" lon="-3.772823">
        <ele>637.11</ele>
        <time>2021-03-24T18:13:19Z</time>
      </trkpt>
      <trkpt lat="40.2646" lon="-3.7728474">
        <ele>637.11</ele>
        <time>2021-03-24T18:13:21Z</time>
      </trkpt>
      <trkpt lat="40.264652" lon="-3.772859">
        <ele>637.11</ele>
        <time>2021-03-24T18:13:22Z</time>
      </trkpt>
      <trkpt lat="40.264706" lon="-3.7728708">
        <ele>638.29</ele>
        <time>2021-03-24T18:13:23Z</time>
      </trkpt>
      <trkpt lat="40.26476" lon="-3.772883">
        <ele>638.29</ele>
        <time>2021-03-24T18:13:24Z</time>
      </trkpt>
      <trkpt lat="40.26481" lon="-3.772895">
        <ele>638.29</ele>
        <time>2021-03-24T18:13:25Z</time>
      </trkpt>
      <trkpt lat="40.26486" lon="-3.7729077">
        <ele>638.29</ele>
        <time>2021-03-24T18:13:26Z</time>
      </trkpt>
      <trkpt lat="40.264957" lon="-3.7729316">
        <ele>638.29</ele>
        <time>2021-03-24T18:13:28Z</time>
      </trkpt>
      <trkpt lat="40.265007" lon="-3.772942">
        <ele>638.29</ele>
        <time>2021-03-24T18:13:29Z</time>
      </trkpt>
      <trkpt lat="40.265114" lon="-3.7729585">
        <ele>638.29</ele>
        <time>2021-03-24T18:13:31Z</time>
      </trkpt>
      <trkpt lat="40.265167" lon="-3.7729597">
        <ele>638.29</ele>
        <time>2021-03-24T18:13:32Z</time>
      </trkpt>
      <trkpt lat="40.265217" lon="-3.7729554">
        <ele>638.29</ele>
        <time>2021-03-24T18:13:33Z</time>
      </trkpt>
      <trkpt lat="40.265316" lon="-3.7729254">
        <ele>638.29</ele>
        <time>2021-03-24T18:13:35Z</time>
      </trkpt>
      <trkpt lat="40.265366" lon="-3.7729027">
        <ele>638.29</ele>
        <time>2021-03-24T18:13:36Z</time>
      </trkpt>
      <trkpt lat="40.26541" lon="-3.7728803">
        <ele>638.29</ele>
        <time>2021-03-24T18:13:37Z</time>
      </trkpt>
      <trkpt lat="40.265507" lon="-3.772827">
        <ele>638.29</ele>
        <time>2021-03-24T18:13:39Z</time>
      </trkpt>
      <trkpt lat="40.265553" lon="-3.7727973">
        <ele>638.29</ele>
        <time>2021-03-24T18:13:40Z</time>
      </trkpt>
      <trkpt lat="40.265606" lon="-3.7727647">
        <ele>638.29</ele>
        <time>2021-03-24T18:13:41Z</time>
      </trkpt>
      <trkpt lat="40.265656" lon="-3.7727323">
        <ele>638.29</ele>
        <time>2021-03-24T18:13:42Z</time>
      </trkpt>
      <trkpt lat="40.265705" lon="-3.772699">
        <ele>638.29</ele>
        <time>2021-03-24T18:13:43Z</time>
      </trkpt>
      <trkpt lat="40.26575" lon="-3.7726684">
        <ele>638.29</ele>
        <time>2021-03-24T18:13:44Z</time>
      </trkpt>
      <trkpt lat="40.265797" lon="-3.7726374">
        <ele>638.29</ele>
        <time>2021-03-24T18:13:45Z</time>
      </trkpt>
      <trkpt lat="40.265846" lon="-3.7726026">
        <ele>639.47</ele>
        <time>2021-03-24T18:13:46Z</time>
      </trkpt>
      <trkpt lat="40.265896" lon="-3.772568">
        <ele>639.47</ele>
        <time>2021-03-24T18:13:47Z</time>
      </trkpt>
      <trkpt lat="40.265945" lon="-3.7725322">
        <ele>639.47</ele>
        <time>2021-03-24T18:13:48Z</time>
      </trkpt>
      <trkpt lat="40.26599" lon="-3.772499">
        <ele>639.47</ele>
        <time>2021-03-24T18:13:49Z</time>
      </trkpt>
      <trkpt lat="40.266087" lon="-3.7724297">
        <ele>639.47</ele>
        <time>2021-03-24T18:13:51Z</time>
      </trkpt>
      <trkpt lat="40.266136" lon="-3.772395">
        <ele>639.47</ele>
        <time>2021-03-24T18:13:52Z</time>
      </trkpt>
      <trkpt lat="40.266186" lon="-3.77236">
        <ele>639.47</ele>
        <time>2021-03-24T18:13:53Z</time>
      </trkpt>
      <trkpt lat="40.26623" lon="-3.772325">
        <ele>639.47</ele>
        <time>2021-03-24T18:13:54Z</time>
      </trkpt>
      <trkpt lat="40.266277" lon="-3.7722955">
        <ele>639.47</ele>
        <time>2021-03-24T18:13:55Z</time>
      </trkpt>
      <trkpt lat="40.26637" lon="-3.7722387">
        <ele>639.47</ele>
        <time>2021-03-24T18:13:57Z</time>
      </trkpt>
      <trkpt lat="40.26642" lon="-3.772209">
        <ele>639.47</ele>
        <time>2021-03-24T18:13:58Z</time>
      </trkpt>
      <trkpt lat="40.266464" lon="-3.7721796">
        <ele>639.47</ele>
        <time>2021-03-24T18:13:59Z</time>
      </trkpt>
      <trkpt lat="40.26651" lon="-3.772153">
        <ele>639.47</ele>
        <time>2021-03-24T18:14:00Z</time>
      </trkpt>
      <trkpt lat="40.2666" lon="-3.772096">
        <ele>640.66</ele>
        <time>2021-03-24T18:14:02Z</time>
      </trkpt>
      <trkpt lat="40.266647" lon="-3.7720664">
        <ele>640.66</ele>
        <time>2021-03-24T18:14:03Z</time>
      </trkpt>
      <trkpt lat="40.26669" lon="-3.772036">
        <ele>640.66</ele>
        <time>2021-03-24T18:14:04Z</time>
      </trkpt>
      <trkpt lat="40.266735" lon="-3.772009">
        <ele>640.66</ele>
        <time>2021-03-24T18:14:05Z</time>
      </trkpt>
      <trkpt lat="40.266827" lon="-3.7719657">
        <ele>640.66</ele>
        <time>2021-03-24T18:14:07Z</time>
      </trkpt>
      <trkpt lat="40.26687" lon="-3.7719557">
        <ele>642.02</ele>
        <time>2021-03-24T18:14:08Z</time>
      </trkpt>
      <trkpt lat="40.26696" lon="-3.77197">
        <ele>642.02</ele>
        <time>2021-03-24T18:14:10Z</time>
      </trkpt>
      <trkpt lat="40.267033" lon="-3.7720256">
        <ele>642.02</ele>
        <time>2021-03-24T18:14:12Z</time>
      </trkpt>
      <trkpt lat="40.2671" lon="-3.772111">
        <ele>642.02</ele>
        <time>2021-03-24T18:14:14Z</time>
      </trkpt>
      <trkpt lat="40.26713" lon="-3.7721596">
        <ele>643.2</ele>
        <time>2021-03-24T18:14:15Z</time>
      </trkpt>
      <trkpt lat="40.26719" lon="-3.772267">
        <ele>643.2</ele>
        <time>2021-03-24T18:14:17Z</time>
      </trkpt>
      <trkpt lat="40.267242" lon="-3.7723868">
        <ele>643.2</ele>
        <time>2021-03-24T18:14:19Z</time>
      </trkpt>
      <trkpt lat="40.26727" lon="-3.772448">
        <ele>643.2</ele>
        <time>2021-03-24T18:14:20Z</time>
      </trkpt>
      <trkpt lat="40.267292" lon="-3.772505">
        <ele>643.2</ele>
        <time>2021-03-24T18:14:21Z</time>
      </trkpt>
      <trkpt lat="40.267315" lon="-3.7725632">
        <ele>643.2</ele>
        <time>2021-03-24T18:14:22Z</time>
      </trkpt>
      <trkpt lat="40.267365" lon="-3.7726889">
        <ele>642.47</ele>
        <time>2021-03-24T18:14:24Z</time>
      </trkpt>
      <trkpt lat="40.267387" lon="-3.7727504">
        <ele>642.47</ele>
        <time>2021-03-24T18:14:25Z</time>
      </trkpt>
      <trkpt lat="40.26741" lon="-3.7728071">
        <ele>642.47</ele>
        <time>2021-03-24T18:14:26Z</time>
      </trkpt>
      <trkpt lat="40.267456" lon="-3.772927">
        <ele>642.47</ele>
        <time>2021-03-24T18:14:28Z</time>
      </trkpt>
      <trkpt lat="40.26748" lon="-3.7729876">
        <ele>642.47</ele>
        <time>2021-03-24T18:14:29Z</time>
      </trkpt>
      <trkpt lat="40.2675" lon="-3.7730527">
        <ele>642.47</ele>
        <time>2021-03-24T18:14:30Z</time>
      </trkpt>
      <trkpt lat="40.267525" lon="-3.7731135">
        <ele>642.47</ele>
        <time>2021-03-24T18:14:31Z</time>
      </trkpt>
      <trkpt lat="40.26755" lon="-3.7731755">
        <ele>642.47</ele>
        <time>2021-03-24T18:14:32Z</time>
      </trkpt>
      <trkpt lat="40.267597" lon="-3.7732992">
        <ele>642.47</ele>
        <time>2021-03-24T18:14:34Z</time>
      </trkpt>
      <trkpt lat="40.267624" lon="-3.7733607">
        <ele>642.47</ele>
        <time>2021-03-24T18:14:35Z</time>
      </trkpt>
      <trkpt lat="40.26765" lon="-3.7734258">
        <ele>643.65</ele>
        <time>2021-03-24T18:14:36Z</time>
      </trkpt>
      <trkpt lat="40.267677" lon="-3.7734854">
        <ele>643.65</ele>
        <time>2021-03-24T18:14:37Z</time>
      </trkpt>
      <trkpt lat="40.267704" lon="-3.7735424">
        <ele>643.65</ele>
        <time>2021-03-24T18:14:38Z</time>
      </trkpt>
      <trkpt lat="40.267735" lon="-3.7735984">
        <ele>643.65</ele>
        <time>2021-03-24T18:14:39Z</time>
      </trkpt>
      <trkpt lat="40.267765" lon="-3.773653">
        <ele>643.65</ele>
        <time>2021-03-24T18:14:40Z</time>
      </trkpt>
      <trkpt lat="40.2678" lon="-3.773705">
        <ele>643.65</ele>
        <time>2021-03-24T18:14:41Z</time>
      </trkpt>
      <trkpt lat="40.267838" lon="-3.7737546">
        <ele>643.65</ele>
        <time>2021-03-24T18:14:42Z</time>
      </trkpt>
      <trkpt lat="40.26788" lon="-3.7738013">
        <ele>643.65</ele>
        <time>2021-03-24T18:14:43Z</time>
      </trkpt>
      <trkpt lat="40.267963" lon="-3.773886">
        <ele>643.65</ele>
        <time>2021-03-24T18:14:45Z</time>
      </trkpt>
      <trkpt lat="40.26801" lon="-3.773924">
        <ele>643.65</ele>
        <time>2021-03-24T18:14:46Z</time>
      </trkpt>
      <trkpt lat="40.268055" lon="-3.7739596">
        <ele>643.65</ele>
        <time>2021-03-24T18:14:47Z</time>
      </trkpt>
      <trkpt lat="40.2681" lon="-3.773993">
        <ele>643.65</ele>
        <time>2021-03-24T18:14:48Z</time>
      </trkpt>
      <trkpt lat="40.26815" lon="-3.7740247">
        <ele>643.65</ele>
        <time>2021-03-24T18:14:49Z</time>
      </trkpt>
      <trkpt lat="40.268196" lon="-3.7740552">
        <ele>643.65</ele>
        <time>2021-03-24T18:14:50Z</time>
      </trkpt>
      <trkpt lat="40.268246" lon="-3.7740855">
        <ele>643.65</ele>
        <time>2021-03-24T18:14:51Z</time>
      </trkpt>
      <trkpt lat="40.2683" lon="-3.7741163">
        <ele>643.65</ele>
        <time>2021-03-24T18:14:52Z</time>
      </trkpt>
      <trkpt lat="40.26835" lon="-3.7741446">
        <ele>643.65</ele>
        <time>2021-03-24T18:14:53Z</time>
      </trkpt>
      <trkpt lat="40.268394" lon="-3.774173">
        <ele>643.65</ele>
        <time>2021-03-24T18:14:54Z</time>
      </trkpt>
      <trkpt lat="40.268497" lon="-3.7742314">
        <ele>644.84</ele>
        <time>2021-03-24T18:14:56Z</time>
      </trkpt>
      <trkpt lat="40.268547" lon="-3.774259">
        <ele>644.84</ele>
        <time>2021-03-24T18:14:57Z</time>
      </trkpt>
      <trkpt lat="40.268597" lon="-3.7742875">
        <ele>644.84</ele>
        <time>2021-03-24T18:14:58Z</time>
      </trkpt>
      <trkpt lat="40.268646" lon="-3.774315">
        <ele>644.84</ele>
        <time>2021-03-24T18:14:59Z</time>
      </trkpt>
      <trkpt lat="40.268692" lon="-3.7743404">
        <ele>644.84</ele>
        <time>2021-03-24T18:15:00Z</time>
      </trkpt>
      <trkpt lat="40.268803" lon="-3.774373">
        <ele>644.84</ele>
        <time>2021-03-24T18:15:02Z</time>
      </trkpt>
      <trkpt lat="40.26886" lon="-3.774373">
        <ele>644.84</ele>
        <time>2021-03-24T18:15:03Z</time>
      </trkpt>
      <trkpt lat="40.268913" lon="-3.7743616">
        <ele>644.84</ele>
        <time>2021-03-24T18:15:04Z</time>
      </trkpt>
      <trkpt lat="40.268967" lon="-3.7743404">
        <ele>644.84</ele>
        <time>2021-03-24T18:15:05Z</time>
      </trkpt>
      <trkpt lat="40.269077" lon="-3.7742772">
        <ele>644.84</ele>
        <time>2021-03-24T18:15:07Z</time>
      </trkpt>
      <trkpt lat="40.269135" lon="-3.7742374">
        <ele>644.84</ele>
        <time>2021-03-24T18:15:08Z</time>
      </trkpt>
      <trkpt lat="40.269196" lon="-3.774194">
        <ele>644.84</ele>
        <time>2021-03-24T18:15:09Z</time>
      </trkpt>
      <trkpt lat="40.26925" lon="-3.7741504">
        <ele>644.84</ele>
        <time>2021-03-24T18:15:10Z</time>
      </trkpt>
      <trkpt lat="40.269314" lon="-3.774101">
        <ele>644.84</ele>
        <time>2021-03-24T18:15:11Z</time>
      </trkpt>
      <trkpt lat="40.269375" lon="-3.7740502">
        <ele>644.84</ele>
        <time>2021-03-24T18:15:12Z</time>
      </trkpt>
      <trkpt lat="40.269512" lon="-3.7739446">
        <ele>643.56</ele>
        <time>2021-03-24T18:15:14Z</time>
      </trkpt>
      <trkpt lat="40.26958" lon="-3.773889">
        <ele>643.56</ele>
        <time>2021-03-24T18:15:15Z</time>
      </trkpt>
      <trkpt lat="40.26965" lon="-3.7738314">
        <ele>643.56</ele>
        <time>2021-03-24T18:15:16Z</time>
      </trkpt>
      <trkpt lat="40.269722" lon="-3.7737722">
        <ele>643.56</ele>
        <time>2021-03-24T18:15:17Z</time>
      </trkpt>
      <trkpt lat="40.2698" lon="-3.7737126">
        <ele>643.56</ele>
        <time>2021-03-24T18:15:18Z</time>
      </trkpt>
      <trkpt lat="40.269875" lon="-3.7736516">
        <ele>643.56</ele>
        <time>2021-03-24T18:15:19Z</time>
      </trkpt>
      <trkpt lat="40.269955" lon="-3.7735898">
        <ele>643.56</ele>
        <time>2021-03-24T18:15:20Z</time>
      </trkpt>
      <trkpt lat="40.270035" lon="-3.7735274">
        <ele>642.2</ele>
        <time>2021-03-24T18:15:21Z</time>
      </trkpt>
      <trkpt lat="40.270115" lon="-3.7734637">
        <ele>642.2</ele>
        <time>2021-03-24T18:15:22Z</time>
      </trkpt>
      <trkpt lat="40.27019" lon="-3.773404">
        <ele>642.2</ele>
        <time>2021-03-24T18:15:23Z</time>
      </trkpt>
      <trkpt lat="40.27027" lon="-3.7733414">
        <ele>642.2</ele>
        <time>2021-03-24T18:15:24Z</time>
      </trkpt>
      <trkpt lat="40.27035" lon="-3.7732775">
        <ele>642.2</ele>
        <time>2021-03-24T18:15:25Z</time>
      </trkpt>
      <trkpt lat="40.27044" lon="-3.7732084">
        <ele>640.93</ele>
        <time>2021-03-24T18:15:26Z</time>
      </trkpt>
      <trkpt lat="40.270523" lon="-3.7731392">
        <ele>640.93</ele>
        <time>2021-03-24T18:15:27Z</time>
      </trkpt>
      <trkpt lat="40.270607" lon="-3.773075">
        <ele>640.93</ele>
        <time>2021-03-24T18:15:28Z</time>
      </trkpt>
      <trkpt lat="40.270687" lon="-3.77301">
        <ele>640.93</ele>
        <time>2021-03-24T18:15:29Z</time>
      </trkpt>
      <trkpt lat="40.27077" lon="-3.7729437">
        <ele>640.93</ele>
        <time>2021-03-24T18:15:30Z</time>
      </trkpt>
      <trkpt lat="40.270855" lon="-3.7728763">
        <ele>639.75</ele>
        <time>2021-03-24T18:15:31Z</time>
      </trkpt>
      <trkpt lat="40.270943" lon="-3.7728086">
        <ele>639.75</ele>
        <time>2021-03-24T18:15:32Z</time>
      </trkpt>
      <trkpt lat="40.271027" lon="-3.7727394">
        <ele>639.75</ele>
        <time>2021-03-24T18:15:33Z</time>
      </trkpt>
      <trkpt lat="40.27111" lon="-3.7726707">
        <ele>639.75</ele>
        <time>2021-03-24T18:15:34Z</time>
      </trkpt>
      <trkpt lat="40.271194" lon="-3.7726026">
        <ele>639.75</ele>
        <time>2021-03-24T18:15:35Z</time>
      </trkpt>
      <trkpt lat="40.27128" lon="-3.7725356">
        <ele>639.75</ele>
        <time>2021-03-24T18:15:36Z</time>
      </trkpt>
      <trkpt lat="40.271362" lon="-3.7724695">
        <ele>638.47</ele>
        <time>2021-03-24T18:15:37Z</time>
      </trkpt>
      <trkpt lat="40.27145" lon="-3.772399">
        <ele>638.47</ele>
        <time>2021-03-24T18:15:38Z</time>
      </trkpt>
      <trkpt lat="40.271538" lon="-3.7723303">
        <ele>638.47</ele>
        <time>2021-03-24T18:15:39Z</time>
      </trkpt>
      <trkpt lat="40.27162" lon="-3.7722638">
        <ele>638.47</ele>
        <time>2021-03-24T18:15:40Z</time>
      </trkpt>
      <trkpt lat="40.271698" lon="-3.772202">
        <ele>638.47</ele>
        <time>2021-03-24T18:15:41Z</time>
      </trkpt>
      <trkpt lat="40.27178" lon="-3.7721403">
        <ele>638.47</ele>
        <time>2021-03-24T18:15:42Z</time>
      </trkpt>
      <trkpt lat="40.27186" lon="-3.772078">
        <ele>638.47</ele>
        <time>2021-03-24T18:15:43Z</time>
      </trkpt>
      <trkpt lat="40.27194" lon="-3.7720163">
        <ele>638.47</ele>
        <time>2021-03-24T18:15:44Z</time>
      </trkpt>
      <trkpt lat="40.2721" lon="-3.771891">
        <ele>637.29</ele>
        <time>2021-03-24T18:15:46Z</time>
      </trkpt>
      <trkpt lat="40.27218" lon="-3.771829">
        <ele>637.29</ele>
        <time>2021-03-24T18:15:47Z</time>
      </trkpt>
      <trkpt lat="40.272263" lon="-3.771763">
        <ele>637.29</ele>
        <time>2021-03-24T18:15:48Z</time>
      </trkpt>
      <trkpt lat="40.27234" lon="-3.7717032">
        <ele>637.29</ele>
        <time>2021-03-24T18:15:49Z</time>
      </trkpt>
      <trkpt lat="40.27242" lon="-3.7716415">
        <ele>637.29</ele>
        <time>2021-03-24T18:15:50Z</time>
      </trkpt>
      <trkpt lat="40.27249" lon="-3.7715867">
        <ele>637.29</ele>
        <time>2021-03-24T18:15:51Z</time>
      </trkpt>
      <trkpt lat="40.272568" lon="-3.771533">
        <ele>637.29</ele>
        <time>2021-03-24T18:15:52Z</time>
      </trkpt>
      <trkpt lat="40.27264" lon="-3.7714803">
        <ele>637.29</ele>
        <time>2021-03-24T18:15:53Z</time>
      </trkpt>
      <trkpt lat="40.272713" lon="-3.7714295">
        <ele>637.29</ele>
        <time>2021-03-24T18:15:54Z</time>
      </trkpt>
      <trkpt lat="40.272785" lon="-3.77138">
        <ele>637.29</ele>
        <time>2021-03-24T18:15:55Z</time>
      </trkpt>
      <trkpt lat="40.272854" lon="-3.7713313">
        <ele>637.29</ele>
        <time>2021-03-24T18:15:56Z</time>
      </trkpt>
      <trkpt lat="40.272926" lon="-3.7712836">
        <ele>637.29</ele>
        <time>2021-03-24T18:15:57Z</time>
      </trkpt>
      <trkpt lat="40.272995" lon="-3.7712379">
        <ele>637.29</ele>
        <time>2021-03-24T18:15:58Z</time>
      </trkpt>
      <trkpt lat="40.273067" lon="-3.771192">
        <ele>637.29</ele>
        <time>2021-03-24T18:15:59Z</time>
      </trkpt>
      <trkpt lat="40.273136" lon="-3.7711468">
        <ele>636.11</ele>
        <time>2021-03-24T18:16:00Z</time>
      </trkpt>
      <trkpt lat="40.273197" lon="-3.7711031">
        <ele>636.11</ele>
        <time>2021-03-24T18:16:01Z</time>
      </trkpt>
      <trkpt lat="40.273262" lon="-3.7710607">
        <ele>636.11</ele>
        <time>2021-03-24T18:16:02Z</time>
      </trkpt>
      <trkpt lat="40.273323" lon="-3.771021">
        <ele>636.11</ele>
        <time>2021-03-24T18:16:03Z</time>
      </trkpt>
      <trkpt lat="40.273376" lon="-3.7709835">
        <ele>636.11</ele>
        <time>2021-03-24T18:16:04Z</time>
      </trkpt>
      <trkpt lat="40.273434" lon="-3.7709494">
        <ele>636.11</ele>
        <time>2021-03-24T18:16:05Z</time>
      </trkpt>
      <trkpt lat="40.273483" lon="-3.7709193">
        <ele>636.11</ele>
        <time>2021-03-24T18:16:06Z</time>
      </trkpt>
      <trkpt lat="40.273525" lon="-3.7708924">
        <ele>636.11</ele>
        <time>2021-03-24T18:16:07Z</time>
      </trkpt>
      <trkpt lat="40.273598" lon="-3.7708335">
        <ele>636.11</ele>
        <time>2021-03-24T18:16:09Z</time>
      </trkpt>
      <trkpt lat="40.273666" lon="-3.7707603">
        <ele>636.11</ele>
        <time>2021-03-24T18:16:11Z</time>
      </trkpt>
      <trkpt lat="40.27372" lon="-3.7706823">
        <ele>634.93</ele>
        <time>2021-03-24T18:16:13Z</time>
      </trkpt>
      <trkpt lat="40.273746" lon="-3.7705936">
        <ele>634.93</ele>
        <time>2021-03-24T18:16:15Z</time>
      </trkpt>
      <trkpt lat="40.27375" lon="-3.7705004">
        <ele>634.93</ele>
        <time>2021-03-24T18:16:17Z</time>
      </trkpt>
      <trkpt lat="40.273758" lon="-3.7704148">
        <ele>634.93</ele>
        <time>2021-03-24T18:16:19Z</time>
      </trkpt>
      <trkpt lat="40.27379" lon="-3.7703533">
        <ele>634.93</ele>
        <time>2021-03-24T18:16:21Z</time>
      </trkpt>
      <trkpt lat="40.273827" lon="-3.7703102">
        <ele>638.19</ele>
        <time>2021-03-24T18:16:23Z</time>
      </trkpt>
      <trkpt lat="40.27387" lon="-3.770277">
        <ele>638.19</ele>
        <time>2021-03-24T18:16:25Z</time>
      </trkpt>
      <trkpt lat="40.273914" lon="-3.7702374">
        <ele>638.19</ele>
        <time>2021-03-24T18:16:28Z</time>
      </trkpt>
      <trkpt lat="40.273964" lon="-3.770205">
        <ele>638.19</ele>
        <time>2021-03-24T18:16:32Z</time>
      </trkpt>
      <trkpt lat="40.274025" lon="-3.7702496">
        <ele>638.19</ele>
        <time>2021-03-24T18:16:35Z</time>
      </trkpt>
      <trkpt lat="40.274067" lon="-3.7703335">
        <ele>638.19</ele>
        <time>2021-03-24T18:16:37Z</time>
      </trkpt>
      <trkpt lat="40.274113" lon="-3.7704396">
        <ele>638.19</ele>
        <time>2021-03-24T18:16:39Z</time>
      </trkpt>
      <trkpt lat="40.27414" lon="-3.770501">
        <ele>638.19</ele>
        <time>2021-03-24T18:16:40Z</time>
      </trkpt>
      <trkpt lat="40.274193" lon="-3.7706387">
        <ele>638.19</ele>
        <time>2021-03-24T18:16:42Z</time>
      </trkpt>
      <trkpt lat="40.27422" lon="-3.7707076">
        <ele>638.19</ele>
        <time>2021-03-24T18:16:43Z</time>
      </trkpt>
      <trkpt lat="40.274246" lon="-3.7707777">
        <ele>638.19</ele>
        <time>2021-03-24T18:16:44Z</time>
      </trkpt>
      <trkpt lat="40.274273" lon="-3.7708492">
        <ele>638.19</ele>
        <time>2021-03-24T18:16:45Z</time>
      </trkpt>
      <trkpt lat="40.274303" lon="-3.7709217">
        <ele>638.19</ele>
        <time>2021-03-24T18:16:46Z</time>
      </trkpt>
      <trkpt lat="40.27433" lon="-3.7709932">
        <ele>639.46</ele>
        <time>2021-03-24T18:16:47Z</time>
      </trkpt>
      <trkpt lat="40.274357" lon="-3.7710643">
        <ele>639.46</ele>
        <time>2021-03-24T18:16:48Z</time>
      </trkpt>
      <trkpt lat="40.274384" lon="-3.771136">
        <ele>639.46</ele>
        <time>2021-03-24T18:16:49Z</time>
      </trkpt>
      <trkpt lat="40.27441" lon="-3.7712083">
        <ele>639.46</ele>
        <time>2021-03-24T18:16:50Z</time>
      </trkpt>
      <trkpt lat="40.274437" lon="-3.77128">
        <ele>639.46</ele>
        <time>2021-03-24T18:16:51Z</time>
      </trkpt>
      <trkpt lat="40.274464" lon="-3.7713497">
        <ele>639.46</ele>
        <time>2021-03-24T18:16:52Z</time>
      </trkpt>
      <trkpt lat="40.27449" lon="-3.771417">
        <ele>639.46</ele>
        <time>2021-03-24T18:16:53Z</time>
      </trkpt>
      <trkpt lat="40.27452" lon="-3.7714803">
        <ele>639.46</ele>
        <time>2021-03-24T18:16:54Z</time>
      </trkpt>
      <trkpt lat="40.27455" lon="-3.771539">
        <ele>639.46</ele>
        <time>2021-03-24T18:16:55Z</time>
      </trkpt>
      <trkpt lat="40.27459" lon="-3.7715924">
        <ele>640.64</ele>
        <time>2021-03-24T18:16:56Z</time>
      </trkpt>
      <trkpt lat="40.27463" lon="-3.771639">
        <ele>640.64</ele>
        <time>2021-03-24T18:16:57Z</time>
      </trkpt>
      <trkpt lat="40.274673" lon="-3.7716777">
        <ele>640.64</ele>
        <time>2021-03-24T18:16:58Z</time>
      </trkpt>
      <trkpt lat="40.27472" lon="-3.7717066">
        <ele>640.64</ele>
        <time>2021-03-24T18:16:59Z</time>
      </trkpt>
      <trkpt lat="40.274765" lon="-3.7717247">
        <ele>640.64</ele>
        <time>2021-03-24T18:17:00Z</time>
      </trkpt>
      <trkpt lat="40.27486" lon="-3.7717204">
        <ele>640.64</ele>
        <time>2021-03-24T18:17:02Z</time>
      </trkpt>
      <trkpt lat="40.274902" lon="-3.7717">
        <ele>640.64</ele>
        <time>2021-03-24T18:17:03Z</time>
      </trkpt>
      <trkpt lat="40.274998" lon="-3.7716343">
        <ele>640.64</ele>
        <time>2021-03-24T18:17:05Z</time>
      </trkpt>
      <trkpt lat="40.275047" lon="-3.7715929">
        <ele>640.64</ele>
        <time>2021-03-24T18:17:06Z</time>
      </trkpt>
      <trkpt lat="40.2751" lon="-3.771546">
        <ele>640.64</ele>
        <time>2021-03-24T18:17:07Z</time>
      </trkpt>
      <trkpt lat="40.275154" lon="-3.7714944">
        <ele>640.64</ele>
        <time>2021-03-24T18:17:08Z</time>
      </trkpt>
      <trkpt lat="40.27521" lon="-3.7714376">
        <ele>640.64</ele>
        <time>2021-03-24T18:17:09Z</time>
      </trkpt>
      <trkpt lat="40.275272" lon="-3.7713783">
        <ele>639.46</ele>
        <time>2021-03-24T18:17:10Z</time>
      </trkpt>
      <trkpt lat="40.275333" lon="-3.771315">
        <ele>639.46</ele>
        <time>2021-03-24T18:17:11Z</time>
      </trkpt>
      <trkpt lat="40.275406" lon="-3.771245">
        <ele>639.46</ele>
        <time>2021-03-24T18:17:12Z</time>
      </trkpt>
      <trkpt lat="40.27547" lon="-3.771179">
        <ele>638.19</ele>
        <time>2021-03-24T18:17:13Z</time>
      </trkpt>
      <trkpt lat="40.275543" lon="-3.771111">
        <ele>638.19</ele>
        <time>2021-03-24T18:17:14Z</time>
      </trkpt>
      <trkpt lat="40.275616" lon="-3.771038">
        <ele>638.19</ele>
        <time>2021-03-24T18:17:15Z</time>
      </trkpt>
      <trkpt lat="40.275684" lon="-3.7709706">
        <ele>638.19</ele>
        <time>2021-03-24T18:17:16Z</time>
      </trkpt>
      <trkpt lat="40.275753" lon="-3.7709017">
        <ele>636.83</ele>
        <time>2021-03-24T18:17:17Z</time>
      </trkpt>
      <trkpt lat="40.275818" lon="-3.7708294">
        <ele>636.83</ele>
        <time>2021-03-24T18:17:18Z</time>
      </trkpt>
      <trkpt lat="40.275875" lon="-3.7707503">
        <ele>636.83</ele>
        <time>2021-03-24T18:17:19Z</time>
      </trkpt>
      <trkpt lat="40.275925" lon="-3.7706652">
        <ele>636.83</ele>
        <time>2021-03-24T18:17:20Z</time>
      </trkpt>
      <trkpt lat="40.275967" lon="-3.7705698">
        <ele>636.83</ele>
        <time>2021-03-24T18:17:21Z</time>
      </trkpt>
      <trkpt lat="40.27601" lon="-3.7704737">
        <ele>636.83</ele>
        <time>2021-03-24T18:17:22Z</time>
      </trkpt>
      <trkpt lat="40.276043" lon="-3.7703834">
        <ele>636.83</ele>
        <time>2021-03-24T18:17:23Z</time>
      </trkpt>
      <trkpt lat="40.276077" lon="-3.7702901">
        <ele>636.83</ele>
        <time>2021-03-24T18:17:24Z</time>
      </trkpt>
      <trkpt lat="40.276108" lon="-3.7701957">
        <ele>636.83</ele>
        <time>2021-03-24T18:17:25Z</time>
      </trkpt>
      <trkpt lat="40.276146" lon="-3.7700934">
        <ele>636.83</ele>
        <time>2021-03-24T18:17:26Z</time>
      </trkpt>
      <trkpt lat="40.27618" lon="-3.769991">
        <ele>636.83</ele>
        <time>2021-03-24T18:17:27Z</time>
      </trkpt>
      <trkpt lat="40.276215" lon="-3.769895">
        <ele>636.83</ele>
        <time>2021-03-24T18:17:28Z</time>
      </trkpt>
      <trkpt lat="40.27625" lon="-3.7697875">
        <ele>636.83</ele>
        <time>2021-03-24T18:17:29Z</time>
      </trkpt>
      <trkpt lat="40.276283" lon="-3.769679">
        <ele>636.83</ele>
        <time>2021-03-24T18:17:30Z</time>
      </trkpt>
      <trkpt lat="40.27632" lon="-3.7695696">
        <ele>636.83</ele>
        <time>2021-03-24T18:17:31Z</time>
      </trkpt>
      <trkpt lat="40.276356" lon="-3.7694666">
        <ele>636.83</ele>
        <time>2021-03-24T18:17:32Z</time>
      </trkpt>
      <trkpt lat="40.27639" lon="-3.7693594">
        <ele>636.83</ele>
        <time>2021-03-24T18:17:33Z</time>
      </trkpt>
      <trkpt lat="40.27643" lon="-3.7692413">
        <ele>635.64</ele>
        <time>2021-03-24T18:17:34Z</time>
      </trkpt>
      <trkpt lat="40.276466" lon="-3.7691233">
        <ele>635.64</ele>
        <time>2021-03-24T18:17:35Z</time>
      </trkpt>
      <trkpt lat="40.276505" lon="-3.7690113">
        <ele>635.64</ele>
        <time>2021-03-24T18:17:36Z</time>
      </trkpt>
      <trkpt lat="40.276543" lon="-3.7688966">
        <ele>634.46</ele>
        <time>2021-03-24T18:17:37Z</time>
      </trkpt>
      <trkpt lat="40.27658" lon="-3.7687802">
        <ele>634.46</ele>
        <time>2021-03-24T18:17:38Z</time>
      </trkpt>
      <trkpt lat="40.27662" lon="-3.768662">
        <ele>634.46</ele>
        <time>2021-03-24T18:17:39Z</time>
      </trkpt>
      <trkpt lat="40.276657" lon="-3.7685432">
        <ele>633.19</ele>
        <time>2021-03-24T18:17:40Z</time>
      </trkpt>
      <trkpt lat="40.276695" lon="-3.768423">
        <ele>633.19</ele>
        <time>2021-03-24T18:17:41Z</time>
      </trkpt>
      <trkpt lat="40.276733" lon="-3.768301">
        <ele>633.19</ele>
        <time>2021-03-24T18:17:42Z</time>
      </trkpt>
      <trkpt lat="40.276775" lon="-3.768179">
        <ele>632.01</ele>
        <time>2021-03-24T18:17:43Z</time>
      </trkpt>
      <trkpt lat="40.276814" lon="-3.7680566">
        <ele>632.01</ele>
        <time>2021-03-24T18:17:44Z</time>
      </trkpt>
      <trkpt lat="40.276855" lon="-3.767936">
        <ele>632.01</ele>
        <time>2021-03-24T18:17:45Z</time>
      </trkpt>
      <trkpt lat="40.276897" lon="-3.767817">
        <ele>632.01</ele>
        <time>2021-03-24T18:17:46Z</time>
      </trkpt>
      <trkpt lat="40.27694" lon="-3.7677004">
        <ele>630.46</ele>
        <time>2021-03-24T18:17:47Z</time>
      </trkpt>
      <trkpt lat="40.276978" lon="-3.7675865">
        <ele>630.46</ele>
        <time>2021-03-24T18:17:48Z</time>
      </trkpt>
      <trkpt lat="40.277016" lon="-3.7674778">
        <ele>630.46</ele>
        <time>2021-03-24T18:17:49Z</time>
      </trkpt>
      <trkpt lat="40.277054" lon="-3.767369">
        <ele>629.19</ele>
        <time>2021-03-24T18:17:50Z</time>
      </trkpt>
      <trkpt lat="40.277084" lon="-3.767276">
        <ele>629.19</ele>
        <time>2021-03-24T18:17:51Z</time>
      </trkpt>
      <trkpt lat="40.27711" lon="-3.7671897">
        <ele>629.19</ele>
        <time>2021-03-24T18:17:52Z</time>
      </trkpt>
      <trkpt lat="40.277134" lon="-3.767111">
        <ele>627.92</ele>
        <time>2021-03-24T18:17:53Z</time>
      </trkpt>
      <trkpt lat="40.27715" lon="-3.767039">
        <ele>627.92</ele>
        <time>2021-03-24T18:17:54Z</time>
      </trkpt>
      <trkpt lat="40.27716" lon="-3.766972">
        <ele>627.92</ele>
        <time>2021-03-24T18:17:55Z</time>
      </trkpt>
      <trkpt lat="40.27717" lon="-3.7669063">
        <ele>627.92</ele>
        <time>2021-03-24T18:17:56Z</time>
      </trkpt>
      <trkpt lat="40.277176" lon="-3.766849">
        <ele>627.92</ele>
        <time>2021-03-24T18:17:57Z</time>
      </trkpt>
      <trkpt lat="40.27719" lon="-3.7667458">
        <ele>626.73</ele>
        <time>2021-03-24T18:17:59Z</time>
      </trkpt>
      <trkpt lat="40.277206" lon="-3.766648">
        <ele>626.73</ele>
        <time>2021-03-24T18:18:01Z</time>
      </trkpt>
      <trkpt lat="40.277184" lon="-3.7665017">
        <ele>626.73</ele>
        <time>2021-03-24T18:18:04Z</time>
      </trkpt>
      <trkpt lat="40.27715" lon="-3.7664068">
        <ele>626.73</ele>
        <time>2021-03-24T18:18:06Z</time>
      </trkpt>
      <trkpt lat="40.277107" lon="-3.766315">
        <ele>626.73</ele>
        <time>2021-03-24T18:18:08Z</time>
      </trkpt>
      <trkpt lat="40.27706" lon="-3.7662258">
        <ele>626.73</ele>
        <time>2021-03-24T18:18:10Z</time>
      </trkpt>
      <trkpt lat="40.277023" lon="-3.766145">
        <ele>626.73</ele>
        <time>2021-03-24T18:18:12Z</time>
      </trkpt>
      <trkpt lat="40.27699" lon="-3.7660677">
        <ele>626.73</ele>
        <time>2021-03-24T18:18:14Z</time>
      </trkpt>
      <trkpt lat="40.276955" lon="-3.7659976">
        <ele>626.73</ele>
        <time>2021-03-24T18:18:16Z</time>
      </trkpt>
      <trkpt lat="40.276928" lon="-3.7659433">
        <ele>626.73</ele>
        <time>2021-03-24T18:18:18Z</time>
      </trkpt>
      <trkpt lat="40.27694" lon="-3.7659094">
        <ele>627.92</ele>
        <time>2021-03-24T18:18:22Z</time>
      </trkpt>
      <trkpt lat="40.276993" lon="-3.7660067">
        <ele>629.1</ele>
        <time>2021-03-24T18:18:26Z</time>
      </trkpt>
      <trkpt lat="40.277023" lon="-3.766075">
        <ele>629.1</ele>
        <time>2021-03-24T18:18:28Z</time>
      </trkpt>
      <trkpt lat="40.277058" lon="-3.7661486">
        <ele>629.1</ele>
        <time>2021-03-24T18:18:30Z</time>
      </trkpt>
      <trkpt lat="40.277084" lon="-3.766206">
        <ele>630.37</ele>
        <time>2021-03-24T18:18:32Z</time>
      </trkpt>
      <trkpt lat="40.277138" lon="-3.766223">
        <ele>630.37</ele>
        <time>2021-03-24T18:18:35Z</time>
      </trkpt>
      <trkpt lat="40.277195" lon="-3.7661974">
        <ele>630.37</ele>
        <time>2021-03-24T18:18:37Z</time>
      </trkpt>
      <trkpt lat="40.27726" lon="-3.766156">
        <ele>630.37</ele>
        <time>2021-03-24T18:18:39Z</time>
      </trkpt>
      <trkpt lat="40.27732" lon="-3.7661092">
        <ele>630.37</ele>
        <time>2021-03-24T18:18:41Z</time>
      </trkpt>
      <trkpt lat="40.277378" lon="-3.7660635">
        <ele>630.37</ele>
        <time>2021-03-24T18:18:43Z</time>
      </trkpt>
      <trkpt lat="40.2774" lon="-3.766017">
        <ele>630.37</ele>
        <time>2021-03-24T18:18:45Z</time>
      </trkpt>
      <trkpt lat="40.27738" lon="-3.7659242">
        <ele>630.37</ele>
        <time>2021-03-24T18:18:48Z</time>
      </trkpt>
      <trkpt lat="40.27735" lon="-3.7658396">
        <ele>630.37</ele>
        <time>2021-03-24T18:18:50Z</time>
      </trkpt>
      <trkpt lat="40.27731" lon="-3.7657516">
        <ele>630.37</ele>
        <time>2021-03-24T18:18:52Z</time>
      </trkpt>
      <trkpt lat="40.277287" lon="-3.7656753">
        <ele>630.37</ele>
        <time>2021-03-24T18:18:54Z</time>
      </trkpt>
      <trkpt lat="40.277275" lon="-3.7656326">
        <ele>629.19</ele>
        <time>2021-03-24T18:18:56Z</time>
      </trkpt>
      <trkpt lat="40.27733" lon="-3.7657084">
        <ele>629.19</ele>
        <time>2021-03-24T18:19:01Z</time>
      </trkpt>
      <trkpt lat="40.277378" lon="-3.765802">
        <ele>627.83</ele>
        <time>2021-03-24T18:19:03Z</time>
      </trkpt>
      <trkpt lat="40.27743" lon="-3.7659082">
        <ele>627.83</ele>
        <time>2021-03-24T18:19:05Z</time>
      </trkpt>
      <trkpt lat="40.277454" lon="-3.7659607">
        <ele>627.83</ele>
        <time>2021-03-24T18:19:06Z</time>
      </trkpt>
      <trkpt lat="40.277485" lon="-3.7660673">
        <ele>626.64</ele>
        <time>2021-03-24T18:19:08Z</time>
      </trkpt>
      <trkpt lat="40.277493" lon="-3.766178">
        <ele>626.64</ele>
        <time>2021-03-24T18:19:10Z</time>
      </trkpt>
      <trkpt lat="40.2775" lon="-3.7662907">
        <ele>626.64</ele>
        <time>2021-03-24T18:19:12Z</time>
      </trkpt>
      <trkpt lat="40.27752" lon="-3.7663932">
        <ele>626.64</ele>
        <time>2021-03-24T18:19:14Z</time>
      </trkpt>
      <trkpt lat="40.27756" lon="-3.766491">
        <ele>626.64</ele>
        <time>2021-03-24T18:19:16Z</time>
      </trkpt>
      <trkpt lat="40.277607" lon="-3.7665884">
        <ele>626.64</ele>
        <time>2021-03-24T18:19:18Z</time>
      </trkpt>
      <trkpt lat="40.27766" lon="-3.7666883">
        <ele>626.64</ele>
        <time>2021-03-24T18:19:20Z</time>
      </trkpt>
      <trkpt lat="40.277714" lon="-3.766783">
        <ele>626.64</ele>
        <time>2021-03-24T18:19:22Z</time>
      </trkpt>
      <trkpt lat="40.27777" lon="-3.7668777">
        <ele>626.64</ele>
        <time>2021-03-24T18:19:24Z</time>
      </trkpt>
      <trkpt lat="40.277832" lon="-3.7669754">
        <ele>626.64</ele>
        <time>2021-03-24T18:19:26Z</time>
      </trkpt>
      <trkpt lat="40.277893" lon="-3.7670772">
        <ele>626.64</ele>
        <time>2021-03-24T18:19:28Z</time>
      </trkpt>
      <trkpt lat="40.27795" lon="-3.7671726">
        <ele>626.64</ele>
        <time>2021-03-24T18:19:30Z</time>
      </trkpt>
      <trkpt lat="40.278004" lon="-3.7672627">
        <ele>626.64</ele>
        <time>2021-03-24T18:19:32Z</time>
      </trkpt>
      <trkpt lat="40.278057" lon="-3.7673516">
        <ele>626.64</ele>
        <time>2021-03-24T18:19:34Z</time>
      </trkpt>
      <trkpt lat="40.27811" lon="-3.7674396">
        <ele>626.64</ele>
        <time>2021-03-24T18:19:36Z</time>
      </trkpt>
      <trkpt lat="40.278164" lon="-3.7675242">
        <ele>626.64</ele>
        <time>2021-03-24T18:19:38Z</time>
      </trkpt>
      <trkpt lat="40.278217" lon="-3.7676098">
        <ele>626.64</ele>
        <time>2021-03-24T18:19:40Z</time>
      </trkpt>
      <trkpt lat="40.27827" lon="-3.7676954">
        <ele>627.83</ele>
        <time>2021-03-24T18:19:42Z</time>
      </trkpt>
      <trkpt lat="40.278324" lon="-3.7677796">
        <ele>627.83</ele>
        <time>2021-03-24T18:19:44Z</time>
      </trkpt>
      <trkpt lat="40.27838" lon="-3.7678576">
        <ele>627.83</ele>
        <time>2021-03-24T18:19:46Z</time>
      </trkpt>
      <trkpt lat="40.278435" lon="-3.767939">
        <ele>627.83</ele>
        <time>2021-03-24T18:19:48Z</time>
      </trkpt>
      <trkpt lat="40.278492" lon="-3.7680204">
        <ele>627.83</ele>
        <time>2021-03-24T18:19:50Z</time>
      </trkpt>
      <trkpt lat="40.27854" lon="-3.7681003">
        <ele>629.1</ele>
        <time>2021-03-24T18:19:52Z</time>
      </trkpt>
      <trkpt lat="40.278595" lon="-3.768181">
        <ele>629.1</ele>
        <time>2021-03-24T18:19:54Z</time>
      </trkpt>
      <trkpt lat="40.278652" lon="-3.7682617">
        <ele>629.1</ele>
        <time>2021-03-24T18:19:56Z</time>
      </trkpt>
      <trkpt lat="40.278706" lon="-3.7683449">
        <ele>629.1</ele>
        <time>2021-03-24T18:19:58Z</time>
      </trkpt>
      <trkpt lat="40.27876" lon="-3.7684286">
        <ele>629.1</ele>
        <time>2021-03-24T18:20:00Z</time>
      </trkpt>
      <trkpt lat="40.278816" lon="-3.7685084">
        <ele>629.1</ele>
        <time>2021-03-24T18:20:02Z</time>
      </trkpt>
      <trkpt lat="40.278873" lon="-3.7685814">
        <ele>630.28</ele>
        <time>2021-03-24T18:20:04Z</time>
      </trkpt>
      <trkpt lat="40.278927" lon="-3.7686498">
        <ele>630.28</ele>
        <time>2021-03-24T18:20:06Z</time>
      </trkpt>
      <trkpt lat="40.278984" lon="-3.7687232">
        <ele>630.28</ele>
        <time>2021-03-24T18:20:08Z</time>
      </trkpt>
      <trkpt lat="40.279045" lon="-3.7688017">
        <ele>630.28</ele>
        <time>2021-03-24T18:20:10Z</time>
      </trkpt>
      <trkpt lat="40.2791" lon="-3.7688804">
        <ele>630.28</ele>
        <time>2021-03-24T18:20:12Z</time>
      </trkpt>
      <trkpt lat="40.279152" lon="-3.7689607">
        <ele>630.28</ele>
        <time>2021-03-24T18:20:14Z</time>
      </trkpt>
      <trkpt lat="40.2792" lon="-3.769037">
        <ele>630.28</ele>
        <time>2021-03-24T18:20:16Z</time>
      </trkpt>
      <trkpt lat="40.279247" lon="-3.7691088">
        <ele>630.28</ele>
        <time>2021-03-24T18:20:18Z</time>
      </trkpt>
      <trkpt lat="40.2793" lon="-3.7691796">
        <ele>630.28</ele>
        <time>2021-03-24T18:20:20Z</time>
      </trkpt>
      <trkpt lat="40.27936" lon="-3.7692313">
        <ele>630.28</ele>
        <time>2021-03-24T18:20:22Z</time>
      </trkpt>
      <trkpt lat="40.27943" lon="-3.7692397">
        <ele>633.2</ele>
        <time>2021-03-24T18:20:24Z</time>
      </trkpt>
      <trkpt lat="40.27952" lon="-3.7691932">
        <ele>631.84</ele>
        <time>2021-03-24T18:20:27Z</time>
      </trkpt>
      <trkpt lat="40.279575" lon="-3.7691739">
        <ele>631.84</ele>
        <time>2021-03-24T18:20:29Z</time>
      </trkpt>
      <trkpt lat="40.279625" lon="-3.7692225">
        <ele>631.84</ele>
        <time>2021-03-24T18:20:32Z</time>
      </trkpt>
      <trkpt lat="40.279636" lon="-3.769292">
        <ele>631.84</ele>
        <time>2021-03-24T18:20:34Z</time>
      </trkpt>
      <trkpt lat="40.279675" lon="-3.7694185">
        <ele>631.84</ele>
        <time>2021-03-24T18:20:37Z</time>
      </trkpt>
      <trkpt lat="40.279716" lon="-3.769507">
        <ele>631.84</ele>
        <time>2021-03-24T18:20:39Z</time>
      </trkpt>
      <trkpt lat="40.27976" lon="-3.7696009">
        <ele>631.84</ele>
        <time>2021-03-24T18:20:41Z</time>
      </trkpt>
      <trkpt lat="40.279785" lon="-3.7697053">
        <ele>631.84</ele>
        <time>2021-03-24T18:20:43Z</time>
      </trkpt>
      <trkpt lat="40.2798" lon="-3.7698154">
        <ele>631.84</ele>
        <time>2021-03-24T18:20:45Z</time>
      </trkpt>
      <trkpt lat="40.27983" lon="-3.7699196">
        <ele>631.84</ele>
        <time>2021-03-24T18:20:47Z</time>
      </trkpt>
      <trkpt lat="40.279884" lon="-3.770008">
        <ele>631.84</ele>
        <time>2021-03-24T18:20:49Z</time>
      </trkpt>
      <trkpt lat="40.279957" lon="-3.770072">
        <ele>631.84</ele>
        <time>2021-03-24T18:20:51Z</time>
      </trkpt>
      <trkpt lat="40.280045" lon="-3.7701104">
        <ele>631.84</ele>
        <time>2021-03-24T18:20:53Z</time>
      </trkpt>
      <trkpt lat="40.280144" lon="-3.7701328">
        <ele>631.84</ele>
        <time>2021-03-24T18:20:55Z</time>
      </trkpt>
      <trkpt lat="40.280193" lon="-3.770141">
        <ele>631.84</ele>
        <time>2021-03-24T18:20:56Z</time>
      </trkpt>
      <trkpt lat="40.2803" lon="-3.7701523">
        <ele>631.84</ele>
        <time>2021-03-24T18:20:58Z</time>
      </trkpt>
      <trkpt lat="40.28041" lon="-3.7701583">
        <ele>631.84</ele>
        <time>2021-03-24T18:21:00Z</time>
      </trkpt>
      <trkpt lat="40.280468" lon="-3.77016">
        <ele>631.84</ele>
        <time>2021-03-24T18:21:01Z</time>
      </trkpt>
      <trkpt lat="40.28052" lon="-3.770161">
        <ele>631.84</ele>
        <time>2021-03-24T18:21:02Z</time>
      </trkpt>
      <trkpt lat="40.28058" lon="-3.7701616">
        <ele>631.84</ele>
        <time>2021-03-24T18:21:03Z</time>
      </trkpt>
      <trkpt lat="40.280632" lon="-3.7701626">
        <ele>631.84</ele>
        <time>2021-03-24T18:21:04Z</time>
      </trkpt>
      <trkpt lat="40.28069" lon="-3.7701633">
        <ele>631.84</ele>
        <time>2021-03-24T18:21:05Z</time>
      </trkpt>
      <trkpt lat="40.280746" lon="-3.7701623">
        <ele>631.84</ele>
        <time>2021-03-24T18:21:06Z</time>
      </trkpt>
      <trkpt lat="40.2808" lon="-3.7701607">
        <ele>631.84</ele>
        <time>2021-03-24T18:21:07Z</time>
      </trkpt>
      <trkpt lat="40.280857" lon="-3.7701604">
        <ele>631.84</ele>
        <time>2021-03-24T18:21:08Z</time>
      </trkpt>
      <trkpt lat="40.280914" lon="-3.7701597">
        <ele>631.84</ele>
        <time>2021-03-24T18:21:09Z</time>
      </trkpt>
      <trkpt lat="40.280968" lon="-3.770158">
        <ele>631.84</ele>
        <time>2021-03-24T18:21:10Z</time>
      </trkpt>
      <trkpt lat="40.281025" lon="-3.7701542">
        <ele>631.84</ele>
        <time>2021-03-24T18:21:11Z</time>
      </trkpt>
      <trkpt lat="40.281082" lon="-3.7701483">
        <ele>631.84</ele>
        <time>2021-03-24T18:21:12Z</time>
      </trkpt>
      <trkpt lat="40.281143" lon="-3.7701418">
        <ele>631.84</ele>
        <time>2021-03-24T18:21:13Z</time>
      </trkpt>
      <trkpt lat="40.2812" lon="-3.7701356">
        <ele>631.84</ele>
        <time>2021-03-24T18:21:14Z</time>
      </trkpt>
      <trkpt lat="40.28126" lon="-3.7701316">
        <ele>631.84</ele>
        <time>2021-03-24T18:21:15Z</time>
      </trkpt>
      <trkpt lat="40.281322" lon="-3.7701287">
        <ele>631.84</ele>
        <time>2021-03-24T18:21:16Z</time>
      </trkpt>
      <trkpt lat="40.28138" lon="-3.7701263">
        <ele>631.84</ele>
        <time>2021-03-24T18:21:17Z</time>
      </trkpt>
      <trkpt lat="40.281437" lon="-3.770124">
        <ele>631.84</ele>
        <time>2021-03-24T18:21:18Z</time>
      </trkpt>
      <trkpt lat="40.281498" lon="-3.7701206">
        <ele>631.84</ele>
        <time>2021-03-24T18:21:19Z</time>
      </trkpt>
      <trkpt lat="40.281555" lon="-3.7701194">
        <ele>631.84</ele>
        <time>2021-03-24T18:21:20Z</time>
      </trkpt>
      <trkpt lat="40.281616" lon="-3.7701197">
        <ele>631.84</ele>
        <time>2021-03-24T18:21:21Z</time>
      </trkpt>
      <trkpt lat="40.281673" lon="-3.7701223">
        <ele>631.84</ele>
        <time>2021-03-24T18:21:22Z</time>
      </trkpt>
      <trkpt lat="40.28174" lon="-3.7701287">
        <ele>631.84</ele>
        <time>2021-03-24T18:21:23Z</time>
      </trkpt>
      <trkpt lat="40.281796" lon="-3.7701373">
        <ele>631.84</ele>
        <time>2021-03-24T18:21:24Z</time>
      </trkpt>
      <trkpt lat="40.281853" lon="-3.7701483">
        <ele>631.84</ele>
        <time>2021-03-24T18:21:25Z</time>
      </trkpt>
      <trkpt lat="40.281906" lon="-3.7701583">
        <ele>631.84</ele>
        <time>2021-03-24T18:21:26Z</time>
      </trkpt>
      <trkpt lat="40.28196" lon="-3.7701654">
        <ele>631.84</ele>
        <time>2021-03-24T18:21:27Z</time>
      </trkpt>
      <trkpt lat="40.282013" lon="-3.7701623">
        <ele>631.84</ele>
        <time>2021-03-24T18:21:28Z</time>
      </trkpt>
      <trkpt lat="40.282066" lon="-3.7701502">
        <ele>631.84</ele>
        <time>2021-03-24T18:21:29Z</time>
      </trkpt>
      <trkpt lat="40.28212" lon="-3.770131">
        <ele>631.84</ele>
        <time>2021-03-24T18:21:30Z</time>
      </trkpt>
      <trkpt lat="40.28217" lon="-3.7701063">
        <ele>631.84</ele>
        <time>2021-03-24T18:21:31Z</time>
      </trkpt>
      <trkpt lat="40.282215" lon="-3.7700853">
        <ele>631.84</ele>
        <time>2021-03-24T18:21:32Z</time>
      </trkpt>
      <trkpt lat="40.28226" lon="-3.770068">
        <ele>631.84</ele>
        <time>2021-03-24T18:21:33Z</time>
      </trkpt>
      <trkpt lat="40.282337" lon="-3.7700477">
        <ele>631.84</ele>
        <time>2021-03-24T18:21:35Z</time>
      </trkpt>
      <trkpt lat="40.282406" lon="-3.770017">
        <ele>631.84</ele>
        <time>2021-03-24T18:21:37Z</time>
      </trkpt>
      <trkpt lat="40.282467" lon="-3.769945">
        <ele>631.84</ele>
        <time>2021-03-24T18:21:39Z</time>
      </trkpt>
      <trkpt lat="40.28252" lon="-3.7698402">
        <ele>631.84</ele>
        <time>2021-03-24T18:21:41Z</time>
      </trkpt>
      <trkpt lat="40.28255" lon="-3.7697794">
        <ele>631.84</ele>
        <time>2021-03-24T18:21:42Z</time>
      </trkpt>
      <trkpt lat="40.282578" lon="-3.7697155">
        <ele>631.84</ele>
        <time>2021-03-24T18:21:43Z</time>
      </trkpt>
      <trkpt lat="40.282608" lon="-3.7696495">
        <ele>631.84</ele>
        <time>2021-03-24T18:21:44Z</time>
      </trkpt>
      <trkpt lat="40.28264" lon="-3.7695782">
        <ele>631.84</ele>
        <time>2021-03-24T18:21:45Z</time>
      </trkpt>
      <trkpt lat="40.28267" lon="-3.7695074">
        <ele>631.84</ele>
        <time>2021-03-24T18:21:46Z</time>
      </trkpt>
      <trkpt lat="40.2827" lon="-3.7694423">
        <ele>631.84</ele>
        <time>2021-03-24T18:21:47Z</time>
      </trkpt>
      <trkpt lat="40.282726" lon="-3.769376">
        <ele>631.84</ele>
        <time>2021-03-24T18:21:48Z</time>
      </trkpt>
      <trkpt lat="40.282757" lon="-3.7693086">
        <ele>631.84</ele>
        <time>2021-03-24T18:21:49Z</time>
      </trkpt>
      <trkpt lat="40.282787" lon="-3.7692404">
        <ele>631.84</ele>
        <time>2021-03-24T18:21:50Z</time>
      </trkpt>
      <trkpt lat="40.282818" lon="-3.7691677">
        <ele>631.84</ele>
        <time>2021-03-24T18:21:51Z</time>
      </trkpt>
      <trkpt lat="40.282845" lon="-3.769101">
        <ele>631.84</ele>
        <time>2021-03-24T18:21:52Z</time>
      </trkpt>
      <trkpt lat="40.282875" lon="-3.7690327">
        <ele>631.84</ele>
        <time>2021-03-24T18:21:53Z</time>
      </trkpt>
      <trkpt lat="40.282906" lon="-3.768964">
        <ele>631.84</ele>
        <time>2021-03-24T18:21:54Z</time>
      </trkpt>
      <trkpt lat="40.282936" lon="-3.7688937">
        <ele>631.84</ele>
        <time>2021-03-24T18:21:55Z</time>
      </trkpt>
      <trkpt lat="40.28297" lon="-3.7688222">
        <ele>631.84</ele>
        <time>2021-03-24T18:21:56Z</time>
      </trkpt>
      <trkpt lat="40.283" lon="-3.7687492">
        <ele>631.84</ele>
        <time>2021-03-24T18:21:57Z</time>
      </trkpt>
      <trkpt lat="40.28303" lon="-3.7686756">
        <ele>631.84</ele>
        <time>2021-03-24T18:21:58Z</time>
      </trkpt>
      <trkpt lat="40.283066" lon="-3.768602">
        <ele>631.84</ele>
        <time>2021-03-24T18:21:59Z</time>
      </trkpt>
      <trkpt lat="40.2831" lon="-3.7685232">
        <ele>631.84</ele>
        <time>2021-03-24T18:22:00Z</time>
      </trkpt>
      <trkpt lat="40.28313" lon="-3.768451">
        <ele>631.84</ele>
        <time>2021-03-24T18:22:01Z</time>
      </trkpt>
      <trkpt lat="40.283165" lon="-3.7683747">
        <ele>631.84</ele>
        <time>2021-03-24T18:22:02Z</time>
      </trkpt>
      <trkpt lat="40.283195" lon="-3.7683043">
        <ele>631.84</ele>
        <time>2021-03-24T18:22:03Z</time>
      </trkpt>
      <trkpt lat="40.283226" lon="-3.7682333">
        <ele>631.84</ele>
        <time>2021-03-24T18:22:04Z</time>
      </trkpt>
      <trkpt lat="40.28326" lon="-3.7681584">
        <ele>631.84</ele>
        <time>2021-03-24T18:22:05Z</time>
      </trkpt>
      <trkpt lat="40.28329" lon="-3.7680893">
        <ele>631.84</ele>
        <time>2021-03-24T18:22:06Z</time>
      </trkpt>
      <trkpt lat="40.28332" lon="-3.7680173">
        <ele>631.84</ele>
        <time>2021-03-24T18:22:07Z</time>
      </trkpt>
      <trkpt lat="40.283348" lon="-3.767952">
        <ele>631.84</ele>
        <time>2021-03-24T18:22:08Z</time>
      </trkpt>
      <trkpt lat="40.283375" lon="-3.767887">
        <ele>631.84</ele>
        <time>2021-03-24T18:22:09Z</time>
      </trkpt>
      <trkpt lat="40.283398" lon="-3.7678216">
        <ele>631.84</ele>
        <time>2021-03-24T18:22:10Z</time>
      </trkpt>
      <trkpt lat="40.28341" lon="-3.7677548">
        <ele>631.84</ele>
        <time>2021-03-24T18:22:11Z</time>
      </trkpt>
      <trkpt lat="40.283413" lon="-3.7676857">
        <ele>631.84</ele>
        <time>2021-03-24T18:22:12Z</time>
      </trkpt>
      <trkpt lat="40.283417" lon="-3.7675416">
        <ele>631.84</ele>
        <time>2021-03-24T18:22:14Z</time>
      </trkpt>
      <trkpt lat="40.283424" lon="-3.7674687">
        <ele>631.84</ele>
        <time>2021-03-24T18:22:15Z</time>
      </trkpt>
      <trkpt lat="40.283443" lon="-3.7673936">
        <ele>631.84</ele>
        <time>2021-03-24T18:22:16Z</time>
      </trkpt>
      <trkpt lat="40.283466" lon="-3.76733">
        <ele>631.84</ele>
        <time>2021-03-24T18:22:17Z</time>
      </trkpt>
      <trkpt lat="40.2835" lon="-3.767276">
        <ele>633.02</ele>
        <time>2021-03-24T18:22:18Z</time>
      </trkpt>
      <trkpt lat="40.283546" lon="-3.76723">
        <ele>633.02</ele>
        <time>2021-03-24T18:22:19Z</time>
      </trkpt>
      <trkpt lat="40.283592" lon="-3.767188">
        <ele>633.02</ele>
        <time>2021-03-24T18:22:20Z</time>
      </trkpt>
      <trkpt lat="40.283638" lon="-3.7671385">
        <ele>633.02</ele>
        <time>2021-03-24T18:22:21Z</time>
      </trkpt>
      <trkpt lat="40.283676" lon="-3.7670877">
        <ele>633.02</ele>
        <time>2021-03-24T18:22:22Z</time>
      </trkpt>
      <trkpt lat="40.28371" lon="-3.76703">
        <ele>631.31</ele>
        <time>2021-03-24T18:22:23Z</time>
      </trkpt>
      <trkpt lat="40.283745" lon="-3.766964">
        <ele>631.31</ele>
        <time>2021-03-24T18:22:24Z</time>
      </trkpt>
      <trkpt lat="40.283775" lon="-3.766899">
        <ele>631.31</ele>
        <time>2021-03-24T18:22:25Z</time>
      </trkpt>
      <trkpt lat="40.283802" lon="-3.766832">
        <ele>631.31</ele>
        <time>2021-03-24T18:22:26Z</time>
      </trkpt>
      <trkpt lat="40.28383" lon="-3.766765">
        <ele>631.31</ele>
        <time>2021-03-24T18:22:27Z</time>
      </trkpt>
      <trkpt lat="40.28385" lon="-3.7666993">
        <ele>632.49</ele>
        <time>2021-03-24T18:22:28Z</time>
      </trkpt>
      <trkpt lat="40.283875" lon="-3.7666287">
        <ele>632.49</ele>
        <time>2021-03-24T18:22:29Z</time>
      </trkpt>
      <trkpt lat="40.283897" lon="-3.766565">
        <ele>632.49</ele>
        <time>2021-03-24T18:22:30Z</time>
      </trkpt>
      <trkpt lat="40.28392" lon="-3.7665026">
        <ele>632.49</ele>
        <time>2021-03-24T18:22:31Z</time>
      </trkpt>
      <trkpt lat="40.283943" lon="-3.7664406">
        <ele>632.49</ele>
        <time>2021-03-24T18:22:32Z</time>
      </trkpt>
      <trkpt lat="40.283962" lon="-3.766379">
        <ele>633.67</ele>
        <time>2021-03-24T18:22:33Z</time>
      </trkpt>
      <trkpt lat="40.28398" lon="-3.7663183">
        <ele>633.67</ele>
        <time>2021-03-24T18:22:34Z</time>
      </trkpt>
      <trkpt lat="40.28402" lon="-3.7662015">
        <ele>633.67</ele>
        <time>2021-03-24T18:22:36Z</time>
      </trkpt>
      <trkpt lat="40.284058" lon="-3.766089">
        <ele>635.03</ele>
        <time>2021-03-24T18:22:38Z</time>
      </trkpt>
      <trkpt lat="40.284092" lon="-3.7659786">
        <ele>635.03</ele>
        <time>2021-03-24T18:22:40Z</time>
      </trkpt>
      <trkpt lat="40.28411" lon="-3.7659273">
        <ele>635.03</ele>
        <time>2021-03-24T18:22:41Z</time>
      </trkpt>
      <trkpt lat="40.284145" lon="-3.7658253">
        <ele>636.21</ele>
        <time>2021-03-24T18:22:43Z</time>
      </trkpt>
      <trkpt lat="40.284176" lon="-3.7657259">
        <ele>636.21</ele>
        <time>2021-03-24T18:22:45Z</time>
      </trkpt>
      <trkpt lat="40.28421" lon="-3.7656245">
        <ele>637.4</ele>
        <time>2021-03-24T18:22:47Z</time>
      </trkpt>
      <trkpt lat="40.28424" lon="-3.7655234">
        <ele>637.4</ele>
        <time>2021-03-24T18:22:49Z</time>
      </trkpt>
      <trkpt lat="40.284275" lon="-3.7654243">
        <ele>638.76</ele>
        <time>2021-03-24T18:22:51Z</time>
      </trkpt>
      <trkpt lat="40.28431" lon="-3.765326">
        <ele>638.76</ele>
        <time>2021-03-24T18:22:53Z</time>
      </trkpt>
      <trkpt lat="40.28434" lon="-3.7652273">
        <ele>638.76</ele>
        <time>2021-03-24T18:22:55Z</time>
      </trkpt>
      <trkpt lat="40.284374" lon="-3.7651286">
        <ele>640.03</ele>
        <time>2021-03-24T18:22:57Z</time>
      </trkpt>
      <trkpt lat="40.28441" lon="-3.7650297">
        <ele>640.03</ele>
        <time>2021-03-24T18:22:59Z</time>
      </trkpt>
      <trkpt lat="40.28444" lon="-3.7649324">
        <ele>640.03</ele>
        <time>2021-03-24T18:23:01Z</time>
      </trkpt>
      <trkpt lat="40.28447" lon="-3.764839">
        <ele>641.4</ele>
        <time>2021-03-24T18:23:03Z</time>
      </trkpt>
      <trkpt lat="40.2845" lon="-3.764748">
        <ele>641.4</ele>
        <time>2021-03-24T18:23:05Z</time>
      </trkpt>
      <trkpt lat="40.28453" lon="-3.764658">
        <ele>642.58</ele>
        <time>2021-03-24T18:23:07Z</time>
      </trkpt>
      <trkpt lat="40.28456" lon="-3.7645683">
        <ele>642.58</ele>
        <time>2021-03-24T18:23:09Z</time>
      </trkpt>
      <trkpt lat="40.28459" lon="-3.76448">
        <ele>642.58</ele>
        <time>2021-03-24T18:23:11Z</time>
      </trkpt>
      <trkpt lat="40.284626" lon="-3.7643938">
        <ele>643.94</ele>
        <time>2021-03-24T18:23:13Z</time>
      </trkpt>
      <trkpt lat="40.284664" lon="-3.7643096">
        <ele>643.94</ele>
        <time>2021-03-24T18:23:15Z</time>
      </trkpt>
      <trkpt lat="40.284706" lon="-3.764229">
        <ele>643.94</ele>
        <time>2021-03-24T18:23:17Z</time>
      </trkpt>
      <trkpt lat="40.28475" lon="-3.764153">
        <ele>645.21</ele>
        <time>2021-03-24T18:23:19Z</time>
      </trkpt>
      <trkpt lat="40.2848" lon="-3.7640803">
        <ele>645.21</ele>
        <time>2021-03-24T18:23:21Z</time>
      </trkpt>
      <trkpt lat="40.28485" lon="-3.7640097">
        <ele>645.21</ele>
        <time>2021-03-24T18:23:23Z</time>
      </trkpt>
      <trkpt lat="40.2849" lon="-3.7639406">
        <ele>646.58</ele>
        <time>2021-03-24T18:23:25Z</time>
      </trkpt>
      <trkpt lat="40.284946" lon="-3.7638707">
        <ele>646.58</ele>
        <time>2021-03-24T18:23:27Z</time>
      </trkpt>
      <trkpt lat="40.285" lon="-3.7637997">
        <ele>646.58</ele>
        <time>2021-03-24T18:23:29Z</time>
      </trkpt>
      <trkpt lat="40.28505" lon="-3.7637293">
        <ele>647.76</ele>
        <time>2021-03-24T18:23:31Z</time>
      </trkpt>
      <trkpt lat="40.285103" lon="-3.76366">
        <ele>647.76</ele>
        <time>2021-03-24T18:23:33Z</time>
      </trkpt>
      <trkpt lat="40.285156" lon="-3.763589">
        <ele>647.76</ele>
        <time>2021-03-24T18:23:35Z</time>
      </trkpt>
      <trkpt lat="40.28521" lon="-3.763516">
        <ele>647.76</ele>
        <time>2021-03-24T18:23:37Z</time>
      </trkpt>
      <trkpt lat="40.285263" lon="-3.763438">
        <ele>649.03</ele>
        <time>2021-03-24T18:23:39Z</time>
      </trkpt>
      <trkpt lat="40.28532" lon="-3.7633574">
        <ele>649.03</ele>
        <time>2021-03-24T18:23:41Z</time>
      </trkpt>
      <trkpt lat="40.28538" lon="-3.7632713">
        <ele>649.03</ele>
        <time>2021-03-24T18:23:43Z</time>
      </trkpt>
      <trkpt lat="40.285446" lon="-3.763185">
        <ele>649.03</ele>
        <time>2021-03-24T18:23:45Z</time>
      </trkpt>
      <trkpt lat="40.285515" lon="-3.7630887">
        <ele>649.03</ele>
        <time>2021-03-24T18:23:47Z</time>
      </trkpt>
      <trkpt lat="40.28555" lon="-3.7630386">
        <ele>649.03</ele>
        <time>2021-03-24T18:23:48Z</time>
      </trkpt>
      <trkpt lat="40.285587" lon="-3.762987">
        <ele>649.03</ele>
        <time>2021-03-24T18:23:49Z</time>
      </trkpt>
      <trkpt lat="40.285625" lon="-3.7629344">
        <ele>649.03</ele>
        <time>2021-03-24T18:23:50Z</time>
      </trkpt>
      <trkpt lat="40.285664" lon="-3.7628803">
        <ele>649.03</ele>
        <time>2021-03-24T18:23:51Z</time>
      </trkpt>
      <trkpt lat="40.2857" lon="-3.762825">
        <ele>649.03</ele>
        <time>2021-03-24T18:23:52Z</time>
      </trkpt>
      <trkpt lat="40.285744" lon="-3.7627692">
        <ele>649.03</ele>
        <time>2021-03-24T18:23:53Z</time>
      </trkpt>
      <trkpt lat="40.28578" lon="-3.7627118">
        <ele>649.03</ele>
        <time>2021-03-24T18:23:54Z</time>
      </trkpt>
      <trkpt lat="40.285824" lon="-3.7626524">
        <ele>649.03</ele>
        <time>2021-03-24T18:23:55Z</time>
      </trkpt>
      <trkpt lat="40.285862" lon="-3.7625911">
        <ele>649.03</ele>
        <time>2021-03-24T18:23:56Z</time>
      </trkpt>
      <trkpt lat="40.285904" lon="-3.7625284">
        <ele>649.03</ele>
        <time>2021-03-24T18:23:57Z</time>
      </trkpt>
      <trkpt lat="40.285946" lon="-3.7624643">
        <ele>649.03</ele>
        <time>2021-03-24T18:23:58Z</time>
      </trkpt>
      <trkpt lat="40.28603" lon="-3.7623353">
        <ele>649.03</ele>
        <time>2021-03-24T18:24:00Z</time>
      </trkpt>
      <trkpt lat="40.28607" lon="-3.7622657">
        <ele>649.03</ele>
        <time>2021-03-24T18:24:01Z</time>
      </trkpt>
      <trkpt lat="40.286118" lon="-3.762194">
        <ele>649.03</ele>
        <time>2021-03-24T18:24:02Z</time>
      </trkpt>
      <trkpt lat="40.28616" lon="-3.7621217">
        <ele>649.03</ele>
        <time>2021-03-24T18:24:03Z</time>
      </trkpt>
      <trkpt lat="40.2862" lon="-3.7620482">
        <ele>649.03</ele>
        <time>2021-03-24T18:24:04Z</time>
      </trkpt>
      <trkpt lat="40.286247" lon="-3.7619748">
        <ele>649.03</ele>
        <time>2021-03-24T18:24:05Z</time>
      </trkpt>
      <trkpt lat="40.286335" lon="-3.7618248">
        <ele>649.03</ele>
        <time>2021-03-24T18:24:07Z</time>
      </trkpt>
      <trkpt lat="40.28638" lon="-3.7617507">
        <ele>649.03</ele>
        <time>2021-03-24T18:24:08Z</time>
      </trkpt>
      <trkpt lat="40.286423" lon="-3.7616765">
        <ele>649.03</ele>
        <time>2021-03-24T18:24:09Z</time>
      </trkpt>
      <trkpt lat="40.28647" lon="-3.7616026">
        <ele>649.03</ele>
        <time>2021-03-24T18:24:10Z</time>
      </trkpt>
      <trkpt lat="40.28651" lon="-3.7615278">
        <ele>649.03</ele>
        <time>2021-03-24T18:24:11Z</time>
      </trkpt>
      <trkpt lat="40.286556" lon="-3.761454">
        <ele>649.03</ele>
        <time>2021-03-24T18:24:12Z</time>
      </trkpt>
      <trkpt lat="40.2866" lon="-3.761381">
        <ele>649.03</ele>
        <time>2021-03-24T18:24:13Z</time>
      </trkpt>
      <trkpt lat="40.28664" lon="-3.761308">
        <ele>649.03</ele>
        <time>2021-03-24T18:24:14Z</time>
      </trkpt>
      <trkpt lat="40.286686" lon="-3.761236">
        <ele>649.03</ele>
        <time>2021-03-24T18:24:15Z</time>
      </trkpt>
      <trkpt lat="40.286728" lon="-3.761165">
        <ele>649.03</ele>
        <time>2021-03-24T18:24:16Z</time>
      </trkpt>
      <trkpt lat="40.286766" lon="-3.7610939">
        <ele>649.03</ele>
        <time>2021-03-24T18:24:17Z</time>
      </trkpt>
      <trkpt lat="40.286808" lon="-3.7610238">
        <ele>649.03</ele>
        <time>2021-03-24T18:24:18Z</time>
      </trkpt>
      <trkpt lat="40.28685" lon="-3.7609546">
        <ele>649.03</ele>
        <time>2021-03-24T18:24:19Z</time>
      </trkpt>
      <trkpt lat="40.286892" lon="-3.7608871">
        <ele>649.03</ele>
        <time>2021-03-24T18:24:20Z</time>
      </trkpt>
      <trkpt lat="40.28693" lon="-3.760821">
        <ele>649.03</ele>
        <time>2021-03-24T18:24:21Z</time>
      </trkpt>
      <trkpt lat="40.28697" lon="-3.7607584">
        <ele>649.03</ele>
        <time>2021-03-24T18:24:22Z</time>
      </trkpt>
      <trkpt lat="40.287003" lon="-3.7606993">
        <ele>641.22</ele>
        <time>2021-03-24T18:24:23Z</time>
      </trkpt>
      <trkpt lat="40.287037" lon="-3.7606444">
        <ele>641.22</ele>
        <time>2021-03-24T18:24:24Z</time>
      </trkpt>
      <trkpt lat="40.287067" lon="-3.760595">
        <ele>641.22</ele>
        <time>2021-03-24T18:24:25Z</time>
      </trkpt>
      <trkpt lat="40.287113" lon="-3.7605047">
        <ele>642.4</ele>
        <time>2021-03-24T18:24:27Z</time>
      </trkpt>
      <trkpt lat="40.28714" lon="-3.7604134">
        <ele>642.4</ele>
        <time>2021-03-24T18:24:29Z</time>
      </trkpt>
      <trkpt lat="40.28715" lon="-3.7603087">
        <ele>642.4</ele>
        <time>2021-03-24T18:24:31Z</time>
      </trkpt>
      <trkpt lat="40.28717" lon="-3.760192">
        <ele>642.4</ele>
        <time>2021-03-24T18:24:33Z</time>
      </trkpt>
      <trkpt lat="40.287212" lon="-3.7600877">
        <ele>642.4</ele>
        <time>2021-03-24T18:24:35Z</time>
      </trkpt>
      <trkpt lat="40.28728" lon="-3.7600048">
        <ele>643.58</ele>
        <time>2021-03-24T18:24:37Z</time>
      </trkpt>
      <trkpt lat="40.287323" lon="-3.7599707">
        <ele>643.58</ele>
        <time>2021-03-24T18:24:38Z</time>
      </trkpt>
      <trkpt lat="40.28741" lon="-3.7598956">
        <ele>643.58</ele>
        <time>2021-03-24T18:24:40Z</time>
      </trkpt>
      <trkpt lat="40.287453" lon="-3.759851">
        <ele>643.58</ele>
        <time>2021-03-24T18:24:41Z</time>
      </trkpt>
      <trkpt lat="40.28749" lon="-3.759799">
        <ele>643.58</ele>
        <time>2021-03-24T18:24:42Z</time>
      </trkpt>
      <trkpt lat="40.287525" lon="-3.759742">
        <ele>643.58</ele>
        <time>2021-03-24T18:24:43Z</time>
      </trkpt>
      <trkpt lat="40.28756" lon="-3.75968">
        <ele>643.58</ele>
        <time>2021-03-24T18:24:44Z</time>
      </trkpt>
      <trkpt lat="40.287594" lon="-3.7596092">
        <ele>643.58</ele>
        <time>2021-03-24T18:24:45Z</time>
      </trkpt>
      <trkpt lat="40.287624" lon="-3.7595417">
        <ele>643.58</ele>
        <time>2021-03-24T18:24:46Z</time>
      </trkpt>
      <trkpt lat="40.287655" lon="-3.7594714">
        <ele>643.58</ele>
        <time>2021-03-24T18:24:47Z</time>
      </trkpt>
      <trkpt lat="40.28768" lon="-3.759398">
        <ele>643.58</ele>
        <time>2021-03-24T18:24:48Z</time>
      </trkpt>
      <trkpt lat="40.287716" lon="-3.7593179">
        <ele>643.58</ele>
        <time>2021-03-24T18:24:49Z</time>
      </trkpt>
      <trkpt lat="40.287743" lon="-3.7592423">
        <ele>643.58</ele>
        <time>2021-03-24T18:24:50Z</time>
      </trkpt>
      <trkpt lat="40.287773" lon="-3.759165">
        <ele>643.58</ele>
        <time>2021-03-24T18:24:51Z</time>
      </trkpt>
      <trkpt lat="40.287804" lon="-3.7590864">
        <ele>643.58</ele>
        <time>2021-03-24T18:24:52Z</time>
      </trkpt>
      <trkpt lat="40.287834" lon="-3.7590055">
        <ele>643.58</ele>
        <time>2021-03-24T18:24:53Z</time>
      </trkpt>
      <trkpt lat="40.28787" lon="-3.7589173">
        <ele>643.58</ele>
        <time>2021-03-24T18:24:54Z</time>
      </trkpt>
      <trkpt lat="40.2879" lon="-3.7588353">
        <ele>643.58</ele>
        <time>2021-03-24T18:24:55Z</time>
      </trkpt>
      <trkpt lat="40.287933" lon="-3.7587512">
        <ele>643.58</ele>
        <time>2021-03-24T18:24:56Z</time>
      </trkpt>
      <trkpt lat="40.287968" lon="-3.7586648">
        <ele>642.4</ele>
        <time>2021-03-24T18:24:57Z</time>
      </trkpt>
      <trkpt lat="40.288002" lon="-3.7585769">
        <ele>642.4</ele>
        <time>2021-03-24T18:24:58Z</time>
      </trkpt>
      <trkpt lat="40.28804" lon="-3.7584884">
        <ele>642.4</ele>
        <time>2021-03-24T18:24:59Z</time>
      </trkpt>
      <trkpt lat="40.28808" lon="-3.7583973">
        <ele>642.4</ele>
        <time>2021-03-24T18:25:00Z</time>
      </trkpt>
      <trkpt lat="40.288116" lon="-3.758306">
        <ele>642.4</ele>
        <time>2021-03-24T18:25:01Z</time>
      </trkpt>
      <trkpt lat="40.28815" lon="-3.758216">
        <ele>641.22</ele>
        <time>2021-03-24T18:25:02Z</time>
      </trkpt>
      <trkpt lat="40.28819" lon="-3.7581294">
        <ele>641.22</ele>
        <time>2021-03-24T18:25:03Z</time>
      </trkpt>
      <trkpt lat="40.288223" lon="-3.7580454">
        <ele>641.22</ele>
        <time>2021-03-24T18:25:04Z</time>
      </trkpt>
      <trkpt lat="40.28825" lon="-3.7579644">
        <ele>641.22</ele>
        <time>2021-03-24T18:25:05Z</time>
      </trkpt>
      <trkpt lat="40.288273" lon="-3.7578852">
        <ele>639.76</ele>
        <time>2021-03-24T18:25:06Z</time>
      </trkpt>
      <trkpt lat="40.288292" lon="-3.7577996">
        <ele>639.76</ele>
        <time>2021-03-24T18:25:07Z</time>
      </trkpt>
      <trkpt lat="40.28831" lon="-3.757723">
        <ele>639.76</ele>
        <time>2021-03-24T18:25:08Z</time>
      </trkpt>
      <trkpt lat="40.28833" lon="-3.7576478">
        <ele>639.76</ele>
        <time>2021-03-24T18:25:09Z</time>
      </trkpt>
      <trkpt lat="40.288357" lon="-3.7575893">
        <ele>639.76</ele>
        <time>2021-03-24T18:25:10Z</time>
      </trkpt>
      <trkpt lat="40.28842" lon="-3.7575216">
        <ele>638.58</ele>
        <time>2021-03-24T18:25:12Z</time>
      </trkpt>
      <trkpt lat="40.28849" lon="-3.7575257">
        <ele>638.58</ele>
        <time>2021-03-24T18:25:14Z</time>
      </trkpt>
      <trkpt lat="40.288563" lon="-3.7575758">
        <ele>638.58</ele>
        <time>2021-03-24T18:25:16Z</time>
      </trkpt>
      <trkpt lat="40.28864" lon="-3.757644">
        <ele>638.58</ele>
        <time>2021-03-24T18:25:18Z</time>
      </trkpt>
      <trkpt lat="40.288727" lon="-3.757719">
        <ele>638.58</ele>
        <time>2021-03-24T18:25:20Z</time>
      </trkpt>
      <trkpt lat="40.288776" lon="-3.757759">
        <ele>638.58</ele>
        <time>2021-03-24T18:25:21Z</time>
      </trkpt>
      <trkpt lat="40.28883" lon="-3.7578003">
        <ele>638.58</ele>
        <time>2021-03-24T18:25:22Z</time>
      </trkpt>
      <trkpt lat="40.288887" lon="-3.7578416">
        <ele>638.58</ele>
        <time>2021-03-24T18:25:23Z</time>
      </trkpt>
      <trkpt lat="40.28894" lon="-3.7578847">
        <ele>638.58</ele>
        <time>2021-03-24T18:25:24Z</time>
      </trkpt>
      <trkpt lat="40.288994" lon="-3.7579286">
        <ele>638.58</ele>
        <time>2021-03-24T18:25:25Z</time>
      </trkpt>
      <trkpt lat="40.28905" lon="-3.7579737">
        <ele>638.58</ele>
        <time>2021-03-24T18:25:26Z</time>
      </trkpt>
      <trkpt lat="40.28911" lon="-3.7580204">
        <ele>639.76</ele>
        <time>2021-03-24T18:25:27Z</time>
      </trkpt>
      <trkpt lat="40.28916" lon="-3.7580667">
        <ele>639.76</ele>
        <time>2021-03-24T18:25:28Z</time>
      </trkpt>
      <trkpt lat="40.28922" lon="-3.758111">
        <ele>639.76</ele>
        <time>2021-03-24T18:25:29Z</time>
      </trkpt>
      <trkpt lat="40.289272" lon="-3.758156">
        <ele>639.76</ele>
        <time>2021-03-24T18:25:30Z</time>
      </trkpt>
      <trkpt lat="40.28933" lon="-3.7582004">
        <ele>639.76</ele>
        <time>2021-03-24T18:25:31Z</time>
      </trkpt>
      <trkpt lat="40.289383" lon="-3.758243">
        <ele>639.76</ele>
        <time>2021-03-24T18:25:32Z</time>
      </trkpt>
      <trkpt lat="40.28944" lon="-3.7582867">
        <ele>639.76</ele>
        <time>2021-03-24T18:25:33Z</time>
      </trkpt>
      <trkpt lat="40.289497" lon="-3.758329">
        <ele>639.76</ele>
        <time>2021-03-24T18:25:34Z</time>
      </trkpt>
      <trkpt lat="40.28955" lon="-3.758371">
        <ele>639.76</ele>
        <time>2021-03-24T18:25:35Z</time>
      </trkpt>
      <trkpt lat="40.289608" lon="-3.7584124">
        <ele>639.76</ele>
        <time>2021-03-24T18:25:36Z</time>
      </trkpt>
      <trkpt lat="40.289665" lon="-3.758453">
        <ele>639.76</ele>
        <time>2021-03-24T18:25:37Z</time>
      </trkpt>
      <trkpt lat="40.28972" lon="-3.7584927">
        <ele>639.76</ele>
        <time>2021-03-24T18:25:38Z</time>
      </trkpt>
      <trkpt lat="40.289772" lon="-3.758533">
        <ele>639.76</ele>
        <time>2021-03-24T18:25:39Z</time>
      </trkpt>
      <trkpt lat="40.28983" lon="-3.7585738">
        <ele>640.95</ele>
        <time>2021-03-24T18:25:40Z</time>
      </trkpt>
      <trkpt lat="40.289883" lon="-3.7586133">
        <ele>640.95</ele>
        <time>2021-03-24T18:25:41Z</time>
      </trkpt>
      <trkpt lat="40.289936" lon="-3.7586534">
        <ele>640.95</ele>
        <time>2021-03-24T18:25:42Z</time>
      </trkpt>
      <trkpt lat="40.28999" lon="-3.7586923">
        <ele>640.95</ele>
        <time>2021-03-24T18:25:43Z</time>
      </trkpt>
      <trkpt lat="40.290043" lon="-3.7587316">
        <ele>640.95</ele>
        <time>2021-03-24T18:25:44Z</time>
      </trkpt>
      <trkpt lat="40.2901" lon="-3.75877">
        <ele>640.95</ele>
        <time>2021-03-24T18:25:45Z</time>
      </trkpt>
      <trkpt lat="40.290154" lon="-3.7588084">
        <ele>640.95</ele>
        <time>2021-03-24T18:25:46Z</time>
      </trkpt>
      <trkpt lat="40.290203" lon="-3.7588453">
        <ele>640.95</ele>
        <time>2021-03-24T18:25:47Z</time>
      </trkpt>
      <trkpt lat="40.290257" lon="-3.7588816">
        <ele>640.95</ele>
        <time>2021-03-24T18:25:48Z</time>
      </trkpt>
      <trkpt lat="40.290302" lon="-3.7589145">
        <ele>640.95</ele>
        <time>2021-03-24T18:25:49Z</time>
      </trkpt>
      <trkpt lat="40.29035" lon="-3.7589407">
        <ele>640.95</ele>
        <time>2021-03-24T18:25:50Z</time>
      </trkpt>
      <trkpt lat="40.290398" lon="-3.7589598">
        <ele>640.95</ele>
        <time>2021-03-24T18:25:51Z</time>
      </trkpt>
      <trkpt lat="40.290447" lon="-3.7589757">
        <ele>640.95</ele>
        <time>2021-03-24T18:25:52Z</time>
      </trkpt>
      <trkpt lat="40.290604" lon="-3.7590246">
        <ele>640.95</ele>
        <time>2021-03-24T18:25:55Z</time>
      </trkpt>
      <trkpt lat="40.290657" lon="-3.7590337">
        <ele>640.95</ele>
        <time>2021-03-24T18:25:56Z</time>
      </trkpt>
      <trkpt lat="40.290707" lon="-3.759034">
        <ele>640.95</ele>
        <time>2021-03-24T18:25:57Z</time>
      </trkpt>
      <trkpt lat="40.290756" lon="-3.7590268">
        <ele>642.13</ele>
        <time>2021-03-24T18:25:58Z</time>
      </trkpt>
      <trkpt lat="40.290913" lon="-3.7589836">
        <ele>642.13</ele>
        <time>2021-03-24T18:26:01Z</time>
      </trkpt>
      <trkpt lat="40.290966" lon="-3.758965">
        <ele>642.13</ele>
        <time>2021-03-24T18:26:02Z</time>
      </trkpt>
      <trkpt lat="40.291016" lon="-3.7589467">
        <ele>642.13</ele>
        <time>2021-03-24T18:26:03Z</time>
      </trkpt>
      <trkpt lat="40.291065" lon="-3.7589257">
        <ele>642.13</ele>
        <time>2021-03-24T18:26:04Z</time>
      </trkpt>
      <trkpt lat="40.291115" lon="-3.758905">
        <ele>642.13</ele>
        <time>2021-03-24T18:26:05Z</time>
      </trkpt>
      <trkpt lat="40.291172" lon="-3.758884">
        <ele>642.13</ele>
        <time>2021-03-24T18:26:06Z</time>
      </trkpt>
      <trkpt lat="40.29122" lon="-3.7588654">
        <ele>643.31</ele>
        <time>2021-03-24T18:26:07Z</time>
      </trkpt>
      <trkpt lat="40.291267" lon="-3.758846">
        <ele>643.31</ele>
        <time>2021-03-24T18:26:08Z</time>
      </trkpt>
      <trkpt lat="40.29137" lon="-3.7588084">
        <ele>643.31</ele>
        <time>2021-03-24T18:26:10Z</time>
      </trkpt>
      <trkpt lat="40.291416" lon="-3.7587907">
        <ele>643.31</ele>
        <time>2021-03-24T18:26:11Z</time>
      </trkpt>
      <trkpt lat="40.291508" lon="-3.758756">
        <ele>643.31</ele>
        <time>2021-03-24T18:26:13Z</time>
      </trkpt>
      <trkpt lat="40.291603" lon="-3.7587204">
        <ele>644.49</ele>
        <time>2021-03-24T18:26:15Z</time>
      </trkpt>
      <trkpt lat="40.29165" lon="-3.758702">
        <ele>644.49</ele>
        <time>2021-03-24T18:26:16Z</time>
      </trkpt>
      <trkpt lat="40.29174" lon="-3.758664">
        <ele>644.49</ele>
        <time>2021-03-24T18:26:18Z</time>
      </trkpt>
      <trkpt lat="40.291836" lon="-3.7586284">
        <ele>644.49</ele>
        <time>2021-03-24T18:26:20Z</time>
      </trkpt>
      <trkpt lat="40.29188" lon="-3.7586114">
        <ele>644.49</ele>
        <time>2021-03-24T18:26:21Z</time>
      </trkpt>
      <trkpt lat="40.29197" lon="-3.7585793">
        <ele>652.49</ele>
        <time>2021-03-24T18:26:23Z</time>
      </trkpt>
      <trkpt lat="40.292057" lon="-3.7585511">
        <ele>652.49</ele>
        <time>2021-03-24T18:26:25Z</time>
      </trkpt>
      <trkpt lat="40.292145" lon="-3.758519">
        <ele>652.49</ele>
        <time>2021-03-24T18:26:27Z</time>
      </trkpt>
      <trkpt lat="40.292225" lon="-3.7584894">
        <ele>652.49</ele>
        <time>2021-03-24T18:26:29Z</time>
      </trkpt>
      <trkpt lat="40.2923" lon="-3.7584612">
        <ele>652.49</ele>
        <time>2021-03-24T18:26:31Z</time>
      </trkpt>
      <trkpt lat="40.292374" lon="-3.7584305">
        <ele>653.67</ele>
        <time>2021-03-24T18:26:33Z</time>
      </trkpt>
      <trkpt lat="40.292435" lon="-3.758394">
        <ele>653.67</ele>
        <time>2021-03-24T18:26:35Z</time>
      </trkpt>
      <trkpt lat="40.29248" lon="-3.7583516">
        <ele>653.67</ele>
        <time>2021-03-24T18:26:37Z</time>
      </trkpt>
    </trkseg>
  </trk>
</gpx>
